<?xml version="1.0" encoding="UTF-8"?>
<gpx version="1.1" creator="https://www.youtrack.es" xsi:schemaLocation="http://www.topografix.com/GPX/1/1 http://www.topografix.com/GPX/1/1/gpx.xsd http://www.garmin.com/xmlschemas/GpxExtensions/v3 http://www.garmin.com/xmlschemas/GpxExtensionsv3.xsd http://www.garmin.com/xmlschemas/TrackPointExtension/v1 http://www.garmin.com/xmlschemas/TrackPointExtensionv1.xsd" xmlns:gpxtpx="http://www.garmin.com/xmlschemas/TrackPointExtension/v1" xmlns:gpxx="http://www.garmin.com/xmlschemas/GpxExtensions/v3" xmlns:xsi="http://www.w3.org/2001/XMLSchema-instance">
  <metadata>
    <link href="https://www.youtrack.es">
      <text>YouTrack.es</text>
    </link>
    <time>2026-05-08T06:56:58Z</time>
  </metadata>
  <trk>
    <src>https://www.youtrack.es</src>
    <link href="https://www.youtrack.es/ruta/33609-san-pedro-del-valle">
      <text>YouTrack.es</text>
    </link>
    <trkseg>
      <trkpt lat="40.981206667" lon="-5.677626667">
        <time>2022-06-28T09:37:33Z</time>
      </trkpt>
      <trkpt lat="40.981095000" lon="-5.677556667">
        <time>2022-06-28T09:37:34Z</time>
      </trkpt>
      <trkpt lat="40.981031667" lon="-5.677581667">
        <time>2022-06-28T09:37:35Z</time>
      </trkpt>
      <trkpt lat="40.980970000" lon="-5.677605000">
        <time>2022-06-28T09:37:36Z</time>
      </trkpt>
      <trkpt lat="40.980918333" lon="-5.677633333">
        <time>2022-06-28T09:37:37Z</time>
      </trkpt>
      <trkpt lat="40.980868333" lon="-5.677673333">
        <time>2022-06-28T09:37:38Z</time>
      </trkpt>
      <trkpt lat="40.980828333" lon="-5.677730000">
        <time>2022-06-28T09:37:39Z</time>
      </trkpt>
      <trkpt lat="40.980796667" lon="-5.677796667">
        <time>2022-06-28T09:37:40Z</time>
      </trkpt>
      <trkpt lat="40.980765000" lon="-5.677871667">
        <time>2022-06-28T09:37:41Z</time>
      </trkpt>
      <trkpt lat="40.980733333" lon="-5.677945000">
        <time>2022-06-28T09:37:42Z</time>
      </trkpt>
      <trkpt lat="40.980701667" lon="-5.678018333">
        <time>2022-06-28T09:37:43Z</time>
      </trkpt>
      <trkpt lat="40.980668333" lon="-5.678095000">
        <time>2022-06-28T09:37:44Z</time>
      </trkpt>
      <trkpt lat="40.980635000" lon="-5.678175000">
        <time>2022-06-28T09:37:45Z</time>
      </trkpt>
      <trkpt lat="40.980601667" lon="-5.678253333">
        <time>2022-06-28T09:37:46Z</time>
      </trkpt>
      <trkpt lat="40.980566667" lon="-5.678328333">
        <time>2022-06-28T09:37:47Z</time>
      </trkpt>
      <trkpt lat="40.980531667" lon="-5.678401667">
        <time>2022-06-28T09:37:48Z</time>
      </trkpt>
      <trkpt lat="40.980495000" lon="-5.678478333">
        <time>2022-06-28T09:37:49Z</time>
      </trkpt>
      <trkpt lat="40.980456667" lon="-5.678555000">
        <time>2022-06-28T09:37:50Z</time>
      </trkpt>
      <trkpt lat="40.980421667" lon="-5.678633333">
        <time>2022-06-28T09:37:51Z</time>
      </trkpt>
      <trkpt lat="40.980391667" lon="-5.678711667">
        <time>2022-06-28T09:37:52Z</time>
      </trkpt>
      <trkpt lat="40.980358333" lon="-5.678790000">
        <time>2022-06-28T09:37:53Z</time>
      </trkpt>
      <trkpt lat="40.980321667" lon="-5.678873333">
        <time>2022-06-28T09:37:54Z</time>
      </trkpt>
      <trkpt lat="40.980285000" lon="-5.678956667">
        <time>2022-06-28T09:37:55Z</time>
      </trkpt>
      <trkpt lat="40.980246667" lon="-5.679041667">
        <time>2022-06-28T09:37:56Z</time>
      </trkpt>
      <trkpt lat="40.980208333" lon="-5.679128333">
        <time>2022-06-28T09:37:57Z</time>
      </trkpt>
      <trkpt lat="40.980170000" lon="-5.679216667">
        <time>2022-06-28T09:37:58Z</time>
      </trkpt>
      <trkpt lat="40.980130000" lon="-5.679306667">
        <time>2022-06-28T09:37:59Z</time>
      </trkpt>
      <trkpt lat="40.980090000" lon="-5.679400000">
        <time>2022-06-28T09:38:00Z</time>
      </trkpt>
      <trkpt lat="40.980050000" lon="-5.679493333">
        <time>2022-06-28T09:38:01Z</time>
      </trkpt>
      <trkpt lat="40.980008333" lon="-5.679583333">
        <time>2022-06-28T09:38:02Z</time>
      </trkpt>
      <trkpt lat="40.979963333" lon="-5.679671667">
        <time>2022-06-28T09:38:03Z</time>
      </trkpt>
      <trkpt lat="40.979920000" lon="-5.679765000">
        <time>2022-06-28T09:38:04Z</time>
      </trkpt>
      <trkpt lat="40.979878333" lon="-5.679860000">
        <time>2022-06-28T09:38:05Z</time>
      </trkpt>
      <trkpt lat="40.979835000" lon="-5.679953333">
        <time>2022-06-28T09:38:06Z</time>
      </trkpt>
      <trkpt lat="40.979793333" lon="-5.680048333">
        <time>2022-06-28T09:38:07Z</time>
      </trkpt>
      <trkpt lat="40.979750000" lon="-5.680145000">
        <time>2022-06-28T09:38:08Z</time>
      </trkpt>
      <trkpt lat="40.979705000" lon="-5.680241667">
        <time>2022-06-28T09:38:09Z</time>
      </trkpt>
      <trkpt lat="40.979660000" lon="-5.680338333">
        <time>2022-06-28T09:38:10Z</time>
      </trkpt>
      <trkpt lat="40.979660000" lon="-5.680338333">
        <time>2022-06-28T09:38:11Z</time>
      </trkpt>
      <trkpt lat="40.979605000" lon="-5.680461667">
        <time>2022-06-28T09:38:12Z</time>
      </trkpt>
      <trkpt lat="40.979560000" lon="-5.680560000">
        <time>2022-06-28T09:38:13Z</time>
      </trkpt>
      <trkpt lat="40.979513333" lon="-5.680658333">
        <time>2022-06-28T09:38:14Z</time>
      </trkpt>
      <trkpt lat="40.979468333" lon="-5.680756667">
        <time>2022-06-28T09:38:15Z</time>
      </trkpt>
      <trkpt lat="40.979426667" lon="-5.680856667">
        <time>2022-06-28T09:38:16Z</time>
      </trkpt>
      <trkpt lat="40.979381667" lon="-5.680956667">
        <time>2022-06-28T09:38:17Z</time>
      </trkpt>
      <trkpt lat="40.979336667" lon="-5.681056667">
        <time>2022-06-28T09:38:18Z</time>
      </trkpt>
      <trkpt lat="40.979291667" lon="-5.681156667">
        <time>2022-06-28T09:38:19Z</time>
      </trkpt>
      <trkpt lat="40.979246667" lon="-5.681255000">
        <time>2022-06-28T09:38:20Z</time>
      </trkpt>
      <trkpt lat="40.979201667" lon="-5.681353333">
        <time>2022-06-28T09:38:21Z</time>
      </trkpt>
      <trkpt lat="40.979156667" lon="-5.681453333">
        <time>2022-06-28T09:38:22Z</time>
      </trkpt>
      <trkpt lat="40.979113333" lon="-5.681550000">
        <time>2022-06-28T09:38:23Z</time>
      </trkpt>
      <trkpt lat="40.979068333" lon="-5.681648333">
        <time>2022-06-28T09:38:24Z</time>
      </trkpt>
      <trkpt lat="40.979023333" lon="-5.681745000">
        <time>2022-06-28T09:38:25Z</time>
      </trkpt>
      <trkpt lat="40.978980000" lon="-5.681841667">
        <time>2022-06-28T09:38:26Z</time>
      </trkpt>
      <trkpt lat="40.978936667" lon="-5.681938333">
        <time>2022-06-28T09:38:27Z</time>
      </trkpt>
      <trkpt lat="40.978891667" lon="-5.682033333">
        <time>2022-06-28T09:38:28Z</time>
      </trkpt>
      <trkpt lat="40.978848333" lon="-5.682128333">
        <time>2022-06-28T09:38:29Z</time>
      </trkpt>
      <trkpt lat="40.978803333" lon="-5.682223333">
        <time>2022-06-28T09:38:30Z</time>
      </trkpt>
      <trkpt lat="40.978756667" lon="-5.682315000">
        <time>2022-06-28T09:38:31Z</time>
      </trkpt>
      <trkpt lat="40.978706667" lon="-5.682403333">
        <time>2022-06-28T09:38:32Z</time>
      </trkpt>
      <trkpt lat="40.978655000" lon="-5.682493333">
        <time>2022-06-28T09:38:33Z</time>
      </trkpt>
      <trkpt lat="40.978600000" lon="-5.682581667">
        <time>2022-06-28T09:38:34Z</time>
      </trkpt>
      <trkpt lat="40.978540000" lon="-5.682666667">
        <time>2022-06-28T09:38:35Z</time>
      </trkpt>
      <trkpt lat="40.978478333" lon="-5.682748333">
        <time>2022-06-28T09:38:36Z</time>
      </trkpt>
      <trkpt lat="40.978415000" lon="-5.682828333">
        <time>2022-06-28T09:38:37Z</time>
      </trkpt>
      <trkpt lat="40.978348333" lon="-5.682905000">
        <time>2022-06-28T09:38:38Z</time>
      </trkpt>
      <trkpt lat="40.978281667" lon="-5.682978333">
        <time>2022-06-28T09:38:39Z</time>
      </trkpt>
      <trkpt lat="40.978211667" lon="-5.683046667">
        <time>2022-06-28T09:38:40Z</time>
      </trkpt>
      <trkpt lat="40.978140000" lon="-5.683113333">
        <time>2022-06-28T09:38:41Z</time>
      </trkpt>
      <trkpt lat="40.978068333" lon="-5.683176667">
        <time>2022-06-28T09:38:42Z</time>
      </trkpt>
      <trkpt lat="40.977996667" lon="-5.683240000">
        <time>2022-06-28T09:38:43Z</time>
      </trkpt>
      <trkpt lat="40.977926667" lon="-5.683300000">
        <time>2022-06-28T09:38:44Z</time>
      </trkpt>
      <trkpt lat="40.977856667" lon="-5.683360000">
        <time>2022-06-28T09:38:45Z</time>
      </trkpt>
      <trkpt lat="40.977786667" lon="-5.683418333">
        <time>2022-06-28T09:38:46Z</time>
      </trkpt>
      <trkpt lat="40.977718333" lon="-5.683475000">
        <time>2022-06-28T09:38:47Z</time>
      </trkpt>
      <trkpt lat="40.977648333" lon="-5.683531667">
        <time>2022-06-28T09:38:48Z</time>
      </trkpt>
      <trkpt lat="40.977581667" lon="-5.683586667">
        <time>2022-06-28T09:38:49Z</time>
      </trkpt>
      <trkpt lat="40.977515000" lon="-5.683643333">
        <time>2022-06-28T09:38:50Z</time>
      </trkpt>
      <trkpt lat="40.977451667" lon="-5.683696667">
        <time>2022-06-28T09:38:51Z</time>
      </trkpt>
      <trkpt lat="40.977386667" lon="-5.683748333">
        <time>2022-06-28T09:38:52Z</time>
      </trkpt>
      <trkpt lat="40.977323333" lon="-5.683798333">
        <time>2022-06-28T09:38:53Z</time>
      </trkpt>
      <trkpt lat="40.977260000" lon="-5.683851667">
        <time>2022-06-28T09:38:54Z</time>
      </trkpt>
      <trkpt lat="40.977198333" lon="-5.683903333">
        <time>2022-06-28T09:38:55Z</time>
      </trkpt>
      <trkpt lat="40.977136667" lon="-5.683953333">
        <time>2022-06-28T09:38:56Z</time>
      </trkpt>
      <trkpt lat="40.977078333" lon="-5.684005000">
        <time>2022-06-28T09:38:57Z</time>
      </trkpt>
      <trkpt lat="40.977018333" lon="-5.684055000">
        <time>2022-06-28T09:38:58Z</time>
      </trkpt>
      <trkpt lat="40.976958333" lon="-5.684105000">
        <time>2022-06-28T09:38:59Z</time>
      </trkpt>
      <trkpt lat="40.976900000" lon="-5.684153333">
        <time>2022-06-28T09:39:00Z</time>
      </trkpt>
      <trkpt lat="40.976841667" lon="-5.684200000">
        <time>2022-06-28T09:39:01Z</time>
      </trkpt>
      <trkpt lat="40.976785000" lon="-5.684246667">
        <time>2022-06-28T09:39:02Z</time>
      </trkpt>
      <trkpt lat="40.976728333" lon="-5.684291667">
        <time>2022-06-28T09:39:03Z</time>
      </trkpt>
      <trkpt lat="40.976673333" lon="-5.684338333">
        <time>2022-06-28T09:39:04Z</time>
      </trkpt>
      <trkpt lat="40.976618333" lon="-5.684383333">
        <time>2022-06-28T09:39:05Z</time>
      </trkpt>
      <trkpt lat="40.976566667" lon="-5.684426667">
        <time>2022-06-28T09:39:06Z</time>
      </trkpt>
      <trkpt lat="40.976518333" lon="-5.684475000">
        <time>2022-06-28T09:39:07Z</time>
      </trkpt>
      <trkpt lat="40.976483333" lon="-5.684538333">
        <time>2022-06-28T09:39:08Z</time>
      </trkpt>
      <trkpt lat="40.976466667" lon="-5.684613333">
        <time>2022-06-28T09:39:09Z</time>
      </trkpt>
      <trkpt lat="40.976478333" lon="-5.684690000">
        <time>2022-06-28T09:39:10Z</time>
      </trkpt>
      <trkpt lat="40.976513333" lon="-5.684751667">
        <time>2022-06-28T09:39:11Z</time>
      </trkpt>
      <trkpt lat="40.976561667" lon="-5.684806667">
        <time>2022-06-28T09:39:12Z</time>
      </trkpt>
      <trkpt lat="40.976616667" lon="-5.684855000">
        <time>2022-06-28T09:39:13Z</time>
      </trkpt>
      <trkpt lat="40.976675000" lon="-5.684903333">
        <time>2022-06-28T09:39:14Z</time>
      </trkpt>
      <trkpt lat="40.976735000" lon="-5.684953333">
        <time>2022-06-28T09:39:15Z</time>
      </trkpt>
      <trkpt lat="40.976795000" lon="-5.685005000">
        <time>2022-06-28T09:39:16Z</time>
      </trkpt>
      <trkpt lat="40.976856667" lon="-5.685058333">
        <time>2022-06-28T09:39:17Z</time>
      </trkpt>
      <trkpt lat="40.976920000" lon="-5.685113333">
        <time>2022-06-28T09:39:18Z</time>
      </trkpt>
      <trkpt lat="40.976986667" lon="-5.685166667">
        <time>2022-06-28T09:39:19Z</time>
      </trkpt>
      <trkpt lat="40.977055000" lon="-5.685223333">
        <time>2022-06-28T09:39:20Z</time>
      </trkpt>
      <trkpt lat="40.977125000" lon="-5.685281667">
        <time>2022-06-28T09:39:21Z</time>
      </trkpt>
      <trkpt lat="40.977198333" lon="-5.685341667">
        <time>2022-06-28T09:39:22Z</time>
      </trkpt>
      <trkpt lat="40.977270000" lon="-5.685400000">
        <time>2022-06-28T09:39:23Z</time>
      </trkpt>
      <trkpt lat="40.977345000" lon="-5.685463333">
        <time>2022-06-28T09:39:24Z</time>
      </trkpt>
      <trkpt lat="40.977421667" lon="-5.685528333">
        <time>2022-06-28T09:39:25Z</time>
      </trkpt>
      <trkpt lat="40.977500000" lon="-5.685595000">
        <time>2022-06-28T09:39:26Z</time>
      </trkpt>
      <trkpt lat="40.977580000" lon="-5.685665000">
        <time>2022-06-28T09:39:27Z</time>
      </trkpt>
      <trkpt lat="40.977661667" lon="-5.685731667">
        <time>2022-06-28T09:39:28Z</time>
      </trkpt>
      <trkpt lat="40.977741667" lon="-5.685800000">
        <time>2022-06-28T09:39:29Z</time>
      </trkpt>
      <trkpt lat="40.977823333" lon="-5.685870000">
        <time>2022-06-28T09:39:30Z</time>
      </trkpt>
      <trkpt lat="40.977905000" lon="-5.685938333">
        <time>2022-06-28T09:39:31Z</time>
      </trkpt>
      <trkpt lat="40.977985000" lon="-5.686006667">
        <time>2022-06-28T09:39:32Z</time>
      </trkpt>
      <trkpt lat="40.978066667" lon="-5.686076667">
        <time>2022-06-28T09:39:33Z</time>
      </trkpt>
      <trkpt lat="40.978146667" lon="-5.686145000">
        <time>2022-06-28T09:39:34Z</time>
      </trkpt>
      <trkpt lat="40.978230000" lon="-5.686213333">
        <time>2022-06-28T09:39:35Z</time>
      </trkpt>
      <trkpt lat="40.978311667" lon="-5.686285000">
        <time>2022-06-28T09:39:36Z</time>
      </trkpt>
      <trkpt lat="40.978393333" lon="-5.686356667">
        <time>2022-06-28T09:39:37Z</time>
      </trkpt>
      <trkpt lat="40.978475000" lon="-5.686428333">
        <time>2022-06-28T09:39:38Z</time>
      </trkpt>
      <trkpt lat="40.978553333" lon="-5.686500000">
        <time>2022-06-28T09:39:39Z</time>
      </trkpt>
      <trkpt lat="40.978630000" lon="-5.686566667">
        <time>2022-06-28T09:39:40Z</time>
      </trkpt>
      <trkpt lat="40.978708333" lon="-5.686621667">
        <time>2022-06-28T09:39:41Z</time>
      </trkpt>
      <trkpt lat="40.978791667" lon="-5.686650000">
        <time>2022-06-28T09:39:42Z</time>
      </trkpt>
      <trkpt lat="40.978875000" lon="-5.686656667">
        <time>2022-06-28T09:39:43Z</time>
      </trkpt>
      <trkpt lat="40.978951667" lon="-5.686671667">
        <time>2022-06-28T09:39:44Z</time>
      </trkpt>
      <trkpt lat="40.979021667" lon="-5.686713333">
        <time>2022-06-28T09:39:45Z</time>
      </trkpt>
      <trkpt lat="40.979075000" lon="-5.686781667">
        <time>2022-06-28T09:39:46Z</time>
      </trkpt>
      <trkpt lat="40.979113333" lon="-5.686865000">
        <time>2022-06-28T09:39:47Z</time>
      </trkpt>
      <trkpt lat="40.979136667" lon="-5.686958333">
        <time>2022-06-28T09:39:48Z</time>
      </trkpt>
      <trkpt lat="40.979165000" lon="-5.687056667">
        <time>2022-06-28T09:39:49Z</time>
      </trkpt>
      <trkpt lat="40.979208333" lon="-5.687145000">
        <time>2022-06-28T09:39:50Z</time>
      </trkpt>
      <trkpt lat="40.979263333" lon="-5.687225000">
        <time>2022-06-28T09:39:51Z</time>
      </trkpt>
      <trkpt lat="40.979323333" lon="-5.687305000">
        <time>2022-06-28T09:39:52Z</time>
      </trkpt>
      <trkpt lat="40.979383333" lon="-5.687385000">
        <time>2022-06-28T09:39:53Z</time>
      </trkpt>
      <trkpt lat="40.979440000" lon="-5.687466667">
        <time>2022-06-28T09:39:54Z</time>
      </trkpt>
      <trkpt lat="40.979496667" lon="-5.687551667">
        <time>2022-06-28T09:39:55Z</time>
      </trkpt>
      <trkpt lat="40.979551667" lon="-5.687636667">
        <time>2022-06-28T09:39:56Z</time>
      </trkpt>
      <trkpt lat="40.979605000" lon="-5.687723333">
        <time>2022-06-28T09:39:57Z</time>
      </trkpt>
      <trkpt lat="40.979656667" lon="-5.687813333">
        <time>2022-06-28T09:39:58Z</time>
      </trkpt>
      <trkpt lat="40.979705000" lon="-5.687905000">
        <time>2022-06-28T09:39:59Z</time>
      </trkpt>
      <trkpt lat="40.979751667" lon="-5.687998333">
        <time>2022-06-28T09:40:00Z</time>
      </trkpt>
      <trkpt lat="40.979798333" lon="-5.688095000">
        <time>2022-06-28T09:40:01Z</time>
      </trkpt>
      <trkpt lat="40.979841667" lon="-5.688193333">
        <time>2022-06-28T09:40:02Z</time>
      </trkpt>
      <trkpt lat="40.979885000" lon="-5.688291667">
        <time>2022-06-28T09:40:03Z</time>
      </trkpt>
      <trkpt lat="40.979925000" lon="-5.688391667">
        <time>2022-06-28T09:40:04Z</time>
      </trkpt>
      <trkpt lat="40.979963333" lon="-5.688491667">
        <time>2022-06-28T09:40:05Z</time>
      </trkpt>
      <trkpt lat="40.980001667" lon="-5.688593333">
        <time>2022-06-28T09:40:06Z</time>
      </trkpt>
      <trkpt lat="40.980040000" lon="-5.688696667">
        <time>2022-06-28T09:40:07Z</time>
      </trkpt>
      <trkpt lat="40.980078333" lon="-5.688798333">
        <time>2022-06-28T09:40:08Z</time>
      </trkpt>
      <trkpt lat="40.980113333" lon="-5.688901667">
        <time>2022-06-28T09:40:09Z</time>
      </trkpt>
      <trkpt lat="40.980148333" lon="-5.689003333">
        <time>2022-06-28T09:40:10Z</time>
      </trkpt>
      <trkpt lat="40.980181667" lon="-5.689106667">
        <time>2022-06-28T09:40:11Z</time>
      </trkpt>
      <trkpt lat="40.980215000" lon="-5.689210000">
        <time>2022-06-28T09:40:12Z</time>
      </trkpt>
      <trkpt lat="40.980248333" lon="-5.689313333">
        <time>2022-06-28T09:40:13Z</time>
      </trkpt>
      <trkpt lat="40.980281667" lon="-5.689416667">
        <time>2022-06-28T09:40:14Z</time>
      </trkpt>
      <trkpt lat="40.980315000" lon="-5.689518333">
        <time>2022-06-28T09:40:15Z</time>
      </trkpt>
      <trkpt lat="40.980346667" lon="-5.689620000">
        <time>2022-06-28T09:40:16Z</time>
      </trkpt>
      <trkpt lat="40.980378333" lon="-5.689723333">
        <time>2022-06-28T09:40:17Z</time>
      </trkpt>
      <trkpt lat="40.980411667" lon="-5.689821667">
        <time>2022-06-28T09:40:18Z</time>
      </trkpt>
      <trkpt lat="40.980446667" lon="-5.689916667">
        <time>2022-06-28T09:40:19Z</time>
      </trkpt>
      <trkpt lat="40.980478333" lon="-5.690015000">
        <time>2022-06-28T09:40:20Z</time>
      </trkpt>
      <trkpt lat="40.980508333" lon="-5.690115000">
        <time>2022-06-28T09:40:21Z</time>
      </trkpt>
      <trkpt lat="40.980538333" lon="-5.690211667">
        <time>2022-06-28T09:40:22Z</time>
      </trkpt>
      <trkpt lat="40.980568333" lon="-5.690303333">
        <time>2022-06-28T09:40:23Z</time>
      </trkpt>
      <trkpt lat="40.980598333" lon="-5.690400000">
        <time>2022-06-28T09:40:24Z</time>
      </trkpt>
      <trkpt lat="40.980621667" lon="-5.690498333">
        <time>2022-06-28T09:40:25Z</time>
      </trkpt>
      <trkpt lat="40.980641667" lon="-5.690598333">
        <time>2022-06-28T09:40:26Z</time>
      </trkpt>
      <trkpt lat="40.980658333" lon="-5.690696667">
        <time>2022-06-28T09:40:27Z</time>
      </trkpt>
      <trkpt lat="40.980670000" lon="-5.690796667">
        <time>2022-06-28T09:40:28Z</time>
      </trkpt>
      <trkpt lat="40.980681667" lon="-5.690896667">
        <time>2022-06-28T09:40:29Z</time>
      </trkpt>
      <trkpt lat="40.980688333" lon="-5.690998333">
        <time>2022-06-28T09:40:30Z</time>
      </trkpt>
      <trkpt lat="40.980690000" lon="-5.691101667">
        <time>2022-06-28T09:40:31Z</time>
      </trkpt>
      <trkpt lat="40.980688333" lon="-5.691205000">
        <time>2022-06-28T09:40:32Z</time>
      </trkpt>
      <trkpt lat="40.980680000" lon="-5.691311667">
        <time>2022-06-28T09:40:33Z</time>
      </trkpt>
      <trkpt lat="40.980671667" lon="-5.691416667">
        <time>2022-06-28T09:40:34Z</time>
      </trkpt>
      <trkpt lat="40.980661667" lon="-5.691523333">
        <time>2022-06-28T09:40:35Z</time>
      </trkpt>
      <trkpt lat="40.980646667" lon="-5.691628333">
        <time>2022-06-28T09:40:36Z</time>
      </trkpt>
      <trkpt lat="40.980631667" lon="-5.691735000">
        <time>2022-06-28T09:40:37Z</time>
      </trkpt>
      <trkpt lat="40.980618333" lon="-5.691841667">
        <time>2022-06-28T09:40:38Z</time>
      </trkpt>
      <trkpt lat="40.980605000" lon="-5.691950000">
        <time>2022-06-28T09:40:39Z</time>
      </trkpt>
      <trkpt lat="40.980593333" lon="-5.692058333">
        <time>2022-06-28T09:40:40Z</time>
      </trkpt>
      <trkpt lat="40.980583333" lon="-5.692168333">
        <time>2022-06-28T09:40:41Z</time>
      </trkpt>
      <trkpt lat="40.980576667" lon="-5.692276667">
        <time>2022-06-28T09:40:42Z</time>
      </trkpt>
      <trkpt lat="40.980573333" lon="-5.692385000">
        <time>2022-06-28T09:40:43Z</time>
      </trkpt>
      <trkpt lat="40.980573333" lon="-5.692493333">
        <time>2022-06-28T09:40:44Z</time>
      </trkpt>
      <trkpt lat="40.980578333" lon="-5.692603333">
        <time>2022-06-28T09:40:45Z</time>
      </trkpt>
      <trkpt lat="40.980585000" lon="-5.692710000">
        <time>2022-06-28T09:40:46Z</time>
      </trkpt>
      <trkpt lat="40.980595000" lon="-5.692818333">
        <time>2022-06-28T09:40:47Z</time>
      </trkpt>
      <trkpt lat="40.980606667" lon="-5.692925000">
        <time>2022-06-28T09:40:48Z</time>
      </trkpt>
      <trkpt lat="40.980621667" lon="-5.693030000">
        <time>2022-06-28T09:40:49Z</time>
      </trkpt>
      <trkpt lat="40.980640000" lon="-5.693133333">
        <time>2022-06-28T09:40:50Z</time>
      </trkpt>
      <trkpt lat="40.980656667" lon="-5.693236667">
        <time>2022-06-28T09:40:51Z</time>
      </trkpt>
      <trkpt lat="40.980676667" lon="-5.693340000">
        <time>2022-06-28T09:40:52Z</time>
      </trkpt>
      <trkpt lat="40.980698333" lon="-5.693441667">
        <time>2022-06-28T09:40:53Z</time>
      </trkpt>
      <trkpt lat="40.980718333" lon="-5.693543333">
        <time>2022-06-28T09:40:54Z</time>
      </trkpt>
      <trkpt lat="40.980738333" lon="-5.693645000">
        <time>2022-06-28T09:40:55Z</time>
      </trkpt>
      <trkpt lat="40.980760000" lon="-5.693746667">
        <time>2022-06-28T09:40:56Z</time>
      </trkpt>
      <trkpt lat="40.980781667" lon="-5.693850000">
        <time>2022-06-28T09:40:57Z</time>
      </trkpt>
      <trkpt lat="40.980803333" lon="-5.693953333">
        <time>2022-06-28T09:40:58Z</time>
      </trkpt>
      <trkpt lat="40.980825000" lon="-5.694056667">
        <time>2022-06-28T09:40:59Z</time>
      </trkpt>
      <trkpt lat="40.980845000" lon="-5.694158333">
        <time>2022-06-28T09:41:00Z</time>
      </trkpt>
      <trkpt lat="40.980865000" lon="-5.694260000">
        <time>2022-06-28T09:41:01Z</time>
      </trkpt>
      <trkpt lat="40.980885000" lon="-5.694361667">
        <time>2022-06-28T09:41:02Z</time>
      </trkpt>
      <trkpt lat="40.980905000" lon="-5.694460000">
        <time>2022-06-28T09:41:03Z</time>
      </trkpt>
      <trkpt lat="40.980925000" lon="-5.694558333">
        <time>2022-06-28T09:41:04Z</time>
      </trkpt>
      <trkpt lat="40.980943333" lon="-5.694655000">
        <time>2022-06-28T09:41:05Z</time>
      </trkpt>
      <trkpt lat="40.980960000" lon="-5.694746667">
        <time>2022-06-28T09:41:06Z</time>
      </trkpt>
      <trkpt lat="40.980976667" lon="-5.694828333">
        <time>2022-06-28T09:41:07Z</time>
      </trkpt>
      <trkpt lat="40.980996667" lon="-5.694903333">
        <time>2022-06-28T09:41:08Z</time>
      </trkpt>
      <trkpt lat="40.981023333" lon="-5.694971667">
        <time>2022-06-28T09:41:09Z</time>
      </trkpt>
      <trkpt lat="40.981060000" lon="-5.695026667">
        <time>2022-06-28T09:41:10Z</time>
      </trkpt>
      <trkpt lat="40.981100000" lon="-5.695071667">
        <time>2022-06-28T09:41:11Z</time>
      </trkpt>
      <trkpt lat="40.981141667" lon="-5.695108333">
        <time>2022-06-28T09:41:12Z</time>
      </trkpt>
      <trkpt lat="40.981183333" lon="-5.695155000">
        <time>2022-06-28T09:41:13Z</time>
      </trkpt>
      <trkpt lat="40.981216667" lon="-5.695213333">
        <time>2022-06-28T09:41:14Z</time>
      </trkpt>
      <trkpt lat="40.981238333" lon="-5.695281667">
        <time>2022-06-28T09:41:15Z</time>
      </trkpt>
      <trkpt lat="40.981241667" lon="-5.695356667">
        <time>2022-06-28T09:41:16Z</time>
      </trkpt>
      <trkpt lat="40.981230000" lon="-5.695430000">
        <time>2022-06-28T09:41:17Z</time>
      </trkpt>
      <trkpt lat="40.981210000" lon="-5.695505000">
        <time>2022-06-28T09:41:18Z</time>
      </trkpt>
      <trkpt lat="40.981190000" lon="-5.695581667">
        <time>2022-06-28T09:41:19Z</time>
      </trkpt>
      <trkpt lat="40.981175000" lon="-5.695663333">
        <time>2022-06-28T09:41:20Z</time>
      </trkpt>
      <trkpt lat="40.981171667" lon="-5.695750000">
        <time>2022-06-28T09:41:21Z</time>
      </trkpt>
      <trkpt lat="40.981180000" lon="-5.695835000">
        <time>2022-06-28T09:41:22Z</time>
      </trkpt>
      <trkpt lat="40.981195000" lon="-5.695923333">
        <time>2022-06-28T09:41:23Z</time>
      </trkpt>
      <trkpt lat="40.981210000" lon="-5.696013333">
        <time>2022-06-28T09:41:24Z</time>
      </trkpt>
      <trkpt lat="40.981226667" lon="-5.696106667">
        <time>2022-06-28T09:41:25Z</time>
      </trkpt>
      <trkpt lat="40.981243333" lon="-5.696200000">
        <time>2022-06-28T09:41:26Z</time>
      </trkpt>
      <trkpt lat="40.981260000" lon="-5.696295000">
        <time>2022-06-28T09:41:27Z</time>
      </trkpt>
      <trkpt lat="40.981278333" lon="-5.696388333">
        <time>2022-06-28T09:41:28Z</time>
      </trkpt>
      <trkpt lat="40.981296667" lon="-5.696485000">
        <time>2022-06-28T09:41:29Z</time>
      </trkpt>
      <trkpt lat="40.981313333" lon="-5.696581667">
        <time>2022-06-28T09:41:30Z</time>
      </trkpt>
      <trkpt lat="40.981330000" lon="-5.696680000">
        <time>2022-06-28T09:41:31Z</time>
      </trkpt>
      <trkpt lat="40.981345000" lon="-5.696778333">
        <time>2022-06-28T09:41:32Z</time>
      </trkpt>
      <trkpt lat="40.981361667" lon="-5.696878333">
        <time>2022-06-28T09:41:33Z</time>
      </trkpt>
      <trkpt lat="40.981378333" lon="-5.696978333">
        <time>2022-06-28T09:41:34Z</time>
      </trkpt>
      <trkpt lat="40.981395000" lon="-5.697078333">
        <time>2022-06-28T09:41:35Z</time>
      </trkpt>
      <trkpt lat="40.981411667" lon="-5.697178333">
        <time>2022-06-28T09:41:36Z</time>
      </trkpt>
      <trkpt lat="40.981430000" lon="-5.697280000">
        <time>2022-06-28T09:41:37Z</time>
      </trkpt>
      <trkpt lat="40.981446667" lon="-5.697381667">
        <time>2022-06-28T09:41:38Z</time>
      </trkpt>
      <trkpt lat="40.981466667" lon="-5.697481667">
        <time>2022-06-28T09:41:39Z</time>
      </trkpt>
      <trkpt lat="40.981485000" lon="-5.697583333">
        <time>2022-06-28T09:41:40Z</time>
      </trkpt>
      <trkpt lat="40.981503333" lon="-5.697686667">
        <time>2022-06-28T09:41:41Z</time>
      </trkpt>
      <trkpt lat="40.981518333" lon="-5.697790000">
        <time>2022-06-28T09:41:42Z</time>
      </trkpt>
      <trkpt lat="40.981535000" lon="-5.697893333">
        <time>2022-06-28T09:41:43Z</time>
      </trkpt>
      <trkpt lat="40.981550000" lon="-5.697996667">
        <time>2022-06-28T09:41:44Z</time>
      </trkpt>
      <trkpt lat="40.981565000" lon="-5.698100000">
        <time>2022-06-28T09:41:45Z</time>
      </trkpt>
      <trkpt lat="40.981578333" lon="-5.698203333">
        <time>2022-06-28T09:41:46Z</time>
      </trkpt>
      <trkpt lat="40.981593333" lon="-5.698305000">
        <time>2022-06-28T09:41:47Z</time>
      </trkpt>
      <trkpt lat="40.981608333" lon="-5.698406667">
        <time>2022-06-28T09:41:48Z</time>
      </trkpt>
      <trkpt lat="40.981626667" lon="-5.698506667">
        <time>2022-06-28T09:41:49Z</time>
      </trkpt>
      <trkpt lat="40.981648333" lon="-5.698603333">
        <time>2022-06-28T09:41:50Z</time>
      </trkpt>
      <trkpt lat="40.981666667" lon="-5.698701667">
        <time>2022-06-28T09:41:51Z</time>
      </trkpt>
      <trkpt lat="40.981683333" lon="-5.698800000">
        <time>2022-06-28T09:41:52Z</time>
      </trkpt>
      <trkpt lat="40.981703333" lon="-5.698898333">
        <time>2022-06-28T09:41:53Z</time>
      </trkpt>
      <trkpt lat="40.981733333" lon="-5.698991667">
        <time>2022-06-28T09:41:54Z</time>
      </trkpt>
      <trkpt lat="40.981773333" lon="-5.699081667">
        <time>2022-06-28T09:41:55Z</time>
      </trkpt>
      <trkpt lat="40.981800000" lon="-5.699180000">
        <time>2022-06-28T09:41:56Z</time>
      </trkpt>
      <trkpt lat="40.981801667" lon="-5.699285000">
        <time>2022-06-28T09:41:57Z</time>
      </trkpt>
      <trkpt lat="40.981785000" lon="-5.699390000">
        <time>2022-06-28T09:41:58Z</time>
      </trkpt>
      <trkpt lat="40.981775000" lon="-5.699496667">
        <time>2022-06-28T09:41:59Z</time>
      </trkpt>
      <trkpt lat="40.981775000" lon="-5.699606667">
        <time>2022-06-28T09:42:00Z</time>
      </trkpt>
      <trkpt lat="40.981776667" lon="-5.699716667">
        <time>2022-06-28T09:42:01Z</time>
      </trkpt>
      <trkpt lat="40.981780000" lon="-5.699831667">
        <time>2022-06-28T09:42:02Z</time>
      </trkpt>
      <trkpt lat="40.981783333" lon="-5.699945000">
        <time>2022-06-28T09:42:03Z</time>
      </trkpt>
      <trkpt lat="40.981785000" lon="-5.700060000">
        <time>2022-06-28T09:42:04Z</time>
      </trkpt>
      <trkpt lat="40.981788333" lon="-5.700173333">
        <time>2022-06-28T09:42:05Z</time>
      </trkpt>
      <trkpt lat="40.981788333" lon="-5.700290000">
        <time>2022-06-28T09:42:06Z</time>
      </trkpt>
      <trkpt lat="40.981791667" lon="-5.700403333">
        <time>2022-06-28T09:42:07Z</time>
      </trkpt>
      <trkpt lat="40.981793333" lon="-5.700515000">
        <time>2022-06-28T09:42:08Z</time>
      </trkpt>
      <trkpt lat="40.981795000" lon="-5.700628333">
        <time>2022-06-28T09:42:09Z</time>
      </trkpt>
      <trkpt lat="40.981796667" lon="-5.700740000">
        <time>2022-06-28T09:42:10Z</time>
      </trkpt>
      <trkpt lat="40.981798333" lon="-5.700851667">
        <time>2022-06-28T09:42:11Z</time>
      </trkpt>
      <trkpt lat="40.981800000" lon="-5.700963333">
        <time>2022-06-28T09:42:12Z</time>
      </trkpt>
      <trkpt lat="40.981801667" lon="-5.701073333">
        <time>2022-06-28T09:42:13Z</time>
      </trkpt>
      <trkpt lat="40.981805000" lon="-5.701183333">
        <time>2022-06-28T09:42:14Z</time>
      </trkpt>
      <trkpt lat="40.981806667" lon="-5.701291667">
        <time>2022-06-28T09:42:15Z</time>
      </trkpt>
      <trkpt lat="40.981808333" lon="-5.701400000">
        <time>2022-06-28T09:42:16Z</time>
      </trkpt>
      <trkpt lat="40.981808333" lon="-5.701506667">
        <time>2022-06-28T09:42:17Z</time>
      </trkpt>
      <trkpt lat="40.981810000" lon="-5.701615000">
        <time>2022-06-28T09:42:18Z</time>
      </trkpt>
      <trkpt lat="40.981811667" lon="-5.701721667">
        <time>2022-06-28T09:42:19Z</time>
      </trkpt>
      <trkpt lat="40.981813333" lon="-5.701828333">
        <time>2022-06-28T09:42:20Z</time>
      </trkpt>
      <trkpt lat="40.981815000" lon="-5.701933333">
        <time>2022-06-28T09:42:21Z</time>
      </trkpt>
      <trkpt lat="40.981816667" lon="-5.702036667">
        <time>2022-06-28T09:42:22Z</time>
      </trkpt>
      <trkpt lat="40.981818333" lon="-5.702140000">
        <time>2022-06-28T09:42:23Z</time>
      </trkpt>
      <trkpt lat="40.981820000" lon="-5.702240000">
        <time>2022-06-28T09:42:24Z</time>
      </trkpt>
      <trkpt lat="40.981820000" lon="-5.702340000">
        <time>2022-06-28T09:42:25Z</time>
      </trkpt>
      <trkpt lat="40.981820000" lon="-5.702438333">
        <time>2022-06-28T09:42:26Z</time>
      </trkpt>
      <trkpt lat="40.981821667" lon="-5.702536667">
        <time>2022-06-28T09:42:27Z</time>
      </trkpt>
      <trkpt lat="40.981823333" lon="-5.702631667">
        <time>2022-06-28T09:42:28Z</time>
      </trkpt>
      <trkpt lat="40.981830000" lon="-5.702726667">
        <time>2022-06-28T09:42:29Z</time>
      </trkpt>
      <trkpt lat="40.981840000" lon="-5.702820000">
        <time>2022-06-28T09:42:30Z</time>
      </trkpt>
      <trkpt lat="40.981853333" lon="-5.702911667">
        <time>2022-06-28T09:42:31Z</time>
      </trkpt>
      <trkpt lat="40.981860000" lon="-5.703006667">
        <time>2022-06-28T09:42:32Z</time>
      </trkpt>
      <trkpt lat="40.981855000" lon="-5.703103333">
        <time>2022-06-28T09:42:33Z</time>
      </trkpt>
      <trkpt lat="40.981843333" lon="-5.703198333">
        <time>2022-06-28T09:42:34Z</time>
      </trkpt>
      <trkpt lat="40.981836667" lon="-5.703296667">
        <time>2022-06-28T09:42:35Z</time>
      </trkpt>
      <trkpt lat="40.981835000" lon="-5.703395000">
        <time>2022-06-28T09:42:36Z</time>
      </trkpt>
      <trkpt lat="40.981833333" lon="-5.703495000">
        <time>2022-06-28T09:42:37Z</time>
      </trkpt>
      <trkpt lat="40.981830000" lon="-5.703593333">
        <time>2022-06-28T09:42:38Z</time>
      </trkpt>
      <trkpt lat="40.981830000" lon="-5.703693333">
        <time>2022-06-28T09:42:39Z</time>
      </trkpt>
      <trkpt lat="40.981830000" lon="-5.703791667">
        <time>2022-06-28T09:42:40Z</time>
      </trkpt>
      <trkpt lat="40.981830000" lon="-5.703891667">
        <time>2022-06-28T09:42:41Z</time>
      </trkpt>
      <trkpt lat="40.981826667" lon="-5.703991667">
        <time>2022-06-28T09:42:42Z</time>
      </trkpt>
      <trkpt lat="40.981821667" lon="-5.704091667">
        <time>2022-06-28T09:42:43Z</time>
      </trkpt>
      <trkpt lat="40.981818333" lon="-5.704193333">
        <time>2022-06-28T09:42:44Z</time>
      </trkpt>
      <trkpt lat="40.981811667" lon="-5.704293333">
        <time>2022-06-28T09:42:45Z</time>
      </trkpt>
      <trkpt lat="40.981806667" lon="-5.704393333">
        <time>2022-06-28T09:42:46Z</time>
      </trkpt>
      <trkpt lat="40.981801667" lon="-5.704493333">
        <time>2022-06-28T09:42:47Z</time>
      </trkpt>
      <trkpt lat="40.981795000" lon="-5.704591667">
        <time>2022-06-28T09:42:48Z</time>
      </trkpt>
      <trkpt lat="40.981790000" lon="-5.704690000">
        <time>2022-06-28T09:42:49Z</time>
      </trkpt>
      <trkpt lat="40.981783333" lon="-5.704788333">
        <time>2022-06-28T09:42:50Z</time>
      </trkpt>
      <trkpt lat="40.981776667" lon="-5.704885000">
        <time>2022-06-28T09:42:51Z</time>
      </trkpt>
      <trkpt lat="40.981771667" lon="-5.704981667">
        <time>2022-06-28T09:42:52Z</time>
      </trkpt>
      <trkpt lat="40.981765000" lon="-5.705080000">
        <time>2022-06-28T09:42:53Z</time>
      </trkpt>
      <trkpt lat="40.981760000" lon="-5.705180000">
        <time>2022-06-28T09:42:54Z</time>
      </trkpt>
      <trkpt lat="40.981755000" lon="-5.705280000">
        <time>2022-06-28T09:42:55Z</time>
      </trkpt>
      <trkpt lat="40.981750000" lon="-5.705381667">
        <time>2022-06-28T09:42:56Z</time>
      </trkpt>
      <trkpt lat="40.981743333" lon="-5.705485000">
        <time>2022-06-28T09:42:57Z</time>
      </trkpt>
      <trkpt lat="40.981738333" lon="-5.705586667">
        <time>2022-06-28T09:42:58Z</time>
      </trkpt>
      <trkpt lat="40.981730000" lon="-5.705691667">
        <time>2022-06-28T09:42:59Z</time>
      </trkpt>
      <trkpt lat="40.981725000" lon="-5.705796667">
        <time>2022-06-28T09:43:00Z</time>
      </trkpt>
      <trkpt lat="40.981718333" lon="-5.705901667">
        <time>2022-06-28T09:43:01Z</time>
      </trkpt>
      <trkpt lat="40.981706667" lon="-5.706011667">
        <time>2022-06-28T09:43:02Z</time>
      </trkpt>
      <trkpt lat="40.981701667" lon="-5.706120000">
        <time>2022-06-28T09:43:03Z</time>
      </trkpt>
      <trkpt lat="40.981695000" lon="-5.706228333">
        <time>2022-06-28T09:43:04Z</time>
      </trkpt>
      <trkpt lat="40.981690000" lon="-5.706335000">
        <time>2022-06-28T09:43:05Z</time>
      </trkpt>
      <trkpt lat="40.981683333" lon="-5.706441667">
        <time>2022-06-28T09:43:06Z</time>
      </trkpt>
      <trkpt lat="40.981678333" lon="-5.706548333">
        <time>2022-06-28T09:43:07Z</time>
      </trkpt>
      <trkpt lat="40.981671667" lon="-5.706653333">
        <time>2022-06-28T09:43:08Z</time>
      </trkpt>
      <trkpt lat="40.981665000" lon="-5.706756667">
        <time>2022-06-28T09:43:09Z</time>
      </trkpt>
      <trkpt lat="40.981660000" lon="-5.706858333">
        <time>2022-06-28T09:43:10Z</time>
      </trkpt>
      <trkpt lat="40.981655000" lon="-5.706960000">
        <time>2022-06-28T09:43:11Z</time>
      </trkpt>
      <trkpt lat="40.981650000" lon="-5.707060000">
        <time>2022-06-28T09:43:12Z</time>
      </trkpt>
      <trkpt lat="40.981646667" lon="-5.707163333">
        <time>2022-06-28T09:43:13Z</time>
      </trkpt>
      <trkpt lat="40.981641667" lon="-5.707263333">
        <time>2022-06-28T09:43:14Z</time>
      </trkpt>
      <trkpt lat="40.981636667" lon="-5.707360000">
        <time>2022-06-28T09:43:15Z</time>
      </trkpt>
      <trkpt lat="40.981630000" lon="-5.707456667">
        <time>2022-06-28T09:43:16Z</time>
      </trkpt>
      <trkpt lat="40.981625000" lon="-5.707555000">
        <time>2022-06-28T09:43:17Z</time>
      </trkpt>
      <trkpt lat="40.981621667" lon="-5.707650000">
        <time>2022-06-28T09:43:18Z</time>
      </trkpt>
      <trkpt lat="40.981616667" lon="-5.707746667">
        <time>2022-06-28T09:43:19Z</time>
      </trkpt>
      <trkpt lat="40.981610000" lon="-5.707841667">
        <time>2022-06-28T09:43:20Z</time>
      </trkpt>
      <trkpt lat="40.981608333" lon="-5.707936667">
        <time>2022-06-28T09:43:21Z</time>
      </trkpt>
      <trkpt lat="40.981613333" lon="-5.708031667">
        <time>2022-06-28T09:43:22Z</time>
      </trkpt>
      <trkpt lat="40.981623333" lon="-5.708125000">
        <time>2022-06-28T09:43:23Z</time>
      </trkpt>
      <trkpt lat="40.981621667" lon="-5.708218333">
        <time>2022-06-28T09:43:24Z</time>
      </trkpt>
      <trkpt lat="40.981611667" lon="-5.708310000">
        <time>2022-06-28T09:43:25Z</time>
      </trkpt>
      <trkpt lat="40.981600000" lon="-5.708401667">
        <time>2022-06-28T09:43:26Z</time>
      </trkpt>
      <trkpt lat="40.981595000" lon="-5.708496667">
        <time>2022-06-28T09:43:27Z</time>
      </trkpt>
      <trkpt lat="40.981596667" lon="-5.708595000">
        <time>2022-06-28T09:43:28Z</time>
      </trkpt>
      <trkpt lat="40.981603333" lon="-5.708693333">
        <time>2022-06-28T09:43:29Z</time>
      </trkpt>
      <trkpt lat="40.981615000" lon="-5.708793333">
        <time>2022-06-28T09:43:30Z</time>
      </trkpt>
      <trkpt lat="40.981628333" lon="-5.708891667">
        <time>2022-06-28T09:43:31Z</time>
      </trkpt>
      <trkpt lat="40.981643333" lon="-5.708988333">
        <time>2022-06-28T09:43:32Z</time>
      </trkpt>
      <trkpt lat="40.981660000" lon="-5.709085000">
        <time>2022-06-28T09:43:33Z</time>
      </trkpt>
      <trkpt lat="40.981680000" lon="-5.709181667">
        <time>2022-06-28T09:43:34Z</time>
      </trkpt>
      <trkpt lat="40.981701667" lon="-5.709276667">
        <time>2022-06-28T09:43:35Z</time>
      </trkpt>
      <trkpt lat="40.981726667" lon="-5.709371667">
        <time>2022-06-28T09:43:36Z</time>
      </trkpt>
      <trkpt lat="40.981755000" lon="-5.709465000">
        <time>2022-06-28T09:43:37Z</time>
      </trkpt>
      <trkpt lat="40.981786667" lon="-5.709560000">
        <time>2022-06-28T09:43:38Z</time>
      </trkpt>
      <trkpt lat="40.981821667" lon="-5.709656667">
        <time>2022-06-28T09:43:39Z</time>
      </trkpt>
      <trkpt lat="40.981858333" lon="-5.709750000">
        <time>2022-06-28T09:43:40Z</time>
      </trkpt>
      <trkpt lat="40.981900000" lon="-5.709843333">
        <time>2022-06-28T09:43:41Z</time>
      </trkpt>
      <trkpt lat="40.981943333" lon="-5.709935000">
        <time>2022-06-28T09:43:42Z</time>
      </trkpt>
      <trkpt lat="40.981985000" lon="-5.710026667">
        <time>2022-06-28T09:43:43Z</time>
      </trkpt>
      <trkpt lat="40.982030000" lon="-5.710116667">
        <time>2022-06-28T09:43:44Z</time>
      </trkpt>
      <trkpt lat="40.982073333" lon="-5.710206667">
        <time>2022-06-28T09:43:45Z</time>
      </trkpt>
      <trkpt lat="40.982116667" lon="-5.710296667">
        <time>2022-06-28T09:43:46Z</time>
      </trkpt>
      <trkpt lat="40.982160000" lon="-5.710385000">
        <time>2022-06-28T09:43:47Z</time>
      </trkpt>
      <trkpt lat="40.982201667" lon="-5.710471667">
        <time>2022-06-28T09:43:48Z</time>
      </trkpt>
      <trkpt lat="40.982243333" lon="-5.710558333">
        <time>2022-06-28T09:43:49Z</time>
      </trkpt>
      <trkpt lat="40.982283333" lon="-5.710643333">
        <time>2022-06-28T09:43:50Z</time>
      </trkpt>
      <trkpt lat="40.982325000" lon="-5.710726667">
        <time>2022-06-28T09:43:51Z</time>
      </trkpt>
      <trkpt lat="40.982366667" lon="-5.710810000">
        <time>2022-06-28T09:43:52Z</time>
      </trkpt>
      <trkpt lat="40.982406667" lon="-5.710893333">
        <time>2022-06-28T09:43:53Z</time>
      </trkpt>
      <trkpt lat="40.982446667" lon="-5.710975000">
        <time>2022-06-28T09:43:54Z</time>
      </trkpt>
      <trkpt lat="40.982485000" lon="-5.711055000">
        <time>2022-06-28T09:43:55Z</time>
      </trkpt>
      <trkpt lat="40.982525000" lon="-5.711135000">
        <time>2022-06-28T09:43:56Z</time>
      </trkpt>
      <trkpt lat="40.982565000" lon="-5.711215000">
        <time>2022-06-28T09:43:57Z</time>
      </trkpt>
      <trkpt lat="40.982605000" lon="-5.711291667">
        <time>2022-06-28T09:43:58Z</time>
      </trkpt>
      <trkpt lat="40.982645000" lon="-5.711368333">
        <time>2022-06-28T09:43:59Z</time>
      </trkpt>
      <trkpt lat="40.982683333" lon="-5.711448333">
        <time>2022-06-28T09:44:00Z</time>
      </trkpt>
      <trkpt lat="40.982720000" lon="-5.711526667">
        <time>2022-06-28T09:44:01Z</time>
      </trkpt>
      <trkpt lat="40.982755000" lon="-5.711603333">
        <time>2022-06-28T09:44:02Z</time>
      </trkpt>
      <trkpt lat="40.982791667" lon="-5.711680000">
        <time>2022-06-28T09:44:03Z</time>
      </trkpt>
      <trkpt lat="40.982825000" lon="-5.711755000">
        <time>2022-06-28T09:44:04Z</time>
      </trkpt>
      <trkpt lat="40.982860000" lon="-5.711828333">
        <time>2022-06-28T09:44:05Z</time>
      </trkpt>
      <trkpt lat="40.982896667" lon="-5.711896667">
        <time>2022-06-28T09:44:06Z</time>
      </trkpt>
      <trkpt lat="40.982933333" lon="-5.711968333">
        <time>2022-06-28T09:44:07Z</time>
      </trkpt>
      <trkpt lat="40.982970000" lon="-5.712043333">
        <time>2022-06-28T09:44:08Z</time>
      </trkpt>
      <trkpt lat="40.983008333" lon="-5.712120000">
        <time>2022-06-28T09:44:09Z</time>
      </trkpt>
      <trkpt lat="40.983046667" lon="-5.712198333">
        <time>2022-06-28T09:44:10Z</time>
      </trkpt>
      <trkpt lat="40.983085000" lon="-5.712278333">
        <time>2022-06-28T09:44:11Z</time>
      </trkpt>
      <trkpt lat="40.983125000" lon="-5.712356667">
        <time>2022-06-28T09:44:12Z</time>
      </trkpt>
      <trkpt lat="40.983163333" lon="-5.712436667">
        <time>2022-06-28T09:44:13Z</time>
      </trkpt>
      <trkpt lat="40.983201667" lon="-5.712518333">
        <time>2022-06-28T09:44:14Z</time>
      </trkpt>
      <trkpt lat="40.983240000" lon="-5.712600000">
        <time>2022-06-28T09:44:15Z</time>
      </trkpt>
      <trkpt lat="40.983276667" lon="-5.712681667">
        <time>2022-06-28T09:44:16Z</time>
      </trkpt>
      <trkpt lat="40.983316667" lon="-5.712763333">
        <time>2022-06-28T09:44:17Z</time>
      </trkpt>
      <trkpt lat="40.983355000" lon="-5.712845000">
        <time>2022-06-28T09:44:18Z</time>
      </trkpt>
      <trkpt lat="40.983395000" lon="-5.712925000">
        <time>2022-06-28T09:44:19Z</time>
      </trkpt>
      <trkpt lat="40.983440000" lon="-5.712996667">
        <time>2022-06-28T09:44:20Z</time>
      </trkpt>
      <trkpt lat="40.983493333" lon="-5.713056667">
        <time>2022-06-28T09:44:21Z</time>
      </trkpt>
      <trkpt lat="40.983555000" lon="-5.713105000">
        <time>2022-06-28T09:44:22Z</time>
      </trkpt>
      <trkpt lat="40.983613333" lon="-5.713156667">
        <time>2022-06-28T09:44:23Z</time>
      </trkpt>
      <trkpt lat="40.983668333" lon="-5.713213333">
        <time>2022-06-28T09:44:24Z</time>
      </trkpt>
      <trkpt lat="40.983725000" lon="-5.713266667">
        <time>2022-06-28T09:44:25Z</time>
      </trkpt>
      <trkpt lat="40.983790000" lon="-5.713296667">
        <time>2022-06-28T09:44:26Z</time>
      </trkpt>
      <trkpt lat="40.983858333" lon="-5.713308333">
        <time>2022-06-28T09:44:27Z</time>
      </trkpt>
      <trkpt lat="40.983928333" lon="-5.713318333">
        <time>2022-06-28T09:44:28Z</time>
      </trkpt>
      <trkpt lat="40.983998333" lon="-5.713330000">
        <time>2022-06-28T09:44:29Z</time>
      </trkpt>
      <trkpt lat="40.984068333" lon="-5.713341667">
        <time>2022-06-28T09:44:30Z</time>
      </trkpt>
      <trkpt lat="40.984136667" lon="-5.713350000">
        <time>2022-06-28T09:44:31Z</time>
      </trkpt>
      <trkpt lat="40.984206667" lon="-5.713360000">
        <time>2022-06-28T09:44:32Z</time>
      </trkpt>
      <trkpt lat="40.984275000" lon="-5.713368333">
        <time>2022-06-28T09:44:33Z</time>
      </trkpt>
      <trkpt lat="40.984343333" lon="-5.713375000">
        <time>2022-06-28T09:44:34Z</time>
      </trkpt>
      <trkpt lat="40.984410000" lon="-5.713383333">
        <time>2022-06-28T09:44:35Z</time>
      </trkpt>
      <trkpt lat="40.984475000" lon="-5.713390000">
        <time>2022-06-28T09:44:36Z</time>
      </trkpt>
      <trkpt lat="40.984541667" lon="-5.713398333">
        <time>2022-06-28T09:44:37Z</time>
      </trkpt>
      <trkpt lat="40.984608333" lon="-5.713406667">
        <time>2022-06-28T09:44:38Z</time>
      </trkpt>
      <trkpt lat="40.984673333" lon="-5.713413333">
        <time>2022-06-28T09:44:39Z</time>
      </trkpt>
      <trkpt lat="40.984740000" lon="-5.713421667">
        <time>2022-06-28T09:44:40Z</time>
      </trkpt>
      <trkpt lat="40.984806667" lon="-5.713428333">
        <time>2022-06-28T09:44:41Z</time>
      </trkpt>
      <trkpt lat="40.984873333" lon="-5.713433333">
        <time>2022-06-28T09:44:42Z</time>
      </trkpt>
      <trkpt lat="40.984936667" lon="-5.713438333">
        <time>2022-06-28T09:44:43Z</time>
      </trkpt>
      <trkpt lat="40.985003333" lon="-5.713445000">
        <time>2022-06-28T09:44:44Z</time>
      </trkpt>
      <trkpt lat="40.985070000" lon="-5.713450000">
        <time>2022-06-28T09:44:45Z</time>
      </trkpt>
      <trkpt lat="40.985136667" lon="-5.713456667">
        <time>2022-06-28T09:44:46Z</time>
      </trkpt>
      <trkpt lat="40.985203333" lon="-5.713465000">
        <time>2022-06-28T09:44:47Z</time>
      </trkpt>
      <trkpt lat="40.985270000" lon="-5.713470000">
        <time>2022-06-28T09:44:48Z</time>
      </trkpt>
      <trkpt lat="40.985336667" lon="-5.713476667">
        <time>2022-06-28T09:44:49Z</time>
      </trkpt>
      <trkpt lat="40.985401667" lon="-5.713483333">
        <time>2022-06-28T09:44:50Z</time>
      </trkpt>
      <trkpt lat="40.985466667" lon="-5.713491667">
        <time>2022-06-28T09:44:51Z</time>
      </trkpt>
      <trkpt lat="40.985531667" lon="-5.713498333">
        <time>2022-06-28T09:44:52Z</time>
      </trkpt>
      <trkpt lat="40.985598333" lon="-5.713508333">
        <time>2022-06-28T09:44:53Z</time>
      </trkpt>
      <trkpt lat="40.985663333" lon="-5.713516667">
        <time>2022-06-28T09:44:54Z</time>
      </trkpt>
      <trkpt lat="40.985728333" lon="-5.713521667">
        <time>2022-06-28T09:44:55Z</time>
      </trkpt>
      <trkpt lat="40.985793333" lon="-5.713528333">
        <time>2022-06-28T09:44:56Z</time>
      </trkpt>
      <trkpt lat="40.985858333" lon="-5.713536667">
        <time>2022-06-28T09:44:57Z</time>
      </trkpt>
      <trkpt lat="40.985921667" lon="-5.713543333">
        <time>2022-06-28T09:44:58Z</time>
      </trkpt>
      <trkpt lat="40.985985000" lon="-5.713551667">
        <time>2022-06-28T09:44:59Z</time>
      </trkpt>
      <trkpt lat="40.986046667" lon="-5.713560000">
        <time>2022-06-28T09:45:00Z</time>
      </trkpt>
      <trkpt lat="40.986108333" lon="-5.713566667">
        <time>2022-06-28T09:45:01Z</time>
      </trkpt>
      <trkpt lat="40.986171667" lon="-5.713573333">
        <time>2022-06-28T09:45:02Z</time>
      </trkpt>
      <trkpt lat="40.986235000" lon="-5.713580000">
        <time>2022-06-28T09:45:03Z</time>
      </trkpt>
      <trkpt lat="40.986298333" lon="-5.713588333">
        <time>2022-06-28T09:45:04Z</time>
      </trkpt>
      <trkpt lat="40.986363333" lon="-5.713593333">
        <time>2022-06-28T09:45:05Z</time>
      </trkpt>
      <trkpt lat="40.986426667" lon="-5.713598333">
        <time>2022-06-28T09:45:06Z</time>
      </trkpt>
      <trkpt lat="40.986491667" lon="-5.713605000">
        <time>2022-06-28T09:45:07Z</time>
      </trkpt>
      <trkpt lat="40.986555000" lon="-5.713613333">
        <time>2022-06-28T09:45:08Z</time>
      </trkpt>
      <trkpt lat="40.986618333" lon="-5.713621667">
        <time>2022-06-28T09:45:09Z</time>
      </trkpt>
      <trkpt lat="40.986681667" lon="-5.713628333">
        <time>2022-06-28T09:45:10Z</time>
      </trkpt>
      <trkpt lat="40.986745000" lon="-5.713635000">
        <time>2022-06-28T09:45:11Z</time>
      </trkpt>
      <trkpt lat="40.986808333" lon="-5.713641667">
        <time>2022-06-28T09:45:12Z</time>
      </trkpt>
      <trkpt lat="40.986870000" lon="-5.713650000">
        <time>2022-06-28T09:45:13Z</time>
      </trkpt>
      <trkpt lat="40.986933333" lon="-5.713656667">
        <time>2022-06-28T09:45:14Z</time>
      </trkpt>
      <trkpt lat="40.986996667" lon="-5.713663333">
        <time>2022-06-28T09:45:15Z</time>
      </trkpt>
      <trkpt lat="40.987060000" lon="-5.713670000">
        <time>2022-06-28T09:45:16Z</time>
      </trkpt>
      <trkpt lat="40.987123333" lon="-5.713676667">
        <time>2022-06-28T09:45:17Z</time>
      </trkpt>
      <trkpt lat="40.987186667" lon="-5.713683333">
        <time>2022-06-28T09:45:18Z</time>
      </trkpt>
      <trkpt lat="40.987251667" lon="-5.713691667">
        <time>2022-06-28T09:45:19Z</time>
      </trkpt>
      <trkpt lat="40.987315000" lon="-5.713698333">
        <time>2022-06-28T09:45:20Z</time>
      </trkpt>
      <trkpt lat="40.987376667" lon="-5.713705000">
        <time>2022-06-28T09:45:21Z</time>
      </trkpt>
      <trkpt lat="40.987440000" lon="-5.713713333">
        <time>2022-06-28T09:45:22Z</time>
      </trkpt>
      <trkpt lat="40.987503333" lon="-5.713723333">
        <time>2022-06-28T09:45:23Z</time>
      </trkpt>
      <trkpt lat="40.987566667" lon="-5.713735000">
        <time>2022-06-28T09:45:24Z</time>
      </trkpt>
      <trkpt lat="40.987630000" lon="-5.713746667">
        <time>2022-06-28T09:45:25Z</time>
      </trkpt>
      <trkpt lat="40.987693333" lon="-5.713756667">
        <time>2022-06-28T09:45:26Z</time>
      </trkpt>
      <trkpt lat="40.987756667" lon="-5.713765000">
        <time>2022-06-28T09:45:27Z</time>
      </trkpt>
      <trkpt lat="40.987818333" lon="-5.713773333">
        <time>2022-06-28T09:45:28Z</time>
      </trkpt>
      <trkpt lat="40.987883333" lon="-5.713785000">
        <time>2022-06-28T09:45:29Z</time>
      </trkpt>
      <trkpt lat="40.987948333" lon="-5.713796667">
        <time>2022-06-28T09:45:30Z</time>
      </trkpt>
      <trkpt lat="40.988013333" lon="-5.713808333">
        <time>2022-06-28T09:45:31Z</time>
      </trkpt>
      <trkpt lat="40.988078333" lon="-5.713820000">
        <time>2022-06-28T09:45:32Z</time>
      </trkpt>
      <trkpt lat="40.988145000" lon="-5.713831667">
        <time>2022-06-28T09:45:33Z</time>
      </trkpt>
      <trkpt lat="40.988210000" lon="-5.713843333">
        <time>2022-06-28T09:45:34Z</time>
      </trkpt>
      <trkpt lat="40.988276667" lon="-5.713856667">
        <time>2022-06-28T09:45:35Z</time>
      </trkpt>
      <trkpt lat="40.988341667" lon="-5.713868333">
        <time>2022-06-28T09:45:36Z</time>
      </trkpt>
      <trkpt lat="40.988408333" lon="-5.713880000">
        <time>2022-06-28T09:45:37Z</time>
      </trkpt>
      <trkpt lat="40.988473333" lon="-5.713893333">
        <time>2022-06-28T09:45:38Z</time>
      </trkpt>
      <trkpt lat="40.988538333" lon="-5.713905000">
        <time>2022-06-28T09:45:39Z</time>
      </trkpt>
      <trkpt lat="40.988603333" lon="-5.713915000">
        <time>2022-06-28T09:45:40Z</time>
      </trkpt>
      <trkpt lat="40.988668333" lon="-5.713926667">
        <time>2022-06-28T09:45:41Z</time>
      </trkpt>
      <trkpt lat="40.988731667" lon="-5.713938333">
        <time>2022-06-28T09:45:42Z</time>
      </trkpt>
      <trkpt lat="40.988796667" lon="-5.713948333">
        <time>2022-06-28T09:45:43Z</time>
      </trkpt>
      <trkpt lat="40.988861667" lon="-5.713960000">
        <time>2022-06-28T09:45:44Z</time>
      </trkpt>
      <trkpt lat="40.988925000" lon="-5.713973333">
        <time>2022-06-28T09:45:45Z</time>
      </trkpt>
      <trkpt lat="40.988988333" lon="-5.713985000">
        <time>2022-06-28T09:45:46Z</time>
      </trkpt>
      <trkpt lat="40.989053333" lon="-5.713995000">
        <time>2022-06-28T09:45:47Z</time>
      </trkpt>
      <trkpt lat="40.989116667" lon="-5.714006667">
        <time>2022-06-28T09:45:48Z</time>
      </trkpt>
      <trkpt lat="40.989180000" lon="-5.714020000">
        <time>2022-06-28T09:45:49Z</time>
      </trkpt>
      <trkpt lat="40.989243333" lon="-5.714036667">
        <time>2022-06-28T09:45:50Z</time>
      </trkpt>
      <trkpt lat="40.989306667" lon="-5.714055000">
        <time>2022-06-28T09:45:51Z</time>
      </trkpt>
      <trkpt lat="40.989368333" lon="-5.714075000">
        <time>2022-06-28T09:45:52Z</time>
      </trkpt>
      <trkpt lat="40.989431667" lon="-5.714098333">
        <time>2022-06-28T09:45:53Z</time>
      </trkpt>
      <trkpt lat="40.989493333" lon="-5.714123333">
        <time>2022-06-28T09:45:54Z</time>
      </trkpt>
      <trkpt lat="40.989555000" lon="-5.714153333">
        <time>2022-06-28T09:45:55Z</time>
      </trkpt>
      <trkpt lat="40.989616667" lon="-5.714185000">
        <time>2022-06-28T09:45:56Z</time>
      </trkpt>
      <trkpt lat="40.989678333" lon="-5.714220000">
        <time>2022-06-28T09:45:57Z</time>
      </trkpt>
      <trkpt lat="40.989738333" lon="-5.714256667">
        <time>2022-06-28T09:45:58Z</time>
      </trkpt>
      <trkpt lat="40.989796667" lon="-5.714296667">
        <time>2022-06-28T09:45:59Z</time>
      </trkpt>
      <trkpt lat="40.989855000" lon="-5.714338333">
        <time>2022-06-28T09:46:00Z</time>
      </trkpt>
      <trkpt lat="40.989910000" lon="-5.714383333">
        <time>2022-06-28T09:46:01Z</time>
      </trkpt>
      <trkpt lat="40.989965000" lon="-5.714430000">
        <time>2022-06-28T09:46:02Z</time>
      </trkpt>
      <trkpt lat="40.990018333" lon="-5.714478333">
        <time>2022-06-28T09:46:03Z</time>
      </trkpt>
      <trkpt lat="40.990071667" lon="-5.714530000">
        <time>2022-06-28T09:46:04Z</time>
      </trkpt>
      <trkpt lat="40.990123333" lon="-5.714580000">
        <time>2022-06-28T09:46:05Z</time>
      </trkpt>
      <trkpt lat="40.990175000" lon="-5.714631667">
        <time>2022-06-28T09:46:06Z</time>
      </trkpt>
      <trkpt lat="40.990225000" lon="-5.714686667">
        <time>2022-06-28T09:46:07Z</time>
      </trkpt>
      <trkpt lat="40.990275000" lon="-5.714740000">
        <time>2022-06-28T09:46:08Z</time>
      </trkpt>
      <trkpt lat="40.990326667" lon="-5.714795000">
        <time>2022-06-28T09:46:09Z</time>
      </trkpt>
      <trkpt lat="40.990376667" lon="-5.714850000">
        <time>2022-06-28T09:46:10Z</time>
      </trkpt>
      <trkpt lat="40.990428333" lon="-5.714903333">
        <time>2022-06-28T09:46:11Z</time>
      </trkpt>
      <trkpt lat="40.990478333" lon="-5.714958333">
        <time>2022-06-28T09:46:12Z</time>
      </trkpt>
      <trkpt lat="40.990528333" lon="-5.715011667">
        <time>2022-06-28T09:46:13Z</time>
      </trkpt>
      <trkpt lat="40.990578333" lon="-5.715065000">
        <time>2022-06-28T09:46:14Z</time>
      </trkpt>
      <trkpt lat="40.990630000" lon="-5.715118333">
        <time>2022-06-28T09:46:15Z</time>
      </trkpt>
      <trkpt lat="40.990681667" lon="-5.715170000">
        <time>2022-06-28T09:46:16Z</time>
      </trkpt>
      <trkpt lat="40.990731667" lon="-5.715223333">
        <time>2022-06-28T09:46:17Z</time>
      </trkpt>
      <trkpt lat="40.990783333" lon="-5.715278333">
        <time>2022-06-28T09:46:18Z</time>
      </trkpt>
      <trkpt lat="40.990835000" lon="-5.715331667">
        <time>2022-06-28T09:46:19Z</time>
      </trkpt>
      <trkpt lat="40.990886667" lon="-5.715386667">
        <time>2022-06-28T09:46:20Z</time>
      </trkpt>
      <trkpt lat="40.990938333" lon="-5.715440000">
        <time>2022-06-28T09:46:21Z</time>
      </trkpt>
      <trkpt lat="40.990990000" lon="-5.715493333">
        <time>2022-06-28T09:46:22Z</time>
      </trkpt>
      <trkpt lat="40.991040000" lon="-5.715548333">
        <time>2022-06-28T09:46:23Z</time>
      </trkpt>
      <trkpt lat="40.991091667" lon="-5.715601667">
        <time>2022-06-28T09:46:24Z</time>
      </trkpt>
      <trkpt lat="40.991141667" lon="-5.715655000">
        <time>2022-06-28T09:46:25Z</time>
      </trkpt>
      <trkpt lat="40.991193333" lon="-5.715708333">
        <time>2022-06-28T09:46:26Z</time>
      </trkpt>
      <trkpt lat="40.991243333" lon="-5.715761667">
        <time>2022-06-28T09:46:27Z</time>
      </trkpt>
      <trkpt lat="40.991293333" lon="-5.715815000">
        <time>2022-06-28T09:46:28Z</time>
      </trkpt>
      <trkpt lat="40.991345000" lon="-5.715868333">
        <time>2022-06-28T09:46:29Z</time>
      </trkpt>
      <trkpt lat="40.991396667" lon="-5.715923333">
        <time>2022-06-28T09:46:30Z</time>
      </trkpt>
      <trkpt lat="40.991448333" lon="-5.715976667">
        <time>2022-06-28T09:46:31Z</time>
      </trkpt>
      <trkpt lat="40.991500000" lon="-5.716031667">
        <time>2022-06-28T09:46:32Z</time>
      </trkpt>
      <trkpt lat="40.991551667" lon="-5.716088333">
        <time>2022-06-28T09:46:33Z</time>
      </trkpt>
      <trkpt lat="40.991603333" lon="-5.716143333">
        <time>2022-06-28T09:46:34Z</time>
      </trkpt>
      <trkpt lat="40.991655000" lon="-5.716198333">
        <time>2022-06-28T09:46:35Z</time>
      </trkpt>
      <trkpt lat="40.991706667" lon="-5.716251667">
        <time>2022-06-28T09:46:36Z</time>
      </trkpt>
      <trkpt lat="40.991755000" lon="-5.716301667">
        <time>2022-06-28T09:46:37Z</time>
      </trkpt>
      <trkpt lat="40.991805000" lon="-5.716353333">
        <time>2022-06-28T09:46:38Z</time>
      </trkpt>
      <trkpt lat="40.991853333" lon="-5.716406667">
        <time>2022-06-28T09:46:39Z</time>
      </trkpt>
      <trkpt lat="40.991903333" lon="-5.716458333">
        <time>2022-06-28T09:46:40Z</time>
      </trkpt>
      <trkpt lat="40.991955000" lon="-5.716510000">
        <time>2022-06-28T09:46:41Z</time>
      </trkpt>
      <trkpt lat="40.992005000" lon="-5.716563333">
        <time>2022-06-28T09:46:42Z</time>
      </trkpt>
      <trkpt lat="40.992056667" lon="-5.716618333">
        <time>2022-06-28T09:46:43Z</time>
      </trkpt>
      <trkpt lat="40.992108333" lon="-5.716671667">
        <time>2022-06-28T09:46:44Z</time>
      </trkpt>
      <trkpt lat="40.992160000" lon="-5.716726667">
        <time>2022-06-28T09:46:45Z</time>
      </trkpt>
      <trkpt lat="40.992211667" lon="-5.716781667">
        <time>2022-06-28T09:46:46Z</time>
      </trkpt>
      <trkpt lat="40.992265000" lon="-5.716835000">
        <time>2022-06-28T09:46:47Z</time>
      </trkpt>
      <trkpt lat="40.992318333" lon="-5.716890000">
        <time>2022-06-28T09:46:48Z</time>
      </trkpt>
      <trkpt lat="40.992368333" lon="-5.716945000">
        <time>2022-06-28T09:46:49Z</time>
      </trkpt>
      <trkpt lat="40.992421667" lon="-5.717000000">
        <time>2022-06-28T09:46:50Z</time>
      </trkpt>
      <trkpt lat="40.992473333" lon="-5.717055000">
        <time>2022-06-28T09:46:51Z</time>
      </trkpt>
      <trkpt lat="40.992526667" lon="-5.717110000">
        <time>2022-06-28T09:46:52Z</time>
      </trkpt>
      <trkpt lat="40.992578333" lon="-5.717165000">
        <time>2022-06-28T09:46:53Z</time>
      </trkpt>
      <trkpt lat="40.992630000" lon="-5.717218333">
        <time>2022-06-28T09:46:54Z</time>
      </trkpt>
      <trkpt lat="40.992681667" lon="-5.717271667">
        <time>2022-06-28T09:46:55Z</time>
      </trkpt>
      <trkpt lat="40.992733333" lon="-5.717325000">
        <time>2022-06-28T09:46:56Z</time>
      </trkpt>
      <trkpt lat="40.992785000" lon="-5.717376667">
        <time>2022-06-28T09:46:57Z</time>
      </trkpt>
      <trkpt lat="40.992835000" lon="-5.717431667">
        <time>2022-06-28T09:46:58Z</time>
      </trkpt>
      <trkpt lat="40.992885000" lon="-5.717483333">
        <time>2022-06-28T09:46:59Z</time>
      </trkpt>
      <trkpt lat="40.992935000" lon="-5.717536667">
        <time>2022-06-28T09:47:00Z</time>
      </trkpt>
      <trkpt lat="40.992983333" lon="-5.717590000">
        <time>2022-06-28T09:47:01Z</time>
      </trkpt>
      <trkpt lat="40.993033333" lon="-5.717643333">
        <time>2022-06-28T09:47:02Z</time>
      </trkpt>
      <trkpt lat="40.993083333" lon="-5.717695000">
        <time>2022-06-28T09:47:03Z</time>
      </trkpt>
      <trkpt lat="40.993133333" lon="-5.717748333">
        <time>2022-06-28T09:47:04Z</time>
      </trkpt>
      <trkpt lat="40.993181667" lon="-5.717803333">
        <time>2022-06-28T09:47:05Z</time>
      </trkpt>
      <trkpt lat="40.993230000" lon="-5.717860000">
        <time>2022-06-28T09:47:06Z</time>
      </trkpt>
      <trkpt lat="40.993275000" lon="-5.717920000">
        <time>2022-06-28T09:47:07Z</time>
      </trkpt>
      <trkpt lat="40.993320000" lon="-5.717980000">
        <time>2022-06-28T09:47:08Z</time>
      </trkpt>
      <trkpt lat="40.993361667" lon="-5.718041667">
        <time>2022-06-28T09:47:09Z</time>
      </trkpt>
      <trkpt lat="40.993405000" lon="-5.718105000">
        <time>2022-06-28T09:47:10Z</time>
      </trkpt>
      <trkpt lat="40.993445000" lon="-5.718170000">
        <time>2022-06-28T09:47:11Z</time>
      </trkpt>
      <trkpt lat="40.993485000" lon="-5.718238333">
        <time>2022-06-28T09:47:12Z</time>
      </trkpt>
      <trkpt lat="40.993523333" lon="-5.718306667">
        <time>2022-06-28T09:47:13Z</time>
      </trkpt>
      <trkpt lat="40.993560000" lon="-5.718378333">
        <time>2022-06-28T09:47:14Z</time>
      </trkpt>
      <trkpt lat="40.993596667" lon="-5.718450000">
        <time>2022-06-28T09:47:15Z</time>
      </trkpt>
      <trkpt lat="40.993630000" lon="-5.718521667">
        <time>2022-06-28T09:47:16Z</time>
      </trkpt>
      <trkpt lat="40.993661667" lon="-5.718596667">
        <time>2022-06-28T09:47:17Z</time>
      </trkpt>
      <trkpt lat="40.993691667" lon="-5.718671667">
        <time>2022-06-28T09:47:18Z</time>
      </trkpt>
      <trkpt lat="40.993720000" lon="-5.718750000">
        <time>2022-06-28T09:47:19Z</time>
      </trkpt>
      <trkpt lat="40.993746667" lon="-5.718828333">
        <time>2022-06-28T09:47:20Z</time>
      </trkpt>
      <trkpt lat="40.993770000" lon="-5.718908333">
        <time>2022-06-28T09:47:21Z</time>
      </trkpt>
      <trkpt lat="40.993793333" lon="-5.718990000">
        <time>2022-06-28T09:47:22Z</time>
      </trkpt>
      <trkpt lat="40.993815000" lon="-5.719071667">
        <time>2022-06-28T09:47:23Z</time>
      </trkpt>
      <trkpt lat="40.993836667" lon="-5.719155000">
        <time>2022-06-28T09:47:24Z</time>
      </trkpt>
      <trkpt lat="40.993853333" lon="-5.719238333">
        <time>2022-06-28T09:47:25Z</time>
      </trkpt>
      <trkpt lat="40.993871667" lon="-5.719325000">
        <time>2022-06-28T09:47:26Z</time>
      </trkpt>
      <trkpt lat="40.993888333" lon="-5.719410000">
        <time>2022-06-28T09:47:27Z</time>
      </trkpt>
      <trkpt lat="40.993905000" lon="-5.719496667">
        <time>2022-06-28T09:47:28Z</time>
      </trkpt>
      <trkpt lat="40.993920000" lon="-5.719583333">
        <time>2022-06-28T09:47:29Z</time>
      </trkpt>
      <trkpt lat="40.993936667" lon="-5.719670000">
        <time>2022-06-28T09:47:30Z</time>
      </trkpt>
      <trkpt lat="40.993953333" lon="-5.719756667">
        <time>2022-06-28T09:47:31Z</time>
      </trkpt>
      <trkpt lat="40.993970000" lon="-5.719843333">
        <time>2022-06-28T09:47:32Z</time>
      </trkpt>
      <trkpt lat="40.993986667" lon="-5.719930000">
        <time>2022-06-28T09:47:33Z</time>
      </trkpt>
      <trkpt lat="40.994003333" lon="-5.720016667">
        <time>2022-06-28T09:47:34Z</time>
      </trkpt>
      <trkpt lat="40.994021667" lon="-5.720103333">
        <time>2022-06-28T09:47:35Z</time>
      </trkpt>
      <trkpt lat="40.994036667" lon="-5.720191667">
        <time>2022-06-28T09:47:36Z</time>
      </trkpt>
      <trkpt lat="40.994053333" lon="-5.720278333">
        <time>2022-06-28T09:47:37Z</time>
      </trkpt>
      <trkpt lat="40.994070000" lon="-5.720366667">
        <time>2022-06-28T09:47:38Z</time>
      </trkpt>
      <trkpt lat="40.994086667" lon="-5.720453333">
        <time>2022-06-28T09:47:39Z</time>
      </trkpt>
      <trkpt lat="40.994101667" lon="-5.720540000">
        <time>2022-06-28T09:47:40Z</time>
      </trkpt>
      <trkpt lat="40.994116667" lon="-5.720626667">
        <time>2022-06-28T09:47:41Z</time>
      </trkpt>
      <trkpt lat="40.994133333" lon="-5.720713333">
        <time>2022-06-28T09:47:42Z</time>
      </trkpt>
      <trkpt lat="40.994150000" lon="-5.720798333">
        <time>2022-06-28T09:47:43Z</time>
      </trkpt>
      <trkpt lat="40.994166667" lon="-5.720885000">
        <time>2022-06-28T09:47:44Z</time>
      </trkpt>
      <trkpt lat="40.994181667" lon="-5.720970000">
        <time>2022-06-28T09:47:45Z</time>
      </trkpt>
      <trkpt lat="40.994198333" lon="-5.721053333">
        <time>2022-06-28T09:47:46Z</time>
      </trkpt>
      <trkpt lat="40.994213333" lon="-5.721135000">
        <time>2022-06-28T09:47:47Z</time>
      </trkpt>
      <trkpt lat="40.994230000" lon="-5.721216667">
        <time>2022-06-28T09:47:48Z</time>
      </trkpt>
      <trkpt lat="40.994245000" lon="-5.721298333">
        <time>2022-06-28T09:47:49Z</time>
      </trkpt>
      <trkpt lat="40.994258333" lon="-5.721380000">
        <time>2022-06-28T09:47:50Z</time>
      </trkpt>
      <trkpt lat="40.994270000" lon="-5.721458333">
        <time>2022-06-28T09:47:51Z</time>
      </trkpt>
      <trkpt lat="40.994285000" lon="-5.721531667">
        <time>2022-06-28T09:47:52Z</time>
      </trkpt>
      <trkpt lat="40.994318333" lon="-5.721590000">
        <time>2022-06-28T09:47:53Z</time>
      </trkpt>
      <trkpt lat="40.994365000" lon="-5.721625000">
        <time>2022-06-28T09:47:54Z</time>
      </trkpt>
      <trkpt lat="40.994411667" lon="-5.721660000">
        <time>2022-06-28T09:47:55Z</time>
      </trkpt>
      <trkpt lat="40.994453333" lon="-5.721708333">
        <time>2022-06-28T09:47:56Z</time>
      </trkpt>
      <trkpt lat="40.994486667" lon="-5.721766667">
        <time>2022-06-28T09:47:57Z</time>
      </trkpt>
      <trkpt lat="40.994513333" lon="-5.721831667">
        <time>2022-06-28T09:47:58Z</time>
      </trkpt>
      <trkpt lat="40.994525000" lon="-5.721903333">
        <time>2022-06-28T09:47:59Z</time>
      </trkpt>
      <trkpt lat="40.994520000" lon="-5.721976667">
        <time>2022-06-28T09:48:00Z</time>
      </trkpt>
      <trkpt lat="40.994501667" lon="-5.722046667">
        <time>2022-06-28T09:48:01Z</time>
      </trkpt>
      <trkpt lat="40.994470000" lon="-5.722110000">
        <time>2022-06-28T09:48:02Z</time>
      </trkpt>
      <trkpt lat="40.994426667" lon="-5.722156667">
        <time>2022-06-28T09:48:03Z</time>
      </trkpt>
      <trkpt lat="40.994378333" lon="-5.722188333">
        <time>2022-06-28T09:48:04Z</time>
      </trkpt>
      <trkpt lat="40.994333333" lon="-5.722218333">
        <time>2022-06-28T09:48:05Z</time>
      </trkpt>
      <trkpt lat="40.994301667" lon="-5.722266667">
        <time>2022-06-28T09:48:06Z</time>
      </trkpt>
      <trkpt lat="40.994288333" lon="-5.722331667">
        <time>2022-06-28T09:48:07Z</time>
      </trkpt>
      <trkpt lat="40.994285000" lon="-5.722403333">
        <time>2022-06-28T09:48:08Z</time>
      </trkpt>
      <trkpt lat="40.994281667" lon="-5.722480000">
        <time>2022-06-28T09:48:09Z</time>
      </trkpt>
      <trkpt lat="40.994280000" lon="-5.722558333">
        <time>2022-06-28T09:48:10Z</time>
      </trkpt>
      <trkpt lat="40.994273333" lon="-5.722640000">
        <time>2022-06-28T09:48:11Z</time>
      </trkpt>
      <trkpt lat="40.994266667" lon="-5.722721667">
        <time>2022-06-28T09:48:12Z</time>
      </trkpt>
      <trkpt lat="40.994263333" lon="-5.722803333">
        <time>2022-06-28T09:48:13Z</time>
      </trkpt>
      <trkpt lat="40.994260000" lon="-5.722890000">
        <time>2022-06-28T09:48:14Z</time>
      </trkpt>
      <trkpt lat="40.994253333" lon="-5.722978333">
        <time>2022-06-28T09:48:15Z</time>
      </trkpt>
      <trkpt lat="40.994246667" lon="-5.723071667">
        <time>2022-06-28T09:48:16Z</time>
      </trkpt>
      <trkpt lat="40.994240000" lon="-5.723163333">
        <time>2022-06-28T09:48:17Z</time>
      </trkpt>
      <trkpt lat="40.994233333" lon="-5.723255000">
        <time>2022-06-28T09:48:18Z</time>
      </trkpt>
      <trkpt lat="40.994228333" lon="-5.723346667">
        <time>2022-06-28T09:48:19Z</time>
      </trkpt>
      <trkpt lat="40.994223333" lon="-5.723438333">
        <time>2022-06-28T09:48:20Z</time>
      </trkpt>
      <trkpt lat="40.994216667" lon="-5.723530000">
        <time>2022-06-28T09:48:21Z</time>
      </trkpt>
      <trkpt lat="40.994210000" lon="-5.723621667">
        <time>2022-06-28T09:48:22Z</time>
      </trkpt>
      <trkpt lat="40.994203333" lon="-5.723715000">
        <time>2022-06-28T09:48:23Z</time>
      </trkpt>
      <trkpt lat="40.994196667" lon="-5.723805000">
        <time>2022-06-28T09:48:24Z</time>
      </trkpt>
      <trkpt lat="40.994190000" lon="-5.723895000">
        <time>2022-06-28T09:48:25Z</time>
      </trkpt>
      <trkpt lat="40.994183333" lon="-5.723988333">
        <time>2022-06-28T09:48:26Z</time>
      </trkpt>
      <trkpt lat="40.994176667" lon="-5.724081667">
        <time>2022-06-28T09:48:27Z</time>
      </trkpt>
      <trkpt lat="40.994170000" lon="-5.724173333">
        <time>2022-06-28T09:48:28Z</time>
      </trkpt>
      <trkpt lat="40.994165000" lon="-5.724266667">
        <time>2022-06-28T09:48:29Z</time>
      </trkpt>
      <trkpt lat="40.994160000" lon="-5.724358333">
        <time>2022-06-28T09:48:30Z</time>
      </trkpt>
      <trkpt lat="40.994153333" lon="-5.724450000">
        <time>2022-06-28T09:48:31Z</time>
      </trkpt>
      <trkpt lat="40.994148333" lon="-5.724540000">
        <time>2022-06-28T09:48:32Z</time>
      </trkpt>
      <trkpt lat="40.994141667" lon="-5.724630000">
        <time>2022-06-28T09:48:33Z</time>
      </trkpt>
      <trkpt lat="40.994133333" lon="-5.724720000">
        <time>2022-06-28T09:48:34Z</time>
      </trkpt>
      <trkpt lat="40.994126667" lon="-5.724810000">
        <time>2022-06-28T09:48:35Z</time>
      </trkpt>
      <trkpt lat="40.994121667" lon="-5.724898333">
        <time>2022-06-28T09:48:36Z</time>
      </trkpt>
      <trkpt lat="40.994115000" lon="-5.724986667">
        <time>2022-06-28T09:48:37Z</time>
      </trkpt>
      <trkpt lat="40.994108333" lon="-5.725075000">
        <time>2022-06-28T09:48:38Z</time>
      </trkpt>
      <trkpt lat="40.994103333" lon="-5.725165000">
        <time>2022-06-28T09:48:39Z</time>
      </trkpt>
      <trkpt lat="40.994096667" lon="-5.725251667">
        <time>2022-06-28T09:48:40Z</time>
      </trkpt>
      <trkpt lat="40.994091667" lon="-5.725340000">
        <time>2022-06-28T09:48:41Z</time>
      </trkpt>
      <trkpt lat="40.994086667" lon="-5.725426667">
        <time>2022-06-28T09:48:42Z</time>
      </trkpt>
      <trkpt lat="40.994083333" lon="-5.725513333">
        <time>2022-06-28T09:48:43Z</time>
      </trkpt>
      <trkpt lat="40.994076667" lon="-5.725600000">
        <time>2022-06-28T09:48:44Z</time>
      </trkpt>
      <trkpt lat="40.994071667" lon="-5.725688333">
        <time>2022-06-28T09:48:45Z</time>
      </trkpt>
      <trkpt lat="40.994066667" lon="-5.725776667">
        <time>2022-06-28T09:48:46Z</time>
      </trkpt>
      <trkpt lat="40.994061667" lon="-5.725863333">
        <time>2022-06-28T09:48:47Z</time>
      </trkpt>
      <trkpt lat="40.994055000" lon="-5.725951667">
        <time>2022-06-28T09:48:48Z</time>
      </trkpt>
      <trkpt lat="40.994048333" lon="-5.726038333">
        <time>2022-06-28T09:48:49Z</time>
      </trkpt>
      <trkpt lat="40.994043333" lon="-5.726125000">
        <time>2022-06-28T09:48:50Z</time>
      </trkpt>
      <trkpt lat="40.994036667" lon="-5.726211667">
        <time>2022-06-28T09:48:51Z</time>
      </trkpt>
      <trkpt lat="40.994031667" lon="-5.726298333">
        <time>2022-06-28T09:48:52Z</time>
      </trkpt>
      <trkpt lat="40.994025000" lon="-5.726383333">
        <time>2022-06-28T09:48:53Z</time>
      </trkpt>
      <trkpt lat="40.994018333" lon="-5.726468333">
        <time>2022-06-28T09:48:54Z</time>
      </trkpt>
      <trkpt lat="40.994011667" lon="-5.726555000">
        <time>2022-06-28T09:48:55Z</time>
      </trkpt>
      <trkpt lat="40.994006667" lon="-5.726640000">
        <time>2022-06-28T09:48:56Z</time>
      </trkpt>
      <trkpt lat="40.994003333" lon="-5.726725000">
        <time>2022-06-28T09:48:57Z</time>
      </trkpt>
      <trkpt lat="40.993998333" lon="-5.726810000">
        <time>2022-06-28T09:48:58Z</time>
      </trkpt>
      <trkpt lat="40.993990000" lon="-5.726898333">
        <time>2022-06-28T09:48:59Z</time>
      </trkpt>
      <trkpt lat="40.993980000" lon="-5.726986667">
        <time>2022-06-28T09:49:00Z</time>
      </trkpt>
      <trkpt lat="40.993966667" lon="-5.727073333">
        <time>2022-06-28T09:49:01Z</time>
      </trkpt>
      <trkpt lat="40.993946667" lon="-5.727158333">
        <time>2022-06-28T09:49:02Z</time>
      </trkpt>
      <trkpt lat="40.993921667" lon="-5.727240000">
        <time>2022-06-28T09:49:03Z</time>
      </trkpt>
      <trkpt lat="40.993890000" lon="-5.727320000">
        <time>2022-06-28T09:49:04Z</time>
      </trkpt>
      <trkpt lat="40.993851667" lon="-5.727396667">
        <time>2022-06-28T09:49:05Z</time>
      </trkpt>
      <trkpt lat="40.993808333" lon="-5.727468333">
        <time>2022-06-28T09:49:06Z</time>
      </trkpt>
      <trkpt lat="40.993761667" lon="-5.727535000">
        <time>2022-06-28T09:49:07Z</time>
      </trkpt>
      <trkpt lat="40.993711667" lon="-5.727600000">
        <time>2022-06-28T09:49:08Z</time>
      </trkpt>
      <trkpt lat="40.993660000" lon="-5.727660000">
        <time>2022-06-28T09:49:09Z</time>
      </trkpt>
      <trkpt lat="40.993605000" lon="-5.727715000">
        <time>2022-06-28T09:49:10Z</time>
      </trkpt>
      <trkpt lat="40.993546667" lon="-5.727765000">
        <time>2022-06-28T09:49:11Z</time>
      </trkpt>
      <trkpt lat="40.993486667" lon="-5.727805000">
        <time>2022-06-28T09:49:12Z</time>
      </trkpt>
      <trkpt lat="40.993421667" lon="-5.727840000">
        <time>2022-06-28T09:49:13Z</time>
      </trkpt>
      <trkpt lat="40.993358333" lon="-5.727868333">
        <time>2022-06-28T09:49:14Z</time>
      </trkpt>
      <trkpt lat="40.993291667" lon="-5.727896667">
        <time>2022-06-28T09:49:15Z</time>
      </trkpt>
      <trkpt lat="40.993225000" lon="-5.727920000">
        <time>2022-06-28T09:49:16Z</time>
      </trkpt>
      <trkpt lat="40.993160000" lon="-5.727946667">
        <time>2022-06-28T09:49:17Z</time>
      </trkpt>
      <trkpt lat="40.993093333" lon="-5.727966667">
        <time>2022-06-28T09:49:18Z</time>
      </trkpt>
      <trkpt lat="40.993026667" lon="-5.727985000">
        <time>2022-06-28T09:49:19Z</time>
      </trkpt>
      <trkpt lat="40.992958333" lon="-5.728003333">
        <time>2022-06-28T09:49:20Z</time>
      </trkpt>
      <trkpt lat="40.992890000" lon="-5.728023333">
        <time>2022-06-28T09:49:21Z</time>
      </trkpt>
      <trkpt lat="40.992823333" lon="-5.728041667">
        <time>2022-06-28T09:49:22Z</time>
      </trkpt>
      <trkpt lat="40.992755000" lon="-5.728061667">
        <time>2022-06-28T09:49:23Z</time>
      </trkpt>
      <trkpt lat="40.992688333" lon="-5.728081667">
        <time>2022-06-28T09:49:24Z</time>
      </trkpt>
      <trkpt lat="40.992621667" lon="-5.728100000">
        <time>2022-06-28T09:49:25Z</time>
      </trkpt>
      <trkpt lat="40.992556667" lon="-5.728118333">
        <time>2022-06-28T09:49:26Z</time>
      </trkpt>
      <trkpt lat="40.992488333" lon="-5.728136667">
        <time>2022-06-28T09:49:27Z</time>
      </trkpt>
      <trkpt lat="40.992420000" lon="-5.728153333">
        <time>2022-06-28T09:49:28Z</time>
      </trkpt>
      <trkpt lat="40.992353333" lon="-5.728173333">
        <time>2022-06-28T09:49:29Z</time>
      </trkpt>
      <trkpt lat="40.992286667" lon="-5.728191667">
        <time>2022-06-28T09:49:30Z</time>
      </trkpt>
      <trkpt lat="40.992220000" lon="-5.728210000">
        <time>2022-06-28T09:49:31Z</time>
      </trkpt>
      <trkpt lat="40.992153333" lon="-5.728228333">
        <time>2022-06-28T09:49:32Z</time>
      </trkpt>
      <trkpt lat="40.992085000" lon="-5.728246667">
        <time>2022-06-28T09:49:33Z</time>
      </trkpt>
      <trkpt lat="40.992018333" lon="-5.728266667">
        <time>2022-06-28T09:49:34Z</time>
      </trkpt>
      <trkpt lat="40.991951667" lon="-5.728285000">
        <time>2022-06-28T09:49:35Z</time>
      </trkpt>
      <trkpt lat="40.991885000" lon="-5.728303333">
        <time>2022-06-28T09:49:36Z</time>
      </trkpt>
      <trkpt lat="40.991818333" lon="-5.728321667">
        <time>2022-06-28T09:49:37Z</time>
      </trkpt>
      <trkpt lat="40.991751667" lon="-5.728340000">
        <time>2022-06-28T09:49:38Z</time>
      </trkpt>
      <trkpt lat="40.991686667" lon="-5.728358333">
        <time>2022-06-28T09:49:39Z</time>
      </trkpt>
      <trkpt lat="40.991620000" lon="-5.728376667">
        <time>2022-06-28T09:49:40Z</time>
      </trkpt>
      <trkpt lat="40.991555000" lon="-5.728391667">
        <time>2022-06-28T09:49:41Z</time>
      </trkpt>
      <trkpt lat="40.991488333" lon="-5.728408333">
        <time>2022-06-28T09:49:42Z</time>
      </trkpt>
      <trkpt lat="40.991423333" lon="-5.728425000">
        <time>2022-06-28T09:49:43Z</time>
      </trkpt>
      <trkpt lat="40.991358333" lon="-5.728441667">
        <time>2022-06-28T09:49:44Z</time>
      </trkpt>
      <trkpt lat="40.991293333" lon="-5.728456667">
        <time>2022-06-28T09:49:45Z</time>
      </trkpt>
      <trkpt lat="40.991228333" lon="-5.728475000">
        <time>2022-06-28T09:49:46Z</time>
      </trkpt>
      <trkpt lat="40.991163333" lon="-5.728493333">
        <time>2022-06-28T09:49:47Z</time>
      </trkpt>
      <trkpt lat="40.991100000" lon="-5.728510000">
        <time>2022-06-28T09:49:48Z</time>
      </trkpt>
      <trkpt lat="40.991038333" lon="-5.728530000">
        <time>2022-06-28T09:49:49Z</time>
      </trkpt>
      <trkpt lat="40.990975000" lon="-5.728553333">
        <time>2022-06-28T09:49:50Z</time>
      </trkpt>
      <trkpt lat="40.990913333" lon="-5.728576667">
        <time>2022-06-28T09:49:51Z</time>
      </trkpt>
      <trkpt lat="40.990853333" lon="-5.728598333">
        <time>2022-06-28T09:49:52Z</time>
      </trkpt>
      <trkpt lat="40.990791667" lon="-5.728621667">
        <time>2022-06-28T09:49:53Z</time>
      </trkpt>
      <trkpt lat="40.990731667" lon="-5.728646667">
        <time>2022-06-28T09:49:54Z</time>
      </trkpt>
      <trkpt lat="40.990670000" lon="-5.728671667">
        <time>2022-06-28T09:49:55Z</time>
      </trkpt>
      <trkpt lat="40.990610000" lon="-5.728698333">
        <time>2022-06-28T09:49:56Z</time>
      </trkpt>
      <trkpt lat="40.990550000" lon="-5.728728333">
        <time>2022-06-28T09:49:57Z</time>
      </trkpt>
      <trkpt lat="40.990491667" lon="-5.728756667">
        <time>2022-06-28T09:49:58Z</time>
      </trkpt>
      <trkpt lat="40.990431667" lon="-5.728785000">
        <time>2022-06-28T09:49:59Z</time>
      </trkpt>
      <trkpt lat="40.990373333" lon="-5.728816667">
        <time>2022-06-28T09:50:00Z</time>
      </trkpt>
      <trkpt lat="40.990316667" lon="-5.728853333">
        <time>2022-06-28T09:50:01Z</time>
      </trkpt>
      <trkpt lat="40.990260000" lon="-5.728891667">
        <time>2022-06-28T09:50:02Z</time>
      </trkpt>
      <trkpt lat="40.990203333" lon="-5.728930000">
        <time>2022-06-28T09:50:03Z</time>
      </trkpt>
      <trkpt lat="40.990146667" lon="-5.728970000">
        <time>2022-06-28T09:50:04Z</time>
      </trkpt>
      <trkpt lat="40.990090000" lon="-5.729008333">
        <time>2022-06-28T09:50:05Z</time>
      </trkpt>
      <trkpt lat="40.990031667" lon="-5.729046667">
        <time>2022-06-28T09:50:06Z</time>
      </trkpt>
      <trkpt lat="40.989973333" lon="-5.729085000">
        <time>2022-06-28T09:50:07Z</time>
      </trkpt>
      <trkpt lat="40.989916667" lon="-5.729125000">
        <time>2022-06-28T09:50:08Z</time>
      </trkpt>
      <trkpt lat="40.989860000" lon="-5.729166667">
        <time>2022-06-28T09:50:09Z</time>
      </trkpt>
      <trkpt lat="40.989803333" lon="-5.729206667">
        <time>2022-06-28T09:50:10Z</time>
      </trkpt>
      <trkpt lat="40.989746667" lon="-5.729246667">
        <time>2022-06-28T09:50:11Z</time>
      </trkpt>
      <trkpt lat="40.989690000" lon="-5.729286667">
        <time>2022-06-28T09:50:12Z</time>
      </trkpt>
      <trkpt lat="40.989635000" lon="-5.729326667">
        <time>2022-06-28T09:50:13Z</time>
      </trkpt>
      <trkpt lat="40.989578333" lon="-5.729366667">
        <time>2022-06-28T09:50:14Z</time>
      </trkpt>
      <trkpt lat="40.989523333" lon="-5.729406667">
        <time>2022-06-28T09:50:15Z</time>
      </trkpt>
      <trkpt lat="40.989470000" lon="-5.729446667">
        <time>2022-06-28T09:50:16Z</time>
      </trkpt>
      <trkpt lat="40.989418333" lon="-5.729485000">
        <time>2022-06-28T09:50:17Z</time>
      </trkpt>
      <trkpt lat="40.989366667" lon="-5.729520000">
        <time>2022-06-28T09:50:18Z</time>
      </trkpt>
      <trkpt lat="40.989318333" lon="-5.729550000">
        <time>2022-06-28T09:50:19Z</time>
      </trkpt>
      <trkpt lat="40.989271667" lon="-5.729580000">
        <time>2022-06-28T09:50:20Z</time>
      </trkpt>
      <trkpt lat="40.989221667" lon="-5.729613333">
        <time>2022-06-28T09:50:21Z</time>
      </trkpt>
      <trkpt lat="40.989176667" lon="-5.729641667">
        <time>2022-06-28T09:50:22Z</time>
      </trkpt>
      <trkpt lat="40.989135000" lon="-5.729668333">
        <time>2022-06-28T09:50:23Z</time>
      </trkpt>
      <trkpt lat="40.989096667" lon="-5.729698333">
        <time>2022-06-28T09:50:24Z</time>
      </trkpt>
      <trkpt lat="40.989063333" lon="-5.729736667">
        <time>2022-06-28T09:50:25Z</time>
      </trkpt>
      <trkpt lat="40.989038333" lon="-5.729785000">
        <time>2022-06-28T09:50:26Z</time>
      </trkpt>
      <trkpt lat="40.989026667" lon="-5.729846667">
        <time>2022-06-28T09:50:27Z</time>
      </trkpt>
      <trkpt lat="40.989030000" lon="-5.729915000">
        <time>2022-06-28T09:50:28Z</time>
      </trkpt>
      <trkpt lat="40.989043333" lon="-5.729983333">
        <time>2022-06-28T09:50:29Z</time>
      </trkpt>
      <trkpt lat="40.989056667" lon="-5.730053333">
        <time>2022-06-28T09:50:30Z</time>
      </trkpt>
      <trkpt lat="40.989071667" lon="-5.730126667">
        <time>2022-06-28T09:50:31Z</time>
      </trkpt>
      <trkpt lat="40.989085000" lon="-5.730201667">
        <time>2022-06-28T09:50:32Z</time>
      </trkpt>
      <trkpt lat="40.989101667" lon="-5.730278333">
        <time>2022-06-28T09:50:33Z</time>
      </trkpt>
      <trkpt lat="40.989120000" lon="-5.730356667">
        <time>2022-06-28T09:50:34Z</time>
      </trkpt>
      <trkpt lat="40.989138333" lon="-5.730431667">
        <time>2022-06-28T09:50:35Z</time>
      </trkpt>
      <trkpt lat="40.989155000" lon="-5.730511667">
        <time>2022-06-28T09:50:36Z</time>
      </trkpt>
      <trkpt lat="40.989178333" lon="-5.730591667">
        <time>2022-06-28T09:50:37Z</time>
      </trkpt>
      <trkpt lat="40.989200000" lon="-5.730670000">
        <time>2022-06-28T09:50:38Z</time>
      </trkpt>
      <trkpt lat="40.989225000" lon="-5.730750000">
        <time>2022-06-28T09:50:39Z</time>
      </trkpt>
      <trkpt lat="40.989251667" lon="-5.730826667">
        <time>2022-06-28T09:50:40Z</time>
      </trkpt>
      <trkpt lat="40.989281667" lon="-5.730901667">
        <time>2022-06-28T09:50:41Z</time>
      </trkpt>
      <trkpt lat="40.989315000" lon="-5.730973333">
        <time>2022-06-28T09:50:42Z</time>
      </trkpt>
      <trkpt lat="40.989351667" lon="-5.731043333">
        <time>2022-06-28T09:50:43Z</time>
      </trkpt>
      <trkpt lat="40.989390000" lon="-5.731110000">
        <time>2022-06-28T09:50:44Z</time>
      </trkpt>
      <trkpt lat="40.989433333" lon="-5.731173333">
        <time>2022-06-28T09:50:45Z</time>
      </trkpt>
      <trkpt lat="40.989476667" lon="-5.731235000">
        <time>2022-06-28T09:50:46Z</time>
      </trkpt>
      <trkpt lat="40.989523333" lon="-5.731295000">
        <time>2022-06-28T09:50:47Z</time>
      </trkpt>
      <trkpt lat="40.989570000" lon="-5.731351667">
        <time>2022-06-28T09:50:48Z</time>
      </trkpt>
      <trkpt lat="40.989618333" lon="-5.731406667">
        <time>2022-06-28T09:50:49Z</time>
      </trkpt>
      <trkpt lat="40.989670000" lon="-5.731458333">
        <time>2022-06-28T09:50:50Z</time>
      </trkpt>
      <trkpt lat="40.989720000" lon="-5.731510000">
        <time>2022-06-28T09:50:51Z</time>
      </trkpt>
      <trkpt lat="40.989771667" lon="-5.731560000">
        <time>2022-06-28T09:50:52Z</time>
      </trkpt>
      <trkpt lat="40.989825000" lon="-5.731608333">
        <time>2022-06-28T09:50:53Z</time>
      </trkpt>
      <trkpt lat="40.989878333" lon="-5.731655000">
        <time>2022-06-28T09:50:54Z</time>
      </trkpt>
      <trkpt lat="40.989933333" lon="-5.731700000">
        <time>2022-06-28T09:50:55Z</time>
      </trkpt>
      <trkpt lat="40.989988333" lon="-5.731745000">
        <time>2022-06-28T09:50:56Z</time>
      </trkpt>
      <trkpt lat="40.990046667" lon="-5.731786667">
        <time>2022-06-28T09:50:57Z</time>
      </trkpt>
      <trkpt lat="40.990103333" lon="-5.731828333">
        <time>2022-06-28T09:50:58Z</time>
      </trkpt>
      <trkpt lat="40.990161667" lon="-5.731868333">
        <time>2022-06-28T09:50:59Z</time>
      </trkpt>
      <trkpt lat="40.990221667" lon="-5.731906667">
        <time>2022-06-28T09:51:00Z</time>
      </trkpt>
      <trkpt lat="40.990281667" lon="-5.731943333">
        <time>2022-06-28T09:51:01Z</time>
      </trkpt>
      <trkpt lat="40.990343333" lon="-5.731980000">
        <time>2022-06-28T09:51:02Z</time>
      </trkpt>
      <trkpt lat="40.990403333" lon="-5.732018333">
        <time>2022-06-28T09:51:03Z</time>
      </trkpt>
      <trkpt lat="40.990463333" lon="-5.732056667">
        <time>2022-06-28T09:51:04Z</time>
      </trkpt>
      <trkpt lat="40.990523333" lon="-5.732093333">
        <time>2022-06-28T09:51:05Z</time>
      </trkpt>
      <trkpt lat="40.990585000" lon="-5.732133333">
        <time>2022-06-28T09:51:06Z</time>
      </trkpt>
      <trkpt lat="40.990643333" lon="-5.732171667">
        <time>2022-06-28T09:51:07Z</time>
      </trkpt>
      <trkpt lat="40.990703333" lon="-5.732211667">
        <time>2022-06-28T09:51:08Z</time>
      </trkpt>
      <trkpt lat="40.990763333" lon="-5.732251667">
        <time>2022-06-28T09:51:09Z</time>
      </trkpt>
      <trkpt lat="40.990821667" lon="-5.732293333">
        <time>2022-06-28T09:51:10Z</time>
      </trkpt>
      <trkpt lat="40.990878333" lon="-5.732338333">
        <time>2022-06-28T09:51:11Z</time>
      </trkpt>
      <trkpt lat="40.990935000" lon="-5.732385000">
        <time>2022-06-28T09:51:12Z</time>
      </trkpt>
      <trkpt lat="40.990991667" lon="-5.732435000">
        <time>2022-06-28T09:51:13Z</time>
      </trkpt>
      <trkpt lat="40.991046667" lon="-5.732486667">
        <time>2022-06-28T09:51:14Z</time>
      </trkpt>
      <trkpt lat="40.991101667" lon="-5.732540000">
        <time>2022-06-28T09:51:15Z</time>
      </trkpt>
      <trkpt lat="40.991155000" lon="-5.732596667">
        <time>2022-06-28T09:51:16Z</time>
      </trkpt>
      <trkpt lat="40.991206667" lon="-5.732651667">
        <time>2022-06-28T09:51:17Z</time>
      </trkpt>
      <trkpt lat="40.991260000" lon="-5.732706667">
        <time>2022-06-28T09:51:18Z</time>
      </trkpt>
      <trkpt lat="40.991313333" lon="-5.732761667">
        <time>2022-06-28T09:51:19Z</time>
      </trkpt>
      <trkpt lat="40.991365000" lon="-5.732815000">
        <time>2022-06-28T09:51:20Z</time>
      </trkpt>
      <trkpt lat="40.991418333" lon="-5.732870000">
        <time>2022-06-28T09:51:21Z</time>
      </trkpt>
      <trkpt lat="40.991471667" lon="-5.732921667">
        <time>2022-06-28T09:51:22Z</time>
      </trkpt>
      <trkpt lat="40.991523333" lon="-5.732973333">
        <time>2022-06-28T09:51:23Z</time>
      </trkpt>
      <trkpt lat="40.991575000" lon="-5.733023333">
        <time>2022-06-28T09:51:24Z</time>
      </trkpt>
      <trkpt lat="40.991628333" lon="-5.733070000">
        <time>2022-06-28T09:51:25Z</time>
      </trkpt>
      <trkpt lat="40.991685000" lon="-5.733108333">
        <time>2022-06-28T09:51:26Z</time>
      </trkpt>
      <trkpt lat="40.991745000" lon="-5.733136667">
        <time>2022-06-28T09:51:27Z</time>
      </trkpt>
      <trkpt lat="40.991806667" lon="-5.733156667">
        <time>2022-06-28T09:51:28Z</time>
      </trkpt>
      <trkpt lat="40.991870000" lon="-5.733173333">
        <time>2022-06-28T09:51:29Z</time>
      </trkpt>
      <trkpt lat="40.991935000" lon="-5.733186667">
        <time>2022-06-28T09:51:30Z</time>
      </trkpt>
      <trkpt lat="40.992000000" lon="-5.733195000">
        <time>2022-06-28T09:51:31Z</time>
      </trkpt>
      <trkpt lat="40.992065000" lon="-5.733201667">
        <time>2022-06-28T09:51:32Z</time>
      </trkpt>
      <trkpt lat="40.992130000" lon="-5.733205000">
        <time>2022-06-28T09:51:33Z</time>
      </trkpt>
      <trkpt lat="40.992195000" lon="-5.733213333">
        <time>2022-06-28T09:51:34Z</time>
      </trkpt>
      <trkpt lat="40.992260000" lon="-5.733223333">
        <time>2022-06-28T09:51:35Z</time>
      </trkpt>
      <trkpt lat="40.992325000" lon="-5.733238333">
        <time>2022-06-28T09:51:36Z</time>
      </trkpt>
      <trkpt lat="40.992388333" lon="-5.733258333">
        <time>2022-06-28T09:51:37Z</time>
      </trkpt>
      <trkpt lat="40.992451667" lon="-5.733285000">
        <time>2022-06-28T09:51:38Z</time>
      </trkpt>
      <trkpt lat="40.992515000" lon="-5.733316667">
        <time>2022-06-28T09:51:39Z</time>
      </trkpt>
      <trkpt lat="40.992576667" lon="-5.733350000">
        <time>2022-06-28T09:51:40Z</time>
      </trkpt>
      <trkpt lat="40.992638333" lon="-5.733385000">
        <time>2022-06-28T09:51:41Z</time>
      </trkpt>
      <trkpt lat="40.992703333" lon="-5.733418333">
        <time>2022-06-28T09:51:42Z</time>
      </trkpt>
      <trkpt lat="40.992768333" lon="-5.733448333">
        <time>2022-06-28T09:51:43Z</time>
      </trkpt>
      <trkpt lat="40.992831667" lon="-5.733478333">
        <time>2022-06-28T09:51:44Z</time>
      </trkpt>
      <trkpt lat="40.992898333" lon="-5.733501667">
        <time>2022-06-28T09:51:45Z</time>
      </trkpt>
      <trkpt lat="40.992965000" lon="-5.733520000">
        <time>2022-06-28T09:51:46Z</time>
      </trkpt>
      <trkpt lat="40.993031667" lon="-5.733531667">
        <time>2022-06-28T09:51:47Z</time>
      </trkpt>
      <trkpt lat="40.993100000" lon="-5.733538333">
        <time>2022-06-28T09:51:48Z</time>
      </trkpt>
      <trkpt lat="40.993168333" lon="-5.733541667">
        <time>2022-06-28T09:51:49Z</time>
      </trkpt>
      <trkpt lat="40.993235000" lon="-5.733543333">
        <time>2022-06-28T09:51:50Z</time>
      </trkpt>
      <trkpt lat="40.993303333" lon="-5.733538333">
        <time>2022-06-28T09:51:51Z</time>
      </trkpt>
      <trkpt lat="40.993370000" lon="-5.733528333">
        <time>2022-06-28T09:51:52Z</time>
      </trkpt>
      <trkpt lat="40.993436667" lon="-5.733513333">
        <time>2022-06-28T09:51:53Z</time>
      </trkpt>
      <trkpt lat="40.993503333" lon="-5.733500000">
        <time>2022-06-28T09:51:54Z</time>
      </trkpt>
      <trkpt lat="40.993570000" lon="-5.733485000">
        <time>2022-06-28T09:51:55Z</time>
      </trkpt>
      <trkpt lat="40.993635000" lon="-5.733468333">
        <time>2022-06-28T09:51:56Z</time>
      </trkpt>
      <trkpt lat="40.993700000" lon="-5.733451667">
        <time>2022-06-28T09:51:57Z</time>
      </trkpt>
      <trkpt lat="40.993765000" lon="-5.733431667">
        <time>2022-06-28T09:51:58Z</time>
      </trkpt>
      <trkpt lat="40.993830000" lon="-5.733410000">
        <time>2022-06-28T09:51:59Z</time>
      </trkpt>
      <trkpt lat="40.993893333" lon="-5.733388333">
        <time>2022-06-28T09:52:00Z</time>
      </trkpt>
      <trkpt lat="40.993956667" lon="-5.733368333">
        <time>2022-06-28T09:52:01Z</time>
      </trkpt>
      <trkpt lat="40.994020000" lon="-5.733348333">
        <time>2022-06-28T09:52:02Z</time>
      </trkpt>
      <trkpt lat="40.994083333" lon="-5.733326667">
        <time>2022-06-28T09:52:03Z</time>
      </trkpt>
      <trkpt lat="40.994146667" lon="-5.733306667">
        <time>2022-06-28T09:52:04Z</time>
      </trkpt>
      <trkpt lat="40.994211667" lon="-5.733285000">
        <time>2022-06-28T09:52:05Z</time>
      </trkpt>
      <trkpt lat="40.994275000" lon="-5.733265000">
        <time>2022-06-28T09:52:06Z</time>
      </trkpt>
      <trkpt lat="40.994340000" lon="-5.733243333">
        <time>2022-06-28T09:52:07Z</time>
      </trkpt>
      <trkpt lat="40.994403333" lon="-5.733223333">
        <time>2022-06-28T09:52:08Z</time>
      </trkpt>
      <trkpt lat="40.994468333" lon="-5.733203333">
        <time>2022-06-28T09:52:09Z</time>
      </trkpt>
      <trkpt lat="40.994531667" lon="-5.733181667">
        <time>2022-06-28T09:52:10Z</time>
      </trkpt>
      <trkpt lat="40.994596667" lon="-5.733161667">
        <time>2022-06-28T09:52:11Z</time>
      </trkpt>
      <trkpt lat="40.994660000" lon="-5.733140000">
        <time>2022-06-28T09:52:12Z</time>
      </trkpt>
      <trkpt lat="40.994725000" lon="-5.733118333">
        <time>2022-06-28T09:52:13Z</time>
      </trkpt>
      <trkpt lat="40.994790000" lon="-5.733098333">
        <time>2022-06-28T09:52:14Z</time>
      </trkpt>
      <trkpt lat="40.994855000" lon="-5.733078333">
        <time>2022-06-28T09:52:15Z</time>
      </trkpt>
      <trkpt lat="40.994918333" lon="-5.733056667">
        <time>2022-06-28T09:52:16Z</time>
      </trkpt>
      <trkpt lat="40.994983333" lon="-5.733035000">
        <time>2022-06-28T09:52:17Z</time>
      </trkpt>
      <trkpt lat="40.995046667" lon="-5.733013333">
        <time>2022-06-28T09:52:18Z</time>
      </trkpt>
      <trkpt lat="40.995111667" lon="-5.732991667">
        <time>2022-06-28T09:52:19Z</time>
      </trkpt>
      <trkpt lat="40.995176667" lon="-5.732968333">
        <time>2022-06-28T09:52:20Z</time>
      </trkpt>
      <trkpt lat="40.995240000" lon="-5.732943333">
        <time>2022-06-28T09:52:21Z</time>
      </trkpt>
      <trkpt lat="40.995301667" lon="-5.732916667">
        <time>2022-06-28T09:52:22Z</time>
      </trkpt>
      <trkpt lat="40.995365000" lon="-5.732888333">
        <time>2022-06-28T09:52:23Z</time>
      </trkpt>
      <trkpt lat="40.995426667" lon="-5.732860000">
        <time>2022-06-28T09:52:24Z</time>
      </trkpt>
      <trkpt lat="40.995488333" lon="-5.732831667">
        <time>2022-06-28T09:52:25Z</time>
      </trkpt>
      <trkpt lat="40.995550000" lon="-5.732801667">
        <time>2022-06-28T09:52:26Z</time>
      </trkpt>
      <trkpt lat="40.995611667" lon="-5.732770000">
        <time>2022-06-28T09:52:27Z</time>
      </trkpt>
      <trkpt lat="40.995673333" lon="-5.732740000">
        <time>2022-06-28T09:52:28Z</time>
      </trkpt>
      <trkpt lat="40.995735000" lon="-5.732710000">
        <time>2022-06-28T09:52:29Z</time>
      </trkpt>
      <trkpt lat="40.995796667" lon="-5.732678333">
        <time>2022-06-28T09:52:30Z</time>
      </trkpt>
      <trkpt lat="40.995860000" lon="-5.732650000">
        <time>2022-06-28T09:52:31Z</time>
      </trkpt>
      <trkpt lat="40.995923333" lon="-5.732621667">
        <time>2022-06-28T09:52:32Z</time>
      </trkpt>
      <trkpt lat="40.995985000" lon="-5.732593333">
        <time>2022-06-28T09:52:33Z</time>
      </trkpt>
      <trkpt lat="40.996048333" lon="-5.732566667">
        <time>2022-06-28T09:52:34Z</time>
      </trkpt>
      <trkpt lat="40.996110000" lon="-5.732541667">
        <time>2022-06-28T09:52:35Z</time>
      </trkpt>
      <trkpt lat="40.996171667" lon="-5.732520000">
        <time>2022-06-28T09:52:36Z</time>
      </trkpt>
      <trkpt lat="40.996235000" lon="-5.732498333">
        <time>2022-06-28T09:52:37Z</time>
      </trkpt>
      <trkpt lat="40.996298333" lon="-5.732480000">
        <time>2022-06-28T09:52:38Z</time>
      </trkpt>
      <trkpt lat="40.996363333" lon="-5.732463333">
        <time>2022-06-28T09:52:39Z</time>
      </trkpt>
      <trkpt lat="40.996426667" lon="-5.732448333">
        <time>2022-06-28T09:52:40Z</time>
      </trkpt>
      <trkpt lat="40.996491667" lon="-5.732435000">
        <time>2022-06-28T09:52:41Z</time>
      </trkpt>
      <trkpt lat="40.996556667" lon="-5.732423333">
        <time>2022-06-28T09:52:42Z</time>
      </trkpt>
      <trkpt lat="40.996621667" lon="-5.732411667">
        <time>2022-06-28T09:52:43Z</time>
      </trkpt>
      <trkpt lat="40.996686667" lon="-5.732398333">
        <time>2022-06-28T09:52:44Z</time>
      </trkpt>
      <trkpt lat="40.996751667" lon="-5.732385000">
        <time>2022-06-28T09:52:45Z</time>
      </trkpt>
      <trkpt lat="40.996816667" lon="-5.732373333">
        <time>2022-06-28T09:52:46Z</time>
      </trkpt>
      <trkpt lat="40.996881667" lon="-5.732363333">
        <time>2022-06-28T09:52:47Z</time>
      </trkpt>
      <trkpt lat="40.996945000" lon="-5.732353333">
        <time>2022-06-28T09:52:48Z</time>
      </trkpt>
      <trkpt lat="40.997010000" lon="-5.732341667">
        <time>2022-06-28T09:52:49Z</time>
      </trkpt>
      <trkpt lat="40.997075000" lon="-5.732331667">
        <time>2022-06-28T09:52:50Z</time>
      </trkpt>
      <trkpt lat="40.997140000" lon="-5.732321667">
        <time>2022-06-28T09:52:51Z</time>
      </trkpt>
      <trkpt lat="40.997205000" lon="-5.732313333">
        <time>2022-06-28T09:52:52Z</time>
      </trkpt>
      <trkpt lat="40.997268333" lon="-5.732303333">
        <time>2022-06-28T09:52:53Z</time>
      </trkpt>
      <trkpt lat="40.997331667" lon="-5.732293333">
        <time>2022-06-28T09:52:54Z</time>
      </trkpt>
      <trkpt lat="40.997396667" lon="-5.732281667">
        <time>2022-06-28T09:52:55Z</time>
      </trkpt>
      <trkpt lat="40.997461667" lon="-5.732271667">
        <time>2022-06-28T09:52:56Z</time>
      </trkpt>
      <trkpt lat="40.997525000" lon="-5.732260000">
        <time>2022-06-28T09:52:57Z</time>
      </trkpt>
      <trkpt lat="40.997588333" lon="-5.732250000">
        <time>2022-06-28T09:52:58Z</time>
      </trkpt>
      <trkpt lat="40.997651667" lon="-5.732240000">
        <time>2022-06-28T09:52:59Z</time>
      </trkpt>
      <trkpt lat="40.997715000" lon="-5.732228333">
        <time>2022-06-28T09:53:00Z</time>
      </trkpt>
      <trkpt lat="40.997778333" lon="-5.732218333">
        <time>2022-06-28T09:53:01Z</time>
      </trkpt>
      <trkpt lat="40.997841667" lon="-5.732210000">
        <time>2022-06-28T09:53:02Z</time>
      </trkpt>
      <trkpt lat="40.997905000" lon="-5.732200000">
        <time>2022-06-28T09:53:03Z</time>
      </trkpt>
      <trkpt lat="40.997968333" lon="-5.732188333">
        <time>2022-06-28T09:53:04Z</time>
      </trkpt>
      <trkpt lat="40.998030000" lon="-5.732180000">
        <time>2022-06-28T09:53:05Z</time>
      </trkpt>
      <trkpt lat="40.998093333" lon="-5.732171667">
        <time>2022-06-28T09:53:06Z</time>
      </trkpt>
      <trkpt lat="40.998156667" lon="-5.732161667">
        <time>2022-06-28T09:53:07Z</time>
      </trkpt>
      <trkpt lat="40.998220000" lon="-5.732155000">
        <time>2022-06-28T09:53:08Z</time>
      </trkpt>
      <trkpt lat="40.998283333" lon="-5.732146667">
        <time>2022-06-28T09:53:09Z</time>
      </trkpt>
      <trkpt lat="40.998346667" lon="-5.732145000">
        <time>2022-06-28T09:53:10Z</time>
      </trkpt>
      <trkpt lat="40.998408333" lon="-5.732143333">
        <time>2022-06-28T09:53:11Z</time>
      </trkpt>
      <trkpt lat="40.998471667" lon="-5.732146667">
        <time>2022-06-28T09:53:12Z</time>
      </trkpt>
      <trkpt lat="40.998533333" lon="-5.732155000">
        <time>2022-06-28T09:53:13Z</time>
      </trkpt>
      <trkpt lat="40.998595000" lon="-5.732168333">
        <time>2022-06-28T09:53:14Z</time>
      </trkpt>
      <trkpt lat="40.998655000" lon="-5.732185000">
        <time>2022-06-28T09:53:15Z</time>
      </trkpt>
      <trkpt lat="40.998713333" lon="-5.732211667">
        <time>2022-06-28T09:53:16Z</time>
      </trkpt>
      <trkpt lat="40.998770000" lon="-5.732243333">
        <time>2022-06-28T09:53:17Z</time>
      </trkpt>
      <trkpt lat="40.998823333" lon="-5.732285000">
        <time>2022-06-28T09:53:18Z</time>
      </trkpt>
      <trkpt lat="40.998873333" lon="-5.732333333">
        <time>2022-06-28T09:53:19Z</time>
      </trkpt>
      <trkpt lat="40.998920000" lon="-5.732386667">
        <time>2022-06-28T09:53:20Z</time>
      </trkpt>
      <trkpt lat="40.998965000" lon="-5.732445000">
        <time>2022-06-28T09:53:21Z</time>
      </trkpt>
      <trkpt lat="40.999008333" lon="-5.732506667">
        <time>2022-06-28T09:53:22Z</time>
      </trkpt>
      <trkpt lat="40.999048333" lon="-5.732570000">
        <time>2022-06-28T09:53:23Z</time>
      </trkpt>
      <trkpt lat="40.999088333" lon="-5.732638333">
        <time>2022-06-28T09:53:24Z</time>
      </trkpt>
      <trkpt lat="40.999125000" lon="-5.732706667">
        <time>2022-06-28T09:53:25Z</time>
      </trkpt>
      <trkpt lat="40.999161667" lon="-5.732775000">
        <time>2022-06-28T09:53:26Z</time>
      </trkpt>
      <trkpt lat="40.999200000" lon="-5.732843333">
        <time>2022-06-28T09:53:27Z</time>
      </trkpt>
      <trkpt lat="40.999238333" lon="-5.732908333">
        <time>2022-06-28T09:53:28Z</time>
      </trkpt>
      <trkpt lat="40.999278333" lon="-5.732971667">
        <time>2022-06-28T09:53:29Z</time>
      </trkpt>
      <trkpt lat="40.999318333" lon="-5.733035000">
        <time>2022-06-28T09:53:30Z</time>
      </trkpt>
      <trkpt lat="40.999360000" lon="-5.733093333">
        <time>2022-06-28T09:53:31Z</time>
      </trkpt>
      <trkpt lat="40.999405000" lon="-5.733148333">
        <time>2022-06-28T09:53:32Z</time>
      </trkpt>
      <trkpt lat="40.999456667" lon="-5.733196667">
        <time>2022-06-28T09:53:33Z</time>
      </trkpt>
      <trkpt lat="40.999511667" lon="-5.733231667">
        <time>2022-06-28T09:53:34Z</time>
      </trkpt>
      <trkpt lat="40.999571667" lon="-5.733253333">
        <time>2022-06-28T09:53:35Z</time>
      </trkpt>
      <trkpt lat="40.999633333" lon="-5.733263333">
        <time>2022-06-28T09:53:36Z</time>
      </trkpt>
      <trkpt lat="40.999695000" lon="-5.733266667">
        <time>2022-06-28T09:53:37Z</time>
      </trkpt>
      <trkpt lat="40.999756667" lon="-5.733261667">
        <time>2022-06-28T09:53:38Z</time>
      </trkpt>
      <trkpt lat="40.999820000" lon="-5.733250000">
        <time>2022-06-28T09:53:39Z</time>
      </trkpt>
      <trkpt lat="40.999881667" lon="-5.733235000">
        <time>2022-06-28T09:53:40Z</time>
      </trkpt>
      <trkpt lat="40.999945000" lon="-5.733215000">
        <time>2022-06-28T09:53:41Z</time>
      </trkpt>
      <trkpt lat="41.000006667" lon="-5.733195000">
        <time>2022-06-28T09:53:42Z</time>
      </trkpt>
      <trkpt lat="41.000070000" lon="-5.733176667">
        <time>2022-06-28T09:53:43Z</time>
      </trkpt>
      <trkpt lat="41.000131667" lon="-5.733160000">
        <time>2022-06-28T09:53:44Z</time>
      </trkpt>
      <trkpt lat="41.000193333" lon="-5.733140000">
        <time>2022-06-28T09:53:45Z</time>
      </trkpt>
      <trkpt lat="41.000253333" lon="-5.733118333">
        <time>2022-06-28T09:53:46Z</time>
      </trkpt>
      <trkpt lat="41.000315000" lon="-5.733098333">
        <time>2022-06-28T09:53:47Z</time>
      </trkpt>
      <trkpt lat="41.000375000" lon="-5.733078333">
        <time>2022-06-28T09:53:48Z</time>
      </trkpt>
      <trkpt lat="41.000435000" lon="-5.733060000">
        <time>2022-06-28T09:53:49Z</time>
      </trkpt>
      <trkpt lat="41.000493333" lon="-5.733041667">
        <time>2022-06-28T09:53:50Z</time>
      </trkpt>
      <trkpt lat="41.000553333" lon="-5.733021667">
        <time>2022-06-28T09:53:51Z</time>
      </trkpt>
      <trkpt lat="41.000611667" lon="-5.733001667">
        <time>2022-06-28T09:53:52Z</time>
      </trkpt>
      <trkpt lat="41.000671667" lon="-5.732981667">
        <time>2022-06-28T09:53:53Z</time>
      </trkpt>
      <trkpt lat="41.000730000" lon="-5.732961667">
        <time>2022-06-28T09:53:54Z</time>
      </trkpt>
      <trkpt lat="41.000790000" lon="-5.732943333">
        <time>2022-06-28T09:53:55Z</time>
      </trkpt>
      <trkpt lat="41.000850000" lon="-5.732923333">
        <time>2022-06-28T09:53:56Z</time>
      </trkpt>
      <trkpt lat="41.000910000" lon="-5.732903333">
        <time>2022-06-28T09:53:57Z</time>
      </trkpt>
      <trkpt lat="41.000970000" lon="-5.732883333">
        <time>2022-06-28T09:53:58Z</time>
      </trkpt>
      <trkpt lat="41.001031667" lon="-5.732863333">
        <time>2022-06-28T09:53:59Z</time>
      </trkpt>
      <trkpt lat="41.001095000" lon="-5.732843333">
        <time>2022-06-28T09:54:00Z</time>
      </trkpt>
      <trkpt lat="41.001156667" lon="-5.732821667">
        <time>2022-06-28T09:54:01Z</time>
      </trkpt>
      <trkpt lat="41.001220000" lon="-5.732801667">
        <time>2022-06-28T09:54:02Z</time>
      </trkpt>
      <trkpt lat="41.001285000" lon="-5.732781667">
        <time>2022-06-28T09:54:03Z</time>
      </trkpt>
      <trkpt lat="41.001350000" lon="-5.732761667">
        <time>2022-06-28T09:54:04Z</time>
      </trkpt>
      <trkpt lat="41.001413333" lon="-5.732740000">
        <time>2022-06-28T09:54:05Z</time>
      </trkpt>
      <trkpt lat="41.001476667" lon="-5.732718333">
        <time>2022-06-28T09:54:06Z</time>
      </trkpt>
      <trkpt lat="41.001541667" lon="-5.732696667">
        <time>2022-06-28T09:54:07Z</time>
      </trkpt>
      <trkpt lat="41.001605000" lon="-5.732673333">
        <time>2022-06-28T09:54:08Z</time>
      </trkpt>
      <trkpt lat="41.001670000" lon="-5.732651667">
        <time>2022-06-28T09:54:09Z</time>
      </trkpt>
      <trkpt lat="41.001735000" lon="-5.732628333">
        <time>2022-06-28T09:54:10Z</time>
      </trkpt>
      <trkpt lat="41.001798333" lon="-5.732605000">
        <time>2022-06-28T09:54:11Z</time>
      </trkpt>
      <trkpt lat="41.001863333" lon="-5.732581667">
        <time>2022-06-28T09:54:12Z</time>
      </trkpt>
      <trkpt lat="41.001928333" lon="-5.732558333">
        <time>2022-06-28T09:54:13Z</time>
      </trkpt>
      <trkpt lat="41.001993333" lon="-5.732533333">
        <time>2022-06-28T09:54:14Z</time>
      </trkpt>
      <trkpt lat="41.002060000" lon="-5.732510000">
        <time>2022-06-28T09:54:15Z</time>
      </trkpt>
      <trkpt lat="41.002125000" lon="-5.732486667">
        <time>2022-06-28T09:54:16Z</time>
      </trkpt>
      <trkpt lat="41.002190000" lon="-5.732463333">
        <time>2022-06-28T09:54:17Z</time>
      </trkpt>
      <trkpt lat="41.002253333" lon="-5.732440000">
        <time>2022-06-28T09:54:18Z</time>
      </trkpt>
      <trkpt lat="41.002318333" lon="-5.732420000">
        <time>2022-06-28T09:54:19Z</time>
      </trkpt>
      <trkpt lat="41.002381667" lon="-5.732398333">
        <time>2022-06-28T09:54:20Z</time>
      </trkpt>
      <trkpt lat="41.002443333" lon="-5.732378333">
        <time>2022-06-28T09:54:21Z</time>
      </trkpt>
      <trkpt lat="41.002506667" lon="-5.732358333">
        <time>2022-06-28T09:54:22Z</time>
      </trkpt>
      <trkpt lat="41.002568333" lon="-5.732341667">
        <time>2022-06-28T09:54:23Z</time>
      </trkpt>
      <trkpt lat="41.002631667" lon="-5.732325000">
        <time>2022-06-28T09:54:24Z</time>
      </trkpt>
      <trkpt lat="41.002695000" lon="-5.732311667">
        <time>2022-06-28T09:54:25Z</time>
      </trkpt>
      <trkpt lat="41.002760000" lon="-5.732301667">
        <time>2022-06-28T09:54:26Z</time>
      </trkpt>
      <trkpt lat="41.002823333" lon="-5.732291667">
        <time>2022-06-28T09:54:27Z</time>
      </trkpt>
      <trkpt lat="41.002888333" lon="-5.732283333">
        <time>2022-06-28T09:54:28Z</time>
      </trkpt>
      <trkpt lat="41.002953333" lon="-5.732276667">
        <time>2022-06-28T09:54:29Z</time>
      </trkpt>
      <trkpt lat="41.003018333" lon="-5.732268333">
        <time>2022-06-28T09:54:30Z</time>
      </trkpt>
      <trkpt lat="41.003083333" lon="-5.732263333">
        <time>2022-06-28T09:54:31Z</time>
      </trkpt>
      <trkpt lat="41.003150000" lon="-5.732258333">
        <time>2022-06-28T09:54:32Z</time>
      </trkpt>
      <trkpt lat="41.003215000" lon="-5.732251667">
        <time>2022-06-28T09:54:33Z</time>
      </trkpt>
      <trkpt lat="41.003281667" lon="-5.732246667">
        <time>2022-06-28T09:54:34Z</time>
      </trkpt>
      <trkpt lat="41.003348333" lon="-5.732243333">
        <time>2022-06-28T09:54:35Z</time>
      </trkpt>
      <trkpt lat="41.003415000" lon="-5.732238333">
        <time>2022-06-28T09:54:36Z</time>
      </trkpt>
      <trkpt lat="41.003481667" lon="-5.732235000">
        <time>2022-06-28T09:54:37Z</time>
      </trkpt>
      <trkpt lat="41.003548333" lon="-5.732231667">
        <time>2022-06-28T09:54:38Z</time>
      </trkpt>
      <trkpt lat="41.003613333" lon="-5.732228333">
        <time>2022-06-28T09:54:39Z</time>
      </trkpt>
      <trkpt lat="41.003680000" lon="-5.732226667">
        <time>2022-06-28T09:54:40Z</time>
      </trkpt>
      <trkpt lat="41.003745000" lon="-5.732225000">
        <time>2022-06-28T09:54:41Z</time>
      </trkpt>
      <trkpt lat="41.003808333" lon="-5.732223333">
        <time>2022-06-28T09:54:42Z</time>
      </trkpt>
      <trkpt lat="41.003873333" lon="-5.732221667">
        <time>2022-06-28T09:54:43Z</time>
      </trkpt>
      <trkpt lat="41.003936667" lon="-5.732220000">
        <time>2022-06-28T09:54:44Z</time>
      </trkpt>
      <trkpt lat="41.004000000" lon="-5.732218333">
        <time>2022-06-28T09:54:45Z</time>
      </trkpt>
      <trkpt lat="41.004065000" lon="-5.732216667">
        <time>2022-06-28T09:54:46Z</time>
      </trkpt>
      <trkpt lat="41.004130000" lon="-5.732216667">
        <time>2022-06-28T09:54:47Z</time>
      </trkpt>
      <trkpt lat="41.004195000" lon="-5.732213333">
        <time>2022-06-28T09:54:48Z</time>
      </trkpt>
      <trkpt lat="41.004260000" lon="-5.732211667">
        <time>2022-06-28T09:54:49Z</time>
      </trkpt>
      <trkpt lat="41.004323333" lon="-5.732211667">
        <time>2022-06-28T09:54:50Z</time>
      </trkpt>
      <trkpt lat="41.004388333" lon="-5.732210000">
        <time>2022-06-28T09:54:51Z</time>
      </trkpt>
      <trkpt lat="41.004451667" lon="-5.732206667">
        <time>2022-06-28T09:54:52Z</time>
      </trkpt>
      <trkpt lat="41.004515000" lon="-5.732206667">
        <time>2022-06-28T09:54:53Z</time>
      </trkpt>
      <trkpt lat="41.004580000" lon="-5.732206667">
        <time>2022-06-28T09:54:54Z</time>
      </trkpt>
      <trkpt lat="41.004643333" lon="-5.732206667">
        <time>2022-06-28T09:54:55Z</time>
      </trkpt>
      <trkpt lat="41.004708333" lon="-5.732205000">
        <time>2022-06-28T09:54:56Z</time>
      </trkpt>
      <trkpt lat="41.004771667" lon="-5.732206667">
        <time>2022-06-28T09:54:57Z</time>
      </trkpt>
      <trkpt lat="41.004835000" lon="-5.732206667">
        <time>2022-06-28T09:54:58Z</time>
      </trkpt>
      <trkpt lat="41.004896667" lon="-5.732206667">
        <time>2022-06-28T09:54:59Z</time>
      </trkpt>
      <trkpt lat="41.004958333" lon="-5.732210000">
        <time>2022-06-28T09:55:00Z</time>
      </trkpt>
      <trkpt lat="41.005020000" lon="-5.732213333">
        <time>2022-06-28T09:55:01Z</time>
      </trkpt>
      <trkpt lat="41.005081667" lon="-5.732218333">
        <time>2022-06-28T09:55:02Z</time>
      </trkpt>
      <trkpt lat="41.005143333" lon="-5.732223333">
        <time>2022-06-28T09:55:03Z</time>
      </trkpt>
      <trkpt lat="41.005203333" lon="-5.732230000">
        <time>2022-06-28T09:55:04Z</time>
      </trkpt>
      <trkpt lat="41.005263333" lon="-5.732236667">
        <time>2022-06-28T09:55:05Z</time>
      </trkpt>
      <trkpt lat="41.005323333" lon="-5.732245000">
        <time>2022-06-28T09:55:06Z</time>
      </trkpt>
      <trkpt lat="41.005383333" lon="-5.732253333">
        <time>2022-06-28T09:55:07Z</time>
      </trkpt>
      <trkpt lat="41.005441667" lon="-5.732263333">
        <time>2022-06-28T09:55:08Z</time>
      </trkpt>
      <trkpt lat="41.005501667" lon="-5.732275000">
        <time>2022-06-28T09:55:09Z</time>
      </trkpt>
      <trkpt lat="41.005561667" lon="-5.732286667">
        <time>2022-06-28T09:55:10Z</time>
      </trkpt>
      <trkpt lat="41.005621667" lon="-5.732300000">
        <time>2022-06-28T09:55:11Z</time>
      </trkpt>
      <trkpt lat="41.005680000" lon="-5.732318333">
        <time>2022-06-28T09:55:12Z</time>
      </trkpt>
      <trkpt lat="41.005740000" lon="-5.732338333">
        <time>2022-06-28T09:55:13Z</time>
      </trkpt>
      <trkpt lat="41.005798333" lon="-5.732356667">
        <time>2022-06-28T09:55:14Z</time>
      </trkpt>
      <trkpt lat="41.005856667" lon="-5.732375000">
        <time>2022-06-28T09:55:15Z</time>
      </trkpt>
      <trkpt lat="41.005915000" lon="-5.732396667">
        <time>2022-06-28T09:55:16Z</time>
      </trkpt>
      <trkpt lat="41.005973333" lon="-5.732420000">
        <time>2022-06-28T09:55:17Z</time>
      </trkpt>
      <trkpt lat="41.006033333" lon="-5.732441667">
        <time>2022-06-28T09:55:18Z</time>
      </trkpt>
      <trkpt lat="41.006091667" lon="-5.732463333">
        <time>2022-06-28T09:55:19Z</time>
      </trkpt>
      <trkpt lat="41.006148333" lon="-5.732486667">
        <time>2022-06-28T09:55:20Z</time>
      </trkpt>
      <trkpt lat="41.006206667" lon="-5.732511667">
        <time>2022-06-28T09:55:21Z</time>
      </trkpt>
      <trkpt lat="41.006265000" lon="-5.732535000">
        <time>2022-06-28T09:55:22Z</time>
      </trkpt>
      <trkpt lat="41.006321667" lon="-5.732560000">
        <time>2022-06-28T09:55:23Z</time>
      </trkpt>
      <trkpt lat="41.006378333" lon="-5.732583333">
        <time>2022-06-28T09:55:24Z</time>
      </trkpt>
      <trkpt lat="41.006435000" lon="-5.732608333">
        <time>2022-06-28T09:55:25Z</time>
      </trkpt>
      <trkpt lat="41.006490000" lon="-5.732633333">
        <time>2022-06-28T09:55:26Z</time>
      </trkpt>
      <trkpt lat="41.006546667" lon="-5.732660000">
        <time>2022-06-28T09:55:27Z</time>
      </trkpt>
      <trkpt lat="41.006603333" lon="-5.732685000">
        <time>2022-06-28T09:55:28Z</time>
      </trkpt>
      <trkpt lat="41.006658333" lon="-5.732710000">
        <time>2022-06-28T09:55:29Z</time>
      </trkpt>
      <trkpt lat="41.006713333" lon="-5.732735000">
        <time>2022-06-28T09:55:30Z</time>
      </trkpt>
      <trkpt lat="41.006768333" lon="-5.732758333">
        <time>2022-06-28T09:55:31Z</time>
      </trkpt>
      <trkpt lat="41.006825000" lon="-5.732781667">
        <time>2022-06-28T09:55:32Z</time>
      </trkpt>
      <trkpt lat="41.006881667" lon="-5.732805000">
        <time>2022-06-28T09:55:33Z</time>
      </trkpt>
      <trkpt lat="41.006936667" lon="-5.732830000">
        <time>2022-06-28T09:55:34Z</time>
      </trkpt>
      <trkpt lat="41.006991667" lon="-5.732855000">
        <time>2022-06-28T09:55:35Z</time>
      </trkpt>
      <trkpt lat="41.007048333" lon="-5.732880000">
        <time>2022-06-28T09:55:36Z</time>
      </trkpt>
      <trkpt lat="41.007105000" lon="-5.732903333">
        <time>2022-06-28T09:55:37Z</time>
      </trkpt>
      <trkpt lat="41.007161667" lon="-5.732928333">
        <time>2022-06-28T09:55:38Z</time>
      </trkpt>
      <trkpt lat="41.007218333" lon="-5.732953333">
        <time>2022-06-28T09:55:39Z</time>
      </trkpt>
      <trkpt lat="41.007275000" lon="-5.732978333">
        <time>2022-06-28T09:55:40Z</time>
      </trkpt>
      <trkpt lat="41.007330000" lon="-5.733001667">
        <time>2022-06-28T09:55:41Z</time>
      </trkpt>
      <trkpt lat="41.007386667" lon="-5.733026667">
        <time>2022-06-28T09:55:42Z</time>
      </trkpt>
      <trkpt lat="41.007443333" lon="-5.733050000">
        <time>2022-06-28T09:55:43Z</time>
      </trkpt>
      <trkpt lat="41.007500000" lon="-5.733075000">
        <time>2022-06-28T09:55:44Z</time>
      </trkpt>
      <trkpt lat="41.007555000" lon="-5.733100000">
        <time>2022-06-28T09:55:45Z</time>
      </trkpt>
      <trkpt lat="41.007611667" lon="-5.733126667">
        <time>2022-06-28T09:55:46Z</time>
      </trkpt>
      <trkpt lat="41.007666667" lon="-5.733153333">
        <time>2022-06-28T09:55:47Z</time>
      </trkpt>
      <trkpt lat="41.007723333" lon="-5.733180000">
        <time>2022-06-28T09:55:48Z</time>
      </trkpt>
      <trkpt lat="41.007778333" lon="-5.733210000">
        <time>2022-06-28T09:55:49Z</time>
      </trkpt>
      <trkpt lat="41.007833333" lon="-5.733241667">
        <time>2022-06-28T09:55:50Z</time>
      </trkpt>
      <trkpt lat="41.007886667" lon="-5.733276667">
        <time>2022-06-28T09:55:51Z</time>
      </trkpt>
      <trkpt lat="41.007940000" lon="-5.733315000">
        <time>2022-06-28T09:55:52Z</time>
      </trkpt>
      <trkpt lat="41.007991667" lon="-5.733355000">
        <time>2022-06-28T09:55:53Z</time>
      </trkpt>
      <trkpt lat="41.008043333" lon="-5.733396667">
        <time>2022-06-28T09:55:54Z</time>
      </trkpt>
      <trkpt lat="41.008095000" lon="-5.733440000">
        <time>2022-06-28T09:55:55Z</time>
      </trkpt>
      <trkpt lat="41.008145000" lon="-5.733488333">
        <time>2022-06-28T09:55:56Z</time>
      </trkpt>
      <trkpt lat="41.008193333" lon="-5.733538333">
        <time>2022-06-28T09:55:57Z</time>
      </trkpt>
      <trkpt lat="41.008240000" lon="-5.733591667">
        <time>2022-06-28T09:55:58Z</time>
      </trkpt>
      <trkpt lat="41.008288333" lon="-5.733646667">
        <time>2022-06-28T09:55:59Z</time>
      </trkpt>
      <trkpt lat="41.008335000" lon="-5.733703333">
        <time>2022-06-28T09:56:00Z</time>
      </trkpt>
      <trkpt lat="41.008380000" lon="-5.733763333">
        <time>2022-06-28T09:56:01Z</time>
      </trkpt>
      <trkpt lat="41.008421667" lon="-5.733826667">
        <time>2022-06-28T09:56:02Z</time>
      </trkpt>
      <trkpt lat="41.008461667" lon="-5.733896667">
        <time>2022-06-28T09:56:03Z</time>
      </trkpt>
      <trkpt lat="41.008500000" lon="-5.733966667">
        <time>2022-06-28T09:56:04Z</time>
      </trkpt>
      <trkpt lat="41.008535000" lon="-5.734040000">
        <time>2022-06-28T09:56:05Z</time>
      </trkpt>
      <trkpt lat="41.008568333" lon="-5.734115000">
        <time>2022-06-28T09:56:06Z</time>
      </trkpt>
      <trkpt lat="41.008601667" lon="-5.734191667">
        <time>2022-06-28T09:56:07Z</time>
      </trkpt>
      <trkpt lat="41.008633333" lon="-5.734270000">
        <time>2022-06-28T09:56:08Z</time>
      </trkpt>
      <trkpt lat="41.008665000" lon="-5.734350000">
        <time>2022-06-28T09:56:09Z</time>
      </trkpt>
      <trkpt lat="41.008696667" lon="-5.734430000">
        <time>2022-06-28T09:56:10Z</time>
      </trkpt>
      <trkpt lat="41.008726667" lon="-5.734511667">
        <time>2022-06-28T09:56:11Z</time>
      </trkpt>
      <trkpt lat="41.008758333" lon="-5.734593333">
        <time>2022-06-28T09:56:12Z</time>
      </trkpt>
      <trkpt lat="41.008790000" lon="-5.734676667">
        <time>2022-06-28T09:56:13Z</time>
      </trkpt>
      <trkpt lat="41.008820000" lon="-5.734761667">
        <time>2022-06-28T09:56:14Z</time>
      </trkpt>
      <trkpt lat="41.008850000" lon="-5.734846667">
        <time>2022-06-28T09:56:15Z</time>
      </trkpt>
      <trkpt lat="41.008881667" lon="-5.734931667">
        <time>2022-06-28T09:56:16Z</time>
      </trkpt>
      <trkpt lat="41.008913333" lon="-5.735018333">
        <time>2022-06-28T09:56:17Z</time>
      </trkpt>
      <trkpt lat="41.008943333" lon="-5.735103333">
        <time>2022-06-28T09:56:18Z</time>
      </trkpt>
      <trkpt lat="41.008973333" lon="-5.735190000">
        <time>2022-06-28T09:56:19Z</time>
      </trkpt>
      <trkpt lat="41.009005000" lon="-5.735276667">
        <time>2022-06-28T09:56:20Z</time>
      </trkpt>
      <trkpt lat="41.009036667" lon="-5.735363333">
        <time>2022-06-28T09:56:21Z</time>
      </trkpt>
      <trkpt lat="41.009068333" lon="-5.735450000">
        <time>2022-06-28T09:56:22Z</time>
      </trkpt>
      <trkpt lat="41.009101667" lon="-5.735536667">
        <time>2022-06-28T09:56:23Z</time>
      </trkpt>
      <trkpt lat="41.009136667" lon="-5.735623333">
        <time>2022-06-28T09:56:24Z</time>
      </trkpt>
      <trkpt lat="41.009171667" lon="-5.735708333">
        <time>2022-06-28T09:56:25Z</time>
      </trkpt>
      <trkpt lat="41.009208333" lon="-5.735791667">
        <time>2022-06-28T09:56:26Z</time>
      </trkpt>
      <trkpt lat="41.009248333" lon="-5.735871667">
        <time>2022-06-28T09:56:27Z</time>
      </trkpt>
      <trkpt lat="41.009291667" lon="-5.735946667">
        <time>2022-06-28T09:56:28Z</time>
      </trkpt>
      <trkpt lat="41.009338333" lon="-5.736015000">
        <time>2022-06-28T09:56:29Z</time>
      </trkpt>
      <trkpt lat="41.009386667" lon="-5.736081667">
        <time>2022-06-28T09:56:30Z</time>
      </trkpt>
      <trkpt lat="41.009433333" lon="-5.736143333">
        <time>2022-06-28T09:56:31Z</time>
      </trkpt>
      <trkpt lat="41.009483333" lon="-5.736201667">
        <time>2022-06-28T09:56:32Z</time>
      </trkpt>
      <trkpt lat="41.009533333" lon="-5.736256667">
        <time>2022-06-28T09:56:33Z</time>
      </trkpt>
      <trkpt lat="41.009583333" lon="-5.736310000">
        <time>2022-06-28T09:56:34Z</time>
      </trkpt>
      <trkpt lat="41.009633333" lon="-5.736363333">
        <time>2022-06-28T09:56:35Z</time>
      </trkpt>
      <trkpt lat="41.009683333" lon="-5.736416667">
        <time>2022-06-28T09:56:36Z</time>
      </trkpt>
      <trkpt lat="41.009733333" lon="-5.736470000">
        <time>2022-06-28T09:56:37Z</time>
      </trkpt>
      <trkpt lat="41.009781667" lon="-5.736521667">
        <time>2022-06-28T09:56:38Z</time>
      </trkpt>
      <trkpt lat="41.009831667" lon="-5.736573333">
        <time>2022-06-28T09:56:39Z</time>
      </trkpt>
      <trkpt lat="41.009880000" lon="-5.736625000">
        <time>2022-06-28T09:56:40Z</time>
      </trkpt>
      <trkpt lat="41.009928333" lon="-5.736676667">
        <time>2022-06-28T09:56:41Z</time>
      </trkpt>
      <trkpt lat="41.009975000" lon="-5.736726667">
        <time>2022-06-28T09:56:42Z</time>
      </trkpt>
      <trkpt lat="41.010023333" lon="-5.736776667">
        <time>2022-06-28T09:56:43Z</time>
      </trkpt>
      <trkpt lat="41.010070000" lon="-5.736826667">
        <time>2022-06-28T09:56:44Z</time>
      </trkpt>
      <trkpt lat="41.010116667" lon="-5.736875000">
        <time>2022-06-28T09:56:45Z</time>
      </trkpt>
      <trkpt lat="41.010161667" lon="-5.736921667">
        <time>2022-06-28T09:56:46Z</time>
      </trkpt>
      <trkpt lat="41.010206667" lon="-5.736970000">
        <time>2022-06-28T09:56:47Z</time>
      </trkpt>
      <trkpt lat="41.010253333" lon="-5.737018333">
        <time>2022-06-28T09:56:48Z</time>
      </trkpt>
      <trkpt lat="41.010300000" lon="-5.737065000">
        <time>2022-06-28T09:56:49Z</time>
      </trkpt>
      <trkpt lat="41.010346667" lon="-5.737111667">
        <time>2022-06-28T09:56:50Z</time>
      </trkpt>
      <trkpt lat="41.010391667" lon="-5.737160000">
        <time>2022-06-28T09:56:51Z</time>
      </trkpt>
      <trkpt lat="41.010436667" lon="-5.737206667">
        <time>2022-06-28T09:56:52Z</time>
      </trkpt>
      <trkpt lat="41.010481667" lon="-5.737253333">
        <time>2022-06-28T09:56:53Z</time>
      </trkpt>
      <trkpt lat="41.010526667" lon="-5.737300000">
        <time>2022-06-28T09:56:54Z</time>
      </trkpt>
      <trkpt lat="41.010571667" lon="-5.737346667">
        <time>2022-06-28T09:56:55Z</time>
      </trkpt>
      <trkpt lat="41.010616667" lon="-5.737391667">
        <time>2022-06-28T09:56:56Z</time>
      </trkpt>
      <trkpt lat="41.010661667" lon="-5.737436667">
        <time>2022-06-28T09:56:57Z</time>
      </trkpt>
      <trkpt lat="41.010706667" lon="-5.737485000">
        <time>2022-06-28T09:56:58Z</time>
      </trkpt>
      <trkpt lat="41.010753333" lon="-5.737531667">
        <time>2022-06-28T09:56:59Z</time>
      </trkpt>
      <trkpt lat="41.010798333" lon="-5.737576667">
        <time>2022-06-28T09:57:00Z</time>
      </trkpt>
      <trkpt lat="41.010843333" lon="-5.737623333">
        <time>2022-06-28T09:57:01Z</time>
      </trkpt>
      <trkpt lat="41.010888333" lon="-5.737671667">
        <time>2022-06-28T09:57:02Z</time>
      </trkpt>
      <trkpt lat="41.010933333" lon="-5.737720000">
        <time>2022-06-28T09:57:03Z</time>
      </trkpt>
      <trkpt lat="41.010980000" lon="-5.737766667">
        <time>2022-06-28T09:57:04Z</time>
      </trkpt>
      <trkpt lat="41.011025000" lon="-5.737813333">
        <time>2022-06-28T09:57:05Z</time>
      </trkpt>
      <trkpt lat="41.011071667" lon="-5.737860000">
        <time>2022-06-28T09:57:06Z</time>
      </trkpt>
      <trkpt lat="41.011118333" lon="-5.737910000">
        <time>2022-06-28T09:57:07Z</time>
      </trkpt>
      <trkpt lat="41.011166667" lon="-5.737960000">
        <time>2022-06-28T09:57:08Z</time>
      </trkpt>
      <trkpt lat="41.011216667" lon="-5.738010000">
        <time>2022-06-28T09:57:09Z</time>
      </trkpt>
      <trkpt lat="41.011265000" lon="-5.738060000">
        <time>2022-06-28T09:57:10Z</time>
      </trkpt>
      <trkpt lat="41.011315000" lon="-5.738110000">
        <time>2022-06-28T09:57:11Z</time>
      </trkpt>
      <trkpt lat="41.011363333" lon="-5.738161667">
        <time>2022-06-28T09:57:12Z</time>
      </trkpt>
      <trkpt lat="41.011411667" lon="-5.738211667">
        <time>2022-06-28T09:57:13Z</time>
      </trkpt>
      <trkpt lat="41.011460000" lon="-5.738263333">
        <time>2022-06-28T09:57:14Z</time>
      </trkpt>
      <trkpt lat="41.011508333" lon="-5.738313333">
        <time>2022-06-28T09:57:15Z</time>
      </trkpt>
      <trkpt lat="41.011558333" lon="-5.738365000">
        <time>2022-06-28T09:57:16Z</time>
      </trkpt>
      <trkpt lat="41.011608333" lon="-5.738416667">
        <time>2022-06-28T09:57:17Z</time>
      </trkpt>
      <trkpt lat="41.011658333" lon="-5.738468333">
        <time>2022-06-28T09:57:18Z</time>
      </trkpt>
      <trkpt lat="41.011708333" lon="-5.738520000">
        <time>2022-06-28T09:57:19Z</time>
      </trkpt>
      <trkpt lat="41.011758333" lon="-5.738571667">
        <time>2022-06-28T09:57:20Z</time>
      </trkpt>
      <trkpt lat="41.011808333" lon="-5.738623333">
        <time>2022-06-28T09:57:21Z</time>
      </trkpt>
      <trkpt lat="41.011856667" lon="-5.738673333">
        <time>2022-06-28T09:57:22Z</time>
      </trkpt>
      <trkpt lat="41.011905000" lon="-5.738725000">
        <time>2022-06-28T09:57:23Z</time>
      </trkpt>
      <trkpt lat="41.011955000" lon="-5.738775000">
        <time>2022-06-28T09:57:24Z</time>
      </trkpt>
      <trkpt lat="41.012003333" lon="-5.738826667">
        <time>2022-06-28T09:57:25Z</time>
      </trkpt>
      <trkpt lat="41.012051667" lon="-5.738878333">
        <time>2022-06-28T09:57:26Z</time>
      </trkpt>
      <trkpt lat="41.012101667" lon="-5.738930000">
        <time>2022-06-28T09:57:27Z</time>
      </trkpt>
      <trkpt lat="41.012150000" lon="-5.738981667">
        <time>2022-06-28T09:57:28Z</time>
      </trkpt>
      <trkpt lat="41.012198333" lon="-5.739033333">
        <time>2022-06-28T09:57:29Z</time>
      </trkpt>
      <trkpt lat="41.012246667" lon="-5.739083333">
        <time>2022-06-28T09:57:30Z</time>
      </trkpt>
      <trkpt lat="41.012296667" lon="-5.739135000">
        <time>2022-06-28T09:57:31Z</time>
      </trkpt>
      <trkpt lat="41.012346667" lon="-5.739186667">
        <time>2022-06-28T09:57:32Z</time>
      </trkpt>
      <trkpt lat="41.012395000" lon="-5.739236667">
        <time>2022-06-28T09:57:33Z</time>
      </trkpt>
      <trkpt lat="41.012445000" lon="-5.739288333">
        <time>2022-06-28T09:57:34Z</time>
      </trkpt>
      <trkpt lat="41.012493333" lon="-5.739338333">
        <time>2022-06-28T09:57:35Z</time>
      </trkpt>
      <trkpt lat="41.012541667" lon="-5.739390000">
        <time>2022-06-28T09:57:36Z</time>
      </trkpt>
      <trkpt lat="41.012590000" lon="-5.739438333">
        <time>2022-06-28T09:57:37Z</time>
      </trkpt>
      <trkpt lat="41.012640000" lon="-5.739490000">
        <time>2022-06-28T09:57:38Z</time>
      </trkpt>
      <trkpt lat="41.012688333" lon="-5.739540000">
        <time>2022-06-28T09:57:39Z</time>
      </trkpt>
      <trkpt lat="41.012736667" lon="-5.739593333">
        <time>2022-06-28T09:57:40Z</time>
      </trkpt>
      <trkpt lat="41.012783333" lon="-5.739646667">
        <time>2022-06-28T09:57:41Z</time>
      </trkpt>
      <trkpt lat="41.012833333" lon="-5.739700000">
        <time>2022-06-28T09:57:42Z</time>
      </trkpt>
      <trkpt lat="41.012883333" lon="-5.739753333">
        <time>2022-06-28T09:57:43Z</time>
      </trkpt>
      <trkpt lat="41.012931667" lon="-5.739810000">
        <time>2022-06-28T09:57:44Z</time>
      </trkpt>
      <trkpt lat="41.012981667" lon="-5.739868333">
        <time>2022-06-28T09:57:45Z</time>
      </trkpt>
      <trkpt lat="41.013033333" lon="-5.739925000">
        <time>2022-06-28T09:57:46Z</time>
      </trkpt>
      <trkpt lat="41.013086667" lon="-5.739980000">
        <time>2022-06-28T09:57:47Z</time>
      </trkpt>
      <trkpt lat="41.013141667" lon="-5.740031667">
        <time>2022-06-28T09:57:48Z</time>
      </trkpt>
      <trkpt lat="41.013198333" lon="-5.740085000">
        <time>2022-06-28T09:57:49Z</time>
      </trkpt>
      <trkpt lat="41.013255000" lon="-5.740140000">
        <time>2022-06-28T09:57:50Z</time>
      </trkpt>
      <trkpt lat="41.013310000" lon="-5.740195000">
        <time>2022-06-28T09:57:51Z</time>
      </trkpt>
      <trkpt lat="41.013365000" lon="-5.740250000">
        <time>2022-06-28T09:57:52Z</time>
      </trkpt>
      <trkpt lat="41.013420000" lon="-5.740305000">
        <time>2022-06-28T09:57:53Z</time>
      </trkpt>
      <trkpt lat="41.013475000" lon="-5.740358333">
        <time>2022-06-28T09:57:54Z</time>
      </trkpt>
      <trkpt lat="41.013530000" lon="-5.740411667">
        <time>2022-06-28T09:57:55Z</time>
      </trkpt>
      <trkpt lat="41.013585000" lon="-5.740468333">
        <time>2022-06-28T09:57:56Z</time>
      </trkpt>
      <trkpt lat="41.013638333" lon="-5.740523333">
        <time>2022-06-28T09:57:57Z</time>
      </trkpt>
      <trkpt lat="41.013691667" lon="-5.740580000">
        <time>2022-06-28T09:57:58Z</time>
      </trkpt>
      <trkpt lat="41.013746667" lon="-5.740635000">
        <time>2022-06-28T09:57:59Z</time>
      </trkpt>
      <trkpt lat="41.013800000" lon="-5.740691667">
        <time>2022-06-28T09:58:00Z</time>
      </trkpt>
      <trkpt lat="41.013855000" lon="-5.740746667">
        <time>2022-06-28T09:58:01Z</time>
      </trkpt>
      <trkpt lat="41.013910000" lon="-5.740800000">
        <time>2022-06-28T09:58:02Z</time>
      </trkpt>
      <trkpt lat="41.013965000" lon="-5.740850000">
        <time>2022-06-28T09:58:03Z</time>
      </trkpt>
      <trkpt lat="41.014020000" lon="-5.740901667">
        <time>2022-06-28T09:58:04Z</time>
      </trkpt>
      <trkpt lat="41.014076667" lon="-5.740953333">
        <time>2022-06-28T09:58:05Z</time>
      </trkpt>
      <trkpt lat="41.014131667" lon="-5.741003333">
        <time>2022-06-28T09:58:06Z</time>
      </trkpt>
      <trkpt lat="41.014188333" lon="-5.741053333">
        <time>2022-06-28T09:58:07Z</time>
      </trkpt>
      <trkpt lat="41.014245000" lon="-5.741105000">
        <time>2022-06-28T09:58:08Z</time>
      </trkpt>
      <trkpt lat="41.014301667" lon="-5.741155000">
        <time>2022-06-28T09:58:09Z</time>
      </trkpt>
      <trkpt lat="41.014356667" lon="-5.741205000">
        <time>2022-06-28T09:58:10Z</time>
      </trkpt>
      <trkpt lat="41.014413333" lon="-5.741255000">
        <time>2022-06-28T09:58:11Z</time>
      </trkpt>
      <trkpt lat="41.014468333" lon="-5.741306667">
        <time>2022-06-28T09:58:12Z</time>
      </trkpt>
      <trkpt lat="41.014525000" lon="-5.741356667">
        <time>2022-06-28T09:58:13Z</time>
      </trkpt>
      <trkpt lat="41.014580000" lon="-5.741408333">
        <time>2022-06-28T09:58:14Z</time>
      </trkpt>
      <trkpt lat="41.014636667" lon="-5.741456667">
        <time>2022-06-28T09:58:15Z</time>
      </trkpt>
      <trkpt lat="41.014693333" lon="-5.741506667">
        <time>2022-06-28T09:58:16Z</time>
      </trkpt>
      <trkpt lat="41.014750000" lon="-5.741556667">
        <time>2022-06-28T09:58:17Z</time>
      </trkpt>
      <trkpt lat="41.014806667" lon="-5.741606667">
        <time>2022-06-28T09:58:18Z</time>
      </trkpt>
      <trkpt lat="41.014861667" lon="-5.741658333">
        <time>2022-06-28T09:58:19Z</time>
      </trkpt>
      <trkpt lat="41.014918333" lon="-5.741708333">
        <time>2022-06-28T09:58:20Z</time>
      </trkpt>
      <trkpt lat="41.014975000" lon="-5.741758333">
        <time>2022-06-28T09:58:21Z</time>
      </trkpt>
      <trkpt lat="41.015030000" lon="-5.741808333">
        <time>2022-06-28T09:58:22Z</time>
      </trkpt>
      <trkpt lat="41.015086667" lon="-5.741858333">
        <time>2022-06-28T09:58:23Z</time>
      </trkpt>
      <trkpt lat="41.015140000" lon="-5.741906667">
        <time>2022-06-28T09:58:24Z</time>
      </trkpt>
      <trkpt lat="41.015195000" lon="-5.741956667">
        <time>2022-06-28T09:58:25Z</time>
      </trkpt>
      <trkpt lat="41.015250000" lon="-5.742005000">
        <time>2022-06-28T09:58:26Z</time>
      </trkpt>
      <trkpt lat="41.015305000" lon="-5.742053333">
        <time>2022-06-28T09:58:27Z</time>
      </trkpt>
      <trkpt lat="41.015360000" lon="-5.742103333">
        <time>2022-06-28T09:58:28Z</time>
      </trkpt>
      <trkpt lat="41.015415000" lon="-5.742153333">
        <time>2022-06-28T09:58:29Z</time>
      </trkpt>
      <trkpt lat="41.015471667" lon="-5.742201667">
        <time>2022-06-28T09:58:30Z</time>
      </trkpt>
      <trkpt lat="41.015526667" lon="-5.742251667">
        <time>2022-06-28T09:58:31Z</time>
      </trkpt>
      <trkpt lat="41.015581667" lon="-5.742300000">
        <time>2022-06-28T09:58:32Z</time>
      </trkpt>
      <trkpt lat="41.015636667" lon="-5.742351667">
        <time>2022-06-28T09:58:33Z</time>
      </trkpt>
      <trkpt lat="41.015693333" lon="-5.742400000">
        <time>2022-06-28T09:58:34Z</time>
      </trkpt>
      <trkpt lat="41.015748333" lon="-5.742450000">
        <time>2022-06-28T09:58:35Z</time>
      </trkpt>
      <trkpt lat="41.015805000" lon="-5.742500000">
        <time>2022-06-28T09:58:36Z</time>
      </trkpt>
      <trkpt lat="41.015860000" lon="-5.742550000">
        <time>2022-06-28T09:58:37Z</time>
      </trkpt>
      <trkpt lat="41.015915000" lon="-5.742600000">
        <time>2022-06-28T09:58:38Z</time>
      </trkpt>
      <trkpt lat="41.015971667" lon="-5.742650000">
        <time>2022-06-28T09:58:39Z</time>
      </trkpt>
      <trkpt lat="41.016026667" lon="-5.742700000">
        <time>2022-06-28T09:58:40Z</time>
      </trkpt>
      <trkpt lat="41.016083333" lon="-5.742751667">
        <time>2022-06-28T09:58:41Z</time>
      </trkpt>
      <trkpt lat="41.016140000" lon="-5.742801667">
        <time>2022-06-28T09:58:42Z</time>
      </trkpt>
      <trkpt lat="41.016196667" lon="-5.742853333">
        <time>2022-06-28T09:58:43Z</time>
      </trkpt>
      <trkpt lat="41.016255000" lon="-5.742905000">
        <time>2022-06-28T09:58:44Z</time>
      </trkpt>
      <trkpt lat="41.016311667" lon="-5.742955000">
        <time>2022-06-28T09:58:45Z</time>
      </trkpt>
      <trkpt lat="41.016366667" lon="-5.743006667">
        <time>2022-06-28T09:58:46Z</time>
      </trkpt>
      <trkpt lat="41.016423333" lon="-5.743060000">
        <time>2022-06-28T09:58:47Z</time>
      </trkpt>
      <trkpt lat="41.016480000" lon="-5.743110000">
        <time>2022-06-28T09:58:48Z</time>
      </trkpt>
      <trkpt lat="41.016536667" lon="-5.743160000">
        <time>2022-06-28T09:58:49Z</time>
      </trkpt>
      <trkpt lat="41.016593333" lon="-5.743211667">
        <time>2022-06-28T09:58:50Z</time>
      </trkpt>
      <trkpt lat="41.016650000" lon="-5.743261667">
        <time>2022-06-28T09:58:51Z</time>
      </trkpt>
      <trkpt lat="41.016705000" lon="-5.743313333">
        <time>2022-06-28T09:58:52Z</time>
      </trkpt>
      <trkpt lat="41.016761667" lon="-5.743363333">
        <time>2022-06-28T09:58:53Z</time>
      </trkpt>
      <trkpt lat="41.016816667" lon="-5.743415000">
        <time>2022-06-28T09:58:54Z</time>
      </trkpt>
      <trkpt lat="41.016871667" lon="-5.743463333">
        <time>2022-06-28T09:58:55Z</time>
      </trkpt>
      <trkpt lat="41.016928333" lon="-5.743511667">
        <time>2022-06-28T09:58:56Z</time>
      </trkpt>
      <trkpt lat="41.016983333" lon="-5.743561667">
        <time>2022-06-28T09:58:57Z</time>
      </trkpt>
      <trkpt lat="41.017038333" lon="-5.743613333">
        <time>2022-06-28T09:58:58Z</time>
      </trkpt>
      <trkpt lat="41.017098333" lon="-5.743665000">
        <time>2022-06-28T09:58:59Z</time>
      </trkpt>
      <trkpt lat="41.017155000" lon="-5.743715000">
        <time>2022-06-28T09:59:00Z</time>
      </trkpt>
      <trkpt lat="41.017210000" lon="-5.743766667">
        <time>2022-06-28T09:59:01Z</time>
      </trkpt>
      <trkpt lat="41.017265000" lon="-5.743818333">
        <time>2022-06-28T09:59:02Z</time>
      </trkpt>
      <trkpt lat="41.017320000" lon="-5.743868333">
        <time>2022-06-28T09:59:03Z</time>
      </trkpt>
      <trkpt lat="41.017376667" lon="-5.743918333">
        <time>2022-06-28T09:59:04Z</time>
      </trkpt>
      <trkpt lat="41.017430000" lon="-5.743971667">
        <time>2022-06-28T09:59:05Z</time>
      </trkpt>
      <trkpt lat="41.017485000" lon="-5.744023333">
        <time>2022-06-28T09:59:06Z</time>
      </trkpt>
      <trkpt lat="41.017540000" lon="-5.744076667">
        <time>2022-06-28T09:59:07Z</time>
      </trkpt>
      <trkpt lat="41.017593333" lon="-5.744130000">
        <time>2022-06-28T09:59:08Z</time>
      </trkpt>
      <trkpt lat="41.017650000" lon="-5.744183333">
        <time>2022-06-28T09:59:09Z</time>
      </trkpt>
      <trkpt lat="41.017705000" lon="-5.744238333">
        <time>2022-06-28T09:59:10Z</time>
      </trkpt>
      <trkpt lat="41.017758333" lon="-5.744293333">
        <time>2022-06-28T09:59:11Z</time>
      </trkpt>
      <trkpt lat="41.017813333" lon="-5.744348333">
        <time>2022-06-28T09:59:12Z</time>
      </trkpt>
      <trkpt lat="41.017870000" lon="-5.744401667">
        <time>2022-06-28T09:59:13Z</time>
      </trkpt>
      <trkpt lat="41.017926667" lon="-5.744456667">
        <time>2022-06-28T09:59:14Z</time>
      </trkpt>
      <trkpt lat="41.017985000" lon="-5.744513333">
        <time>2022-06-28T09:59:15Z</time>
      </trkpt>
      <trkpt lat="41.018040000" lon="-5.744568333">
        <time>2022-06-28T09:59:16Z</time>
      </trkpt>
      <trkpt lat="41.018096667" lon="-5.744623333">
        <time>2022-06-28T09:59:17Z</time>
      </trkpt>
      <trkpt lat="41.018151667" lon="-5.744678333">
        <time>2022-06-28T09:59:18Z</time>
      </trkpt>
      <trkpt lat="41.018206667" lon="-5.744733333">
        <time>2022-06-28T09:59:19Z</time>
      </trkpt>
      <trkpt lat="41.018263333" lon="-5.744788333">
        <time>2022-06-28T09:59:20Z</time>
      </trkpt>
      <trkpt lat="41.018318333" lon="-5.744843333">
        <time>2022-06-28T09:59:21Z</time>
      </trkpt>
      <trkpt lat="41.018371667" lon="-5.744896667">
        <time>2022-06-28T09:59:22Z</time>
      </trkpt>
      <trkpt lat="41.018426667" lon="-5.744950000">
        <time>2022-06-28T09:59:23Z</time>
      </trkpt>
      <trkpt lat="41.018480000" lon="-5.745001667">
        <time>2022-06-28T09:59:24Z</time>
      </trkpt>
      <trkpt lat="41.018535000" lon="-5.745055000">
        <time>2022-06-28T09:59:25Z</time>
      </trkpt>
      <trkpt lat="41.018588333" lon="-5.745106667">
        <time>2022-06-28T09:59:26Z</time>
      </trkpt>
      <trkpt lat="41.018643333" lon="-5.745160000">
        <time>2022-06-28T09:59:27Z</time>
      </trkpt>
      <trkpt lat="41.018696667" lon="-5.745213333">
        <time>2022-06-28T09:59:28Z</time>
      </trkpt>
      <trkpt lat="41.018751667" lon="-5.745266667">
        <time>2022-06-28T09:59:29Z</time>
      </trkpt>
      <trkpt lat="41.018805000" lon="-5.745320000">
        <time>2022-06-28T09:59:30Z</time>
      </trkpt>
      <trkpt lat="41.018860000" lon="-5.745373333">
        <time>2022-06-28T09:59:31Z</time>
      </trkpt>
      <trkpt lat="41.018913333" lon="-5.745426667">
        <time>2022-06-28T09:59:32Z</time>
      </trkpt>
      <trkpt lat="41.018970000" lon="-5.745480000">
        <time>2022-06-28T09:59:33Z</time>
      </trkpt>
      <trkpt lat="41.019025000" lon="-5.745533333">
        <time>2022-06-28T09:59:34Z</time>
      </trkpt>
      <trkpt lat="41.019080000" lon="-5.745586667">
        <time>2022-06-28T09:59:35Z</time>
      </trkpt>
      <trkpt lat="41.019135000" lon="-5.745641667">
        <time>2022-06-28T09:59:36Z</time>
      </trkpt>
      <trkpt lat="41.019191667" lon="-5.745695000">
        <time>2022-06-28T09:59:37Z</time>
      </trkpt>
      <trkpt lat="41.019248333" lon="-5.745750000">
        <time>2022-06-28T09:59:38Z</time>
      </trkpt>
      <trkpt lat="41.019303333" lon="-5.745805000">
        <time>2022-06-28T09:59:39Z</time>
      </trkpt>
      <trkpt lat="41.019360000" lon="-5.745861667">
        <time>2022-06-28T09:59:40Z</time>
      </trkpt>
      <trkpt lat="41.019416667" lon="-5.745913333">
        <time>2022-06-28T09:59:41Z</time>
      </trkpt>
      <trkpt lat="41.019471667" lon="-5.745968333">
        <time>2022-06-28T09:59:42Z</time>
      </trkpt>
      <trkpt lat="41.019526667" lon="-5.746021667">
        <time>2022-06-28T09:59:43Z</time>
      </trkpt>
      <trkpt lat="41.019581667" lon="-5.746075000">
        <time>2022-06-28T09:59:44Z</time>
      </trkpt>
      <trkpt lat="41.019636667" lon="-5.746128333">
        <time>2022-06-28T09:59:45Z</time>
      </trkpt>
      <trkpt lat="41.019691667" lon="-5.746181667">
        <time>2022-06-28T09:59:46Z</time>
      </trkpt>
      <trkpt lat="41.019748333" lon="-5.746235000">
        <time>2022-06-28T09:59:47Z</time>
      </trkpt>
      <trkpt lat="41.019803333" lon="-5.746288333">
        <time>2022-06-28T09:59:48Z</time>
      </trkpt>
      <trkpt lat="41.019858333" lon="-5.746341667">
        <time>2022-06-28T09:59:49Z</time>
      </trkpt>
      <trkpt lat="41.019911667" lon="-5.746395000">
        <time>2022-06-28T09:59:50Z</time>
      </trkpt>
      <trkpt lat="41.019965000" lon="-5.746446667">
        <time>2022-06-28T09:59:51Z</time>
      </trkpt>
      <trkpt lat="41.020020000" lon="-5.746500000">
        <time>2022-06-28T09:59:52Z</time>
      </trkpt>
      <trkpt lat="41.020073333" lon="-5.746551667">
        <time>2022-06-28T09:59:53Z</time>
      </trkpt>
      <trkpt lat="41.020126667" lon="-5.746605000">
        <time>2022-06-28T09:59:54Z</time>
      </trkpt>
      <trkpt lat="41.020181667" lon="-5.746656667">
        <time>2022-06-28T09:59:55Z</time>
      </trkpt>
      <trkpt lat="41.020235000" lon="-5.746708333">
        <time>2022-06-28T09:59:56Z</time>
      </trkpt>
      <trkpt lat="41.020288333" lon="-5.746760000">
        <time>2022-06-28T09:59:57Z</time>
      </trkpt>
      <trkpt lat="41.020341667" lon="-5.746811667">
        <time>2022-06-28T09:59:58Z</time>
      </trkpt>
      <trkpt lat="41.020395000" lon="-5.746865000">
        <time>2022-06-28T09:59:59Z</time>
      </trkpt>
      <trkpt lat="41.020448333" lon="-5.746916667">
        <time>2022-06-28T10:00:00Z</time>
      </trkpt>
      <trkpt lat="41.020503333" lon="-5.746968333">
        <time>2022-06-28T10:00:01Z</time>
      </trkpt>
      <trkpt lat="41.020556667" lon="-5.747020000">
        <time>2022-06-28T10:00:02Z</time>
      </trkpt>
      <trkpt lat="41.020610000" lon="-5.747071667">
        <time>2022-06-28T10:00:03Z</time>
      </trkpt>
      <trkpt lat="41.020663333" lon="-5.747125000">
        <time>2022-06-28T10:00:04Z</time>
      </trkpt>
      <trkpt lat="41.020716667" lon="-5.747176667">
        <time>2022-06-28T10:00:05Z</time>
      </trkpt>
      <trkpt lat="41.020771667" lon="-5.747230000">
        <time>2022-06-28T10:00:06Z</time>
      </trkpt>
      <trkpt lat="41.020825000" lon="-5.747283333">
        <time>2022-06-28T10:00:07Z</time>
      </trkpt>
      <trkpt lat="41.020878333" lon="-5.747336667">
        <time>2022-06-28T10:00:08Z</time>
      </trkpt>
      <trkpt lat="41.020933333" lon="-5.747388333">
        <time>2022-06-28T10:00:09Z</time>
      </trkpt>
      <trkpt lat="41.020986667" lon="-5.747441667">
        <time>2022-06-28T10:00:10Z</time>
      </trkpt>
      <trkpt lat="41.021041667" lon="-5.747495000">
        <time>2022-06-28T10:00:11Z</time>
      </trkpt>
      <trkpt lat="41.021096667" lon="-5.747548333">
        <time>2022-06-28T10:00:12Z</time>
      </trkpt>
      <trkpt lat="41.021151667" lon="-5.747601667">
        <time>2022-06-28T10:00:13Z</time>
      </trkpt>
      <trkpt lat="41.021206667" lon="-5.747655000">
        <time>2022-06-28T10:00:14Z</time>
      </trkpt>
      <trkpt lat="41.021261667" lon="-5.747708333">
        <time>2022-06-28T10:00:15Z</time>
      </trkpt>
      <trkpt lat="41.021315000" lon="-5.747761667">
        <time>2022-06-28T10:00:16Z</time>
      </trkpt>
      <trkpt lat="41.021370000" lon="-5.747813333">
        <time>2022-06-28T10:00:17Z</time>
      </trkpt>
      <trkpt lat="41.021423333" lon="-5.747865000">
        <time>2022-06-28T10:00:18Z</time>
      </trkpt>
      <trkpt lat="41.021476667" lon="-5.747916667">
        <time>2022-06-28T10:00:19Z</time>
      </trkpt>
      <trkpt lat="41.021528333" lon="-5.747970000">
        <time>2022-06-28T10:00:20Z</time>
      </trkpt>
      <trkpt lat="41.021580000" lon="-5.748021667">
        <time>2022-06-28T10:00:21Z</time>
      </trkpt>
      <trkpt lat="41.021631667" lon="-5.748073333">
        <time>2022-06-28T10:00:22Z</time>
      </trkpt>
      <trkpt lat="41.021683333" lon="-5.748125000">
        <time>2022-06-28T10:00:23Z</time>
      </trkpt>
      <trkpt lat="41.021735000" lon="-5.748176667">
        <time>2022-06-28T10:00:24Z</time>
      </trkpt>
      <trkpt lat="41.021785000" lon="-5.748231667">
        <time>2022-06-28T10:00:25Z</time>
      </trkpt>
      <trkpt lat="41.021833333" lon="-5.748286667">
        <time>2022-06-28T10:00:26Z</time>
      </trkpt>
      <trkpt lat="41.021883333" lon="-5.748340000">
        <time>2022-06-28T10:00:27Z</time>
      </trkpt>
      <trkpt lat="41.021930000" lon="-5.748396667">
        <time>2022-06-28T10:00:28Z</time>
      </trkpt>
      <trkpt lat="41.021976667" lon="-5.748455000">
        <time>2022-06-28T10:00:29Z</time>
      </trkpt>
      <trkpt lat="41.022021667" lon="-5.748515000">
        <time>2022-06-28T10:00:30Z</time>
      </trkpt>
      <trkpt lat="41.022065000" lon="-5.748575000">
        <time>2022-06-28T10:00:31Z</time>
      </trkpt>
      <trkpt lat="41.022106667" lon="-5.748636667">
        <time>2022-06-28T10:00:32Z</time>
      </trkpt>
      <trkpt lat="41.022146667" lon="-5.748698333">
        <time>2022-06-28T10:00:33Z</time>
      </trkpt>
      <trkpt lat="41.022186667" lon="-5.748760000">
        <time>2022-06-28T10:00:34Z</time>
      </trkpt>
      <trkpt lat="41.022225000" lon="-5.748825000">
        <time>2022-06-28T10:00:35Z</time>
      </trkpt>
      <trkpt lat="41.022261667" lon="-5.748891667">
        <time>2022-06-28T10:00:36Z</time>
      </trkpt>
      <trkpt lat="41.022298333" lon="-5.748958333">
        <time>2022-06-28T10:00:37Z</time>
      </trkpt>
      <trkpt lat="41.022333333" lon="-5.749028333">
        <time>2022-06-28T10:00:38Z</time>
      </trkpt>
      <trkpt lat="41.022368333" lon="-5.749096667">
        <time>2022-06-28T10:00:39Z</time>
      </trkpt>
      <trkpt lat="41.022403333" lon="-5.749166667">
        <time>2022-06-28T10:00:40Z</time>
      </trkpt>
      <trkpt lat="41.022436667" lon="-5.749235000">
        <time>2022-06-28T10:00:41Z</time>
      </trkpt>
      <trkpt lat="41.022471667" lon="-5.749305000">
        <time>2022-06-28T10:00:42Z</time>
      </trkpt>
      <trkpt lat="41.022506667" lon="-5.749373333">
        <time>2022-06-28T10:00:43Z</time>
      </trkpt>
      <trkpt lat="41.022540000" lon="-5.749443333">
        <time>2022-06-28T10:00:44Z</time>
      </trkpt>
      <trkpt lat="41.022573333" lon="-5.749511667">
        <time>2022-06-28T10:00:45Z</time>
      </trkpt>
      <trkpt lat="41.022608333" lon="-5.749580000">
        <time>2022-06-28T10:00:46Z</time>
      </trkpt>
      <trkpt lat="41.022641667" lon="-5.749650000">
        <time>2022-06-28T10:00:47Z</time>
      </trkpt>
      <trkpt lat="41.022675000" lon="-5.749718333">
        <time>2022-06-28T10:00:48Z</time>
      </trkpt>
      <trkpt lat="41.022708333" lon="-5.749786667">
        <time>2022-06-28T10:00:49Z</time>
      </trkpt>
      <trkpt lat="41.022741667" lon="-5.749855000">
        <time>2022-06-28T10:00:50Z</time>
      </trkpt>
      <trkpt lat="41.022775000" lon="-5.749923333">
        <time>2022-06-28T10:00:51Z</time>
      </trkpt>
      <trkpt lat="41.022808333" lon="-5.749995000">
        <time>2022-06-28T10:00:52Z</time>
      </trkpt>
      <trkpt lat="41.022843333" lon="-5.750061667">
        <time>2022-06-28T10:00:53Z</time>
      </trkpt>
      <trkpt lat="41.022878333" lon="-5.750130000">
        <time>2022-06-28T10:00:54Z</time>
      </trkpt>
      <trkpt lat="41.022910000" lon="-5.750198333">
        <time>2022-06-28T10:00:55Z</time>
      </trkpt>
      <trkpt lat="41.022943333" lon="-5.750268333">
        <time>2022-06-28T10:00:56Z</time>
      </trkpt>
      <trkpt lat="41.022978333" lon="-5.750338333">
        <time>2022-06-28T10:00:57Z</time>
      </trkpt>
      <trkpt lat="41.023011667" lon="-5.750406667">
        <time>2022-06-28T10:00:58Z</time>
      </trkpt>
      <trkpt lat="41.023046667" lon="-5.750475000">
        <time>2022-06-28T10:00:59Z</time>
      </trkpt>
      <trkpt lat="41.023080000" lon="-5.750543333">
        <time>2022-06-28T10:01:00Z</time>
      </trkpt>
      <trkpt lat="41.023113333" lon="-5.750613333">
        <time>2022-06-28T10:01:01Z</time>
      </trkpt>
      <trkpt lat="41.023148333" lon="-5.750681667">
        <time>2022-06-28T10:01:02Z</time>
      </trkpt>
      <trkpt lat="41.023181667" lon="-5.750751667">
        <time>2022-06-28T10:01:03Z</time>
      </trkpt>
      <trkpt lat="41.023215000" lon="-5.750820000">
        <time>2022-06-28T10:01:04Z</time>
      </trkpt>
      <trkpt lat="41.023248333" lon="-5.750890000">
        <time>2022-06-28T10:01:05Z</time>
      </trkpt>
      <trkpt lat="41.023280000" lon="-5.750961667">
        <time>2022-06-28T10:01:06Z</time>
      </trkpt>
      <trkpt lat="41.023313333" lon="-5.751031667">
        <time>2022-06-28T10:01:07Z</time>
      </trkpt>
      <trkpt lat="41.023343333" lon="-5.751105000">
        <time>2022-06-28T10:01:08Z</time>
      </trkpt>
      <trkpt lat="41.023373333" lon="-5.751178333">
        <time>2022-06-28T10:01:09Z</time>
      </trkpt>
      <trkpt lat="41.023401667" lon="-5.751251667">
        <time>2022-06-28T10:01:10Z</time>
      </trkpt>
      <trkpt lat="41.023430000" lon="-5.751326667">
        <time>2022-06-28T10:01:11Z</time>
      </trkpt>
      <trkpt lat="41.023456667" lon="-5.751401667">
        <time>2022-06-28T10:01:12Z</time>
      </trkpt>
      <trkpt lat="41.023483333" lon="-5.751476667">
        <time>2022-06-28T10:01:13Z</time>
      </trkpt>
      <trkpt lat="41.023510000" lon="-5.751551667">
        <time>2022-06-28T10:01:14Z</time>
      </trkpt>
      <trkpt lat="41.023535000" lon="-5.751628333">
        <time>2022-06-28T10:01:15Z</time>
      </trkpt>
      <trkpt lat="41.023558333" lon="-5.751706667">
        <time>2022-06-28T10:01:16Z</time>
      </trkpt>
      <trkpt lat="41.023581667" lon="-5.751785000">
        <time>2022-06-28T10:01:17Z</time>
      </trkpt>
      <trkpt lat="41.023603333" lon="-5.751863333">
        <time>2022-06-28T10:01:18Z</time>
      </trkpt>
      <trkpt lat="41.023625000" lon="-5.751941667">
        <time>2022-06-28T10:01:19Z</time>
      </trkpt>
      <trkpt lat="41.023645000" lon="-5.752021667">
        <time>2022-06-28T10:01:20Z</time>
      </trkpt>
      <trkpt lat="41.023663333" lon="-5.752101667">
        <time>2022-06-28T10:01:21Z</time>
      </trkpt>
      <trkpt lat="41.023681667" lon="-5.752181667">
        <time>2022-06-28T10:01:22Z</time>
      </trkpt>
      <trkpt lat="41.023698333" lon="-5.752261667">
        <time>2022-06-28T10:01:23Z</time>
      </trkpt>
      <trkpt lat="41.023715000" lon="-5.752341667">
        <time>2022-06-28T10:01:24Z</time>
      </trkpt>
      <trkpt lat="41.023731667" lon="-5.752420000">
        <time>2022-06-28T10:01:25Z</time>
      </trkpt>
      <trkpt lat="41.023748333" lon="-5.752501667">
        <time>2022-06-28T10:01:26Z</time>
      </trkpt>
      <trkpt lat="41.023765000" lon="-5.752580000">
        <time>2022-06-28T10:01:27Z</time>
      </trkpt>
      <trkpt lat="41.023780000" lon="-5.752656667">
        <time>2022-06-28T10:01:28Z</time>
      </trkpt>
      <trkpt lat="41.023798333" lon="-5.752736667">
        <time>2022-06-28T10:01:29Z</time>
      </trkpt>
      <trkpt lat="41.023815000" lon="-5.752821667">
        <time>2022-06-28T10:01:30Z</time>
      </trkpt>
      <trkpt lat="41.023830000" lon="-5.752903333">
        <time>2022-06-28T10:01:31Z</time>
      </trkpt>
      <trkpt lat="41.023846667" lon="-5.752985000">
        <time>2022-06-28T10:01:32Z</time>
      </trkpt>
      <trkpt lat="41.023863333" lon="-5.753066667">
        <time>2022-06-28T10:01:33Z</time>
      </trkpt>
      <trkpt lat="41.023878333" lon="-5.753148333">
        <time>2022-06-28T10:01:34Z</time>
      </trkpt>
      <trkpt lat="41.023895000" lon="-5.753231667">
        <time>2022-06-28T10:01:35Z</time>
      </trkpt>
      <trkpt lat="41.023911667" lon="-5.753311667">
        <time>2022-06-28T10:01:36Z</time>
      </trkpt>
      <trkpt lat="41.023926667" lon="-5.753393333">
        <time>2022-06-28T10:01:37Z</time>
      </trkpt>
      <trkpt lat="41.023943333" lon="-5.753475000">
        <time>2022-06-28T10:01:38Z</time>
      </trkpt>
      <trkpt lat="41.023958333" lon="-5.753555000">
        <time>2022-06-28T10:01:39Z</time>
      </trkpt>
      <trkpt lat="41.023973333" lon="-5.753635000">
        <time>2022-06-28T10:01:40Z</time>
      </trkpt>
      <trkpt lat="41.023988333" lon="-5.753715000">
        <time>2022-06-28T10:01:41Z</time>
      </trkpt>
      <trkpt lat="41.024005000" lon="-5.753795000">
        <time>2022-06-28T10:01:42Z</time>
      </trkpt>
      <trkpt lat="41.024020000" lon="-5.753875000">
        <time>2022-06-28T10:01:43Z</time>
      </trkpt>
      <trkpt lat="41.024035000" lon="-5.753955000">
        <time>2022-06-28T10:01:44Z</time>
      </trkpt>
      <trkpt lat="41.024050000" lon="-5.754035000">
        <time>2022-06-28T10:01:45Z</time>
      </trkpt>
      <trkpt lat="41.024063333" lon="-5.754115000">
        <time>2022-06-28T10:01:46Z</time>
      </trkpt>
      <trkpt lat="41.024078333" lon="-5.754195000">
        <time>2022-06-28T10:01:47Z</time>
      </trkpt>
      <trkpt lat="41.024093333" lon="-5.754273333">
        <time>2022-06-28T10:01:48Z</time>
      </trkpt>
      <trkpt lat="41.024108333" lon="-5.754353333">
        <time>2022-06-28T10:01:49Z</time>
      </trkpt>
      <trkpt lat="41.024123333" lon="-5.754433333">
        <time>2022-06-28T10:01:50Z</time>
      </trkpt>
      <trkpt lat="41.024138333" lon="-5.754513333">
        <time>2022-06-28T10:01:51Z</time>
      </trkpt>
      <trkpt lat="41.024153333" lon="-5.754593333">
        <time>2022-06-28T10:01:52Z</time>
      </trkpt>
      <trkpt lat="41.024168333" lon="-5.754673333">
        <time>2022-06-28T10:01:53Z</time>
      </trkpt>
      <trkpt lat="41.024183333" lon="-5.754755000">
        <time>2022-06-28T10:01:54Z</time>
      </trkpt>
      <trkpt lat="41.024200000" lon="-5.754836667">
        <time>2022-06-28T10:01:55Z</time>
      </trkpt>
      <trkpt lat="41.024215000" lon="-5.754918333">
        <time>2022-06-28T10:01:56Z</time>
      </trkpt>
      <trkpt lat="41.024230000" lon="-5.755001667">
        <time>2022-06-28T10:01:57Z</time>
      </trkpt>
      <trkpt lat="41.024246667" lon="-5.755083333">
        <time>2022-06-28T10:01:58Z</time>
      </trkpt>
      <trkpt lat="41.024261667" lon="-5.755166667">
        <time>2022-06-28T10:01:59Z</time>
      </trkpt>
      <trkpt lat="41.024278333" lon="-5.755251667">
        <time>2022-06-28T10:02:00Z</time>
      </trkpt>
      <trkpt lat="41.024295000" lon="-5.755338333">
        <time>2022-06-28T10:02:01Z</time>
      </trkpt>
      <trkpt lat="41.024311667" lon="-5.755425000">
        <time>2022-06-28T10:02:02Z</time>
      </trkpt>
      <trkpt lat="41.024328333" lon="-5.755515000">
        <time>2022-06-28T10:02:03Z</time>
      </trkpt>
      <trkpt lat="41.024345000" lon="-5.755605000">
        <time>2022-06-28T10:02:04Z</time>
      </trkpt>
      <trkpt lat="41.024363333" lon="-5.755696667">
        <time>2022-06-28T10:02:05Z</time>
      </trkpt>
      <trkpt lat="41.024383333" lon="-5.755786667">
        <time>2022-06-28T10:02:06Z</time>
      </trkpt>
      <trkpt lat="41.024405000" lon="-5.755876667">
        <time>2022-06-28T10:02:07Z</time>
      </trkpt>
      <trkpt lat="41.024426667" lon="-5.755965000">
        <time>2022-06-28T10:02:08Z</time>
      </trkpt>
      <trkpt lat="41.024450000" lon="-5.756051667">
        <time>2022-06-28T10:02:09Z</time>
      </trkpt>
      <trkpt lat="41.024476667" lon="-5.756136667">
        <time>2022-06-28T10:02:10Z</time>
      </trkpt>
      <trkpt lat="41.024505000" lon="-5.756220000">
        <time>2022-06-28T10:02:11Z</time>
      </trkpt>
      <trkpt lat="41.024533333" lon="-5.756301667">
        <time>2022-06-28T10:02:12Z</time>
      </trkpt>
      <trkpt lat="41.024563333" lon="-5.756383333">
        <time>2022-06-28T10:02:13Z</time>
      </trkpt>
      <trkpt lat="41.024593333" lon="-5.756463333">
        <time>2022-06-28T10:02:14Z</time>
      </trkpt>
      <trkpt lat="41.024623333" lon="-5.756545000">
        <time>2022-06-28T10:02:15Z</time>
      </trkpt>
      <trkpt lat="41.024653333" lon="-5.756625000">
        <time>2022-06-28T10:02:16Z</time>
      </trkpt>
      <trkpt lat="41.024683333" lon="-5.756706667">
        <time>2022-06-28T10:02:17Z</time>
      </trkpt>
      <trkpt lat="41.024715000" lon="-5.756788333">
        <time>2022-06-28T10:02:18Z</time>
      </trkpt>
      <trkpt lat="41.024745000" lon="-5.756870000">
        <time>2022-06-28T10:02:19Z</time>
      </trkpt>
      <trkpt lat="41.024776667" lon="-5.756950000">
        <time>2022-06-28T10:02:20Z</time>
      </trkpt>
      <trkpt lat="41.024808333" lon="-5.757031667">
        <time>2022-06-28T10:02:21Z</time>
      </trkpt>
      <trkpt lat="41.024838333" lon="-5.757111667">
        <time>2022-06-28T10:02:22Z</time>
      </trkpt>
      <trkpt lat="41.024871667" lon="-5.757193333">
        <time>2022-06-28T10:02:23Z</time>
      </trkpt>
      <trkpt lat="41.024903333" lon="-5.757275000">
        <time>2022-06-28T10:02:24Z</time>
      </trkpt>
      <trkpt lat="41.024935000" lon="-5.757356667">
        <time>2022-06-28T10:02:25Z</time>
      </trkpt>
      <trkpt lat="41.024966667" lon="-5.757438333">
        <time>2022-06-28T10:02:26Z</time>
      </trkpt>
      <trkpt lat="41.024998333" lon="-5.757520000">
        <time>2022-06-28T10:02:27Z</time>
      </trkpt>
      <trkpt lat="41.025030000" lon="-5.757601667">
        <time>2022-06-28T10:02:28Z</time>
      </trkpt>
      <trkpt lat="41.025061667" lon="-5.757681667">
        <time>2022-06-28T10:02:29Z</time>
      </trkpt>
      <trkpt lat="41.025093333" lon="-5.757763333">
        <time>2022-06-28T10:02:30Z</time>
      </trkpt>
      <trkpt lat="41.025123333" lon="-5.757845000">
        <time>2022-06-28T10:02:31Z</time>
      </trkpt>
      <trkpt lat="41.025153333" lon="-5.757925000">
        <time>2022-06-28T10:02:32Z</time>
      </trkpt>
      <trkpt lat="41.025185000" lon="-5.758005000">
        <time>2022-06-28T10:02:33Z</time>
      </trkpt>
      <trkpt lat="41.025216667" lon="-5.758085000">
        <time>2022-06-28T10:02:34Z</time>
      </trkpt>
      <trkpt lat="41.025246667" lon="-5.758165000">
        <time>2022-06-28T10:02:35Z</time>
      </trkpt>
      <trkpt lat="41.025278333" lon="-5.758245000">
        <time>2022-06-28T10:02:36Z</time>
      </trkpt>
      <trkpt lat="41.025310000" lon="-5.758323333">
        <time>2022-06-28T10:02:37Z</time>
      </trkpt>
      <trkpt lat="41.025340000" lon="-5.758401667">
        <time>2022-06-28T10:02:38Z</time>
      </trkpt>
      <trkpt lat="41.025370000" lon="-5.758481667">
        <time>2022-06-28T10:02:39Z</time>
      </trkpt>
      <trkpt lat="41.025398333" lon="-5.758556667">
        <time>2022-06-28T10:02:40Z</time>
      </trkpt>
      <trkpt lat="41.025428333" lon="-5.758628333">
        <time>2022-06-28T10:02:41Z</time>
      </trkpt>
      <trkpt lat="41.025458333" lon="-5.758705000">
        <time>2022-06-28T10:02:42Z</time>
      </trkpt>
      <trkpt lat="41.025488333" lon="-5.758783333">
        <time>2022-06-28T10:02:43Z</time>
      </trkpt>
      <trkpt lat="41.025520000" lon="-5.758865000">
        <time>2022-06-28T10:02:44Z</time>
      </trkpt>
      <trkpt lat="41.025551667" lon="-5.758945000">
        <time>2022-06-28T10:02:45Z</time>
      </trkpt>
      <trkpt lat="41.025585000" lon="-5.759025000">
        <time>2022-06-28T10:02:46Z</time>
      </trkpt>
      <trkpt lat="41.025616667" lon="-5.759105000">
        <time>2022-06-28T10:02:47Z</time>
      </trkpt>
      <trkpt lat="41.025646667" lon="-5.759186667">
        <time>2022-06-28T10:02:48Z</time>
      </trkpt>
      <trkpt lat="41.025676667" lon="-5.759268333">
        <time>2022-06-28T10:02:49Z</time>
      </trkpt>
      <trkpt lat="41.025708333" lon="-5.759346667">
        <time>2022-06-28T10:02:50Z</time>
      </trkpt>
      <trkpt lat="41.025740000" lon="-5.759425000">
        <time>2022-06-28T10:02:51Z</time>
      </trkpt>
      <trkpt lat="41.025770000" lon="-5.759503333">
        <time>2022-06-28T10:02:52Z</time>
      </trkpt>
      <trkpt lat="41.025798333" lon="-5.759581667">
        <time>2022-06-28T10:02:53Z</time>
      </trkpt>
      <trkpt lat="41.025825000" lon="-5.759658333">
        <time>2022-06-28T10:02:54Z</time>
      </trkpt>
      <trkpt lat="41.025853333" lon="-5.759735000">
        <time>2022-06-28T10:02:55Z</time>
      </trkpt>
      <trkpt lat="41.025880000" lon="-5.759813333">
        <time>2022-06-28T10:02:56Z</time>
      </trkpt>
      <trkpt lat="41.025906667" lon="-5.759888333">
        <time>2022-06-28T10:02:57Z</time>
      </trkpt>
      <trkpt lat="41.025935000" lon="-5.759963333">
        <time>2022-06-28T10:02:58Z</time>
      </trkpt>
      <trkpt lat="41.025965000" lon="-5.760038333">
        <time>2022-06-28T10:02:59Z</time>
      </trkpt>
      <trkpt lat="41.026000000" lon="-5.760111667">
        <time>2022-06-28T10:03:00Z</time>
      </trkpt>
      <trkpt lat="41.026043333" lon="-5.760180000">
        <time>2022-06-28T10:03:01Z</time>
      </trkpt>
      <trkpt lat="41.026091667" lon="-5.760245000">
        <time>2022-06-28T10:03:02Z</time>
      </trkpt>
      <trkpt lat="41.026148333" lon="-5.760303333">
        <time>2022-06-28T10:03:03Z</time>
      </trkpt>
      <trkpt lat="41.026208333" lon="-5.760360000">
        <time>2022-06-28T10:03:04Z</time>
      </trkpt>
      <trkpt lat="41.026275000" lon="-5.760410000">
        <time>2022-06-28T10:03:05Z</time>
      </trkpt>
      <trkpt lat="41.026346667" lon="-5.760456667">
        <time>2022-06-28T10:03:06Z</time>
      </trkpt>
      <trkpt lat="41.026421667" lon="-5.760498333">
        <time>2022-06-28T10:03:07Z</time>
      </trkpt>
      <trkpt lat="41.026496667" lon="-5.760540000">
        <time>2022-06-28T10:03:08Z</time>
      </trkpt>
      <trkpt lat="41.026571667" lon="-5.760581667">
        <time>2022-06-28T10:03:09Z</time>
      </trkpt>
      <trkpt lat="41.026643333" lon="-5.760628333">
        <time>2022-06-28T10:03:10Z</time>
      </trkpt>
      <trkpt lat="41.026708333" lon="-5.760681667">
        <time>2022-06-28T10:03:11Z</time>
      </trkpt>
      <trkpt lat="41.026765000" lon="-5.760740000">
        <time>2022-06-28T10:03:12Z</time>
      </trkpt>
      <trkpt lat="41.026818333" lon="-5.760805000">
        <time>2022-06-28T10:03:13Z</time>
      </trkpt>
      <trkpt lat="41.026870000" lon="-5.760865000">
        <time>2022-06-28T10:03:14Z</time>
      </trkpt>
      <trkpt lat="41.026920000" lon="-5.760923333">
        <time>2022-06-28T10:03:15Z</time>
      </trkpt>
      <trkpt lat="41.026968333" lon="-5.760981667">
        <time>2022-06-28T10:03:16Z</time>
      </trkpt>
      <trkpt lat="41.027013333" lon="-5.761038333">
        <time>2022-06-28T10:03:17Z</time>
      </trkpt>
      <trkpt lat="41.027058333" lon="-5.761095000">
        <time>2022-06-28T10:03:18Z</time>
      </trkpt>
      <trkpt lat="41.027100000" lon="-5.761155000">
        <time>2022-06-28T10:03:19Z</time>
      </trkpt>
      <trkpt lat="41.027141667" lon="-5.761218333">
        <time>2022-06-28T10:03:20Z</time>
      </trkpt>
      <trkpt lat="41.027181667" lon="-5.761283333">
        <time>2022-06-28T10:03:21Z</time>
      </trkpt>
      <trkpt lat="41.027218333" lon="-5.761346667">
        <time>2022-06-28T10:03:22Z</time>
      </trkpt>
      <trkpt lat="41.027258333" lon="-5.761418333">
        <time>2022-06-28T10:03:23Z</time>
      </trkpt>
      <trkpt lat="41.027296667" lon="-5.761485000">
        <time>2022-06-28T10:03:24Z</time>
      </trkpt>
      <trkpt lat="41.027333333" lon="-5.761548333">
        <time>2022-06-28T10:03:25Z</time>
      </trkpt>
      <trkpt lat="41.027370000" lon="-5.761608333">
        <time>2022-06-28T10:03:26Z</time>
      </trkpt>
      <trkpt lat="41.027408333" lon="-5.761668333">
        <time>2022-06-28T10:03:27Z</time>
      </trkpt>
      <trkpt lat="41.027445000" lon="-5.761731667">
        <time>2022-06-28T10:03:28Z</time>
      </trkpt>
      <trkpt lat="41.027480000" lon="-5.761795000">
        <time>2022-06-28T10:03:29Z</time>
      </trkpt>
      <trkpt lat="41.027516667" lon="-5.761855000">
        <time>2022-06-28T10:03:30Z</time>
      </trkpt>
      <trkpt lat="41.027555000" lon="-5.761916667">
        <time>2022-06-28T10:03:31Z</time>
      </trkpt>
      <trkpt lat="41.027593333" lon="-5.761985000">
        <time>2022-06-28T10:03:32Z</time>
      </trkpt>
      <trkpt lat="41.027630000" lon="-5.762050000">
        <time>2022-06-28T10:03:33Z</time>
      </trkpt>
      <trkpt lat="41.027666667" lon="-5.762115000">
        <time>2022-06-28T10:03:34Z</time>
      </trkpt>
      <trkpt lat="41.027705000" lon="-5.762180000">
        <time>2022-06-28T10:03:35Z</time>
      </trkpt>
      <trkpt lat="41.027745000" lon="-5.762243333">
        <time>2022-06-28T10:03:36Z</time>
      </trkpt>
      <trkpt lat="41.027783333" lon="-5.762305000">
        <time>2022-06-28T10:03:37Z</time>
      </trkpt>
      <trkpt lat="41.027821667" lon="-5.762368333">
        <time>2022-06-28T10:03:38Z</time>
      </trkpt>
      <trkpt lat="41.027861667" lon="-5.762430000">
        <time>2022-06-28T10:03:39Z</time>
      </trkpt>
      <trkpt lat="41.027900000" lon="-5.762491667">
        <time>2022-06-28T10:03:40Z</time>
      </trkpt>
      <trkpt lat="41.027938333" lon="-5.762551667">
        <time>2022-06-28T10:03:41Z</time>
      </trkpt>
      <trkpt lat="41.027978333" lon="-5.762611667">
        <time>2022-06-28T10:03:42Z</time>
      </trkpt>
      <trkpt lat="41.028016667" lon="-5.762671667">
        <time>2022-06-28T10:03:43Z</time>
      </trkpt>
      <trkpt lat="41.028056667" lon="-5.762728333">
        <time>2022-06-28T10:03:44Z</time>
      </trkpt>
      <trkpt lat="41.028096667" lon="-5.762785000">
        <time>2022-06-28T10:03:45Z</time>
      </trkpt>
      <trkpt lat="41.028138333" lon="-5.762841667">
        <time>2022-06-28T10:03:46Z</time>
      </trkpt>
      <trkpt lat="41.028180000" lon="-5.762896667">
        <time>2022-06-28T10:03:47Z</time>
      </trkpt>
      <trkpt lat="41.028225000" lon="-5.762951667">
        <time>2022-06-28T10:03:48Z</time>
      </trkpt>
      <trkpt lat="41.028270000" lon="-5.763003333">
        <time>2022-06-28T10:03:49Z</time>
      </trkpt>
      <trkpt lat="41.028316667" lon="-5.763055000">
        <time>2022-06-28T10:03:50Z</time>
      </trkpt>
      <trkpt lat="41.028363333" lon="-5.763105000">
        <time>2022-06-28T10:03:51Z</time>
      </trkpt>
      <trkpt lat="41.028411667" lon="-5.763151667">
        <time>2022-06-28T10:03:52Z</time>
      </trkpt>
      <trkpt lat="41.028461667" lon="-5.763198333">
        <time>2022-06-28T10:03:53Z</time>
      </trkpt>
      <trkpt lat="41.028511667" lon="-5.763245000">
        <time>2022-06-28T10:03:54Z</time>
      </trkpt>
      <trkpt lat="41.028563333" lon="-5.763290000">
        <time>2022-06-28T10:03:55Z</time>
      </trkpt>
      <trkpt lat="41.028615000" lon="-5.763335000">
        <time>2022-06-28T10:03:56Z</time>
      </trkpt>
      <trkpt lat="41.028666667" lon="-5.763378333">
        <time>2022-06-28T10:03:57Z</time>
      </trkpt>
      <trkpt lat="41.028718333" lon="-5.763421667">
        <time>2022-06-28T10:03:58Z</time>
      </trkpt>
      <trkpt lat="41.028771667" lon="-5.763463333">
        <time>2022-06-28T10:03:59Z</time>
      </trkpt>
      <trkpt lat="41.028825000" lon="-5.763503333">
        <time>2022-06-28T10:04:00Z</time>
      </trkpt>
      <trkpt lat="41.028878333" lon="-5.763541667">
        <time>2022-06-28T10:04:01Z</time>
      </trkpt>
      <trkpt lat="41.028931667" lon="-5.763581667">
        <time>2022-06-28T10:04:02Z</time>
      </trkpt>
      <trkpt lat="41.028985000" lon="-5.763620000">
        <time>2022-06-28T10:04:03Z</time>
      </trkpt>
      <trkpt lat="41.029036667" lon="-5.763658333">
        <time>2022-06-28T10:04:04Z</time>
      </trkpt>
      <trkpt lat="41.029090000" lon="-5.763698333">
        <time>2022-06-28T10:04:05Z</time>
      </trkpt>
      <trkpt lat="41.029143333" lon="-5.763736667">
        <time>2022-06-28T10:04:06Z</time>
      </trkpt>
      <trkpt lat="41.029198333" lon="-5.763773333">
        <time>2022-06-28T10:04:07Z</time>
      </trkpt>
      <trkpt lat="41.029255000" lon="-5.763810000">
        <time>2022-06-28T10:04:08Z</time>
      </trkpt>
      <trkpt lat="41.029310000" lon="-5.763846667">
        <time>2022-06-28T10:04:09Z</time>
      </trkpt>
      <trkpt lat="41.029366667" lon="-5.763885000">
        <time>2022-06-28T10:04:10Z</time>
      </trkpt>
      <trkpt lat="41.029421667" lon="-5.763921667">
        <time>2022-06-28T10:04:11Z</time>
      </trkpt>
      <trkpt lat="41.029478333" lon="-5.763956667">
        <time>2022-06-28T10:04:12Z</time>
      </trkpt>
      <trkpt lat="41.029538333" lon="-5.763996667">
        <time>2022-06-28T10:04:13Z</time>
      </trkpt>
      <trkpt lat="41.029598333" lon="-5.764035000">
        <time>2022-06-28T10:04:14Z</time>
      </trkpt>
      <trkpt lat="41.029658333" lon="-5.764075000">
        <time>2022-06-28T10:04:15Z</time>
      </trkpt>
      <trkpt lat="41.029720000" lon="-5.764116667">
        <time>2022-06-28T10:04:16Z</time>
      </trkpt>
      <trkpt lat="41.029780000" lon="-5.764158333">
        <time>2022-06-28T10:04:17Z</time>
      </trkpt>
      <trkpt lat="41.029841667" lon="-5.764200000">
        <time>2022-06-28T10:04:18Z</time>
      </trkpt>
      <trkpt lat="41.029901667" lon="-5.764241667">
        <time>2022-06-28T10:04:19Z</time>
      </trkpt>
      <trkpt lat="41.029963333" lon="-5.764283333">
        <time>2022-06-28T10:04:20Z</time>
      </trkpt>
      <trkpt lat="41.030026667" lon="-5.764325000">
        <time>2022-06-28T10:04:21Z</time>
      </trkpt>
      <trkpt lat="41.030088333" lon="-5.764368333">
        <time>2022-06-28T10:04:22Z</time>
      </trkpt>
      <trkpt lat="41.030153333" lon="-5.764411667">
        <time>2022-06-28T10:04:23Z</time>
      </trkpt>
      <trkpt lat="41.030216667" lon="-5.764453333">
        <time>2022-06-28T10:04:24Z</time>
      </trkpt>
      <trkpt lat="41.030281667" lon="-5.764496667">
        <time>2022-06-28T10:04:25Z</time>
      </trkpt>
      <trkpt lat="41.030346667" lon="-5.764540000">
        <time>2022-06-28T10:04:26Z</time>
      </trkpt>
      <trkpt lat="41.030410000" lon="-5.764583333">
        <time>2022-06-28T10:04:27Z</time>
      </trkpt>
      <trkpt lat="41.030475000" lon="-5.764628333">
        <time>2022-06-28T10:04:28Z</time>
      </trkpt>
      <trkpt lat="41.030540000" lon="-5.764673333">
        <time>2022-06-28T10:04:29Z</time>
      </trkpt>
      <trkpt lat="41.030606667" lon="-5.764715000">
        <time>2022-06-28T10:04:30Z</time>
      </trkpt>
      <trkpt lat="41.030671667" lon="-5.764758333">
        <time>2022-06-28T10:04:31Z</time>
      </trkpt>
      <trkpt lat="41.030736667" lon="-5.764803333">
        <time>2022-06-28T10:04:32Z</time>
      </trkpt>
      <trkpt lat="41.030798333" lon="-5.764850000">
        <time>2022-06-28T10:04:33Z</time>
      </trkpt>
      <trkpt lat="41.030858333" lon="-5.764896667">
        <time>2022-06-28T10:04:34Z</time>
      </trkpt>
      <trkpt lat="41.030916667" lon="-5.764945000">
        <time>2022-06-28T10:04:35Z</time>
      </trkpt>
      <trkpt lat="41.030976667" lon="-5.764996667">
        <time>2022-06-28T10:04:36Z</time>
      </trkpt>
      <trkpt lat="41.031036667" lon="-5.765050000">
        <time>2022-06-28T10:04:37Z</time>
      </trkpt>
      <trkpt lat="41.031095000" lon="-5.765103333">
        <time>2022-06-28T10:04:38Z</time>
      </trkpt>
      <trkpt lat="41.031153333" lon="-5.765158333">
        <time>2022-06-28T10:04:39Z</time>
      </trkpt>
      <trkpt lat="41.031210000" lon="-5.765213333">
        <time>2022-06-28T10:04:40Z</time>
      </trkpt>
      <trkpt lat="41.031266667" lon="-5.765268333">
        <time>2022-06-28T10:04:41Z</time>
      </trkpt>
      <trkpt lat="41.031323333" lon="-5.765323333">
        <time>2022-06-28T10:04:42Z</time>
      </trkpt>
      <trkpt lat="41.031381667" lon="-5.765378333">
        <time>2022-06-28T10:04:43Z</time>
      </trkpt>
      <trkpt lat="41.031438333" lon="-5.765435000">
        <time>2022-06-28T10:04:44Z</time>
      </trkpt>
      <trkpt lat="41.031498333" lon="-5.765490000">
        <time>2022-06-28T10:04:45Z</time>
      </trkpt>
      <trkpt lat="41.031555000" lon="-5.765543333">
        <time>2022-06-28T10:04:46Z</time>
      </trkpt>
      <trkpt lat="41.031610000" lon="-5.765598333">
        <time>2022-06-28T10:04:47Z</time>
      </trkpt>
      <trkpt lat="41.031663333" lon="-5.765653333">
        <time>2022-06-28T10:04:48Z</time>
      </trkpt>
      <trkpt lat="41.031718333" lon="-5.765705000">
        <time>2022-06-28T10:04:49Z</time>
      </trkpt>
      <trkpt lat="41.031771667" lon="-5.765756667">
        <time>2022-06-28T10:04:50Z</time>
      </trkpt>
      <trkpt lat="41.031823333" lon="-5.765811667">
        <time>2022-06-28T10:04:51Z</time>
      </trkpt>
      <trkpt lat="41.031875000" lon="-5.765865000">
        <time>2022-06-28T10:04:52Z</time>
      </trkpt>
      <trkpt lat="41.031926667" lon="-5.765921667">
        <time>2022-06-28T10:04:53Z</time>
      </trkpt>
      <trkpt lat="41.031978333" lon="-5.765978333">
        <time>2022-06-28T10:04:54Z</time>
      </trkpt>
      <trkpt lat="41.032030000" lon="-5.766035000">
        <time>2022-06-28T10:04:55Z</time>
      </trkpt>
      <trkpt lat="41.032083333" lon="-5.766091667">
        <time>2022-06-28T10:04:56Z</time>
      </trkpt>
      <trkpt lat="41.032138333" lon="-5.766148333">
        <time>2022-06-28T10:04:57Z</time>
      </trkpt>
      <trkpt lat="41.032191667" lon="-5.766208333">
        <time>2022-06-28T10:04:58Z</time>
      </trkpt>
      <trkpt lat="41.032248333" lon="-5.766265000">
        <time>2022-06-28T10:04:59Z</time>
      </trkpt>
      <trkpt lat="41.032301667" lon="-5.766315000">
        <time>2022-06-28T10:05:00Z</time>
      </trkpt>
      <trkpt lat="41.032356667" lon="-5.766371667">
        <time>2022-06-28T10:05:01Z</time>
      </trkpt>
      <trkpt lat="41.032413333" lon="-5.766430000">
        <time>2022-06-28T10:05:02Z</time>
      </trkpt>
      <trkpt lat="41.032470000" lon="-5.766485000">
        <time>2022-06-28T10:05:03Z</time>
      </trkpt>
      <trkpt lat="41.032526667" lon="-5.766540000">
        <time>2022-06-28T10:05:04Z</time>
      </trkpt>
      <trkpt lat="41.032583333" lon="-5.766595000">
        <time>2022-06-28T10:05:05Z</time>
      </trkpt>
      <trkpt lat="41.032638333" lon="-5.766650000">
        <time>2022-06-28T10:05:06Z</time>
      </trkpt>
      <trkpt lat="41.032695000" lon="-5.766705000">
        <time>2022-06-28T10:05:07Z</time>
      </trkpt>
      <trkpt lat="41.032751667" lon="-5.766758333">
        <time>2022-06-28T10:05:08Z</time>
      </trkpt>
      <trkpt lat="41.032808333" lon="-5.766813333">
        <time>2022-06-28T10:05:09Z</time>
      </trkpt>
      <trkpt lat="41.032865000" lon="-5.766866667">
        <time>2022-06-28T10:05:10Z</time>
      </trkpt>
      <trkpt lat="41.032918333" lon="-5.766920000">
        <time>2022-06-28T10:05:11Z</time>
      </trkpt>
      <trkpt lat="41.032976667" lon="-5.766980000">
        <time>2022-06-28T10:05:12Z</time>
      </trkpt>
      <trkpt lat="41.033031667" lon="-5.767031667">
        <time>2022-06-28T10:05:13Z</time>
      </trkpt>
      <trkpt lat="41.033090000" lon="-5.767083333">
        <time>2022-06-28T10:05:14Z</time>
      </trkpt>
      <trkpt lat="41.033148333" lon="-5.767133333">
        <time>2022-06-28T10:05:15Z</time>
      </trkpt>
      <trkpt lat="41.033205000" lon="-5.767185000">
        <time>2022-06-28T10:05:16Z</time>
      </trkpt>
      <trkpt lat="41.033260000" lon="-5.767236667">
        <time>2022-06-28T10:05:17Z</time>
      </trkpt>
      <trkpt lat="41.033315000" lon="-5.767290000">
        <time>2022-06-28T10:05:18Z</time>
      </trkpt>
      <trkpt lat="41.033368333" lon="-5.767340000">
        <time>2022-06-28T10:05:19Z</time>
      </trkpt>
      <trkpt lat="41.033423333" lon="-5.767388333">
        <time>2022-06-28T10:05:20Z</time>
      </trkpt>
      <trkpt lat="41.033476667" lon="-5.767440000">
        <time>2022-06-28T10:05:21Z</time>
      </trkpt>
      <trkpt lat="41.033528333" lon="-5.767493333">
        <time>2022-06-28T10:05:22Z</time>
      </trkpt>
      <trkpt lat="41.033583333" lon="-5.767545000">
        <time>2022-06-28T10:05:23Z</time>
      </trkpt>
      <trkpt lat="41.033635000" lon="-5.767593333">
        <time>2022-06-28T10:05:24Z</time>
      </trkpt>
      <trkpt lat="41.033690000" lon="-5.767648333">
        <time>2022-06-28T10:05:25Z</time>
      </trkpt>
      <trkpt lat="41.033743333" lon="-5.767703333">
        <time>2022-06-28T10:05:26Z</time>
      </trkpt>
      <trkpt lat="41.033796667" lon="-5.767755000">
        <time>2022-06-28T10:05:27Z</time>
      </trkpt>
      <trkpt lat="41.033850000" lon="-5.767810000">
        <time>2022-06-28T10:05:28Z</time>
      </trkpt>
      <trkpt lat="41.033905000" lon="-5.767863333">
        <time>2022-06-28T10:05:29Z</time>
      </trkpt>
      <trkpt lat="41.033958333" lon="-5.767918333">
        <time>2022-06-28T10:05:30Z</time>
      </trkpt>
      <trkpt lat="41.034011667" lon="-5.767971667">
        <time>2022-06-28T10:05:31Z</time>
      </trkpt>
      <trkpt lat="41.034065000" lon="-5.768026667">
        <time>2022-06-28T10:05:32Z</time>
      </trkpt>
      <trkpt lat="41.034116667" lon="-5.768081667">
        <time>2022-06-28T10:05:33Z</time>
      </trkpt>
      <trkpt lat="41.034168333" lon="-5.768141667">
        <time>2022-06-28T10:05:34Z</time>
      </trkpt>
      <trkpt lat="41.034220000" lon="-5.768200000">
        <time>2022-06-28T10:05:35Z</time>
      </trkpt>
      <trkpt lat="41.034270000" lon="-5.768256667">
        <time>2022-06-28T10:05:36Z</time>
      </trkpt>
      <trkpt lat="41.034320000" lon="-5.768318333">
        <time>2022-06-28T10:05:37Z</time>
      </trkpt>
      <trkpt lat="41.034368333" lon="-5.768380000">
        <time>2022-06-28T10:05:38Z</time>
      </trkpt>
      <trkpt lat="41.034416667" lon="-5.768441667">
        <time>2022-06-28T10:05:39Z</time>
      </trkpt>
      <trkpt lat="41.034461667" lon="-5.768506667">
        <time>2022-06-28T10:05:40Z</time>
      </trkpt>
      <trkpt lat="41.034506667" lon="-5.768571667">
        <time>2022-06-28T10:05:41Z</time>
      </trkpt>
      <trkpt lat="41.034548333" lon="-5.768635000">
        <time>2022-06-28T10:05:42Z</time>
      </trkpt>
      <trkpt lat="41.034590000" lon="-5.768698333">
        <time>2022-06-28T10:05:43Z</time>
      </trkpt>
      <trkpt lat="41.034630000" lon="-5.768761667">
        <time>2022-06-28T10:05:44Z</time>
      </trkpt>
      <trkpt lat="41.034668333" lon="-5.768823333">
        <time>2022-06-28T10:05:45Z</time>
      </trkpt>
      <trkpt lat="41.034706667" lon="-5.768883333">
        <time>2022-06-28T10:05:46Z</time>
      </trkpt>
      <trkpt lat="41.034741667" lon="-5.768945000">
        <time>2022-06-28T10:05:47Z</time>
      </trkpt>
      <trkpt lat="41.034775000" lon="-5.769005000">
        <time>2022-06-28T10:05:48Z</time>
      </trkpt>
      <trkpt lat="41.034808333" lon="-5.769063333">
        <time>2022-06-28T10:05:49Z</time>
      </trkpt>
      <trkpt lat="41.034841667" lon="-5.769120000">
        <time>2022-06-28T10:05:50Z</time>
      </trkpt>
      <trkpt lat="41.034876667" lon="-5.769175000">
        <time>2022-06-28T10:05:51Z</time>
      </trkpt>
      <trkpt lat="41.034910000" lon="-5.769233333">
        <time>2022-06-28T10:05:52Z</time>
      </trkpt>
      <trkpt lat="41.034945000" lon="-5.769293333">
        <time>2022-06-28T10:05:53Z</time>
      </trkpt>
      <trkpt lat="41.034980000" lon="-5.769353333">
        <time>2022-06-28T10:05:54Z</time>
      </trkpt>
      <trkpt lat="41.035016667" lon="-5.769416667">
        <time>2022-06-28T10:05:55Z</time>
      </trkpt>
      <trkpt lat="41.035051667" lon="-5.769478333">
        <time>2022-06-28T10:05:56Z</time>
      </trkpt>
      <trkpt lat="41.035088333" lon="-5.769538333">
        <time>2022-06-28T10:05:57Z</time>
      </trkpt>
      <trkpt lat="41.035125000" lon="-5.769596667">
        <time>2022-06-28T10:05:58Z</time>
      </trkpt>
      <trkpt lat="41.035156667" lon="-5.769656667">
        <time>2022-06-28T10:05:59Z</time>
      </trkpt>
      <trkpt lat="41.035190000" lon="-5.769713333">
        <time>2022-06-28T10:06:00Z</time>
      </trkpt>
      <trkpt lat="41.035226667" lon="-5.769765000">
        <time>2022-06-28T10:06:01Z</time>
      </trkpt>
      <trkpt lat="41.035260000" lon="-5.769810000">
        <time>2022-06-28T10:06:02Z</time>
      </trkpt>
      <trkpt lat="41.035288333" lon="-5.769846667">
        <time>2022-06-28T10:06:03Z</time>
      </trkpt>
      <trkpt lat="41.035315000" lon="-5.769875000">
        <time>2022-06-28T10:06:04Z</time>
      </trkpt>
      <trkpt lat="41.035338333" lon="-5.769895000">
        <time>2022-06-28T10:06:05Z</time>
      </trkpt>
      <trkpt lat="41.035356667" lon="-5.769908333">
        <time>2022-06-28T10:06:06Z</time>
      </trkpt>
      <trkpt lat="41.035368333" lon="-5.769918333">
        <time>2022-06-28T10:06:07Z</time>
      </trkpt>
      <trkpt lat="41.035371667" lon="-5.769925000">
        <time>2022-06-28T10:06:08Z</time>
      </trkpt>
      <trkpt lat="41.035375000" lon="-5.769931667">
        <time>2022-06-28T10:06:09Z</time>
      </trkpt>
      <trkpt lat="41.035375000" lon="-5.769931667">
        <time>2022-06-28T10:06:10Z</time>
      </trkpt>
      <trkpt lat="41.035376667" lon="-5.769933333">
        <time>2022-06-28T10:06:11Z</time>
      </trkpt>
      <trkpt lat="41.035378333" lon="-5.769938333">
        <time>2022-06-28T10:06:12Z</time>
      </trkpt>
      <trkpt lat="41.035391667" lon="-5.769906667">
        <time>2022-06-28T10:06:56Z</time>
      </trkpt>
      <trkpt lat="41.035400000" lon="-5.769898333">
        <time>2022-06-28T10:06:57Z</time>
      </trkpt>
      <trkpt lat="41.035398333" lon="-5.769910000">
        <time>2022-06-28T10:06:58Z</time>
      </trkpt>
      <trkpt lat="41.035408333" lon="-5.769948333">
        <time>2022-06-28T10:06:59Z</time>
      </trkpt>
      <trkpt lat="41.035415000" lon="-5.769970000">
        <time>2022-06-28T10:07:00Z</time>
      </trkpt>
      <trkpt lat="41.035420000" lon="-5.770003333">
        <time>2022-06-28T10:07:01Z</time>
      </trkpt>
      <trkpt lat="41.035425000" lon="-5.770038333">
        <time>2022-06-28T10:07:02Z</time>
      </trkpt>
      <trkpt lat="41.035441667" lon="-5.770125000">
        <time>2022-06-28T10:07:03Z</time>
      </trkpt>
      <trkpt lat="41.035465000" lon="-5.770181667">
        <time>2022-06-28T10:07:04Z</time>
      </trkpt>
      <trkpt lat="41.035491667" lon="-5.770245000">
        <time>2022-06-28T10:07:05Z</time>
      </trkpt>
      <trkpt lat="41.035515000" lon="-5.770315000">
        <time>2022-06-28T10:07:06Z</time>
      </trkpt>
      <trkpt lat="41.035536667" lon="-5.770390000">
        <time>2022-06-28T10:07:07Z</time>
      </trkpt>
      <trkpt lat="41.035555000" lon="-5.770471667">
        <time>2022-06-28T10:07:08Z</time>
      </trkpt>
      <trkpt lat="41.035571667" lon="-5.770556667">
        <time>2022-06-28T10:07:09Z</time>
      </trkpt>
      <trkpt lat="41.035586667" lon="-5.770643333">
        <time>2022-06-28T10:07:10Z</time>
      </trkpt>
      <trkpt lat="41.035601667" lon="-5.770733333">
        <time>2022-06-28T10:07:11Z</time>
      </trkpt>
      <trkpt lat="41.035613333" lon="-5.770823333">
        <time>2022-06-28T10:07:12Z</time>
      </trkpt>
      <trkpt lat="41.035621667" lon="-5.770916667">
        <time>2022-06-28T10:07:13Z</time>
      </trkpt>
      <trkpt lat="41.035630000" lon="-5.771011667">
        <time>2022-06-28T10:07:14Z</time>
      </trkpt>
      <trkpt lat="41.035638333" lon="-5.771106667">
        <time>2022-06-28T10:07:15Z</time>
      </trkpt>
      <trkpt lat="41.035645000" lon="-5.771203333">
        <time>2022-06-28T10:07:16Z</time>
      </trkpt>
      <trkpt lat="41.035653333" lon="-5.771303333">
        <time>2022-06-28T10:07:17Z</time>
      </trkpt>
      <trkpt lat="41.035661667" lon="-5.771403333">
        <time>2022-06-28T10:07:18Z</time>
      </trkpt>
      <trkpt lat="41.035668333" lon="-5.771505000">
        <time>2022-06-28T10:07:19Z</time>
      </trkpt>
      <trkpt lat="41.035676667" lon="-5.771605000">
        <time>2022-06-28T10:07:20Z</time>
      </trkpt>
      <trkpt lat="41.035683333" lon="-5.771706667">
        <time>2022-06-28T10:07:21Z</time>
      </trkpt>
      <trkpt lat="41.035691667" lon="-5.771808333">
        <time>2022-06-28T10:07:22Z</time>
      </trkpt>
      <trkpt lat="41.035700000" lon="-5.771908333">
        <time>2022-06-28T10:07:23Z</time>
      </trkpt>
      <trkpt lat="41.035708333" lon="-5.772010000">
        <time>2022-06-28T10:07:24Z</time>
      </trkpt>
      <trkpt lat="41.035716667" lon="-5.772111667">
        <time>2022-06-28T10:07:25Z</time>
      </trkpt>
      <trkpt lat="41.035723333" lon="-5.772211667">
        <time>2022-06-28T10:07:26Z</time>
      </trkpt>
      <trkpt lat="41.035730000" lon="-5.772311667">
        <time>2022-06-28T10:07:27Z</time>
      </trkpt>
      <trkpt lat="41.035738333" lon="-5.772411667">
        <time>2022-06-28T10:07:28Z</time>
      </trkpt>
      <trkpt lat="41.035745000" lon="-5.772511667">
        <time>2022-06-28T10:07:29Z</time>
      </trkpt>
      <trkpt lat="41.035755000" lon="-5.772611667">
        <time>2022-06-28T10:07:30Z</time>
      </trkpt>
      <trkpt lat="41.035761667" lon="-5.772710000">
        <time>2022-06-28T10:07:31Z</time>
      </trkpt>
      <trkpt lat="41.035770000" lon="-5.772810000">
        <time>2022-06-28T10:07:32Z</time>
      </trkpt>
      <trkpt lat="41.035778333" lon="-5.772906667">
        <time>2022-06-28T10:07:33Z</time>
      </trkpt>
      <trkpt lat="41.035786667" lon="-5.773005000">
        <time>2022-06-28T10:07:34Z</time>
      </trkpt>
      <trkpt lat="41.035793333" lon="-5.773105000">
        <time>2022-06-28T10:07:35Z</time>
      </trkpt>
      <trkpt lat="41.035800000" lon="-5.773205000">
        <time>2022-06-28T10:07:36Z</time>
      </trkpt>
      <trkpt lat="41.035810000" lon="-5.773303333">
        <time>2022-06-28T10:07:37Z</time>
      </trkpt>
      <trkpt lat="41.035816667" lon="-5.773401667">
        <time>2022-06-28T10:07:38Z</time>
      </trkpt>
      <trkpt lat="41.035826667" lon="-5.773501667">
        <time>2022-06-28T10:07:39Z</time>
      </trkpt>
      <trkpt lat="41.035833333" lon="-5.773600000">
        <time>2022-06-28T10:07:40Z</time>
      </trkpt>
      <trkpt lat="41.035841667" lon="-5.773698333">
        <time>2022-06-28T10:07:41Z</time>
      </trkpt>
      <trkpt lat="41.035850000" lon="-5.773796667">
        <time>2022-06-28T10:07:42Z</time>
      </trkpt>
      <trkpt lat="41.035860000" lon="-5.773893333">
        <time>2022-06-28T10:07:43Z</time>
      </trkpt>
      <trkpt lat="41.035870000" lon="-5.773990000">
        <time>2022-06-28T10:07:44Z</time>
      </trkpt>
      <trkpt lat="41.035878333" lon="-5.774086667">
        <time>2022-06-28T10:07:45Z</time>
      </trkpt>
      <trkpt lat="41.035890000" lon="-5.774183333">
        <time>2022-06-28T10:07:46Z</time>
      </trkpt>
      <trkpt lat="41.035901667" lon="-5.774280000">
        <time>2022-06-28T10:07:47Z</time>
      </trkpt>
      <trkpt lat="41.035913333" lon="-5.774375000">
        <time>2022-06-28T10:07:48Z</time>
      </trkpt>
      <trkpt lat="41.035926667" lon="-5.774470000">
        <time>2022-06-28T10:07:49Z</time>
      </trkpt>
      <trkpt lat="41.035941667" lon="-5.774565000">
        <time>2022-06-28T10:07:50Z</time>
      </trkpt>
      <trkpt lat="41.035958333" lon="-5.774658333">
        <time>2022-06-28T10:07:51Z</time>
      </trkpt>
      <trkpt lat="41.035978333" lon="-5.774751667">
        <time>2022-06-28T10:07:52Z</time>
      </trkpt>
      <trkpt lat="41.035998333" lon="-5.774843333">
        <time>2022-06-28T10:07:53Z</time>
      </trkpt>
      <trkpt lat="41.036021667" lon="-5.774935000">
        <time>2022-06-28T10:07:54Z</time>
      </trkpt>
      <trkpt lat="41.036046667" lon="-5.775023333">
        <time>2022-06-28T10:07:55Z</time>
      </trkpt>
      <trkpt lat="41.036073333" lon="-5.775113333">
        <time>2022-06-28T10:07:56Z</time>
      </trkpt>
      <trkpt lat="41.036100000" lon="-5.775201667">
        <time>2022-06-28T10:07:57Z</time>
      </trkpt>
      <trkpt lat="41.036126667" lon="-5.775288333">
        <time>2022-06-28T10:07:58Z</time>
      </trkpt>
      <trkpt lat="41.036155000" lon="-5.775375000">
        <time>2022-06-28T10:07:59Z</time>
      </trkpt>
      <trkpt lat="41.036185000" lon="-5.775460000">
        <time>2022-06-28T10:08:00Z</time>
      </trkpt>
      <trkpt lat="41.036215000" lon="-5.775543333">
        <time>2022-06-28T10:08:01Z</time>
      </trkpt>
      <trkpt lat="41.036245000" lon="-5.775625000">
        <time>2022-06-28T10:08:02Z</time>
      </trkpt>
      <trkpt lat="41.036276667" lon="-5.775706667">
        <time>2022-06-28T10:08:03Z</time>
      </trkpt>
      <trkpt lat="41.036308333" lon="-5.775788333">
        <time>2022-06-28T10:08:04Z</time>
      </trkpt>
      <trkpt lat="41.036338333" lon="-5.775868333">
        <time>2022-06-28T10:08:05Z</time>
      </trkpt>
      <trkpt lat="41.036370000" lon="-5.775948333">
        <time>2022-06-28T10:08:06Z</time>
      </trkpt>
      <trkpt lat="41.036403333" lon="-5.776028333">
        <time>2022-06-28T10:08:07Z</time>
      </trkpt>
      <trkpt lat="41.036436667" lon="-5.776110000">
        <time>2022-06-28T10:08:08Z</time>
      </trkpt>
      <trkpt lat="41.036468333" lon="-5.776190000">
        <time>2022-06-28T10:08:09Z</time>
      </trkpt>
      <trkpt lat="41.036500000" lon="-5.776270000">
        <time>2022-06-28T10:08:10Z</time>
      </trkpt>
      <trkpt lat="41.036531667" lon="-5.776351667">
        <time>2022-06-28T10:08:11Z</time>
      </trkpt>
      <trkpt lat="41.036563333" lon="-5.776433333">
        <time>2022-06-28T10:08:12Z</time>
      </trkpt>
      <trkpt lat="41.036596667" lon="-5.776516667">
        <time>2022-06-28T10:08:13Z</time>
      </trkpt>
      <trkpt lat="41.036630000" lon="-5.776598333">
        <time>2022-06-28T10:08:14Z</time>
      </trkpt>
      <trkpt lat="41.036663333" lon="-5.776678333">
        <time>2022-06-28T10:08:15Z</time>
      </trkpt>
      <trkpt lat="41.036695000" lon="-5.776760000">
        <time>2022-06-28T10:08:16Z</time>
      </trkpt>
      <trkpt lat="41.036728333" lon="-5.776841667">
        <time>2022-06-28T10:08:17Z</time>
      </trkpt>
      <trkpt lat="41.036763333" lon="-5.776923333">
        <time>2022-06-28T10:08:18Z</time>
      </trkpt>
      <trkpt lat="41.036796667" lon="-5.777005000">
        <time>2022-06-28T10:08:19Z</time>
      </trkpt>
      <trkpt lat="41.036830000" lon="-5.777086667">
        <time>2022-06-28T10:08:20Z</time>
      </trkpt>
      <trkpt lat="41.036863333" lon="-5.777168333">
        <time>2022-06-28T10:08:21Z</time>
      </trkpt>
      <trkpt lat="41.036895000" lon="-5.777250000">
        <time>2022-06-28T10:08:22Z</time>
      </trkpt>
      <trkpt lat="41.036928333" lon="-5.777331667">
        <time>2022-06-28T10:08:23Z</time>
      </trkpt>
      <trkpt lat="41.036961667" lon="-5.777413333">
        <time>2022-06-28T10:08:24Z</time>
      </trkpt>
      <trkpt lat="41.036993333" lon="-5.777495000">
        <time>2022-06-28T10:08:25Z</time>
      </trkpt>
      <trkpt lat="41.037025000" lon="-5.777578333">
        <time>2022-06-28T10:08:26Z</time>
      </trkpt>
      <trkpt lat="41.037056667" lon="-5.777660000">
        <time>2022-06-28T10:08:27Z</time>
      </trkpt>
      <trkpt lat="41.037086667" lon="-5.777741667">
        <time>2022-06-28T10:08:28Z</time>
      </trkpt>
      <trkpt lat="41.037116667" lon="-5.777825000">
        <time>2022-06-28T10:08:29Z</time>
      </trkpt>
      <trkpt lat="41.037146667" lon="-5.777906667">
        <time>2022-06-28T10:08:30Z</time>
      </trkpt>
      <trkpt lat="41.037173333" lon="-5.777990000">
        <time>2022-06-28T10:08:31Z</time>
      </trkpt>
      <trkpt lat="41.037200000" lon="-5.778073333">
        <time>2022-06-28T10:08:32Z</time>
      </trkpt>
      <trkpt lat="41.037223333" lon="-5.778158333">
        <time>2022-06-28T10:08:33Z</time>
      </trkpt>
      <trkpt lat="41.037245000" lon="-5.778243333">
        <time>2022-06-28T10:08:34Z</time>
      </trkpt>
      <trkpt lat="41.037266667" lon="-5.778328333">
        <time>2022-06-28T10:08:35Z</time>
      </trkpt>
      <trkpt lat="41.037285000" lon="-5.778415000">
        <time>2022-06-28T10:08:36Z</time>
      </trkpt>
      <trkpt lat="41.037301667" lon="-5.778503333">
        <time>2022-06-28T10:08:37Z</time>
      </trkpt>
      <trkpt lat="41.037318333" lon="-5.778593333">
        <time>2022-06-28T10:08:38Z</time>
      </trkpt>
      <trkpt lat="41.037333333" lon="-5.778681667">
        <time>2022-06-28T10:08:39Z</time>
      </trkpt>
      <trkpt lat="41.037345000" lon="-5.778771667">
        <time>2022-06-28T10:08:40Z</time>
      </trkpt>
      <trkpt lat="41.037358333" lon="-5.778860000">
        <time>2022-06-28T10:08:41Z</time>
      </trkpt>
      <trkpt lat="41.037371667" lon="-5.778948333">
        <time>2022-06-28T10:08:42Z</time>
      </trkpt>
      <trkpt lat="41.037383333" lon="-5.779038333">
        <time>2022-06-28T10:08:43Z</time>
      </trkpt>
      <trkpt lat="41.037396667" lon="-5.779126667">
        <time>2022-06-28T10:08:44Z</time>
      </trkpt>
      <trkpt lat="41.037408333" lon="-5.779215000">
        <time>2022-06-28T10:08:45Z</time>
      </trkpt>
      <trkpt lat="41.037421667" lon="-5.779305000">
        <time>2022-06-28T10:08:46Z</time>
      </trkpt>
      <trkpt lat="41.037433333" lon="-5.779393333">
        <time>2022-06-28T10:08:47Z</time>
      </trkpt>
      <trkpt lat="41.037443333" lon="-5.779480000">
        <time>2022-06-28T10:08:48Z</time>
      </trkpt>
      <trkpt lat="41.037455000" lon="-5.779566667">
        <time>2022-06-28T10:08:49Z</time>
      </trkpt>
      <trkpt lat="41.037466667" lon="-5.779653333">
        <time>2022-06-28T10:08:50Z</time>
      </trkpt>
      <trkpt lat="41.037476667" lon="-5.779740000">
        <time>2022-06-28T10:08:51Z</time>
      </trkpt>
      <trkpt lat="41.037488333" lon="-5.779825000">
        <time>2022-06-28T10:08:52Z</time>
      </trkpt>
      <trkpt lat="41.037498333" lon="-5.779913333">
        <time>2022-06-28T10:08:53Z</time>
      </trkpt>
      <trkpt lat="41.037510000" lon="-5.780001667">
        <time>2022-06-28T10:08:54Z</time>
      </trkpt>
      <trkpt lat="41.037523333" lon="-5.780088333">
        <time>2022-06-28T10:08:55Z</time>
      </trkpt>
      <trkpt lat="41.037538333" lon="-5.780175000">
        <time>2022-06-28T10:08:56Z</time>
      </trkpt>
      <trkpt lat="41.037551667" lon="-5.780263333">
        <time>2022-06-28T10:08:57Z</time>
      </trkpt>
      <trkpt lat="41.037563333" lon="-5.780353333">
        <time>2022-06-28T10:08:58Z</time>
      </trkpt>
      <trkpt lat="41.037576667" lon="-5.780441667">
        <time>2022-06-28T10:08:59Z</time>
      </trkpt>
      <trkpt lat="41.037586667" lon="-5.780530000">
        <time>2022-06-28T10:09:00Z</time>
      </trkpt>
      <trkpt lat="41.037600000" lon="-5.780620000">
        <time>2022-06-28T10:09:01Z</time>
      </trkpt>
      <trkpt lat="41.037610000" lon="-5.780708333">
        <time>2022-06-28T10:09:02Z</time>
      </trkpt>
      <trkpt lat="41.037621667" lon="-5.780796667">
        <time>2022-06-28T10:09:03Z</time>
      </trkpt>
      <trkpt lat="41.037633333" lon="-5.780886667">
        <time>2022-06-28T10:09:04Z</time>
      </trkpt>
      <trkpt lat="41.037645000" lon="-5.780976667">
        <time>2022-06-28T10:09:05Z</time>
      </trkpt>
      <trkpt lat="41.037655000" lon="-5.781066667">
        <time>2022-06-28T10:09:06Z</time>
      </trkpt>
      <trkpt lat="41.037666667" lon="-5.781156667">
        <time>2022-06-28T10:09:07Z</time>
      </trkpt>
      <trkpt lat="41.037680000" lon="-5.781245000">
        <time>2022-06-28T10:09:08Z</time>
      </trkpt>
      <trkpt lat="41.037693333" lon="-5.781333333">
        <time>2022-06-28T10:09:09Z</time>
      </trkpt>
      <trkpt lat="41.037705000" lon="-5.781421667">
        <time>2022-06-28T10:09:10Z</time>
      </trkpt>
      <trkpt lat="41.037716667" lon="-5.781508333">
        <time>2022-06-28T10:09:11Z</time>
      </trkpt>
      <trkpt lat="41.037728333" lon="-5.781596667">
        <time>2022-06-28T10:09:12Z</time>
      </trkpt>
      <trkpt lat="41.037740000" lon="-5.781686667">
        <time>2022-06-28T10:09:13Z</time>
      </trkpt>
      <trkpt lat="41.037751667" lon="-5.781776667">
        <time>2022-06-28T10:09:14Z</time>
      </trkpt>
      <trkpt lat="41.037765000" lon="-5.781865000">
        <time>2022-06-28T10:09:15Z</time>
      </trkpt>
      <trkpt lat="41.037775000" lon="-5.781953333">
        <time>2022-06-28T10:09:16Z</time>
      </trkpt>
      <trkpt lat="41.037786667" lon="-5.782041667">
        <time>2022-06-28T10:09:17Z</time>
      </trkpt>
      <trkpt lat="41.037798333" lon="-5.782130000">
        <time>2022-06-28T10:09:18Z</time>
      </trkpt>
      <trkpt lat="41.037808333" lon="-5.782218333">
        <time>2022-06-28T10:09:19Z</time>
      </trkpt>
      <trkpt lat="41.037820000" lon="-5.782306667">
        <time>2022-06-28T10:09:20Z</time>
      </trkpt>
      <trkpt lat="41.037833333" lon="-5.782395000">
        <time>2022-06-28T10:09:21Z</time>
      </trkpt>
      <trkpt lat="41.037845000" lon="-5.782483333">
        <time>2022-06-28T10:09:22Z</time>
      </trkpt>
      <trkpt lat="41.037858333" lon="-5.782570000">
        <time>2022-06-28T10:09:23Z</time>
      </trkpt>
      <trkpt lat="41.037873333" lon="-5.782658333">
        <time>2022-06-28T10:09:24Z</time>
      </trkpt>
      <trkpt lat="41.037885000" lon="-5.782745000">
        <time>2022-06-28T10:09:25Z</time>
      </trkpt>
      <trkpt lat="41.037898333" lon="-5.782835000">
        <time>2022-06-28T10:09:26Z</time>
      </trkpt>
      <trkpt lat="41.037910000" lon="-5.782925000">
        <time>2022-06-28T10:09:27Z</time>
      </trkpt>
      <trkpt lat="41.037923333" lon="-5.783015000">
        <time>2022-06-28T10:09:28Z</time>
      </trkpt>
      <trkpt lat="41.037936667" lon="-5.783105000">
        <time>2022-06-28T10:09:29Z</time>
      </trkpt>
      <trkpt lat="41.037946667" lon="-5.783195000">
        <time>2022-06-28T10:09:30Z</time>
      </trkpt>
      <trkpt lat="41.037958333" lon="-5.783283333">
        <time>2022-06-28T10:09:31Z</time>
      </trkpt>
      <trkpt lat="41.037970000" lon="-5.783371667">
        <time>2022-06-28T10:09:32Z</time>
      </trkpt>
      <trkpt lat="41.037981667" lon="-5.783460000">
        <time>2022-06-28T10:09:33Z</time>
      </trkpt>
      <trkpt lat="41.037995000" lon="-5.783550000">
        <time>2022-06-28T10:09:34Z</time>
      </trkpt>
      <trkpt lat="41.038008333" lon="-5.783638333">
        <time>2022-06-28T10:09:35Z</time>
      </trkpt>
      <trkpt lat="41.038020000" lon="-5.783726667">
        <time>2022-06-28T10:09:36Z</time>
      </trkpt>
      <trkpt lat="41.038031667" lon="-5.783816667">
        <time>2022-06-28T10:09:37Z</time>
      </trkpt>
      <trkpt lat="41.038043333" lon="-5.783903333">
        <time>2022-06-28T10:09:38Z</time>
      </trkpt>
      <trkpt lat="41.038055000" lon="-5.783991667">
        <time>2022-06-28T10:09:39Z</time>
      </trkpt>
      <trkpt lat="41.038068333" lon="-5.784080000">
        <time>2022-06-28T10:09:40Z</time>
      </trkpt>
      <trkpt lat="41.038080000" lon="-5.784170000">
        <time>2022-06-28T10:09:41Z</time>
      </trkpt>
      <trkpt lat="41.038091667" lon="-5.784258333">
        <time>2022-06-28T10:09:42Z</time>
      </trkpt>
      <trkpt lat="41.038103333" lon="-5.784348333">
        <time>2022-06-28T10:09:43Z</time>
      </trkpt>
      <trkpt lat="41.038115000" lon="-5.784438333">
        <time>2022-06-28T10:09:44Z</time>
      </trkpt>
      <trkpt lat="41.038126667" lon="-5.784528333">
        <time>2022-06-28T10:09:45Z</time>
      </trkpt>
      <trkpt lat="41.038138333" lon="-5.784618333">
        <time>2022-06-28T10:09:46Z</time>
      </trkpt>
      <trkpt lat="41.038148333" lon="-5.784710000">
        <time>2022-06-28T10:09:47Z</time>
      </trkpt>
      <trkpt lat="41.038158333" lon="-5.784800000">
        <time>2022-06-28T10:09:48Z</time>
      </trkpt>
      <trkpt lat="41.038166667" lon="-5.784891667">
        <time>2022-06-28T10:09:49Z</time>
      </trkpt>
      <trkpt lat="41.038173333" lon="-5.784983333">
        <time>2022-06-28T10:09:50Z</time>
      </trkpt>
      <trkpt lat="41.038180000" lon="-5.785076667">
        <time>2022-06-28T10:09:51Z</time>
      </trkpt>
      <trkpt lat="41.038186667" lon="-5.785168333">
        <time>2022-06-28T10:09:52Z</time>
      </trkpt>
      <trkpt lat="41.038191667" lon="-5.785261667">
        <time>2022-06-28T10:09:53Z</time>
      </trkpt>
      <trkpt lat="41.038198333" lon="-5.785353333">
        <time>2022-06-28T10:09:54Z</time>
      </trkpt>
      <trkpt lat="41.038205000" lon="-5.785446667">
        <time>2022-06-28T10:09:55Z</time>
      </trkpt>
      <trkpt lat="41.038210000" lon="-5.785540000">
        <time>2022-06-28T10:09:56Z</time>
      </trkpt>
      <trkpt lat="41.038216667" lon="-5.785633333">
        <time>2022-06-28T10:09:57Z</time>
      </trkpt>
      <trkpt lat="41.038223333" lon="-5.785726667">
        <time>2022-06-28T10:09:58Z</time>
      </trkpt>
      <trkpt lat="41.038228333" lon="-5.785820000">
        <time>2022-06-28T10:09:59Z</time>
      </trkpt>
      <trkpt lat="41.038235000" lon="-5.785911667">
        <time>2022-06-28T10:10:00Z</time>
      </trkpt>
      <trkpt lat="41.038241667" lon="-5.786005000">
        <time>2022-06-28T10:10:01Z</time>
      </trkpt>
      <trkpt lat="41.038246667" lon="-5.786098333">
        <time>2022-06-28T10:10:02Z</time>
      </trkpt>
      <trkpt lat="41.038253333" lon="-5.786191667">
        <time>2022-06-28T10:10:03Z</time>
      </trkpt>
      <trkpt lat="41.038258333" lon="-5.786285000">
        <time>2022-06-28T10:10:04Z</time>
      </trkpt>
      <trkpt lat="41.038263333" lon="-5.786378333">
        <time>2022-06-28T10:10:05Z</time>
      </trkpt>
      <trkpt lat="41.038268333" lon="-5.786473333">
        <time>2022-06-28T10:10:06Z</time>
      </trkpt>
      <trkpt lat="41.038271667" lon="-5.786563333">
        <time>2022-06-28T10:10:07Z</time>
      </trkpt>
      <trkpt lat="41.038275000" lon="-5.786655000">
        <time>2022-06-28T10:10:08Z</time>
      </trkpt>
      <trkpt lat="41.038280000" lon="-5.786748333">
        <time>2022-06-28T10:10:09Z</time>
      </trkpt>
      <trkpt lat="41.038286667" lon="-5.786840000">
        <time>2022-06-28T10:10:10Z</time>
      </trkpt>
      <trkpt lat="41.038290000" lon="-5.786933333">
        <time>2022-06-28T10:10:11Z</time>
      </trkpt>
      <trkpt lat="41.038295000" lon="-5.787025000">
        <time>2022-06-28T10:10:12Z</time>
      </trkpt>
      <trkpt lat="41.038300000" lon="-5.787118333">
        <time>2022-06-28T10:10:13Z</time>
      </trkpt>
      <trkpt lat="41.038303333" lon="-5.787210000">
        <time>2022-06-28T10:10:14Z</time>
      </trkpt>
      <trkpt lat="41.038308333" lon="-5.787301667">
        <time>2022-06-28T10:10:15Z</time>
      </trkpt>
      <trkpt lat="41.038313333" lon="-5.787398333">
        <time>2022-06-28T10:10:16Z</time>
      </trkpt>
      <trkpt lat="41.038320000" lon="-5.787493333">
        <time>2022-06-28T10:10:17Z</time>
      </trkpt>
      <trkpt lat="41.038325000" lon="-5.787590000">
        <time>2022-06-28T10:10:18Z</time>
      </trkpt>
      <trkpt lat="41.038330000" lon="-5.787686667">
        <time>2022-06-28T10:10:19Z</time>
      </trkpt>
      <trkpt lat="41.038335000" lon="-5.787781667">
        <time>2022-06-28T10:10:20Z</time>
      </trkpt>
      <trkpt lat="41.038341667" lon="-5.787878333">
        <time>2022-06-28T10:10:21Z</time>
      </trkpt>
      <trkpt lat="41.038346667" lon="-5.787976667">
        <time>2022-06-28T10:10:22Z</time>
      </trkpt>
      <trkpt lat="41.038351667" lon="-5.788075000">
        <time>2022-06-28T10:10:23Z</time>
      </trkpt>
      <trkpt lat="41.038358333" lon="-5.788173333">
        <time>2022-06-28T10:10:24Z</time>
      </trkpt>
      <trkpt lat="41.038360000" lon="-5.788271667">
        <time>2022-06-28T10:10:25Z</time>
      </trkpt>
      <trkpt lat="41.038361667" lon="-5.788373333">
        <time>2022-06-28T10:10:26Z</time>
      </trkpt>
      <trkpt lat="41.038361667" lon="-5.788475000">
        <time>2022-06-28T10:10:27Z</time>
      </trkpt>
      <trkpt lat="41.038363333" lon="-5.788576667">
        <time>2022-06-28T10:10:28Z</time>
      </trkpt>
      <trkpt lat="41.038363333" lon="-5.788681667">
        <time>2022-06-28T10:10:29Z</time>
      </trkpt>
      <trkpt lat="41.038365000" lon="-5.788785000">
        <time>2022-06-28T10:10:30Z</time>
      </trkpt>
      <trkpt lat="41.038363333" lon="-5.788891667">
        <time>2022-06-28T10:10:31Z</time>
      </trkpt>
      <trkpt lat="41.038361667" lon="-5.788996667">
        <time>2022-06-28T10:10:32Z</time>
      </trkpt>
      <trkpt lat="41.038360000" lon="-5.789103333">
        <time>2022-06-28T10:10:33Z</time>
      </trkpt>
      <trkpt lat="41.038358333" lon="-5.789210000">
        <time>2022-06-28T10:10:34Z</time>
      </trkpt>
      <trkpt lat="41.038355000" lon="-5.789315000">
        <time>2022-06-28T10:10:35Z</time>
      </trkpt>
      <trkpt lat="41.038351667" lon="-5.789420000">
        <time>2022-06-28T10:10:36Z</time>
      </trkpt>
      <trkpt lat="41.038346667" lon="-5.789523333">
        <time>2022-06-28T10:10:37Z</time>
      </trkpt>
      <trkpt lat="41.038338333" lon="-5.789625000">
        <time>2022-06-28T10:10:38Z</time>
      </trkpt>
      <trkpt lat="41.038325000" lon="-5.789726667">
        <time>2022-06-28T10:10:39Z</time>
      </trkpt>
      <trkpt lat="41.038306667" lon="-5.789826667">
        <time>2022-06-28T10:10:40Z</time>
      </trkpt>
      <trkpt lat="41.038285000" lon="-5.789925000">
        <time>2022-06-28T10:10:41Z</time>
      </trkpt>
      <trkpt lat="41.038256667" lon="-5.790020000">
        <time>2022-06-28T10:10:42Z</time>
      </trkpt>
      <trkpt lat="41.038225000" lon="-5.790113333">
        <time>2022-06-28T10:10:43Z</time>
      </trkpt>
      <trkpt lat="41.038191667" lon="-5.790208333">
        <time>2022-06-28T10:10:44Z</time>
      </trkpt>
      <trkpt lat="41.038158333" lon="-5.790298333">
        <time>2022-06-28T10:10:45Z</time>
      </trkpt>
      <trkpt lat="41.038121667" lon="-5.790388333">
        <time>2022-06-28T10:10:46Z</time>
      </trkpt>
      <trkpt lat="41.038090000" lon="-5.790478333">
        <time>2022-06-28T10:10:47Z</time>
      </trkpt>
      <trkpt lat="41.038061667" lon="-5.790571667">
        <time>2022-06-28T10:10:48Z</time>
      </trkpt>
      <trkpt lat="41.038036667" lon="-5.790665000">
        <time>2022-06-28T10:10:49Z</time>
      </trkpt>
      <trkpt lat="41.038018333" lon="-5.790761667">
        <time>2022-06-28T10:10:50Z</time>
      </trkpt>
      <trkpt lat="41.038008333" lon="-5.790861667">
        <time>2022-06-28T10:10:51Z</time>
      </trkpt>
      <trkpt lat="41.038003333" lon="-5.790963333">
        <time>2022-06-28T10:10:52Z</time>
      </trkpt>
      <trkpt lat="41.038008333" lon="-5.791066667">
        <time>2022-06-28T10:10:53Z</time>
      </trkpt>
      <trkpt lat="41.038015000" lon="-5.791170000">
        <time>2022-06-28T10:10:54Z</time>
      </trkpt>
      <trkpt lat="41.038023333" lon="-5.791270000">
        <time>2022-06-28T10:10:55Z</time>
      </trkpt>
      <trkpt lat="41.038033333" lon="-5.791370000">
        <time>2022-06-28T10:10:56Z</time>
      </trkpt>
      <trkpt lat="41.038041667" lon="-5.791470000">
        <time>2022-06-28T10:10:57Z</time>
      </trkpt>
      <trkpt lat="41.038051667" lon="-5.791568333">
        <time>2022-06-28T10:10:58Z</time>
      </trkpt>
      <trkpt lat="41.038061667" lon="-5.791666667">
        <time>2022-06-28T10:10:59Z</time>
      </trkpt>
      <trkpt lat="41.038073333" lon="-5.791763333">
        <time>2022-06-28T10:11:00Z</time>
      </trkpt>
      <trkpt lat="41.038083333" lon="-5.791861667">
        <time>2022-06-28T10:11:01Z</time>
      </trkpt>
      <trkpt lat="41.038093333" lon="-5.791958333">
        <time>2022-06-28T10:11:02Z</time>
      </trkpt>
      <trkpt lat="41.038101667" lon="-5.792053333">
        <time>2022-06-28T10:11:03Z</time>
      </trkpt>
      <trkpt lat="41.038113333" lon="-5.792148333">
        <time>2022-06-28T10:11:04Z</time>
      </trkpt>
      <trkpt lat="41.038123333" lon="-5.792241667">
        <time>2022-06-28T10:11:05Z</time>
      </trkpt>
      <trkpt lat="41.038133333" lon="-5.792340000">
        <time>2022-06-28T10:11:06Z</time>
      </trkpt>
      <trkpt lat="41.038145000" lon="-5.792438333">
        <time>2022-06-28T10:11:07Z</time>
      </trkpt>
      <trkpt lat="41.038156667" lon="-5.792536667">
        <time>2022-06-28T10:11:08Z</time>
      </trkpt>
      <trkpt lat="41.038170000" lon="-5.792633333">
        <time>2022-06-28T10:11:09Z</time>
      </trkpt>
      <trkpt lat="41.038181667" lon="-5.792731667">
        <time>2022-06-28T10:11:10Z</time>
      </trkpt>
      <trkpt lat="41.038193333" lon="-5.792828333">
        <time>2022-06-28T10:11:11Z</time>
      </trkpt>
      <trkpt lat="41.038203333" lon="-5.792923333">
        <time>2022-06-28T10:11:12Z</time>
      </trkpt>
      <trkpt lat="41.038215000" lon="-5.793016667">
        <time>2022-06-28T10:11:13Z</time>
      </trkpt>
      <trkpt lat="41.038226667" lon="-5.793110000">
        <time>2022-06-28T10:11:14Z</time>
      </trkpt>
      <trkpt lat="41.038238333" lon="-5.793200000">
        <time>2022-06-28T10:11:15Z</time>
      </trkpt>
      <trkpt lat="41.038248333" lon="-5.793290000">
        <time>2022-06-28T10:11:16Z</time>
      </trkpt>
      <trkpt lat="41.038258333" lon="-5.793378333">
        <time>2022-06-28T10:11:17Z</time>
      </trkpt>
      <trkpt lat="41.038268333" lon="-5.793465000">
        <time>2022-06-28T10:11:18Z</time>
      </trkpt>
      <trkpt lat="41.038276667" lon="-5.793551667">
        <time>2022-06-28T10:11:19Z</time>
      </trkpt>
      <trkpt lat="41.038286667" lon="-5.793636667">
        <time>2022-06-28T10:11:20Z</time>
      </trkpt>
      <trkpt lat="41.038296667" lon="-5.793723333">
        <time>2022-06-28T10:11:21Z</time>
      </trkpt>
      <trkpt lat="41.038305000" lon="-5.793808333">
        <time>2022-06-28T10:11:22Z</time>
      </trkpt>
      <trkpt lat="41.038315000" lon="-5.793893333">
        <time>2022-06-28T10:11:23Z</time>
      </trkpt>
      <trkpt lat="41.038325000" lon="-5.793978333">
        <time>2022-06-28T10:11:24Z</time>
      </trkpt>
      <trkpt lat="41.038333333" lon="-5.794061667">
        <time>2022-06-28T10:11:25Z</time>
      </trkpt>
      <trkpt lat="41.038343333" lon="-5.794145000">
        <time>2022-06-28T10:11:26Z</time>
      </trkpt>
      <trkpt lat="41.038356667" lon="-5.794228333">
        <time>2022-06-28T10:11:27Z</time>
      </trkpt>
      <trkpt lat="41.038368333" lon="-5.794310000">
        <time>2022-06-28T10:11:28Z</time>
      </trkpt>
      <trkpt lat="41.038383333" lon="-5.794393333">
        <time>2022-06-28T10:11:29Z</time>
      </trkpt>
      <trkpt lat="41.038398333" lon="-5.794476667">
        <time>2022-06-28T10:11:30Z</time>
      </trkpt>
      <trkpt lat="41.038410000" lon="-5.794558333">
        <time>2022-06-28T10:11:31Z</time>
      </trkpt>
      <trkpt lat="41.038421667" lon="-5.794640000">
        <time>2022-06-28T10:11:32Z</time>
      </trkpt>
      <trkpt lat="41.038435000" lon="-5.794720000">
        <time>2022-06-28T10:11:33Z</time>
      </trkpt>
      <trkpt lat="41.038451667" lon="-5.794798333">
        <time>2022-06-28T10:11:34Z</time>
      </trkpt>
      <trkpt lat="41.038470000" lon="-5.794878333">
        <time>2022-06-28T10:11:35Z</time>
      </trkpt>
      <trkpt lat="41.038486667" lon="-5.794960000">
        <time>2022-06-28T10:11:36Z</time>
      </trkpt>
      <trkpt lat="41.038503333" lon="-5.795045000">
        <time>2022-06-28T10:11:37Z</time>
      </trkpt>
      <trkpt lat="41.038521667" lon="-5.795128333">
        <time>2022-06-28T10:11:38Z</time>
      </trkpt>
      <trkpt lat="41.038540000" lon="-5.795213333">
        <time>2022-06-28T10:11:39Z</time>
      </trkpt>
      <trkpt lat="41.038556667" lon="-5.795300000">
        <time>2022-06-28T10:11:40Z</time>
      </trkpt>
      <trkpt lat="41.038575000" lon="-5.795386667">
        <time>2022-06-28T10:11:41Z</time>
      </trkpt>
      <trkpt lat="41.038590000" lon="-5.795475000">
        <time>2022-06-28T10:11:42Z</time>
      </trkpt>
      <trkpt lat="41.038606667" lon="-5.795561667">
        <time>2022-06-28T10:11:43Z</time>
      </trkpt>
      <trkpt lat="41.038623333" lon="-5.795646667">
        <time>2022-06-28T10:11:44Z</time>
      </trkpt>
      <trkpt lat="41.038643333" lon="-5.795731667">
        <time>2022-06-28T10:11:45Z</time>
      </trkpt>
      <trkpt lat="41.038661667" lon="-5.795818333">
        <time>2022-06-28T10:11:46Z</time>
      </trkpt>
      <trkpt lat="41.038680000" lon="-5.795903333">
        <time>2022-06-28T10:11:47Z</time>
      </trkpt>
      <trkpt lat="41.038696667" lon="-5.795990000">
        <time>2022-06-28T10:11:48Z</time>
      </trkpt>
      <trkpt lat="41.038715000" lon="-5.796073333">
        <time>2022-06-28T10:11:49Z</time>
      </trkpt>
      <trkpt lat="41.038731667" lon="-5.796158333">
        <time>2022-06-28T10:11:50Z</time>
      </trkpt>
      <trkpt lat="41.038748333" lon="-5.796241667">
        <time>2022-06-28T10:11:51Z</time>
      </trkpt>
      <trkpt lat="41.038765000" lon="-5.796325000">
        <time>2022-06-28T10:11:52Z</time>
      </trkpt>
      <trkpt lat="41.038781667" lon="-5.796410000">
        <time>2022-06-28T10:11:53Z</time>
      </trkpt>
      <trkpt lat="41.038798333" lon="-5.796496667">
        <time>2022-06-28T10:11:54Z</time>
      </trkpt>
      <trkpt lat="41.038816667" lon="-5.796586667">
        <time>2022-06-28T10:11:55Z</time>
      </trkpt>
      <trkpt lat="41.038835000" lon="-5.796670000">
        <time>2022-06-28T10:11:56Z</time>
      </trkpt>
      <trkpt lat="41.038855000" lon="-5.796756667">
        <time>2022-06-28T10:11:57Z</time>
      </trkpt>
      <trkpt lat="41.038875000" lon="-5.796845000">
        <time>2022-06-28T10:11:58Z</time>
      </trkpt>
      <trkpt lat="41.038891667" lon="-5.796933333">
        <time>2022-06-28T10:11:59Z</time>
      </trkpt>
      <trkpt lat="41.038910000" lon="-5.797020000">
        <time>2022-06-28T10:12:00Z</time>
      </trkpt>
      <trkpt lat="41.038926667" lon="-5.797105000">
        <time>2022-06-28T10:12:01Z</time>
      </trkpt>
      <trkpt lat="41.038943333" lon="-5.797190000">
        <time>2022-06-28T10:12:02Z</time>
      </trkpt>
      <trkpt lat="41.038958333" lon="-5.797273333">
        <time>2022-06-28T10:12:03Z</time>
      </trkpt>
      <trkpt lat="41.038973333" lon="-5.797358333">
        <time>2022-06-28T10:12:04Z</time>
      </trkpt>
      <trkpt lat="41.038988333" lon="-5.797443333">
        <time>2022-06-28T10:12:05Z</time>
      </trkpt>
      <trkpt lat="41.039005000" lon="-5.797530000">
        <time>2022-06-28T10:12:06Z</time>
      </trkpt>
      <trkpt lat="41.039020000" lon="-5.797618333">
        <time>2022-06-28T10:12:07Z</time>
      </trkpt>
      <trkpt lat="41.039036667" lon="-5.797706667">
        <time>2022-06-28T10:12:08Z</time>
      </trkpt>
      <trkpt lat="41.039051667" lon="-5.797793333">
        <time>2022-06-28T10:12:09Z</time>
      </trkpt>
      <trkpt lat="41.039068333" lon="-5.797883333">
        <time>2022-06-28T10:12:10Z</time>
      </trkpt>
      <trkpt lat="41.039080000" lon="-5.797971667">
        <time>2022-06-28T10:12:11Z</time>
      </trkpt>
      <trkpt lat="41.039093333" lon="-5.798060000">
        <time>2022-06-28T10:12:12Z</time>
      </trkpt>
      <trkpt lat="41.039108333" lon="-5.798148333">
        <time>2022-06-28T10:12:13Z</time>
      </trkpt>
      <trkpt lat="41.039123333" lon="-5.798236667">
        <time>2022-06-28T10:12:14Z</time>
      </trkpt>
      <trkpt lat="41.039138333" lon="-5.798325000">
        <time>2022-06-28T10:12:15Z</time>
      </trkpt>
      <trkpt lat="41.039151667" lon="-5.798410000">
        <time>2022-06-28T10:12:16Z</time>
      </trkpt>
      <trkpt lat="41.039166667" lon="-5.798501667">
        <time>2022-06-28T10:12:17Z</time>
      </trkpt>
      <trkpt lat="41.039180000" lon="-5.798593333">
        <time>2022-06-28T10:12:18Z</time>
      </trkpt>
      <trkpt lat="41.039191667" lon="-5.798683333">
        <time>2022-06-28T10:12:19Z</time>
      </trkpt>
      <trkpt lat="41.039206667" lon="-5.798775000">
        <time>2022-06-28T10:12:20Z</time>
      </trkpt>
      <trkpt lat="41.039220000" lon="-5.798866667">
        <time>2022-06-28T10:12:21Z</time>
      </trkpt>
      <trkpt lat="41.039235000" lon="-5.798956667">
        <time>2022-06-28T10:12:22Z</time>
      </trkpt>
      <trkpt lat="41.039246667" lon="-5.799046667">
        <time>2022-06-28T10:12:23Z</time>
      </trkpt>
      <trkpt lat="41.039260000" lon="-5.799138333">
        <time>2022-06-28T10:12:24Z</time>
      </trkpt>
      <trkpt lat="41.039275000" lon="-5.799230000">
        <time>2022-06-28T10:12:25Z</time>
      </trkpt>
      <trkpt lat="41.039293333" lon="-5.799321667">
        <time>2022-06-28T10:12:26Z</time>
      </trkpt>
      <trkpt lat="41.039308333" lon="-5.799415000">
        <time>2022-06-28T10:12:27Z</time>
      </trkpt>
      <trkpt lat="41.039326667" lon="-5.799506667">
        <time>2022-06-28T10:12:28Z</time>
      </trkpt>
      <trkpt lat="41.039345000" lon="-5.799600000">
        <time>2022-06-28T10:12:29Z</time>
      </trkpt>
      <trkpt lat="41.039363333" lon="-5.799691667">
        <time>2022-06-28T10:12:30Z</time>
      </trkpt>
      <trkpt lat="41.039383333" lon="-5.799785000">
        <time>2022-06-28T10:12:31Z</time>
      </trkpt>
      <trkpt lat="41.039403333" lon="-5.799878333">
        <time>2022-06-28T10:12:32Z</time>
      </trkpt>
      <trkpt lat="41.039421667" lon="-5.799971667">
        <time>2022-06-28T10:12:33Z</time>
      </trkpt>
      <trkpt lat="41.039440000" lon="-5.800066667">
        <time>2022-06-28T10:12:34Z</time>
      </trkpt>
      <trkpt lat="41.039460000" lon="-5.800158333">
        <time>2022-06-28T10:12:35Z</time>
      </trkpt>
      <trkpt lat="41.039480000" lon="-5.800253333">
        <time>2022-06-28T10:12:36Z</time>
      </trkpt>
      <trkpt lat="41.039500000" lon="-5.800346667">
        <time>2022-06-28T10:12:37Z</time>
      </trkpt>
      <trkpt lat="41.039520000" lon="-5.800438333">
        <time>2022-06-28T10:12:38Z</time>
      </trkpt>
      <trkpt lat="41.039538333" lon="-5.800531667">
        <time>2022-06-28T10:12:39Z</time>
      </trkpt>
      <trkpt lat="41.039560000" lon="-5.800625000">
        <time>2022-06-28T10:12:40Z</time>
      </trkpt>
      <trkpt lat="41.039578333" lon="-5.800718333">
        <time>2022-06-28T10:12:41Z</time>
      </trkpt>
      <trkpt lat="41.039598333" lon="-5.800811667">
        <time>2022-06-28T10:12:42Z</time>
      </trkpt>
      <trkpt lat="41.039616667" lon="-5.800905000">
        <time>2022-06-28T10:12:43Z</time>
      </trkpt>
      <trkpt lat="41.039635000" lon="-5.800998333">
        <time>2022-06-28T10:12:44Z</time>
      </trkpt>
      <trkpt lat="41.039655000" lon="-5.801091667">
        <time>2022-06-28T10:12:45Z</time>
      </trkpt>
      <trkpt lat="41.039675000" lon="-5.801185000">
        <time>2022-06-28T10:12:46Z</time>
      </trkpt>
      <trkpt lat="41.039693333" lon="-5.801278333">
        <time>2022-06-28T10:12:47Z</time>
      </trkpt>
      <trkpt lat="41.039713333" lon="-5.801371667">
        <time>2022-06-28T10:12:48Z</time>
      </trkpt>
      <trkpt lat="41.039735000" lon="-5.801463333">
        <time>2022-06-28T10:12:49Z</time>
      </trkpt>
      <trkpt lat="41.039751667" lon="-5.801556667">
        <time>2022-06-28T10:12:50Z</time>
      </trkpt>
      <trkpt lat="41.039773333" lon="-5.801650000">
        <time>2022-06-28T10:12:51Z</time>
      </trkpt>
      <trkpt lat="41.039793333" lon="-5.801743333">
        <time>2022-06-28T10:12:52Z</time>
      </trkpt>
      <trkpt lat="41.039810000" lon="-5.801836667">
        <time>2022-06-28T10:12:53Z</time>
      </trkpt>
      <trkpt lat="41.039830000" lon="-5.801930000">
        <time>2022-06-28T10:12:54Z</time>
      </trkpt>
      <trkpt lat="41.039848333" lon="-5.802023333">
        <time>2022-06-28T10:12:55Z</time>
      </trkpt>
      <trkpt lat="41.039868333" lon="-5.802118333">
        <time>2022-06-28T10:12:56Z</time>
      </trkpt>
      <trkpt lat="41.039886667" lon="-5.802211667">
        <time>2022-06-28T10:12:57Z</time>
      </trkpt>
      <trkpt lat="41.039905000" lon="-5.802305000">
        <time>2022-06-28T10:12:58Z</time>
      </trkpt>
      <trkpt lat="41.039925000" lon="-5.802398333">
        <time>2022-06-28T10:12:59Z</time>
      </trkpt>
      <trkpt lat="41.039945000" lon="-5.802491667">
        <time>2022-06-28T10:13:00Z</time>
      </trkpt>
      <trkpt lat="41.039965000" lon="-5.802585000">
        <time>2022-06-28T10:13:01Z</time>
      </trkpt>
      <trkpt lat="41.039985000" lon="-5.802680000">
        <time>2022-06-28T10:13:02Z</time>
      </trkpt>
      <trkpt lat="41.040005000" lon="-5.802773333">
        <time>2022-06-28T10:13:03Z</time>
      </trkpt>
      <trkpt lat="41.040021667" lon="-5.802868333">
        <time>2022-06-28T10:13:04Z</time>
      </trkpt>
      <trkpt lat="41.040040000" lon="-5.802961667">
        <time>2022-06-28T10:13:05Z</time>
      </trkpt>
      <trkpt lat="41.040061667" lon="-5.803053333">
        <time>2022-06-28T10:13:06Z</time>
      </trkpt>
      <trkpt lat="41.040081667" lon="-5.803146667">
        <time>2022-06-28T10:13:07Z</time>
      </trkpt>
      <trkpt lat="41.040101667" lon="-5.803238333">
        <time>2022-06-28T10:13:08Z</time>
      </trkpt>
      <trkpt lat="41.040120000" lon="-5.803330000">
        <time>2022-06-28T10:13:09Z</time>
      </trkpt>
      <trkpt lat="41.040140000" lon="-5.803423333">
        <time>2022-06-28T10:13:10Z</time>
      </trkpt>
      <trkpt lat="41.040158333" lon="-5.803516667">
        <time>2022-06-28T10:13:11Z</time>
      </trkpt>
      <trkpt lat="41.040176667" lon="-5.803610000">
        <time>2022-06-28T10:13:12Z</time>
      </trkpt>
      <trkpt lat="41.040196667" lon="-5.803703333">
        <time>2022-06-28T10:13:13Z</time>
      </trkpt>
      <trkpt lat="41.040215000" lon="-5.803795000">
        <time>2022-06-28T10:13:14Z</time>
      </trkpt>
      <trkpt lat="41.040233333" lon="-5.803886667">
        <time>2022-06-28T10:13:15Z</time>
      </trkpt>
      <trkpt lat="41.040253333" lon="-5.803978333">
        <time>2022-06-28T10:13:16Z</time>
      </trkpt>
      <trkpt lat="41.040270000" lon="-5.804070000">
        <time>2022-06-28T10:13:17Z</time>
      </trkpt>
      <trkpt lat="41.040286667" lon="-5.804163333">
        <time>2022-06-28T10:13:18Z</time>
      </trkpt>
      <trkpt lat="41.040305000" lon="-5.804255000">
        <time>2022-06-28T10:13:19Z</time>
      </trkpt>
      <trkpt lat="41.040323333" lon="-5.804348333">
        <time>2022-06-28T10:13:20Z</time>
      </trkpt>
      <trkpt lat="41.040343333" lon="-5.804440000">
        <time>2022-06-28T10:13:21Z</time>
      </trkpt>
      <trkpt lat="41.040361667" lon="-5.804531667">
        <time>2022-06-28T10:13:22Z</time>
      </trkpt>
      <trkpt lat="41.040380000" lon="-5.804623333">
        <time>2022-06-28T10:13:23Z</time>
      </trkpt>
      <trkpt lat="41.040396667" lon="-5.804715000">
        <time>2022-06-28T10:13:24Z</time>
      </trkpt>
      <trkpt lat="41.040415000" lon="-5.804806667">
        <time>2022-06-28T10:13:25Z</time>
      </trkpt>
      <trkpt lat="41.040433333" lon="-5.804898333">
        <time>2022-06-28T10:13:26Z</time>
      </trkpt>
      <trkpt lat="41.040451667" lon="-5.804988333">
        <time>2022-06-28T10:13:27Z</time>
      </trkpt>
      <trkpt lat="41.040470000" lon="-5.805078333">
        <time>2022-06-28T10:13:28Z</time>
      </trkpt>
      <trkpt lat="41.040488333" lon="-5.805170000">
        <time>2022-06-28T10:13:29Z</time>
      </trkpt>
      <trkpt lat="41.040508333" lon="-5.805260000">
        <time>2022-06-28T10:13:30Z</time>
      </trkpt>
      <trkpt lat="41.040526667" lon="-5.805351667">
        <time>2022-06-28T10:13:31Z</time>
      </trkpt>
      <trkpt lat="41.040546667" lon="-5.805441667">
        <time>2022-06-28T10:13:32Z</time>
      </trkpt>
      <trkpt lat="41.040566667" lon="-5.805533333">
        <time>2022-06-28T10:13:33Z</time>
      </trkpt>
      <trkpt lat="41.040585000" lon="-5.805625000">
        <time>2022-06-28T10:13:34Z</time>
      </trkpt>
      <trkpt lat="41.040605000" lon="-5.805716667">
        <time>2022-06-28T10:13:35Z</time>
      </trkpt>
      <trkpt lat="41.040623333" lon="-5.805810000">
        <time>2022-06-28T10:13:36Z</time>
      </trkpt>
      <trkpt lat="41.040643333" lon="-5.805901667">
        <time>2022-06-28T10:13:37Z</time>
      </trkpt>
      <trkpt lat="41.040663333" lon="-5.805995000">
        <time>2022-06-28T10:13:38Z</time>
      </trkpt>
      <trkpt lat="41.040681667" lon="-5.806086667">
        <time>2022-06-28T10:13:39Z</time>
      </trkpt>
      <trkpt lat="41.040700000" lon="-5.806178333">
        <time>2022-06-28T10:13:40Z</time>
      </trkpt>
      <trkpt lat="41.040720000" lon="-5.806270000">
        <time>2022-06-28T10:13:41Z</time>
      </trkpt>
      <trkpt lat="41.040740000" lon="-5.806361667">
        <time>2022-06-28T10:13:42Z</time>
      </trkpt>
      <trkpt lat="41.040760000" lon="-5.806453333">
        <time>2022-06-28T10:13:43Z</time>
      </trkpt>
      <trkpt lat="41.040780000" lon="-5.806546667">
        <time>2022-06-28T10:13:44Z</time>
      </trkpt>
      <trkpt lat="41.040798333" lon="-5.806638333">
        <time>2022-06-28T10:13:45Z</time>
      </trkpt>
      <trkpt lat="41.040820000" lon="-5.806728333">
        <time>2022-06-28T10:13:46Z</time>
      </trkpt>
      <trkpt lat="41.040840000" lon="-5.806820000">
        <time>2022-06-28T10:13:47Z</time>
      </trkpt>
      <trkpt lat="41.040860000" lon="-5.806913333">
        <time>2022-06-28T10:13:48Z</time>
      </trkpt>
      <trkpt lat="41.040876667" lon="-5.807008333">
        <time>2022-06-28T10:13:49Z</time>
      </trkpt>
      <trkpt lat="41.040896667" lon="-5.807101667">
        <time>2022-06-28T10:13:50Z</time>
      </trkpt>
      <trkpt lat="41.040921667" lon="-5.807195000">
        <time>2022-06-28T10:13:51Z</time>
      </trkpt>
      <trkpt lat="41.040943333" lon="-5.807288333">
        <time>2022-06-28T10:13:52Z</time>
      </trkpt>
      <trkpt lat="41.040963333" lon="-5.807386667">
        <time>2022-06-28T10:13:53Z</time>
      </trkpt>
      <trkpt lat="41.040983333" lon="-5.807481667">
        <time>2022-06-28T10:13:54Z</time>
      </trkpt>
      <trkpt lat="41.041006667" lon="-5.807576667">
        <time>2022-06-28T10:13:55Z</time>
      </trkpt>
      <trkpt lat="41.041030000" lon="-5.807670000">
        <time>2022-06-28T10:13:56Z</time>
      </trkpt>
      <trkpt lat="41.041053333" lon="-5.807761667">
        <time>2022-06-28T10:13:57Z</time>
      </trkpt>
      <trkpt lat="41.041075000" lon="-5.807855000">
        <time>2022-06-28T10:13:58Z</time>
      </trkpt>
      <trkpt lat="41.041098333" lon="-5.807946667">
        <time>2022-06-28T10:13:59Z</time>
      </trkpt>
      <trkpt lat="41.041123333" lon="-5.808040000">
        <time>2022-06-28T10:14:00Z</time>
      </trkpt>
      <trkpt lat="41.041145000" lon="-5.808133333">
        <time>2022-06-28T10:14:01Z</time>
      </trkpt>
      <trkpt lat="41.041168333" lon="-5.808226667">
        <time>2022-06-28T10:14:02Z</time>
      </trkpt>
      <trkpt lat="41.041195000" lon="-5.808316667">
        <time>2022-06-28T10:14:03Z</time>
      </trkpt>
      <trkpt lat="41.041221667" lon="-5.808408333">
        <time>2022-06-28T10:14:04Z</time>
      </trkpt>
      <trkpt lat="41.041246667" lon="-5.808500000">
        <time>2022-06-28T10:14:05Z</time>
      </trkpt>
      <trkpt lat="41.041270000" lon="-5.808590000">
        <time>2022-06-28T10:14:06Z</time>
      </trkpt>
      <trkpt lat="41.041293333" lon="-5.808680000">
        <time>2022-06-28T10:14:07Z</time>
      </trkpt>
      <trkpt lat="41.041315000" lon="-5.808771667">
        <time>2022-06-28T10:14:08Z</time>
      </trkpt>
      <trkpt lat="41.041338333" lon="-5.808860000">
        <time>2022-06-28T10:14:09Z</time>
      </trkpt>
      <trkpt lat="41.041360000" lon="-5.808948333">
        <time>2022-06-28T10:14:10Z</time>
      </trkpt>
      <trkpt lat="41.041380000" lon="-5.809038333">
        <time>2022-06-28T10:14:11Z</time>
      </trkpt>
      <trkpt lat="41.041398333" lon="-5.809126667">
        <time>2022-06-28T10:14:12Z</time>
      </trkpt>
      <trkpt lat="41.041418333" lon="-5.809215000">
        <time>2022-06-28T10:14:13Z</time>
      </trkpt>
      <trkpt lat="41.041440000" lon="-5.809303333">
        <time>2022-06-28T10:14:14Z</time>
      </trkpt>
      <trkpt lat="41.041463333" lon="-5.809391667">
        <time>2022-06-28T10:14:15Z</time>
      </trkpt>
      <trkpt lat="41.041488333" lon="-5.809478333">
        <time>2022-06-28T10:14:16Z</time>
      </trkpt>
      <trkpt lat="41.041515000" lon="-5.809563333">
        <time>2022-06-28T10:14:17Z</time>
      </trkpt>
      <trkpt lat="41.041538333" lon="-5.809650000">
        <time>2022-06-28T10:14:18Z</time>
      </trkpt>
      <trkpt lat="41.041561667" lon="-5.809736667">
        <time>2022-06-28T10:14:19Z</time>
      </trkpt>
      <trkpt lat="41.041580000" lon="-5.809825000">
        <time>2022-06-28T10:14:20Z</time>
      </trkpt>
      <trkpt lat="41.041596667" lon="-5.809913333">
        <time>2022-06-28T10:14:21Z</time>
      </trkpt>
      <trkpt lat="41.041616667" lon="-5.810000000">
        <time>2022-06-28T10:14:22Z</time>
      </trkpt>
      <trkpt lat="41.041641667" lon="-5.810086667">
        <time>2022-06-28T10:14:23Z</time>
      </trkpt>
      <trkpt lat="41.041670000" lon="-5.810168333">
        <time>2022-06-28T10:14:24Z</time>
      </trkpt>
      <trkpt lat="41.041695000" lon="-5.810250000">
        <time>2022-06-28T10:14:25Z</time>
      </trkpt>
      <trkpt lat="41.041715000" lon="-5.810330000">
        <time>2022-06-28T10:14:26Z</time>
      </trkpt>
      <trkpt lat="41.041736667" lon="-5.810410000">
        <time>2022-06-28T10:14:27Z</time>
      </trkpt>
      <trkpt lat="41.041756667" lon="-5.810493333">
        <time>2022-06-28T10:14:28Z</time>
      </trkpt>
      <trkpt lat="41.041776667" lon="-5.810578333">
        <time>2022-06-28T10:14:29Z</time>
      </trkpt>
      <trkpt lat="41.041795000" lon="-5.810665000">
        <time>2022-06-28T10:14:30Z</time>
      </trkpt>
      <trkpt lat="41.041815000" lon="-5.810751667">
        <time>2022-06-28T10:14:31Z</time>
      </trkpt>
      <trkpt lat="41.041833333" lon="-5.810838333">
        <time>2022-06-28T10:14:32Z</time>
      </trkpt>
      <trkpt lat="41.041855000" lon="-5.810923333">
        <time>2022-06-28T10:14:33Z</time>
      </trkpt>
      <trkpt lat="41.041881667" lon="-5.811005000">
        <time>2022-06-28T10:14:34Z</time>
      </trkpt>
      <trkpt lat="41.041908333" lon="-5.811088333">
        <time>2022-06-28T10:14:35Z</time>
      </trkpt>
      <trkpt lat="41.041931667" lon="-5.811171667">
        <time>2022-06-28T10:14:36Z</time>
      </trkpt>
      <trkpt lat="41.041955000" lon="-5.811255000">
        <time>2022-06-28T10:14:37Z</time>
      </trkpt>
      <trkpt lat="41.041975000" lon="-5.811338333">
        <time>2022-06-28T10:14:38Z</time>
      </trkpt>
      <trkpt lat="41.041996667" lon="-5.811425000">
        <time>2022-06-28T10:14:39Z</time>
      </trkpt>
      <trkpt lat="41.042020000" lon="-5.811510000">
        <time>2022-06-28T10:14:40Z</time>
      </trkpt>
      <trkpt lat="41.042040000" lon="-5.811595000">
        <time>2022-06-28T10:14:41Z</time>
      </trkpt>
      <trkpt lat="41.042063333" lon="-5.811685000">
        <time>2022-06-28T10:14:42Z</time>
      </trkpt>
      <trkpt lat="41.042083333" lon="-5.811770000">
        <time>2022-06-28T10:14:43Z</time>
      </trkpt>
      <trkpt lat="41.042103333" lon="-5.811855000">
        <time>2022-06-28T10:14:44Z</time>
      </trkpt>
      <trkpt lat="41.042123333" lon="-5.811941667">
        <time>2022-06-28T10:14:45Z</time>
      </trkpt>
      <trkpt lat="41.042145000" lon="-5.812026667">
        <time>2022-06-28T10:14:46Z</time>
      </trkpt>
      <trkpt lat="41.042165000" lon="-5.812111667">
        <time>2022-06-28T10:14:47Z</time>
      </trkpt>
      <trkpt lat="41.042186667" lon="-5.812196667">
        <time>2022-06-28T10:14:48Z</time>
      </trkpt>
      <trkpt lat="41.042206667" lon="-5.812280000">
        <time>2022-06-28T10:14:49Z</time>
      </trkpt>
      <trkpt lat="41.042228333" lon="-5.812365000">
        <time>2022-06-28T10:14:50Z</time>
      </trkpt>
      <trkpt lat="41.042248333" lon="-5.812451667">
        <time>2022-06-28T10:14:51Z</time>
      </trkpt>
      <trkpt lat="41.042271667" lon="-5.812536667">
        <time>2022-06-28T10:14:52Z</time>
      </trkpt>
      <trkpt lat="41.042293333" lon="-5.812621667">
        <time>2022-06-28T10:14:53Z</time>
      </trkpt>
      <trkpt lat="41.042313333" lon="-5.812706667">
        <time>2022-06-28T10:14:54Z</time>
      </trkpt>
      <trkpt lat="41.042335000" lon="-5.812793333">
        <time>2022-06-28T10:14:55Z</time>
      </trkpt>
      <trkpt lat="41.042356667" lon="-5.812876667">
        <time>2022-06-28T10:14:56Z</time>
      </trkpt>
      <trkpt lat="41.042376667" lon="-5.812961667">
        <time>2022-06-28T10:14:57Z</time>
      </trkpt>
      <trkpt lat="41.042396667" lon="-5.813048333">
        <time>2022-06-28T10:14:58Z</time>
      </trkpt>
      <trkpt lat="41.042416667" lon="-5.813133333">
        <time>2022-06-28T10:14:59Z</time>
      </trkpt>
      <trkpt lat="41.042436667" lon="-5.813220000">
        <time>2022-06-28T10:15:00Z</time>
      </trkpt>
      <trkpt lat="41.042458333" lon="-5.813303333">
        <time>2022-06-28T10:15:01Z</time>
      </trkpt>
      <trkpt lat="41.042478333" lon="-5.813388333">
        <time>2022-06-28T10:15:02Z</time>
      </trkpt>
      <trkpt lat="41.042500000" lon="-5.813471667">
        <time>2022-06-28T10:15:03Z</time>
      </trkpt>
      <trkpt lat="41.042518333" lon="-5.813555000">
        <time>2022-06-28T10:15:04Z</time>
      </trkpt>
      <trkpt lat="41.042538333" lon="-5.813638333">
        <time>2022-06-28T10:15:05Z</time>
      </trkpt>
      <trkpt lat="41.042561667" lon="-5.813720000">
        <time>2022-06-28T10:15:06Z</time>
      </trkpt>
      <trkpt lat="41.042580000" lon="-5.813803333">
        <time>2022-06-28T10:15:07Z</time>
      </trkpt>
      <trkpt lat="41.042600000" lon="-5.813885000">
        <time>2022-06-28T10:15:08Z</time>
      </trkpt>
      <trkpt lat="41.042620000" lon="-5.813965000">
        <time>2022-06-28T10:15:09Z</time>
      </trkpt>
      <trkpt lat="41.042638333" lon="-5.814050000">
        <time>2022-06-28T10:15:10Z</time>
      </trkpt>
      <trkpt lat="41.042660000" lon="-5.814133333">
        <time>2022-06-28T10:15:11Z</time>
      </trkpt>
      <trkpt lat="41.042680000" lon="-5.814215000">
        <time>2022-06-28T10:15:12Z</time>
      </trkpt>
      <trkpt lat="41.042700000" lon="-5.814298333">
        <time>2022-06-28T10:15:13Z</time>
      </trkpt>
      <trkpt lat="41.042720000" lon="-5.814381667">
        <time>2022-06-28T10:15:14Z</time>
      </trkpt>
      <trkpt lat="41.042738333" lon="-5.814465000">
        <time>2022-06-28T10:15:15Z</time>
      </trkpt>
      <trkpt lat="41.042760000" lon="-5.814548333">
        <time>2022-06-28T10:15:16Z</time>
      </trkpt>
      <trkpt lat="41.042780000" lon="-5.814631667">
        <time>2022-06-28T10:15:17Z</time>
      </trkpt>
      <trkpt lat="41.042800000" lon="-5.814716667">
        <time>2022-06-28T10:15:18Z</time>
      </trkpt>
      <trkpt lat="41.042818333" lon="-5.814801667">
        <time>2022-06-28T10:15:19Z</time>
      </trkpt>
      <trkpt lat="41.042840000" lon="-5.814886667">
        <time>2022-06-28T10:15:20Z</time>
      </trkpt>
      <trkpt lat="41.042861667" lon="-5.814971667">
        <time>2022-06-28T10:15:21Z</time>
      </trkpt>
      <trkpt lat="41.042881667" lon="-5.815056667">
        <time>2022-06-28T10:15:22Z</time>
      </trkpt>
      <trkpt lat="41.042903333" lon="-5.815140000">
        <time>2022-06-28T10:15:23Z</time>
      </trkpt>
      <trkpt lat="41.042923333" lon="-5.815225000">
        <time>2022-06-28T10:15:24Z</time>
      </trkpt>
      <trkpt lat="41.042943333" lon="-5.815310000">
        <time>2022-06-28T10:15:25Z</time>
      </trkpt>
      <trkpt lat="41.042963333" lon="-5.815395000">
        <time>2022-06-28T10:15:26Z</time>
      </trkpt>
      <trkpt lat="41.042985000" lon="-5.815480000">
        <time>2022-06-28T10:15:27Z</time>
      </trkpt>
      <trkpt lat="41.043005000" lon="-5.815565000">
        <time>2022-06-28T10:15:28Z</time>
      </trkpt>
      <trkpt lat="41.043025000" lon="-5.815651667">
        <time>2022-06-28T10:15:29Z</time>
      </trkpt>
      <trkpt lat="41.043045000" lon="-5.815736667">
        <time>2022-06-28T10:15:30Z</time>
      </trkpt>
      <trkpt lat="41.043066667" lon="-5.815823333">
        <time>2022-06-28T10:15:31Z</time>
      </trkpt>
      <trkpt lat="41.043088333" lon="-5.815910000">
        <time>2022-06-28T10:15:32Z</time>
      </trkpt>
      <trkpt lat="41.043110000" lon="-5.815998333">
        <time>2022-06-28T10:15:33Z</time>
      </trkpt>
      <trkpt lat="41.043128333" lon="-5.816085000">
        <time>2022-06-28T10:15:34Z</time>
      </trkpt>
      <trkpt lat="41.043148333" lon="-5.816171667">
        <time>2022-06-28T10:15:35Z</time>
      </trkpt>
      <trkpt lat="41.043170000" lon="-5.816258333">
        <time>2022-06-28T10:15:36Z</time>
      </trkpt>
      <trkpt lat="41.043191667" lon="-5.816345000">
        <time>2022-06-28T10:15:37Z</time>
      </trkpt>
      <trkpt lat="41.043215000" lon="-5.816431667">
        <time>2022-06-28T10:15:38Z</time>
      </trkpt>
      <trkpt lat="41.043236667" lon="-5.816518333">
        <time>2022-06-28T10:15:39Z</time>
      </trkpt>
      <trkpt lat="41.043260000" lon="-5.816605000">
        <time>2022-06-28T10:15:40Z</time>
      </trkpt>
      <trkpt lat="41.043281667" lon="-5.816691667">
        <time>2022-06-28T10:15:41Z</time>
      </trkpt>
      <trkpt lat="41.043306667" lon="-5.816775000">
        <time>2022-06-28T10:15:42Z</time>
      </trkpt>
      <trkpt lat="41.043333333" lon="-5.816856667">
        <time>2022-06-28T10:15:43Z</time>
      </trkpt>
      <trkpt lat="41.043361667" lon="-5.816938333">
        <time>2022-06-28T10:15:44Z</time>
      </trkpt>
      <trkpt lat="41.043393333" lon="-5.817016667">
        <time>2022-06-28T10:15:45Z</time>
      </trkpt>
      <trkpt lat="41.043425000" lon="-5.817095000">
        <time>2022-06-28T10:15:46Z</time>
      </trkpt>
      <trkpt lat="41.043460000" lon="-5.817170000">
        <time>2022-06-28T10:15:47Z</time>
      </trkpt>
      <trkpt lat="41.043495000" lon="-5.817245000">
        <time>2022-06-28T10:15:48Z</time>
      </trkpt>
      <trkpt lat="41.043531667" lon="-5.817318333">
        <time>2022-06-28T10:15:49Z</time>
      </trkpt>
      <trkpt lat="41.043566667" lon="-5.817391667">
        <time>2022-06-28T10:15:50Z</time>
      </trkpt>
      <trkpt lat="41.043601667" lon="-5.817465000">
        <time>2022-06-28T10:15:51Z</time>
      </trkpt>
      <trkpt lat="41.043638333" lon="-5.817538333">
        <time>2022-06-28T10:15:52Z</time>
      </trkpt>
      <trkpt lat="41.043675000" lon="-5.817608333">
        <time>2022-06-28T10:15:53Z</time>
      </trkpt>
      <trkpt lat="41.043711667" lon="-5.817680000">
        <time>2022-06-28T10:15:54Z</time>
      </trkpt>
      <trkpt lat="41.043746667" lon="-5.817751667">
        <time>2022-06-28T10:15:55Z</time>
      </trkpt>
      <trkpt lat="41.043783333" lon="-5.817823333">
        <time>2022-06-28T10:15:56Z</time>
      </trkpt>
      <trkpt lat="41.043818333" lon="-5.817895000">
        <time>2022-06-28T10:15:57Z</time>
      </trkpt>
      <trkpt lat="41.043855000" lon="-5.817966667">
        <time>2022-06-28T10:15:58Z</time>
      </trkpt>
      <trkpt lat="41.043891667" lon="-5.818038333">
        <time>2022-06-28T10:15:59Z</time>
      </trkpt>
      <trkpt lat="41.043928333" lon="-5.818108333">
        <time>2022-06-28T10:16:00Z</time>
      </trkpt>
      <trkpt lat="41.043965000" lon="-5.818180000">
        <time>2022-06-28T10:16:01Z</time>
      </trkpt>
      <trkpt lat="41.044000000" lon="-5.818251667">
        <time>2022-06-28T10:16:02Z</time>
      </trkpt>
      <trkpt lat="41.044035000" lon="-5.818323333">
        <time>2022-06-28T10:16:03Z</time>
      </trkpt>
      <trkpt lat="41.044071667" lon="-5.818395000">
        <time>2022-06-28T10:16:04Z</time>
      </trkpt>
      <trkpt lat="41.044110000" lon="-5.818465000">
        <time>2022-06-28T10:16:05Z</time>
      </trkpt>
      <trkpt lat="41.044145000" lon="-5.818536667">
        <time>2022-06-28T10:16:06Z</time>
      </trkpt>
      <trkpt lat="41.044181667" lon="-5.818611667">
        <time>2022-06-28T10:16:07Z</time>
      </trkpt>
      <trkpt lat="41.044218333" lon="-5.818685000">
        <time>2022-06-28T10:16:08Z</time>
      </trkpt>
      <trkpt lat="41.044253333" lon="-5.818758333">
        <time>2022-06-28T10:16:09Z</time>
      </trkpt>
      <trkpt lat="41.044290000" lon="-5.818831667">
        <time>2022-06-28T10:16:10Z</time>
      </trkpt>
      <trkpt lat="41.044326667" lon="-5.818905000">
        <time>2022-06-28T10:16:11Z</time>
      </trkpt>
      <trkpt lat="41.044363333" lon="-5.818976667">
        <time>2022-06-28T10:16:12Z</time>
      </trkpt>
      <trkpt lat="41.044400000" lon="-5.819050000">
        <time>2022-06-28T10:16:13Z</time>
      </trkpt>
      <trkpt lat="41.044436667" lon="-5.819123333">
        <time>2022-06-28T10:16:14Z</time>
      </trkpt>
      <trkpt lat="41.044473333" lon="-5.819196667">
        <time>2022-06-28T10:16:15Z</time>
      </trkpt>
      <trkpt lat="41.044510000" lon="-5.819266667">
        <time>2022-06-28T10:16:16Z</time>
      </trkpt>
      <trkpt lat="41.044546667" lon="-5.819338333">
        <time>2022-06-28T10:16:17Z</time>
      </trkpt>
      <trkpt lat="41.044583333" lon="-5.819410000">
        <time>2022-06-28T10:16:18Z</time>
      </trkpt>
      <trkpt lat="41.044620000" lon="-5.819483333">
        <time>2022-06-28T10:16:19Z</time>
      </trkpt>
      <trkpt lat="41.044656667" lon="-5.819555000">
        <time>2022-06-28T10:16:20Z</time>
      </trkpt>
      <trkpt lat="41.044691667" lon="-5.819625000">
        <time>2022-06-28T10:16:21Z</time>
      </trkpt>
      <trkpt lat="41.044726667" lon="-5.819698333">
        <time>2022-06-28T10:16:22Z</time>
      </trkpt>
      <trkpt lat="41.044763333" lon="-5.819771667">
        <time>2022-06-28T10:16:23Z</time>
      </trkpt>
      <trkpt lat="41.044798333" lon="-5.819846667">
        <time>2022-06-28T10:16:24Z</time>
      </trkpt>
      <trkpt lat="41.044835000" lon="-5.819918333">
        <time>2022-06-28T10:16:25Z</time>
      </trkpt>
      <trkpt lat="41.044871667" lon="-5.819990000">
        <time>2022-06-28T10:16:26Z</time>
      </trkpt>
      <trkpt lat="41.044908333" lon="-5.820061667">
        <time>2022-06-28T10:16:27Z</time>
      </trkpt>
      <trkpt lat="41.044946667" lon="-5.820133333">
        <time>2022-06-28T10:16:28Z</time>
      </trkpt>
      <trkpt lat="41.044983333" lon="-5.820205000">
        <time>2022-06-28T10:16:29Z</time>
      </trkpt>
      <trkpt lat="41.045020000" lon="-5.820278333">
        <time>2022-06-28T10:16:30Z</time>
      </trkpt>
      <trkpt lat="41.045056667" lon="-5.820350000">
        <time>2022-06-28T10:16:31Z</time>
      </trkpt>
      <trkpt lat="41.045093333" lon="-5.820423333">
        <time>2022-06-28T10:16:32Z</time>
      </trkpt>
      <trkpt lat="41.045128333" lon="-5.820495000">
        <time>2022-06-28T10:16:33Z</time>
      </trkpt>
      <trkpt lat="41.045165000" lon="-5.820568333">
        <time>2022-06-28T10:16:34Z</time>
      </trkpt>
      <trkpt lat="41.045201667" lon="-5.820641667">
        <time>2022-06-28T10:16:35Z</time>
      </trkpt>
      <trkpt lat="41.045238333" lon="-5.820716667">
        <time>2022-06-28T10:16:36Z</time>
      </trkpt>
      <trkpt lat="41.045275000" lon="-5.820790000">
        <time>2022-06-28T10:16:37Z</time>
      </trkpt>
      <trkpt lat="41.045311667" lon="-5.820865000">
        <time>2022-06-28T10:16:38Z</time>
      </trkpt>
      <trkpt lat="41.045348333" lon="-5.820938333">
        <time>2022-06-28T10:16:39Z</time>
      </trkpt>
      <trkpt lat="41.045385000" lon="-5.821013333">
        <time>2022-06-28T10:16:40Z</time>
      </trkpt>
      <trkpt lat="41.045421667" lon="-5.821090000">
        <time>2022-06-28T10:16:41Z</time>
      </trkpt>
      <trkpt lat="41.045458333" lon="-5.821165000">
        <time>2022-06-28T10:16:42Z</time>
      </trkpt>
      <trkpt lat="41.045496667" lon="-5.821240000">
        <time>2022-06-28T10:16:43Z</time>
      </trkpt>
      <trkpt lat="41.045535000" lon="-5.821315000">
        <time>2022-06-28T10:16:44Z</time>
      </trkpt>
      <trkpt lat="41.045573333" lon="-5.821388333">
        <time>2022-06-28T10:16:45Z</time>
      </trkpt>
      <trkpt lat="41.045610000" lon="-5.821463333">
        <time>2022-06-28T10:16:46Z</time>
      </trkpt>
      <trkpt lat="41.045646667" lon="-5.821536667">
        <time>2022-06-28T10:16:47Z</time>
      </trkpt>
      <trkpt lat="41.045683333" lon="-5.821605000">
        <time>2022-06-28T10:16:48Z</time>
      </trkpt>
      <trkpt lat="41.045720000" lon="-5.821678333">
        <time>2022-06-28T10:16:49Z</time>
      </trkpt>
      <trkpt lat="41.045755000" lon="-5.821753333">
        <time>2022-06-28T10:16:50Z</time>
      </trkpt>
      <trkpt lat="41.045791667" lon="-5.821830000">
        <time>2022-06-28T10:16:51Z</time>
      </trkpt>
      <trkpt lat="41.045828333" lon="-5.821901667">
        <time>2022-06-28T10:16:52Z</time>
      </trkpt>
      <trkpt lat="41.045866667" lon="-5.821976667">
        <time>2022-06-28T10:16:53Z</time>
      </trkpt>
      <trkpt lat="41.045903333" lon="-5.822050000">
        <time>2022-06-28T10:16:54Z</time>
      </trkpt>
      <trkpt lat="41.045940000" lon="-5.822123333">
        <time>2022-06-28T10:16:55Z</time>
      </trkpt>
      <trkpt lat="41.045976667" lon="-5.822198333">
        <time>2022-06-28T10:16:56Z</time>
      </trkpt>
      <trkpt lat="41.046013333" lon="-5.822271667">
        <time>2022-06-28T10:16:57Z</time>
      </trkpt>
      <trkpt lat="41.046050000" lon="-5.822343333">
        <time>2022-06-28T10:16:58Z</time>
      </trkpt>
      <trkpt lat="41.046086667" lon="-5.822416667">
        <time>2022-06-28T10:16:59Z</time>
      </trkpt>
      <trkpt lat="41.046121667" lon="-5.822490000">
        <time>2022-06-28T10:17:00Z</time>
      </trkpt>
      <trkpt lat="41.046158333" lon="-5.822561667">
        <time>2022-06-28T10:17:01Z</time>
      </trkpt>
      <trkpt lat="41.046195000" lon="-5.822633333">
        <time>2022-06-28T10:17:02Z</time>
      </trkpt>
      <trkpt lat="41.046231667" lon="-5.822706667">
        <time>2022-06-28T10:17:03Z</time>
      </trkpt>
      <trkpt lat="41.046266667" lon="-5.822778333">
        <time>2022-06-28T10:17:04Z</time>
      </trkpt>
      <trkpt lat="41.046303333" lon="-5.822850000">
        <time>2022-06-28T10:17:05Z</time>
      </trkpt>
      <trkpt lat="41.046340000" lon="-5.822921667">
        <time>2022-06-28T10:17:06Z</time>
      </trkpt>
      <trkpt lat="41.046375000" lon="-5.822993333">
        <time>2022-06-28T10:17:07Z</time>
      </trkpt>
      <trkpt lat="41.046410000" lon="-5.823066667">
        <time>2022-06-28T10:17:08Z</time>
      </trkpt>
      <trkpt lat="41.046445000" lon="-5.823140000">
        <time>2022-06-28T10:17:09Z</time>
      </trkpt>
      <trkpt lat="41.046481667" lon="-5.823210000">
        <time>2022-06-28T10:17:10Z</time>
      </trkpt>
      <trkpt lat="41.046520000" lon="-5.823281667">
        <time>2022-06-28T10:17:11Z</time>
      </trkpt>
      <trkpt lat="41.046556667" lon="-5.823353333">
        <time>2022-06-28T10:17:12Z</time>
      </trkpt>
      <trkpt lat="41.046593333" lon="-5.823425000">
        <time>2022-06-28T10:17:13Z</time>
      </trkpt>
      <trkpt lat="41.046630000" lon="-5.823498333">
        <time>2022-06-28T10:17:14Z</time>
      </trkpt>
      <trkpt lat="41.046666667" lon="-5.823570000">
        <time>2022-06-28T10:17:15Z</time>
      </trkpt>
      <trkpt lat="41.046701667" lon="-5.823641667">
        <time>2022-06-28T10:17:16Z</time>
      </trkpt>
      <trkpt lat="41.046738333" lon="-5.823716667">
        <time>2022-06-28T10:17:17Z</time>
      </trkpt>
      <trkpt lat="41.046773333" lon="-5.823790000">
        <time>2022-06-28T10:17:18Z</time>
      </trkpt>
      <trkpt lat="41.046810000" lon="-5.823863333">
        <time>2022-06-28T10:17:19Z</time>
      </trkpt>
      <trkpt lat="41.046846667" lon="-5.823935000">
        <time>2022-06-28T10:17:20Z</time>
      </trkpt>
      <trkpt lat="41.046883333" lon="-5.824006667">
        <time>2022-06-28T10:17:21Z</time>
      </trkpt>
      <trkpt lat="41.046920000" lon="-5.824078333">
        <time>2022-06-28T10:17:22Z</time>
      </trkpt>
      <trkpt lat="41.046955000" lon="-5.824150000">
        <time>2022-06-28T10:17:23Z</time>
      </trkpt>
      <trkpt lat="41.046991667" lon="-5.824221667">
        <time>2022-06-28T10:17:24Z</time>
      </trkpt>
      <trkpt lat="41.047026667" lon="-5.824293333">
        <time>2022-06-28T10:17:25Z</time>
      </trkpt>
      <trkpt lat="41.047063333" lon="-5.824361667">
        <time>2022-06-28T10:17:26Z</time>
      </trkpt>
      <trkpt lat="41.047098333" lon="-5.824435000">
        <time>2022-06-28T10:17:27Z</time>
      </trkpt>
      <trkpt lat="41.047135000" lon="-5.824506667">
        <time>2022-06-28T10:17:28Z</time>
      </trkpt>
      <trkpt lat="41.047171667" lon="-5.824575000">
        <time>2022-06-28T10:17:29Z</time>
      </trkpt>
      <trkpt lat="41.047210000" lon="-5.824645000">
        <time>2022-06-28T10:17:30Z</time>
      </trkpt>
      <trkpt lat="41.047246667" lon="-5.824711667">
        <time>2022-06-28T10:17:31Z</time>
      </trkpt>
      <trkpt lat="41.047286667" lon="-5.824780000">
        <time>2022-06-28T10:17:32Z</time>
      </trkpt>
      <trkpt lat="41.047331667" lon="-5.824845000">
        <time>2022-06-28T10:17:33Z</time>
      </trkpt>
      <trkpt lat="41.047375000" lon="-5.824908333">
        <time>2022-06-28T10:17:34Z</time>
      </trkpt>
      <trkpt lat="41.047420000" lon="-5.824968333">
        <time>2022-06-28T10:17:35Z</time>
      </trkpt>
      <trkpt lat="41.047466667" lon="-5.825028333">
        <time>2022-06-28T10:17:36Z</time>
      </trkpt>
      <trkpt lat="41.047515000" lon="-5.825085000">
        <time>2022-06-28T10:17:37Z</time>
      </trkpt>
      <trkpt lat="41.047563333" lon="-5.825138333">
        <time>2022-06-28T10:17:38Z</time>
      </trkpt>
      <trkpt lat="41.047615000" lon="-5.825190000">
        <time>2022-06-28T10:17:39Z</time>
      </trkpt>
      <trkpt lat="41.047668333" lon="-5.825236667">
        <time>2022-06-28T10:17:40Z</time>
      </trkpt>
      <trkpt lat="41.047721667" lon="-5.825281667">
        <time>2022-06-28T10:17:41Z</time>
      </trkpt>
      <trkpt lat="41.047778333" lon="-5.825321667">
        <time>2022-06-28T10:17:42Z</time>
      </trkpt>
      <trkpt lat="41.047835000" lon="-5.825363333">
        <time>2022-06-28T10:17:43Z</time>
      </trkpt>
      <trkpt lat="41.047893333" lon="-5.825400000">
        <time>2022-06-28T10:17:44Z</time>
      </trkpt>
      <trkpt lat="41.047951667" lon="-5.825433333">
        <time>2022-06-28T10:17:45Z</time>
      </trkpt>
      <trkpt lat="41.048008333" lon="-5.825463333">
        <time>2022-06-28T10:17:46Z</time>
      </trkpt>
      <trkpt lat="41.048073333" lon="-5.825495000">
        <time>2022-06-28T10:17:47Z</time>
      </trkpt>
      <trkpt lat="41.048135000" lon="-5.825525000">
        <time>2022-06-28T10:17:48Z</time>
      </trkpt>
      <trkpt lat="41.048196667" lon="-5.825555000">
        <time>2022-06-28T10:17:49Z</time>
      </trkpt>
      <trkpt lat="41.048260000" lon="-5.825581667">
        <time>2022-06-28T10:17:50Z</time>
      </trkpt>
      <trkpt lat="41.048323333" lon="-5.825606667">
        <time>2022-06-28T10:17:51Z</time>
      </trkpt>
      <trkpt lat="41.048386667" lon="-5.825633333">
        <time>2022-06-28T10:17:52Z</time>
      </trkpt>
      <trkpt lat="41.048451667" lon="-5.825661667">
        <time>2022-06-28T10:17:53Z</time>
      </trkpt>
      <trkpt lat="41.048515000" lon="-5.825688333">
        <time>2022-06-28T10:17:54Z</time>
      </trkpt>
      <trkpt lat="41.048578333" lon="-5.825713333">
        <time>2022-06-28T10:17:55Z</time>
      </trkpt>
      <trkpt lat="41.048643333" lon="-5.825740000">
        <time>2022-06-28T10:17:56Z</time>
      </trkpt>
      <trkpt lat="41.048706667" lon="-5.825763333">
        <time>2022-06-28T10:17:57Z</time>
      </trkpt>
      <trkpt lat="41.048770000" lon="-5.825790000">
        <time>2022-06-28T10:17:58Z</time>
      </trkpt>
      <trkpt lat="41.048833333" lon="-5.825816667">
        <time>2022-06-28T10:17:59Z</time>
      </trkpt>
      <trkpt lat="41.048896667" lon="-5.825841667">
        <time>2022-06-28T10:18:00Z</time>
      </trkpt>
      <trkpt lat="41.048961667" lon="-5.825866667">
        <time>2022-06-28T10:18:01Z</time>
      </trkpt>
      <trkpt lat="41.049025000" lon="-5.825891667">
        <time>2022-06-28T10:18:02Z</time>
      </trkpt>
      <trkpt lat="41.049086667" lon="-5.825915000">
        <time>2022-06-28T10:18:03Z</time>
      </trkpt>
      <trkpt lat="41.049146667" lon="-5.825940000">
        <time>2022-06-28T10:18:04Z</time>
      </trkpt>
      <trkpt lat="41.049213333" lon="-5.825965000">
        <time>2022-06-28T10:18:05Z</time>
      </trkpt>
      <trkpt lat="41.049278333" lon="-5.825990000">
        <time>2022-06-28T10:18:06Z</time>
      </trkpt>
      <trkpt lat="41.049343333" lon="-5.826015000">
        <time>2022-06-28T10:18:07Z</time>
      </trkpt>
      <trkpt lat="41.049408333" lon="-5.826041667">
        <time>2022-06-28T10:18:08Z</time>
      </trkpt>
      <trkpt lat="41.049471667" lon="-5.826068333">
        <time>2022-06-28T10:18:09Z</time>
      </trkpt>
      <trkpt lat="41.049535000" lon="-5.826093333">
        <time>2022-06-28T10:18:10Z</time>
      </trkpt>
      <trkpt lat="41.049600000" lon="-5.826118333">
        <time>2022-06-28T10:18:11Z</time>
      </trkpt>
      <trkpt lat="41.049661667" lon="-5.826143333">
        <time>2022-06-28T10:18:12Z</time>
      </trkpt>
      <trkpt lat="41.049725000" lon="-5.826168333">
        <time>2022-06-28T10:18:13Z</time>
      </trkpt>
      <trkpt lat="41.049788333" lon="-5.826186667">
        <time>2022-06-28T10:18:14Z</time>
      </trkpt>
      <trkpt lat="41.049853333" lon="-5.826210000">
        <time>2022-06-28T10:18:15Z</time>
      </trkpt>
      <trkpt lat="41.049916667" lon="-5.826233333">
        <time>2022-06-28T10:18:16Z</time>
      </trkpt>
      <trkpt lat="41.049980000" lon="-5.826256667">
        <time>2022-06-28T10:18:17Z</time>
      </trkpt>
      <trkpt lat="41.050045000" lon="-5.826285000">
        <time>2022-06-28T10:18:18Z</time>
      </trkpt>
      <trkpt lat="41.050108333" lon="-5.826310000">
        <time>2022-06-28T10:18:19Z</time>
      </trkpt>
      <trkpt lat="41.050171667" lon="-5.826335000">
        <time>2022-06-28T10:18:20Z</time>
      </trkpt>
      <trkpt lat="41.050233333" lon="-5.826360000">
        <time>2022-06-28T10:18:21Z</time>
      </trkpt>
      <trkpt lat="41.050296667" lon="-5.826385000">
        <time>2022-06-28T10:18:22Z</time>
      </trkpt>
      <trkpt lat="41.050358333" lon="-5.826410000">
        <time>2022-06-28T10:18:23Z</time>
      </trkpt>
      <trkpt lat="41.050421667" lon="-5.826436667">
        <time>2022-06-28T10:18:24Z</time>
      </trkpt>
      <trkpt lat="41.050486667" lon="-5.826465000">
        <time>2022-06-28T10:18:25Z</time>
      </trkpt>
      <trkpt lat="41.050550000" lon="-5.826493333">
        <time>2022-06-28T10:18:26Z</time>
      </trkpt>
      <trkpt lat="41.050615000" lon="-5.826521667">
        <time>2022-06-28T10:18:27Z</time>
      </trkpt>
      <trkpt lat="41.050676667" lon="-5.826551667">
        <time>2022-06-28T10:18:28Z</time>
      </trkpt>
      <trkpt lat="41.050740000" lon="-5.826583333">
        <time>2022-06-28T10:18:29Z</time>
      </trkpt>
      <trkpt lat="41.050801667" lon="-5.826618333">
        <time>2022-06-28T10:18:30Z</time>
      </trkpt>
      <trkpt lat="41.050863333" lon="-5.826653333">
        <time>2022-06-28T10:18:31Z</time>
      </trkpt>
      <trkpt lat="41.050923333" lon="-5.826691667">
        <time>2022-06-28T10:18:32Z</time>
      </trkpt>
      <trkpt lat="41.050983333" lon="-5.826730000">
        <time>2022-06-28T10:18:33Z</time>
      </trkpt>
      <trkpt lat="41.051041667" lon="-5.826768333">
        <time>2022-06-28T10:18:34Z</time>
      </trkpt>
      <trkpt lat="41.051098333" lon="-5.826810000">
        <time>2022-06-28T10:18:35Z</time>
      </trkpt>
      <trkpt lat="41.051153333" lon="-5.826855000">
        <time>2022-06-28T10:18:36Z</time>
      </trkpt>
      <trkpt lat="41.051206667" lon="-5.826903333">
        <time>2022-06-28T10:18:37Z</time>
      </trkpt>
      <trkpt lat="41.051258333" lon="-5.826956667">
        <time>2022-06-28T10:18:38Z</time>
      </trkpt>
      <trkpt lat="41.051308333" lon="-5.827013333">
        <time>2022-06-28T10:18:39Z</time>
      </trkpt>
      <trkpt lat="41.051360000" lon="-5.827070000">
        <time>2022-06-28T10:18:40Z</time>
      </trkpt>
      <trkpt lat="41.051410000" lon="-5.827126667">
        <time>2022-06-28T10:18:41Z</time>
      </trkpt>
      <trkpt lat="41.051460000" lon="-5.827185000">
        <time>2022-06-28T10:18:42Z</time>
      </trkpt>
      <trkpt lat="41.051508333" lon="-5.827245000">
        <time>2022-06-28T10:18:43Z</time>
      </trkpt>
      <trkpt lat="41.051556667" lon="-5.827305000">
        <time>2022-06-28T10:18:44Z</time>
      </trkpt>
      <trkpt lat="41.051605000" lon="-5.827368333">
        <time>2022-06-28T10:18:45Z</time>
      </trkpt>
      <trkpt lat="41.051653333" lon="-5.827430000">
        <time>2022-06-28T10:18:46Z</time>
      </trkpt>
      <trkpt lat="41.051701667" lon="-5.827491667">
        <time>2022-06-28T10:18:47Z</time>
      </trkpt>
      <trkpt lat="41.051750000" lon="-5.827553333">
        <time>2022-06-28T10:18:48Z</time>
      </trkpt>
      <trkpt lat="41.051800000" lon="-5.827616667">
        <time>2022-06-28T10:18:49Z</time>
      </trkpt>
      <trkpt lat="41.051848333" lon="-5.827678333">
        <time>2022-06-28T10:18:50Z</time>
      </trkpt>
      <trkpt lat="41.051898333" lon="-5.827740000">
        <time>2022-06-28T10:18:51Z</time>
      </trkpt>
      <trkpt lat="41.051946667" lon="-5.827803333">
        <time>2022-06-28T10:18:52Z</time>
      </trkpt>
      <trkpt lat="41.051996667" lon="-5.827866667">
        <time>2022-06-28T10:18:53Z</time>
      </trkpt>
      <trkpt lat="41.052043333" lon="-5.827930000">
        <time>2022-06-28T10:18:54Z</time>
      </trkpt>
      <trkpt lat="41.052091667" lon="-5.827991667">
        <time>2022-06-28T10:18:55Z</time>
      </trkpt>
      <trkpt lat="41.052140000" lon="-5.828053333">
        <time>2022-06-28T10:18:56Z</time>
      </trkpt>
      <trkpt lat="41.052188333" lon="-5.828115000">
        <time>2022-06-28T10:18:57Z</time>
      </trkpt>
      <trkpt lat="41.052236667" lon="-5.828178333">
        <time>2022-06-28T10:18:58Z</time>
      </trkpt>
      <trkpt lat="41.052286667" lon="-5.828241667">
        <time>2022-06-28T10:18:59Z</time>
      </trkpt>
      <trkpt lat="41.052335000" lon="-5.828306667">
        <time>2022-06-28T10:19:00Z</time>
      </trkpt>
      <trkpt lat="41.052383333" lon="-5.828370000">
        <time>2022-06-28T10:19:01Z</time>
      </trkpt>
      <trkpt lat="41.052431667" lon="-5.828433333">
        <time>2022-06-28T10:19:02Z</time>
      </trkpt>
      <trkpt lat="41.052480000" lon="-5.828496667">
        <time>2022-06-28T10:19:03Z</time>
      </trkpt>
      <trkpt lat="41.052530000" lon="-5.828560000">
        <time>2022-06-28T10:19:04Z</time>
      </trkpt>
      <trkpt lat="41.052580000" lon="-5.828623333">
        <time>2022-06-28T10:19:05Z</time>
      </trkpt>
      <trkpt lat="41.052630000" lon="-5.828686667">
        <time>2022-06-28T10:19:06Z</time>
      </trkpt>
      <trkpt lat="41.052680000" lon="-5.828748333">
        <time>2022-06-28T10:19:07Z</time>
      </trkpt>
      <trkpt lat="41.052730000" lon="-5.828811667">
        <time>2022-06-28T10:19:08Z</time>
      </trkpt>
      <trkpt lat="41.052778333" lon="-5.828873333">
        <time>2022-06-28T10:19:09Z</time>
      </trkpt>
      <trkpt lat="41.052826667" lon="-5.828936667">
        <time>2022-06-28T10:19:10Z</time>
      </trkpt>
      <trkpt lat="41.052876667" lon="-5.829000000">
        <time>2022-06-28T10:19:11Z</time>
      </trkpt>
      <trkpt lat="41.052926667" lon="-5.829061667">
        <time>2022-06-28T10:19:12Z</time>
      </trkpt>
      <trkpt lat="41.052975000" lon="-5.829123333">
        <time>2022-06-28T10:19:13Z</time>
      </trkpt>
      <trkpt lat="41.053028333" lon="-5.829180000">
        <time>2022-06-28T10:19:14Z</time>
      </trkpt>
      <trkpt lat="41.053076667" lon="-5.829240000">
        <time>2022-06-28T10:19:15Z</time>
      </trkpt>
      <trkpt lat="41.053125000" lon="-5.829303333">
        <time>2022-06-28T10:19:16Z</time>
      </trkpt>
      <trkpt lat="41.053171667" lon="-5.829365000">
        <time>2022-06-28T10:19:17Z</time>
      </trkpt>
      <trkpt lat="41.053221667" lon="-5.829426667">
        <time>2022-06-28T10:19:18Z</time>
      </trkpt>
      <trkpt lat="41.053270000" lon="-5.829488333">
        <time>2022-06-28T10:19:19Z</time>
      </trkpt>
      <trkpt lat="41.053316667" lon="-5.829551667">
        <time>2022-06-28T10:19:20Z</time>
      </trkpt>
      <trkpt lat="41.053365000" lon="-5.829613333">
        <time>2022-06-28T10:19:21Z</time>
      </trkpt>
      <trkpt lat="41.053413333" lon="-5.829673333">
        <time>2022-06-28T10:19:22Z</time>
      </trkpt>
      <trkpt lat="41.053461667" lon="-5.829733333">
        <time>2022-06-28T10:19:23Z</time>
      </trkpt>
      <trkpt lat="41.053510000" lon="-5.829793333">
        <time>2022-06-28T10:19:24Z</time>
      </trkpt>
      <trkpt lat="41.053558333" lon="-5.829856667">
        <time>2022-06-28T10:19:25Z</time>
      </trkpt>
      <trkpt lat="41.053606667" lon="-5.829918333">
        <time>2022-06-28T10:19:26Z</time>
      </trkpt>
      <trkpt lat="41.053655000" lon="-5.829980000">
        <time>2022-06-28T10:19:27Z</time>
      </trkpt>
      <trkpt lat="41.053703333" lon="-5.830041667">
        <time>2022-06-28T10:19:28Z</time>
      </trkpt>
      <trkpt lat="41.053751667" lon="-5.830103333">
        <time>2022-06-28T10:19:29Z</time>
      </trkpt>
      <trkpt lat="41.053801667" lon="-5.830166667">
        <time>2022-06-28T10:19:30Z</time>
      </trkpt>
      <trkpt lat="41.053851667" lon="-5.830226667">
        <time>2022-06-28T10:19:31Z</time>
      </trkpt>
      <trkpt lat="41.053901667" lon="-5.830288333">
        <time>2022-06-28T10:19:32Z</time>
      </trkpt>
      <trkpt lat="41.053950000" lon="-5.830350000">
        <time>2022-06-28T10:19:33Z</time>
      </trkpt>
      <trkpt lat="41.054000000" lon="-5.830413333">
        <time>2022-06-28T10:19:34Z</time>
      </trkpt>
      <trkpt lat="41.054050000" lon="-5.830476667">
        <time>2022-06-28T10:19:35Z</time>
      </trkpt>
      <trkpt lat="41.054098333" lon="-5.830536667">
        <time>2022-06-28T10:19:36Z</time>
      </trkpt>
      <trkpt lat="41.054148333" lon="-5.830598333">
        <time>2022-06-28T10:19:37Z</time>
      </trkpt>
      <trkpt lat="41.054198333" lon="-5.830660000">
        <time>2022-06-28T10:19:38Z</time>
      </trkpt>
      <trkpt lat="41.054246667" lon="-5.830723333">
        <time>2022-06-28T10:19:39Z</time>
      </trkpt>
      <trkpt lat="41.054295000" lon="-5.830786667">
        <time>2022-06-28T10:19:40Z</time>
      </trkpt>
      <trkpt lat="41.054343333" lon="-5.830850000">
        <time>2022-06-28T10:19:41Z</time>
      </trkpt>
      <trkpt lat="41.054391667" lon="-5.830913333">
        <time>2022-06-28T10:19:42Z</time>
      </trkpt>
      <trkpt lat="41.054440000" lon="-5.830976667">
        <time>2022-06-28T10:19:43Z</time>
      </trkpt>
      <trkpt lat="41.054490000" lon="-5.831038333">
        <time>2022-06-28T10:19:44Z</time>
      </trkpt>
      <trkpt lat="41.054540000" lon="-5.831098333">
        <time>2022-06-28T10:19:45Z</time>
      </trkpt>
      <trkpt lat="41.054590000" lon="-5.831160000">
        <time>2022-06-28T10:19:46Z</time>
      </trkpt>
      <trkpt lat="41.054638333" lon="-5.831220000">
        <time>2022-06-28T10:19:47Z</time>
      </trkpt>
      <trkpt lat="41.054688333" lon="-5.831281667">
        <time>2022-06-28T10:19:48Z</time>
      </trkpt>
      <trkpt lat="41.054736667" lon="-5.831341667">
        <time>2022-06-28T10:19:49Z</time>
      </trkpt>
      <trkpt lat="41.054783333" lon="-5.831403333">
        <time>2022-06-28T10:19:50Z</time>
      </trkpt>
      <trkpt lat="41.054831667" lon="-5.831463333">
        <time>2022-06-28T10:19:51Z</time>
      </trkpt>
      <trkpt lat="41.054878333" lon="-5.831525000">
        <time>2022-06-28T10:19:52Z</time>
      </trkpt>
      <trkpt lat="41.054925000" lon="-5.831586667">
        <time>2022-06-28T10:19:53Z</time>
      </trkpt>
      <trkpt lat="41.054971667" lon="-5.831648333">
        <time>2022-06-28T10:19:54Z</time>
      </trkpt>
      <trkpt lat="41.055018333" lon="-5.831711667">
        <time>2022-06-28T10:19:55Z</time>
      </trkpt>
      <trkpt lat="41.055065000" lon="-5.831773333">
        <time>2022-06-28T10:19:56Z</time>
      </trkpt>
      <trkpt lat="41.055111667" lon="-5.831836667">
        <time>2022-06-28T10:19:57Z</time>
      </trkpt>
      <trkpt lat="41.055158333" lon="-5.831900000">
        <time>2022-06-28T10:19:58Z</time>
      </trkpt>
      <trkpt lat="41.055201667" lon="-5.831963333">
        <time>2022-06-28T10:19:59Z</time>
      </trkpt>
      <trkpt lat="41.055246667" lon="-5.832028333">
        <time>2022-06-28T10:20:00Z</time>
      </trkpt>
      <trkpt lat="41.055291667" lon="-5.832093333">
        <time>2022-06-28T10:20:01Z</time>
      </trkpt>
      <trkpt lat="41.055335000" lon="-5.832161667">
        <time>2022-06-28T10:20:02Z</time>
      </trkpt>
      <trkpt lat="41.055376667" lon="-5.832230000">
        <time>2022-06-28T10:20:03Z</time>
      </trkpt>
      <trkpt lat="41.055420000" lon="-5.832300000">
        <time>2022-06-28T10:20:04Z</time>
      </trkpt>
      <trkpt lat="41.055460000" lon="-5.832371667">
        <time>2022-06-28T10:20:05Z</time>
      </trkpt>
      <trkpt lat="41.055500000" lon="-5.832445000">
        <time>2022-06-28T10:20:06Z</time>
      </trkpt>
      <trkpt lat="41.055536667" lon="-5.832521667">
        <time>2022-06-28T10:20:07Z</time>
      </trkpt>
      <trkpt lat="41.055575000" lon="-5.832595000">
        <time>2022-06-28T10:20:08Z</time>
      </trkpt>
      <trkpt lat="41.055610000" lon="-5.832671667">
        <time>2022-06-28T10:20:09Z</time>
      </trkpt>
      <trkpt lat="41.055643333" lon="-5.832750000">
        <time>2022-06-28T10:20:10Z</time>
      </trkpt>
      <trkpt lat="41.055673333" lon="-5.832830000">
        <time>2022-06-28T10:20:11Z</time>
      </trkpt>
      <trkpt lat="41.055705000" lon="-5.832908333">
        <time>2022-06-28T10:20:12Z</time>
      </trkpt>
      <trkpt lat="41.055738333" lon="-5.832985000">
        <time>2022-06-28T10:20:13Z</time>
      </trkpt>
      <trkpt lat="41.055770000" lon="-5.833065000">
        <time>2022-06-28T10:20:14Z</time>
      </trkpt>
      <trkpt lat="41.055803333" lon="-5.833143333">
        <time>2022-06-28T10:20:15Z</time>
      </trkpt>
      <trkpt lat="41.055838333" lon="-5.833223333">
        <time>2022-06-28T10:20:16Z</time>
      </trkpt>
      <trkpt lat="41.055871667" lon="-5.833303333">
        <time>2022-06-28T10:20:17Z</time>
      </trkpt>
      <trkpt lat="41.055905000" lon="-5.833385000">
        <time>2022-06-28T10:20:18Z</time>
      </trkpt>
      <trkpt lat="41.055938333" lon="-5.833468333">
        <time>2022-06-28T10:20:19Z</time>
      </trkpt>
      <trkpt lat="41.055973333" lon="-5.833553333">
        <time>2022-06-28T10:20:20Z</time>
      </trkpt>
      <trkpt lat="41.056005000" lon="-5.833638333">
        <time>2022-06-28T10:20:21Z</time>
      </trkpt>
      <trkpt lat="41.056043333" lon="-5.833721667">
        <time>2022-06-28T10:20:22Z</time>
      </trkpt>
      <trkpt lat="41.056078333" lon="-5.833803333">
        <time>2022-06-28T10:20:23Z</time>
      </trkpt>
      <trkpt lat="41.056110000" lon="-5.833888333">
        <time>2022-06-28T10:20:24Z</time>
      </trkpt>
      <trkpt lat="41.056145000" lon="-5.833973333">
        <time>2022-06-28T10:20:25Z</time>
      </trkpt>
      <trkpt lat="41.056178333" lon="-5.834056667">
        <time>2022-06-28T10:20:26Z</time>
      </trkpt>
      <trkpt lat="41.056213333" lon="-5.834141667">
        <time>2022-06-28T10:20:27Z</time>
      </trkpt>
      <trkpt lat="41.056251667" lon="-5.834226667">
        <time>2022-06-28T10:20:28Z</time>
      </trkpt>
      <trkpt lat="41.056288333" lon="-5.834313333">
        <time>2022-06-28T10:20:29Z</time>
      </trkpt>
      <trkpt lat="41.056323333" lon="-5.834403333">
        <time>2022-06-28T10:20:30Z</time>
      </trkpt>
      <trkpt lat="41.056360000" lon="-5.834496667">
        <time>2022-06-28T10:20:31Z</time>
      </trkpt>
      <trkpt lat="41.056398333" lon="-5.834588333">
        <time>2022-06-28T10:20:32Z</time>
      </trkpt>
      <trkpt lat="41.056438333" lon="-5.834681667">
        <time>2022-06-28T10:20:33Z</time>
      </trkpt>
      <trkpt lat="41.056478333" lon="-5.834776667">
        <time>2022-06-28T10:20:34Z</time>
      </trkpt>
      <trkpt lat="41.056521667" lon="-5.834871667">
        <time>2022-06-28T10:20:35Z</time>
      </trkpt>
      <trkpt lat="41.056563333" lon="-5.834968333">
        <time>2022-06-28T10:20:36Z</time>
      </trkpt>
      <trkpt lat="41.056606667" lon="-5.835066667">
        <time>2022-06-28T10:20:37Z</time>
      </trkpt>
      <trkpt lat="41.056648333" lon="-5.835165000">
        <time>2022-06-28T10:20:38Z</time>
      </trkpt>
      <trkpt lat="41.056690000" lon="-5.835265000">
        <time>2022-06-28T10:20:39Z</time>
      </trkpt>
      <trkpt lat="41.056730000" lon="-5.835363333">
        <time>2022-06-28T10:20:40Z</time>
      </trkpt>
      <trkpt lat="41.056770000" lon="-5.835461667">
        <time>2022-06-28T10:20:41Z</time>
      </trkpt>
      <trkpt lat="41.056808333" lon="-5.835558333">
        <time>2022-06-28T10:20:42Z</time>
      </trkpt>
      <trkpt lat="41.056846667" lon="-5.835653333">
        <time>2022-06-28T10:20:43Z</time>
      </trkpt>
      <trkpt lat="41.056883333" lon="-5.835746667">
        <time>2022-06-28T10:20:44Z</time>
      </trkpt>
      <trkpt lat="41.056921667" lon="-5.835836667">
        <time>2022-06-28T10:20:45Z</time>
      </trkpt>
      <trkpt lat="41.056956667" lon="-5.835925000">
        <time>2022-06-28T10:20:46Z</time>
      </trkpt>
      <trkpt lat="41.056991667" lon="-5.836011667">
        <time>2022-06-28T10:20:47Z</time>
      </trkpt>
      <trkpt lat="41.057026667" lon="-5.836096667">
        <time>2022-06-28T10:20:48Z</time>
      </trkpt>
      <trkpt lat="41.057061667" lon="-5.836180000">
        <time>2022-06-28T10:20:49Z</time>
      </trkpt>
      <trkpt lat="41.057096667" lon="-5.836261667">
        <time>2022-06-28T10:20:50Z</time>
      </trkpt>
      <trkpt lat="41.057130000" lon="-5.836343333">
        <time>2022-06-28T10:20:51Z</time>
      </trkpt>
      <trkpt lat="41.057163333" lon="-5.836425000">
        <time>2022-06-28T10:20:52Z</time>
      </trkpt>
      <trkpt lat="41.057198333" lon="-5.836506667">
        <time>2022-06-28T10:20:53Z</time>
      </trkpt>
      <trkpt lat="41.057231667" lon="-5.836585000">
        <time>2022-06-28T10:20:54Z</time>
      </trkpt>
      <trkpt lat="41.057266667" lon="-5.836663333">
        <time>2022-06-28T10:20:55Z</time>
      </trkpt>
      <trkpt lat="41.057300000" lon="-5.836743333">
        <time>2022-06-28T10:20:56Z</time>
      </trkpt>
      <trkpt lat="41.057331667" lon="-5.836820000">
        <time>2022-06-28T10:20:57Z</time>
      </trkpt>
      <trkpt lat="41.057363333" lon="-5.836898333">
        <time>2022-06-28T10:20:58Z</time>
      </trkpt>
      <trkpt lat="41.057396667" lon="-5.836975000">
        <time>2022-06-28T10:20:59Z</time>
      </trkpt>
      <trkpt lat="41.057428333" lon="-5.837051667">
        <time>2022-06-28T10:21:00Z</time>
      </trkpt>
      <trkpt lat="41.057460000" lon="-5.837130000">
        <time>2022-06-28T10:21:01Z</time>
      </trkpt>
      <trkpt lat="41.057491667" lon="-5.837208333">
        <time>2022-06-28T10:21:02Z</time>
      </trkpt>
      <trkpt lat="41.057523333" lon="-5.837288333">
        <time>2022-06-28T10:21:03Z</time>
      </trkpt>
      <trkpt lat="41.057555000" lon="-5.837366667">
        <time>2022-06-28T10:21:04Z</time>
      </trkpt>
      <trkpt lat="41.057588333" lon="-5.837443333">
        <time>2022-06-28T10:21:05Z</time>
      </trkpt>
      <trkpt lat="41.057618333" lon="-5.837520000">
        <time>2022-06-28T10:21:06Z</time>
      </trkpt>
      <trkpt lat="41.057648333" lon="-5.837598333">
        <time>2022-06-28T10:21:07Z</time>
      </trkpt>
      <trkpt lat="41.057678333" lon="-5.837676667">
        <time>2022-06-28T10:21:08Z</time>
      </trkpt>
      <trkpt lat="41.057706667" lon="-5.837753333">
        <time>2022-06-28T10:21:09Z</time>
      </trkpt>
      <trkpt lat="41.057733333" lon="-5.837833333">
        <time>2022-06-28T10:21:10Z</time>
      </trkpt>
      <trkpt lat="41.057756667" lon="-5.837916667">
        <time>2022-06-28T10:21:11Z</time>
      </trkpt>
      <trkpt lat="41.057780000" lon="-5.837998333">
        <time>2022-06-28T10:21:12Z</time>
      </trkpt>
      <trkpt lat="41.057803333" lon="-5.838080000">
        <time>2022-06-28T10:21:13Z</time>
      </trkpt>
      <trkpt lat="41.057823333" lon="-5.838163333">
        <time>2022-06-28T10:21:14Z</time>
      </trkpt>
      <trkpt lat="41.057843333" lon="-5.838246667">
        <time>2022-06-28T10:21:15Z</time>
      </trkpt>
      <trkpt lat="41.057861667" lon="-5.838333333">
        <time>2022-06-28T10:21:16Z</time>
      </trkpt>
      <trkpt lat="41.057878333" lon="-5.838420000">
        <time>2022-06-28T10:21:17Z</time>
      </trkpt>
      <trkpt lat="41.057896667" lon="-5.838506667">
        <time>2022-06-28T10:21:18Z</time>
      </trkpt>
      <trkpt lat="41.057915000" lon="-5.838593333">
        <time>2022-06-28T10:21:19Z</time>
      </trkpt>
      <trkpt lat="41.057931667" lon="-5.838683333">
        <time>2022-06-28T10:21:20Z</time>
      </trkpt>
      <trkpt lat="41.057946667" lon="-5.838773333">
        <time>2022-06-28T10:21:21Z</time>
      </trkpt>
      <trkpt lat="41.057961667" lon="-5.838863333">
        <time>2022-06-28T10:21:22Z</time>
      </trkpt>
      <trkpt lat="41.057975000" lon="-5.838953333">
        <time>2022-06-28T10:21:23Z</time>
      </trkpt>
      <trkpt lat="41.057991667" lon="-5.839045000">
        <time>2022-06-28T10:21:24Z</time>
      </trkpt>
      <trkpt lat="41.058008333" lon="-5.839136667">
        <time>2022-06-28T10:21:25Z</time>
      </trkpt>
      <trkpt lat="41.058026667" lon="-5.839225000">
        <time>2022-06-28T10:21:26Z</time>
      </trkpt>
      <trkpt lat="41.058041667" lon="-5.839313333">
        <time>2022-06-28T10:21:27Z</time>
      </trkpt>
      <trkpt lat="41.058056667" lon="-5.839400000">
        <time>2022-06-28T10:21:28Z</time>
      </trkpt>
      <trkpt lat="41.058071667" lon="-5.839486667">
        <time>2022-06-28T10:21:29Z</time>
      </trkpt>
      <trkpt lat="41.058086667" lon="-5.839571667">
        <time>2022-06-28T10:21:30Z</time>
      </trkpt>
      <trkpt lat="41.058100000" lon="-5.839656667">
        <time>2022-06-28T10:21:31Z</time>
      </trkpt>
      <trkpt lat="41.058115000" lon="-5.839741667">
        <time>2022-06-28T10:21:32Z</time>
      </trkpt>
      <trkpt lat="41.058130000" lon="-5.839826667">
        <time>2022-06-28T10:21:33Z</time>
      </trkpt>
      <trkpt lat="41.058146667" lon="-5.839915000">
        <time>2022-06-28T10:21:34Z</time>
      </trkpt>
      <trkpt lat="41.058161667" lon="-5.840005000">
        <time>2022-06-28T10:21:35Z</time>
      </trkpt>
      <trkpt lat="41.058178333" lon="-5.840096667">
        <time>2022-06-28T10:21:36Z</time>
      </trkpt>
      <trkpt lat="41.058196667" lon="-5.840188333">
        <time>2022-06-28T10:21:37Z</time>
      </trkpt>
      <trkpt lat="41.058215000" lon="-5.840280000">
        <time>2022-06-28T10:21:38Z</time>
      </trkpt>
      <trkpt lat="41.058233333" lon="-5.840370000">
        <time>2022-06-28T10:21:39Z</time>
      </trkpt>
      <trkpt lat="41.058251667" lon="-5.840460000">
        <time>2022-06-28T10:21:40Z</time>
      </trkpt>
      <trkpt lat="41.058271667" lon="-5.840550000">
        <time>2022-06-28T10:21:41Z</time>
      </trkpt>
      <trkpt lat="41.058291667" lon="-5.840638333">
        <time>2022-06-28T10:21:42Z</time>
      </trkpt>
      <trkpt lat="41.058311667" lon="-5.840726667">
        <time>2022-06-28T10:21:43Z</time>
      </trkpt>
      <trkpt lat="41.058335000" lon="-5.840813333">
        <time>2022-06-28T10:21:44Z</time>
      </trkpt>
      <trkpt lat="41.058360000" lon="-5.840900000">
        <time>2022-06-28T10:21:45Z</time>
      </trkpt>
      <trkpt lat="41.058386667" lon="-5.840985000">
        <time>2022-06-28T10:21:46Z</time>
      </trkpt>
      <trkpt lat="41.058415000" lon="-5.841068333">
        <time>2022-06-28T10:21:47Z</time>
      </trkpt>
      <trkpt lat="41.058445000" lon="-5.841153333">
        <time>2022-06-28T10:21:48Z</time>
      </trkpt>
      <trkpt lat="41.058475000" lon="-5.841238333">
        <time>2022-06-28T10:21:49Z</time>
      </trkpt>
      <trkpt lat="41.058503333" lon="-5.841323333">
        <time>2022-06-28T10:21:50Z</time>
      </trkpt>
      <trkpt lat="41.058531667" lon="-5.841406667">
        <time>2022-06-28T10:21:51Z</time>
      </trkpt>
      <trkpt lat="41.058560000" lon="-5.841491667">
        <time>2022-06-28T10:21:52Z</time>
      </trkpt>
      <trkpt lat="41.058591667" lon="-5.841575000">
        <time>2022-06-28T10:21:53Z</time>
      </trkpt>
      <trkpt lat="41.058623333" lon="-5.841658333">
        <time>2022-06-28T10:21:54Z</time>
      </trkpt>
      <trkpt lat="41.058653333" lon="-5.841741667">
        <time>2022-06-28T10:21:55Z</time>
      </trkpt>
      <trkpt lat="41.058683333" lon="-5.841825000">
        <time>2022-06-28T10:21:56Z</time>
      </trkpt>
      <trkpt lat="41.058715000" lon="-5.841908333">
        <time>2022-06-28T10:21:57Z</time>
      </trkpt>
      <trkpt lat="41.058745000" lon="-5.841991667">
        <time>2022-06-28T10:21:58Z</time>
      </trkpt>
      <trkpt lat="41.058776667" lon="-5.842075000">
        <time>2022-06-28T10:21:59Z</time>
      </trkpt>
      <trkpt lat="41.058808333" lon="-5.842158333">
        <time>2022-06-28T10:22:00Z</time>
      </trkpt>
      <trkpt lat="41.058840000" lon="-5.842240000">
        <time>2022-06-28T10:22:01Z</time>
      </trkpt>
      <trkpt lat="41.058870000" lon="-5.842323333">
        <time>2022-06-28T10:22:02Z</time>
      </trkpt>
      <trkpt lat="41.058901667" lon="-5.842406667">
        <time>2022-06-28T10:22:03Z</time>
      </trkpt>
      <trkpt lat="41.058933333" lon="-5.842488333">
        <time>2022-06-28T10:22:04Z</time>
      </trkpt>
      <trkpt lat="41.058966667" lon="-5.842570000">
        <time>2022-06-28T10:22:05Z</time>
      </trkpt>
      <trkpt lat="41.059000000" lon="-5.842651667">
        <time>2022-06-28T10:22:06Z</time>
      </trkpt>
      <trkpt lat="41.059031667" lon="-5.842733333">
        <time>2022-06-28T10:22:07Z</time>
      </trkpt>
      <trkpt lat="41.059063333" lon="-5.842815000">
        <time>2022-06-28T10:22:08Z</time>
      </trkpt>
      <trkpt lat="41.059095000" lon="-5.842896667">
        <time>2022-06-28T10:22:09Z</time>
      </trkpt>
      <trkpt lat="41.059128333" lon="-5.842976667">
        <time>2022-06-28T10:22:10Z</time>
      </trkpt>
      <trkpt lat="41.059161667" lon="-5.843058333">
        <time>2022-06-28T10:22:11Z</time>
      </trkpt>
      <trkpt lat="41.059193333" lon="-5.843138333">
        <time>2022-06-28T10:22:12Z</time>
      </trkpt>
      <trkpt lat="41.059225000" lon="-5.843220000">
        <time>2022-06-28T10:22:13Z</time>
      </trkpt>
      <trkpt lat="41.059256667" lon="-5.843300000">
        <time>2022-06-28T10:22:14Z</time>
      </trkpt>
      <trkpt lat="41.059288333" lon="-5.843381667">
        <time>2022-06-28T10:22:15Z</time>
      </trkpt>
      <trkpt lat="41.059318333" lon="-5.843461667">
        <time>2022-06-28T10:22:16Z</time>
      </trkpt>
      <trkpt lat="41.059348333" lon="-5.843541667">
        <time>2022-06-28T10:22:17Z</time>
      </trkpt>
      <trkpt lat="41.059380000" lon="-5.843621667">
        <time>2022-06-28T10:22:18Z</time>
      </trkpt>
      <trkpt lat="41.059410000" lon="-5.843700000">
        <time>2022-06-28T10:22:19Z</time>
      </trkpt>
      <trkpt lat="41.059440000" lon="-5.843780000">
        <time>2022-06-28T10:22:20Z</time>
      </trkpt>
      <trkpt lat="41.059471667" lon="-5.843858333">
        <time>2022-06-28T10:22:21Z</time>
      </trkpt>
      <trkpt lat="41.059503333" lon="-5.843938333">
        <time>2022-06-28T10:22:22Z</time>
      </trkpt>
      <trkpt lat="41.059533333" lon="-5.844016667">
        <time>2022-06-28T10:22:23Z</time>
      </trkpt>
      <trkpt lat="41.059563333" lon="-5.844096667">
        <time>2022-06-28T10:22:24Z</time>
      </trkpt>
      <trkpt lat="41.059593333" lon="-5.844178333">
        <time>2022-06-28T10:22:25Z</time>
      </trkpt>
      <trkpt lat="41.059625000" lon="-5.844260000">
        <time>2022-06-28T10:22:26Z</time>
      </trkpt>
      <trkpt lat="41.059655000" lon="-5.844341667">
        <time>2022-06-28T10:22:27Z</time>
      </trkpt>
      <trkpt lat="41.059686667" lon="-5.844421667">
        <time>2022-06-28T10:22:28Z</time>
      </trkpt>
      <trkpt lat="41.059718333" lon="-5.844501667">
        <time>2022-06-28T10:22:29Z</time>
      </trkpt>
      <trkpt lat="41.059748333" lon="-5.844581667">
        <time>2022-06-28T10:22:30Z</time>
      </trkpt>
      <trkpt lat="41.059778333" lon="-5.844660000">
        <time>2022-06-28T10:22:31Z</time>
      </trkpt>
      <trkpt lat="41.059808333" lon="-5.844740000">
        <time>2022-06-28T10:22:32Z</time>
      </trkpt>
      <trkpt lat="41.059838333" lon="-5.844818333">
        <time>2022-06-28T10:22:33Z</time>
      </trkpt>
      <trkpt lat="41.059866667" lon="-5.844898333">
        <time>2022-06-28T10:22:34Z</time>
      </trkpt>
      <trkpt lat="41.059891667" lon="-5.844978333">
        <time>2022-06-28T10:22:35Z</time>
      </trkpt>
      <trkpt lat="41.059920000" lon="-5.845058333">
        <time>2022-06-28T10:22:36Z</time>
      </trkpt>
      <trkpt lat="41.059945000" lon="-5.845136667">
        <time>2022-06-28T10:22:37Z</time>
      </trkpt>
      <trkpt lat="41.059970000" lon="-5.845216667">
        <time>2022-06-28T10:22:38Z</time>
      </trkpt>
      <trkpt lat="41.059993333" lon="-5.845298333">
        <time>2022-06-28T10:22:39Z</time>
      </trkpt>
      <trkpt lat="41.060018333" lon="-5.845376667">
        <time>2022-06-28T10:22:40Z</time>
      </trkpt>
      <trkpt lat="41.060043333" lon="-5.845456667">
        <time>2022-06-28T10:22:41Z</time>
      </trkpt>
      <trkpt lat="41.060065000" lon="-5.845538333">
        <time>2022-06-28T10:22:42Z</time>
      </trkpt>
      <trkpt lat="41.060090000" lon="-5.845618333">
        <time>2022-06-28T10:22:43Z</time>
      </trkpt>
      <trkpt lat="41.060113333" lon="-5.845700000">
        <time>2022-06-28T10:22:44Z</time>
      </trkpt>
      <trkpt lat="41.060136667" lon="-5.845780000">
        <time>2022-06-28T10:22:45Z</time>
      </trkpt>
      <trkpt lat="41.060161667" lon="-5.845861667">
        <time>2022-06-28T10:22:46Z</time>
      </trkpt>
      <trkpt lat="41.060186667" lon="-5.845945000">
        <time>2022-06-28T10:22:47Z</time>
      </trkpt>
      <trkpt lat="41.060211667" lon="-5.846026667">
        <time>2022-06-28T10:22:48Z</time>
      </trkpt>
      <trkpt lat="41.060238333" lon="-5.846108333">
        <time>2022-06-28T10:22:49Z</time>
      </trkpt>
      <trkpt lat="41.060265000" lon="-5.846188333">
        <time>2022-06-28T10:22:50Z</time>
      </trkpt>
      <trkpt lat="41.060293333" lon="-5.846266667">
        <time>2022-06-28T10:22:51Z</time>
      </trkpt>
      <trkpt lat="41.060323333" lon="-5.846346667">
        <time>2022-06-28T10:22:52Z</time>
      </trkpt>
      <trkpt lat="41.060351667" lon="-5.846425000">
        <time>2022-06-28T10:22:53Z</time>
      </trkpt>
      <trkpt lat="41.060383333" lon="-5.846501667">
        <time>2022-06-28T10:22:54Z</time>
      </trkpt>
      <trkpt lat="41.060413333" lon="-5.846578333">
        <time>2022-06-28T10:22:55Z</time>
      </trkpt>
      <trkpt lat="41.060441667" lon="-5.846653333">
        <time>2022-06-28T10:22:56Z</time>
      </trkpt>
      <trkpt lat="41.060473333" lon="-5.846728333">
        <time>2022-06-28T10:22:57Z</time>
      </trkpt>
      <trkpt lat="41.060503333" lon="-5.846801667">
        <time>2022-06-28T10:22:58Z</time>
      </trkpt>
      <trkpt lat="41.060535000" lon="-5.846876667">
        <time>2022-06-28T10:22:59Z</time>
      </trkpt>
      <trkpt lat="41.060565000" lon="-5.846950000">
        <time>2022-06-28T10:23:00Z</time>
      </trkpt>
      <trkpt lat="41.060598333" lon="-5.847021667">
        <time>2022-06-28T10:23:01Z</time>
      </trkpt>
      <trkpt lat="41.060630000" lon="-5.847093333">
        <time>2022-06-28T10:23:02Z</time>
      </trkpt>
      <trkpt lat="41.060661667" lon="-5.847165000">
        <time>2022-06-28T10:23:03Z</time>
      </trkpt>
      <trkpt lat="41.060690000" lon="-5.847236667">
        <time>2022-06-28T10:23:04Z</time>
      </trkpt>
      <trkpt lat="41.060716667" lon="-5.847308333">
        <time>2022-06-28T10:23:05Z</time>
      </trkpt>
      <trkpt lat="41.060746667" lon="-5.847376667">
        <time>2022-06-28T10:23:06Z</time>
      </trkpt>
      <trkpt lat="41.060778333" lon="-5.847446667">
        <time>2022-06-28T10:23:07Z</time>
      </trkpt>
      <trkpt lat="41.060811667" lon="-5.847515000">
        <time>2022-06-28T10:23:08Z</time>
      </trkpt>
      <trkpt lat="41.060845000" lon="-5.847583333">
        <time>2022-06-28T10:23:09Z</time>
      </trkpt>
      <trkpt lat="41.060878333" lon="-5.847651667">
        <time>2022-06-28T10:23:10Z</time>
      </trkpt>
      <trkpt lat="41.060915000" lon="-5.847718333">
        <time>2022-06-28T10:23:11Z</time>
      </trkpt>
      <trkpt lat="41.060951667" lon="-5.847785000">
        <time>2022-06-28T10:23:12Z</time>
      </trkpt>
      <trkpt lat="41.060986667" lon="-5.847853333">
        <time>2022-06-28T10:23:13Z</time>
      </trkpt>
      <trkpt lat="41.061021667" lon="-5.847923333">
        <time>2022-06-28T10:23:14Z</time>
      </trkpt>
      <trkpt lat="41.061055000" lon="-5.847993333">
        <time>2022-06-28T10:23:15Z</time>
      </trkpt>
      <trkpt lat="41.061086667" lon="-5.848065000">
        <time>2022-06-28T10:23:16Z</time>
      </trkpt>
      <trkpt lat="41.061118333" lon="-5.848135000">
        <time>2022-06-28T10:23:17Z</time>
      </trkpt>
      <trkpt lat="41.061151667" lon="-5.848206667">
        <time>2022-06-28T10:23:18Z</time>
      </trkpt>
      <trkpt lat="41.061185000" lon="-5.848276667">
        <time>2022-06-28T10:23:19Z</time>
      </trkpt>
      <trkpt lat="41.061220000" lon="-5.848346667">
        <time>2022-06-28T10:23:20Z</time>
      </trkpt>
      <trkpt lat="41.061251667" lon="-5.848416667">
        <time>2022-06-28T10:23:21Z</time>
      </trkpt>
      <trkpt lat="41.061283333" lon="-5.848490000">
        <time>2022-06-28T10:23:22Z</time>
      </trkpt>
      <trkpt lat="41.061315000" lon="-5.848561667">
        <time>2022-06-28T10:23:23Z</time>
      </trkpt>
      <trkpt lat="41.061346667" lon="-5.848635000">
        <time>2022-06-28T10:23:24Z</time>
      </trkpt>
      <trkpt lat="41.061376667" lon="-5.848710000">
        <time>2022-06-28T10:23:25Z</time>
      </trkpt>
      <trkpt lat="41.061406667" lon="-5.848785000">
        <time>2022-06-28T10:23:26Z</time>
      </trkpt>
      <trkpt lat="41.061436667" lon="-5.848861667">
        <time>2022-06-28T10:23:27Z</time>
      </trkpt>
      <trkpt lat="41.061466667" lon="-5.848936667">
        <time>2022-06-28T10:23:28Z</time>
      </trkpt>
      <trkpt lat="41.061496667" lon="-5.849011667">
        <time>2022-06-28T10:23:29Z</time>
      </trkpt>
      <trkpt lat="41.061526667" lon="-5.849088333">
        <time>2022-06-28T10:23:30Z</time>
      </trkpt>
      <trkpt lat="41.061556667" lon="-5.849165000">
        <time>2022-06-28T10:23:31Z</time>
      </trkpt>
      <trkpt lat="41.061588333" lon="-5.849243333">
        <time>2022-06-28T10:23:32Z</time>
      </trkpt>
      <trkpt lat="41.061620000" lon="-5.849318333">
        <time>2022-06-28T10:23:33Z</time>
      </trkpt>
      <trkpt lat="41.061655000" lon="-5.849391667">
        <time>2022-06-28T10:23:34Z</time>
      </trkpt>
      <trkpt lat="41.061693333" lon="-5.849461667">
        <time>2022-06-28T10:23:35Z</time>
      </trkpt>
      <trkpt lat="41.061733333" lon="-5.849526667">
        <time>2022-06-28T10:23:36Z</time>
      </trkpt>
      <trkpt lat="41.061775000" lon="-5.849591667">
        <time>2022-06-28T10:23:37Z</time>
      </trkpt>
      <trkpt lat="41.061816667" lon="-5.849653333">
        <time>2022-06-28T10:23:38Z</time>
      </trkpt>
      <trkpt lat="41.061861667" lon="-5.849713333">
        <time>2022-06-28T10:23:39Z</time>
      </trkpt>
      <trkpt lat="41.061908333" lon="-5.849771667">
        <time>2022-06-28T10:23:40Z</time>
      </trkpt>
      <trkpt lat="41.061956667" lon="-5.849828333">
        <time>2022-06-28T10:23:41Z</time>
      </trkpt>
      <trkpt lat="41.062003333" lon="-5.849881667">
        <time>2022-06-28T10:23:42Z</time>
      </trkpt>
      <trkpt lat="41.062050000" lon="-5.849933333">
        <time>2022-06-28T10:23:43Z</time>
      </trkpt>
      <trkpt lat="41.062096667" lon="-5.849983333">
        <time>2022-06-28T10:23:44Z</time>
      </trkpt>
      <trkpt lat="41.062143333" lon="-5.850030000">
        <time>2022-06-28T10:23:45Z</time>
      </trkpt>
      <trkpt lat="41.062188333" lon="-5.850073333">
        <time>2022-06-28T10:23:46Z</time>
      </trkpt>
      <trkpt lat="41.062230000" lon="-5.850113333">
        <time>2022-06-28T10:23:47Z</time>
      </trkpt>
      <trkpt lat="41.062261667" lon="-5.850156667">
        <time>2022-06-28T10:23:48Z</time>
      </trkpt>
      <trkpt lat="41.062281667" lon="-5.850208333">
        <time>2022-06-28T10:23:49Z</time>
      </trkpt>
      <trkpt lat="41.062280000" lon="-5.850266667">
        <time>2022-06-28T10:23:50Z</time>
      </trkpt>
      <trkpt lat="41.062263333" lon="-5.850325000">
        <time>2022-06-28T10:23:51Z</time>
      </trkpt>
      <trkpt lat="41.062233333" lon="-5.850378333">
        <time>2022-06-28T10:23:52Z</time>
      </trkpt>
      <trkpt lat="41.062198333" lon="-5.850431667">
        <time>2022-06-28T10:23:53Z</time>
      </trkpt>
      <trkpt lat="41.062160000" lon="-5.850483333">
        <time>2022-06-28T10:23:54Z</time>
      </trkpt>
      <trkpt lat="41.062121667" lon="-5.850538333">
        <time>2022-06-28T10:23:55Z</time>
      </trkpt>
      <trkpt lat="41.062085000" lon="-5.850595000">
        <time>2022-06-28T10:23:56Z</time>
      </trkpt>
      <trkpt lat="41.062048333" lon="-5.850651667">
        <time>2022-06-28T10:23:57Z</time>
      </trkpt>
      <trkpt lat="41.062010000" lon="-5.850705000">
        <time>2022-06-28T10:23:58Z</time>
      </trkpt>
      <trkpt lat="41.061971667" lon="-5.850760000">
        <time>2022-06-28T10:23:59Z</time>
      </trkpt>
      <trkpt lat="41.061931667" lon="-5.850813333">
        <time>2022-06-28T10:24:00Z</time>
      </trkpt>
      <trkpt lat="41.061891667" lon="-5.850866667">
        <time>2022-06-28T10:24:01Z</time>
      </trkpt>
      <trkpt lat="41.061851667" lon="-5.850920000">
        <time>2022-06-28T10:24:02Z</time>
      </trkpt>
      <trkpt lat="41.061813333" lon="-5.850975000">
        <time>2022-06-28T10:24:03Z</time>
      </trkpt>
      <trkpt lat="41.061775000" lon="-5.851031667">
        <time>2022-06-28T10:24:04Z</time>
      </trkpt>
      <trkpt lat="41.061735000" lon="-5.851085000">
        <time>2022-06-28T10:24:05Z</time>
      </trkpt>
      <trkpt lat="41.061696667" lon="-5.851140000">
        <time>2022-06-28T10:24:06Z</time>
      </trkpt>
      <trkpt lat="41.061656667" lon="-5.851195000">
        <time>2022-06-28T10:24:07Z</time>
      </trkpt>
      <trkpt lat="41.061616667" lon="-5.851248333">
        <time>2022-06-28T10:24:08Z</time>
      </trkpt>
      <trkpt lat="41.061576667" lon="-5.851300000">
        <time>2022-06-28T10:24:09Z</time>
      </trkpt>
      <trkpt lat="41.061536667" lon="-5.851353333">
        <time>2022-06-28T10:24:10Z</time>
      </trkpt>
      <trkpt lat="41.061496667" lon="-5.851406667">
        <time>2022-06-28T10:24:11Z</time>
      </trkpt>
      <trkpt lat="41.061456667" lon="-5.851461667">
        <time>2022-06-28T10:24:12Z</time>
      </trkpt>
      <trkpt lat="41.061416667" lon="-5.851513333">
        <time>2022-06-28T10:24:13Z</time>
      </trkpt>
      <trkpt lat="41.061376667" lon="-5.851565000">
        <time>2022-06-28T10:24:14Z</time>
      </trkpt>
      <trkpt lat="41.061335000" lon="-5.851618333">
        <time>2022-06-28T10:24:15Z</time>
      </trkpt>
      <trkpt lat="41.061295000" lon="-5.851671667">
        <time>2022-06-28T10:24:16Z</time>
      </trkpt>
      <trkpt lat="41.061255000" lon="-5.851725000">
        <time>2022-06-28T10:24:17Z</time>
      </trkpt>
      <trkpt lat="41.061213333" lon="-5.851778333">
        <time>2022-06-28T10:24:18Z</time>
      </trkpt>
      <trkpt lat="41.061171667" lon="-5.851831667">
        <time>2022-06-28T10:24:19Z</time>
      </trkpt>
      <trkpt lat="41.061130000" lon="-5.851886667">
        <time>2022-06-28T10:24:20Z</time>
      </trkpt>
      <trkpt lat="41.061086667" lon="-5.851940000">
        <time>2022-06-28T10:24:21Z</time>
      </trkpt>
      <trkpt lat="41.061045000" lon="-5.851993333">
        <time>2022-06-28T10:24:22Z</time>
      </trkpt>
      <trkpt lat="41.061001667" lon="-5.852045000">
        <time>2022-06-28T10:24:23Z</time>
      </trkpt>
      <trkpt lat="41.060956667" lon="-5.852095000">
        <time>2022-06-28T10:24:24Z</time>
      </trkpt>
      <trkpt lat="41.060913333" lon="-5.852146667">
        <time>2022-06-28T10:24:25Z</time>
      </trkpt>
      <trkpt lat="41.060871667" lon="-5.852195000">
        <time>2022-06-28T10:24:26Z</time>
      </trkpt>
      <trkpt lat="41.060825000" lon="-5.852241667">
        <time>2022-06-28T10:24:27Z</time>
      </trkpt>
      <trkpt lat="41.060778333" lon="-5.852286667">
        <time>2022-06-28T10:24:28Z</time>
      </trkpt>
      <trkpt lat="41.060730000" lon="-5.852328333">
        <time>2022-06-28T10:24:29Z</time>
      </trkpt>
      <trkpt lat="41.060678333" lon="-5.852363333">
        <time>2022-06-28T10:24:30Z</time>
      </trkpt>
      <trkpt lat="41.060626667" lon="-5.852400000">
        <time>2022-06-28T10:24:31Z</time>
      </trkpt>
      <trkpt lat="41.060575000" lon="-5.852438333">
        <time>2022-06-28T10:24:32Z</time>
      </trkpt>
      <trkpt lat="41.060521667" lon="-5.852473333">
        <time>2022-06-28T10:24:33Z</time>
      </trkpt>
      <trkpt lat="41.060470000" lon="-5.852511667">
        <time>2022-06-28T10:24:34Z</time>
      </trkpt>
      <trkpt lat="41.060418333" lon="-5.852550000">
        <time>2022-06-28T10:24:35Z</time>
      </trkpt>
      <trkpt lat="41.060370000" lon="-5.852583333">
        <time>2022-06-28T10:24:36Z</time>
      </trkpt>
      <trkpt lat="41.060321667" lon="-5.852618333">
        <time>2022-06-28T10:24:37Z</time>
      </trkpt>
      <trkpt lat="41.060273333" lon="-5.852653333">
        <time>2022-06-28T10:24:38Z</time>
      </trkpt>
      <trkpt lat="41.060223333" lon="-5.852686667">
        <time>2022-06-28T10:24:39Z</time>
      </trkpt>
      <trkpt lat="41.060173333" lon="-5.852720000">
        <time>2022-06-28T10:24:40Z</time>
      </trkpt>
      <trkpt lat="41.060123333" lon="-5.852755000">
        <time>2022-06-28T10:24:41Z</time>
      </trkpt>
      <trkpt lat="41.060066667" lon="-5.852795000">
        <time>2022-06-28T10:24:42Z</time>
      </trkpt>
      <trkpt lat="41.060008333" lon="-5.852836667">
        <time>2022-06-28T10:24:43Z</time>
      </trkpt>
      <trkpt lat="41.059951667" lon="-5.852875000">
        <time>2022-06-28T10:24:44Z</time>
      </trkpt>
      <trkpt lat="41.059896667" lon="-5.852911667">
        <time>2022-06-28T10:24:45Z</time>
      </trkpt>
      <trkpt lat="41.059841667" lon="-5.852948333">
        <time>2022-06-28T10:24:46Z</time>
      </trkpt>
      <trkpt lat="41.059785000" lon="-5.852985000">
        <time>2022-06-28T10:24:47Z</time>
      </trkpt>
      <trkpt lat="41.059730000" lon="-5.853021667">
        <time>2022-06-28T10:24:48Z</time>
      </trkpt>
      <trkpt lat="41.059673333" lon="-5.853058333">
        <time>2022-06-28T10:24:49Z</time>
      </trkpt>
      <trkpt lat="41.059618333" lon="-5.853096667">
        <time>2022-06-28T10:24:50Z</time>
      </trkpt>
      <trkpt lat="41.059563333" lon="-5.853135000">
        <time>2022-06-28T10:24:51Z</time>
      </trkpt>
      <trkpt lat="41.059508333" lon="-5.853171667">
        <time>2022-06-28T10:24:52Z</time>
      </trkpt>
      <trkpt lat="41.059455000" lon="-5.853208333">
        <time>2022-06-28T10:24:53Z</time>
      </trkpt>
      <trkpt lat="41.059400000" lon="-5.853246667">
        <time>2022-06-28T10:24:54Z</time>
      </trkpt>
      <trkpt lat="41.059345000" lon="-5.853285000">
        <time>2022-06-28T10:24:55Z</time>
      </trkpt>
      <trkpt lat="41.059290000" lon="-5.853321667">
        <time>2022-06-28T10:24:56Z</time>
      </trkpt>
      <trkpt lat="41.059235000" lon="-5.853358333">
        <time>2022-06-28T10:24:57Z</time>
      </trkpt>
      <trkpt lat="41.059181667" lon="-5.853396667">
        <time>2022-06-28T10:24:58Z</time>
      </trkpt>
      <trkpt lat="41.059126667" lon="-5.853433333">
        <time>2022-06-28T10:24:59Z</time>
      </trkpt>
      <trkpt lat="41.059070000" lon="-5.853470000">
        <time>2022-06-28T10:25:00Z</time>
      </trkpt>
      <trkpt lat="41.059015000" lon="-5.853505000">
        <time>2022-06-28T10:25:01Z</time>
      </trkpt>
      <trkpt lat="41.058960000" lon="-5.853541667">
        <time>2022-06-28T10:25:02Z</time>
      </trkpt>
      <trkpt lat="41.058906667" lon="-5.853575000">
        <time>2022-06-28T10:25:03Z</time>
      </trkpt>
      <trkpt lat="41.058850000" lon="-5.853606667">
        <time>2022-06-28T10:25:04Z</time>
      </trkpt>
      <trkpt lat="41.058795000" lon="-5.853636667">
        <time>2022-06-28T10:25:05Z</time>
      </trkpt>
      <trkpt lat="41.058740000" lon="-5.853670000">
        <time>2022-06-28T10:25:06Z</time>
      </trkpt>
      <trkpt lat="41.058685000" lon="-5.853706667">
        <time>2022-06-28T10:25:07Z</time>
      </trkpt>
      <trkpt lat="41.058628333" lon="-5.853745000">
        <time>2022-06-28T10:25:08Z</time>
      </trkpt>
      <trkpt lat="41.058573333" lon="-5.853783333">
        <time>2022-06-28T10:25:09Z</time>
      </trkpt>
      <trkpt lat="41.058518333" lon="-5.853820000">
        <time>2022-06-28T10:25:10Z</time>
      </trkpt>
      <trkpt lat="41.058463333" lon="-5.853858333">
        <time>2022-06-28T10:25:11Z</time>
      </trkpt>
      <trkpt lat="41.058408333" lon="-5.853896667">
        <time>2022-06-28T10:25:12Z</time>
      </trkpt>
      <trkpt lat="41.058353333" lon="-5.853935000">
        <time>2022-06-28T10:25:13Z</time>
      </trkpt>
      <trkpt lat="41.058300000" lon="-5.853976667">
        <time>2022-06-28T10:25:14Z</time>
      </trkpt>
      <trkpt lat="41.058243333" lon="-5.854016667">
        <time>2022-06-28T10:25:15Z</time>
      </trkpt>
      <trkpt lat="41.058188333" lon="-5.854058333">
        <time>2022-06-28T10:25:16Z</time>
      </trkpt>
      <trkpt lat="41.058133333" lon="-5.854100000">
        <time>2022-06-28T10:25:17Z</time>
      </trkpt>
      <trkpt lat="41.058075000" lon="-5.854138333">
        <time>2022-06-28T10:25:18Z</time>
      </trkpt>
      <trkpt lat="41.058018333" lon="-5.854178333">
        <time>2022-06-28T10:25:19Z</time>
      </trkpt>
      <trkpt lat="41.057961667" lon="-5.854216667">
        <time>2022-06-28T10:25:20Z</time>
      </trkpt>
      <trkpt lat="41.057905000" lon="-5.854255000">
        <time>2022-06-28T10:25:21Z</time>
      </trkpt>
      <trkpt lat="41.057848333" lon="-5.854293333">
        <time>2022-06-28T10:25:22Z</time>
      </trkpt>
      <trkpt lat="41.057790000" lon="-5.854331667">
        <time>2022-06-28T10:25:23Z</time>
      </trkpt>
      <trkpt lat="41.057733333" lon="-5.854368333">
        <time>2022-06-28T10:25:24Z</time>
      </trkpt>
      <trkpt lat="41.057676667" lon="-5.854406667">
        <time>2022-06-28T10:25:25Z</time>
      </trkpt>
      <trkpt lat="41.057620000" lon="-5.854445000">
        <time>2022-06-28T10:25:26Z</time>
      </trkpt>
      <trkpt lat="41.057565000" lon="-5.854483333">
        <time>2022-06-28T10:25:27Z</time>
      </trkpt>
      <trkpt lat="41.057510000" lon="-5.854523333">
        <time>2022-06-28T10:25:28Z</time>
      </trkpt>
      <trkpt lat="41.057456667" lon="-5.854560000">
        <time>2022-06-28T10:25:29Z</time>
      </trkpt>
      <trkpt lat="41.057401667" lon="-5.854596667">
        <time>2022-06-28T10:25:30Z</time>
      </trkpt>
      <trkpt lat="41.057345000" lon="-5.854631667">
        <time>2022-06-28T10:25:31Z</time>
      </trkpt>
      <trkpt lat="41.057290000" lon="-5.854668333">
        <time>2022-06-28T10:25:32Z</time>
      </trkpt>
      <trkpt lat="41.057233333" lon="-5.854705000">
        <time>2022-06-28T10:25:33Z</time>
      </trkpt>
      <trkpt lat="41.057178333" lon="-5.854743333">
        <time>2022-06-28T10:25:34Z</time>
      </trkpt>
      <trkpt lat="41.057121667" lon="-5.854778333">
        <time>2022-06-28T10:25:35Z</time>
      </trkpt>
      <trkpt lat="41.057066667" lon="-5.854816667">
        <time>2022-06-28T10:25:36Z</time>
      </trkpt>
      <trkpt lat="41.057011667" lon="-5.854853333">
        <time>2022-06-28T10:25:37Z</time>
      </trkpt>
      <trkpt lat="41.056956667" lon="-5.854888333">
        <time>2022-06-28T10:25:38Z</time>
      </trkpt>
      <trkpt lat="41.056900000" lon="-5.854925000">
        <time>2022-06-28T10:25:39Z</time>
      </trkpt>
      <trkpt lat="41.056843333" lon="-5.854963333">
        <time>2022-06-28T10:25:40Z</time>
      </trkpt>
      <trkpt lat="41.056786667" lon="-5.855001667">
        <time>2022-06-28T10:25:41Z</time>
      </trkpt>
      <trkpt lat="41.056730000" lon="-5.855040000">
        <time>2022-06-28T10:25:42Z</time>
      </trkpt>
      <trkpt lat="41.056673333" lon="-5.855078333">
        <time>2022-06-28T10:25:43Z</time>
      </trkpt>
      <trkpt lat="41.056618333" lon="-5.855116667">
        <time>2022-06-28T10:25:44Z</time>
      </trkpt>
      <trkpt lat="41.056561667" lon="-5.855155000">
        <time>2022-06-28T10:25:45Z</time>
      </trkpt>
      <trkpt lat="41.056506667" lon="-5.855193333">
        <time>2022-06-28T10:25:46Z</time>
      </trkpt>
      <trkpt lat="41.056453333" lon="-5.855233333">
        <time>2022-06-28T10:25:47Z</time>
      </trkpt>
      <trkpt lat="41.056400000" lon="-5.855276667">
        <time>2022-06-28T10:25:48Z</time>
      </trkpt>
      <trkpt lat="41.056346667" lon="-5.855321667">
        <time>2022-06-28T10:25:49Z</time>
      </trkpt>
      <trkpt lat="41.056293333" lon="-5.855366667">
        <time>2022-06-28T10:25:50Z</time>
      </trkpt>
      <trkpt lat="41.056241667" lon="-5.855415000">
        <time>2022-06-28T10:25:51Z</time>
      </trkpt>
      <trkpt lat="41.056186667" lon="-5.855460000">
        <time>2022-06-28T10:25:52Z</time>
      </trkpt>
      <trkpt lat="41.056133333" lon="-5.855506667">
        <time>2022-06-28T10:25:53Z</time>
      </trkpt>
      <trkpt lat="41.056080000" lon="-5.855555000">
        <time>2022-06-28T10:25:54Z</time>
      </trkpt>
      <trkpt lat="41.056026667" lon="-5.855606667">
        <time>2022-06-28T10:25:55Z</time>
      </trkpt>
      <trkpt lat="41.055976667" lon="-5.855658333">
        <time>2022-06-28T10:25:56Z</time>
      </trkpt>
      <trkpt lat="41.055926667" lon="-5.855713333">
        <time>2022-06-28T10:25:57Z</time>
      </trkpt>
      <trkpt lat="41.055880000" lon="-5.855773333">
        <time>2022-06-28T10:25:58Z</time>
      </trkpt>
      <trkpt lat="41.055836667" lon="-5.855836667">
        <time>2022-06-28T10:25:59Z</time>
      </trkpt>
      <trkpt lat="41.055791667" lon="-5.855898333">
        <time>2022-06-28T10:26:00Z</time>
      </trkpt>
      <trkpt lat="41.055741667" lon="-5.855956667">
        <time>2022-06-28T10:26:01Z</time>
      </trkpt>
      <trkpt lat="41.055691667" lon="-5.856015000">
        <time>2022-06-28T10:26:02Z</time>
      </trkpt>
      <trkpt lat="41.055643333" lon="-5.856068333">
        <time>2022-06-28T10:26:03Z</time>
      </trkpt>
      <trkpt lat="41.055591667" lon="-5.856120000">
        <time>2022-06-28T10:26:04Z</time>
      </trkpt>
      <trkpt lat="41.055538333" lon="-5.856166667">
        <time>2022-06-28T10:26:05Z</time>
      </trkpt>
      <trkpt lat="41.055481667" lon="-5.856213333">
        <time>2022-06-28T10:26:06Z</time>
      </trkpt>
      <trkpt lat="41.055430000" lon="-5.856256667">
        <time>2022-06-28T10:26:07Z</time>
      </trkpt>
      <trkpt lat="41.055375000" lon="-5.856296667">
        <time>2022-06-28T10:26:08Z</time>
      </trkpt>
      <trkpt lat="41.055320000" lon="-5.856333333">
        <time>2022-06-28T10:26:09Z</time>
      </trkpt>
      <trkpt lat="41.055261667" lon="-5.856368333">
        <time>2022-06-28T10:26:10Z</time>
      </trkpt>
      <trkpt lat="41.055203333" lon="-5.856401667">
        <time>2022-06-28T10:26:11Z</time>
      </trkpt>
      <trkpt lat="41.055143333" lon="-5.856433333">
        <time>2022-06-28T10:26:12Z</time>
      </trkpt>
      <trkpt lat="41.055081667" lon="-5.856461667">
        <time>2022-06-28T10:26:13Z</time>
      </trkpt>
      <trkpt lat="41.055020000" lon="-5.856490000">
        <time>2022-06-28T10:26:14Z</time>
      </trkpt>
      <trkpt lat="41.054958333" lon="-5.856515000">
        <time>2022-06-28T10:26:15Z</time>
      </trkpt>
      <trkpt lat="41.054898333" lon="-5.856540000">
        <time>2022-06-28T10:26:16Z</time>
      </trkpt>
      <trkpt lat="41.054838333" lon="-5.856561667">
        <time>2022-06-28T10:26:17Z</time>
      </trkpt>
      <trkpt lat="41.054780000" lon="-5.856581667">
        <time>2022-06-28T10:26:18Z</time>
      </trkpt>
      <trkpt lat="41.054721667" lon="-5.856601667">
        <time>2022-06-28T10:26:19Z</time>
      </trkpt>
      <trkpt lat="41.054663333" lon="-5.856626667">
        <time>2022-06-28T10:26:20Z</time>
      </trkpt>
      <trkpt lat="41.054608333" lon="-5.856656667">
        <time>2022-06-28T10:26:21Z</time>
      </trkpt>
      <trkpt lat="41.054553333" lon="-5.856696667">
        <time>2022-06-28T10:26:22Z</time>
      </trkpt>
      <trkpt lat="41.054505000" lon="-5.856746667">
        <time>2022-06-28T10:26:23Z</time>
      </trkpt>
      <trkpt lat="41.054461667" lon="-5.856808333">
        <time>2022-06-28T10:26:24Z</time>
      </trkpt>
      <trkpt lat="41.054425000" lon="-5.856876667">
        <time>2022-06-28T10:26:25Z</time>
      </trkpt>
      <trkpt lat="41.054390000" lon="-5.856946667">
        <time>2022-06-28T10:26:26Z</time>
      </trkpt>
      <trkpt lat="41.054355000" lon="-5.857013333">
        <time>2022-06-28T10:26:27Z</time>
      </trkpt>
      <trkpt lat="41.054318333" lon="-5.857080000">
        <time>2022-06-28T10:26:28Z</time>
      </trkpt>
      <trkpt lat="41.054283333" lon="-5.857148333">
        <time>2022-06-28T10:26:29Z</time>
      </trkpt>
      <trkpt lat="41.054250000" lon="-5.857216667">
        <time>2022-06-28T10:26:30Z</time>
      </trkpt>
      <trkpt lat="41.054216667" lon="-5.857285000">
        <time>2022-06-28T10:26:31Z</time>
      </trkpt>
      <trkpt lat="41.054185000" lon="-5.857351667">
        <time>2022-06-28T10:26:32Z</time>
      </trkpt>
      <trkpt lat="41.054155000" lon="-5.857416667">
        <time>2022-06-28T10:26:33Z</time>
      </trkpt>
      <trkpt lat="41.054131667" lon="-5.857481667">
        <time>2022-06-28T10:26:34Z</time>
      </trkpt>
      <trkpt lat="41.054111667" lon="-5.857546667">
        <time>2022-06-28T10:26:35Z</time>
      </trkpt>
      <trkpt lat="41.054085000" lon="-5.857603333">
        <time>2022-06-28T10:26:36Z</time>
      </trkpt>
      <trkpt lat="41.054046667" lon="-5.857646667">
        <time>2022-06-28T10:26:37Z</time>
      </trkpt>
      <trkpt lat="41.054001667" lon="-5.857681667">
        <time>2022-06-28T10:26:38Z</time>
      </trkpt>
      <trkpt lat="41.053955000" lon="-5.857705000">
        <time>2022-06-28T10:26:39Z</time>
      </trkpt>
      <trkpt lat="41.053903333" lon="-5.857718333">
        <time>2022-06-28T10:26:40Z</time>
      </trkpt>
      <trkpt lat="41.053850000" lon="-5.857723333">
        <time>2022-06-28T10:26:41Z</time>
      </trkpt>
      <trkpt lat="41.053798333" lon="-5.857725000">
        <time>2022-06-28T10:26:42Z</time>
      </trkpt>
      <trkpt lat="41.053743333" lon="-5.857721667">
        <time>2022-06-28T10:26:43Z</time>
      </trkpt>
      <trkpt lat="41.053688333" lon="-5.857716667">
        <time>2022-06-28T10:26:44Z</time>
      </trkpt>
      <trkpt lat="41.053630000" lon="-5.857708333">
        <time>2022-06-28T10:26:45Z</time>
      </trkpt>
      <trkpt lat="41.053573333" lon="-5.857695000">
        <time>2022-06-28T10:26:46Z</time>
      </trkpt>
      <trkpt lat="41.053513333" lon="-5.857681667">
        <time>2022-06-28T10:26:47Z</time>
      </trkpt>
      <trkpt lat="41.053453333" lon="-5.857666667">
        <time>2022-06-28T10:26:48Z</time>
      </trkpt>
      <trkpt lat="41.053395000" lon="-5.857651667">
        <time>2022-06-28T10:26:49Z</time>
      </trkpt>
      <trkpt lat="41.053340000" lon="-5.857640000">
        <time>2022-06-28T10:26:50Z</time>
      </trkpt>
      <trkpt lat="41.053285000" lon="-5.857631667">
        <time>2022-06-28T10:26:51Z</time>
      </trkpt>
      <trkpt lat="41.053233333" lon="-5.857623333">
        <time>2022-06-28T10:26:52Z</time>
      </trkpt>
      <trkpt lat="41.053181667" lon="-5.857616667">
        <time>2022-06-28T10:26:53Z</time>
      </trkpt>
      <trkpt lat="41.053130000" lon="-5.857610000">
        <time>2022-06-28T10:26:54Z</time>
      </trkpt>
      <trkpt lat="41.053073333" lon="-5.857610000">
        <time>2022-06-28T10:26:55Z</time>
      </trkpt>
      <trkpt lat="41.053016667" lon="-5.857608333">
        <time>2022-06-28T10:26:56Z</time>
      </trkpt>
      <trkpt lat="41.052958333" lon="-5.857611667">
        <time>2022-06-28T10:26:57Z</time>
      </trkpt>
      <trkpt lat="41.052896667" lon="-5.857616667">
        <time>2022-06-28T10:26:58Z</time>
      </trkpt>
      <trkpt lat="41.052836667" lon="-5.857625000">
        <time>2022-06-28T10:26:59Z</time>
      </trkpt>
      <trkpt lat="41.052775000" lon="-5.857638333">
        <time>2022-06-28T10:27:00Z</time>
      </trkpt>
      <trkpt lat="41.052713333" lon="-5.857651667">
        <time>2022-06-28T10:27:01Z</time>
      </trkpt>
      <trkpt lat="41.052651667" lon="-5.857668333">
        <time>2022-06-28T10:27:02Z</time>
      </trkpt>
      <trkpt lat="41.052590000" lon="-5.857685000">
        <time>2022-06-28T10:27:03Z</time>
      </trkpt>
      <trkpt lat="41.052530000" lon="-5.857705000">
        <time>2022-06-28T10:27:04Z</time>
      </trkpt>
      <trkpt lat="41.052468333" lon="-5.857723333">
        <time>2022-06-28T10:27:05Z</time>
      </trkpt>
      <trkpt lat="41.052408333" lon="-5.857741667">
        <time>2022-06-28T10:27:06Z</time>
      </trkpt>
      <trkpt lat="41.052346667" lon="-5.857756667">
        <time>2022-06-28T10:27:07Z</time>
      </trkpt>
      <trkpt lat="41.052286667" lon="-5.857775000">
        <time>2022-06-28T10:27:08Z</time>
      </trkpt>
      <trkpt lat="41.052228333" lon="-5.857793333">
        <time>2022-06-28T10:27:09Z</time>
      </trkpt>
      <trkpt lat="41.052171667" lon="-5.857813333">
        <time>2022-06-28T10:27:10Z</time>
      </trkpt>
      <trkpt lat="41.052115000" lon="-5.857831667">
        <time>2022-06-28T10:27:11Z</time>
      </trkpt>
      <trkpt lat="41.052060000" lon="-5.857850000">
        <time>2022-06-28T10:27:12Z</time>
      </trkpt>
      <trkpt lat="41.052003333" lon="-5.857866667">
        <time>2022-06-28T10:27:13Z</time>
      </trkpt>
      <trkpt lat="41.051948333" lon="-5.857885000">
        <time>2022-06-28T10:27:14Z</time>
      </trkpt>
      <trkpt lat="41.051891667" lon="-5.857903333">
        <time>2022-06-28T10:27:15Z</time>
      </trkpt>
      <trkpt lat="41.051836667" lon="-5.857923333">
        <time>2022-06-28T10:27:16Z</time>
      </trkpt>
      <trkpt lat="41.051783333" lon="-5.857941667">
        <time>2022-06-28T10:27:17Z</time>
      </trkpt>
      <trkpt lat="41.051726667" lon="-5.857961667">
        <time>2022-06-28T10:27:18Z</time>
      </trkpt>
      <trkpt lat="41.051668333" lon="-5.857980000">
        <time>2022-06-28T10:27:19Z</time>
      </trkpt>
      <trkpt lat="41.051610000" lon="-5.858001667">
        <time>2022-06-28T10:27:20Z</time>
      </trkpt>
      <trkpt lat="41.051548333" lon="-5.858023333">
        <time>2022-06-28T10:27:21Z</time>
      </trkpt>
      <trkpt lat="41.051486667" lon="-5.858045000">
        <time>2022-06-28T10:27:22Z</time>
      </trkpt>
      <trkpt lat="41.051425000" lon="-5.858066667">
        <time>2022-06-28T10:27:23Z</time>
      </trkpt>
      <trkpt lat="41.051363333" lon="-5.858086667">
        <time>2022-06-28T10:27:24Z</time>
      </trkpt>
      <trkpt lat="41.051300000" lon="-5.858105000">
        <time>2022-06-28T10:27:25Z</time>
      </trkpt>
      <trkpt lat="41.051236667" lon="-5.858126667">
        <time>2022-06-28T10:27:26Z</time>
      </trkpt>
      <trkpt lat="41.051173333" lon="-5.858146667">
        <time>2022-06-28T10:27:27Z</time>
      </trkpt>
      <trkpt lat="41.051110000" lon="-5.858168333">
        <time>2022-06-28T10:27:28Z</time>
      </trkpt>
      <trkpt lat="41.051046667" lon="-5.858191667">
        <time>2022-06-28T10:27:29Z</time>
      </trkpt>
      <trkpt lat="41.050983333" lon="-5.858215000">
        <time>2022-06-28T10:27:30Z</time>
      </trkpt>
      <trkpt lat="41.050920000" lon="-5.858236667">
        <time>2022-06-28T10:27:31Z</time>
      </trkpt>
      <trkpt lat="41.050856667" lon="-5.858260000">
        <time>2022-06-28T10:27:32Z</time>
      </trkpt>
      <trkpt lat="41.050793333" lon="-5.858280000">
        <time>2022-06-28T10:27:33Z</time>
      </trkpt>
      <trkpt lat="41.050731667" lon="-5.858300000">
        <time>2022-06-28T10:27:34Z</time>
      </trkpt>
      <trkpt lat="41.050668333" lon="-5.858318333">
        <time>2022-06-28T10:27:35Z</time>
      </trkpt>
      <trkpt lat="41.050608333" lon="-5.858340000">
        <time>2022-06-28T10:27:36Z</time>
      </trkpt>
      <trkpt lat="41.050548333" lon="-5.858363333">
        <time>2022-06-28T10:27:37Z</time>
      </trkpt>
      <trkpt lat="41.050491667" lon="-5.858383333">
        <time>2022-06-28T10:27:38Z</time>
      </trkpt>
      <trkpt lat="41.050433333" lon="-5.858403333">
        <time>2022-06-28T10:27:39Z</time>
      </trkpt>
      <trkpt lat="41.050371667" lon="-5.858425000">
        <time>2022-06-28T10:27:40Z</time>
      </trkpt>
      <trkpt lat="41.050311667" lon="-5.858446667">
        <time>2022-06-28T10:27:41Z</time>
      </trkpt>
      <trkpt lat="41.050251667" lon="-5.858468333">
        <time>2022-06-28T10:27:42Z</time>
      </trkpt>
      <trkpt lat="41.050190000" lon="-5.858488333">
        <time>2022-06-28T10:27:43Z</time>
      </trkpt>
      <trkpt lat="41.050128333" lon="-5.858508333">
        <time>2022-06-28T10:27:44Z</time>
      </trkpt>
      <trkpt lat="41.050066667" lon="-5.858530000">
        <time>2022-06-28T10:27:45Z</time>
      </trkpt>
      <trkpt lat="41.050006667" lon="-5.858550000">
        <time>2022-06-28T10:27:46Z</time>
      </trkpt>
      <trkpt lat="41.049945000" lon="-5.858570000">
        <time>2022-06-28T10:27:47Z</time>
      </trkpt>
      <trkpt lat="41.049883333" lon="-5.858591667">
        <time>2022-06-28T10:27:48Z</time>
      </trkpt>
      <trkpt lat="41.049820000" lon="-5.858613333">
        <time>2022-06-28T10:27:49Z</time>
      </trkpt>
      <trkpt lat="41.049758333" lon="-5.858635000">
        <time>2022-06-28T10:27:50Z</time>
      </trkpt>
      <trkpt lat="41.049696667" lon="-5.858656667">
        <time>2022-06-28T10:27:51Z</time>
      </trkpt>
      <trkpt lat="41.049633333" lon="-5.858676667">
        <time>2022-06-28T10:27:52Z</time>
      </trkpt>
      <trkpt lat="41.049571667" lon="-5.858696667">
        <time>2022-06-28T10:27:53Z</time>
      </trkpt>
      <trkpt lat="41.049511667" lon="-5.858716667">
        <time>2022-06-28T10:27:54Z</time>
      </trkpt>
      <trkpt lat="41.049451667" lon="-5.858738333">
        <time>2022-06-28T10:27:55Z</time>
      </trkpt>
      <trkpt lat="41.049393333" lon="-5.858760000">
        <time>2022-06-28T10:27:56Z</time>
      </trkpt>
      <trkpt lat="41.049333333" lon="-5.858781667">
        <time>2022-06-28T10:27:57Z</time>
      </trkpt>
      <trkpt lat="41.049275000" lon="-5.858801667">
        <time>2022-06-28T10:27:58Z</time>
      </trkpt>
      <trkpt lat="41.049215000" lon="-5.858821667">
        <time>2022-06-28T10:27:59Z</time>
      </trkpt>
      <trkpt lat="41.049155000" lon="-5.858841667">
        <time>2022-06-28T10:28:00Z</time>
      </trkpt>
      <trkpt lat="41.049095000" lon="-5.858863333">
        <time>2022-06-28T10:28:01Z</time>
      </trkpt>
      <trkpt lat="41.049035000" lon="-5.858885000">
        <time>2022-06-28T10:28:02Z</time>
      </trkpt>
      <trkpt lat="41.048975000" lon="-5.858906667">
        <time>2022-06-28T10:28:03Z</time>
      </trkpt>
      <trkpt lat="41.048915000" lon="-5.858928333">
        <time>2022-06-28T10:28:04Z</time>
      </trkpt>
      <trkpt lat="41.048855000" lon="-5.858950000">
        <time>2022-06-28T10:28:05Z</time>
      </trkpt>
      <trkpt lat="41.048795000" lon="-5.858973333">
        <time>2022-06-28T10:28:06Z</time>
      </trkpt>
      <trkpt lat="41.048736667" lon="-5.858993333">
        <time>2022-06-28T10:28:07Z</time>
      </trkpt>
      <trkpt lat="41.048676667" lon="-5.859011667">
        <time>2022-06-28T10:28:08Z</time>
      </trkpt>
      <trkpt lat="41.048616667" lon="-5.859030000">
        <time>2022-06-28T10:28:09Z</time>
      </trkpt>
      <trkpt lat="41.048556667" lon="-5.859048333">
        <time>2022-06-28T10:28:10Z</time>
      </trkpt>
      <trkpt lat="41.048496667" lon="-5.859066667">
        <time>2022-06-28T10:28:11Z</time>
      </trkpt>
      <trkpt lat="41.048435000" lon="-5.859080000">
        <time>2022-06-28T10:28:12Z</time>
      </trkpt>
      <trkpt lat="41.048375000" lon="-5.859091667">
        <time>2022-06-28T10:28:13Z</time>
      </trkpt>
      <trkpt lat="41.048313333" lon="-5.859103333">
        <time>2022-06-28T10:28:14Z</time>
      </trkpt>
      <trkpt lat="41.048251667" lon="-5.859111667">
        <time>2022-06-28T10:28:15Z</time>
      </trkpt>
      <trkpt lat="41.048190000" lon="-5.859120000">
        <time>2022-06-28T10:28:16Z</time>
      </trkpt>
      <trkpt lat="41.048128333" lon="-5.859126667">
        <time>2022-06-28T10:28:17Z</time>
      </trkpt>
      <trkpt lat="41.048065000" lon="-5.859131667">
        <time>2022-06-28T10:28:18Z</time>
      </trkpt>
      <trkpt lat="41.048003333" lon="-5.859140000">
        <time>2022-06-28T10:28:19Z</time>
      </trkpt>
      <trkpt lat="41.047943333" lon="-5.859145000">
        <time>2022-06-28T10:28:20Z</time>
      </trkpt>
      <trkpt lat="41.047881667" lon="-5.859146667">
        <time>2022-06-28T10:28:21Z</time>
      </trkpt>
      <trkpt lat="41.047820000" lon="-5.859148333">
        <time>2022-06-28T10:28:22Z</time>
      </trkpt>
      <trkpt lat="41.047758333" lon="-5.859151667">
        <time>2022-06-28T10:28:23Z</time>
      </trkpt>
      <trkpt lat="41.047698333" lon="-5.859153333">
        <time>2022-06-28T10:28:24Z</time>
      </trkpt>
      <trkpt lat="41.047636667" lon="-5.859156667">
        <time>2022-06-28T10:28:25Z</time>
      </trkpt>
      <trkpt lat="41.047576667" lon="-5.859160000">
        <time>2022-06-28T10:28:26Z</time>
      </trkpt>
      <trkpt lat="41.047515000" lon="-5.859160000">
        <time>2022-06-28T10:28:27Z</time>
      </trkpt>
      <trkpt lat="41.047455000" lon="-5.859160000">
        <time>2022-06-28T10:28:28Z</time>
      </trkpt>
      <trkpt lat="41.047396667" lon="-5.859161667">
        <time>2022-06-28T10:28:29Z</time>
      </trkpt>
      <trkpt lat="41.047338333" lon="-5.859161667">
        <time>2022-06-28T10:28:30Z</time>
      </trkpt>
      <trkpt lat="41.047280000" lon="-5.859160000">
        <time>2022-06-28T10:28:31Z</time>
      </trkpt>
      <trkpt lat="41.047221667" lon="-5.859158333">
        <time>2022-06-28T10:28:32Z</time>
      </trkpt>
      <trkpt lat="41.047163333" lon="-5.859158333">
        <time>2022-06-28T10:28:33Z</time>
      </trkpt>
      <trkpt lat="41.047105000" lon="-5.859158333">
        <time>2022-06-28T10:28:34Z</time>
      </trkpt>
      <trkpt lat="41.047045000" lon="-5.859156667">
        <time>2022-06-28T10:28:35Z</time>
      </trkpt>
      <trkpt lat="41.046986667" lon="-5.859155000">
        <time>2022-06-28T10:28:36Z</time>
      </trkpt>
      <trkpt lat="41.046928333" lon="-5.859155000">
        <time>2022-06-28T10:28:37Z</time>
      </trkpt>
      <trkpt lat="41.046871667" lon="-5.859153333">
        <time>2022-06-28T10:28:38Z</time>
      </trkpt>
      <trkpt lat="41.046815000" lon="-5.859151667">
        <time>2022-06-28T10:28:39Z</time>
      </trkpt>
      <trkpt lat="41.046758333" lon="-5.859151667">
        <time>2022-06-28T10:28:40Z</time>
      </trkpt>
      <trkpt lat="41.046701667" lon="-5.859151667">
        <time>2022-06-28T10:28:41Z</time>
      </trkpt>
      <trkpt lat="41.046645000" lon="-5.859151667">
        <time>2022-06-28T10:28:42Z</time>
      </trkpt>
      <trkpt lat="41.046586667" lon="-5.859151667">
        <time>2022-06-28T10:28:43Z</time>
      </trkpt>
      <trkpt lat="41.046530000" lon="-5.859153333">
        <time>2022-06-28T10:28:44Z</time>
      </trkpt>
      <trkpt lat="41.046471667" lon="-5.859153333">
        <time>2022-06-28T10:28:45Z</time>
      </trkpt>
      <trkpt lat="41.046413333" lon="-5.859153333">
        <time>2022-06-28T10:28:46Z</time>
      </trkpt>
      <trkpt lat="41.046355000" lon="-5.859151667">
        <time>2022-06-28T10:28:47Z</time>
      </trkpt>
      <trkpt lat="41.046296667" lon="-5.859151667">
        <time>2022-06-28T10:28:48Z</time>
      </trkpt>
      <trkpt lat="41.046238333" lon="-5.859151667">
        <time>2022-06-28T10:28:49Z</time>
      </trkpt>
      <trkpt lat="41.046180000" lon="-5.859150000">
        <time>2022-06-28T10:28:50Z</time>
      </trkpt>
      <trkpt lat="41.046123333" lon="-5.859150000">
        <time>2022-06-28T10:28:51Z</time>
      </trkpt>
      <trkpt lat="41.046065000" lon="-5.859148333">
        <time>2022-06-28T10:28:52Z</time>
      </trkpt>
      <trkpt lat="41.046008333" lon="-5.859146667">
        <time>2022-06-28T10:28:53Z</time>
      </trkpt>
      <trkpt lat="41.045950000" lon="-5.859146667">
        <time>2022-06-28T10:28:54Z</time>
      </trkpt>
      <trkpt lat="41.045891667" lon="-5.859146667">
        <time>2022-06-28T10:28:55Z</time>
      </trkpt>
      <trkpt lat="41.045835000" lon="-5.859146667">
        <time>2022-06-28T10:28:56Z</time>
      </trkpt>
      <trkpt lat="41.045776667" lon="-5.859146667">
        <time>2022-06-28T10:28:57Z</time>
      </trkpt>
      <trkpt lat="41.045720000" lon="-5.859146667">
        <time>2022-06-28T10:28:58Z</time>
      </trkpt>
      <trkpt lat="41.045661667" lon="-5.859148333">
        <time>2022-06-28T10:28:59Z</time>
      </trkpt>
      <trkpt lat="41.045603333" lon="-5.859146667">
        <time>2022-06-28T10:29:00Z</time>
      </trkpt>
      <trkpt lat="41.045545000" lon="-5.859145000">
        <time>2022-06-28T10:29:01Z</time>
      </trkpt>
      <trkpt lat="41.045485000" lon="-5.859143333">
        <time>2022-06-28T10:29:02Z</time>
      </trkpt>
      <trkpt lat="41.045426667" lon="-5.859141667">
        <time>2022-06-28T10:29:03Z</time>
      </trkpt>
      <trkpt lat="41.045366667" lon="-5.859141667">
        <time>2022-06-28T10:29:04Z</time>
      </trkpt>
      <trkpt lat="41.045306667" lon="-5.859141667">
        <time>2022-06-28T10:29:05Z</time>
      </trkpt>
      <trkpt lat="41.045246667" lon="-5.859141667">
        <time>2022-06-28T10:29:06Z</time>
      </trkpt>
      <trkpt lat="41.045186667" lon="-5.859141667">
        <time>2022-06-28T10:29:07Z</time>
      </trkpt>
      <trkpt lat="41.045126667" lon="-5.859140000">
        <time>2022-06-28T10:29:08Z</time>
      </trkpt>
      <trkpt lat="41.045066667" lon="-5.859140000">
        <time>2022-06-28T10:29:09Z</time>
      </trkpt>
      <trkpt lat="41.045008333" lon="-5.859136667">
        <time>2022-06-28T10:29:10Z</time>
      </trkpt>
      <trkpt lat="41.044948333" lon="-5.859138333">
        <time>2022-06-28T10:29:11Z</time>
      </trkpt>
      <trkpt lat="41.044890000" lon="-5.859136667">
        <time>2022-06-28T10:29:12Z</time>
      </trkpt>
      <trkpt lat="41.044830000" lon="-5.859135000">
        <time>2022-06-28T10:29:13Z</time>
      </trkpt>
      <trkpt lat="41.044770000" lon="-5.859136667">
        <time>2022-06-28T10:29:14Z</time>
      </trkpt>
      <trkpt lat="41.044710000" lon="-5.859136667">
        <time>2022-06-28T10:29:15Z</time>
      </trkpt>
      <trkpt lat="41.044650000" lon="-5.859136667">
        <time>2022-06-28T10:29:16Z</time>
      </trkpt>
      <trkpt lat="41.044591667" lon="-5.859133333">
        <time>2022-06-28T10:29:17Z</time>
      </trkpt>
      <trkpt lat="41.044533333" lon="-5.859131667">
        <time>2022-06-28T10:29:18Z</time>
      </trkpt>
      <trkpt lat="41.044473333" lon="-5.859130000">
        <time>2022-06-28T10:29:19Z</time>
      </trkpt>
      <trkpt lat="41.044415000" lon="-5.859130000">
        <time>2022-06-28T10:29:20Z</time>
      </trkpt>
      <trkpt lat="41.044355000" lon="-5.859128333">
        <time>2022-06-28T10:29:21Z</time>
      </trkpt>
      <trkpt lat="41.044295000" lon="-5.859130000">
        <time>2022-06-28T10:29:22Z</time>
      </trkpt>
      <trkpt lat="41.044236667" lon="-5.859130000">
        <time>2022-06-28T10:29:23Z</time>
      </trkpt>
      <trkpt lat="41.044176667" lon="-5.859130000">
        <time>2022-06-28T10:29:24Z</time>
      </trkpt>
      <trkpt lat="41.044118333" lon="-5.859130000">
        <time>2022-06-28T10:29:25Z</time>
      </trkpt>
      <trkpt lat="41.044058333" lon="-5.859128333">
        <time>2022-06-28T10:29:26Z</time>
      </trkpt>
      <trkpt lat="41.043998333" lon="-5.859126667">
        <time>2022-06-28T10:29:27Z</time>
      </trkpt>
      <trkpt lat="41.043940000" lon="-5.859125000">
        <time>2022-06-28T10:29:28Z</time>
      </trkpt>
      <trkpt lat="41.043881667" lon="-5.859125000">
        <time>2022-06-28T10:29:29Z</time>
      </trkpt>
      <trkpt lat="41.043823333" lon="-5.859125000">
        <time>2022-06-28T10:29:30Z</time>
      </trkpt>
      <trkpt lat="41.043768333" lon="-5.859123333">
        <time>2022-06-28T10:29:31Z</time>
      </trkpt>
      <trkpt lat="41.043711667" lon="-5.859121667">
        <time>2022-06-28T10:29:32Z</time>
      </trkpt>
      <trkpt lat="41.043656667" lon="-5.859121667">
        <time>2022-06-28T10:29:33Z</time>
      </trkpt>
      <trkpt lat="41.043600000" lon="-5.859121667">
        <time>2022-06-28T10:29:34Z</time>
      </trkpt>
      <trkpt lat="41.043545000" lon="-5.859123333">
        <time>2022-06-28T10:29:35Z</time>
      </trkpt>
      <trkpt lat="41.043490000" lon="-5.859121667">
        <time>2022-06-28T10:29:36Z</time>
      </trkpt>
      <trkpt lat="41.043435000" lon="-5.859121667">
        <time>2022-06-28T10:29:37Z</time>
      </trkpt>
      <trkpt lat="41.043381667" lon="-5.859121667">
        <time>2022-06-28T10:29:38Z</time>
      </trkpt>
      <trkpt lat="41.043326667" lon="-5.859118333">
        <time>2022-06-28T10:29:39Z</time>
      </trkpt>
      <trkpt lat="41.043273333" lon="-5.859120000">
        <time>2022-06-28T10:29:40Z</time>
      </trkpt>
      <trkpt lat="41.043220000" lon="-5.859120000">
        <time>2022-06-28T10:29:41Z</time>
      </trkpt>
      <trkpt lat="41.043171667" lon="-5.859118333">
        <time>2022-06-28T10:29:42Z</time>
      </trkpt>
      <trkpt lat="41.043125000" lon="-5.859120000">
        <time>2022-06-28T10:29:43Z</time>
      </trkpt>
      <trkpt lat="41.043080000" lon="-5.859125000">
        <time>2022-06-28T10:29:44Z</time>
      </trkpt>
      <trkpt lat="41.043040000" lon="-5.859136667">
        <time>2022-06-28T10:29:45Z</time>
      </trkpt>
      <trkpt lat="41.043001667" lon="-5.859156667">
        <time>2022-06-28T10:29:46Z</time>
      </trkpt>
      <trkpt lat="41.042970000" lon="-5.859190000">
        <time>2022-06-28T10:29:47Z</time>
      </trkpt>
      <trkpt lat="41.042945000" lon="-5.859235000">
        <time>2022-06-28T10:29:48Z</time>
      </trkpt>
      <trkpt lat="41.042930000" lon="-5.859286667">
        <time>2022-06-28T10:29:49Z</time>
      </trkpt>
      <trkpt lat="41.042923333" lon="-5.859343333">
        <time>2022-06-28T10:29:50Z</time>
      </trkpt>
      <trkpt lat="41.042923333" lon="-5.859403333">
        <time>2022-06-28T10:29:51Z</time>
      </trkpt>
      <trkpt lat="41.042926667" lon="-5.859465000">
        <time>2022-06-28T10:29:52Z</time>
      </trkpt>
      <trkpt lat="41.042930000" lon="-5.859526667">
        <time>2022-06-28T10:29:53Z</time>
      </trkpt>
      <trkpt lat="41.042935000" lon="-5.859590000">
        <time>2022-06-28T10:29:54Z</time>
      </trkpt>
      <trkpt lat="41.042938333" lon="-5.859655000">
        <time>2022-06-28T10:29:55Z</time>
      </trkpt>
      <trkpt lat="41.042943333" lon="-5.859720000">
        <time>2022-06-28T10:29:56Z</time>
      </trkpt>
      <trkpt lat="41.042946667" lon="-5.859786667">
        <time>2022-06-28T10:29:57Z</time>
      </trkpt>
      <trkpt lat="41.042951667" lon="-5.859858333">
        <time>2022-06-28T10:29:58Z</time>
      </trkpt>
      <trkpt lat="41.042956667" lon="-5.859930000">
        <time>2022-06-28T10:29:59Z</time>
      </trkpt>
      <trkpt lat="41.042965000" lon="-5.860003333">
        <time>2022-06-28T10:30:00Z</time>
      </trkpt>
      <trkpt lat="41.042971667" lon="-5.860076667">
        <time>2022-06-28T10:30:01Z</time>
      </trkpt>
      <trkpt lat="41.042976667" lon="-5.860153333">
        <time>2022-06-28T10:30:02Z</time>
      </trkpt>
      <trkpt lat="41.042985000" lon="-5.860228333">
        <time>2022-06-28T10:30:03Z</time>
      </trkpt>
      <trkpt lat="41.042993333" lon="-5.860306667">
        <time>2022-06-28T10:30:04Z</time>
      </trkpt>
      <trkpt lat="41.043001667" lon="-5.860385000">
        <time>2022-06-28T10:30:05Z</time>
      </trkpt>
      <trkpt lat="41.043013333" lon="-5.860463333">
        <time>2022-06-28T10:30:06Z</time>
      </trkpt>
      <trkpt lat="41.043025000" lon="-5.860541667">
        <time>2022-06-28T10:30:07Z</time>
      </trkpt>
      <trkpt lat="41.043040000" lon="-5.860620000">
        <time>2022-06-28T10:30:08Z</time>
      </trkpt>
      <trkpt lat="41.043056667" lon="-5.860698333">
        <time>2022-06-28T10:30:09Z</time>
      </trkpt>
      <trkpt lat="41.043071667" lon="-5.860775000">
        <time>2022-06-28T10:30:10Z</time>
      </trkpt>
      <trkpt lat="41.043090000" lon="-5.860851667">
        <time>2022-06-28T10:30:11Z</time>
      </trkpt>
      <trkpt lat="41.043111667" lon="-5.860928333">
        <time>2022-06-28T10:30:12Z</time>
      </trkpt>
      <trkpt lat="41.043135000" lon="-5.861005000">
        <time>2022-06-28T10:30:13Z</time>
      </trkpt>
      <trkpt lat="41.043158333" lon="-5.861083333">
        <time>2022-06-28T10:30:14Z</time>
      </trkpt>
      <trkpt lat="41.043183333" lon="-5.861161667">
        <time>2022-06-28T10:30:15Z</time>
      </trkpt>
      <trkpt lat="41.043208333" lon="-5.861238333">
        <time>2022-06-28T10:30:16Z</time>
      </trkpt>
      <trkpt lat="41.043236667" lon="-5.861315000">
        <time>2022-06-28T10:30:17Z</time>
      </trkpt>
      <trkpt lat="41.043265000" lon="-5.861390000">
        <time>2022-06-28T10:30:18Z</time>
      </trkpt>
      <trkpt lat="41.043295000" lon="-5.861463333">
        <time>2022-06-28T10:30:19Z</time>
      </trkpt>
      <trkpt lat="41.043325000" lon="-5.861538333">
        <time>2022-06-28T10:30:20Z</time>
      </trkpt>
      <trkpt lat="41.043356667" lon="-5.861615000">
        <time>2022-06-28T10:30:21Z</time>
      </trkpt>
      <trkpt lat="41.043386667" lon="-5.861691667">
        <time>2022-06-28T10:30:22Z</time>
      </trkpt>
      <trkpt lat="41.043418333" lon="-5.861768333">
        <time>2022-06-28T10:30:23Z</time>
      </trkpt>
      <trkpt lat="41.043451667" lon="-5.861843333">
        <time>2022-06-28T10:30:24Z</time>
      </trkpt>
      <trkpt lat="41.043485000" lon="-5.861918333">
        <time>2022-06-28T10:30:25Z</time>
      </trkpt>
      <trkpt lat="41.043520000" lon="-5.861995000">
        <time>2022-06-28T10:30:26Z</time>
      </trkpt>
      <trkpt lat="41.043555000" lon="-5.862070000">
        <time>2022-06-28T10:30:27Z</time>
      </trkpt>
      <trkpt lat="41.043590000" lon="-5.862148333">
        <time>2022-06-28T10:30:28Z</time>
      </trkpt>
      <trkpt lat="41.043625000" lon="-5.862226667">
        <time>2022-06-28T10:30:29Z</time>
      </trkpt>
      <trkpt lat="41.043660000" lon="-5.862305000">
        <time>2022-06-28T10:30:30Z</time>
      </trkpt>
      <trkpt lat="41.043695000" lon="-5.862383333">
        <time>2022-06-28T10:30:31Z</time>
      </trkpt>
      <trkpt lat="41.043728333" lon="-5.862463333">
        <time>2022-06-28T10:30:32Z</time>
      </trkpt>
      <trkpt lat="41.043763333" lon="-5.862546667">
        <time>2022-06-28T10:30:33Z</time>
      </trkpt>
      <trkpt lat="41.043795000" lon="-5.862628333">
        <time>2022-06-28T10:30:34Z</time>
      </trkpt>
      <trkpt lat="41.043828333" lon="-5.862713333">
        <time>2022-06-28T10:30:35Z</time>
      </trkpt>
      <trkpt lat="41.043858333" lon="-5.862800000">
        <time>2022-06-28T10:30:36Z</time>
      </trkpt>
      <trkpt lat="41.043885000" lon="-5.862888333">
        <time>2022-06-28T10:30:37Z</time>
      </trkpt>
      <trkpt lat="41.043910000" lon="-5.862981667">
        <time>2022-06-28T10:30:38Z</time>
      </trkpt>
      <trkpt lat="41.043933333" lon="-5.863076667">
        <time>2022-06-28T10:30:39Z</time>
      </trkpt>
      <trkpt lat="41.043955000" lon="-5.863175000">
        <time>2022-06-28T10:30:40Z</time>
      </trkpt>
      <trkpt lat="41.043975000" lon="-5.863271667">
        <time>2022-06-28T10:30:41Z</time>
      </trkpt>
      <trkpt lat="41.043995000" lon="-5.863368333">
        <time>2022-06-28T10:30:42Z</time>
      </trkpt>
      <trkpt lat="41.044013333" lon="-5.863468333">
        <time>2022-06-28T10:30:43Z</time>
      </trkpt>
      <trkpt lat="41.044031667" lon="-5.863566667">
        <time>2022-06-28T10:30:44Z</time>
      </trkpt>
      <trkpt lat="41.044051667" lon="-5.863663333">
        <time>2022-06-28T10:30:45Z</time>
      </trkpt>
      <trkpt lat="41.044070000" lon="-5.863760000">
        <time>2022-06-28T10:30:46Z</time>
      </trkpt>
      <trkpt lat="41.044088333" lon="-5.863855000">
        <time>2022-06-28T10:30:47Z</time>
      </trkpt>
      <trkpt lat="41.044106667" lon="-5.863950000">
        <time>2022-06-28T10:30:48Z</time>
      </trkpt>
      <trkpt lat="41.044123333" lon="-5.864043333">
        <time>2022-06-28T10:30:49Z</time>
      </trkpt>
      <trkpt lat="41.044141667" lon="-5.864138333">
        <time>2022-06-28T10:30:50Z</time>
      </trkpt>
      <trkpt lat="41.044158333" lon="-5.864233333">
        <time>2022-06-28T10:30:51Z</time>
      </trkpt>
      <trkpt lat="41.044176667" lon="-5.864330000">
        <time>2022-06-28T10:30:52Z</time>
      </trkpt>
      <trkpt lat="41.044195000" lon="-5.864423333">
        <time>2022-06-28T10:30:53Z</time>
      </trkpt>
      <trkpt lat="41.044211667" lon="-5.864516667">
        <time>2022-06-28T10:30:54Z</time>
      </trkpt>
      <trkpt lat="41.044228333" lon="-5.864610000">
        <time>2022-06-28T10:30:55Z</time>
      </trkpt>
      <trkpt lat="41.044246667" lon="-5.864700000">
        <time>2022-06-28T10:30:56Z</time>
      </trkpt>
      <trkpt lat="41.044260000" lon="-5.864788333">
        <time>2022-06-28T10:30:57Z</time>
      </trkpt>
      <trkpt lat="41.044276667" lon="-5.864876667">
        <time>2022-06-28T10:30:58Z</time>
      </trkpt>
      <trkpt lat="41.044291667" lon="-5.864963333">
        <time>2022-06-28T10:30:59Z</time>
      </trkpt>
      <trkpt lat="41.044308333" lon="-5.865048333">
        <time>2022-06-28T10:31:00Z</time>
      </trkpt>
      <trkpt lat="41.044326667" lon="-5.865135000">
        <time>2022-06-28T10:31:01Z</time>
      </trkpt>
      <trkpt lat="41.044343333" lon="-5.865220000">
        <time>2022-06-28T10:31:02Z</time>
      </trkpt>
      <trkpt lat="41.044360000" lon="-5.865306667">
        <time>2022-06-28T10:31:03Z</time>
      </trkpt>
      <trkpt lat="41.044378333" lon="-5.865395000">
        <time>2022-06-28T10:31:04Z</time>
      </trkpt>
      <trkpt lat="41.044395000" lon="-5.865483333">
        <time>2022-06-28T10:31:05Z</time>
      </trkpt>
      <trkpt lat="41.044410000" lon="-5.865571667">
        <time>2022-06-28T10:31:06Z</time>
      </trkpt>
      <trkpt lat="41.044425000" lon="-5.865658333">
        <time>2022-06-28T10:31:07Z</time>
      </trkpt>
      <trkpt lat="41.044440000" lon="-5.865745000">
        <time>2022-06-28T10:31:08Z</time>
      </trkpt>
      <trkpt lat="41.044455000" lon="-5.865833333">
        <time>2022-06-28T10:31:09Z</time>
      </trkpt>
      <trkpt lat="41.044468333" lon="-5.865920000">
        <time>2022-06-28T10:31:10Z</time>
      </trkpt>
      <trkpt lat="41.044478333" lon="-5.866005000">
        <time>2022-06-28T10:31:11Z</time>
      </trkpt>
      <trkpt lat="41.044490000" lon="-5.866090000">
        <time>2022-06-28T10:31:12Z</time>
      </trkpt>
      <trkpt lat="41.044501667" lon="-5.866173333">
        <time>2022-06-28T10:31:13Z</time>
      </trkpt>
      <trkpt lat="41.044508333" lon="-5.866256667">
        <time>2022-06-28T10:31:14Z</time>
      </trkpt>
      <trkpt lat="41.044516667" lon="-5.866341667">
        <time>2022-06-28T10:31:15Z</time>
      </trkpt>
      <trkpt lat="41.044520000" lon="-5.866426667">
        <time>2022-06-28T10:31:16Z</time>
      </trkpt>
      <trkpt lat="41.044521667" lon="-5.866511667">
        <time>2022-06-28T10:31:17Z</time>
      </trkpt>
      <trkpt lat="41.044523333" lon="-5.866595000">
        <time>2022-06-28T10:31:18Z</time>
      </trkpt>
      <trkpt lat="41.044520000" lon="-5.866680000">
        <time>2022-06-28T10:31:19Z</time>
      </trkpt>
      <trkpt lat="41.044518333" lon="-5.866765000">
        <time>2022-06-28T10:31:20Z</time>
      </trkpt>
      <trkpt lat="41.044516667" lon="-5.866851667">
        <time>2022-06-28T10:31:21Z</time>
      </trkpt>
      <trkpt lat="41.044513333" lon="-5.866940000">
        <time>2022-06-28T10:31:22Z</time>
      </trkpt>
      <trkpt lat="41.044511667" lon="-5.867025000">
        <time>2022-06-28T10:31:23Z</time>
      </trkpt>
      <trkpt lat="41.044506667" lon="-5.867110000">
        <time>2022-06-28T10:31:24Z</time>
      </trkpt>
      <trkpt lat="41.044503333" lon="-5.867195000">
        <time>2022-06-28T10:31:25Z</time>
      </trkpt>
      <trkpt lat="41.044501667" lon="-5.867278333">
        <time>2022-06-28T10:31:26Z</time>
      </trkpt>
      <trkpt lat="41.044496667" lon="-5.867361667">
        <time>2022-06-28T10:31:27Z</time>
      </trkpt>
      <trkpt lat="41.044493333" lon="-5.867443333">
        <time>2022-06-28T10:31:28Z</time>
      </trkpt>
      <trkpt lat="41.044491667" lon="-5.867526667">
        <time>2022-06-28T10:31:29Z</time>
      </trkpt>
      <trkpt lat="41.044488333" lon="-5.867608333">
        <time>2022-06-28T10:31:30Z</time>
      </trkpt>
      <trkpt lat="41.044485000" lon="-5.867690000">
        <time>2022-06-28T10:31:31Z</time>
      </trkpt>
      <trkpt lat="41.044480000" lon="-5.867770000">
        <time>2022-06-28T10:31:32Z</time>
      </trkpt>
      <trkpt lat="41.044475000" lon="-5.867848333">
        <time>2022-06-28T10:31:33Z</time>
      </trkpt>
      <trkpt lat="41.044471667" lon="-5.867926667">
        <time>2022-06-28T10:31:34Z</time>
      </trkpt>
      <trkpt lat="41.044468333" lon="-5.868005000">
        <time>2022-06-28T10:31:35Z</time>
      </trkpt>
      <trkpt lat="41.044465000" lon="-5.868083333">
        <time>2022-06-28T10:31:36Z</time>
      </trkpt>
      <trkpt lat="41.044461667" lon="-5.868161667">
        <time>2022-06-28T10:31:37Z</time>
      </trkpt>
      <trkpt lat="41.044458333" lon="-5.868241667">
        <time>2022-06-28T10:31:38Z</time>
      </trkpt>
      <trkpt lat="41.044455000" lon="-5.868323333">
        <time>2022-06-28T10:31:39Z</time>
      </trkpt>
      <trkpt lat="41.044450000" lon="-5.868403333">
        <time>2022-06-28T10:31:40Z</time>
      </trkpt>
      <trkpt lat="41.044445000" lon="-5.868485000">
        <time>2022-06-28T10:31:41Z</time>
      </trkpt>
      <trkpt lat="41.044441667" lon="-5.868565000">
        <time>2022-06-28T10:31:42Z</time>
      </trkpt>
      <trkpt lat="41.044436667" lon="-5.868645000">
        <time>2022-06-28T10:31:43Z</time>
      </trkpt>
      <trkpt lat="41.044433333" lon="-5.868725000">
        <time>2022-06-28T10:31:44Z</time>
      </trkpt>
      <trkpt lat="41.044428333" lon="-5.868805000">
        <time>2022-06-28T10:31:45Z</time>
      </trkpt>
      <trkpt lat="41.044423333" lon="-5.868885000">
        <time>2022-06-28T10:31:46Z</time>
      </trkpt>
      <trkpt lat="41.044421667" lon="-5.868966667">
        <time>2022-06-28T10:31:47Z</time>
      </trkpt>
      <trkpt lat="41.044420000" lon="-5.869046667">
        <time>2022-06-28T10:31:48Z</time>
      </trkpt>
      <trkpt lat="41.044416667" lon="-5.869126667">
        <time>2022-06-28T10:31:49Z</time>
      </trkpt>
      <trkpt lat="41.044411667" lon="-5.869205000">
        <time>2022-06-28T10:31:50Z</time>
      </trkpt>
      <trkpt lat="41.044408333" lon="-5.869285000">
        <time>2022-06-28T10:31:51Z</time>
      </trkpt>
      <trkpt lat="41.044405000" lon="-5.869363333">
        <time>2022-06-28T10:31:52Z</time>
      </trkpt>
      <trkpt lat="41.044401667" lon="-5.869443333">
        <time>2022-06-28T10:31:53Z</time>
      </trkpt>
      <trkpt lat="41.044396667" lon="-5.869523333">
        <time>2022-06-28T10:31:54Z</time>
      </trkpt>
      <trkpt lat="41.044395000" lon="-5.869603333">
        <time>2022-06-28T10:31:55Z</time>
      </trkpt>
      <trkpt lat="41.044390000" lon="-5.869683333">
        <time>2022-06-28T10:31:56Z</time>
      </trkpt>
      <trkpt lat="41.044385000" lon="-5.869763333">
        <time>2022-06-28T10:31:57Z</time>
      </trkpt>
      <trkpt lat="41.044381667" lon="-5.869843333">
        <time>2022-06-28T10:31:58Z</time>
      </trkpt>
      <trkpt lat="41.044378333" lon="-5.869925000">
        <time>2022-06-28T10:31:59Z</time>
      </trkpt>
      <trkpt lat="41.044378333" lon="-5.870005000">
        <time>2022-06-28T10:32:00Z</time>
      </trkpt>
      <trkpt lat="41.044376667" lon="-5.870088333">
        <time>2022-06-28T10:32:01Z</time>
      </trkpt>
      <trkpt lat="41.044376667" lon="-5.870170000">
        <time>2022-06-28T10:32:02Z</time>
      </trkpt>
      <trkpt lat="41.044381667" lon="-5.870253333">
        <time>2022-06-28T10:32:03Z</time>
      </trkpt>
      <trkpt lat="41.044388333" lon="-5.870338333">
        <time>2022-06-28T10:32:04Z</time>
      </trkpt>
      <trkpt lat="41.044400000" lon="-5.870423333">
        <time>2022-06-28T10:32:05Z</time>
      </trkpt>
      <trkpt lat="41.044415000" lon="-5.870508333">
        <time>2022-06-28T10:32:06Z</time>
      </trkpt>
      <trkpt lat="41.044431667" lon="-5.870593333">
        <time>2022-06-28T10:32:07Z</time>
      </trkpt>
      <trkpt lat="41.044451667" lon="-5.870676667">
        <time>2022-06-28T10:32:08Z</time>
      </trkpt>
      <trkpt lat="41.044476667" lon="-5.870758333">
        <time>2022-06-28T10:32:09Z</time>
      </trkpt>
      <trkpt lat="41.044505000" lon="-5.870838333">
        <time>2022-06-28T10:32:10Z</time>
      </trkpt>
      <trkpt lat="41.044536667" lon="-5.870915000">
        <time>2022-06-28T10:32:11Z</time>
      </trkpt>
      <trkpt lat="41.044571667" lon="-5.870986667">
        <time>2022-06-28T10:32:12Z</time>
      </trkpt>
      <trkpt lat="41.044608333" lon="-5.871058333">
        <time>2022-06-28T10:32:13Z</time>
      </trkpt>
      <trkpt lat="41.044648333" lon="-5.871128333">
        <time>2022-06-28T10:32:14Z</time>
      </trkpt>
      <trkpt lat="41.044690000" lon="-5.871195000">
        <time>2022-06-28T10:32:15Z</time>
      </trkpt>
      <trkpt lat="41.044733333" lon="-5.871258333">
        <time>2022-06-28T10:32:16Z</time>
      </trkpt>
      <trkpt lat="41.044778333" lon="-5.871321667">
        <time>2022-06-28T10:32:17Z</time>
      </trkpt>
      <trkpt lat="41.044821667" lon="-5.871386667">
        <time>2022-06-28T10:32:18Z</time>
      </trkpt>
      <trkpt lat="41.044866667" lon="-5.871448333">
        <time>2022-06-28T10:32:19Z</time>
      </trkpt>
      <trkpt lat="41.044910000" lon="-5.871510000">
        <time>2022-06-28T10:32:20Z</time>
      </trkpt>
      <trkpt lat="41.044955000" lon="-5.871571667">
        <time>2022-06-28T10:32:21Z</time>
      </trkpt>
      <trkpt lat="41.044998333" lon="-5.871633333">
        <time>2022-06-28T10:32:22Z</time>
      </trkpt>
      <trkpt lat="41.045043333" lon="-5.871693333">
        <time>2022-06-28T10:32:23Z</time>
      </trkpt>
      <trkpt lat="41.045088333" lon="-5.871753333">
        <time>2022-06-28T10:32:24Z</time>
      </trkpt>
      <trkpt lat="41.045131667" lon="-5.871813333">
        <time>2022-06-28T10:32:25Z</time>
      </trkpt>
      <trkpt lat="41.045175000" lon="-5.871875000">
        <time>2022-06-28T10:32:26Z</time>
      </trkpt>
      <trkpt lat="41.045218333" lon="-5.871936667">
        <time>2022-06-28T10:32:27Z</time>
      </trkpt>
      <trkpt lat="41.045263333" lon="-5.871998333">
        <time>2022-06-28T10:32:28Z</time>
      </trkpt>
      <trkpt lat="41.045306667" lon="-5.872060000">
        <time>2022-06-28T10:32:29Z</time>
      </trkpt>
      <trkpt lat="41.045350000" lon="-5.872118333">
        <time>2022-06-28T10:32:30Z</time>
      </trkpt>
      <trkpt lat="41.045391667" lon="-5.872178333">
        <time>2022-06-28T10:32:31Z</time>
      </trkpt>
      <trkpt lat="41.045433333" lon="-5.872238333">
        <time>2022-06-28T10:32:32Z</time>
      </trkpt>
      <trkpt lat="41.045476667" lon="-5.872298333">
        <time>2022-06-28T10:32:33Z</time>
      </trkpt>
      <trkpt lat="41.045518333" lon="-5.872355000">
        <time>2022-06-28T10:32:34Z</time>
      </trkpt>
      <trkpt lat="41.045560000" lon="-5.872410000">
        <time>2022-06-28T10:32:35Z</time>
      </trkpt>
      <trkpt lat="41.045601667" lon="-5.872465000">
        <time>2022-06-28T10:32:36Z</time>
      </trkpt>
      <trkpt lat="41.045641667" lon="-5.872520000">
        <time>2022-06-28T10:32:37Z</time>
      </trkpt>
      <trkpt lat="41.045680000" lon="-5.872575000">
        <time>2022-06-28T10:32:38Z</time>
      </trkpt>
      <trkpt lat="41.045720000" lon="-5.872628333">
        <time>2022-06-28T10:32:39Z</time>
      </trkpt>
      <trkpt lat="41.045758333" lon="-5.872683333">
        <time>2022-06-28T10:32:40Z</time>
      </trkpt>
      <trkpt lat="41.045798333" lon="-5.872735000">
        <time>2022-06-28T10:32:41Z</time>
      </trkpt>
      <trkpt lat="41.045835000" lon="-5.872788333">
        <time>2022-06-28T10:32:42Z</time>
      </trkpt>
      <trkpt lat="41.045873333" lon="-5.872840000">
        <time>2022-06-28T10:32:43Z</time>
      </trkpt>
      <trkpt lat="41.045910000" lon="-5.872891667">
        <time>2022-06-28T10:32:44Z</time>
      </trkpt>
      <trkpt lat="41.045945000" lon="-5.872940000">
        <time>2022-06-28T10:32:45Z</time>
      </trkpt>
      <trkpt lat="41.045983333" lon="-5.872990000">
        <time>2022-06-28T10:32:46Z</time>
      </trkpt>
      <trkpt lat="41.046020000" lon="-5.873036667">
        <time>2022-06-28T10:32:47Z</time>
      </trkpt>
      <trkpt lat="41.046055000" lon="-5.873086667">
        <time>2022-06-28T10:32:48Z</time>
      </trkpt>
      <trkpt lat="41.046090000" lon="-5.873136667">
        <time>2022-06-28T10:32:49Z</time>
      </trkpt>
      <trkpt lat="41.046125000" lon="-5.873185000">
        <time>2022-06-28T10:32:50Z</time>
      </trkpt>
      <trkpt lat="41.046160000" lon="-5.873233333">
        <time>2022-06-28T10:32:51Z</time>
      </trkpt>
      <trkpt lat="41.046195000" lon="-5.873281667">
        <time>2022-06-28T10:32:52Z</time>
      </trkpt>
      <trkpt lat="41.046231667" lon="-5.873330000">
        <time>2022-06-28T10:32:53Z</time>
      </trkpt>
      <trkpt lat="41.046266667" lon="-5.873376667">
        <time>2022-06-28T10:32:54Z</time>
      </trkpt>
      <trkpt lat="41.046301667" lon="-5.873423333">
        <time>2022-06-28T10:32:55Z</time>
      </trkpt>
      <trkpt lat="41.046335000" lon="-5.873471667">
        <time>2022-06-28T10:32:56Z</time>
      </trkpt>
      <trkpt lat="41.046370000" lon="-5.873521667">
        <time>2022-06-28T10:32:57Z</time>
      </trkpt>
      <trkpt lat="41.046406667" lon="-5.873570000">
        <time>2022-06-28T10:32:58Z</time>
      </trkpt>
      <trkpt lat="41.046441667" lon="-5.873620000">
        <time>2022-06-28T10:32:59Z</time>
      </trkpt>
      <trkpt lat="41.046476667" lon="-5.873671667">
        <time>2022-06-28T10:33:00Z</time>
      </trkpt>
      <trkpt lat="41.046513333" lon="-5.873721667">
        <time>2022-06-28T10:33:01Z</time>
      </trkpt>
      <trkpt lat="41.046550000" lon="-5.873771667">
        <time>2022-06-28T10:33:02Z</time>
      </trkpt>
      <trkpt lat="41.046586667" lon="-5.873821667">
        <time>2022-06-28T10:33:03Z</time>
      </trkpt>
      <trkpt lat="41.046625000" lon="-5.873873333">
        <time>2022-06-28T10:33:04Z</time>
      </trkpt>
      <trkpt lat="41.046665000" lon="-5.873925000">
        <time>2022-06-28T10:33:05Z</time>
      </trkpt>
      <trkpt lat="41.046705000" lon="-5.873978333">
        <time>2022-06-28T10:33:06Z</time>
      </trkpt>
      <trkpt lat="41.046746667" lon="-5.874036667">
        <time>2022-06-28T10:33:07Z</time>
      </trkpt>
      <trkpt lat="41.046788333" lon="-5.874093333">
        <time>2022-06-28T10:33:08Z</time>
      </trkpt>
      <trkpt lat="41.046830000" lon="-5.874146667">
        <time>2022-06-28T10:33:09Z</time>
      </trkpt>
      <trkpt lat="41.046870000" lon="-5.874201667">
        <time>2022-06-28T10:33:10Z</time>
      </trkpt>
      <trkpt lat="41.046910000" lon="-5.874258333">
        <time>2022-06-28T10:33:11Z</time>
      </trkpt>
      <trkpt lat="41.046950000" lon="-5.874315000">
        <time>2022-06-28T10:33:12Z</time>
      </trkpt>
      <trkpt lat="41.046991667" lon="-5.874373333">
        <time>2022-06-28T10:33:13Z</time>
      </trkpt>
      <trkpt lat="41.047033333" lon="-5.874430000">
        <time>2022-06-28T10:33:14Z</time>
      </trkpt>
      <trkpt lat="41.047075000" lon="-5.874490000">
        <time>2022-06-28T10:33:15Z</time>
      </trkpt>
      <trkpt lat="41.047118333" lon="-5.874546667">
        <time>2022-06-28T10:33:16Z</time>
      </trkpt>
      <trkpt lat="41.047161667" lon="-5.874606667">
        <time>2022-06-28T10:33:17Z</time>
      </trkpt>
      <trkpt lat="41.047206667" lon="-5.874670000">
        <time>2022-06-28T10:33:18Z</time>
      </trkpt>
      <trkpt lat="41.047253333" lon="-5.874735000">
        <time>2022-06-28T10:33:19Z</time>
      </trkpt>
      <trkpt lat="41.047300000" lon="-5.874803333">
        <time>2022-06-28T10:33:20Z</time>
      </trkpt>
      <trkpt lat="41.047350000" lon="-5.874870000">
        <time>2022-06-28T10:33:21Z</time>
      </trkpt>
      <trkpt lat="41.047400000" lon="-5.874940000">
        <time>2022-06-28T10:33:22Z</time>
      </trkpt>
      <trkpt lat="41.047450000" lon="-5.875011667">
        <time>2022-06-28T10:33:23Z</time>
      </trkpt>
      <trkpt lat="41.047500000" lon="-5.875081667">
        <time>2022-06-28T10:33:24Z</time>
      </trkpt>
      <trkpt lat="41.047551667" lon="-5.875151667">
        <time>2022-06-28T10:33:25Z</time>
      </trkpt>
      <trkpt lat="41.047601667" lon="-5.875221667">
        <time>2022-06-28T10:33:26Z</time>
      </trkpt>
      <trkpt lat="41.047651667" lon="-5.875290000">
        <time>2022-06-28T10:33:27Z</time>
      </trkpt>
      <trkpt lat="41.047700000" lon="-5.875358333">
        <time>2022-06-28T10:33:28Z</time>
      </trkpt>
      <trkpt lat="41.047746667" lon="-5.875423333">
        <time>2022-06-28T10:33:29Z</time>
      </trkpt>
      <trkpt lat="41.047795000" lon="-5.875486667">
        <time>2022-06-28T10:33:30Z</time>
      </trkpt>
      <trkpt lat="41.047840000" lon="-5.875553333">
        <time>2022-06-28T10:33:31Z</time>
      </trkpt>
      <trkpt lat="41.047890000" lon="-5.875616667">
        <time>2022-06-28T10:33:32Z</time>
      </trkpt>
      <trkpt lat="41.047935000" lon="-5.875683333">
        <time>2022-06-28T10:33:33Z</time>
      </trkpt>
      <trkpt lat="41.047983333" lon="-5.875748333">
        <time>2022-06-28T10:33:34Z</time>
      </trkpt>
      <trkpt lat="41.048030000" lon="-5.875810000">
        <time>2022-06-28T10:33:35Z</time>
      </trkpt>
      <trkpt lat="41.048073333" lon="-5.875871667">
        <time>2022-06-28T10:33:36Z</time>
      </trkpt>
      <trkpt lat="41.048116667" lon="-5.875930000">
        <time>2022-06-28T10:33:37Z</time>
      </trkpt>
      <trkpt lat="41.048158333" lon="-5.875986667">
        <time>2022-06-28T10:33:38Z</time>
      </trkpt>
      <trkpt lat="41.048200000" lon="-5.876041667">
        <time>2022-06-28T10:33:39Z</time>
      </trkpt>
      <trkpt lat="41.048241667" lon="-5.876096667">
        <time>2022-06-28T10:33:40Z</time>
      </trkpt>
      <trkpt lat="41.048281667" lon="-5.876151667">
        <time>2022-06-28T10:33:41Z</time>
      </trkpt>
      <trkpt lat="41.048323333" lon="-5.876203333">
        <time>2022-06-28T10:33:42Z</time>
      </trkpt>
      <trkpt lat="41.048363333" lon="-5.876255000">
        <time>2022-06-28T10:33:43Z</time>
      </trkpt>
      <trkpt lat="41.048403333" lon="-5.876306667">
        <time>2022-06-28T10:33:44Z</time>
      </trkpt>
      <trkpt lat="41.048441667" lon="-5.876361667">
        <time>2022-06-28T10:33:45Z</time>
      </trkpt>
      <trkpt lat="41.048480000" lon="-5.876415000">
        <time>2022-06-28T10:33:46Z</time>
      </trkpt>
      <trkpt lat="41.048518333" lon="-5.876466667">
        <time>2022-06-28T10:33:47Z</time>
      </trkpt>
      <trkpt lat="41.048558333" lon="-5.876518333">
        <time>2022-06-28T10:33:48Z</time>
      </trkpt>
      <trkpt lat="41.048596667" lon="-5.876570000">
        <time>2022-06-28T10:33:49Z</time>
      </trkpt>
      <trkpt lat="41.048635000" lon="-5.876623333">
        <time>2022-06-28T10:33:50Z</time>
      </trkpt>
      <trkpt lat="41.048675000" lon="-5.876673333">
        <time>2022-06-28T10:33:51Z</time>
      </trkpt>
      <trkpt lat="41.048715000" lon="-5.876725000">
        <time>2022-06-28T10:33:52Z</time>
      </trkpt>
      <trkpt lat="41.048755000" lon="-5.876780000">
        <time>2022-06-28T10:33:53Z</time>
      </trkpt>
      <trkpt lat="41.048795000" lon="-5.876836667">
        <time>2022-06-28T10:33:54Z</time>
      </trkpt>
      <trkpt lat="41.048835000" lon="-5.876891667">
        <time>2022-06-28T10:33:55Z</time>
      </trkpt>
      <trkpt lat="41.048875000" lon="-5.876948333">
        <time>2022-06-28T10:33:56Z</time>
      </trkpt>
      <trkpt lat="41.048913333" lon="-5.877003333">
        <time>2022-06-28T10:33:57Z</time>
      </trkpt>
      <trkpt lat="41.048955000" lon="-5.877058333">
        <time>2022-06-28T10:33:58Z</time>
      </trkpt>
      <trkpt lat="41.048995000" lon="-5.877115000">
        <time>2022-06-28T10:33:59Z</time>
      </trkpt>
      <trkpt lat="41.049033333" lon="-5.877171667">
        <time>2022-06-28T10:34:00Z</time>
      </trkpt>
      <trkpt lat="41.049070000" lon="-5.877230000">
        <time>2022-06-28T10:34:01Z</time>
      </trkpt>
      <trkpt lat="41.049108333" lon="-5.877288333">
        <time>2022-06-28T10:34:02Z</time>
      </trkpt>
      <trkpt lat="41.049146667" lon="-5.877346667">
        <time>2022-06-28T10:34:03Z</time>
      </trkpt>
      <trkpt lat="41.049183333" lon="-5.877405000">
        <time>2022-06-28T10:34:04Z</time>
      </trkpt>
      <trkpt lat="41.049220000" lon="-5.877465000">
        <time>2022-06-28T10:34:05Z</time>
      </trkpt>
      <trkpt lat="41.049256667" lon="-5.877526667">
        <time>2022-06-28T10:34:06Z</time>
      </trkpt>
      <trkpt lat="41.049293333" lon="-5.877586667">
        <time>2022-06-28T10:34:07Z</time>
      </trkpt>
      <trkpt lat="41.049328333" lon="-5.877648333">
        <time>2022-06-28T10:34:08Z</time>
      </trkpt>
      <trkpt lat="41.049361667" lon="-5.877708333">
        <time>2022-06-28T10:34:09Z</time>
      </trkpt>
      <trkpt lat="41.049393333" lon="-5.877773333">
        <time>2022-06-28T10:34:10Z</time>
      </trkpt>
      <trkpt lat="41.049423333" lon="-5.877838333">
        <time>2022-06-28T10:34:11Z</time>
      </trkpt>
      <trkpt lat="41.049453333" lon="-5.877906667">
        <time>2022-06-28T10:34:12Z</time>
      </trkpt>
      <trkpt lat="41.049483333" lon="-5.877975000">
        <time>2022-06-28T10:34:13Z</time>
      </trkpt>
      <trkpt lat="41.049510000" lon="-5.878045000">
        <time>2022-06-28T10:34:14Z</time>
      </trkpt>
      <trkpt lat="41.049536667" lon="-5.878116667">
        <time>2022-06-28T10:34:15Z</time>
      </trkpt>
      <trkpt lat="41.049561667" lon="-5.878190000">
        <time>2022-06-28T10:34:16Z</time>
      </trkpt>
      <trkpt lat="41.049586667" lon="-5.878263333">
        <time>2022-06-28T10:34:17Z</time>
      </trkpt>
      <trkpt lat="41.049610000" lon="-5.878338333">
        <time>2022-06-28T10:34:18Z</time>
      </trkpt>
      <trkpt lat="41.049633333" lon="-5.878413333">
        <time>2022-06-28T10:34:19Z</time>
      </trkpt>
      <trkpt lat="41.049655000" lon="-5.878488333">
        <time>2022-06-28T10:34:20Z</time>
      </trkpt>
      <trkpt lat="41.049675000" lon="-5.878563333">
        <time>2022-06-28T10:34:21Z</time>
      </trkpt>
      <trkpt lat="41.049695000" lon="-5.878640000">
        <time>2022-06-28T10:34:22Z</time>
      </trkpt>
      <trkpt lat="41.049713333" lon="-5.878718333">
        <time>2022-06-28T10:34:23Z</time>
      </trkpt>
      <trkpt lat="41.049730000" lon="-5.878798333">
        <time>2022-06-28T10:34:24Z</time>
      </trkpt>
      <trkpt lat="41.049745000" lon="-5.878878333">
        <time>2022-06-28T10:34:25Z</time>
      </trkpt>
      <trkpt lat="41.049760000" lon="-5.878960000">
        <time>2022-06-28T10:34:26Z</time>
      </trkpt>
      <trkpt lat="41.049775000" lon="-5.879041667">
        <time>2022-06-28T10:34:27Z</time>
      </trkpt>
      <trkpt lat="41.049790000" lon="-5.879121667">
        <time>2022-06-28T10:34:28Z</time>
      </trkpt>
      <trkpt lat="41.049806667" lon="-5.879203333">
        <time>2022-06-28T10:34:29Z</time>
      </trkpt>
      <trkpt lat="41.049821667" lon="-5.879285000">
        <time>2022-06-28T10:34:30Z</time>
      </trkpt>
      <trkpt lat="41.049838333" lon="-5.879365000">
        <time>2022-06-28T10:34:31Z</time>
      </trkpt>
      <trkpt lat="41.049853333" lon="-5.879445000">
        <time>2022-06-28T10:34:32Z</time>
      </trkpt>
      <trkpt lat="41.049868333" lon="-5.879525000">
        <time>2022-06-28T10:34:33Z</time>
      </trkpt>
      <trkpt lat="41.049883333" lon="-5.879606667">
        <time>2022-06-28T10:34:34Z</time>
      </trkpt>
      <trkpt lat="41.049898333" lon="-5.879688333">
        <time>2022-06-28T10:34:35Z</time>
      </trkpt>
      <trkpt lat="41.049913333" lon="-5.879771667">
        <time>2022-06-28T10:34:36Z</time>
      </trkpt>
      <trkpt lat="41.049928333" lon="-5.879853333">
        <time>2022-06-28T10:34:37Z</time>
      </trkpt>
      <trkpt lat="41.049943333" lon="-5.879935000">
        <time>2022-06-28T10:34:38Z</time>
      </trkpt>
      <trkpt lat="41.049958333" lon="-5.880018333">
        <time>2022-06-28T10:34:39Z</time>
      </trkpt>
      <trkpt lat="41.049973333" lon="-5.880101667">
        <time>2022-06-28T10:34:40Z</time>
      </trkpt>
      <trkpt lat="41.049988333" lon="-5.880185000">
        <time>2022-06-28T10:34:41Z</time>
      </trkpt>
      <trkpt lat="41.050003333" lon="-5.880268333">
        <time>2022-06-28T10:34:42Z</time>
      </trkpt>
      <trkpt lat="41.050018333" lon="-5.880351667">
        <time>2022-06-28T10:34:43Z</time>
      </trkpt>
      <trkpt lat="41.050033333" lon="-5.880435000">
        <time>2022-06-28T10:34:44Z</time>
      </trkpt>
      <trkpt lat="41.050048333" lon="-5.880520000">
        <time>2022-06-28T10:34:45Z</time>
      </trkpt>
      <trkpt lat="41.050061667" lon="-5.880603333">
        <time>2022-06-28T10:34:46Z</time>
      </trkpt>
      <trkpt lat="41.050076667" lon="-5.880688333">
        <time>2022-06-28T10:34:47Z</time>
      </trkpt>
      <trkpt lat="41.050093333" lon="-5.880771667">
        <time>2022-06-28T10:34:48Z</time>
      </trkpt>
      <trkpt lat="41.050108333" lon="-5.880855000">
        <time>2022-06-28T10:34:49Z</time>
      </trkpt>
      <trkpt lat="41.050123333" lon="-5.880938333">
        <time>2022-06-28T10:34:50Z</time>
      </trkpt>
      <trkpt lat="41.050138333" lon="-5.881021667">
        <time>2022-06-28T10:34:51Z</time>
      </trkpt>
      <trkpt lat="41.050155000" lon="-5.881103333">
        <time>2022-06-28T10:34:52Z</time>
      </trkpt>
      <trkpt lat="41.050170000" lon="-5.881186667">
        <time>2022-06-28T10:34:53Z</time>
      </trkpt>
      <trkpt lat="41.050183333" lon="-5.881268333">
        <time>2022-06-28T10:34:54Z</time>
      </trkpt>
      <trkpt lat="41.050196667" lon="-5.881350000">
        <time>2022-06-28T10:34:55Z</time>
      </trkpt>
      <trkpt lat="41.050211667" lon="-5.881433333">
        <time>2022-06-28T10:34:56Z</time>
      </trkpt>
      <trkpt lat="41.050226667" lon="-5.881515000">
        <time>2022-06-28T10:34:57Z</time>
      </trkpt>
      <trkpt lat="41.050243333" lon="-5.881598333">
        <time>2022-06-28T10:34:58Z</time>
      </trkpt>
      <trkpt lat="41.050260000" lon="-5.881681667">
        <time>2022-06-28T10:34:59Z</time>
      </trkpt>
      <trkpt lat="41.050275000" lon="-5.881765000">
        <time>2022-06-28T10:35:00Z</time>
      </trkpt>
      <trkpt lat="41.050291667" lon="-5.881848333">
        <time>2022-06-28T10:35:01Z</time>
      </trkpt>
      <trkpt lat="41.050306667" lon="-5.881931667">
        <time>2022-06-28T10:35:02Z</time>
      </trkpt>
      <trkpt lat="41.050323333" lon="-5.882015000">
        <time>2022-06-28T10:35:03Z</time>
      </trkpt>
      <trkpt lat="41.050340000" lon="-5.882096667">
        <time>2022-06-28T10:35:04Z</time>
      </trkpt>
      <trkpt lat="41.050353333" lon="-5.882180000">
        <time>2022-06-28T10:35:05Z</time>
      </trkpt>
      <trkpt lat="41.050368333" lon="-5.882263333">
        <time>2022-06-28T10:35:06Z</time>
      </trkpt>
      <trkpt lat="41.050383333" lon="-5.882345000">
        <time>2022-06-28T10:35:07Z</time>
      </trkpt>
      <trkpt lat="41.050396667" lon="-5.882426667">
        <time>2022-06-28T10:35:08Z</time>
      </trkpt>
      <trkpt lat="41.050411667" lon="-5.882508333">
        <time>2022-06-28T10:35:09Z</time>
      </trkpt>
      <trkpt lat="41.050426667" lon="-5.882591667">
        <time>2022-06-28T10:35:10Z</time>
      </trkpt>
      <trkpt lat="41.050441667" lon="-5.882673333">
        <time>2022-06-28T10:35:11Z</time>
      </trkpt>
      <trkpt lat="41.050456667" lon="-5.882756667">
        <time>2022-06-28T10:35:12Z</time>
      </trkpt>
      <trkpt lat="41.050471667" lon="-5.882838333">
        <time>2022-06-28T10:35:13Z</time>
      </trkpt>
      <trkpt lat="41.050485000" lon="-5.882921667">
        <time>2022-06-28T10:35:14Z</time>
      </trkpt>
      <trkpt lat="41.050501667" lon="-5.883003333">
        <time>2022-06-28T10:35:15Z</time>
      </trkpt>
      <trkpt lat="41.050518333" lon="-5.883086667">
        <time>2022-06-28T10:35:16Z</time>
      </trkpt>
      <trkpt lat="41.050531667" lon="-5.883170000">
        <time>2022-06-28T10:35:17Z</time>
      </trkpt>
      <trkpt lat="41.050545000" lon="-5.883255000">
        <time>2022-06-28T10:35:18Z</time>
      </trkpt>
      <trkpt lat="41.050558333" lon="-5.883343333">
        <time>2022-06-28T10:35:19Z</time>
      </trkpt>
      <trkpt lat="41.050575000" lon="-5.883433333">
        <time>2022-06-28T10:35:20Z</time>
      </trkpt>
      <trkpt lat="41.050593333" lon="-5.883530000">
        <time>2022-06-28T10:35:21Z</time>
      </trkpt>
      <trkpt lat="41.050611667" lon="-5.883633333">
        <time>2022-06-28T10:35:22Z</time>
      </trkpt>
      <trkpt lat="41.050631667" lon="-5.883741667">
        <time>2022-06-28T10:35:23Z</time>
      </trkpt>
      <trkpt lat="41.050650000" lon="-5.883855000">
        <time>2022-06-28T10:35:24Z</time>
      </trkpt>
      <trkpt lat="41.050668333" lon="-5.883973333">
        <time>2022-06-28T10:35:25Z</time>
      </trkpt>
      <trkpt lat="41.050691667" lon="-5.884093333">
        <time>2022-06-28T10:35:26Z</time>
      </trkpt>
      <trkpt lat="41.050715000" lon="-5.884218333">
        <time>2022-06-28T10:35:27Z</time>
      </trkpt>
      <trkpt lat="41.050738333" lon="-5.884346667">
        <time>2022-06-28T10:35:28Z</time>
      </trkpt>
      <trkpt lat="41.050761667" lon="-5.884478333">
        <time>2022-06-28T10:35:29Z</time>
      </trkpt>
      <trkpt lat="41.050785000" lon="-5.884615000">
        <time>2022-06-28T10:35:30Z</time>
      </trkpt>
      <trkpt lat="41.050811667" lon="-5.884753333">
        <time>2022-06-28T10:35:31Z</time>
      </trkpt>
      <trkpt lat="41.050838333" lon="-5.884895000">
        <time>2022-06-28T10:35:32Z</time>
      </trkpt>
      <trkpt lat="41.050863333" lon="-5.885038333">
        <time>2022-06-28T10:35:33Z</time>
      </trkpt>
      <trkpt lat="41.050891667" lon="-5.885181667">
        <time>2022-06-28T10:35:34Z</time>
      </trkpt>
      <trkpt lat="41.050918333" lon="-5.885323333">
        <time>2022-06-28T10:35:35Z</time>
      </trkpt>
      <trkpt lat="41.050945000" lon="-5.885460000">
        <time>2022-06-28T10:35:36Z</time>
      </trkpt>
      <trkpt lat="41.050966667" lon="-5.885595000">
        <time>2022-06-28T10:35:37Z</time>
      </trkpt>
      <trkpt lat="41.050983333" lon="-5.885723333">
        <time>2022-06-28T10:35:38Z</time>
      </trkpt>
      <trkpt lat="41.050991667" lon="-5.885850000">
        <time>2022-06-28T10:35:39Z</time>
      </trkpt>
      <trkpt lat="41.050993333" lon="-5.885971667">
        <time>2022-06-28T10:35:40Z</time>
      </trkpt>
      <trkpt lat="41.050988333" lon="-5.886088333">
        <time>2022-06-28T10:35:41Z</time>
      </trkpt>
      <trkpt lat="41.050981667" lon="-5.886203333">
        <time>2022-06-28T10:35:42Z</time>
      </trkpt>
      <trkpt lat="41.050971667" lon="-5.886315000">
        <time>2022-06-28T10:35:43Z</time>
      </trkpt>
      <trkpt lat="41.050961667" lon="-5.886423333">
        <time>2022-06-28T10:35:44Z</time>
      </trkpt>
      <trkpt lat="41.050948333" lon="-5.886530000">
        <time>2022-06-28T10:35:45Z</time>
      </trkpt>
      <trkpt lat="41.050935000" lon="-5.886635000">
        <time>2022-06-28T10:35:46Z</time>
      </trkpt>
      <trkpt lat="41.050923333" lon="-5.886736667">
        <time>2022-06-28T10:35:47Z</time>
      </trkpt>
      <trkpt lat="41.050911667" lon="-5.886836667">
        <time>2022-06-28T10:35:48Z</time>
      </trkpt>
      <trkpt lat="41.050905000" lon="-5.886936667">
        <time>2022-06-28T10:35:49Z</time>
      </trkpt>
      <trkpt lat="41.050903333" lon="-5.887036667">
        <time>2022-06-28T10:35:50Z</time>
      </trkpt>
      <trkpt lat="41.050908333" lon="-5.887135000">
        <time>2022-06-28T10:35:51Z</time>
      </trkpt>
      <trkpt lat="41.050918333" lon="-5.887230000">
        <time>2022-06-28T10:35:52Z</time>
      </trkpt>
      <trkpt lat="41.050936667" lon="-5.887321667">
        <time>2022-06-28T10:35:53Z</time>
      </trkpt>
      <trkpt lat="41.050963333" lon="-5.887405000">
        <time>2022-06-28T10:35:54Z</time>
      </trkpt>
      <trkpt lat="41.050991667" lon="-5.887485000">
        <time>2022-06-28T10:35:55Z</time>
      </trkpt>
      <trkpt lat="41.051026667" lon="-5.887563333">
        <time>2022-06-28T10:35:56Z</time>
      </trkpt>
      <trkpt lat="41.051068333" lon="-5.887633333">
        <time>2022-06-28T10:35:57Z</time>
      </trkpt>
      <trkpt lat="41.051118333" lon="-5.887698333">
        <time>2022-06-28T10:35:58Z</time>
      </trkpt>
      <trkpt lat="41.051171667" lon="-5.887755000">
        <time>2022-06-28T10:35:59Z</time>
      </trkpt>
      <trkpt lat="41.051230000" lon="-5.887806667">
        <time>2022-06-28T10:36:00Z</time>
      </trkpt>
      <trkpt lat="41.051288333" lon="-5.887853333">
        <time>2022-06-28T10:36:01Z</time>
      </trkpt>
      <trkpt lat="41.051346667" lon="-5.887895000">
        <time>2022-06-28T10:36:02Z</time>
      </trkpt>
      <trkpt lat="41.051405000" lon="-5.887936667">
        <time>2022-06-28T10:36:03Z</time>
      </trkpt>
      <trkpt lat="41.051460000" lon="-5.887976667">
        <time>2022-06-28T10:36:04Z</time>
      </trkpt>
      <trkpt lat="41.051516667" lon="-5.888016667">
        <time>2022-06-28T10:36:05Z</time>
      </trkpt>
      <trkpt lat="41.051571667" lon="-5.888055000">
        <time>2022-06-28T10:36:06Z</time>
      </trkpt>
      <trkpt lat="41.051626667" lon="-5.888093333">
        <time>2022-06-28T10:36:07Z</time>
      </trkpt>
      <trkpt lat="41.051681667" lon="-5.888130000">
        <time>2022-06-28T10:36:08Z</time>
      </trkpt>
      <trkpt lat="41.051733333" lon="-5.888166667">
        <time>2022-06-28T10:36:09Z</time>
      </trkpt>
      <trkpt lat="41.051786667" lon="-5.888203333">
        <time>2022-06-28T10:36:10Z</time>
      </trkpt>
      <trkpt lat="41.051838333" lon="-5.888236667">
        <time>2022-06-28T10:36:11Z</time>
      </trkpt>
      <trkpt lat="41.051890000" lon="-5.888270000">
        <time>2022-06-28T10:36:12Z</time>
      </trkpt>
      <trkpt lat="41.051941667" lon="-5.888301667">
        <time>2022-06-28T10:36:13Z</time>
      </trkpt>
      <trkpt lat="41.051990000" lon="-5.888333333">
        <time>2022-06-28T10:36:14Z</time>
      </trkpt>
      <trkpt lat="41.052038333" lon="-5.888363333">
        <time>2022-06-28T10:36:15Z</time>
      </trkpt>
      <trkpt lat="41.052086667" lon="-5.888393333">
        <time>2022-06-28T10:36:16Z</time>
      </trkpt>
      <trkpt lat="41.052131667" lon="-5.888425000">
        <time>2022-06-28T10:36:17Z</time>
      </trkpt>
      <trkpt lat="41.052178333" lon="-5.888455000">
        <time>2022-06-28T10:36:18Z</time>
      </trkpt>
      <trkpt lat="41.052223333" lon="-5.888486667">
        <time>2022-06-28T10:36:19Z</time>
      </trkpt>
      <trkpt lat="41.052270000" lon="-5.888520000">
        <time>2022-06-28T10:36:20Z</time>
      </trkpt>
      <trkpt lat="41.052316667" lon="-5.888550000">
        <time>2022-06-28T10:36:21Z</time>
      </trkpt>
      <trkpt lat="41.052365000" lon="-5.888583333">
        <time>2022-06-28T10:36:22Z</time>
      </trkpt>
      <trkpt lat="41.052413333" lon="-5.888620000">
        <time>2022-06-28T10:36:23Z</time>
      </trkpt>
      <trkpt lat="41.052463333" lon="-5.888655000">
        <time>2022-06-28T10:36:24Z</time>
      </trkpt>
      <trkpt lat="41.052515000" lon="-5.888690000">
        <time>2022-06-28T10:36:25Z</time>
      </trkpt>
      <trkpt lat="41.052566667" lon="-5.888725000">
        <time>2022-06-28T10:36:26Z</time>
      </trkpt>
      <trkpt lat="41.052620000" lon="-5.888763333">
        <time>2022-06-28T10:36:27Z</time>
      </trkpt>
      <trkpt lat="41.052673333" lon="-5.888800000">
        <time>2022-06-28T10:36:28Z</time>
      </trkpt>
      <trkpt lat="41.052728333" lon="-5.888835000">
        <time>2022-06-28T10:36:29Z</time>
      </trkpt>
      <trkpt lat="41.052785000" lon="-5.888873333">
        <time>2022-06-28T10:36:30Z</time>
      </trkpt>
      <trkpt lat="41.052841667" lon="-5.888910000">
        <time>2022-06-28T10:36:31Z</time>
      </trkpt>
      <trkpt lat="41.052898333" lon="-5.888946667">
        <time>2022-06-28T10:36:32Z</time>
      </trkpt>
      <trkpt lat="41.052953333" lon="-5.888985000">
        <time>2022-06-28T10:36:33Z</time>
      </trkpt>
      <trkpt lat="41.053008333" lon="-5.889028333">
        <time>2022-06-28T10:36:34Z</time>
      </trkpt>
      <trkpt lat="41.053060000" lon="-5.889075000">
        <time>2022-06-28T10:36:35Z</time>
      </trkpt>
      <trkpt lat="41.053110000" lon="-5.889121667">
        <time>2022-06-28T10:36:36Z</time>
      </trkpt>
      <trkpt lat="41.053158333" lon="-5.889173333">
        <time>2022-06-28T10:36:37Z</time>
      </trkpt>
      <trkpt lat="41.053203333" lon="-5.889226667">
        <time>2022-06-28T10:36:38Z</time>
      </trkpt>
      <trkpt lat="41.053245000" lon="-5.889283333">
        <time>2022-06-28T10:36:39Z</time>
      </trkpt>
      <trkpt lat="41.053285000" lon="-5.889345000">
        <time>2022-06-28T10:36:40Z</time>
      </trkpt>
      <trkpt lat="41.053318333" lon="-5.889413333">
        <time>2022-06-28T10:36:41Z</time>
      </trkpt>
      <trkpt lat="41.053351667" lon="-5.889483333">
        <time>2022-06-28T10:36:42Z</time>
      </trkpt>
      <trkpt lat="41.053386667" lon="-5.889553333">
        <time>2022-06-28T10:36:43Z</time>
      </trkpt>
      <trkpt lat="41.053420000" lon="-5.889626667">
        <time>2022-06-28T10:36:44Z</time>
      </trkpt>
      <trkpt lat="41.053451667" lon="-5.889703333">
        <time>2022-06-28T10:36:45Z</time>
      </trkpt>
      <trkpt lat="41.053485000" lon="-5.889781667">
        <time>2022-06-28T10:36:46Z</time>
      </trkpt>
      <trkpt lat="41.053516667" lon="-5.889861667">
        <time>2022-06-28T10:36:47Z</time>
      </trkpt>
      <trkpt lat="41.053551667" lon="-5.889941667">
        <time>2022-06-28T10:36:48Z</time>
      </trkpt>
      <trkpt lat="41.053590000" lon="-5.890023333">
        <time>2022-06-28T10:36:49Z</time>
      </trkpt>
      <trkpt lat="41.053631667" lon="-5.890105000">
        <time>2022-06-28T10:36:50Z</time>
      </trkpt>
      <trkpt lat="41.053675000" lon="-5.890186667">
        <time>2022-06-28T10:36:51Z</time>
      </trkpt>
      <trkpt lat="41.053723333" lon="-5.890266667">
        <time>2022-06-28T10:36:52Z</time>
      </trkpt>
      <trkpt lat="41.053776667" lon="-5.890343333">
        <time>2022-06-28T10:36:53Z</time>
      </trkpt>
      <trkpt lat="41.053836667" lon="-5.890416667">
        <time>2022-06-28T10:36:54Z</time>
      </trkpt>
      <trkpt lat="41.053901667" lon="-5.890486667">
        <time>2022-06-28T10:36:55Z</time>
      </trkpt>
      <trkpt lat="41.053971667" lon="-5.890553333">
        <time>2022-06-28T10:36:56Z</time>
      </trkpt>
      <trkpt lat="41.054046667" lon="-5.890615000">
        <time>2022-06-28T10:36:57Z</time>
      </trkpt>
      <trkpt lat="41.054126667" lon="-5.890671667">
        <time>2022-06-28T10:36:58Z</time>
      </trkpt>
      <trkpt lat="41.054211667" lon="-5.890721667">
        <time>2022-06-28T10:36:59Z</time>
      </trkpt>
      <trkpt lat="41.054301667" lon="-5.890763333">
        <time>2022-06-28T10:37:00Z</time>
      </trkpt>
      <trkpt lat="41.054395000" lon="-5.890798333">
        <time>2022-06-28T10:37:01Z</time>
      </trkpt>
      <trkpt lat="41.054488333" lon="-5.890830000">
        <time>2022-06-28T10:37:02Z</time>
      </trkpt>
      <trkpt lat="41.054585000" lon="-5.890858333">
        <time>2022-06-28T10:37:03Z</time>
      </trkpt>
      <trkpt lat="41.054685000" lon="-5.890883333">
        <time>2022-06-28T10:37:04Z</time>
      </trkpt>
      <trkpt lat="41.054785000" lon="-5.890910000">
        <time>2022-06-28T10:37:05Z</time>
      </trkpt>
      <trkpt lat="41.054886667" lon="-5.890935000">
        <time>2022-06-28T10:37:06Z</time>
      </trkpt>
      <trkpt lat="41.054990000" lon="-5.890958333">
        <time>2022-06-28T10:37:07Z</time>
      </trkpt>
      <trkpt lat="41.055093333" lon="-5.890976667">
        <time>2022-06-28T10:37:08Z</time>
      </trkpt>
      <trkpt lat="41.055196667" lon="-5.890988333">
        <time>2022-06-28T10:37:09Z</time>
      </trkpt>
      <trkpt lat="41.055300000" lon="-5.890996667">
        <time>2022-06-28T10:37:10Z</time>
      </trkpt>
      <trkpt lat="41.055403333" lon="-5.891003333">
        <time>2022-06-28T10:37:11Z</time>
      </trkpt>
      <trkpt lat="41.055505000" lon="-5.891010000">
        <time>2022-06-28T10:37:12Z</time>
      </trkpt>
      <trkpt lat="41.055606667" lon="-5.891010000">
        <time>2022-06-28T10:37:13Z</time>
      </trkpt>
      <trkpt lat="41.055710000" lon="-5.891010000">
        <time>2022-06-28T10:37:14Z</time>
      </trkpt>
      <trkpt lat="41.055810000" lon="-5.891011667">
        <time>2022-06-28T10:37:15Z</time>
      </trkpt>
      <trkpt lat="41.055911667" lon="-5.891013333">
        <time>2022-06-28T10:37:16Z</time>
      </trkpt>
      <trkpt lat="41.056010000" lon="-5.891013333">
        <time>2022-06-28T10:37:17Z</time>
      </trkpt>
      <trkpt lat="41.056108333" lon="-5.891013333">
        <time>2022-06-28T10:37:18Z</time>
      </trkpt>
      <trkpt lat="41.056205000" lon="-5.891011667">
        <time>2022-06-28T10:37:19Z</time>
      </trkpt>
      <trkpt lat="41.056301667" lon="-5.891010000">
        <time>2022-06-28T10:37:20Z</time>
      </trkpt>
      <trkpt lat="41.056398333" lon="-5.891010000">
        <time>2022-06-28T10:37:21Z</time>
      </trkpt>
      <trkpt lat="41.056493333" lon="-5.891010000">
        <time>2022-06-28T10:37:22Z</time>
      </trkpt>
      <trkpt lat="41.056585000" lon="-5.891010000">
        <time>2022-06-28T10:37:23Z</time>
      </trkpt>
      <trkpt lat="41.056678333" lon="-5.891008333">
        <time>2022-06-28T10:37:24Z</time>
      </trkpt>
      <trkpt lat="41.056770000" lon="-5.891008333">
        <time>2022-06-28T10:37:25Z</time>
      </trkpt>
      <trkpt lat="41.056860000" lon="-5.891008333">
        <time>2022-06-28T10:37:26Z</time>
      </trkpt>
      <trkpt lat="41.056950000" lon="-5.891008333">
        <time>2022-06-28T10:37:27Z</time>
      </trkpt>
      <trkpt lat="41.057038333" lon="-5.891006667">
        <time>2022-06-28T10:37:28Z</time>
      </trkpt>
      <trkpt lat="41.057126667" lon="-5.891006667">
        <time>2022-06-28T10:37:29Z</time>
      </trkpt>
      <trkpt lat="41.057215000" lon="-5.891006667">
        <time>2022-06-28T10:37:30Z</time>
      </trkpt>
      <trkpt lat="41.057301667" lon="-5.891005000">
        <time>2022-06-28T10:37:31Z</time>
      </trkpt>
      <trkpt lat="41.057388333" lon="-5.891003333">
        <time>2022-06-28T10:37:32Z</time>
      </trkpt>
      <trkpt lat="41.057476667" lon="-5.891001667">
        <time>2022-06-28T10:37:33Z</time>
      </trkpt>
      <trkpt lat="41.057563333" lon="-5.891001667">
        <time>2022-06-28T10:37:34Z</time>
      </trkpt>
      <trkpt lat="41.057653333" lon="-5.891001667">
        <time>2022-06-28T10:37:35Z</time>
      </trkpt>
      <trkpt lat="41.057740000" lon="-5.891003333">
        <time>2022-06-28T10:37:36Z</time>
      </trkpt>
      <trkpt lat="41.057828333" lon="-5.891003333">
        <time>2022-06-28T10:37:37Z</time>
      </trkpt>
      <trkpt lat="41.057915000" lon="-5.891000000">
        <time>2022-06-28T10:37:38Z</time>
      </trkpt>
      <trkpt lat="41.057998333" lon="-5.891000000">
        <time>2022-06-28T10:37:39Z</time>
      </trkpt>
      <trkpt lat="41.058080000" lon="-5.890998333">
        <time>2022-06-28T10:37:40Z</time>
      </trkpt>
      <trkpt lat="41.058160000" lon="-5.890998333">
        <time>2022-06-28T10:37:41Z</time>
      </trkpt>
      <trkpt lat="41.058238333" lon="-5.890996667">
        <time>2022-06-28T10:37:42Z</time>
      </trkpt>
      <trkpt lat="41.058313333" lon="-5.890995000">
        <time>2022-06-28T10:37:43Z</time>
      </trkpt>
      <trkpt lat="41.058385000" lon="-5.890993333">
        <time>2022-06-28T10:37:44Z</time>
      </trkpt>
      <trkpt lat="41.058456667" lon="-5.890993333">
        <time>2022-06-28T10:37:45Z</time>
      </trkpt>
      <trkpt lat="41.058525000" lon="-5.890993333">
        <time>2022-06-28T10:37:46Z</time>
      </trkpt>
      <trkpt lat="41.058591667" lon="-5.890990000">
        <time>2022-06-28T10:37:47Z</time>
      </trkpt>
      <trkpt lat="41.058655000" lon="-5.890990000">
        <time>2022-06-28T10:37:48Z</time>
      </trkpt>
      <trkpt lat="41.058716667" lon="-5.890986667">
        <time>2022-06-28T10:37:49Z</time>
      </trkpt>
      <trkpt lat="41.058778333" lon="-5.890986667">
        <time>2022-06-28T10:37:50Z</time>
      </trkpt>
      <trkpt lat="41.058838333" lon="-5.890988333">
        <time>2022-06-28T10:37:51Z</time>
      </trkpt>
      <trkpt lat="41.058900000" lon="-5.890990000">
        <time>2022-06-28T10:37:52Z</time>
      </trkpt>
      <trkpt lat="41.058960000" lon="-5.890993333">
        <time>2022-06-28T10:37:53Z</time>
      </trkpt>
      <trkpt lat="41.059018333" lon="-5.890998333">
        <time>2022-06-28T10:37:54Z</time>
      </trkpt>
      <trkpt lat="41.059078333" lon="-5.891008333">
        <time>2022-06-28T10:37:55Z</time>
      </trkpt>
      <trkpt lat="41.059140000" lon="-5.891020000">
        <time>2022-06-28T10:37:56Z</time>
      </trkpt>
      <trkpt lat="41.059200000" lon="-5.891035000">
        <time>2022-06-28T10:37:57Z</time>
      </trkpt>
      <trkpt lat="41.059256667" lon="-5.891055000">
        <time>2022-06-28T10:37:58Z</time>
      </trkpt>
      <trkpt lat="41.059313333" lon="-5.891080000">
        <time>2022-06-28T10:37:59Z</time>
      </trkpt>
      <trkpt lat="41.059366667" lon="-5.891105000">
        <time>2022-06-28T10:38:00Z</time>
      </trkpt>
      <trkpt lat="41.059421667" lon="-5.891130000">
        <time>2022-06-28T10:38:01Z</time>
      </trkpt>
      <trkpt lat="41.059473333" lon="-5.891156667">
        <time>2022-06-28T10:38:02Z</time>
      </trkpt>
      <trkpt lat="41.059526667" lon="-5.891188333">
        <time>2022-06-28T10:38:03Z</time>
      </trkpt>
      <trkpt lat="41.059576667" lon="-5.891223333">
        <time>2022-06-28T10:38:04Z</time>
      </trkpt>
      <trkpt lat="41.059626667" lon="-5.891260000">
        <time>2022-06-28T10:38:05Z</time>
      </trkpt>
      <trkpt lat="41.059675000" lon="-5.891301667">
        <time>2022-06-28T10:38:06Z</time>
      </trkpt>
      <trkpt lat="41.059721667" lon="-5.891343333">
        <time>2022-06-28T10:38:07Z</time>
      </trkpt>
      <trkpt lat="41.059766667" lon="-5.891388333">
        <time>2022-06-28T10:38:08Z</time>
      </trkpt>
      <trkpt lat="41.059810000" lon="-5.891433333">
        <time>2022-06-28T10:38:09Z</time>
      </trkpt>
      <trkpt lat="41.059850000" lon="-5.891478333">
        <time>2022-06-28T10:38:10Z</time>
      </trkpt>
      <trkpt lat="41.059891667" lon="-5.891521667">
        <time>2022-06-28T10:38:11Z</time>
      </trkpt>
      <trkpt lat="41.059931667" lon="-5.891566667">
        <time>2022-06-28T10:38:12Z</time>
      </trkpt>
      <trkpt lat="41.059971667" lon="-5.891611667">
        <time>2022-06-28T10:38:13Z</time>
      </trkpt>
      <trkpt lat="41.060011667" lon="-5.891658333">
        <time>2022-06-28T10:38:14Z</time>
      </trkpt>
      <trkpt lat="41.060051667" lon="-5.891705000">
        <time>2022-06-28T10:38:15Z</time>
      </trkpt>
      <trkpt lat="41.060091667" lon="-5.891751667">
        <time>2022-06-28T10:38:16Z</time>
      </trkpt>
      <trkpt lat="41.060131667" lon="-5.891798333">
        <time>2022-06-28T10:38:17Z</time>
      </trkpt>
      <trkpt lat="41.060170000" lon="-5.891843333">
        <time>2022-06-28T10:38:18Z</time>
      </trkpt>
      <trkpt lat="41.060205000" lon="-5.891883333">
        <time>2022-06-28T10:38:19Z</time>
      </trkpt>
      <trkpt lat="41.060240000" lon="-5.891923333">
        <time>2022-06-28T10:38:20Z</time>
      </trkpt>
      <trkpt lat="41.060273333" lon="-5.891963333">
        <time>2022-06-28T10:38:21Z</time>
      </trkpt>
      <trkpt lat="41.060308333" lon="-5.892005000">
        <time>2022-06-28T10:38:22Z</time>
      </trkpt>
      <trkpt lat="41.060341667" lon="-5.892046667">
        <time>2022-06-28T10:38:23Z</time>
      </trkpt>
      <trkpt lat="41.060376667" lon="-5.892086667">
        <time>2022-06-28T10:38:24Z</time>
      </trkpt>
      <trkpt lat="41.060410000" lon="-5.892125000">
        <time>2022-06-28T10:38:25Z</time>
      </trkpt>
      <trkpt lat="41.060445000" lon="-5.892161667">
        <time>2022-06-28T10:38:26Z</time>
      </trkpt>
      <trkpt lat="41.060481667" lon="-5.892196667">
        <time>2022-06-28T10:38:27Z</time>
      </trkpt>
      <trkpt lat="41.060515000" lon="-5.892236667">
        <time>2022-06-28T10:38:28Z</time>
      </trkpt>
      <trkpt lat="41.060548333" lon="-5.892278333">
        <time>2022-06-28T10:38:29Z</time>
      </trkpt>
      <trkpt lat="41.060581667" lon="-5.892320000">
        <time>2022-06-28T10:38:30Z</time>
      </trkpt>
      <trkpt lat="41.060613333" lon="-5.892361667">
        <time>2022-06-28T10:38:31Z</time>
      </trkpt>
      <trkpt lat="41.060646667" lon="-5.892400000">
        <time>2022-06-28T10:38:32Z</time>
      </trkpt>
      <trkpt lat="41.060678333" lon="-5.892436667">
        <time>2022-06-28T10:38:33Z</time>
      </trkpt>
      <trkpt lat="41.060711667" lon="-5.892475000">
        <time>2022-06-28T10:38:34Z</time>
      </trkpt>
      <trkpt lat="41.060743333" lon="-5.892515000">
        <time>2022-06-28T10:38:35Z</time>
      </trkpt>
      <trkpt lat="41.060773333" lon="-5.892553333">
        <time>2022-06-28T10:38:36Z</time>
      </trkpt>
      <trkpt lat="41.060803333" lon="-5.892591667">
        <time>2022-06-28T10:38:37Z</time>
      </trkpt>
      <trkpt lat="41.060833333" lon="-5.892633333">
        <time>2022-06-28T10:38:38Z</time>
      </trkpt>
      <trkpt lat="41.060860000" lon="-5.892676667">
        <time>2022-06-28T10:38:39Z</time>
      </trkpt>
      <trkpt lat="41.060888333" lon="-5.892720000">
        <time>2022-06-28T10:38:40Z</time>
      </trkpt>
      <trkpt lat="41.060915000" lon="-5.892766667">
        <time>2022-06-28T10:38:41Z</time>
      </trkpt>
      <trkpt lat="41.060940000" lon="-5.892811667">
        <time>2022-06-28T10:38:42Z</time>
      </trkpt>
      <trkpt lat="41.060963333" lon="-5.892860000">
        <time>2022-06-28T10:38:43Z</time>
      </trkpt>
      <trkpt lat="41.060986667" lon="-5.892906667">
        <time>2022-06-28T10:38:44Z</time>
      </trkpt>
      <trkpt lat="41.061008333" lon="-5.892955000">
        <time>2022-06-28T10:38:45Z</time>
      </trkpt>
      <trkpt lat="41.061028333" lon="-5.893006667">
        <time>2022-06-28T10:38:46Z</time>
      </trkpt>
      <trkpt lat="41.061045000" lon="-5.893050000">
        <time>2022-06-28T10:38:47Z</time>
      </trkpt>
      <trkpt lat="41.061066667" lon="-5.893100000">
        <time>2022-06-28T10:38:48Z</time>
      </trkpt>
      <trkpt lat="41.061085000" lon="-5.893151667">
        <time>2022-06-28T10:38:49Z</time>
      </trkpt>
      <trkpt lat="41.061103333" lon="-5.893200000">
        <time>2022-06-28T10:38:50Z</time>
      </trkpt>
      <trkpt lat="41.061121667" lon="-5.893250000">
        <time>2022-06-28T10:38:51Z</time>
      </trkpt>
      <trkpt lat="41.061136667" lon="-5.893300000">
        <time>2022-06-28T10:38:52Z</time>
      </trkpt>
      <trkpt lat="41.061151667" lon="-5.893350000">
        <time>2022-06-28T10:38:53Z</time>
      </trkpt>
      <trkpt lat="41.061168333" lon="-5.893401667">
        <time>2022-06-28T10:38:54Z</time>
      </trkpt>
      <trkpt lat="41.061185000" lon="-5.893451667">
        <time>2022-06-28T10:38:55Z</time>
      </trkpt>
      <trkpt lat="41.061201667" lon="-5.893500000">
        <time>2022-06-28T10:38:56Z</time>
      </trkpt>
      <trkpt lat="41.061216667" lon="-5.893548333">
        <time>2022-06-28T10:38:57Z</time>
      </trkpt>
      <trkpt lat="41.061233333" lon="-5.893596667">
        <time>2022-06-28T10:38:58Z</time>
      </trkpt>
      <trkpt lat="41.061250000" lon="-5.893645000">
        <time>2022-06-28T10:38:59Z</time>
      </trkpt>
      <trkpt lat="41.061263333" lon="-5.893693333">
        <time>2022-06-28T10:39:00Z</time>
      </trkpt>
      <trkpt lat="41.061280000" lon="-5.893740000">
        <time>2022-06-28T10:39:01Z</time>
      </trkpt>
      <trkpt lat="41.061295000" lon="-5.893786667">
        <time>2022-06-28T10:39:02Z</time>
      </trkpt>
      <trkpt lat="41.061310000" lon="-5.893833333">
        <time>2022-06-28T10:39:03Z</time>
      </trkpt>
      <trkpt lat="41.061325000" lon="-5.893881667">
        <time>2022-06-28T10:39:04Z</time>
      </trkpt>
      <trkpt lat="41.061340000" lon="-5.893931667">
        <time>2022-06-28T10:39:05Z</time>
      </trkpt>
      <trkpt lat="41.061356667" lon="-5.893981667">
        <time>2022-06-28T10:39:06Z</time>
      </trkpt>
      <trkpt lat="41.061375000" lon="-5.894031667">
        <time>2022-06-28T10:39:07Z</time>
      </trkpt>
      <trkpt lat="41.061393333" lon="-5.894083333">
        <time>2022-06-28T10:39:08Z</time>
      </trkpt>
      <trkpt lat="41.061411667" lon="-5.894133333">
        <time>2022-06-28T10:39:09Z</time>
      </trkpt>
      <trkpt lat="41.061428333" lon="-5.894183333">
        <time>2022-06-28T10:39:10Z</time>
      </trkpt>
      <trkpt lat="41.061445000" lon="-5.894233333">
        <time>2022-06-28T10:39:11Z</time>
      </trkpt>
      <trkpt lat="41.061463333" lon="-5.894281667">
        <time>2022-06-28T10:39:12Z</time>
      </trkpt>
      <trkpt lat="41.061478333" lon="-5.894330000">
        <time>2022-06-28T10:39:13Z</time>
      </trkpt>
      <trkpt lat="41.061493333" lon="-5.894378333">
        <time>2022-06-28T10:39:14Z</time>
      </trkpt>
      <trkpt lat="41.061510000" lon="-5.894428333">
        <time>2022-06-28T10:39:15Z</time>
      </trkpt>
      <trkpt lat="41.061525000" lon="-5.894475000">
        <time>2022-06-28T10:39:16Z</time>
      </trkpt>
      <trkpt lat="41.061541667" lon="-5.894523333">
        <time>2022-06-28T10:39:17Z</time>
      </trkpt>
      <trkpt lat="41.061556667" lon="-5.894570000">
        <time>2022-06-28T10:39:18Z</time>
      </trkpt>
      <trkpt lat="41.061573333" lon="-5.894618333">
        <time>2022-06-28T10:39:19Z</time>
      </trkpt>
      <trkpt lat="41.061590000" lon="-5.894666667">
        <time>2022-06-28T10:39:20Z</time>
      </trkpt>
      <trkpt lat="41.061606667" lon="-5.894715000">
        <time>2022-06-28T10:39:21Z</time>
      </trkpt>
      <trkpt lat="41.061623333" lon="-5.894763333">
        <time>2022-06-28T10:39:22Z</time>
      </trkpt>
      <trkpt lat="41.061640000" lon="-5.894811667">
        <time>2022-06-28T10:39:23Z</time>
      </trkpt>
      <trkpt lat="41.061655000" lon="-5.894860000">
        <time>2022-06-28T10:39:24Z</time>
      </trkpt>
      <trkpt lat="41.061671667" lon="-5.894908333">
        <time>2022-06-28T10:39:25Z</time>
      </trkpt>
      <trkpt lat="41.061686667" lon="-5.894955000">
        <time>2022-06-28T10:39:26Z</time>
      </trkpt>
      <trkpt lat="41.061701667" lon="-5.895003333">
        <time>2022-06-28T10:39:27Z</time>
      </trkpt>
      <trkpt lat="41.061720000" lon="-5.895053333">
        <time>2022-06-28T10:39:28Z</time>
      </trkpt>
      <trkpt lat="41.061736667" lon="-5.895103333">
        <time>2022-06-28T10:39:29Z</time>
      </trkpt>
      <trkpt lat="41.061750000" lon="-5.895153333">
        <time>2022-06-28T10:39:30Z</time>
      </trkpt>
      <trkpt lat="41.061765000" lon="-5.895201667">
        <time>2022-06-28T10:39:31Z</time>
      </trkpt>
      <trkpt lat="41.061781667" lon="-5.895250000">
        <time>2022-06-28T10:39:32Z</time>
      </trkpt>
      <trkpt lat="41.061798333" lon="-5.895296667">
        <time>2022-06-28T10:39:33Z</time>
      </trkpt>
      <trkpt lat="41.061813333" lon="-5.895343333">
        <time>2022-06-28T10:39:34Z</time>
      </trkpt>
      <trkpt lat="41.061828333" lon="-5.895390000">
        <time>2022-06-28T10:39:35Z</time>
      </trkpt>
      <trkpt lat="41.061845000" lon="-5.895438333">
        <time>2022-06-28T10:39:36Z</time>
      </trkpt>
      <trkpt lat="41.061863333" lon="-5.895486667">
        <time>2022-06-28T10:39:37Z</time>
      </trkpt>
      <trkpt lat="41.061881667" lon="-5.895531667">
        <time>2022-06-28T10:39:38Z</time>
      </trkpt>
      <trkpt lat="41.061900000" lon="-5.895578333">
        <time>2022-06-28T10:39:39Z</time>
      </trkpt>
      <trkpt lat="41.061920000" lon="-5.895626667">
        <time>2022-06-28T10:39:40Z</time>
      </trkpt>
      <trkpt lat="41.061941667" lon="-5.895675000">
        <time>2022-06-28T10:39:41Z</time>
      </trkpt>
      <trkpt lat="41.061966667" lon="-5.895723333">
        <time>2022-06-28T10:39:42Z</time>
      </trkpt>
      <trkpt lat="41.061990000" lon="-5.895773333">
        <time>2022-06-28T10:39:43Z</time>
      </trkpt>
      <trkpt lat="41.062011667" lon="-5.895818333">
        <time>2022-06-28T10:39:44Z</time>
      </trkpt>
      <trkpt lat="41.062040000" lon="-5.895868333">
        <time>2022-06-28T10:39:45Z</time>
      </trkpt>
      <trkpt lat="41.062068333" lon="-5.895920000">
        <time>2022-06-28T10:39:46Z</time>
      </trkpt>
      <trkpt lat="41.062096667" lon="-5.895968333">
        <time>2022-06-28T10:39:47Z</time>
      </trkpt>
      <trkpt lat="41.062126667" lon="-5.896020000">
        <time>2022-06-28T10:39:48Z</time>
      </trkpt>
      <trkpt lat="41.062156667" lon="-5.896075000">
        <time>2022-06-28T10:39:49Z</time>
      </trkpt>
      <trkpt lat="41.062188333" lon="-5.896128333">
        <time>2022-06-28T10:39:50Z</time>
      </trkpt>
      <trkpt lat="41.062220000" lon="-5.896178333">
        <time>2022-06-28T10:39:51Z</time>
      </trkpt>
      <trkpt lat="41.062251667" lon="-5.896228333">
        <time>2022-06-28T10:39:52Z</time>
      </trkpt>
      <trkpt lat="41.062283333" lon="-5.896280000">
        <time>2022-06-28T10:39:53Z</time>
      </trkpt>
      <trkpt lat="41.062316667" lon="-5.896331667">
        <time>2022-06-28T10:39:54Z</time>
      </trkpt>
      <trkpt lat="41.062350000" lon="-5.896381667">
        <time>2022-06-28T10:39:55Z</time>
      </trkpt>
      <trkpt lat="41.062385000" lon="-5.896433333">
        <time>2022-06-28T10:39:56Z</time>
      </trkpt>
      <trkpt lat="41.062420000" lon="-5.896485000">
        <time>2022-06-28T10:39:57Z</time>
      </trkpt>
      <trkpt lat="41.062455000" lon="-5.896536667">
        <time>2022-06-28T10:39:58Z</time>
      </trkpt>
      <trkpt lat="41.062491667" lon="-5.896593333">
        <time>2022-06-28T10:39:59Z</time>
      </trkpt>
      <trkpt lat="41.062530000" lon="-5.896648333">
        <time>2022-06-28T10:40:00Z</time>
      </trkpt>
      <trkpt lat="41.062570000" lon="-5.896703333">
        <time>2022-06-28T10:40:01Z</time>
      </trkpt>
      <trkpt lat="41.062611667" lon="-5.896760000">
        <time>2022-06-28T10:40:02Z</time>
      </trkpt>
      <trkpt lat="41.062655000" lon="-5.896816667">
        <time>2022-06-28T10:40:03Z</time>
      </trkpt>
      <trkpt lat="41.062700000" lon="-5.896871667">
        <time>2022-06-28T10:40:04Z</time>
      </trkpt>
      <trkpt lat="41.062750000" lon="-5.896923333">
        <time>2022-06-28T10:40:05Z</time>
      </trkpt>
      <trkpt lat="41.062801667" lon="-5.896973333">
        <time>2022-06-28T10:40:06Z</time>
      </trkpt>
      <trkpt lat="41.062858333" lon="-5.897016667">
        <time>2022-06-28T10:40:07Z</time>
      </trkpt>
      <trkpt lat="41.062920000" lon="-5.897058333">
        <time>2022-06-28T10:40:08Z</time>
      </trkpt>
      <trkpt lat="41.062985000" lon="-5.897096667">
        <time>2022-06-28T10:40:09Z</time>
      </trkpt>
      <trkpt lat="41.063055000" lon="-5.897135000">
        <time>2022-06-28T10:40:10Z</time>
      </trkpt>
      <trkpt lat="41.063128333" lon="-5.897171667">
        <time>2022-06-28T10:40:11Z</time>
      </trkpt>
      <trkpt lat="41.063206667" lon="-5.897203333">
        <time>2022-06-28T10:40:12Z</time>
      </trkpt>
      <trkpt lat="41.063288333" lon="-5.897231667">
        <time>2022-06-28T10:40:13Z</time>
      </trkpt>
      <trkpt lat="41.063371667" lon="-5.897261667">
        <time>2022-06-28T10:40:14Z</time>
      </trkpt>
      <trkpt lat="41.063458333" lon="-5.897290000">
        <time>2022-06-28T10:40:15Z</time>
      </trkpt>
      <trkpt lat="41.063548333" lon="-5.897320000">
        <time>2022-06-28T10:40:16Z</time>
      </trkpt>
      <trkpt lat="41.063640000" lon="-5.897350000">
        <time>2022-06-28T10:40:17Z</time>
      </trkpt>
      <trkpt lat="41.063733333" lon="-5.897381667">
        <time>2022-06-28T10:40:18Z</time>
      </trkpt>
      <trkpt lat="41.063825000" lon="-5.897421667">
        <time>2022-06-28T10:40:19Z</time>
      </trkpt>
      <trkpt lat="41.063911667" lon="-5.897476667">
        <time>2022-06-28T10:40:20Z</time>
      </trkpt>
      <trkpt lat="41.063986667" lon="-5.897556667">
        <time>2022-06-28T10:40:21Z</time>
      </trkpt>
      <trkpt lat="41.064048333" lon="-5.897656667">
        <time>2022-06-28T10:40:22Z</time>
      </trkpt>
      <trkpt lat="41.064091667" lon="-5.897773333">
        <time>2022-06-28T10:40:23Z</time>
      </trkpt>
      <trkpt lat="41.064121667" lon="-5.897898333">
        <time>2022-06-28T10:40:24Z</time>
      </trkpt>
      <trkpt lat="41.064145000" lon="-5.898028333">
        <time>2022-06-28T10:40:25Z</time>
      </trkpt>
      <trkpt lat="41.064170000" lon="-5.898158333">
        <time>2022-06-28T10:40:26Z</time>
      </trkpt>
      <trkpt lat="41.064196667" lon="-5.898285000">
        <time>2022-06-28T10:40:27Z</time>
      </trkpt>
      <trkpt lat="41.064226667" lon="-5.898410000">
        <time>2022-06-28T10:40:28Z</time>
      </trkpt>
      <trkpt lat="41.064268333" lon="-5.898528333">
        <time>2022-06-28T10:40:29Z</time>
      </trkpt>
      <trkpt lat="41.064325000" lon="-5.898633333">
        <time>2022-06-28T10:40:30Z</time>
      </trkpt>
      <trkpt lat="41.064401667" lon="-5.898723333">
        <time>2022-06-28T10:40:31Z</time>
      </trkpt>
      <trkpt lat="41.064491667" lon="-5.898788333">
        <time>2022-06-28T10:40:32Z</time>
      </trkpt>
      <trkpt lat="41.064588333" lon="-5.898831667">
        <time>2022-06-28T10:40:33Z</time>
      </trkpt>
      <trkpt lat="41.064683333" lon="-5.898858333">
        <time>2022-06-28T10:40:34Z</time>
      </trkpt>
      <trkpt lat="41.064775000" lon="-5.898875000">
        <time>2022-06-28T10:40:35Z</time>
      </trkpt>
      <trkpt lat="41.064863333" lon="-5.898881667">
        <time>2022-06-28T10:40:36Z</time>
      </trkpt>
      <trkpt lat="41.064946667" lon="-5.898890000">
        <time>2022-06-28T10:40:37Z</time>
      </trkpt>
      <trkpt lat="41.065025000" lon="-5.898898333">
        <time>2022-06-28T10:40:38Z</time>
      </trkpt>
      <trkpt lat="41.065096667" lon="-5.898915000">
        <time>2022-06-28T10:40:39Z</time>
      </trkpt>
      <trkpt lat="41.065155000" lon="-5.898953333">
        <time>2022-06-28T10:40:40Z</time>
      </trkpt>
      <trkpt lat="41.065193333" lon="-5.899016667">
        <time>2022-06-28T10:40:41Z</time>
      </trkpt>
      <trkpt lat="41.065205000" lon="-5.899091667">
        <time>2022-06-28T10:40:42Z</time>
      </trkpt>
      <trkpt lat="41.065195000" lon="-5.899160000">
        <time>2022-06-28T10:40:43Z</time>
      </trkpt>
      <trkpt lat="41.065170000" lon="-5.899221667">
        <time>2022-06-28T10:40:44Z</time>
      </trkpt>
      <trkpt lat="41.065143333" lon="-5.899283333">
        <time>2022-06-28T10:40:45Z</time>
      </trkpt>
      <trkpt lat="41.065116667" lon="-5.899346667">
        <time>2022-06-28T10:40:46Z</time>
      </trkpt>
      <trkpt lat="41.065090000" lon="-5.899408333">
        <time>2022-06-28T10:40:47Z</time>
      </trkpt>
      <trkpt lat="41.065063333" lon="-5.899471667">
        <time>2022-06-28T10:40:48Z</time>
      </trkpt>
      <trkpt lat="41.065036667" lon="-5.899538333">
        <time>2022-06-28T10:40:49Z</time>
      </trkpt>
      <trkpt lat="41.065010000" lon="-5.899605000">
        <time>2022-06-28T10:40:50Z</time>
      </trkpt>
      <trkpt lat="41.064981667" lon="-5.899675000">
        <time>2022-06-28T10:40:51Z</time>
      </trkpt>
      <trkpt lat="41.064955000" lon="-5.899743333">
        <time>2022-06-28T10:40:52Z</time>
      </trkpt>
      <trkpt lat="41.064926667" lon="-5.899813333">
        <time>2022-06-28T10:40:53Z</time>
      </trkpt>
      <trkpt lat="41.064900000" lon="-5.899883333">
        <time>2022-06-28T10:40:54Z</time>
      </trkpt>
      <trkpt lat="41.064873333" lon="-5.899953333">
        <time>2022-06-28T10:40:55Z</time>
      </trkpt>
      <trkpt lat="41.064846667" lon="-5.900023333">
        <time>2022-06-28T10:40:56Z</time>
      </trkpt>
      <trkpt lat="41.064818333" lon="-5.900095000">
        <time>2022-06-28T10:40:57Z</time>
      </trkpt>
      <trkpt lat="41.064790000" lon="-5.900165000">
        <time>2022-06-28T10:40:58Z</time>
      </trkpt>
      <trkpt lat="41.064763333" lon="-5.900235000">
        <time>2022-06-28T10:40:59Z</time>
      </trkpt>
      <trkpt lat="41.064736667" lon="-5.900305000">
        <time>2022-06-28T10:41:00Z</time>
      </trkpt>
      <trkpt lat="41.064706667" lon="-5.900375000">
        <time>2022-06-28T10:41:01Z</time>
      </trkpt>
      <trkpt lat="41.064678333" lon="-5.900445000">
        <time>2022-06-28T10:41:02Z</time>
      </trkpt>
      <trkpt lat="41.064650000" lon="-5.900513333">
        <time>2022-06-28T10:41:03Z</time>
      </trkpt>
      <trkpt lat="41.064620000" lon="-5.900583333">
        <time>2022-06-28T10:41:04Z</time>
      </trkpt>
      <trkpt lat="41.064591667" lon="-5.900653333">
        <time>2022-06-28T10:41:05Z</time>
      </trkpt>
      <trkpt lat="41.064561667" lon="-5.900725000">
        <time>2022-06-28T10:41:06Z</time>
      </trkpt>
      <trkpt lat="41.064533333" lon="-5.900795000">
        <time>2022-06-28T10:41:07Z</time>
      </trkpt>
      <trkpt lat="41.064503333" lon="-5.900871667">
        <time>2022-06-28T10:41:08Z</time>
      </trkpt>
      <trkpt lat="41.064471667" lon="-5.900948333">
        <time>2022-06-28T10:41:09Z</time>
      </trkpt>
      <trkpt lat="41.064441667" lon="-5.901025000">
        <time>2022-06-28T10:41:10Z</time>
      </trkpt>
      <trkpt lat="41.064411667" lon="-5.901108333">
        <time>2022-06-28T10:41:11Z</time>
      </trkpt>
      <trkpt lat="41.064386667" lon="-5.901195000">
        <time>2022-06-28T10:41:12Z</time>
      </trkpt>
      <trkpt lat="41.064361667" lon="-5.901281667">
        <time>2022-06-28T10:41:13Z</time>
      </trkpt>
      <trkpt lat="41.064340000" lon="-5.901370000">
        <time>2022-06-28T10:41:14Z</time>
      </trkpt>
      <trkpt lat="41.064321667" lon="-5.901458333">
        <time>2022-06-28T10:41:15Z</time>
      </trkpt>
      <trkpt lat="41.064308333" lon="-5.901545000">
        <time>2022-06-28T10:41:16Z</time>
      </trkpt>
      <trkpt lat="41.064296667" lon="-5.901628333">
        <time>2022-06-28T10:41:17Z</time>
      </trkpt>
      <trkpt lat="41.064281667" lon="-5.901706667">
        <time>2022-06-28T10:41:18Z</time>
      </trkpt>
      <trkpt lat="41.064270000" lon="-5.901781667">
        <time>2022-06-28T10:41:19Z</time>
      </trkpt>
      <trkpt lat="41.064260000" lon="-5.901853333">
        <time>2022-06-28T10:41:20Z</time>
      </trkpt>
      <trkpt lat="41.064248333" lon="-5.901923333">
        <time>2022-06-28T10:41:21Z</time>
      </trkpt>
      <trkpt lat="41.064236667" lon="-5.901990000">
        <time>2022-06-28T10:41:22Z</time>
      </trkpt>
      <trkpt lat="41.064221667" lon="-5.902056667">
        <time>2022-06-28T10:41:23Z</time>
      </trkpt>
      <trkpt lat="41.064213333" lon="-5.902121667">
        <time>2022-06-28T10:41:24Z</time>
      </trkpt>
      <trkpt lat="41.064200000" lon="-5.902186667">
        <time>2022-06-28T10:41:25Z</time>
      </trkpt>
      <trkpt lat="41.064191667" lon="-5.902255000">
        <time>2022-06-28T10:41:26Z</time>
      </trkpt>
      <trkpt lat="41.064180000" lon="-5.902320000">
        <time>2022-06-28T10:41:27Z</time>
      </trkpt>
      <trkpt lat="41.064170000" lon="-5.902391667">
        <time>2022-06-28T10:41:28Z</time>
      </trkpt>
      <trkpt lat="41.064158333" lon="-5.902463333">
        <time>2022-06-28T10:41:29Z</time>
      </trkpt>
      <trkpt lat="41.064145000" lon="-5.902536667">
        <time>2022-06-28T10:41:30Z</time>
      </trkpt>
      <trkpt lat="41.064131667" lon="-5.902610000">
        <time>2022-06-28T10:41:31Z</time>
      </trkpt>
      <trkpt lat="41.064118333" lon="-5.902686667">
        <time>2022-06-28T10:41:32Z</time>
      </trkpt>
      <trkpt lat="41.064101667" lon="-5.902760000">
        <time>2022-06-28T10:41:33Z</time>
      </trkpt>
      <trkpt lat="41.064085000" lon="-5.902833333">
        <time>2022-06-28T10:41:34Z</time>
      </trkpt>
      <trkpt lat="41.064066667" lon="-5.902906667">
        <time>2022-06-28T10:41:35Z</time>
      </trkpt>
      <trkpt lat="41.064045000" lon="-5.902980000">
        <time>2022-06-28T10:41:36Z</time>
      </trkpt>
      <trkpt lat="41.064020000" lon="-5.903056667">
        <time>2022-06-28T10:41:37Z</time>
      </trkpt>
      <trkpt lat="41.063993333" lon="-5.903125000">
        <time>2022-06-28T10:41:38Z</time>
      </trkpt>
      <trkpt lat="41.063963333" lon="-5.903191667">
        <time>2022-06-28T10:41:39Z</time>
      </trkpt>
      <trkpt lat="41.063933333" lon="-5.903255000">
        <time>2022-06-28T10:41:40Z</time>
      </trkpt>
      <trkpt lat="41.063903333" lon="-5.903320000">
        <time>2022-06-28T10:41:41Z</time>
      </trkpt>
      <trkpt lat="41.063876667" lon="-5.903385000">
        <time>2022-06-28T10:41:42Z</time>
      </trkpt>
      <trkpt lat="41.063850000" lon="-5.903448333">
        <time>2022-06-28T10:41:43Z</time>
      </trkpt>
      <trkpt lat="41.063818333" lon="-5.903511667">
        <time>2022-06-28T10:41:44Z</time>
      </trkpt>
      <trkpt lat="41.063786667" lon="-5.903573333">
        <time>2022-06-28T10:41:45Z</time>
      </trkpt>
      <trkpt lat="41.063755000" lon="-5.903636667">
        <time>2022-06-28T10:41:46Z</time>
      </trkpt>
      <trkpt lat="41.063725000" lon="-5.903700000">
        <time>2022-06-28T10:41:47Z</time>
      </trkpt>
      <trkpt lat="41.063693333" lon="-5.903766667">
        <time>2022-06-28T10:41:48Z</time>
      </trkpt>
      <trkpt lat="41.063665000" lon="-5.903830000">
        <time>2022-06-28T10:41:49Z</time>
      </trkpt>
      <trkpt lat="41.063631667" lon="-5.903898333">
        <time>2022-06-28T10:41:50Z</time>
      </trkpt>
      <trkpt lat="41.063600000" lon="-5.903968333">
        <time>2022-06-28T10:41:51Z</time>
      </trkpt>
      <trkpt lat="41.063568333" lon="-5.904035000">
        <time>2022-06-28T10:41:52Z</time>
      </trkpt>
      <trkpt lat="41.063536667" lon="-5.904106667">
        <time>2022-06-28T10:41:53Z</time>
      </trkpt>
      <trkpt lat="41.063506667" lon="-5.904175000">
        <time>2022-06-28T10:41:54Z</time>
      </trkpt>
      <trkpt lat="41.063475000" lon="-5.904241667">
        <time>2022-06-28T10:41:55Z</time>
      </trkpt>
      <trkpt lat="41.063441667" lon="-5.904311667">
        <time>2022-06-28T10:41:56Z</time>
      </trkpt>
      <trkpt lat="41.063410000" lon="-5.904378333">
        <time>2022-06-28T10:41:57Z</time>
      </trkpt>
      <trkpt lat="41.063378333" lon="-5.904443333">
        <time>2022-06-28T10:41:58Z</time>
      </trkpt>
      <trkpt lat="41.063346667" lon="-5.904503333">
        <time>2022-06-28T10:41:59Z</time>
      </trkpt>
      <trkpt lat="41.063318333" lon="-5.904565000">
        <time>2022-06-28T10:42:00Z</time>
      </trkpt>
      <trkpt lat="41.063288333" lon="-5.904628333">
        <time>2022-06-28T10:42:01Z</time>
      </trkpt>
      <trkpt lat="41.063256667" lon="-5.904693333">
        <time>2022-06-28T10:42:02Z</time>
      </trkpt>
      <trkpt lat="41.063226667" lon="-5.904760000">
        <time>2022-06-28T10:42:03Z</time>
      </trkpt>
      <trkpt lat="41.063195000" lon="-5.904828333">
        <time>2022-06-28T10:42:04Z</time>
      </trkpt>
      <trkpt lat="41.063163333" lon="-5.904895000">
        <time>2022-06-28T10:42:05Z</time>
      </trkpt>
      <trkpt lat="41.063131667" lon="-5.904961667">
        <time>2022-06-28T10:42:06Z</time>
      </trkpt>
      <trkpt lat="41.063100000" lon="-5.905030000">
        <time>2022-06-28T10:42:07Z</time>
      </trkpt>
      <trkpt lat="41.063068333" lon="-5.905098333">
        <time>2022-06-28T10:42:08Z</time>
      </trkpt>
      <trkpt lat="41.063036667" lon="-5.905168333">
        <time>2022-06-28T10:42:09Z</time>
      </trkpt>
      <trkpt lat="41.063005000" lon="-5.905236667">
        <time>2022-06-28T10:42:10Z</time>
      </trkpt>
      <trkpt lat="41.062971667" lon="-5.905306667">
        <time>2022-06-28T10:42:11Z</time>
      </trkpt>
      <trkpt lat="41.062940000" lon="-5.905375000">
        <time>2022-06-28T10:42:12Z</time>
      </trkpt>
      <trkpt lat="41.062908333" lon="-5.905441667">
        <time>2022-06-28T10:42:13Z</time>
      </trkpt>
      <trkpt lat="41.062876667" lon="-5.905510000">
        <time>2022-06-28T10:42:14Z</time>
      </trkpt>
      <trkpt lat="41.062846667" lon="-5.905578333">
        <time>2022-06-28T10:42:15Z</time>
      </trkpt>
      <trkpt lat="41.062816667" lon="-5.905646667">
        <time>2022-06-28T10:42:16Z</time>
      </trkpt>
      <trkpt lat="41.062785000" lon="-5.905715000">
        <time>2022-06-28T10:42:17Z</time>
      </trkpt>
      <trkpt lat="41.062755000" lon="-5.905785000">
        <time>2022-06-28T10:42:18Z</time>
      </trkpt>
      <trkpt lat="41.062728333" lon="-5.905855000">
        <time>2022-06-28T10:42:19Z</time>
      </trkpt>
      <trkpt lat="41.062700000" lon="-5.905926667">
        <time>2022-06-28T10:42:20Z</time>
      </trkpt>
      <trkpt lat="41.062678333" lon="-5.905998333">
        <time>2022-06-28T10:42:21Z</time>
      </trkpt>
      <trkpt lat="41.062658333" lon="-5.906068333">
        <time>2022-06-28T10:42:22Z</time>
      </trkpt>
      <trkpt lat="41.062643333" lon="-5.906141667">
        <time>2022-06-28T10:42:23Z</time>
      </trkpt>
      <trkpt lat="41.062630000" lon="-5.906216667">
        <time>2022-06-28T10:42:24Z</time>
      </trkpt>
      <trkpt lat="41.062618333" lon="-5.906288333">
        <time>2022-06-28T10:42:25Z</time>
      </trkpt>
      <trkpt lat="41.062606667" lon="-5.906360000">
        <time>2022-06-28T10:42:26Z</time>
      </trkpt>
      <trkpt lat="41.062598333" lon="-5.906430000">
        <time>2022-06-28T10:42:27Z</time>
      </trkpt>
      <trkpt lat="41.062590000" lon="-5.906498333">
        <time>2022-06-28T10:42:28Z</time>
      </trkpt>
      <trkpt lat="41.062581667" lon="-5.906566667">
        <time>2022-06-28T10:42:29Z</time>
      </trkpt>
      <trkpt lat="41.062575000" lon="-5.906635000">
        <time>2022-06-28T10:42:30Z</time>
      </trkpt>
      <trkpt lat="41.062568333" lon="-5.906703333">
        <time>2022-06-28T10:42:31Z</time>
      </trkpt>
      <trkpt lat="41.062561667" lon="-5.906770000">
        <time>2022-06-28T10:42:32Z</time>
      </trkpt>
      <trkpt lat="41.062553333" lon="-5.906836667">
        <time>2022-06-28T10:42:33Z</time>
      </trkpt>
      <trkpt lat="41.062546667" lon="-5.906901667">
        <time>2022-06-28T10:42:34Z</time>
      </trkpt>
      <trkpt lat="41.062540000" lon="-5.906966667">
        <time>2022-06-28T10:42:35Z</time>
      </trkpt>
      <trkpt lat="41.062535000" lon="-5.907031667">
        <time>2022-06-28T10:42:36Z</time>
      </trkpt>
      <trkpt lat="41.062528333" lon="-5.907093333">
        <time>2022-06-28T10:42:37Z</time>
      </trkpt>
      <trkpt lat="41.062520000" lon="-5.907161667">
        <time>2022-06-28T10:42:38Z</time>
      </trkpt>
      <trkpt lat="41.062515000" lon="-5.907223333">
        <time>2022-06-28T10:42:39Z</time>
      </trkpt>
      <trkpt lat="41.062508333" lon="-5.907283333">
        <time>2022-06-28T10:42:40Z</time>
      </trkpt>
      <trkpt lat="41.062501667" lon="-5.907343333">
        <time>2022-06-28T10:42:41Z</time>
      </trkpt>
      <trkpt lat="41.062496667" lon="-5.907403333">
        <time>2022-06-28T10:42:42Z</time>
      </trkpt>
      <trkpt lat="41.062491667" lon="-5.907463333">
        <time>2022-06-28T10:42:43Z</time>
      </trkpt>
      <trkpt lat="41.062486667" lon="-5.907525000">
        <time>2022-06-28T10:42:44Z</time>
      </trkpt>
      <trkpt lat="41.062481667" lon="-5.907585000">
        <time>2022-06-28T10:42:45Z</time>
      </trkpt>
      <trkpt lat="41.062476667" lon="-5.907645000">
        <time>2022-06-28T10:42:46Z</time>
      </trkpt>
      <trkpt lat="41.062470000" lon="-5.907701667">
        <time>2022-06-28T10:42:47Z</time>
      </trkpt>
      <trkpt lat="41.062461667" lon="-5.907755000">
        <time>2022-06-28T10:42:48Z</time>
      </trkpt>
      <trkpt lat="41.062455000" lon="-5.907805000">
        <time>2022-06-28T10:42:49Z</time>
      </trkpt>
      <trkpt lat="41.062450000" lon="-5.907855000">
        <time>2022-06-28T10:42:50Z</time>
      </trkpt>
      <trkpt lat="41.062445000" lon="-5.907901667">
        <time>2022-06-28T10:42:51Z</time>
      </trkpt>
      <trkpt lat="41.062438333" lon="-5.907948333">
        <time>2022-06-28T10:42:52Z</time>
      </trkpt>
      <trkpt lat="41.062431667" lon="-5.907995000">
        <time>2022-06-28T10:42:53Z</time>
      </trkpt>
      <trkpt lat="41.062425000" lon="-5.908041667">
        <time>2022-06-28T10:42:54Z</time>
      </trkpt>
      <trkpt lat="41.062420000" lon="-5.908088333">
        <time>2022-06-28T10:42:55Z</time>
      </trkpt>
      <trkpt lat="41.062413333" lon="-5.908135000">
        <time>2022-06-28T10:42:56Z</time>
      </trkpt>
      <trkpt lat="41.062406667" lon="-5.908181667">
        <time>2022-06-28T10:42:57Z</time>
      </trkpt>
      <trkpt lat="41.062401667" lon="-5.908226667">
        <time>2022-06-28T10:42:58Z</time>
      </trkpt>
      <trkpt lat="41.062395000" lon="-5.908273333">
        <time>2022-06-28T10:42:59Z</time>
      </trkpt>
      <trkpt lat="41.062388333" lon="-5.908320000">
        <time>2022-06-28T10:43:00Z</time>
      </trkpt>
      <trkpt lat="41.062383333" lon="-5.908365000">
        <time>2022-06-28T10:43:01Z</time>
      </trkpt>
      <trkpt lat="41.062376667" lon="-5.908410000">
        <time>2022-06-28T10:43:02Z</time>
      </trkpt>
      <trkpt lat="41.062370000" lon="-5.908451667">
        <time>2022-06-28T10:43:03Z</time>
      </trkpt>
      <trkpt lat="41.062361667" lon="-5.908495000">
        <time>2022-06-28T10:43:04Z</time>
      </trkpt>
      <trkpt lat="41.062356667" lon="-5.908538333">
        <time>2022-06-28T10:43:05Z</time>
      </trkpt>
      <trkpt lat="41.062355000" lon="-5.908580000">
        <time>2022-06-28T10:43:06Z</time>
      </trkpt>
      <trkpt lat="41.062353333" lon="-5.908623333">
        <time>2022-06-28T10:43:07Z</time>
      </trkpt>
      <trkpt lat="41.062351667" lon="-5.908665000">
        <time>2022-06-28T10:43:08Z</time>
      </trkpt>
      <trkpt lat="41.062350000" lon="-5.908706667">
        <time>2022-06-28T10:43:09Z</time>
      </trkpt>
      <trkpt lat="41.062350000" lon="-5.908748333">
        <time>2022-06-28T10:43:10Z</time>
      </trkpt>
      <trkpt lat="41.062350000" lon="-5.908788333">
        <time>2022-06-28T10:43:11Z</time>
      </trkpt>
      <trkpt lat="41.062350000" lon="-5.908828333">
        <time>2022-06-28T10:43:12Z</time>
      </trkpt>
      <trkpt lat="41.062351667" lon="-5.908861667">
        <time>2022-06-28T10:43:13Z</time>
      </trkpt>
      <trkpt lat="41.062353333" lon="-5.908895000">
        <time>2022-06-28T10:43:14Z</time>
      </trkpt>
      <trkpt lat="41.062355000" lon="-5.908930000">
        <time>2022-06-28T10:43:15Z</time>
      </trkpt>
      <trkpt lat="41.062355000" lon="-5.908968333">
        <time>2022-06-28T10:43:16Z</time>
      </trkpt>
      <trkpt lat="41.062356667" lon="-5.909005000">
        <time>2022-06-28T10:43:17Z</time>
      </trkpt>
      <trkpt lat="41.062360000" lon="-5.909043333">
        <time>2022-06-28T10:43:18Z</time>
      </trkpt>
      <trkpt lat="41.062363333" lon="-5.909081667">
        <time>2022-06-28T10:43:19Z</time>
      </trkpt>
      <trkpt lat="41.062365000" lon="-5.909120000">
        <time>2022-06-28T10:43:20Z</time>
      </trkpt>
      <trkpt lat="41.062368333" lon="-5.909158333">
        <time>2022-06-28T10:43:21Z</time>
      </trkpt>
      <trkpt lat="41.062370000" lon="-5.909196667">
        <time>2022-06-28T10:43:22Z</time>
      </trkpt>
      <trkpt lat="41.062371667" lon="-5.909233333">
        <time>2022-06-28T10:43:23Z</time>
      </trkpt>
      <trkpt lat="41.062373333" lon="-5.909271667">
        <time>2022-06-28T10:43:24Z</time>
      </trkpt>
      <trkpt lat="41.062376667" lon="-5.909310000">
        <time>2022-06-28T10:43:25Z</time>
      </trkpt>
      <trkpt lat="41.062378333" lon="-5.909346667">
        <time>2022-06-28T10:43:26Z</time>
      </trkpt>
      <trkpt lat="41.062378333" lon="-5.909386667">
        <time>2022-06-28T10:43:27Z</time>
      </trkpt>
      <trkpt lat="41.062381667" lon="-5.909425000">
        <time>2022-06-28T10:43:28Z</time>
      </trkpt>
      <trkpt lat="41.062385000" lon="-5.909465000">
        <time>2022-06-28T10:43:29Z</time>
      </trkpt>
      <trkpt lat="41.062386667" lon="-5.909506667">
        <time>2022-06-28T10:43:30Z</time>
      </trkpt>
      <trkpt lat="41.062386667" lon="-5.909543333">
        <time>2022-06-28T10:43:31Z</time>
      </trkpt>
      <trkpt lat="41.062388333" lon="-5.909573333">
        <time>2022-06-28T10:43:32Z</time>
      </trkpt>
      <trkpt lat="41.062390000" lon="-5.909605000">
        <time>2022-06-28T10:43:33Z</time>
      </trkpt>
      <trkpt lat="41.062393333" lon="-5.909643333">
        <time>2022-06-28T10:43:34Z</time>
      </trkpt>
      <trkpt lat="41.062393333" lon="-5.909685000">
        <time>2022-06-28T10:43:35Z</time>
      </trkpt>
      <trkpt lat="41.062393333" lon="-5.909728333">
        <time>2022-06-28T10:43:36Z</time>
      </trkpt>
      <trkpt lat="41.062391667" lon="-5.909775000">
        <time>2022-06-28T10:43:37Z</time>
      </trkpt>
      <trkpt lat="41.062390000" lon="-5.909818333">
        <time>2022-06-28T10:43:38Z</time>
      </trkpt>
      <trkpt lat="41.062386667" lon="-5.909861667">
        <time>2022-06-28T10:43:39Z</time>
      </trkpt>
      <trkpt lat="41.062383333" lon="-5.909905000">
        <time>2022-06-28T10:43:40Z</time>
      </trkpt>
      <trkpt lat="41.062380000" lon="-5.909950000">
        <time>2022-06-28T10:43:41Z</time>
      </trkpt>
      <trkpt lat="41.062376667" lon="-5.909996667">
        <time>2022-06-28T10:43:42Z</time>
      </trkpt>
      <trkpt lat="41.062371667" lon="-5.910043333">
        <time>2022-06-28T10:43:43Z</time>
      </trkpt>
      <trkpt lat="41.062366667" lon="-5.910091667">
        <time>2022-06-28T10:43:44Z</time>
      </trkpt>
      <trkpt lat="41.062363333" lon="-5.910140000">
        <time>2022-06-28T10:43:45Z</time>
      </trkpt>
      <trkpt lat="41.062358333" lon="-5.910188333">
        <time>2022-06-28T10:43:46Z</time>
      </trkpt>
      <trkpt lat="41.062353333" lon="-5.910236667">
        <time>2022-06-28T10:43:47Z</time>
      </trkpt>
      <trkpt lat="41.062346667" lon="-5.910285000">
        <time>2022-06-28T10:43:48Z</time>
      </trkpt>
      <trkpt lat="41.062341667" lon="-5.910333333">
        <time>2022-06-28T10:43:49Z</time>
      </trkpt>
      <trkpt lat="41.062336667" lon="-5.910381667">
        <time>2022-06-28T10:43:50Z</time>
      </trkpt>
      <trkpt lat="41.062335000" lon="-5.910428333">
        <time>2022-06-28T10:43:51Z</time>
      </trkpt>
      <trkpt lat="41.062330000" lon="-5.910475000">
        <time>2022-06-28T10:43:52Z</time>
      </trkpt>
      <trkpt lat="41.062325000" lon="-5.910521667">
        <time>2022-06-28T10:43:53Z</time>
      </trkpt>
      <trkpt lat="41.062320000" lon="-5.910570000">
        <time>2022-06-28T10:43:54Z</time>
      </trkpt>
      <trkpt lat="41.062315000" lon="-5.910620000">
        <time>2022-06-28T10:43:55Z</time>
      </trkpt>
      <trkpt lat="41.062308333" lon="-5.910668333">
        <time>2022-06-28T10:43:56Z</time>
      </trkpt>
      <trkpt lat="41.062305000" lon="-5.910720000">
        <time>2022-06-28T10:43:57Z</time>
      </trkpt>
      <trkpt lat="41.062303333" lon="-5.910770000">
        <time>2022-06-28T10:43:58Z</time>
      </trkpt>
      <trkpt lat="41.062300000" lon="-5.910821667">
        <time>2022-06-28T10:43:59Z</time>
      </trkpt>
      <trkpt lat="41.062295000" lon="-5.910871667">
        <time>2022-06-28T10:44:00Z</time>
      </trkpt>
      <trkpt lat="41.062293333" lon="-5.910923333">
        <time>2022-06-28T10:44:01Z</time>
      </trkpt>
      <trkpt lat="41.062290000" lon="-5.910973333">
        <time>2022-06-28T10:44:02Z</time>
      </trkpt>
      <trkpt lat="41.062288333" lon="-5.911025000">
        <time>2022-06-28T10:44:03Z</time>
      </trkpt>
      <trkpt lat="41.062286667" lon="-5.911073333">
        <time>2022-06-28T10:44:04Z</time>
      </trkpt>
      <trkpt lat="41.062286667" lon="-5.911123333">
        <time>2022-06-28T10:44:05Z</time>
      </trkpt>
      <trkpt lat="41.062290000" lon="-5.911173333">
        <time>2022-06-28T10:44:06Z</time>
      </trkpt>
      <trkpt lat="41.062295000" lon="-5.911225000">
        <time>2022-06-28T10:44:07Z</time>
      </trkpt>
      <trkpt lat="41.062300000" lon="-5.911276667">
        <time>2022-06-28T10:44:08Z</time>
      </trkpt>
      <trkpt lat="41.062305000" lon="-5.911330000">
        <time>2022-06-28T10:44:09Z</time>
      </trkpt>
      <trkpt lat="41.062310000" lon="-5.911383333">
        <time>2022-06-28T10:44:10Z</time>
      </trkpt>
      <trkpt lat="41.062315000" lon="-5.911436667">
        <time>2022-06-28T10:44:11Z</time>
      </trkpt>
      <trkpt lat="41.062321667" lon="-5.911490000">
        <time>2022-06-28T10:44:12Z</time>
      </trkpt>
      <trkpt lat="41.062333333" lon="-5.911541667">
        <time>2022-06-28T10:44:13Z</time>
      </trkpt>
      <trkpt lat="41.062341667" lon="-5.911595000">
        <time>2022-06-28T10:44:14Z</time>
      </trkpt>
      <trkpt lat="41.062350000" lon="-5.911650000">
        <time>2022-06-28T10:44:15Z</time>
      </trkpt>
      <trkpt lat="41.062360000" lon="-5.911703333">
        <time>2022-06-28T10:44:16Z</time>
      </trkpt>
      <trkpt lat="41.062366667" lon="-5.911755000">
        <time>2022-06-28T10:44:17Z</time>
      </trkpt>
      <trkpt lat="41.062375000" lon="-5.911808333">
        <time>2022-06-28T10:44:18Z</time>
      </trkpt>
      <trkpt lat="41.062385000" lon="-5.911865000">
        <time>2022-06-28T10:44:19Z</time>
      </trkpt>
      <trkpt lat="41.062396667" lon="-5.911921667">
        <time>2022-06-28T10:44:20Z</time>
      </trkpt>
      <trkpt lat="41.062406667" lon="-5.911981667">
        <time>2022-06-28T10:44:21Z</time>
      </trkpt>
      <trkpt lat="41.062418333" lon="-5.912046667">
        <time>2022-06-28T10:44:22Z</time>
      </trkpt>
      <trkpt lat="41.062428333" lon="-5.912113333">
        <time>2022-06-28T10:44:23Z</time>
      </trkpt>
      <trkpt lat="41.062438333" lon="-5.912180000">
        <time>2022-06-28T10:44:24Z</time>
      </trkpt>
      <trkpt lat="41.062450000" lon="-5.912248333">
        <time>2022-06-28T10:44:25Z</time>
      </trkpt>
      <trkpt lat="41.062460000" lon="-5.912316667">
        <time>2022-06-28T10:44:26Z</time>
      </trkpt>
      <trkpt lat="41.062471667" lon="-5.912386667">
        <time>2022-06-28T10:44:27Z</time>
      </trkpt>
      <trkpt lat="41.062481667" lon="-5.912458333">
        <time>2022-06-28T10:44:28Z</time>
      </trkpt>
      <trkpt lat="41.062493333" lon="-5.912531667">
        <time>2022-06-28T10:44:29Z</time>
      </trkpt>
      <trkpt lat="41.062506667" lon="-5.912608333">
        <time>2022-06-28T10:44:30Z</time>
      </trkpt>
      <trkpt lat="41.062518333" lon="-5.912691667">
        <time>2022-06-28T10:44:31Z</time>
      </trkpt>
      <trkpt lat="41.062531667" lon="-5.912776667">
        <time>2022-06-28T10:44:32Z</time>
      </trkpt>
      <trkpt lat="41.062540000" lon="-5.912865000">
        <time>2022-06-28T10:44:33Z</time>
      </trkpt>
      <trkpt lat="41.062541667" lon="-5.912953333">
        <time>2022-06-28T10:44:34Z</time>
      </trkpt>
      <trkpt lat="41.062538333" lon="-5.913041667">
        <time>2022-06-28T10:44:35Z</time>
      </trkpt>
      <trkpt lat="41.062528333" lon="-5.913138333">
        <time>2022-06-28T10:44:36Z</time>
      </trkpt>
      <trkpt lat="41.062513333" lon="-5.913243333">
        <time>2022-06-28T10:44:37Z</time>
      </trkpt>
      <trkpt lat="41.062496667" lon="-5.913345000">
        <time>2022-06-28T10:44:38Z</time>
      </trkpt>
      <trkpt lat="41.062478333" lon="-5.913446667">
        <time>2022-06-28T10:44:39Z</time>
      </trkpt>
      <trkpt lat="41.062460000" lon="-5.913551667">
        <time>2022-06-28T10:44:40Z</time>
      </trkpt>
      <trkpt lat="41.062441667" lon="-5.913658333">
        <time>2022-06-28T10:44:41Z</time>
      </trkpt>
      <trkpt lat="41.062423333" lon="-5.913766667">
        <time>2022-06-28T10:44:42Z</time>
      </trkpt>
      <trkpt lat="41.062401667" lon="-5.913875000">
        <time>2022-06-28T10:44:43Z</time>
      </trkpt>
      <trkpt lat="41.062376667" lon="-5.913983333">
        <time>2022-06-28T10:44:44Z</time>
      </trkpt>
      <trkpt lat="41.062348333" lon="-5.914090000">
        <time>2022-06-28T10:44:45Z</time>
      </trkpt>
      <trkpt lat="41.062313333" lon="-5.914193333">
        <time>2022-06-28T10:44:46Z</time>
      </trkpt>
      <trkpt lat="41.062275000" lon="-5.914293333">
        <time>2022-06-28T10:44:47Z</time>
      </trkpt>
      <trkpt lat="41.062231667" lon="-5.914391667">
        <time>2022-06-28T10:44:48Z</time>
      </trkpt>
      <trkpt lat="41.062188333" lon="-5.914485000">
        <time>2022-06-28T10:44:49Z</time>
      </trkpt>
      <trkpt lat="41.062143333" lon="-5.914576667">
        <time>2022-06-28T10:44:50Z</time>
      </trkpt>
      <trkpt lat="41.062098333" lon="-5.914666667">
        <time>2022-06-28T10:44:51Z</time>
      </trkpt>
      <trkpt lat="41.062055000" lon="-5.914756667">
        <time>2022-06-28T10:44:52Z</time>
      </trkpt>
      <trkpt lat="41.062011667" lon="-5.914843333">
        <time>2022-06-28T10:44:53Z</time>
      </trkpt>
      <trkpt lat="41.061966667" lon="-5.914930000">
        <time>2022-06-28T10:44:54Z</time>
      </trkpt>
      <trkpt lat="41.061925000" lon="-5.915015000">
        <time>2022-06-28T10:44:55Z</time>
      </trkpt>
      <trkpt lat="41.061881667" lon="-5.915100000">
        <time>2022-06-28T10:44:56Z</time>
      </trkpt>
      <trkpt lat="41.061840000" lon="-5.915185000">
        <time>2022-06-28T10:44:57Z</time>
      </trkpt>
      <trkpt lat="41.061800000" lon="-5.915271667">
        <time>2022-06-28T10:44:58Z</time>
      </trkpt>
      <trkpt lat="41.061763333" lon="-5.915360000">
        <time>2022-06-28T10:44:59Z</time>
      </trkpt>
      <trkpt lat="41.061726667" lon="-5.915450000">
        <time>2022-06-28T10:45:00Z</time>
      </trkpt>
      <trkpt lat="41.061693333" lon="-5.915541667">
        <time>2022-06-28T10:45:01Z</time>
      </trkpt>
      <trkpt lat="41.061660000" lon="-5.915631667">
        <time>2022-06-28T10:45:02Z</time>
      </trkpt>
      <trkpt lat="41.061628333" lon="-5.915721667">
        <time>2022-06-28T10:45:03Z</time>
      </trkpt>
      <trkpt lat="41.061598333" lon="-5.915813333">
        <time>2022-06-28T10:45:04Z</time>
      </trkpt>
      <trkpt lat="41.061570000" lon="-5.915903333">
        <time>2022-06-28T10:45:05Z</time>
      </trkpt>
      <trkpt lat="41.061541667" lon="-5.915993333">
        <time>2022-06-28T10:45:06Z</time>
      </trkpt>
      <trkpt lat="41.061513333" lon="-5.916081667">
        <time>2022-06-28T10:45:07Z</time>
      </trkpt>
      <trkpt lat="41.061485000" lon="-5.916170000">
        <time>2022-06-28T10:45:08Z</time>
      </trkpt>
      <trkpt lat="41.061458333" lon="-5.916258333">
        <time>2022-06-28T10:45:09Z</time>
      </trkpt>
      <trkpt lat="41.061430000" lon="-5.916345000">
        <time>2022-06-28T10:45:10Z</time>
      </trkpt>
      <trkpt lat="41.061401667" lon="-5.916431667">
        <time>2022-06-28T10:45:11Z</time>
      </trkpt>
      <trkpt lat="41.061375000" lon="-5.916520000">
        <time>2022-06-28T10:45:12Z</time>
      </trkpt>
      <trkpt lat="41.061345000" lon="-5.916608333">
        <time>2022-06-28T10:45:13Z</time>
      </trkpt>
      <trkpt lat="41.061316667" lon="-5.916696667">
        <time>2022-06-28T10:45:14Z</time>
      </trkpt>
      <trkpt lat="41.061290000" lon="-5.916785000">
        <time>2022-06-28T10:45:15Z</time>
      </trkpt>
      <trkpt lat="41.061261667" lon="-5.916873333">
        <time>2022-06-28T10:45:16Z</time>
      </trkpt>
      <trkpt lat="41.061235000" lon="-5.916960000">
        <time>2022-06-28T10:45:17Z</time>
      </trkpt>
      <trkpt lat="41.061206667" lon="-5.917046667">
        <time>2022-06-28T10:45:18Z</time>
      </trkpt>
      <trkpt lat="41.061178333" lon="-5.917131667">
        <time>2022-06-28T10:45:19Z</time>
      </trkpt>
      <trkpt lat="41.061151667" lon="-5.917218333">
        <time>2022-06-28T10:45:20Z</time>
      </trkpt>
      <trkpt lat="41.061123333" lon="-5.917301667">
        <time>2022-06-28T10:45:21Z</time>
      </trkpt>
      <trkpt lat="41.061093333" lon="-5.917381667">
        <time>2022-06-28T10:45:22Z</time>
      </trkpt>
      <trkpt lat="41.061063333" lon="-5.917461667">
        <time>2022-06-28T10:45:23Z</time>
      </trkpt>
      <trkpt lat="41.061033333" lon="-5.917543333">
        <time>2022-06-28T10:45:24Z</time>
      </trkpt>
      <trkpt lat="41.061003333" lon="-5.917623333">
        <time>2022-06-28T10:45:25Z</time>
      </trkpt>
      <trkpt lat="41.060968333" lon="-5.917703333">
        <time>2022-06-28T10:45:26Z</time>
      </trkpt>
      <trkpt lat="41.060933333" lon="-5.917781667">
        <time>2022-06-28T10:45:27Z</time>
      </trkpt>
      <trkpt lat="41.060898333" lon="-5.917860000">
        <time>2022-06-28T10:45:28Z</time>
      </trkpt>
      <trkpt lat="41.060863333" lon="-5.917938333">
        <time>2022-06-28T10:45:29Z</time>
      </trkpt>
      <trkpt lat="41.060826667" lon="-5.918011667">
        <time>2022-06-28T10:45:30Z</time>
      </trkpt>
      <trkpt lat="41.060793333" lon="-5.918090000">
        <time>2022-06-28T10:45:31Z</time>
      </trkpt>
      <trkpt lat="41.060760000" lon="-5.918163333">
        <time>2022-06-28T10:45:32Z</time>
      </trkpt>
      <trkpt lat="41.060723333" lon="-5.918235000">
        <time>2022-06-28T10:45:33Z</time>
      </trkpt>
      <trkpt lat="41.060685000" lon="-5.918305000">
        <time>2022-06-28T10:45:34Z</time>
      </trkpt>
      <trkpt lat="41.060646667" lon="-5.918373333">
        <time>2022-06-28T10:45:35Z</time>
      </trkpt>
      <trkpt lat="41.060605000" lon="-5.918435000">
        <time>2022-06-28T10:45:36Z</time>
      </trkpt>
      <trkpt lat="41.060563333" lon="-5.918493333">
        <time>2022-06-28T10:45:37Z</time>
      </trkpt>
      <trkpt lat="41.060521667" lon="-5.918545000">
        <time>2022-06-28T10:45:38Z</time>
      </trkpt>
      <trkpt lat="41.060476667" lon="-5.918590000">
        <time>2022-06-28T10:45:39Z</time>
      </trkpt>
      <trkpt lat="41.060433333" lon="-5.918628333">
        <time>2022-06-28T10:45:40Z</time>
      </trkpt>
      <trkpt lat="41.060386667" lon="-5.918666667">
        <time>2022-06-28T10:45:41Z</time>
      </trkpt>
      <trkpt lat="41.060338333" lon="-5.918708333">
        <time>2022-06-28T10:45:42Z</time>
      </trkpt>
      <trkpt lat="41.060291667" lon="-5.918748333">
        <time>2022-06-28T10:45:43Z</time>
      </trkpt>
      <trkpt lat="41.060241667" lon="-5.918790000">
        <time>2022-06-28T10:45:44Z</time>
      </trkpt>
      <trkpt lat="41.060193333" lon="-5.918828333">
        <time>2022-06-28T10:45:45Z</time>
      </trkpt>
      <trkpt lat="41.060145000" lon="-5.918866667">
        <time>2022-06-28T10:45:46Z</time>
      </trkpt>
      <trkpt lat="41.060098333" lon="-5.918905000">
        <time>2022-06-28T10:45:47Z</time>
      </trkpt>
      <trkpt lat="41.060051667" lon="-5.918943333">
        <time>2022-06-28T10:45:48Z</time>
      </trkpt>
      <trkpt lat="41.060005000" lon="-5.918981667">
        <time>2022-06-28T10:45:49Z</time>
      </trkpt>
      <trkpt lat="41.059960000" lon="-5.919018333">
        <time>2022-06-28T10:45:50Z</time>
      </trkpt>
      <trkpt lat="41.059915000" lon="-5.919056667">
        <time>2022-06-28T10:45:51Z</time>
      </trkpt>
      <trkpt lat="41.059865000" lon="-5.919093333">
        <time>2022-06-28T10:45:52Z</time>
      </trkpt>
      <trkpt lat="41.059818333" lon="-5.919130000">
        <time>2022-06-28T10:45:53Z</time>
      </trkpt>
      <trkpt lat="41.059773333" lon="-5.919166667">
        <time>2022-06-28T10:45:54Z</time>
      </trkpt>
      <trkpt lat="41.059728333" lon="-5.919205000">
        <time>2022-06-28T10:45:55Z</time>
      </trkpt>
      <trkpt lat="41.059683333" lon="-5.919241667">
        <time>2022-06-28T10:45:56Z</time>
      </trkpt>
      <trkpt lat="41.059638333" lon="-5.919278333">
        <time>2022-06-28T10:45:57Z</time>
      </trkpt>
      <trkpt lat="41.059593333" lon="-5.919315000">
        <time>2022-06-28T10:45:58Z</time>
      </trkpt>
      <trkpt lat="41.059546667" lon="-5.919348333">
        <time>2022-06-28T10:45:59Z</time>
      </trkpt>
      <trkpt lat="41.059501667" lon="-5.919385000">
        <time>2022-06-28T10:46:00Z</time>
      </trkpt>
      <trkpt lat="41.059456667" lon="-5.919421667">
        <time>2022-06-28T10:46:01Z</time>
      </trkpt>
      <trkpt lat="41.059411667" lon="-5.919458333">
        <time>2022-06-28T10:46:02Z</time>
      </trkpt>
      <trkpt lat="41.059366667" lon="-5.919495000">
        <time>2022-06-28T10:46:03Z</time>
      </trkpt>
      <trkpt lat="41.059320000" lon="-5.919530000">
        <time>2022-06-28T10:46:04Z</time>
      </trkpt>
      <trkpt lat="41.059275000" lon="-5.919565000">
        <time>2022-06-28T10:46:05Z</time>
      </trkpt>
      <trkpt lat="41.059231667" lon="-5.919601667">
        <time>2022-06-28T10:46:06Z</time>
      </trkpt>
      <trkpt lat="41.059186667" lon="-5.919636667">
        <time>2022-06-28T10:46:07Z</time>
      </trkpt>
      <trkpt lat="41.059148333" lon="-5.919668333">
        <time>2022-06-28T10:46:08Z</time>
      </trkpt>
      <trkpt lat="41.059111667" lon="-5.919696667">
        <time>2022-06-28T10:46:09Z</time>
      </trkpt>
      <trkpt lat="41.059076667" lon="-5.919725000">
        <time>2022-06-28T10:46:10Z</time>
      </trkpt>
      <trkpt lat="41.059040000" lon="-5.919755000">
        <time>2022-06-28T10:46:11Z</time>
      </trkpt>
      <trkpt lat="41.059005000" lon="-5.919785000">
        <time>2022-06-28T10:46:12Z</time>
      </trkpt>
      <trkpt lat="41.058966667" lon="-5.919815000">
        <time>2022-06-28T10:46:13Z</time>
      </trkpt>
      <trkpt lat="41.058928333" lon="-5.919841667">
        <time>2022-06-28T10:46:14Z</time>
      </trkpt>
      <trkpt lat="41.058890000" lon="-5.919870000">
        <time>2022-06-28T10:46:15Z</time>
      </trkpt>
      <trkpt lat="41.058851667" lon="-5.919898333">
        <time>2022-06-28T10:46:16Z</time>
      </trkpt>
      <trkpt lat="41.058815000" lon="-5.919928333">
        <time>2022-06-28T10:46:17Z</time>
      </trkpt>
      <trkpt lat="41.058780000" lon="-5.919960000">
        <time>2022-06-28T10:46:18Z</time>
      </trkpt>
      <trkpt lat="41.058741667" lon="-5.919991667">
        <time>2022-06-28T10:46:19Z</time>
      </trkpt>
      <trkpt lat="41.058703333" lon="-5.920021667">
        <time>2022-06-28T10:46:20Z</time>
      </trkpt>
      <trkpt lat="41.058663333" lon="-5.920051667">
        <time>2022-06-28T10:46:21Z</time>
      </trkpt>
      <trkpt lat="41.058623333" lon="-5.920081667">
        <time>2022-06-28T10:46:22Z</time>
      </trkpt>
      <trkpt lat="41.058588333" lon="-5.920115000">
        <time>2022-06-28T10:46:23Z</time>
      </trkpt>
      <trkpt lat="41.058548333" lon="-5.920148333">
        <time>2022-06-28T10:46:24Z</time>
      </trkpt>
      <trkpt lat="41.058506667" lon="-5.920181667">
        <time>2022-06-28T10:46:25Z</time>
      </trkpt>
      <trkpt lat="41.058463333" lon="-5.920216667">
        <time>2022-06-28T10:46:26Z</time>
      </trkpt>
      <trkpt lat="41.058420000" lon="-5.920253333">
        <time>2022-06-28T10:46:27Z</time>
      </trkpt>
      <trkpt lat="41.058375000" lon="-5.920286667">
        <time>2022-06-28T10:46:28Z</time>
      </trkpt>
      <trkpt lat="41.058331667" lon="-5.920323333">
        <time>2022-06-28T10:46:29Z</time>
      </trkpt>
      <trkpt lat="41.058288333" lon="-5.920363333">
        <time>2022-06-28T10:46:30Z</time>
      </trkpt>
      <trkpt lat="41.058245000" lon="-5.920406667">
        <time>2022-06-28T10:46:31Z</time>
      </trkpt>
      <trkpt lat="41.058203333" lon="-5.920451667">
        <time>2022-06-28T10:46:32Z</time>
      </trkpt>
      <trkpt lat="41.058161667" lon="-5.920500000">
        <time>2022-06-28T10:46:33Z</time>
      </trkpt>
      <trkpt lat="41.058121667" lon="-5.920551667">
        <time>2022-06-28T10:46:34Z</time>
      </trkpt>
      <trkpt lat="41.058080000" lon="-5.920606667">
        <time>2022-06-28T10:46:35Z</time>
      </trkpt>
      <trkpt lat="41.058040000" lon="-5.920666667">
        <time>2022-06-28T10:46:36Z</time>
      </trkpt>
      <trkpt lat="41.058000000" lon="-5.920731667">
        <time>2022-06-28T10:46:37Z</time>
      </trkpt>
      <trkpt lat="41.057961667" lon="-5.920800000">
        <time>2022-06-28T10:46:38Z</time>
      </trkpt>
      <trkpt lat="41.057926667" lon="-5.920873333">
        <time>2022-06-28T10:46:39Z</time>
      </trkpt>
      <trkpt lat="41.057895000" lon="-5.920948333">
        <time>2022-06-28T10:46:40Z</time>
      </trkpt>
      <trkpt lat="41.057863333" lon="-5.921023333">
        <time>2022-06-28T10:46:41Z</time>
      </trkpt>
      <trkpt lat="41.057833333" lon="-5.921100000">
        <time>2022-06-28T10:46:42Z</time>
      </trkpt>
      <trkpt lat="41.057805000" lon="-5.921176667">
        <time>2022-06-28T10:46:43Z</time>
      </trkpt>
      <trkpt lat="41.057775000" lon="-5.921251667">
        <time>2022-06-28T10:46:44Z</time>
      </trkpt>
      <trkpt lat="41.057746667" lon="-5.921328333">
        <time>2022-06-28T10:46:45Z</time>
      </trkpt>
      <trkpt lat="41.057718333" lon="-5.921403333">
        <time>2022-06-28T10:46:46Z</time>
      </trkpt>
      <trkpt lat="41.057691667" lon="-5.921478333">
        <time>2022-06-28T10:46:47Z</time>
      </trkpt>
      <trkpt lat="41.057661667" lon="-5.921551667">
        <time>2022-06-28T10:46:48Z</time>
      </trkpt>
      <trkpt lat="41.057630000" lon="-5.921625000">
        <time>2022-06-28T10:46:49Z</time>
      </trkpt>
      <trkpt lat="41.057598333" lon="-5.921695000">
        <time>2022-06-28T10:46:50Z</time>
      </trkpt>
      <trkpt lat="41.057563333" lon="-5.921763333">
        <time>2022-06-28T10:46:51Z</time>
      </trkpt>
      <trkpt lat="41.057525000" lon="-5.921830000">
        <time>2022-06-28T10:46:52Z</time>
      </trkpt>
      <trkpt lat="41.057485000" lon="-5.921895000">
        <time>2022-06-28T10:46:53Z</time>
      </trkpt>
      <trkpt lat="41.057445000" lon="-5.921958333">
        <time>2022-06-28T10:46:54Z</time>
      </trkpt>
      <trkpt lat="41.057405000" lon="-5.922020000">
        <time>2022-06-28T10:46:55Z</time>
      </trkpt>
      <trkpt lat="41.057361667" lon="-5.922080000">
        <time>2022-06-28T10:46:56Z</time>
      </trkpt>
      <trkpt lat="41.057318333" lon="-5.922138333">
        <time>2022-06-28T10:46:57Z</time>
      </trkpt>
      <trkpt lat="41.057275000" lon="-5.922198333">
        <time>2022-06-28T10:46:58Z</time>
      </trkpt>
      <trkpt lat="41.057230000" lon="-5.922255000">
        <time>2022-06-28T10:46:59Z</time>
      </trkpt>
      <trkpt lat="41.057185000" lon="-5.922311667">
        <time>2022-06-28T10:47:00Z</time>
      </trkpt>
      <trkpt lat="41.057140000" lon="-5.922366667">
        <time>2022-06-28T10:47:01Z</time>
      </trkpt>
      <trkpt lat="41.057095000" lon="-5.922421667">
        <time>2022-06-28T10:47:02Z</time>
      </trkpt>
      <trkpt lat="41.057050000" lon="-5.922475000">
        <time>2022-06-28T10:47:03Z</time>
      </trkpt>
      <trkpt lat="41.057006667" lon="-5.922530000">
        <time>2022-06-28T10:47:04Z</time>
      </trkpt>
      <trkpt lat="41.056961667" lon="-5.922583333">
        <time>2022-06-28T10:47:05Z</time>
      </trkpt>
      <trkpt lat="41.056915000" lon="-5.922636667">
        <time>2022-06-28T10:47:06Z</time>
      </trkpt>
      <trkpt lat="41.056868333" lon="-5.922686667">
        <time>2022-06-28T10:47:07Z</time>
      </trkpt>
      <trkpt lat="41.056820000" lon="-5.922736667">
        <time>2022-06-28T10:47:08Z</time>
      </trkpt>
      <trkpt lat="41.056770000" lon="-5.922786667">
        <time>2022-06-28T10:47:09Z</time>
      </trkpt>
      <trkpt lat="41.056720000" lon="-5.922838333">
        <time>2022-06-28T10:47:10Z</time>
      </trkpt>
      <trkpt lat="41.056671667" lon="-5.922891667">
        <time>2022-06-28T10:47:11Z</time>
      </trkpt>
      <trkpt lat="41.056625000" lon="-5.922948333">
        <time>2022-06-28T10:47:12Z</time>
      </trkpt>
      <trkpt lat="41.056576667" lon="-5.923008333">
        <time>2022-06-28T10:47:13Z</time>
      </trkpt>
      <trkpt lat="41.056528333" lon="-5.923070000">
        <time>2022-06-28T10:47:14Z</time>
      </trkpt>
      <trkpt lat="41.056481667" lon="-5.923138333">
        <time>2022-06-28T10:47:15Z</time>
      </trkpt>
      <trkpt lat="41.056435000" lon="-5.923208333">
        <time>2022-06-28T10:47:16Z</time>
      </trkpt>
      <trkpt lat="41.056388333" lon="-5.923280000">
        <time>2022-06-28T10:47:17Z</time>
      </trkpt>
      <trkpt lat="41.056338333" lon="-5.923355000">
        <time>2022-06-28T10:47:18Z</time>
      </trkpt>
      <trkpt lat="41.056288333" lon="-5.923431667">
        <time>2022-06-28T10:47:19Z</time>
      </trkpt>
      <trkpt lat="41.056235000" lon="-5.923513333">
        <time>2022-06-28T10:47:20Z</time>
      </trkpt>
      <trkpt lat="41.056180000" lon="-5.923598333">
        <time>2022-06-28T10:47:21Z</time>
      </trkpt>
      <trkpt lat="41.056123333" lon="-5.923686667">
        <time>2022-06-28T10:47:22Z</time>
      </trkpt>
      <trkpt lat="41.056063333" lon="-5.923775000">
        <time>2022-06-28T10:47:23Z</time>
      </trkpt>
      <trkpt lat="41.056003333" lon="-5.923863333">
        <time>2022-06-28T10:47:24Z</time>
      </trkpt>
      <trkpt lat="41.055945000" lon="-5.923951667">
        <time>2022-06-28T10:47:25Z</time>
      </trkpt>
      <trkpt lat="41.055886667" lon="-5.924041667">
        <time>2022-06-28T10:47:26Z</time>
      </trkpt>
      <trkpt lat="41.055830000" lon="-5.924133333">
        <time>2022-06-28T10:47:27Z</time>
      </trkpt>
      <trkpt lat="41.055771667" lon="-5.924225000">
        <time>2022-06-28T10:47:28Z</time>
      </trkpt>
      <trkpt lat="41.055715000" lon="-5.924315000">
        <time>2022-06-28T10:47:29Z</time>
      </trkpt>
      <trkpt lat="41.055656667" lon="-5.924405000">
        <time>2022-06-28T10:47:30Z</time>
      </trkpt>
      <trkpt lat="41.055598333" lon="-5.924495000">
        <time>2022-06-28T10:47:31Z</time>
      </trkpt>
      <trkpt lat="41.055540000" lon="-5.924583333">
        <time>2022-06-28T10:47:32Z</time>
      </trkpt>
      <trkpt lat="41.055480000" lon="-5.924671667">
        <time>2022-06-28T10:47:33Z</time>
      </trkpt>
      <trkpt lat="41.055423333" lon="-5.924763333">
        <time>2022-06-28T10:47:34Z</time>
      </trkpt>
      <trkpt lat="41.055365000" lon="-5.924853333">
        <time>2022-06-28T10:47:35Z</time>
      </trkpt>
      <trkpt lat="41.055306667" lon="-5.924943333">
        <time>2022-06-28T10:47:36Z</time>
      </trkpt>
      <trkpt lat="41.055248333" lon="-5.925033333">
        <time>2022-06-28T10:47:37Z</time>
      </trkpt>
      <trkpt lat="41.055190000" lon="-5.925123333">
        <time>2022-06-28T10:47:38Z</time>
      </trkpt>
      <trkpt lat="41.055131667" lon="-5.925213333">
        <time>2022-06-28T10:47:39Z</time>
      </trkpt>
      <trkpt lat="41.055076667" lon="-5.925306667">
        <time>2022-06-28T10:47:40Z</time>
      </trkpt>
      <trkpt lat="41.055018333" lon="-5.925396667">
        <time>2022-06-28T10:47:41Z</time>
      </trkpt>
      <trkpt lat="41.054960000" lon="-5.925486667">
        <time>2022-06-28T10:47:42Z</time>
      </trkpt>
      <trkpt lat="41.054903333" lon="-5.925575000">
        <time>2022-06-28T10:47:43Z</time>
      </trkpt>
      <trkpt lat="41.054846667" lon="-5.925666667">
        <time>2022-06-28T10:47:44Z</time>
      </trkpt>
      <trkpt lat="41.054788333" lon="-5.925758333">
        <time>2022-06-28T10:47:45Z</time>
      </trkpt>
      <trkpt lat="41.054731667" lon="-5.925848333">
        <time>2022-06-28T10:47:46Z</time>
      </trkpt>
      <trkpt lat="41.054675000" lon="-5.925938333">
        <time>2022-06-28T10:47:47Z</time>
      </trkpt>
      <trkpt lat="41.054616667" lon="-5.926028333">
        <time>2022-06-28T10:47:48Z</time>
      </trkpt>
      <trkpt lat="41.054560000" lon="-5.926118333">
        <time>2022-06-28T10:47:49Z</time>
      </trkpt>
      <trkpt lat="41.054505000" lon="-5.926210000">
        <time>2022-06-28T10:47:50Z</time>
      </trkpt>
      <trkpt lat="41.054450000" lon="-5.926305000">
        <time>2022-06-28T10:47:51Z</time>
      </trkpt>
      <trkpt lat="41.054396667" lon="-5.926403333">
        <time>2022-06-28T10:47:52Z</time>
      </trkpt>
      <trkpt lat="41.054348333" lon="-5.926506667">
        <time>2022-06-28T10:47:53Z</time>
      </trkpt>
      <trkpt lat="41.054300000" lon="-5.926611667">
        <time>2022-06-28T10:47:54Z</time>
      </trkpt>
      <trkpt lat="41.054253333" lon="-5.926718333">
        <time>2022-06-28T10:47:55Z</time>
      </trkpt>
      <trkpt lat="41.054208333" lon="-5.926826667">
        <time>2022-06-28T10:47:56Z</time>
      </trkpt>
      <trkpt lat="41.054163333" lon="-5.926933333">
        <time>2022-06-28T10:47:57Z</time>
      </trkpt>
      <trkpt lat="41.054116667" lon="-5.927040000">
        <time>2022-06-28T10:47:58Z</time>
      </trkpt>
      <trkpt lat="41.054070000" lon="-5.927148333">
        <time>2022-06-28T10:47:59Z</time>
      </trkpt>
      <trkpt lat="41.054025000" lon="-5.927256667">
        <time>2022-06-28T10:48:00Z</time>
      </trkpt>
      <trkpt lat="41.053980000" lon="-5.927363333">
        <time>2022-06-28T10:48:01Z</time>
      </trkpt>
      <trkpt lat="41.053933333" lon="-5.927471667">
        <time>2022-06-28T10:48:02Z</time>
      </trkpt>
      <trkpt lat="41.053886667" lon="-5.927580000">
        <time>2022-06-28T10:48:03Z</time>
      </trkpt>
      <trkpt lat="41.053841667" lon="-5.927688333">
        <time>2022-06-28T10:48:04Z</time>
      </trkpt>
      <trkpt lat="41.053796667" lon="-5.927795000">
        <time>2022-06-28T10:48:05Z</time>
      </trkpt>
      <trkpt lat="41.053751667" lon="-5.927903333">
        <time>2022-06-28T10:48:06Z</time>
      </trkpt>
      <trkpt lat="41.053705000" lon="-5.928008333">
        <time>2022-06-28T10:48:07Z</time>
      </trkpt>
      <trkpt lat="41.053660000" lon="-5.928115000">
        <time>2022-06-28T10:48:08Z</time>
      </trkpt>
      <trkpt lat="41.053616667" lon="-5.928220000">
        <time>2022-06-28T10:48:09Z</time>
      </trkpt>
      <trkpt lat="41.053571667" lon="-5.928323333">
        <time>2022-06-28T10:48:10Z</time>
      </trkpt>
      <trkpt lat="41.053526667" lon="-5.928428333">
        <time>2022-06-28T10:48:11Z</time>
      </trkpt>
      <trkpt lat="41.053483333" lon="-5.928533333">
        <time>2022-06-28T10:48:12Z</time>
      </trkpt>
      <trkpt lat="41.053438333" lon="-5.928636667">
        <time>2022-06-28T10:48:13Z</time>
      </trkpt>
      <trkpt lat="41.053393333" lon="-5.928740000">
        <time>2022-06-28T10:48:14Z</time>
      </trkpt>
      <trkpt lat="41.053348333" lon="-5.928843333">
        <time>2022-06-28T10:48:15Z</time>
      </trkpt>
      <trkpt lat="41.053305000" lon="-5.928946667">
        <time>2022-06-28T10:48:16Z</time>
      </trkpt>
      <trkpt lat="41.053263333" lon="-5.929051667">
        <time>2022-06-28T10:48:17Z</time>
      </trkpt>
      <trkpt lat="41.053218333" lon="-5.929155000">
        <time>2022-06-28T10:48:18Z</time>
      </trkpt>
      <trkpt lat="41.053175000" lon="-5.929258333">
        <time>2022-06-28T10:48:19Z</time>
      </trkpt>
      <trkpt lat="41.053131667" lon="-5.929361667">
        <time>2022-06-28T10:48:20Z</time>
      </trkpt>
      <trkpt lat="41.053086667" lon="-5.929463333">
        <time>2022-06-28T10:48:21Z</time>
      </trkpt>
      <trkpt lat="41.053043333" lon="-5.929565000">
        <time>2022-06-28T10:48:22Z</time>
      </trkpt>
      <trkpt lat="41.053001667" lon="-5.929663333">
        <time>2022-06-28T10:48:23Z</time>
      </trkpt>
      <trkpt lat="41.052961667" lon="-5.929761667">
        <time>2022-06-28T10:48:24Z</time>
      </trkpt>
      <trkpt lat="41.052920000" lon="-5.929855000">
        <time>2022-06-28T10:48:25Z</time>
      </trkpt>
      <trkpt lat="41.052881667" lon="-5.929946667">
        <time>2022-06-28T10:48:26Z</time>
      </trkpt>
      <trkpt lat="41.052845000" lon="-5.930033333">
        <time>2022-06-28T10:48:27Z</time>
      </trkpt>
      <trkpt lat="41.052808333" lon="-5.930118333">
        <time>2022-06-28T10:48:28Z</time>
      </trkpt>
      <trkpt lat="41.052773333" lon="-5.930201667">
        <time>2022-06-28T10:48:29Z</time>
      </trkpt>
      <trkpt lat="41.052738333" lon="-5.930286667">
        <time>2022-06-28T10:48:30Z</time>
      </trkpt>
      <trkpt lat="41.052706667" lon="-5.930370000">
        <time>2022-06-28T10:48:31Z</time>
      </trkpt>
      <trkpt lat="41.052675000" lon="-5.930453333">
        <time>2022-06-28T10:48:32Z</time>
      </trkpt>
      <trkpt lat="41.052645000" lon="-5.930538333">
        <time>2022-06-28T10:48:33Z</time>
      </trkpt>
      <trkpt lat="41.052613333" lon="-5.930625000">
        <time>2022-06-28T10:48:34Z</time>
      </trkpt>
      <trkpt lat="41.052580000" lon="-5.930715000">
        <time>2022-06-28T10:48:35Z</time>
      </trkpt>
      <trkpt lat="41.052550000" lon="-5.930801667">
        <time>2022-06-28T10:48:36Z</time>
      </trkpt>
      <trkpt lat="41.052515000" lon="-5.930900000">
        <time>2022-06-28T10:48:37Z</time>
      </trkpt>
      <trkpt lat="41.052478333" lon="-5.931001667">
        <time>2022-06-28T10:48:38Z</time>
      </trkpt>
      <trkpt lat="41.052438333" lon="-5.931108333">
        <time>2022-06-28T10:48:39Z</time>
      </trkpt>
      <trkpt lat="41.052398333" lon="-5.931218333">
        <time>2022-06-28T10:48:40Z</time>
      </trkpt>
      <trkpt lat="41.052358333" lon="-5.931330000">
        <time>2022-06-28T10:48:41Z</time>
      </trkpt>
      <trkpt lat="41.052320000" lon="-5.931445000">
        <time>2022-06-28T10:48:42Z</time>
      </trkpt>
      <trkpt lat="41.052283333" lon="-5.931561667">
        <time>2022-06-28T10:48:43Z</time>
      </trkpt>
      <trkpt lat="41.052245000" lon="-5.931681667">
        <time>2022-06-28T10:48:44Z</time>
      </trkpt>
      <trkpt lat="41.052215000" lon="-5.931805000">
        <time>2022-06-28T10:48:45Z</time>
      </trkpt>
      <trkpt lat="41.052190000" lon="-5.931933333">
        <time>2022-06-28T10:48:46Z</time>
      </trkpt>
      <trkpt lat="41.052171667" lon="-5.932070000">
        <time>2022-06-28T10:48:47Z</time>
      </trkpt>
      <trkpt lat="41.052158333" lon="-5.932210000">
        <time>2022-06-28T10:48:48Z</time>
      </trkpt>
      <trkpt lat="41.052148333" lon="-5.932350000">
        <time>2022-06-28T10:48:49Z</time>
      </trkpt>
      <trkpt lat="41.052135000" lon="-5.932485000">
        <time>2022-06-28T10:48:50Z</time>
      </trkpt>
      <trkpt lat="41.052120000" lon="-5.932613333">
        <time>2022-06-28T10:48:51Z</time>
      </trkpt>
      <trkpt lat="41.052101667" lon="-5.932733333">
        <time>2022-06-28T10:48:52Z</time>
      </trkpt>
      <trkpt lat="41.052078333" lon="-5.932848333">
        <time>2022-06-28T10:48:53Z</time>
      </trkpt>
      <trkpt lat="41.052056667" lon="-5.932958333">
        <time>2022-06-28T10:48:54Z</time>
      </trkpt>
      <trkpt lat="41.052036667" lon="-5.933063333">
        <time>2022-06-28T10:48:55Z</time>
      </trkpt>
      <trkpt lat="41.052016667" lon="-5.933166667">
        <time>2022-06-28T10:48:56Z</time>
      </trkpt>
      <trkpt lat="41.051996667" lon="-5.933266667">
        <time>2022-06-28T10:48:57Z</time>
      </trkpt>
      <trkpt lat="41.051978333" lon="-5.933363333">
        <time>2022-06-28T10:48:58Z</time>
      </trkpt>
      <trkpt lat="41.051956667" lon="-5.933458333">
        <time>2022-06-28T10:48:59Z</time>
      </trkpt>
      <trkpt lat="41.051936667" lon="-5.933551667">
        <time>2022-06-28T10:49:00Z</time>
      </trkpt>
      <trkpt lat="41.051913333" lon="-5.933645000">
        <time>2022-06-28T10:49:01Z</time>
      </trkpt>
      <trkpt lat="41.051885000" lon="-5.933735000">
        <time>2022-06-28T10:49:02Z</time>
      </trkpt>
      <trkpt lat="41.051858333" lon="-5.933826667">
        <time>2022-06-28T10:49:03Z</time>
      </trkpt>
      <trkpt lat="41.051826667" lon="-5.933918333">
        <time>2022-06-28T10:49:04Z</time>
      </trkpt>
      <trkpt lat="41.051795000" lon="-5.934011667">
        <time>2022-06-28T10:49:05Z</time>
      </trkpt>
      <trkpt lat="41.051761667" lon="-5.934108333">
        <time>2022-06-28T10:49:06Z</time>
      </trkpt>
      <trkpt lat="41.051726667" lon="-5.934206667">
        <time>2022-06-28T10:49:07Z</time>
      </trkpt>
      <trkpt lat="41.051690000" lon="-5.934306667">
        <time>2022-06-28T10:49:08Z</time>
      </trkpt>
      <trkpt lat="41.051648333" lon="-5.934406667">
        <time>2022-06-28T10:49:09Z</time>
      </trkpt>
      <trkpt lat="41.051605000" lon="-5.934506667">
        <time>2022-06-28T10:49:10Z</time>
      </trkpt>
      <trkpt lat="41.051556667" lon="-5.934603333">
        <time>2022-06-28T10:49:11Z</time>
      </trkpt>
      <trkpt lat="41.051503333" lon="-5.934698333">
        <time>2022-06-28T10:49:12Z</time>
      </trkpt>
      <trkpt lat="41.051446667" lon="-5.934790000">
        <time>2022-06-28T10:49:13Z</time>
      </trkpt>
      <trkpt lat="41.051385000" lon="-5.934880000">
        <time>2022-06-28T10:49:14Z</time>
      </trkpt>
      <trkpt lat="41.051323333" lon="-5.934968333">
        <time>2022-06-28T10:49:15Z</time>
      </trkpt>
      <trkpt lat="41.051260000" lon="-5.935056667">
        <time>2022-06-28T10:49:16Z</time>
      </trkpt>
      <trkpt lat="41.051198333" lon="-5.935143333">
        <time>2022-06-28T10:49:17Z</time>
      </trkpt>
      <trkpt lat="41.051135000" lon="-5.935228333">
        <time>2022-06-28T10:49:18Z</time>
      </trkpt>
      <trkpt lat="41.051071667" lon="-5.935311667">
        <time>2022-06-28T10:49:19Z</time>
      </trkpt>
      <trkpt lat="41.051010000" lon="-5.935390000">
        <time>2022-06-28T10:49:20Z</time>
      </trkpt>
      <trkpt lat="41.050950000" lon="-5.935468333">
        <time>2022-06-28T10:49:21Z</time>
      </trkpt>
      <trkpt lat="41.050891667" lon="-5.935543333">
        <time>2022-06-28T10:49:22Z</time>
      </trkpt>
      <trkpt lat="41.050838333" lon="-5.935616667">
        <time>2022-06-28T10:49:23Z</time>
      </trkpt>
      <trkpt lat="41.050785000" lon="-5.935685000">
        <time>2022-06-28T10:49:24Z</time>
      </trkpt>
      <trkpt lat="41.050735000" lon="-5.935753333">
        <time>2022-06-28T10:49:25Z</time>
      </trkpt>
      <trkpt lat="41.050685000" lon="-5.935818333">
        <time>2022-06-28T10:49:26Z</time>
      </trkpt>
      <trkpt lat="41.050638333" lon="-5.935880000">
        <time>2022-06-28T10:49:27Z</time>
      </trkpt>
      <trkpt lat="41.050591667" lon="-5.935940000">
        <time>2022-06-28T10:49:28Z</time>
      </trkpt>
      <trkpt lat="41.050548333" lon="-5.935998333">
        <time>2022-06-28T10:49:29Z</time>
      </trkpt>
      <trkpt lat="41.050503333" lon="-5.936058333">
        <time>2022-06-28T10:49:30Z</time>
      </trkpt>
      <trkpt lat="41.050458333" lon="-5.936118333">
        <time>2022-06-28T10:49:31Z</time>
      </trkpt>
      <trkpt lat="41.050413333" lon="-5.936178333">
        <time>2022-06-28T10:49:32Z</time>
      </trkpt>
      <trkpt lat="41.050366667" lon="-5.936238333">
        <time>2022-06-28T10:49:33Z</time>
      </trkpt>
      <trkpt lat="41.050321667" lon="-5.936298333">
        <time>2022-06-28T10:49:34Z</time>
      </trkpt>
      <trkpt lat="41.050276667" lon="-5.936358333">
        <time>2022-06-28T10:49:35Z</time>
      </trkpt>
      <trkpt lat="41.050233333" lon="-5.936416667">
        <time>2022-06-28T10:49:36Z</time>
      </trkpt>
      <trkpt lat="41.050188333" lon="-5.936476667">
        <time>2022-06-28T10:49:37Z</time>
      </trkpt>
      <trkpt lat="41.050143333" lon="-5.936535000">
        <time>2022-06-28T10:49:38Z</time>
      </trkpt>
      <trkpt lat="41.050101667" lon="-5.936593333">
        <time>2022-06-28T10:49:39Z</time>
      </trkpt>
      <trkpt lat="41.050055000" lon="-5.936651667">
        <time>2022-06-28T10:49:40Z</time>
      </trkpt>
      <trkpt lat="41.050010000" lon="-5.936708333">
        <time>2022-06-28T10:49:41Z</time>
      </trkpt>
      <trkpt lat="41.049965000" lon="-5.936765000">
        <time>2022-06-28T10:49:42Z</time>
      </trkpt>
      <trkpt lat="41.049923333" lon="-5.936821667">
        <time>2022-06-28T10:49:43Z</time>
      </trkpt>
      <trkpt lat="41.049881667" lon="-5.936880000">
        <time>2022-06-28T10:49:44Z</time>
      </trkpt>
      <trkpt lat="41.049840000" lon="-5.936935000">
        <time>2022-06-28T10:49:45Z</time>
      </trkpt>
      <trkpt lat="41.049800000" lon="-5.936991667">
        <time>2022-06-28T10:49:46Z</time>
      </trkpt>
      <trkpt lat="41.049758333" lon="-5.937046667">
        <time>2022-06-28T10:49:47Z</time>
      </trkpt>
      <trkpt lat="41.049716667" lon="-5.937101667">
        <time>2022-06-28T10:49:48Z</time>
      </trkpt>
      <trkpt lat="41.049676667" lon="-5.937156667">
        <time>2022-06-28T10:49:49Z</time>
      </trkpt>
      <trkpt lat="41.049635000" lon="-5.937210000">
        <time>2022-06-28T10:49:50Z</time>
      </trkpt>
      <trkpt lat="41.049593333" lon="-5.937263333">
        <time>2022-06-28T10:49:51Z</time>
      </trkpt>
      <trkpt lat="41.049553333" lon="-5.937318333">
        <time>2022-06-28T10:49:52Z</time>
      </trkpt>
      <trkpt lat="41.049511667" lon="-5.937370000">
        <time>2022-06-28T10:49:53Z</time>
      </trkpt>
      <trkpt lat="41.049470000" lon="-5.937421667">
        <time>2022-06-28T10:49:54Z</time>
      </trkpt>
      <trkpt lat="41.049430000" lon="-5.937468333">
        <time>2022-06-28T10:49:55Z</time>
      </trkpt>
      <trkpt lat="41.049391667" lon="-5.937518333">
        <time>2022-06-28T10:49:56Z</time>
      </trkpt>
      <trkpt lat="41.049353333" lon="-5.937570000">
        <time>2022-06-28T10:49:57Z</time>
      </trkpt>
      <trkpt lat="41.049313333" lon="-5.937626667">
        <time>2022-06-28T10:49:58Z</time>
      </trkpt>
      <trkpt lat="41.049275000" lon="-5.937678333">
        <time>2022-06-28T10:49:59Z</time>
      </trkpt>
      <trkpt lat="41.049235000" lon="-5.937730000">
        <time>2022-06-28T10:50:00Z</time>
      </trkpt>
      <trkpt lat="41.049196667" lon="-5.937780000">
        <time>2022-06-28T10:50:01Z</time>
      </trkpt>
      <trkpt lat="41.049158333" lon="-5.937831667">
        <time>2022-06-28T10:50:02Z</time>
      </trkpt>
      <trkpt lat="41.049123333" lon="-5.937880000">
        <time>2022-06-28T10:50:03Z</time>
      </trkpt>
      <trkpt lat="41.049086667" lon="-5.937930000">
        <time>2022-06-28T10:50:04Z</time>
      </trkpt>
      <trkpt lat="41.049048333" lon="-5.937980000">
        <time>2022-06-28T10:50:05Z</time>
      </trkpt>
      <trkpt lat="41.049011667" lon="-5.938028333">
        <time>2022-06-28T10:50:06Z</time>
      </trkpt>
      <trkpt lat="41.048973333" lon="-5.938078333">
        <time>2022-06-28T10:50:07Z</time>
      </trkpt>
      <trkpt lat="41.048936667" lon="-5.938130000">
        <time>2022-06-28T10:50:08Z</time>
      </trkpt>
      <trkpt lat="41.048896667" lon="-5.938180000">
        <time>2022-06-28T10:50:09Z</time>
      </trkpt>
      <trkpt lat="41.048858333" lon="-5.938230000">
        <time>2022-06-28T10:50:10Z</time>
      </trkpt>
      <trkpt lat="41.048821667" lon="-5.938280000">
        <time>2022-06-28T10:50:11Z</time>
      </trkpt>
      <trkpt lat="41.048785000" lon="-5.938328333">
        <time>2022-06-28T10:50:12Z</time>
      </trkpt>
      <trkpt lat="41.048748333" lon="-5.938375000">
        <time>2022-06-28T10:50:13Z</time>
      </trkpt>
      <trkpt lat="41.048713333" lon="-5.938420000">
        <time>2022-06-28T10:50:14Z</time>
      </trkpt>
      <trkpt lat="41.048681667" lon="-5.938465000">
        <time>2022-06-28T10:50:15Z</time>
      </trkpt>
      <trkpt lat="41.048653333" lon="-5.938508333">
        <time>2022-06-28T10:50:16Z</time>
      </trkpt>
      <trkpt lat="41.048623333" lon="-5.938548333">
        <time>2022-06-28T10:50:17Z</time>
      </trkpt>
      <trkpt lat="41.048595000" lon="-5.938586667">
        <time>2022-06-28T10:50:18Z</time>
      </trkpt>
      <trkpt lat="41.048568333" lon="-5.938623333">
        <time>2022-06-28T10:50:19Z</time>
      </trkpt>
      <trkpt lat="41.048541667" lon="-5.938660000">
        <time>2022-06-28T10:50:20Z</time>
      </trkpt>
      <trkpt lat="41.048511667" lon="-5.938693333">
        <time>2022-06-28T10:50:21Z</time>
      </trkpt>
      <trkpt lat="41.048485000" lon="-5.938730000">
        <time>2022-06-28T10:50:22Z</time>
      </trkpt>
      <trkpt lat="41.048458333" lon="-5.938768333">
        <time>2022-06-28T10:50:23Z</time>
      </trkpt>
      <trkpt lat="41.048431667" lon="-5.938803333">
        <time>2022-06-28T10:50:24Z</time>
      </trkpt>
      <trkpt lat="41.048405000" lon="-5.938840000">
        <time>2022-06-28T10:50:25Z</time>
      </trkpt>
      <trkpt lat="41.048376667" lon="-5.938875000">
        <time>2022-06-28T10:50:26Z</time>
      </trkpt>
      <trkpt lat="41.048345000" lon="-5.938910000">
        <time>2022-06-28T10:50:27Z</time>
      </trkpt>
      <trkpt lat="41.048313333" lon="-5.938948333">
        <time>2022-06-28T10:50:28Z</time>
      </trkpt>
      <trkpt lat="41.048283333" lon="-5.938990000">
        <time>2022-06-28T10:50:29Z</time>
      </trkpt>
      <trkpt lat="41.048253333" lon="-5.939031667">
        <time>2022-06-28T10:50:30Z</time>
      </trkpt>
      <trkpt lat="41.048220000" lon="-5.939071667">
        <time>2022-06-28T10:50:31Z</time>
      </trkpt>
      <trkpt lat="41.048188333" lon="-5.939113333">
        <time>2022-06-28T10:50:32Z</time>
      </trkpt>
      <trkpt lat="41.048156667" lon="-5.939158333">
        <time>2022-06-28T10:50:33Z</time>
      </trkpt>
      <trkpt lat="41.048123333" lon="-5.939203333">
        <time>2022-06-28T10:50:34Z</time>
      </trkpt>
      <trkpt lat="41.048090000" lon="-5.939246667">
        <time>2022-06-28T10:50:35Z</time>
      </trkpt>
      <trkpt lat="41.048056667" lon="-5.939290000">
        <time>2022-06-28T10:50:36Z</time>
      </trkpt>
      <trkpt lat="41.048023333" lon="-5.939331667">
        <time>2022-06-28T10:50:37Z</time>
      </trkpt>
      <trkpt lat="41.047990000" lon="-5.939371667">
        <time>2022-06-28T10:50:38Z</time>
      </trkpt>
      <trkpt lat="41.047958333" lon="-5.939415000">
        <time>2022-06-28T10:50:39Z</time>
      </trkpt>
      <trkpt lat="41.047925000" lon="-5.939455000">
        <time>2022-06-28T10:50:40Z</time>
      </trkpt>
      <trkpt lat="41.047891667" lon="-5.939495000">
        <time>2022-06-28T10:50:41Z</time>
      </trkpt>
      <trkpt lat="41.047856667" lon="-5.939530000">
        <time>2022-06-28T10:50:42Z</time>
      </trkpt>
      <trkpt lat="41.047820000" lon="-5.939560000">
        <time>2022-06-28T10:50:43Z</time>
      </trkpt>
      <trkpt lat="41.047783333" lon="-5.939588333">
        <time>2022-06-28T10:50:44Z</time>
      </trkpt>
      <trkpt lat="41.047741667" lon="-5.939610000">
        <time>2022-06-28T10:50:45Z</time>
      </trkpt>
      <trkpt lat="41.047700000" lon="-5.939631667">
        <time>2022-06-28T10:50:46Z</time>
      </trkpt>
      <trkpt lat="41.047658333" lon="-5.939653333">
        <time>2022-06-28T10:50:47Z</time>
      </trkpt>
      <trkpt lat="41.047616667" lon="-5.939671667">
        <time>2022-06-28T10:50:48Z</time>
      </trkpt>
      <trkpt lat="41.047578333" lon="-5.939686667">
        <time>2022-06-28T10:50:49Z</time>
      </trkpt>
      <trkpt lat="41.047533333" lon="-5.939698333">
        <time>2022-06-28T10:50:50Z</time>
      </trkpt>
      <trkpt lat="41.047486667" lon="-5.939706667">
        <time>2022-06-28T10:50:51Z</time>
      </trkpt>
      <trkpt lat="41.047440000" lon="-5.939716667">
        <time>2022-06-28T10:50:52Z</time>
      </trkpt>
      <trkpt lat="41.047395000" lon="-5.939726667">
        <time>2022-06-28T10:50:53Z</time>
      </trkpt>
      <trkpt lat="41.047348333" lon="-5.939735000">
        <time>2022-06-28T10:50:54Z</time>
      </trkpt>
      <trkpt lat="41.047303333" lon="-5.939743333">
        <time>2022-06-28T10:50:55Z</time>
      </trkpt>
      <trkpt lat="41.047258333" lon="-5.939751667">
        <time>2022-06-28T10:50:56Z</time>
      </trkpt>
      <trkpt lat="41.047211667" lon="-5.939760000">
        <time>2022-06-28T10:50:57Z</time>
      </trkpt>
      <trkpt lat="41.047166667" lon="-5.939770000">
        <time>2022-06-28T10:50:58Z</time>
      </trkpt>
      <trkpt lat="41.047121667" lon="-5.939780000">
        <time>2022-06-28T10:50:59Z</time>
      </trkpt>
      <trkpt lat="41.047076667" lon="-5.939790000">
        <time>2022-06-28T10:51:00Z</time>
      </trkpt>
      <trkpt lat="41.047030000" lon="-5.939796667">
        <time>2022-06-28T10:51:01Z</time>
      </trkpt>
      <trkpt lat="41.046985000" lon="-5.939805000">
        <time>2022-06-28T10:51:02Z</time>
      </trkpt>
      <trkpt lat="41.046938333" lon="-5.939811667">
        <time>2022-06-28T10:51:03Z</time>
      </trkpt>
      <trkpt lat="41.046891667" lon="-5.939820000">
        <time>2022-06-28T10:51:04Z</time>
      </trkpt>
      <trkpt lat="41.046843333" lon="-5.939828333">
        <time>2022-06-28T10:51:05Z</time>
      </trkpt>
      <trkpt lat="41.046795000" lon="-5.939835000">
        <time>2022-06-28T10:51:06Z</time>
      </trkpt>
      <trkpt lat="41.046745000" lon="-5.939843333">
        <time>2022-06-28T10:51:07Z</time>
      </trkpt>
      <trkpt lat="41.046695000" lon="-5.939848333">
        <time>2022-06-28T10:51:08Z</time>
      </trkpt>
      <trkpt lat="41.046645000" lon="-5.939851667">
        <time>2022-06-28T10:51:09Z</time>
      </trkpt>
      <trkpt lat="41.046593333" lon="-5.939853333">
        <time>2022-06-28T10:51:10Z</time>
      </trkpt>
      <trkpt lat="41.046540000" lon="-5.939853333">
        <time>2022-06-28T10:51:11Z</time>
      </trkpt>
      <trkpt lat="41.046488333" lon="-5.939850000">
        <time>2022-06-28T10:51:12Z</time>
      </trkpt>
      <trkpt lat="41.046435000" lon="-5.939845000">
        <time>2022-06-28T10:51:13Z</time>
      </trkpt>
      <trkpt lat="41.046381667" lon="-5.939840000">
        <time>2022-06-28T10:51:14Z</time>
      </trkpt>
      <trkpt lat="41.046323333" lon="-5.939833333">
        <time>2022-06-28T10:51:15Z</time>
      </trkpt>
      <trkpt lat="41.046263333" lon="-5.939830000">
        <time>2022-06-28T10:51:16Z</time>
      </trkpt>
      <trkpt lat="41.046201667" lon="-5.939823333">
        <time>2022-06-28T10:51:17Z</time>
      </trkpt>
      <trkpt lat="41.046136667" lon="-5.939816667">
        <time>2022-06-28T10:51:18Z</time>
      </trkpt>
      <trkpt lat="41.046071667" lon="-5.939811667">
        <time>2022-06-28T10:51:19Z</time>
      </trkpt>
      <trkpt lat="41.046005000" lon="-5.939803333">
        <time>2022-06-28T10:51:20Z</time>
      </trkpt>
      <trkpt lat="41.045938333" lon="-5.939795000">
        <time>2022-06-28T10:51:21Z</time>
      </trkpt>
      <trkpt lat="41.045871667" lon="-5.939786667">
        <time>2022-06-28T10:51:22Z</time>
      </trkpt>
      <trkpt lat="41.045806667" lon="-5.939776667">
        <time>2022-06-28T10:51:23Z</time>
      </trkpt>
      <trkpt lat="41.045740000" lon="-5.939768333">
        <time>2022-06-28T10:51:24Z</time>
      </trkpt>
      <trkpt lat="41.045675000" lon="-5.939756667">
        <time>2022-06-28T10:51:25Z</time>
      </trkpt>
      <trkpt lat="41.045611667" lon="-5.939735000">
        <time>2022-06-28T10:51:26Z</time>
      </trkpt>
      <trkpt lat="41.045550000" lon="-5.939705000">
        <time>2022-06-28T10:51:27Z</time>
      </trkpt>
      <trkpt lat="41.045488333" lon="-5.939666667">
        <time>2022-06-28T10:51:28Z</time>
      </trkpt>
      <trkpt lat="41.045428333" lon="-5.939620000">
        <time>2022-06-28T10:51:29Z</time>
      </trkpt>
      <trkpt lat="41.045366667" lon="-5.939573333">
        <time>2022-06-28T10:51:30Z</time>
      </trkpt>
      <trkpt lat="41.045303333" lon="-5.939521667">
        <time>2022-06-28T10:51:31Z</time>
      </trkpt>
      <trkpt lat="41.045240000" lon="-5.939466667">
        <time>2022-06-28T10:51:32Z</time>
      </trkpt>
      <trkpt lat="41.045173333" lon="-5.939410000">
        <time>2022-06-28T10:51:33Z</time>
      </trkpt>
      <trkpt lat="41.045108333" lon="-5.939350000">
        <time>2022-06-28T10:51:34Z</time>
      </trkpt>
      <trkpt lat="41.045038333" lon="-5.939290000">
        <time>2022-06-28T10:51:35Z</time>
      </trkpt>
      <trkpt lat="41.044965000" lon="-5.939235000">
        <time>2022-06-28T10:51:36Z</time>
      </trkpt>
      <trkpt lat="41.044888333" lon="-5.939183333">
        <time>2022-06-28T10:51:37Z</time>
      </trkpt>
      <trkpt lat="41.044805000" lon="-5.939145000">
        <time>2022-06-28T10:51:38Z</time>
      </trkpt>
      <trkpt lat="41.044720000" lon="-5.939121667">
        <time>2022-06-28T10:51:39Z</time>
      </trkpt>
      <trkpt lat="41.044633333" lon="-5.939111667">
        <time>2022-06-28T10:51:40Z</time>
      </trkpt>
      <trkpt lat="41.044548333" lon="-5.939111667">
        <time>2022-06-28T10:51:41Z</time>
      </trkpt>
      <trkpt lat="41.044465000" lon="-5.939120000">
        <time>2022-06-28T10:51:42Z</time>
      </trkpt>
      <trkpt lat="41.044385000" lon="-5.939133333">
        <time>2022-06-28T10:51:43Z</time>
      </trkpt>
      <trkpt lat="41.044308333" lon="-5.939158333">
        <time>2022-06-28T10:51:44Z</time>
      </trkpt>
      <trkpt lat="41.044236667" lon="-5.939193333">
        <time>2022-06-28T10:51:45Z</time>
      </trkpt>
      <trkpt lat="41.044170000" lon="-5.939238333">
        <time>2022-06-28T10:51:46Z</time>
      </trkpt>
      <trkpt lat="41.044108333" lon="-5.939285000">
        <time>2022-06-28T10:51:47Z</time>
      </trkpt>
      <trkpt lat="41.044050000" lon="-5.939331667">
        <time>2022-06-28T10:51:48Z</time>
      </trkpt>
      <trkpt lat="41.043995000" lon="-5.939378333">
        <time>2022-06-28T10:51:49Z</time>
      </trkpt>
      <trkpt lat="41.043941667" lon="-5.939426667">
        <time>2022-06-28T10:51:50Z</time>
      </trkpt>
      <trkpt lat="41.043888333" lon="-5.939473333">
        <time>2022-06-28T10:51:51Z</time>
      </trkpt>
      <trkpt lat="41.043835000" lon="-5.939520000">
        <time>2022-06-28T10:51:52Z</time>
      </trkpt>
      <trkpt lat="41.043781667" lon="-5.939565000">
        <time>2022-06-28T10:51:53Z</time>
      </trkpt>
      <trkpt lat="41.043728333" lon="-5.939606667">
        <time>2022-06-28T10:51:54Z</time>
      </trkpt>
      <trkpt lat="41.043675000" lon="-5.939645000">
        <time>2022-06-28T10:51:55Z</time>
      </trkpt>
      <trkpt lat="41.043618333" lon="-5.939680000">
        <time>2022-06-28T10:51:56Z</time>
      </trkpt>
      <trkpt lat="41.043563333" lon="-5.939715000">
        <time>2022-06-28T10:51:57Z</time>
      </trkpt>
      <trkpt lat="41.043505000" lon="-5.939746667">
        <time>2022-06-28T10:51:58Z</time>
      </trkpt>
      <trkpt lat="41.043448333" lon="-5.939780000">
        <time>2022-06-28T10:51:59Z</time>
      </trkpt>
      <trkpt lat="41.043391667" lon="-5.939811667">
        <time>2022-06-28T10:52:00Z</time>
      </trkpt>
      <trkpt lat="41.043333333" lon="-5.939841667">
        <time>2022-06-28T10:52:01Z</time>
      </trkpt>
      <trkpt lat="41.043275000" lon="-5.939873333">
        <time>2022-06-28T10:52:02Z</time>
      </trkpt>
      <trkpt lat="41.043218333" lon="-5.939905000">
        <time>2022-06-28T10:52:03Z</time>
      </trkpt>
      <trkpt lat="41.043160000" lon="-5.939936667">
        <time>2022-06-28T10:52:04Z</time>
      </trkpt>
      <trkpt lat="41.043103333" lon="-5.939970000">
        <time>2022-06-28T10:52:05Z</time>
      </trkpt>
      <trkpt lat="41.043046667" lon="-5.940000000">
        <time>2022-06-28T10:52:06Z</time>
      </trkpt>
      <trkpt lat="41.042988333" lon="-5.940031667">
        <time>2022-06-28T10:52:07Z</time>
      </trkpt>
      <trkpt lat="41.042933333" lon="-5.940063333">
        <time>2022-06-28T10:52:08Z</time>
      </trkpt>
      <trkpt lat="41.042876667" lon="-5.940095000">
        <time>2022-06-28T10:52:09Z</time>
      </trkpt>
      <trkpt lat="41.042820000" lon="-5.940123333">
        <time>2022-06-28T10:52:10Z</time>
      </trkpt>
      <trkpt lat="41.042765000" lon="-5.940150000">
        <time>2022-06-28T10:52:11Z</time>
      </trkpt>
      <trkpt lat="41.042708333" lon="-5.940176667">
        <time>2022-06-28T10:52:12Z</time>
      </trkpt>
      <trkpt lat="41.042650000" lon="-5.940196667">
        <time>2022-06-28T10:52:13Z</time>
      </trkpt>
      <trkpt lat="41.042593333" lon="-5.940213333">
        <time>2022-06-28T10:52:14Z</time>
      </trkpt>
      <trkpt lat="41.042535000" lon="-5.940225000">
        <time>2022-06-28T10:52:15Z</time>
      </trkpt>
      <trkpt lat="41.042473333" lon="-5.940231667">
        <time>2022-06-28T10:52:16Z</time>
      </trkpt>
      <trkpt lat="41.042411667" lon="-5.940230000">
        <time>2022-06-28T10:52:17Z</time>
      </trkpt>
      <trkpt lat="41.042348333" lon="-5.940225000">
        <time>2022-06-28T10:52:18Z</time>
      </trkpt>
      <trkpt lat="41.042285000" lon="-5.940215000">
        <time>2022-06-28T10:52:19Z</time>
      </trkpt>
      <trkpt lat="41.042218333" lon="-5.940198333">
        <time>2022-06-28T10:52:20Z</time>
      </trkpt>
      <trkpt lat="41.042151667" lon="-5.940181667">
        <time>2022-06-28T10:52:21Z</time>
      </trkpt>
      <trkpt lat="41.042083333" lon="-5.940160000">
        <time>2022-06-28T10:52:22Z</time>
      </trkpt>
      <trkpt lat="41.042013333" lon="-5.940141667">
        <time>2022-06-28T10:52:23Z</time>
      </trkpt>
      <trkpt lat="41.041945000" lon="-5.940125000">
        <time>2022-06-28T10:52:24Z</time>
      </trkpt>
      <trkpt lat="41.041878333" lon="-5.940113333">
        <time>2022-06-28T10:52:25Z</time>
      </trkpt>
      <trkpt lat="41.041810000" lon="-5.940103333">
        <time>2022-06-28T10:52:26Z</time>
      </trkpt>
      <trkpt lat="41.041740000" lon="-5.940098333">
        <time>2022-06-28T10:52:27Z</time>
      </trkpt>
      <trkpt lat="41.041671667" lon="-5.940096667">
        <time>2022-06-28T10:52:28Z</time>
      </trkpt>
      <trkpt lat="41.041603333" lon="-5.940098333">
        <time>2022-06-28T10:52:29Z</time>
      </trkpt>
      <trkpt lat="41.041536667" lon="-5.940101667">
        <time>2022-06-28T10:52:30Z</time>
      </trkpt>
      <trkpt lat="41.041471667" lon="-5.940110000">
        <time>2022-06-28T10:52:31Z</time>
      </trkpt>
      <trkpt lat="41.041406667" lon="-5.940125000">
        <time>2022-06-28T10:52:32Z</time>
      </trkpt>
      <trkpt lat="41.041343333" lon="-5.940148333">
        <time>2022-06-28T10:52:33Z</time>
      </trkpt>
      <trkpt lat="41.041281667" lon="-5.940176667">
        <time>2022-06-28T10:52:34Z</time>
      </trkpt>
      <trkpt lat="41.041221667" lon="-5.940210000">
        <time>2022-06-28T10:52:35Z</time>
      </trkpt>
      <trkpt lat="41.041161667" lon="-5.940245000">
        <time>2022-06-28T10:52:36Z</time>
      </trkpt>
      <trkpt lat="41.041105000" lon="-5.940286667">
        <time>2022-06-28T10:52:37Z</time>
      </trkpt>
      <trkpt lat="41.041046667" lon="-5.940326667">
        <time>2022-06-28T10:52:38Z</time>
      </trkpt>
      <trkpt lat="41.040988333" lon="-5.940370000">
        <time>2022-06-28T10:52:39Z</time>
      </trkpt>
      <trkpt lat="41.040930000" lon="-5.940413333">
        <time>2022-06-28T10:52:40Z</time>
      </trkpt>
      <trkpt lat="41.040871667" lon="-5.940456667">
        <time>2022-06-28T10:52:41Z</time>
      </trkpt>
      <trkpt lat="41.040811667" lon="-5.940501667">
        <time>2022-06-28T10:52:42Z</time>
      </trkpt>
      <trkpt lat="41.040753333" lon="-5.940546667">
        <time>2022-06-28T10:52:43Z</time>
      </trkpt>
      <trkpt lat="41.040695000" lon="-5.940591667">
        <time>2022-06-28T10:52:44Z</time>
      </trkpt>
      <trkpt lat="41.040636667" lon="-5.940636667">
        <time>2022-06-28T10:52:45Z</time>
      </trkpt>
      <trkpt lat="41.040576667" lon="-5.940681667">
        <time>2022-06-28T10:52:46Z</time>
      </trkpt>
      <trkpt lat="41.040516667" lon="-5.940730000">
        <time>2022-06-28T10:52:47Z</time>
      </trkpt>
      <trkpt lat="41.040455000" lon="-5.940776667">
        <time>2022-06-28T10:52:48Z</time>
      </trkpt>
      <trkpt lat="41.040395000" lon="-5.940823333">
        <time>2022-06-28T10:52:49Z</time>
      </trkpt>
      <trkpt lat="41.040333333" lon="-5.940870000">
        <time>2022-06-28T10:52:50Z</time>
      </trkpt>
      <trkpt lat="41.040273333" lon="-5.940916667">
        <time>2022-06-28T10:52:51Z</time>
      </trkpt>
      <trkpt lat="41.040213333" lon="-5.940963333">
        <time>2022-06-28T10:52:52Z</time>
      </trkpt>
      <trkpt lat="41.040153333" lon="-5.941008333">
        <time>2022-06-28T10:52:53Z</time>
      </trkpt>
      <trkpt lat="41.040095000" lon="-5.941053333">
        <time>2022-06-28T10:52:54Z</time>
      </trkpt>
      <trkpt lat="41.040035000" lon="-5.941098333">
        <time>2022-06-28T10:52:55Z</time>
      </trkpt>
      <trkpt lat="41.039978333" lon="-5.941143333">
        <time>2022-06-28T10:52:56Z</time>
      </trkpt>
      <trkpt lat="41.039918333" lon="-5.941188333">
        <time>2022-06-28T10:52:57Z</time>
      </trkpt>
      <trkpt lat="41.039858333" lon="-5.941235000">
        <time>2022-06-28T10:52:58Z</time>
      </trkpt>
      <trkpt lat="41.039796667" lon="-5.941280000">
        <time>2022-06-28T10:52:59Z</time>
      </trkpt>
      <trkpt lat="41.039736667" lon="-5.941326667">
        <time>2022-06-28T10:53:00Z</time>
      </trkpt>
      <trkpt lat="41.039675000" lon="-5.941373333">
        <time>2022-06-28T10:53:01Z</time>
      </trkpt>
      <trkpt lat="41.039615000" lon="-5.941420000">
        <time>2022-06-28T10:53:02Z</time>
      </trkpt>
      <trkpt lat="41.039553333" lon="-5.941465000">
        <time>2022-06-28T10:53:03Z</time>
      </trkpt>
      <trkpt lat="41.039493333" lon="-5.941511667">
        <time>2022-06-28T10:53:04Z</time>
      </trkpt>
      <trkpt lat="41.039431667" lon="-5.941556667">
        <time>2022-06-28T10:53:05Z</time>
      </trkpt>
      <trkpt lat="41.039371667" lon="-5.941603333">
        <time>2022-06-28T10:53:06Z</time>
      </trkpt>
      <trkpt lat="41.039310000" lon="-5.941648333">
        <time>2022-06-28T10:53:07Z</time>
      </trkpt>
      <trkpt lat="41.039250000" lon="-5.941693333">
        <time>2022-06-28T10:53:08Z</time>
      </trkpt>
      <trkpt lat="41.039190000" lon="-5.941738333">
        <time>2022-06-28T10:53:09Z</time>
      </trkpt>
      <trkpt lat="41.039131667" lon="-5.941781667">
        <time>2022-06-28T10:53:10Z</time>
      </trkpt>
      <trkpt lat="41.039075000" lon="-5.941826667">
        <time>2022-06-28T10:53:11Z</time>
      </trkpt>
      <trkpt lat="41.039020000" lon="-5.941871667">
        <time>2022-06-28T10:53:12Z</time>
      </trkpt>
      <trkpt lat="41.038961667" lon="-5.941913333">
        <time>2022-06-28T10:53:13Z</time>
      </trkpt>
      <trkpt lat="41.038901667" lon="-5.941958333">
        <time>2022-06-28T10:53:14Z</time>
      </trkpt>
      <trkpt lat="41.038841667" lon="-5.942001667">
        <time>2022-06-28T10:53:15Z</time>
      </trkpt>
      <trkpt lat="41.038780000" lon="-5.942040000">
        <time>2022-06-28T10:53:16Z</time>
      </trkpt>
      <trkpt lat="41.038716667" lon="-5.942071667">
        <time>2022-06-28T10:53:17Z</time>
      </trkpt>
      <trkpt lat="41.038651667" lon="-5.942093333">
        <time>2022-06-28T10:53:18Z</time>
      </trkpt>
      <trkpt lat="41.038586667" lon="-5.942108333">
        <time>2022-06-28T10:53:19Z</time>
      </trkpt>
      <trkpt lat="41.038520000" lon="-5.942118333">
        <time>2022-06-28T10:53:20Z</time>
      </trkpt>
      <trkpt lat="41.038455000" lon="-5.942125000">
        <time>2022-06-28T10:53:21Z</time>
      </trkpt>
      <trkpt lat="41.038390000" lon="-5.942126667">
        <time>2022-06-28T10:53:22Z</time>
      </trkpt>
      <trkpt lat="41.038326667" lon="-5.942120000">
        <time>2022-06-28T10:53:23Z</time>
      </trkpt>
      <trkpt lat="41.038265000" lon="-5.942103333">
        <time>2022-06-28T10:53:24Z</time>
      </trkpt>
      <trkpt lat="41.038203333" lon="-5.942080000">
        <time>2022-06-28T10:53:25Z</time>
      </trkpt>
      <trkpt lat="41.038143333" lon="-5.942053333">
        <time>2022-06-28T10:53:26Z</time>
      </trkpt>
      <trkpt lat="41.038083333" lon="-5.942021667">
        <time>2022-06-28T10:53:27Z</time>
      </trkpt>
      <trkpt lat="41.038025000" lon="-5.941991667">
        <time>2022-06-28T10:53:28Z</time>
      </trkpt>
      <trkpt lat="41.037966667" lon="-5.941961667">
        <time>2022-06-28T10:53:29Z</time>
      </trkpt>
      <trkpt lat="41.037908333" lon="-5.941931667">
        <time>2022-06-28T10:53:30Z</time>
      </trkpt>
      <trkpt lat="41.037853333" lon="-5.941901667">
        <time>2022-06-28T10:53:31Z</time>
      </trkpt>
      <trkpt lat="41.037800000" lon="-5.941871667">
        <time>2022-06-28T10:53:32Z</time>
      </trkpt>
      <trkpt lat="41.037746667" lon="-5.941848333">
        <time>2022-06-28T10:53:33Z</time>
      </trkpt>
      <trkpt lat="41.037693333" lon="-5.941840000">
        <time>2022-06-28T10:53:34Z</time>
      </trkpt>
      <trkpt lat="41.037645000" lon="-5.941853333">
        <time>2022-06-28T10:53:35Z</time>
      </trkpt>
      <trkpt lat="41.037596667" lon="-5.941876667">
        <time>2022-06-28T10:53:36Z</time>
      </trkpt>
      <trkpt lat="41.037546667" lon="-5.941893333">
        <time>2022-06-28T10:53:37Z</time>
      </trkpt>
      <trkpt lat="41.037493333" lon="-5.941898333">
        <time>2022-06-28T10:53:38Z</time>
      </trkpt>
      <trkpt lat="41.037436667" lon="-5.941896667">
        <time>2022-06-28T10:53:39Z</time>
      </trkpt>
      <trkpt lat="41.037381667" lon="-5.941890000">
        <time>2022-06-28T10:53:40Z</time>
      </trkpt>
      <trkpt lat="41.037325000" lon="-5.941880000">
        <time>2022-06-28T10:53:41Z</time>
      </trkpt>
      <trkpt lat="41.037268333" lon="-5.941866667">
        <time>2022-06-28T10:53:42Z</time>
      </trkpt>
      <trkpt lat="41.037211667" lon="-5.941851667">
        <time>2022-06-28T10:53:43Z</time>
      </trkpt>
      <trkpt lat="41.037156667" lon="-5.941838333">
        <time>2022-06-28T10:53:44Z</time>
      </trkpt>
      <trkpt lat="41.037103333" lon="-5.941823333">
        <time>2022-06-28T10:53:45Z</time>
      </trkpt>
      <trkpt lat="41.037048333" lon="-5.941810000">
        <time>2022-06-28T10:53:46Z</time>
      </trkpt>
      <trkpt lat="41.036993333" lon="-5.941798333">
        <time>2022-06-28T10:53:47Z</time>
      </trkpt>
      <trkpt lat="41.036940000" lon="-5.941788333">
        <time>2022-06-28T10:53:48Z</time>
      </trkpt>
      <trkpt lat="41.036885000" lon="-5.941776667">
        <time>2022-06-28T10:53:49Z</time>
      </trkpt>
      <trkpt lat="41.036830000" lon="-5.941770000">
        <time>2022-06-28T10:53:50Z</time>
      </trkpt>
      <trkpt lat="41.036775000" lon="-5.941775000">
        <time>2022-06-28T10:53:51Z</time>
      </trkpt>
      <trkpt lat="41.036721667" lon="-5.941786667">
        <time>2022-06-28T10:53:52Z</time>
      </trkpt>
      <trkpt lat="41.036671667" lon="-5.941793333">
        <time>2022-06-28T10:53:53Z</time>
      </trkpt>
      <trkpt lat="41.036621667" lon="-5.941793333">
        <time>2022-06-28T10:53:54Z</time>
      </trkpt>
      <trkpt lat="41.036573333" lon="-5.941780000">
        <time>2022-06-28T10:53:55Z</time>
      </trkpt>
      <trkpt lat="41.036525000" lon="-5.941755000">
        <time>2022-06-28T10:53:56Z</time>
      </trkpt>
      <trkpt lat="41.036476667" lon="-5.941728333">
        <time>2022-06-28T10:53:57Z</time>
      </trkpt>
      <trkpt lat="41.036425000" lon="-5.941705000">
        <time>2022-06-28T10:53:58Z</time>
      </trkpt>
      <trkpt lat="41.036371667" lon="-5.941683333">
        <time>2022-06-28T10:53:59Z</time>
      </trkpt>
      <trkpt lat="41.036316667" lon="-5.941668333">
        <time>2022-06-28T10:54:00Z</time>
      </trkpt>
      <trkpt lat="41.036260000" lon="-5.941656667">
        <time>2022-06-28T10:54:01Z</time>
      </trkpt>
      <trkpt lat="41.036200000" lon="-5.941650000">
        <time>2022-06-28T10:54:02Z</time>
      </trkpt>
      <trkpt lat="41.036141667" lon="-5.941648333">
        <time>2022-06-28T10:54:03Z</time>
      </trkpt>
      <trkpt lat="41.036081667" lon="-5.941650000">
        <time>2022-06-28T10:54:04Z</time>
      </trkpt>
      <trkpt lat="41.036021667" lon="-5.941653333">
        <time>2022-06-28T10:54:05Z</time>
      </trkpt>
      <trkpt lat="41.035960000" lon="-5.941656667">
        <time>2022-06-28T10:54:06Z</time>
      </trkpt>
      <trkpt lat="41.035901667" lon="-5.941661667">
        <time>2022-06-28T10:54:07Z</time>
      </trkpt>
      <trkpt lat="41.035841667" lon="-5.941666667">
        <time>2022-06-28T10:54:08Z</time>
      </trkpt>
      <trkpt lat="41.035781667" lon="-5.941670000">
        <time>2022-06-28T10:54:09Z</time>
      </trkpt>
      <trkpt lat="41.035721667" lon="-5.941673333">
        <time>2022-06-28T10:54:10Z</time>
      </trkpt>
      <trkpt lat="41.035663333" lon="-5.941678333">
        <time>2022-06-28T10:54:11Z</time>
      </trkpt>
      <trkpt lat="41.035603333" lon="-5.941681667">
        <time>2022-06-28T10:54:12Z</time>
      </trkpt>
      <trkpt lat="41.035545000" lon="-5.941683333">
        <time>2022-06-28T10:54:13Z</time>
      </trkpt>
      <trkpt lat="41.035485000" lon="-5.941680000">
        <time>2022-06-28T10:54:14Z</time>
      </trkpt>
      <trkpt lat="41.035425000" lon="-5.941673333">
        <time>2022-06-28T10:54:15Z</time>
      </trkpt>
      <trkpt lat="41.035365000" lon="-5.941666667">
        <time>2022-06-28T10:54:16Z</time>
      </trkpt>
      <trkpt lat="41.035305000" lon="-5.941656667">
        <time>2022-06-28T10:54:17Z</time>
      </trkpt>
      <trkpt lat="41.035245000" lon="-5.941646667">
        <time>2022-06-28T10:54:18Z</time>
      </trkpt>
      <trkpt lat="41.035183333" lon="-5.941633333">
        <time>2022-06-28T10:54:19Z</time>
      </trkpt>
      <trkpt lat="41.035121667" lon="-5.941616667">
        <time>2022-06-28T10:54:20Z</time>
      </trkpt>
      <trkpt lat="41.035060000" lon="-5.941596667">
        <time>2022-06-28T10:54:21Z</time>
      </trkpt>
      <trkpt lat="41.034998333" lon="-5.941578333">
        <time>2022-06-28T10:54:22Z</time>
      </trkpt>
      <trkpt lat="41.034938333" lon="-5.941558333">
        <time>2022-06-28T10:54:23Z</time>
      </trkpt>
      <trkpt lat="41.034880000" lon="-5.941538333">
        <time>2022-06-28T10:54:24Z</time>
      </trkpt>
      <trkpt lat="41.034821667" lon="-5.941515000">
        <time>2022-06-28T10:54:25Z</time>
      </trkpt>
      <trkpt lat="41.034763333" lon="-5.941486667">
        <time>2022-06-28T10:54:26Z</time>
      </trkpt>
      <trkpt lat="41.034703333" lon="-5.941458333">
        <time>2022-06-28T10:54:27Z</time>
      </trkpt>
      <trkpt lat="41.034645000" lon="-5.941426667">
        <time>2022-06-28T10:54:28Z</time>
      </trkpt>
      <trkpt lat="41.034588333" lon="-5.941391667">
        <time>2022-06-28T10:54:29Z</time>
      </trkpt>
      <trkpt lat="41.034531667" lon="-5.941355000">
        <time>2022-06-28T10:54:30Z</time>
      </trkpt>
      <trkpt lat="41.034476667" lon="-5.941315000">
        <time>2022-06-28T10:54:31Z</time>
      </trkpt>
      <trkpt lat="41.034423333" lon="-5.941273333">
        <time>2022-06-28T10:54:32Z</time>
      </trkpt>
      <trkpt lat="41.034373333" lon="-5.941226667">
        <time>2022-06-28T10:54:33Z</time>
      </trkpt>
      <trkpt lat="41.034323333" lon="-5.941175000">
        <time>2022-06-28T10:54:34Z</time>
      </trkpt>
      <trkpt lat="41.034275000" lon="-5.941123333">
        <time>2022-06-28T10:54:35Z</time>
      </trkpt>
      <trkpt lat="41.034228333" lon="-5.941068333">
        <time>2022-06-28T10:54:36Z</time>
      </trkpt>
      <trkpt lat="41.034181667" lon="-5.941010000">
        <time>2022-06-28T10:54:37Z</time>
      </trkpt>
      <trkpt lat="41.034135000" lon="-5.940953333">
        <time>2022-06-28T10:54:38Z</time>
      </trkpt>
      <trkpt lat="41.034090000" lon="-5.940896667">
        <time>2022-06-28T10:54:39Z</time>
      </trkpt>
      <trkpt lat="41.034043333" lon="-5.940840000">
        <time>2022-06-28T10:54:40Z</time>
      </trkpt>
      <trkpt lat="41.033996667" lon="-5.940785000">
        <time>2022-06-28T10:54:41Z</time>
      </trkpt>
      <trkpt lat="41.033950000" lon="-5.940731667">
        <time>2022-06-28T10:54:42Z</time>
      </trkpt>
      <trkpt lat="41.033905000" lon="-5.940676667">
        <time>2022-06-28T10:54:43Z</time>
      </trkpt>
      <trkpt lat="41.033858333" lon="-5.940625000">
        <time>2022-06-28T10:54:44Z</time>
      </trkpt>
      <trkpt lat="41.033811667" lon="-5.940573333">
        <time>2022-06-28T10:54:45Z</time>
      </trkpt>
      <trkpt lat="41.033763333" lon="-5.940523333">
        <time>2022-06-28T10:54:46Z</time>
      </trkpt>
      <trkpt lat="41.033716667" lon="-5.940471667">
        <time>2022-06-28T10:54:47Z</time>
      </trkpt>
      <trkpt lat="41.033668333" lon="-5.940423333">
        <time>2022-06-28T10:54:48Z</time>
      </trkpt>
      <trkpt lat="41.033618333" lon="-5.940373333">
        <time>2022-06-28T10:54:49Z</time>
      </trkpt>
      <trkpt lat="41.033570000" lon="-5.940326667">
        <time>2022-06-28T10:54:50Z</time>
      </trkpt>
      <trkpt lat="41.033521667" lon="-5.940280000">
        <time>2022-06-28T10:54:51Z</time>
      </trkpt>
      <trkpt lat="41.033473333" lon="-5.940235000">
        <time>2022-06-28T10:54:52Z</time>
      </trkpt>
      <trkpt lat="41.033425000" lon="-5.940191667">
        <time>2022-06-28T10:54:53Z</time>
      </trkpt>
      <trkpt lat="41.033378333" lon="-5.940148333">
        <time>2022-06-28T10:54:54Z</time>
      </trkpt>
      <trkpt lat="41.033330000" lon="-5.940106667">
        <time>2022-06-28T10:54:55Z</time>
      </trkpt>
      <trkpt lat="41.033283333" lon="-5.940065000">
        <time>2022-06-28T10:54:56Z</time>
      </trkpt>
      <trkpt lat="41.033236667" lon="-5.940023333">
        <time>2022-06-28T10:54:57Z</time>
      </trkpt>
      <trkpt lat="41.033191667" lon="-5.939983333">
        <time>2022-06-28T10:54:58Z</time>
      </trkpt>
      <trkpt lat="41.033146667" lon="-5.939945000">
        <time>2022-06-28T10:54:59Z</time>
      </trkpt>
      <trkpt lat="41.033100000" lon="-5.939906667">
        <time>2022-06-28T10:55:00Z</time>
      </trkpt>
      <trkpt lat="41.033055000" lon="-5.939873333">
        <time>2022-06-28T10:55:01Z</time>
      </trkpt>
      <trkpt lat="41.033008333" lon="-5.939840000">
        <time>2022-06-28T10:55:02Z</time>
      </trkpt>
      <trkpt lat="41.032963333" lon="-5.939805000">
        <time>2022-06-28T10:55:03Z</time>
      </trkpt>
      <trkpt lat="41.032918333" lon="-5.939768333">
        <time>2022-06-28T10:55:04Z</time>
      </trkpt>
      <trkpt lat="41.032873333" lon="-5.939733333">
        <time>2022-06-28T10:55:05Z</time>
      </trkpt>
      <trkpt lat="41.032826667" lon="-5.939695000">
        <time>2022-06-28T10:55:06Z</time>
      </trkpt>
      <trkpt lat="41.032781667" lon="-5.939658333">
        <time>2022-06-28T10:55:07Z</time>
      </trkpt>
      <trkpt lat="41.032735000" lon="-5.939623333">
        <time>2022-06-28T10:55:08Z</time>
      </trkpt>
      <trkpt lat="41.032688333" lon="-5.939588333">
        <time>2022-06-28T10:55:09Z</time>
      </trkpt>
      <trkpt lat="41.032643333" lon="-5.939551667">
        <time>2022-06-28T10:55:10Z</time>
      </trkpt>
      <trkpt lat="41.032596667" lon="-5.939515000">
        <time>2022-06-28T10:55:11Z</time>
      </trkpt>
      <trkpt lat="41.032550000" lon="-5.939478333">
        <time>2022-06-28T10:55:12Z</time>
      </trkpt>
      <trkpt lat="41.032505000" lon="-5.939441667">
        <time>2022-06-28T10:55:13Z</time>
      </trkpt>
      <trkpt lat="41.032458333" lon="-5.939406667">
        <time>2022-06-28T10:55:14Z</time>
      </trkpt>
      <trkpt lat="41.032411667" lon="-5.939371667">
        <time>2022-06-28T10:55:15Z</time>
      </trkpt>
      <trkpt lat="41.032365000" lon="-5.939333333">
        <time>2022-06-28T10:55:16Z</time>
      </trkpt>
      <trkpt lat="41.032320000" lon="-5.939295000">
        <time>2022-06-28T10:55:17Z</time>
      </trkpt>
      <trkpt lat="41.032273333" lon="-5.939255000">
        <time>2022-06-28T10:55:18Z</time>
      </trkpt>
      <trkpt lat="41.032228333" lon="-5.939216667">
        <time>2022-06-28T10:55:19Z</time>
      </trkpt>
      <trkpt lat="41.032183333" lon="-5.939178333">
        <time>2022-06-28T10:55:20Z</time>
      </trkpt>
      <trkpt lat="41.032138333" lon="-5.939141667">
        <time>2022-06-28T10:55:21Z</time>
      </trkpt>
      <trkpt lat="41.032093333" lon="-5.939101667">
        <time>2022-06-28T10:55:22Z</time>
      </trkpt>
      <trkpt lat="41.032050000" lon="-5.939061667">
        <time>2022-06-28T10:55:23Z</time>
      </trkpt>
      <trkpt lat="41.032008333" lon="-5.939020000">
        <time>2022-06-28T10:55:24Z</time>
      </trkpt>
      <trkpt lat="41.031965000" lon="-5.938978333">
        <time>2022-06-28T10:55:25Z</time>
      </trkpt>
      <trkpt lat="41.031921667" lon="-5.938935000">
        <time>2022-06-28T10:55:26Z</time>
      </trkpt>
      <trkpt lat="41.031876667" lon="-5.938891667">
        <time>2022-06-28T10:55:27Z</time>
      </trkpt>
      <trkpt lat="41.031833333" lon="-5.938846667">
        <time>2022-06-28T10:55:28Z</time>
      </trkpt>
      <trkpt lat="41.031788333" lon="-5.938803333">
        <time>2022-06-28T10:55:29Z</time>
      </trkpt>
      <trkpt lat="41.031745000" lon="-5.938758333">
        <time>2022-06-28T10:55:30Z</time>
      </trkpt>
      <trkpt lat="41.031701667" lon="-5.938711667">
        <time>2022-06-28T10:55:31Z</time>
      </trkpt>
      <trkpt lat="41.031656667" lon="-5.938665000">
        <time>2022-06-28T10:55:32Z</time>
      </trkpt>
      <trkpt lat="41.031611667" lon="-5.938618333">
        <time>2022-06-28T10:55:33Z</time>
      </trkpt>
      <trkpt lat="41.031566667" lon="-5.938571667">
        <time>2022-06-28T10:55:34Z</time>
      </trkpt>
      <trkpt lat="41.031523333" lon="-5.938523333">
        <time>2022-06-28T10:55:35Z</time>
      </trkpt>
      <trkpt lat="41.031480000" lon="-5.938475000">
        <time>2022-06-28T10:55:36Z</time>
      </trkpt>
      <trkpt lat="41.031436667" lon="-5.938430000">
        <time>2022-06-28T10:55:37Z</time>
      </trkpt>
      <trkpt lat="41.031393333" lon="-5.938385000">
        <time>2022-06-28T10:55:38Z</time>
      </trkpt>
      <trkpt lat="41.031348333" lon="-5.938340000">
        <time>2022-06-28T10:55:39Z</time>
      </trkpt>
      <trkpt lat="41.031305000" lon="-5.938293333">
        <time>2022-06-28T10:55:40Z</time>
      </trkpt>
      <trkpt lat="41.031260000" lon="-5.938246667">
        <time>2022-06-28T10:55:41Z</time>
      </trkpt>
      <trkpt lat="41.031216667" lon="-5.938198333">
        <time>2022-06-28T10:55:42Z</time>
      </trkpt>
      <trkpt lat="41.031173333" lon="-5.938151667">
        <time>2022-06-28T10:55:43Z</time>
      </trkpt>
      <trkpt lat="41.031128333" lon="-5.938103333">
        <time>2022-06-28T10:55:44Z</time>
      </trkpt>
      <trkpt lat="41.031085000" lon="-5.938056667">
        <time>2022-06-28T10:55:45Z</time>
      </trkpt>
      <trkpt lat="41.031040000" lon="-5.938011667">
        <time>2022-06-28T10:55:46Z</time>
      </trkpt>
      <trkpt lat="41.030996667" lon="-5.937965000">
        <time>2022-06-28T10:55:47Z</time>
      </trkpt>
      <trkpt lat="41.030953333" lon="-5.937918333">
        <time>2022-06-28T10:55:48Z</time>
      </trkpt>
      <trkpt lat="41.030910000" lon="-5.937871667">
        <time>2022-06-28T10:55:49Z</time>
      </trkpt>
      <trkpt lat="41.030865000" lon="-5.937825000">
        <time>2022-06-28T10:55:50Z</time>
      </trkpt>
      <trkpt lat="41.030821667" lon="-5.937778333">
        <time>2022-06-28T10:55:51Z</time>
      </trkpt>
      <trkpt lat="41.030776667" lon="-5.937731667">
        <time>2022-06-28T10:55:52Z</time>
      </trkpt>
      <trkpt lat="41.030733333" lon="-5.937686667">
        <time>2022-06-28T10:55:53Z</time>
      </trkpt>
      <trkpt lat="41.030688333" lon="-5.937638333">
        <time>2022-06-28T10:55:54Z</time>
      </trkpt>
      <trkpt lat="41.030645000" lon="-5.937591667">
        <time>2022-06-28T10:55:55Z</time>
      </trkpt>
      <trkpt lat="41.030600000" lon="-5.937543333">
        <time>2022-06-28T10:55:56Z</time>
      </trkpt>
      <trkpt lat="41.030556667" lon="-5.937496667">
        <time>2022-06-28T10:55:57Z</time>
      </trkpt>
      <trkpt lat="41.030513333" lon="-5.937448333">
        <time>2022-06-28T10:55:58Z</time>
      </trkpt>
      <trkpt lat="41.030468333" lon="-5.937401667">
        <time>2022-06-28T10:55:59Z</time>
      </trkpt>
      <trkpt lat="41.030425000" lon="-5.937356667">
        <time>2022-06-28T10:56:00Z</time>
      </trkpt>
      <trkpt lat="41.030380000" lon="-5.937310000">
        <time>2022-06-28T10:56:01Z</time>
      </trkpt>
      <trkpt lat="41.030336667" lon="-5.937261667">
        <time>2022-06-28T10:56:02Z</time>
      </trkpt>
      <trkpt lat="41.030293333" lon="-5.937216667">
        <time>2022-06-28T10:56:03Z</time>
      </trkpt>
      <trkpt lat="41.030248333" lon="-5.937168333">
        <time>2022-06-28T10:56:04Z</time>
      </trkpt>
      <trkpt lat="41.030205000" lon="-5.937120000">
        <time>2022-06-28T10:56:05Z</time>
      </trkpt>
      <trkpt lat="41.030160000" lon="-5.937073333">
        <time>2022-06-28T10:56:06Z</time>
      </trkpt>
      <trkpt lat="41.030115000" lon="-5.937026667">
        <time>2022-06-28T10:56:07Z</time>
      </trkpt>
      <trkpt lat="41.030071667" lon="-5.936980000">
        <time>2022-06-28T10:56:08Z</time>
      </trkpt>
      <trkpt lat="41.030026667" lon="-5.936931667">
        <time>2022-06-28T10:56:09Z</time>
      </trkpt>
      <trkpt lat="41.029983333" lon="-5.936885000">
        <time>2022-06-28T10:56:10Z</time>
      </trkpt>
      <trkpt lat="41.029938333" lon="-5.936838333">
        <time>2022-06-28T10:56:11Z</time>
      </trkpt>
      <trkpt lat="41.029895000" lon="-5.936791667">
        <time>2022-06-28T10:56:12Z</time>
      </trkpt>
      <trkpt lat="41.029851667" lon="-5.936743333">
        <time>2022-06-28T10:56:13Z</time>
      </trkpt>
      <trkpt lat="41.029806667" lon="-5.936695000">
        <time>2022-06-28T10:56:14Z</time>
      </trkpt>
      <trkpt lat="41.029761667" lon="-5.936648333">
        <time>2022-06-28T10:56:15Z</time>
      </trkpt>
      <trkpt lat="41.029715000" lon="-5.936600000">
        <time>2022-06-28T10:56:16Z</time>
      </trkpt>
      <trkpt lat="41.029668333" lon="-5.936551667">
        <time>2022-06-28T10:56:17Z</time>
      </trkpt>
      <trkpt lat="41.029621667" lon="-5.936505000">
        <time>2022-06-28T10:56:18Z</time>
      </trkpt>
      <trkpt lat="41.029575000" lon="-5.936455000">
        <time>2022-06-28T10:56:19Z</time>
      </trkpt>
      <trkpt lat="41.029530000" lon="-5.936405000">
        <time>2022-06-28T10:56:20Z</time>
      </trkpt>
      <trkpt lat="41.029483333" lon="-5.936355000">
        <time>2022-06-28T10:56:21Z</time>
      </trkpt>
      <trkpt lat="41.029436667" lon="-5.936303333">
        <time>2022-06-28T10:56:22Z</time>
      </trkpt>
      <trkpt lat="41.029388333" lon="-5.936253333">
        <time>2022-06-28T10:56:23Z</time>
      </trkpt>
      <trkpt lat="41.029340000" lon="-5.936200000">
        <time>2022-06-28T10:56:24Z</time>
      </trkpt>
      <trkpt lat="41.029291667" lon="-5.936148333">
        <time>2022-06-28T10:56:25Z</time>
      </trkpt>
      <trkpt lat="41.029243333" lon="-5.936096667">
        <time>2022-06-28T10:56:26Z</time>
      </trkpt>
      <trkpt lat="41.029195000" lon="-5.936045000">
        <time>2022-06-28T10:56:27Z</time>
      </trkpt>
      <trkpt lat="41.029145000" lon="-5.935993333">
        <time>2022-06-28T10:56:28Z</time>
      </trkpt>
      <trkpt lat="41.029096667" lon="-5.935940000">
        <time>2022-06-28T10:56:29Z</time>
      </trkpt>
      <trkpt lat="41.029048333" lon="-5.935886667">
        <time>2022-06-28T10:56:30Z</time>
      </trkpt>
      <trkpt lat="41.028998333" lon="-5.935833333">
        <time>2022-06-28T10:56:31Z</time>
      </trkpt>
      <trkpt lat="41.028948333" lon="-5.935780000">
        <time>2022-06-28T10:56:32Z</time>
      </trkpt>
      <trkpt lat="41.028898333" lon="-5.935726667">
        <time>2022-06-28T10:56:33Z</time>
      </trkpt>
      <trkpt lat="41.028848333" lon="-5.935673333">
        <time>2022-06-28T10:56:34Z</time>
      </trkpt>
      <trkpt lat="41.028798333" lon="-5.935618333">
        <time>2022-06-28T10:56:35Z</time>
      </trkpt>
      <trkpt lat="41.028748333" lon="-5.935565000">
        <time>2022-06-28T10:56:36Z</time>
      </trkpt>
      <trkpt lat="41.028698333" lon="-5.935510000">
        <time>2022-06-28T10:56:37Z</time>
      </trkpt>
      <trkpt lat="41.028648333" lon="-5.935455000">
        <time>2022-06-28T10:56:38Z</time>
      </trkpt>
      <trkpt lat="41.028598333" lon="-5.935403333">
        <time>2022-06-28T10:56:39Z</time>
      </trkpt>
      <trkpt lat="41.028550000" lon="-5.935351667">
        <time>2022-06-28T10:56:40Z</time>
      </trkpt>
      <trkpt lat="41.028501667" lon="-5.935300000">
        <time>2022-06-28T10:56:41Z</time>
      </trkpt>
      <trkpt lat="41.028453333" lon="-5.935248333">
        <time>2022-06-28T10:56:42Z</time>
      </trkpt>
      <trkpt lat="41.028406667" lon="-5.935198333">
        <time>2022-06-28T10:56:43Z</time>
      </trkpt>
      <trkpt lat="41.028358333" lon="-5.935148333">
        <time>2022-06-28T10:56:44Z</time>
      </trkpt>
      <trkpt lat="41.028311667" lon="-5.935098333">
        <time>2022-06-28T10:56:45Z</time>
      </trkpt>
      <trkpt lat="41.028265000" lon="-5.935050000">
        <time>2022-06-28T10:56:46Z</time>
      </trkpt>
      <trkpt lat="41.028218333" lon="-5.935000000">
        <time>2022-06-28T10:56:47Z</time>
      </trkpt>
      <trkpt lat="41.028173333" lon="-5.934951667">
        <time>2022-06-28T10:56:48Z</time>
      </trkpt>
      <trkpt lat="41.028128333" lon="-5.934903333">
        <time>2022-06-28T10:56:49Z</time>
      </trkpt>
      <trkpt lat="41.028083333" lon="-5.934855000">
        <time>2022-06-28T10:56:50Z</time>
      </trkpt>
      <trkpt lat="41.028038333" lon="-5.934806667">
        <time>2022-06-28T10:56:51Z</time>
      </trkpt>
      <trkpt lat="41.027993333" lon="-5.934760000">
        <time>2022-06-28T10:56:52Z</time>
      </trkpt>
      <trkpt lat="41.027948333" lon="-5.934711667">
        <time>2022-06-28T10:56:53Z</time>
      </trkpt>
      <trkpt lat="41.027903333" lon="-5.934665000">
        <time>2022-06-28T10:56:54Z</time>
      </trkpt>
      <trkpt lat="41.027860000" lon="-5.934616667">
        <time>2022-06-28T10:56:55Z</time>
      </trkpt>
      <trkpt lat="41.027816667" lon="-5.934565000">
        <time>2022-06-28T10:56:56Z</time>
      </trkpt>
      <trkpt lat="41.027771667" lon="-5.934516667">
        <time>2022-06-28T10:56:57Z</time>
      </trkpt>
      <trkpt lat="41.027726667" lon="-5.934470000">
        <time>2022-06-28T10:56:58Z</time>
      </trkpt>
      <trkpt lat="41.027681667" lon="-5.934423333">
        <time>2022-06-28T10:56:59Z</time>
      </trkpt>
      <trkpt lat="41.027635000" lon="-5.934378333">
        <time>2022-06-28T10:57:00Z</time>
      </trkpt>
      <trkpt lat="41.027591667" lon="-5.934330000">
        <time>2022-06-28T10:57:01Z</time>
      </trkpt>
      <trkpt lat="41.027550000" lon="-5.934283333">
        <time>2022-06-28T10:57:02Z</time>
      </trkpt>
      <trkpt lat="41.027506667" lon="-5.934236667">
        <time>2022-06-28T10:57:03Z</time>
      </trkpt>
      <trkpt lat="41.027463333" lon="-5.934191667">
        <time>2022-06-28T10:57:04Z</time>
      </trkpt>
      <trkpt lat="41.027420000" lon="-5.934148333">
        <time>2022-06-28T10:57:05Z</time>
      </trkpt>
      <trkpt lat="41.027376667" lon="-5.934103333">
        <time>2022-06-28T10:57:06Z</time>
      </trkpt>
      <trkpt lat="41.027335000" lon="-5.934060000">
        <time>2022-06-28T10:57:07Z</time>
      </trkpt>
      <trkpt lat="41.027293333" lon="-5.934015000">
        <time>2022-06-28T10:57:08Z</time>
      </trkpt>
      <trkpt lat="41.027251667" lon="-5.933973333">
        <time>2022-06-28T10:57:09Z</time>
      </trkpt>
      <trkpt lat="41.027211667" lon="-5.933931667">
        <time>2022-06-28T10:57:10Z</time>
      </trkpt>
      <trkpt lat="41.027176667" lon="-5.933888333">
        <time>2022-06-28T10:57:11Z</time>
      </trkpt>
      <trkpt lat="41.027143333" lon="-5.933846667">
        <time>2022-06-28T10:57:12Z</time>
      </trkpt>
      <trkpt lat="41.027120000" lon="-5.933798333">
        <time>2022-06-28T10:57:13Z</time>
      </trkpt>
      <trkpt lat="41.027106667" lon="-5.933743333">
        <time>2022-06-28T10:57:14Z</time>
      </trkpt>
      <trkpt lat="41.027105000" lon="-5.933683333">
        <time>2022-06-28T10:57:15Z</time>
      </trkpt>
      <trkpt lat="41.027115000" lon="-5.933621667">
        <time>2022-06-28T10:57:16Z</time>
      </trkpt>
      <trkpt lat="41.027128333" lon="-5.933556667">
        <time>2022-06-28T10:57:17Z</time>
      </trkpt>
      <trkpt lat="41.027141667" lon="-5.933488333">
        <time>2022-06-28T10:57:18Z</time>
      </trkpt>
      <trkpt lat="41.027156667" lon="-5.933415000">
        <time>2022-06-28T10:57:19Z</time>
      </trkpt>
      <trkpt lat="41.027170000" lon="-5.933340000">
        <time>2022-06-28T10:57:20Z</time>
      </trkpt>
      <trkpt lat="41.027183333" lon="-5.933263333">
        <time>2022-06-28T10:57:21Z</time>
      </trkpt>
      <trkpt lat="41.027200000" lon="-5.933185000">
        <time>2022-06-28T10:57:22Z</time>
      </trkpt>
      <trkpt lat="41.027215000" lon="-5.933103333">
        <time>2022-06-28T10:57:23Z</time>
      </trkpt>
      <trkpt lat="41.027228333" lon="-5.933018333">
        <time>2022-06-28T10:57:24Z</time>
      </trkpt>
      <trkpt lat="41.027243333" lon="-5.932931667">
        <time>2022-06-28T10:57:25Z</time>
      </trkpt>
      <trkpt lat="41.027258333" lon="-5.932843333">
        <time>2022-06-28T10:57:26Z</time>
      </trkpt>
      <trkpt lat="41.027273333" lon="-5.932756667">
        <time>2022-06-28T10:57:27Z</time>
      </trkpt>
      <trkpt lat="41.027288333" lon="-5.932666667">
        <time>2022-06-28T10:57:28Z</time>
      </trkpt>
      <trkpt lat="41.027305000" lon="-5.932578333">
        <time>2022-06-28T10:57:29Z</time>
      </trkpt>
      <trkpt lat="41.027320000" lon="-5.932491667">
        <time>2022-06-28T10:57:30Z</time>
      </trkpt>
      <trkpt lat="41.027333333" lon="-5.932406667">
        <time>2022-06-28T10:57:31Z</time>
      </trkpt>
      <trkpt lat="41.027346667" lon="-5.932323333">
        <time>2022-06-28T10:57:32Z</time>
      </trkpt>
      <trkpt lat="41.027360000" lon="-5.932243333">
        <time>2022-06-28T10:57:33Z</time>
      </trkpt>
      <trkpt lat="41.027375000" lon="-5.932166667">
        <time>2022-06-28T10:57:34Z</time>
      </trkpt>
      <trkpt lat="41.027388333" lon="-5.932090000">
        <time>2022-06-28T10:57:35Z</time>
      </trkpt>
      <trkpt lat="41.027400000" lon="-5.932015000">
        <time>2022-06-28T10:57:36Z</time>
      </trkpt>
      <trkpt lat="41.027413333" lon="-5.931938333">
        <time>2022-06-28T10:57:37Z</time>
      </trkpt>
      <trkpt lat="41.027425000" lon="-5.931861667">
        <time>2022-06-28T10:57:38Z</time>
      </trkpt>
      <trkpt lat="41.027436667" lon="-5.931785000">
        <time>2022-06-28T10:57:39Z</time>
      </trkpt>
      <trkpt lat="41.027450000" lon="-5.931708333">
        <time>2022-06-28T10:57:40Z</time>
      </trkpt>
      <trkpt lat="41.027463333" lon="-5.931631667">
        <time>2022-06-28T10:57:41Z</time>
      </trkpt>
      <trkpt lat="41.027473333" lon="-5.931553333">
        <time>2022-06-28T10:57:42Z</time>
      </trkpt>
      <trkpt lat="41.027486667" lon="-5.931475000">
        <time>2022-06-28T10:57:43Z</time>
      </trkpt>
      <trkpt lat="41.027500000" lon="-5.931396667">
        <time>2022-06-28T10:57:44Z</time>
      </trkpt>
      <trkpt lat="41.027513333" lon="-5.931320000">
        <time>2022-06-28T10:57:45Z</time>
      </trkpt>
      <trkpt lat="41.027526667" lon="-5.931241667">
        <time>2022-06-28T10:57:46Z</time>
      </trkpt>
      <trkpt lat="41.027538333" lon="-5.931165000">
        <time>2022-06-28T10:57:47Z</time>
      </trkpt>
      <trkpt lat="41.027551667" lon="-5.931090000">
        <time>2022-06-28T10:57:48Z</time>
      </trkpt>
      <trkpt lat="41.027563333" lon="-5.931015000">
        <time>2022-06-28T10:57:49Z</time>
      </trkpt>
      <trkpt lat="41.027576667" lon="-5.930943333">
        <time>2022-06-28T10:57:50Z</time>
      </trkpt>
      <trkpt lat="41.027588333" lon="-5.930870000">
        <time>2022-06-28T10:57:51Z</time>
      </trkpt>
      <trkpt lat="41.027598333" lon="-5.930800000">
        <time>2022-06-28T10:57:52Z</time>
      </trkpt>
      <trkpt lat="41.027608333" lon="-5.930728333">
        <time>2022-06-28T10:57:53Z</time>
      </trkpt>
      <trkpt lat="41.027620000" lon="-5.930661667">
        <time>2022-06-28T10:57:54Z</time>
      </trkpt>
      <trkpt lat="41.027631667" lon="-5.930596667">
        <time>2022-06-28T10:57:55Z</time>
      </trkpt>
      <trkpt lat="41.027641667" lon="-5.930533333">
        <time>2022-06-28T10:57:56Z</time>
      </trkpt>
      <trkpt lat="41.027651667" lon="-5.930470000">
        <time>2022-06-28T10:57:57Z</time>
      </trkpt>
      <trkpt lat="41.027663333" lon="-5.930408333">
        <time>2022-06-28T10:57:58Z</time>
      </trkpt>
      <trkpt lat="41.027673333" lon="-5.930346667">
        <time>2022-06-28T10:57:59Z</time>
      </trkpt>
      <trkpt lat="41.027683333" lon="-5.930286667">
        <time>2022-06-28T10:58:00Z</time>
      </trkpt>
      <trkpt lat="41.027693333" lon="-5.930226667">
        <time>2022-06-28T10:58:01Z</time>
      </trkpt>
      <trkpt lat="41.027700000" lon="-5.930166667">
        <time>2022-06-28T10:58:02Z</time>
      </trkpt>
      <trkpt lat="41.027706667" lon="-5.930106667">
        <time>2022-06-28T10:58:03Z</time>
      </trkpt>
      <trkpt lat="41.027715000" lon="-5.930051667">
        <time>2022-06-28T10:58:04Z</time>
      </trkpt>
      <trkpt lat="41.027725000" lon="-5.929993333">
        <time>2022-06-28T10:58:05Z</time>
      </trkpt>
      <trkpt lat="41.027740000" lon="-5.929931667">
        <time>2022-06-28T10:58:06Z</time>
      </trkpt>
      <trkpt lat="41.027751667" lon="-5.929871667">
        <time>2022-06-28T10:58:07Z</time>
      </trkpt>
      <trkpt lat="41.027765000" lon="-5.929811667">
        <time>2022-06-28T10:58:08Z</time>
      </trkpt>
      <trkpt lat="41.027773333" lon="-5.929751667">
        <time>2022-06-28T10:58:09Z</time>
      </trkpt>
      <trkpt lat="41.027781667" lon="-5.929691667">
        <time>2022-06-28T10:58:10Z</time>
      </trkpt>
      <trkpt lat="41.027791667" lon="-5.929631667">
        <time>2022-06-28T10:58:11Z</time>
      </trkpt>
      <trkpt lat="41.027803333" lon="-5.929573333">
        <time>2022-06-28T10:58:12Z</time>
      </trkpt>
      <trkpt lat="41.027815000" lon="-5.929515000">
        <time>2022-06-28T10:58:13Z</time>
      </trkpt>
      <trkpt lat="41.027825000" lon="-5.929458333">
        <time>2022-06-28T10:58:14Z</time>
      </trkpt>
      <trkpt lat="41.027835000" lon="-5.929400000">
        <time>2022-06-28T10:58:15Z</time>
      </trkpt>
      <trkpt lat="41.027843333" lon="-5.929341667">
        <time>2022-06-28T10:58:16Z</time>
      </trkpt>
      <trkpt lat="41.027853333" lon="-5.929281667">
        <time>2022-06-28T10:58:17Z</time>
      </trkpt>
      <trkpt lat="41.027863333" lon="-5.929223333">
        <time>2022-06-28T10:58:18Z</time>
      </trkpt>
      <trkpt lat="41.027873333" lon="-5.929165000">
        <time>2022-06-28T10:58:19Z</time>
      </trkpt>
      <trkpt lat="41.027883333" lon="-5.929108333">
        <time>2022-06-28T10:58:20Z</time>
      </trkpt>
      <trkpt lat="41.027893333" lon="-5.929046667">
        <time>2022-06-28T10:58:21Z</time>
      </trkpt>
      <trkpt lat="41.027903333" lon="-5.928986667">
        <time>2022-06-28T10:58:22Z</time>
      </trkpt>
      <trkpt lat="41.027908333" lon="-5.928926667">
        <time>2022-06-28T10:58:23Z</time>
      </trkpt>
      <trkpt lat="41.027916667" lon="-5.928866667">
        <time>2022-06-28T10:58:24Z</time>
      </trkpt>
      <trkpt lat="41.027926667" lon="-5.928801667">
        <time>2022-06-28T10:58:25Z</time>
      </trkpt>
      <trkpt lat="41.027936667" lon="-5.928740000">
        <time>2022-06-28T10:58:26Z</time>
      </trkpt>
      <trkpt lat="41.027946667" lon="-5.928678333">
        <time>2022-06-28T10:58:27Z</time>
      </trkpt>
      <trkpt lat="41.027956667" lon="-5.928616667">
        <time>2022-06-28T10:58:28Z</time>
      </trkpt>
      <trkpt lat="41.027968333" lon="-5.928556667">
        <time>2022-06-28T10:58:29Z</time>
      </trkpt>
      <trkpt lat="41.027978333" lon="-5.928496667">
        <time>2022-06-28T10:58:30Z</time>
      </trkpt>
      <trkpt lat="41.027990000" lon="-5.928438333">
        <time>2022-06-28T10:58:31Z</time>
      </trkpt>
      <trkpt lat="41.028000000" lon="-5.928378333">
        <time>2022-06-28T10:58:32Z</time>
      </trkpt>
      <trkpt lat="41.028008333" lon="-5.928318333">
        <time>2022-06-28T10:58:33Z</time>
      </trkpt>
      <trkpt lat="41.028020000" lon="-5.928256667">
        <time>2022-06-28T10:58:34Z</time>
      </trkpt>
      <trkpt lat="41.028030000" lon="-5.928195000">
        <time>2022-06-28T10:58:35Z</time>
      </trkpt>
      <trkpt lat="41.028040000" lon="-5.928135000">
        <time>2022-06-28T10:58:36Z</time>
      </trkpt>
      <trkpt lat="41.028051667" lon="-5.928073333">
        <time>2022-06-28T10:58:37Z</time>
      </trkpt>
      <trkpt lat="41.028063333" lon="-5.928011667">
        <time>2022-06-28T10:58:38Z</time>
      </trkpt>
      <trkpt lat="41.028075000" lon="-5.927950000">
        <time>2022-06-28T10:58:39Z</time>
      </trkpt>
      <trkpt lat="41.028085000" lon="-5.927888333">
        <time>2022-06-28T10:58:40Z</time>
      </trkpt>
      <trkpt lat="41.028096667" lon="-5.927826667">
        <time>2022-06-28T10:58:41Z</time>
      </trkpt>
      <trkpt lat="41.028105000" lon="-5.927766667">
        <time>2022-06-28T10:58:42Z</time>
      </trkpt>
      <trkpt lat="41.028116667" lon="-5.927705000">
        <time>2022-06-28T10:58:43Z</time>
      </trkpt>
      <trkpt lat="41.028126667" lon="-5.927645000">
        <time>2022-06-28T10:58:44Z</time>
      </trkpt>
      <trkpt lat="41.028136667" lon="-5.927585000">
        <time>2022-06-28T10:58:45Z</time>
      </trkpt>
      <trkpt lat="41.028146667" lon="-5.927525000">
        <time>2022-06-28T10:58:46Z</time>
      </trkpt>
      <trkpt lat="41.028158333" lon="-5.927465000">
        <time>2022-06-28T10:58:47Z</time>
      </trkpt>
      <trkpt lat="41.028168333" lon="-5.927405000">
        <time>2022-06-28T10:58:48Z</time>
      </trkpt>
      <trkpt lat="41.028178333" lon="-5.927345000">
        <time>2022-06-28T10:58:49Z</time>
      </trkpt>
      <trkpt lat="41.028185000" lon="-5.927285000">
        <time>2022-06-28T10:58:50Z</time>
      </trkpt>
      <trkpt lat="41.028195000" lon="-5.927225000">
        <time>2022-06-28T10:58:51Z</time>
      </trkpt>
      <trkpt lat="41.028203333" lon="-5.927163333">
        <time>2022-06-28T10:58:52Z</time>
      </trkpt>
      <trkpt lat="41.028208333" lon="-5.927105000">
        <time>2022-06-28T10:58:53Z</time>
      </trkpt>
      <trkpt lat="41.028215000" lon="-5.927045000">
        <time>2022-06-28T10:58:54Z</time>
      </trkpt>
      <trkpt lat="41.028221667" lon="-5.926981667">
        <time>2022-06-28T10:58:55Z</time>
      </trkpt>
      <trkpt lat="41.028231667" lon="-5.926920000">
        <time>2022-06-28T10:58:56Z</time>
      </trkpt>
      <trkpt lat="41.028241667" lon="-5.926860000">
        <time>2022-06-28T10:58:57Z</time>
      </trkpt>
      <trkpt lat="41.028253333" lon="-5.926801667">
        <time>2022-06-28T10:58:58Z</time>
      </trkpt>
      <trkpt lat="41.028266667" lon="-5.926741667">
        <time>2022-06-28T10:58:59Z</time>
      </trkpt>
      <trkpt lat="41.028278333" lon="-5.926683333">
        <time>2022-06-28T10:59:00Z</time>
      </trkpt>
      <trkpt lat="41.028286667" lon="-5.926623333">
        <time>2022-06-28T10:59:01Z</time>
      </trkpt>
      <trkpt lat="41.028296667" lon="-5.926565000">
        <time>2022-06-28T10:59:02Z</time>
      </trkpt>
      <trkpt lat="41.028306667" lon="-5.926506667">
        <time>2022-06-28T10:59:03Z</time>
      </trkpt>
      <trkpt lat="41.028315000" lon="-5.926448333">
        <time>2022-06-28T10:59:04Z</time>
      </trkpt>
      <trkpt lat="41.028326667" lon="-5.926390000">
        <time>2022-06-28T10:59:05Z</time>
      </trkpt>
      <trkpt lat="41.028336667" lon="-5.926330000">
        <time>2022-06-28T10:59:06Z</time>
      </trkpt>
      <trkpt lat="41.028346667" lon="-5.926270000">
        <time>2022-06-28T10:59:07Z</time>
      </trkpt>
      <trkpt lat="41.028358333" lon="-5.926213333">
        <time>2022-06-28T10:59:08Z</time>
      </trkpt>
      <trkpt lat="41.028368333" lon="-5.926155000">
        <time>2022-06-28T10:59:09Z</time>
      </trkpt>
      <trkpt lat="41.028378333" lon="-5.926096667">
        <time>2022-06-28T10:59:10Z</time>
      </trkpt>
      <trkpt lat="41.028388333" lon="-5.926038333">
        <time>2022-06-28T10:59:11Z</time>
      </trkpt>
      <trkpt lat="41.028401667" lon="-5.925980000">
        <time>2022-06-28T10:59:12Z</time>
      </trkpt>
      <trkpt lat="41.028411667" lon="-5.925921667">
        <time>2022-06-28T10:59:13Z</time>
      </trkpt>
      <trkpt lat="41.028420000" lon="-5.925861667">
        <time>2022-06-28T10:59:14Z</time>
      </trkpt>
      <trkpt lat="41.028428333" lon="-5.925801667">
        <time>2022-06-28T10:59:15Z</time>
      </trkpt>
      <trkpt lat="41.028436667" lon="-5.925741667">
        <time>2022-06-28T10:59:16Z</time>
      </trkpt>
      <trkpt lat="41.028448333" lon="-5.925681667">
        <time>2022-06-28T10:59:17Z</time>
      </trkpt>
      <trkpt lat="41.028460000" lon="-5.925621667">
        <time>2022-06-28T10:59:18Z</time>
      </trkpt>
      <trkpt lat="41.028470000" lon="-5.925561667">
        <time>2022-06-28T10:59:19Z</time>
      </trkpt>
      <trkpt lat="41.028481667" lon="-5.925501667">
        <time>2022-06-28T10:59:20Z</time>
      </trkpt>
      <trkpt lat="41.028491667" lon="-5.925441667">
        <time>2022-06-28T10:59:21Z</time>
      </trkpt>
      <trkpt lat="41.028501667" lon="-5.925381667">
        <time>2022-06-28T10:59:22Z</time>
      </trkpt>
      <trkpt lat="41.028510000" lon="-5.925321667">
        <time>2022-06-28T10:59:23Z</time>
      </trkpt>
      <trkpt lat="41.028520000" lon="-5.925261667">
        <time>2022-06-28T10:59:24Z</time>
      </trkpt>
      <trkpt lat="41.028531667" lon="-5.925201667">
        <time>2022-06-28T10:59:25Z</time>
      </trkpt>
      <trkpt lat="41.028543333" lon="-5.925143333">
        <time>2022-06-28T10:59:26Z</time>
      </trkpt>
      <trkpt lat="41.028555000" lon="-5.925083333">
        <time>2022-06-28T10:59:27Z</time>
      </trkpt>
      <trkpt lat="41.028565000" lon="-5.925025000">
        <time>2022-06-28T10:59:28Z</time>
      </trkpt>
      <trkpt lat="41.028576667" lon="-5.924965000">
        <time>2022-06-28T10:59:29Z</time>
      </trkpt>
      <trkpt lat="41.028586667" lon="-5.924905000">
        <time>2022-06-28T10:59:30Z</time>
      </trkpt>
      <trkpt lat="41.028595000" lon="-5.924843333">
        <time>2022-06-28T10:59:31Z</time>
      </trkpt>
      <trkpt lat="41.028603333" lon="-5.924783333">
        <time>2022-06-28T10:59:32Z</time>
      </trkpt>
      <trkpt lat="41.028616667" lon="-5.924723333">
        <time>2022-06-28T10:59:33Z</time>
      </trkpt>
      <trkpt lat="41.028631667" lon="-5.924661667">
        <time>2022-06-28T10:59:34Z</time>
      </trkpt>
      <trkpt lat="41.028641667" lon="-5.924601667">
        <time>2022-06-28T10:59:35Z</time>
      </trkpt>
      <trkpt lat="41.028648333" lon="-5.924540000">
        <time>2022-06-28T10:59:36Z</time>
      </trkpt>
      <trkpt lat="41.028660000" lon="-5.924475000">
        <time>2022-06-28T10:59:37Z</time>
      </trkpt>
      <trkpt lat="41.028670000" lon="-5.924411667">
        <time>2022-06-28T10:59:38Z</time>
      </trkpt>
      <trkpt lat="41.028678333" lon="-5.924350000">
        <time>2022-06-28T10:59:39Z</time>
      </trkpt>
      <trkpt lat="41.028690000" lon="-5.924286667">
        <time>2022-06-28T10:59:40Z</time>
      </trkpt>
      <trkpt lat="41.028700000" lon="-5.924225000">
        <time>2022-06-28T10:59:41Z</time>
      </trkpt>
      <trkpt lat="41.028711667" lon="-5.924163333">
        <time>2022-06-28T10:59:42Z</time>
      </trkpt>
      <trkpt lat="41.028723333" lon="-5.924101667">
        <time>2022-06-28T10:59:43Z</time>
      </trkpt>
      <trkpt lat="41.028733333" lon="-5.924040000">
        <time>2022-06-28T10:59:44Z</time>
      </trkpt>
      <trkpt lat="41.028741667" lon="-5.923976667">
        <time>2022-06-28T10:59:45Z</time>
      </trkpt>
      <trkpt lat="41.028751667" lon="-5.923915000">
        <time>2022-06-28T10:59:46Z</time>
      </trkpt>
      <trkpt lat="41.028761667" lon="-5.923853333">
        <time>2022-06-28T10:59:47Z</time>
      </trkpt>
      <trkpt lat="41.028771667" lon="-5.923791667">
        <time>2022-06-28T10:59:48Z</time>
      </trkpt>
      <trkpt lat="41.028781667" lon="-5.923730000">
        <time>2022-06-28T10:59:49Z</time>
      </trkpt>
      <trkpt lat="41.028793333" lon="-5.923668333">
        <time>2022-06-28T10:59:50Z</time>
      </trkpt>
      <trkpt lat="41.028803333" lon="-5.923606667">
        <time>2022-06-28T10:59:51Z</time>
      </trkpt>
      <trkpt lat="41.028815000" lon="-5.923543333">
        <time>2022-06-28T10:59:52Z</time>
      </trkpt>
      <trkpt lat="41.028825000" lon="-5.923481667">
        <time>2022-06-28T10:59:53Z</time>
      </trkpt>
      <trkpt lat="41.028836667" lon="-5.923420000">
        <time>2022-06-28T10:59:54Z</time>
      </trkpt>
      <trkpt lat="41.028846667" lon="-5.923358333">
        <time>2022-06-28T10:59:55Z</time>
      </trkpt>
      <trkpt lat="41.028856667" lon="-5.923296667">
        <time>2022-06-28T10:59:56Z</time>
      </trkpt>
      <trkpt lat="41.028866667" lon="-5.923236667">
        <time>2022-06-28T10:59:57Z</time>
      </trkpt>
      <trkpt lat="41.028876667" lon="-5.923176667">
        <time>2022-06-28T10:59:58Z</time>
      </trkpt>
      <trkpt lat="41.028886667" lon="-5.923115000">
        <time>2022-06-28T10:59:59Z</time>
      </trkpt>
      <trkpt lat="41.028896667" lon="-5.923055000">
        <time>2022-06-28T11:00:00Z</time>
      </trkpt>
      <trkpt lat="41.028906667" lon="-5.922993333">
        <time>2022-06-28T11:00:01Z</time>
      </trkpt>
      <trkpt lat="41.028916667" lon="-5.922930000">
        <time>2022-06-28T11:00:02Z</time>
      </trkpt>
      <trkpt lat="41.028926667" lon="-5.922866667">
        <time>2022-06-28T11:00:03Z</time>
      </trkpt>
      <trkpt lat="41.028938333" lon="-5.922803333">
        <time>2022-06-28T11:00:04Z</time>
      </trkpt>
      <trkpt lat="41.028950000" lon="-5.922741667">
        <time>2022-06-28T11:00:05Z</time>
      </trkpt>
      <trkpt lat="41.028960000" lon="-5.922678333">
        <time>2022-06-28T11:00:06Z</time>
      </trkpt>
      <trkpt lat="41.028970000" lon="-5.922616667">
        <time>2022-06-28T11:00:07Z</time>
      </trkpt>
      <trkpt lat="41.028981667" lon="-5.922555000">
        <time>2022-06-28T11:00:08Z</time>
      </trkpt>
      <trkpt lat="41.028991667" lon="-5.922495000">
        <time>2022-06-28T11:00:09Z</time>
      </trkpt>
      <trkpt lat="41.029001667" lon="-5.922436667">
        <time>2022-06-28T11:00:10Z</time>
      </trkpt>
      <trkpt lat="41.029010000" lon="-5.922376667">
        <time>2022-06-28T11:00:11Z</time>
      </trkpt>
      <trkpt lat="41.029018333" lon="-5.922316667">
        <time>2022-06-28T11:00:12Z</time>
      </trkpt>
      <trkpt lat="41.029028333" lon="-5.922256667">
        <time>2022-06-28T11:00:13Z</time>
      </trkpt>
      <trkpt lat="41.029038333" lon="-5.922196667">
        <time>2022-06-28T11:00:14Z</time>
      </trkpt>
      <trkpt lat="41.029050000" lon="-5.922135000">
        <time>2022-06-28T11:00:15Z</time>
      </trkpt>
      <trkpt lat="41.029060000" lon="-5.922073333">
        <time>2022-06-28T11:00:16Z</time>
      </trkpt>
      <trkpt lat="41.029070000" lon="-5.922011667">
        <time>2022-06-28T11:00:17Z</time>
      </trkpt>
      <trkpt lat="41.029081667" lon="-5.921951667">
        <time>2022-06-28T11:00:18Z</time>
      </trkpt>
      <trkpt lat="41.029095000" lon="-5.921891667">
        <time>2022-06-28T11:00:19Z</time>
      </trkpt>
      <trkpt lat="41.029105000" lon="-5.921830000">
        <time>2022-06-28T11:00:20Z</time>
      </trkpt>
      <trkpt lat="41.029113333" lon="-5.921768333">
        <time>2022-06-28T11:00:21Z</time>
      </trkpt>
      <trkpt lat="41.029121667" lon="-5.921706667">
        <time>2022-06-28T11:00:22Z</time>
      </trkpt>
      <trkpt lat="41.029130000" lon="-5.921645000">
        <time>2022-06-28T11:00:23Z</time>
      </trkpt>
      <trkpt lat="41.029138333" lon="-5.921583333">
        <time>2022-06-28T11:00:24Z</time>
      </trkpt>
      <trkpt lat="41.029148333" lon="-5.921521667">
        <time>2022-06-28T11:00:25Z</time>
      </trkpt>
      <trkpt lat="41.029160000" lon="-5.921458333">
        <time>2022-06-28T11:00:26Z</time>
      </trkpt>
      <trkpt lat="41.029170000" lon="-5.921396667">
        <time>2022-06-28T11:00:27Z</time>
      </trkpt>
      <trkpt lat="41.029180000" lon="-5.921335000">
        <time>2022-06-28T11:00:28Z</time>
      </trkpt>
      <trkpt lat="41.029191667" lon="-5.921273333">
        <time>2022-06-28T11:00:29Z</time>
      </trkpt>
      <trkpt lat="41.029201667" lon="-5.921211667">
        <time>2022-06-28T11:00:30Z</time>
      </trkpt>
      <trkpt lat="41.029211667" lon="-5.921150000">
        <time>2022-06-28T11:00:31Z</time>
      </trkpt>
      <trkpt lat="41.029221667" lon="-5.921086667">
        <time>2022-06-28T11:00:32Z</time>
      </trkpt>
      <trkpt lat="41.029233333" lon="-5.921023333">
        <time>2022-06-28T11:00:33Z</time>
      </trkpt>
      <trkpt lat="41.029243333" lon="-5.920960000">
        <time>2022-06-28T11:00:34Z</time>
      </trkpt>
      <trkpt lat="41.029255000" lon="-5.920896667">
        <time>2022-06-28T11:00:35Z</time>
      </trkpt>
      <trkpt lat="41.029265000" lon="-5.920833333">
        <time>2022-06-28T11:00:36Z</time>
      </trkpt>
      <trkpt lat="41.029275000" lon="-5.920770000">
        <time>2022-06-28T11:00:37Z</time>
      </trkpt>
      <trkpt lat="41.029285000" lon="-5.920706667">
        <time>2022-06-28T11:00:38Z</time>
      </trkpt>
      <trkpt lat="41.029295000" lon="-5.920643333">
        <time>2022-06-28T11:00:39Z</time>
      </trkpt>
      <trkpt lat="41.029306667" lon="-5.920580000">
        <time>2022-06-28T11:00:40Z</time>
      </trkpt>
      <trkpt lat="41.029316667" lon="-5.920516667">
        <time>2022-06-28T11:00:41Z</time>
      </trkpt>
      <trkpt lat="41.029326667" lon="-5.920453333">
        <time>2022-06-28T11:00:42Z</time>
      </trkpt>
      <trkpt lat="41.029338333" lon="-5.920390000">
        <time>2022-06-28T11:00:43Z</time>
      </trkpt>
      <trkpt lat="41.029350000" lon="-5.920326667">
        <time>2022-06-28T11:00:44Z</time>
      </trkpt>
      <trkpt lat="41.029361667" lon="-5.920260000">
        <time>2022-06-28T11:00:45Z</time>
      </trkpt>
      <trkpt lat="41.029373333" lon="-5.920191667">
        <time>2022-06-28T11:00:46Z</time>
      </trkpt>
      <trkpt lat="41.029383333" lon="-5.920121667">
        <time>2022-06-28T11:00:47Z</time>
      </trkpt>
      <trkpt lat="41.029395000" lon="-5.920048333">
        <time>2022-06-28T11:00:48Z</time>
      </trkpt>
      <trkpt lat="41.029406667" lon="-5.919973333">
        <time>2022-06-28T11:00:49Z</time>
      </trkpt>
      <trkpt lat="41.029418333" lon="-5.919898333">
        <time>2022-06-28T11:00:50Z</time>
      </trkpt>
      <trkpt lat="41.029430000" lon="-5.919821667">
        <time>2022-06-28T11:00:51Z</time>
      </trkpt>
      <trkpt lat="41.029441667" lon="-5.919745000">
        <time>2022-06-28T11:00:52Z</time>
      </trkpt>
      <trkpt lat="41.029455000" lon="-5.919670000">
        <time>2022-06-28T11:00:53Z</time>
      </trkpt>
      <trkpt lat="41.029468333" lon="-5.919593333">
        <time>2022-06-28T11:00:54Z</time>
      </trkpt>
      <trkpt lat="41.029481667" lon="-5.919518333">
        <time>2022-06-28T11:00:55Z</time>
      </trkpt>
      <trkpt lat="41.029495000" lon="-5.919441667">
        <time>2022-06-28T11:00:56Z</time>
      </trkpt>
      <trkpt lat="41.029506667" lon="-5.919363333">
        <time>2022-06-28T11:00:57Z</time>
      </trkpt>
      <trkpt lat="41.029520000" lon="-5.919286667">
        <time>2022-06-28T11:00:58Z</time>
      </trkpt>
      <trkpt lat="41.029533333" lon="-5.919211667">
        <time>2022-06-28T11:00:59Z</time>
      </trkpt>
      <trkpt lat="41.029546667" lon="-5.919135000">
        <time>2022-06-28T11:01:00Z</time>
      </trkpt>
      <trkpt lat="41.029558333" lon="-5.919058333">
        <time>2022-06-28T11:01:01Z</time>
      </trkpt>
      <trkpt lat="41.029571667" lon="-5.918981667">
        <time>2022-06-28T11:01:02Z</time>
      </trkpt>
      <trkpt lat="41.029583333" lon="-5.918905000">
        <time>2022-06-28T11:01:03Z</time>
      </trkpt>
      <trkpt lat="41.029598333" lon="-5.918828333">
        <time>2022-06-28T11:01:04Z</time>
      </trkpt>
      <trkpt lat="41.029608333" lon="-5.918750000">
        <time>2022-06-28T11:01:05Z</time>
      </trkpt>
      <trkpt lat="41.029621667" lon="-5.918671667">
        <time>2022-06-28T11:01:06Z</time>
      </trkpt>
      <trkpt lat="41.029635000" lon="-5.918595000">
        <time>2022-06-28T11:01:07Z</time>
      </trkpt>
      <trkpt lat="41.029648333" lon="-5.918516667">
        <time>2022-06-28T11:01:08Z</time>
      </trkpt>
      <trkpt lat="41.029661667" lon="-5.918438333">
        <time>2022-06-28T11:01:09Z</time>
      </trkpt>
      <trkpt lat="41.029675000" lon="-5.918360000">
        <time>2022-06-28T11:01:10Z</time>
      </trkpt>
      <trkpt lat="41.029686667" lon="-5.918281667">
        <time>2022-06-28T11:01:11Z</time>
      </trkpt>
      <trkpt lat="41.029700000" lon="-5.918201667">
        <time>2022-06-28T11:01:12Z</time>
      </trkpt>
      <trkpt lat="41.029713333" lon="-5.918120000">
        <time>2022-06-28T11:01:13Z</time>
      </trkpt>
      <trkpt lat="41.029726667" lon="-5.918036667">
        <time>2022-06-28T11:01:14Z</time>
      </trkpt>
      <trkpt lat="41.029741667" lon="-5.917948333">
        <time>2022-06-28T11:01:15Z</time>
      </trkpt>
      <trkpt lat="41.029756667" lon="-5.917858333">
        <time>2022-06-28T11:01:16Z</time>
      </trkpt>
      <trkpt lat="41.029770000" lon="-5.917765000">
        <time>2022-06-28T11:01:17Z</time>
      </trkpt>
      <trkpt lat="41.029785000" lon="-5.917670000">
        <time>2022-06-28T11:01:18Z</time>
      </trkpt>
      <trkpt lat="41.029800000" lon="-5.917573333">
        <time>2022-06-28T11:01:19Z</time>
      </trkpt>
      <trkpt lat="41.029816667" lon="-5.917476667">
        <time>2022-06-28T11:01:20Z</time>
      </trkpt>
      <trkpt lat="41.029833333" lon="-5.917378333">
        <time>2022-06-28T11:01:21Z</time>
      </trkpt>
      <trkpt lat="41.029848333" lon="-5.917280000">
        <time>2022-06-28T11:01:22Z</time>
      </trkpt>
      <trkpt lat="41.029865000" lon="-5.917178333">
        <time>2022-06-28T11:01:23Z</time>
      </trkpt>
      <trkpt lat="41.029881667" lon="-5.917078333">
        <time>2022-06-28T11:01:24Z</time>
      </trkpt>
      <trkpt lat="41.029900000" lon="-5.916975000">
        <time>2022-06-28T11:01:25Z</time>
      </trkpt>
      <trkpt lat="41.029916667" lon="-5.916873333">
        <time>2022-06-28T11:01:26Z</time>
      </trkpt>
      <trkpt lat="41.029933333" lon="-5.916770000">
        <time>2022-06-28T11:01:27Z</time>
      </trkpt>
      <trkpt lat="41.029950000" lon="-5.916668333">
        <time>2022-06-28T11:01:28Z</time>
      </trkpt>
      <trkpt lat="41.029966667" lon="-5.916566667">
        <time>2022-06-28T11:01:29Z</time>
      </trkpt>
      <trkpt lat="41.029980000" lon="-5.916465000">
        <time>2022-06-28T11:01:30Z</time>
      </trkpt>
      <trkpt lat="41.029998333" lon="-5.916366667">
        <time>2022-06-28T11:01:31Z</time>
      </trkpt>
      <trkpt lat="41.030015000" lon="-5.916268333">
        <time>2022-06-28T11:01:32Z</time>
      </trkpt>
      <trkpt lat="41.030031667" lon="-5.916171667">
        <time>2022-06-28T11:01:33Z</time>
      </trkpt>
      <trkpt lat="41.030050000" lon="-5.916083333">
        <time>2022-06-28T11:01:34Z</time>
      </trkpt>
      <trkpt lat="41.030065000" lon="-5.915986667">
        <time>2022-06-28T11:01:35Z</time>
      </trkpt>
      <trkpt lat="41.030080000" lon="-5.915895000">
        <time>2022-06-28T11:01:36Z</time>
      </trkpt>
      <trkpt lat="41.030096667" lon="-5.915806667">
        <time>2022-06-28T11:01:37Z</time>
      </trkpt>
      <trkpt lat="41.030111667" lon="-5.915716667">
        <time>2022-06-28T11:01:38Z</time>
      </trkpt>
      <trkpt lat="41.030128333" lon="-5.915626667">
        <time>2022-06-28T11:01:39Z</time>
      </trkpt>
      <trkpt lat="41.030143333" lon="-5.915536667">
        <time>2022-06-28T11:01:40Z</time>
      </trkpt>
      <trkpt lat="41.030158333" lon="-5.915446667">
        <time>2022-06-28T11:01:41Z</time>
      </trkpt>
      <trkpt lat="41.030171667" lon="-5.915355000">
        <time>2022-06-28T11:01:42Z</time>
      </trkpt>
      <trkpt lat="41.030185000" lon="-5.915261667">
        <time>2022-06-28T11:01:43Z</time>
      </trkpt>
      <trkpt lat="41.030200000" lon="-5.915170000">
        <time>2022-06-28T11:01:44Z</time>
      </trkpt>
      <trkpt lat="41.030215000" lon="-5.915078333">
        <time>2022-06-28T11:01:45Z</time>
      </trkpt>
      <trkpt lat="41.030230000" lon="-5.914986667">
        <time>2022-06-28T11:01:46Z</time>
      </trkpt>
      <trkpt lat="41.030246667" lon="-5.914896667">
        <time>2022-06-28T11:01:47Z</time>
      </trkpt>
      <trkpt lat="41.030261667" lon="-5.914806667">
        <time>2022-06-28T11:01:48Z</time>
      </trkpt>
      <trkpt lat="41.030276667" lon="-5.914716667">
        <time>2022-06-28T11:01:49Z</time>
      </trkpt>
      <trkpt lat="41.030290000" lon="-5.914628333">
        <time>2022-06-28T11:01:50Z</time>
      </trkpt>
      <trkpt lat="41.030306667" lon="-5.914536667">
        <time>2022-06-28T11:01:51Z</time>
      </trkpt>
      <trkpt lat="41.030321667" lon="-5.914446667">
        <time>2022-06-28T11:01:52Z</time>
      </trkpt>
      <trkpt lat="41.030336667" lon="-5.914356667">
        <time>2022-06-28T11:01:53Z</time>
      </trkpt>
      <trkpt lat="41.030353333" lon="-5.914266667">
        <time>2022-06-28T11:01:54Z</time>
      </trkpt>
      <trkpt lat="41.030368333" lon="-5.914176667">
        <time>2022-06-28T11:01:55Z</time>
      </trkpt>
      <trkpt lat="41.030383333" lon="-5.914086667">
        <time>2022-06-28T11:01:56Z</time>
      </trkpt>
      <trkpt lat="41.030396667" lon="-5.913995000">
        <time>2022-06-28T11:01:57Z</time>
      </trkpt>
      <trkpt lat="41.030410000" lon="-5.913905000">
        <time>2022-06-28T11:01:58Z</time>
      </trkpt>
      <trkpt lat="41.030423333" lon="-5.913813333">
        <time>2022-06-28T11:01:59Z</time>
      </trkpt>
      <trkpt lat="41.030436667" lon="-5.913723333">
        <time>2022-06-28T11:02:00Z</time>
      </trkpt>
      <trkpt lat="41.030450000" lon="-5.913631667">
        <time>2022-06-28T11:02:01Z</time>
      </trkpt>
      <trkpt lat="41.030460000" lon="-5.913540000">
        <time>2022-06-28T11:02:02Z</time>
      </trkpt>
      <trkpt lat="41.030470000" lon="-5.913448333">
        <time>2022-06-28T11:02:03Z</time>
      </trkpt>
      <trkpt lat="41.030480000" lon="-5.913355000">
        <time>2022-06-28T11:02:04Z</time>
      </trkpt>
      <trkpt lat="41.030488333" lon="-5.913261667">
        <time>2022-06-28T11:02:05Z</time>
      </trkpt>
      <trkpt lat="41.030493333" lon="-5.913166667">
        <time>2022-06-28T11:02:06Z</time>
      </trkpt>
      <trkpt lat="41.030498333" lon="-5.913071667">
        <time>2022-06-28T11:02:07Z</time>
      </trkpt>
      <trkpt lat="41.030501667" lon="-5.912975000">
        <time>2022-06-28T11:02:08Z</time>
      </trkpt>
      <trkpt lat="41.030503333" lon="-5.912880000">
        <time>2022-06-28T11:02:09Z</time>
      </trkpt>
      <trkpt lat="41.030503333" lon="-5.912783333">
        <time>2022-06-28T11:02:10Z</time>
      </trkpt>
      <trkpt lat="41.030501667" lon="-5.912686667">
        <time>2022-06-28T11:02:11Z</time>
      </trkpt>
      <trkpt lat="41.030498333" lon="-5.912590000">
        <time>2022-06-28T11:02:12Z</time>
      </trkpt>
      <trkpt lat="41.030495000" lon="-5.912495000">
        <time>2022-06-28T11:02:13Z</time>
      </trkpt>
      <trkpt lat="41.030486667" lon="-5.912400000">
        <time>2022-06-28T11:02:14Z</time>
      </trkpt>
      <trkpt lat="41.030481667" lon="-5.912306667">
        <time>2022-06-28T11:02:15Z</time>
      </trkpt>
      <trkpt lat="41.030471667" lon="-5.912211667">
        <time>2022-06-28T11:02:16Z</time>
      </trkpt>
      <trkpt lat="41.030461667" lon="-5.912120000">
        <time>2022-06-28T11:02:17Z</time>
      </trkpt>
      <trkpt lat="41.030450000" lon="-5.912026667">
        <time>2022-06-28T11:02:18Z</time>
      </trkpt>
      <trkpt lat="41.030438333" lon="-5.911936667">
        <time>2022-06-28T11:02:19Z</time>
      </trkpt>
      <trkpt lat="41.030425000" lon="-5.911845000">
        <time>2022-06-28T11:02:20Z</time>
      </trkpt>
      <trkpt lat="41.030413333" lon="-5.911755000">
        <time>2022-06-28T11:02:21Z</time>
      </trkpt>
      <trkpt lat="41.030398333" lon="-5.911666667">
        <time>2022-06-28T11:02:22Z</time>
      </trkpt>
      <trkpt lat="41.030383333" lon="-5.911576667">
        <time>2022-06-28T11:02:23Z</time>
      </trkpt>
      <trkpt lat="41.030366667" lon="-5.911488333">
        <time>2022-06-28T11:02:24Z</time>
      </trkpt>
      <trkpt lat="41.030351667" lon="-5.911400000">
        <time>2022-06-28T11:02:25Z</time>
      </trkpt>
      <trkpt lat="41.030333333" lon="-5.911313333">
        <time>2022-06-28T11:02:26Z</time>
      </trkpt>
      <trkpt lat="41.030318333" lon="-5.911225000">
        <time>2022-06-28T11:02:27Z</time>
      </trkpt>
      <trkpt lat="41.030301667" lon="-5.911138333">
        <time>2022-06-28T11:02:28Z</time>
      </trkpt>
      <trkpt lat="41.030285000" lon="-5.911051667">
        <time>2022-06-28T11:02:29Z</time>
      </trkpt>
      <trkpt lat="41.030268333" lon="-5.910965000">
        <time>2022-06-28T11:02:30Z</time>
      </trkpt>
      <trkpt lat="41.030250000" lon="-5.910880000">
        <time>2022-06-28T11:02:31Z</time>
      </trkpt>
      <trkpt lat="41.030233333" lon="-5.910795000">
        <time>2022-06-28T11:02:32Z</time>
      </trkpt>
      <trkpt lat="41.030216667" lon="-5.910711667">
        <time>2022-06-28T11:02:33Z</time>
      </trkpt>
      <trkpt lat="41.030201667" lon="-5.910628333">
        <time>2022-06-28T11:02:34Z</time>
      </trkpt>
      <trkpt lat="41.030185000" lon="-5.910546667">
        <time>2022-06-28T11:02:35Z</time>
      </trkpt>
      <trkpt lat="41.030166667" lon="-5.910465000">
        <time>2022-06-28T11:02:36Z</time>
      </trkpt>
      <trkpt lat="41.030150000" lon="-5.910383333">
        <time>2022-06-28T11:02:37Z</time>
      </trkpt>
      <trkpt lat="41.030133333" lon="-5.910301667">
        <time>2022-06-28T11:02:38Z</time>
      </trkpt>
      <trkpt lat="41.030116667" lon="-5.910221667">
        <time>2022-06-28T11:02:39Z</time>
      </trkpt>
      <trkpt lat="41.030101667" lon="-5.910140000">
        <time>2022-06-28T11:02:40Z</time>
      </trkpt>
      <trkpt lat="41.030085000" lon="-5.910058333">
        <time>2022-06-28T11:02:41Z</time>
      </trkpt>
      <trkpt lat="41.030068333" lon="-5.909980000">
        <time>2022-06-28T11:02:42Z</time>
      </trkpt>
      <trkpt lat="41.030053333" lon="-5.909898333">
        <time>2022-06-28T11:02:43Z</time>
      </trkpt>
      <trkpt lat="41.030035000" lon="-5.909820000">
        <time>2022-06-28T11:02:44Z</time>
      </trkpt>
      <trkpt lat="41.030018333" lon="-5.909740000">
        <time>2022-06-28T11:02:45Z</time>
      </trkpt>
      <trkpt lat="41.030003333" lon="-5.909660000">
        <time>2022-06-28T11:02:46Z</time>
      </trkpt>
      <trkpt lat="41.029988333" lon="-5.909578333">
        <time>2022-06-28T11:02:47Z</time>
      </trkpt>
      <trkpt lat="41.029971667" lon="-5.909498333">
        <time>2022-06-28T11:02:48Z</time>
      </trkpt>
      <trkpt lat="41.029955000" lon="-5.909416667">
        <time>2022-06-28T11:02:49Z</time>
      </trkpt>
      <trkpt lat="41.029936667" lon="-5.909333333">
        <time>2022-06-28T11:02:50Z</time>
      </trkpt>
      <trkpt lat="41.029920000" lon="-5.909248333">
        <time>2022-06-28T11:02:51Z</time>
      </trkpt>
      <trkpt lat="41.029908333" lon="-5.909171667">
        <time>2022-06-28T11:02:52Z</time>
      </trkpt>
      <trkpt lat="41.029890000" lon="-5.909090000">
        <time>2022-06-28T11:02:53Z</time>
      </trkpt>
      <trkpt lat="41.029868333" lon="-5.909005000">
        <time>2022-06-28T11:02:54Z</time>
      </trkpt>
      <trkpt lat="41.029846667" lon="-5.908920000">
        <time>2022-06-28T11:02:55Z</time>
      </trkpt>
      <trkpt lat="41.029830000" lon="-5.908833333">
        <time>2022-06-28T11:02:56Z</time>
      </trkpt>
      <trkpt lat="41.029813333" lon="-5.908748333">
        <time>2022-06-28T11:02:57Z</time>
      </trkpt>
      <trkpt lat="41.029795000" lon="-5.908665000">
        <time>2022-06-28T11:02:58Z</time>
      </trkpt>
      <trkpt lat="41.029776667" lon="-5.908581667">
        <time>2022-06-28T11:02:59Z</time>
      </trkpt>
      <trkpt lat="41.029758333" lon="-5.908498333">
        <time>2022-06-28T11:03:00Z</time>
      </trkpt>
      <trkpt lat="41.029740000" lon="-5.908411667">
        <time>2022-06-28T11:03:01Z</time>
      </trkpt>
      <trkpt lat="41.029723333" lon="-5.908326667">
        <time>2022-06-28T11:03:02Z</time>
      </trkpt>
      <trkpt lat="41.029708333" lon="-5.908240000">
        <time>2022-06-28T11:03:03Z</time>
      </trkpt>
      <trkpt lat="41.029691667" lon="-5.908155000">
        <time>2022-06-28T11:03:04Z</time>
      </trkpt>
      <trkpt lat="41.029675000" lon="-5.908073333">
        <time>2022-06-28T11:03:05Z</time>
      </trkpt>
      <trkpt lat="41.029660000" lon="-5.907993333">
        <time>2022-06-28T11:03:06Z</time>
      </trkpt>
      <trkpt lat="41.029643333" lon="-5.907913333">
        <time>2022-06-28T11:03:07Z</time>
      </trkpt>
      <trkpt lat="41.029628333" lon="-5.907833333">
        <time>2022-06-28T11:03:08Z</time>
      </trkpt>
      <trkpt lat="41.029611667" lon="-5.907753333">
        <time>2022-06-28T11:03:09Z</time>
      </trkpt>
      <trkpt lat="41.029595000" lon="-5.907675000">
        <time>2022-06-28T11:03:10Z</time>
      </trkpt>
      <trkpt lat="41.029578333" lon="-5.907596667">
        <time>2022-06-28T11:03:11Z</time>
      </trkpt>
      <trkpt lat="41.029561667" lon="-5.907518333">
        <time>2022-06-28T11:03:12Z</time>
      </trkpt>
      <trkpt lat="41.029545000" lon="-5.907440000">
        <time>2022-06-28T11:03:13Z</time>
      </trkpt>
      <trkpt lat="41.029528333" lon="-5.907358333">
        <time>2022-06-28T11:03:14Z</time>
      </trkpt>
      <trkpt lat="41.029511667" lon="-5.907278333">
        <time>2022-06-28T11:03:15Z</time>
      </trkpt>
      <trkpt lat="41.029496667" lon="-5.907196667">
        <time>2022-06-28T11:03:16Z</time>
      </trkpt>
      <trkpt lat="41.029481667" lon="-5.907116667">
        <time>2022-06-28T11:03:17Z</time>
      </trkpt>
      <trkpt lat="41.029466667" lon="-5.907036667">
        <time>2022-06-28T11:03:18Z</time>
      </trkpt>
      <trkpt lat="41.029451667" lon="-5.906955000">
        <time>2022-06-28T11:03:19Z</time>
      </trkpt>
      <trkpt lat="41.029433333" lon="-5.906875000">
        <time>2022-06-28T11:03:20Z</time>
      </trkpt>
      <trkpt lat="41.029415000" lon="-5.906796667">
        <time>2022-06-28T11:03:21Z</time>
      </trkpt>
      <trkpt lat="41.029398333" lon="-5.906715000">
        <time>2022-06-28T11:03:22Z</time>
      </trkpt>
      <trkpt lat="41.029381667" lon="-5.906635000">
        <time>2022-06-28T11:03:23Z</time>
      </trkpt>
      <trkpt lat="41.029365000" lon="-5.906551667">
        <time>2022-06-28T11:03:24Z</time>
      </trkpt>
      <trkpt lat="41.029348333" lon="-5.906470000">
        <time>2022-06-28T11:03:25Z</time>
      </trkpt>
      <trkpt lat="41.029333333" lon="-5.906388333">
        <time>2022-06-28T11:03:26Z</time>
      </trkpt>
      <trkpt lat="41.029315000" lon="-5.906305000">
        <time>2022-06-28T11:03:27Z</time>
      </trkpt>
      <trkpt lat="41.029298333" lon="-5.906223333">
        <time>2022-06-28T11:03:28Z</time>
      </trkpt>
      <trkpt lat="41.029280000" lon="-5.906140000">
        <time>2022-06-28T11:03:29Z</time>
      </trkpt>
      <trkpt lat="41.029261667" lon="-5.906058333">
        <time>2022-06-28T11:03:30Z</time>
      </trkpt>
      <trkpt lat="41.029246667" lon="-5.905975000">
        <time>2022-06-28T11:03:31Z</time>
      </trkpt>
      <trkpt lat="41.029231667" lon="-5.905893333">
        <time>2022-06-28T11:03:32Z</time>
      </trkpt>
      <trkpt lat="41.029216667" lon="-5.905811667">
        <time>2022-06-28T11:03:33Z</time>
      </trkpt>
      <trkpt lat="41.029200000" lon="-5.905730000">
        <time>2022-06-28T11:03:34Z</time>
      </trkpt>
      <trkpt lat="41.029183333" lon="-5.905650000">
        <time>2022-06-28T11:03:35Z</time>
      </trkpt>
      <trkpt lat="41.029168333" lon="-5.905568333">
        <time>2022-06-28T11:03:36Z</time>
      </trkpt>
      <trkpt lat="41.029151667" lon="-5.905488333">
        <time>2022-06-28T11:03:37Z</time>
      </trkpt>
      <trkpt lat="41.029136667" lon="-5.905410000">
        <time>2022-06-28T11:03:38Z</time>
      </trkpt>
      <trkpt lat="41.029120000" lon="-5.905331667">
        <time>2022-06-28T11:03:39Z</time>
      </trkpt>
      <trkpt lat="41.029101667" lon="-5.905253333">
        <time>2022-06-28T11:03:40Z</time>
      </trkpt>
      <trkpt lat="41.029085000" lon="-5.905175000">
        <time>2022-06-28T11:03:41Z</time>
      </trkpt>
      <trkpt lat="41.029071667" lon="-5.905095000">
        <time>2022-06-28T11:03:42Z</time>
      </trkpt>
      <trkpt lat="41.029058333" lon="-5.905013333">
        <time>2022-06-28T11:03:43Z</time>
      </trkpt>
      <trkpt lat="41.029043333" lon="-5.904931667">
        <time>2022-06-28T11:03:44Z</time>
      </trkpt>
      <trkpt lat="41.029030000" lon="-5.904848333">
        <time>2022-06-28T11:03:45Z</time>
      </trkpt>
      <trkpt lat="41.029016667" lon="-5.904765000">
        <time>2022-06-28T11:03:46Z</time>
      </trkpt>
      <trkpt lat="41.029003333" lon="-5.904680000">
        <time>2022-06-28T11:03:47Z</time>
      </trkpt>
      <trkpt lat="41.028990000" lon="-5.904595000">
        <time>2022-06-28T11:03:48Z</time>
      </trkpt>
      <trkpt lat="41.028978333" lon="-5.904508333">
        <time>2022-06-28T11:03:49Z</time>
      </trkpt>
      <trkpt lat="41.028968333" lon="-5.904421667">
        <time>2022-06-28T11:03:50Z</time>
      </trkpt>
      <trkpt lat="41.028956667" lon="-5.904331667">
        <time>2022-06-28T11:03:51Z</time>
      </trkpt>
      <trkpt lat="41.028948333" lon="-5.904246667">
        <time>2022-06-28T11:03:52Z</time>
      </trkpt>
      <trkpt lat="41.028940000" lon="-5.904155000">
        <time>2022-06-28T11:03:53Z</time>
      </trkpt>
      <trkpt lat="41.028933333" lon="-5.904068333">
        <time>2022-06-28T11:03:54Z</time>
      </trkpt>
      <trkpt lat="41.028928333" lon="-5.903980000">
        <time>2022-06-28T11:03:55Z</time>
      </trkpt>
      <trkpt lat="41.028925000" lon="-5.903890000">
        <time>2022-06-28T11:03:56Z</time>
      </trkpt>
      <trkpt lat="41.028921667" lon="-5.903800000">
        <time>2022-06-28T11:03:57Z</time>
      </trkpt>
      <trkpt lat="41.028918333" lon="-5.903710000">
        <time>2022-06-28T11:03:58Z</time>
      </trkpt>
      <trkpt lat="41.028915000" lon="-5.903620000">
        <time>2022-06-28T11:03:59Z</time>
      </trkpt>
      <trkpt lat="41.028913333" lon="-5.903531667">
        <time>2022-06-28T11:04:00Z</time>
      </trkpt>
      <trkpt lat="41.028913333" lon="-5.903441667">
        <time>2022-06-28T11:04:01Z</time>
      </trkpt>
      <trkpt lat="41.028911667" lon="-5.903353333">
        <time>2022-06-28T11:04:02Z</time>
      </trkpt>
      <trkpt lat="41.028910000" lon="-5.903265000">
        <time>2022-06-28T11:04:03Z</time>
      </trkpt>
      <trkpt lat="41.028908333" lon="-5.903178333">
        <time>2022-06-28T11:04:04Z</time>
      </trkpt>
      <trkpt lat="41.028908333" lon="-5.903090000">
        <time>2022-06-28T11:04:05Z</time>
      </trkpt>
      <trkpt lat="41.028908333" lon="-5.903001667">
        <time>2022-06-28T11:04:06Z</time>
      </trkpt>
      <trkpt lat="41.028906667" lon="-5.902911667">
        <time>2022-06-28T11:04:07Z</time>
      </trkpt>
      <trkpt lat="41.028903333" lon="-5.902820000">
        <time>2022-06-28T11:04:08Z</time>
      </trkpt>
      <trkpt lat="41.028901667" lon="-5.902726667">
        <time>2022-06-28T11:04:09Z</time>
      </trkpt>
      <trkpt lat="41.028900000" lon="-5.902633333">
        <time>2022-06-28T11:04:10Z</time>
      </trkpt>
      <trkpt lat="41.028900000" lon="-5.902540000">
        <time>2022-06-28T11:04:11Z</time>
      </trkpt>
      <trkpt lat="41.028898333" lon="-5.902446667">
        <time>2022-06-28T11:04:12Z</time>
      </trkpt>
      <trkpt lat="41.028895000" lon="-5.902353333">
        <time>2022-06-28T11:04:13Z</time>
      </trkpt>
      <trkpt lat="41.028893333" lon="-5.902261667">
        <time>2022-06-28T11:04:14Z</time>
      </trkpt>
      <trkpt lat="41.028888333" lon="-5.902173333">
        <time>2022-06-28T11:04:15Z</time>
      </trkpt>
      <trkpt lat="41.028885000" lon="-5.902083333">
        <time>2022-06-28T11:04:16Z</time>
      </trkpt>
      <trkpt lat="41.028883333" lon="-5.901988333">
        <time>2022-06-28T11:04:17Z</time>
      </trkpt>
      <trkpt lat="41.028880000" lon="-5.901898333">
        <time>2022-06-28T11:04:18Z</time>
      </trkpt>
      <trkpt lat="41.028880000" lon="-5.901806667">
        <time>2022-06-28T11:04:19Z</time>
      </trkpt>
      <trkpt lat="41.028880000" lon="-5.901718333">
        <time>2022-06-28T11:04:20Z</time>
      </trkpt>
      <trkpt lat="41.028880000" lon="-5.901628333">
        <time>2022-06-28T11:04:21Z</time>
      </trkpt>
      <trkpt lat="41.028880000" lon="-5.901538333">
        <time>2022-06-28T11:04:22Z</time>
      </trkpt>
      <trkpt lat="41.028878333" lon="-5.901450000">
        <time>2022-06-28T11:04:23Z</time>
      </trkpt>
      <trkpt lat="41.028876667" lon="-5.901361667">
        <time>2022-06-28T11:04:24Z</time>
      </trkpt>
      <trkpt lat="41.028873333" lon="-5.901273333">
        <time>2022-06-28T11:04:25Z</time>
      </trkpt>
      <trkpt lat="41.028871667" lon="-5.901186667">
        <time>2022-06-28T11:04:26Z</time>
      </trkpt>
      <trkpt lat="41.028870000" lon="-5.901101667">
        <time>2022-06-28T11:04:27Z</time>
      </trkpt>
      <trkpt lat="41.028870000" lon="-5.901015000">
        <time>2022-06-28T11:04:28Z</time>
      </trkpt>
      <trkpt lat="41.028868333" lon="-5.900930000">
        <time>2022-06-28T11:04:29Z</time>
      </trkpt>
      <trkpt lat="41.028868333" lon="-5.900845000">
        <time>2022-06-28T11:04:30Z</time>
      </trkpt>
      <trkpt lat="41.028866667" lon="-5.900760000">
        <time>2022-06-28T11:04:31Z</time>
      </trkpt>
      <trkpt lat="41.028866667" lon="-5.900675000">
        <time>2022-06-28T11:04:32Z</time>
      </trkpt>
      <trkpt lat="41.028865000" lon="-5.900591667">
        <time>2022-06-28T11:04:33Z</time>
      </trkpt>
      <trkpt lat="41.028863333" lon="-5.900508333">
        <time>2022-06-28T11:04:34Z</time>
      </trkpt>
      <trkpt lat="41.028861667" lon="-5.900423333">
        <time>2022-06-28T11:04:35Z</time>
      </trkpt>
      <trkpt lat="41.028860000" lon="-5.900338333">
        <time>2022-06-28T11:04:36Z</time>
      </trkpt>
      <trkpt lat="41.028860000" lon="-5.900253333">
        <time>2022-06-28T11:04:37Z</time>
      </trkpt>
      <trkpt lat="41.028858333" lon="-5.900166667">
        <time>2022-06-28T11:04:38Z</time>
      </trkpt>
      <trkpt lat="41.028858333" lon="-5.900081667">
        <time>2022-06-28T11:04:39Z</time>
      </trkpt>
      <trkpt lat="41.028858333" lon="-5.899996667">
        <time>2022-06-28T11:04:40Z</time>
      </trkpt>
      <trkpt lat="41.028856667" lon="-5.899910000">
        <time>2022-06-28T11:04:41Z</time>
      </trkpt>
      <trkpt lat="41.028855000" lon="-5.899823333">
        <time>2022-06-28T11:04:42Z</time>
      </trkpt>
      <trkpt lat="41.028853333" lon="-5.899736667">
        <time>2022-06-28T11:04:43Z</time>
      </trkpt>
      <trkpt lat="41.028851667" lon="-5.899650000">
        <time>2022-06-28T11:04:44Z</time>
      </trkpt>
      <trkpt lat="41.028851667" lon="-5.899563333">
        <time>2022-06-28T11:04:45Z</time>
      </trkpt>
      <trkpt lat="41.028850000" lon="-5.899476667">
        <time>2022-06-28T11:04:46Z</time>
      </trkpt>
      <trkpt lat="41.028846667" lon="-5.899390000">
        <time>2022-06-28T11:04:47Z</time>
      </trkpt>
      <trkpt lat="41.028846667" lon="-5.899305000">
        <time>2022-06-28T11:04:48Z</time>
      </trkpt>
      <trkpt lat="41.028845000" lon="-5.899220000">
        <time>2022-06-28T11:04:49Z</time>
      </trkpt>
      <trkpt lat="41.028843333" lon="-5.899135000">
        <time>2022-06-28T11:04:50Z</time>
      </trkpt>
      <trkpt lat="41.028841667" lon="-5.899055000">
        <time>2022-06-28T11:04:51Z</time>
      </trkpt>
      <trkpt lat="41.028841667" lon="-5.898975000">
        <time>2022-06-28T11:04:52Z</time>
      </trkpt>
      <trkpt lat="41.028840000" lon="-5.898900000">
        <time>2022-06-28T11:04:53Z</time>
      </trkpt>
      <trkpt lat="41.028838333" lon="-5.898825000">
        <time>2022-06-28T11:04:54Z</time>
      </trkpt>
      <trkpt lat="41.028836667" lon="-5.898750000">
        <time>2022-06-28T11:04:55Z</time>
      </trkpt>
      <trkpt lat="41.028835000" lon="-5.898673333">
        <time>2022-06-28T11:04:56Z</time>
      </trkpt>
      <trkpt lat="41.028833333" lon="-5.898595000">
        <time>2022-06-28T11:04:57Z</time>
      </trkpt>
      <trkpt lat="41.028830000" lon="-5.898515000">
        <time>2022-06-28T11:04:58Z</time>
      </trkpt>
      <trkpt lat="41.028826667" lon="-5.898435000">
        <time>2022-06-28T11:04:59Z</time>
      </trkpt>
      <trkpt lat="41.028825000" lon="-5.898355000">
        <time>2022-06-28T11:05:00Z</time>
      </trkpt>
      <trkpt lat="41.028825000" lon="-5.898271667">
        <time>2022-06-28T11:05:01Z</time>
      </trkpt>
      <trkpt lat="41.028823333" lon="-5.898186667">
        <time>2022-06-28T11:05:02Z</time>
      </trkpt>
      <trkpt lat="41.028821667" lon="-5.898103333">
        <time>2022-06-28T11:05:03Z</time>
      </trkpt>
      <trkpt lat="41.028821667" lon="-5.898018333">
        <time>2022-06-28T11:05:04Z</time>
      </trkpt>
      <trkpt lat="41.028820000" lon="-5.897935000">
        <time>2022-06-28T11:05:05Z</time>
      </trkpt>
      <trkpt lat="41.028820000" lon="-5.897853333">
        <time>2022-06-28T11:05:06Z</time>
      </trkpt>
      <trkpt lat="41.028815000" lon="-5.897771667">
        <time>2022-06-28T11:05:07Z</time>
      </trkpt>
      <trkpt lat="41.028811667" lon="-5.897688333">
        <time>2022-06-28T11:05:08Z</time>
      </trkpt>
      <trkpt lat="41.028811667" lon="-5.897600000">
        <time>2022-06-28T11:05:09Z</time>
      </trkpt>
      <trkpt lat="41.028808333" lon="-5.897513333">
        <time>2022-06-28T11:05:10Z</time>
      </trkpt>
      <trkpt lat="41.028808333" lon="-5.897428333">
        <time>2022-06-28T11:05:11Z</time>
      </trkpt>
      <trkpt lat="41.028806667" lon="-5.897341667">
        <time>2022-06-28T11:05:12Z</time>
      </trkpt>
      <trkpt lat="41.028805000" lon="-5.897256667">
        <time>2022-06-28T11:05:13Z</time>
      </trkpt>
      <trkpt lat="41.028803333" lon="-5.897173333">
        <time>2022-06-28T11:05:14Z</time>
      </trkpt>
      <trkpt lat="41.028800000" lon="-5.897090000">
        <time>2022-06-28T11:05:15Z</time>
      </trkpt>
      <trkpt lat="41.028795000" lon="-5.897008333">
        <time>2022-06-28T11:05:16Z</time>
      </trkpt>
      <trkpt lat="41.028788333" lon="-5.896926667">
        <time>2022-06-28T11:05:17Z</time>
      </trkpt>
      <trkpt lat="41.028781667" lon="-5.896845000">
        <time>2022-06-28T11:05:18Z</time>
      </trkpt>
      <trkpt lat="41.028773333" lon="-5.896763333">
        <time>2022-06-28T11:05:19Z</time>
      </trkpt>
      <trkpt lat="41.028761667" lon="-5.896678333">
        <time>2022-06-28T11:05:20Z</time>
      </trkpt>
      <trkpt lat="41.028751667" lon="-5.896591667">
        <time>2022-06-28T11:05:21Z</time>
      </trkpt>
      <trkpt lat="41.028743333" lon="-5.896505000">
        <time>2022-06-28T11:05:22Z</time>
      </trkpt>
      <trkpt lat="41.028731667" lon="-5.896420000">
        <time>2022-06-28T11:05:23Z</time>
      </trkpt>
      <trkpt lat="41.028720000" lon="-5.896336667">
        <time>2022-06-28T11:05:24Z</time>
      </trkpt>
      <trkpt lat="41.028705000" lon="-5.896255000">
        <time>2022-06-28T11:05:25Z</time>
      </trkpt>
      <trkpt lat="41.028690000" lon="-5.896173333">
        <time>2022-06-28T11:05:26Z</time>
      </trkpt>
      <trkpt lat="41.028675000" lon="-5.896090000">
        <time>2022-06-28T11:05:27Z</time>
      </trkpt>
      <trkpt lat="41.028658333" lon="-5.896006667">
        <time>2022-06-28T11:05:28Z</time>
      </trkpt>
      <trkpt lat="41.028640000" lon="-5.895925000">
        <time>2022-06-28T11:05:29Z</time>
      </trkpt>
      <trkpt lat="41.028621667" lon="-5.895841667">
        <time>2022-06-28T11:05:30Z</time>
      </trkpt>
      <trkpt lat="41.028603333" lon="-5.895758333">
        <time>2022-06-28T11:05:31Z</time>
      </trkpt>
      <trkpt lat="41.028585000" lon="-5.895675000">
        <time>2022-06-28T11:05:32Z</time>
      </trkpt>
      <trkpt lat="41.028566667" lon="-5.895591667">
        <time>2022-06-28T11:05:33Z</time>
      </trkpt>
      <trkpt lat="41.028546667" lon="-5.895506667">
        <time>2022-06-28T11:05:34Z</time>
      </trkpt>
      <trkpt lat="41.028526667" lon="-5.895421667">
        <time>2022-06-28T11:05:35Z</time>
      </trkpt>
      <trkpt lat="41.028508333" lon="-5.895336667">
        <time>2022-06-28T11:05:36Z</time>
      </trkpt>
      <trkpt lat="41.028491667" lon="-5.895256667">
        <time>2022-06-28T11:05:37Z</time>
      </trkpt>
      <trkpt lat="41.028471667" lon="-5.895171667">
        <time>2022-06-28T11:05:38Z</time>
      </trkpt>
      <trkpt lat="41.028453333" lon="-5.895083333">
        <time>2022-06-28T11:05:39Z</time>
      </trkpt>
      <trkpt lat="41.028433333" lon="-5.894996667">
        <time>2022-06-28T11:05:40Z</time>
      </trkpt>
      <trkpt lat="41.028415000" lon="-5.894910000">
        <time>2022-06-28T11:05:41Z</time>
      </trkpt>
      <trkpt lat="41.028396667" lon="-5.894816667">
        <time>2022-06-28T11:05:42Z</time>
      </trkpt>
      <trkpt lat="41.028376667" lon="-5.894728333">
        <time>2022-06-28T11:05:43Z</time>
      </trkpt>
      <trkpt lat="41.028358333" lon="-5.894638333">
        <time>2022-06-28T11:05:44Z</time>
      </trkpt>
      <trkpt lat="41.028338333" lon="-5.894548333">
        <time>2022-06-28T11:05:45Z</time>
      </trkpt>
      <trkpt lat="41.028318333" lon="-5.894458333">
        <time>2022-06-28T11:05:46Z</time>
      </trkpt>
      <trkpt lat="41.028298333" lon="-5.894366667">
        <time>2022-06-28T11:05:47Z</time>
      </trkpt>
      <trkpt lat="41.028276667" lon="-5.894273333">
        <time>2022-06-28T11:05:48Z</time>
      </trkpt>
      <trkpt lat="41.028256667" lon="-5.894180000">
        <time>2022-06-28T11:05:49Z</time>
      </trkpt>
      <trkpt lat="41.028236667" lon="-5.894086667">
        <time>2022-06-28T11:05:50Z</time>
      </trkpt>
      <trkpt lat="41.028215000" lon="-5.893991667">
        <time>2022-06-28T11:05:51Z</time>
      </trkpt>
      <trkpt lat="41.028193333" lon="-5.893896667">
        <time>2022-06-28T11:05:52Z</time>
      </trkpt>
      <trkpt lat="41.028170000" lon="-5.893801667">
        <time>2022-06-28T11:05:53Z</time>
      </trkpt>
      <trkpt lat="41.028146667" lon="-5.893710000">
        <time>2022-06-28T11:05:54Z</time>
      </trkpt>
      <trkpt lat="41.028123333" lon="-5.893616667">
        <time>2022-06-28T11:05:55Z</time>
      </trkpt>
      <trkpt lat="41.028100000" lon="-5.893526667">
        <time>2022-06-28T11:05:56Z</time>
      </trkpt>
      <trkpt lat="41.028078333" lon="-5.893436667">
        <time>2022-06-28T11:05:57Z</time>
      </trkpt>
      <trkpt lat="41.028055000" lon="-5.893346667">
        <time>2022-06-28T11:05:58Z</time>
      </trkpt>
      <trkpt lat="41.028030000" lon="-5.893260000">
        <time>2022-06-28T11:05:59Z</time>
      </trkpt>
      <trkpt lat="41.028003333" lon="-5.893175000">
        <time>2022-06-28T11:06:00Z</time>
      </trkpt>
      <trkpt lat="41.027973333" lon="-5.893091667">
        <time>2022-06-28T11:06:01Z</time>
      </trkpt>
      <trkpt lat="41.027941667" lon="-5.893011667">
        <time>2022-06-28T11:06:02Z</time>
      </trkpt>
      <trkpt lat="41.027911667" lon="-5.892930000">
        <time>2022-06-28T11:06:03Z</time>
      </trkpt>
      <trkpt lat="41.027883333" lon="-5.892848333">
        <time>2022-06-28T11:06:04Z</time>
      </trkpt>
      <trkpt lat="41.027856667" lon="-5.892766667">
        <time>2022-06-28T11:06:05Z</time>
      </trkpt>
      <trkpt lat="41.027830000" lon="-5.892686667">
        <time>2022-06-28T11:06:06Z</time>
      </trkpt>
      <trkpt lat="41.027805000" lon="-5.892610000">
        <time>2022-06-28T11:06:07Z</time>
      </trkpt>
      <trkpt lat="41.027780000" lon="-5.892531667">
        <time>2022-06-28T11:06:08Z</time>
      </trkpt>
      <trkpt lat="41.027755000" lon="-5.892455000">
        <time>2022-06-28T11:06:09Z</time>
      </trkpt>
      <trkpt lat="41.027730000" lon="-5.892378333">
        <time>2022-06-28T11:06:10Z</time>
      </trkpt>
      <trkpt lat="41.027705000" lon="-5.892303333">
        <time>2022-06-28T11:06:11Z</time>
      </trkpt>
      <trkpt lat="41.027680000" lon="-5.892228333">
        <time>2022-06-28T11:06:12Z</time>
      </trkpt>
      <trkpt lat="41.027655000" lon="-5.892153333">
        <time>2022-06-28T11:06:13Z</time>
      </trkpt>
      <trkpt lat="41.027630000" lon="-5.892080000">
        <time>2022-06-28T11:06:14Z</time>
      </trkpt>
      <trkpt lat="41.027605000" lon="-5.892006667">
        <time>2022-06-28T11:06:15Z</time>
      </trkpt>
      <trkpt lat="41.027581667" lon="-5.891931667">
        <time>2022-06-28T11:06:16Z</time>
      </trkpt>
      <trkpt lat="41.027558333" lon="-5.891858333">
        <time>2022-06-28T11:06:17Z</time>
      </trkpt>
      <trkpt lat="41.027533333" lon="-5.891785000">
        <time>2022-06-28T11:06:18Z</time>
      </trkpt>
      <trkpt lat="41.027510000" lon="-5.891711667">
        <time>2022-06-28T11:06:19Z</time>
      </trkpt>
      <trkpt lat="41.027485000" lon="-5.891640000">
        <time>2022-06-28T11:06:20Z</time>
      </trkpt>
      <trkpt lat="41.027460000" lon="-5.891568333">
        <time>2022-06-28T11:06:21Z</time>
      </trkpt>
      <trkpt lat="41.027435000" lon="-5.891496667">
        <time>2022-06-28T11:06:22Z</time>
      </trkpt>
      <trkpt lat="41.027410000" lon="-5.891426667">
        <time>2022-06-28T11:06:23Z</time>
      </trkpt>
      <trkpt lat="41.027383333" lon="-5.891356667">
        <time>2022-06-28T11:06:24Z</time>
      </trkpt>
      <trkpt lat="41.027358333" lon="-5.891285000">
        <time>2022-06-28T11:06:25Z</time>
      </trkpt>
      <trkpt lat="41.027330000" lon="-5.891216667">
        <time>2022-06-28T11:06:26Z</time>
      </trkpt>
      <trkpt lat="41.027298333" lon="-5.891150000">
        <time>2022-06-28T11:06:27Z</time>
      </trkpt>
      <trkpt lat="41.027263333" lon="-5.891085000">
        <time>2022-06-28T11:06:28Z</time>
      </trkpt>
      <trkpt lat="41.027225000" lon="-5.891023333">
        <time>2022-06-28T11:06:29Z</time>
      </trkpt>
      <trkpt lat="41.027185000" lon="-5.890965000">
        <time>2022-06-28T11:06:30Z</time>
      </trkpt>
      <trkpt lat="41.027143333" lon="-5.890905000">
        <time>2022-06-28T11:06:31Z</time>
      </trkpt>
      <trkpt lat="41.027101667" lon="-5.890846667">
        <time>2022-06-28T11:06:32Z</time>
      </trkpt>
      <trkpt lat="41.027060000" lon="-5.890790000">
        <time>2022-06-28T11:06:33Z</time>
      </trkpt>
      <trkpt lat="41.027016667" lon="-5.890733333">
        <time>2022-06-28T11:06:34Z</time>
      </trkpt>
      <trkpt lat="41.026975000" lon="-5.890678333">
        <time>2022-06-28T11:06:35Z</time>
      </trkpt>
      <trkpt lat="41.026931667" lon="-5.890623333">
        <time>2022-06-28T11:06:36Z</time>
      </trkpt>
      <trkpt lat="41.026890000" lon="-5.890568333">
        <time>2022-06-28T11:06:37Z</time>
      </trkpt>
      <trkpt lat="41.026846667" lon="-5.890510000">
        <time>2022-06-28T11:06:38Z</time>
      </trkpt>
      <trkpt lat="41.026805000" lon="-5.890453333">
        <time>2022-06-28T11:06:39Z</time>
      </trkpt>
      <trkpt lat="41.026761667" lon="-5.890396667">
        <time>2022-06-28T11:06:40Z</time>
      </trkpt>
      <trkpt lat="41.026720000" lon="-5.890340000">
        <time>2022-06-28T11:06:41Z</time>
      </trkpt>
      <trkpt lat="41.026676667" lon="-5.890281667">
        <time>2022-06-28T11:06:42Z</time>
      </trkpt>
      <trkpt lat="41.026633333" lon="-5.890226667">
        <time>2022-06-28T11:06:43Z</time>
      </trkpt>
      <trkpt lat="41.026593333" lon="-5.890171667">
        <time>2022-06-28T11:06:44Z</time>
      </trkpt>
      <trkpt lat="41.026551667" lon="-5.890115000">
        <time>2022-06-28T11:06:45Z</time>
      </trkpt>
      <trkpt lat="41.026506667" lon="-5.890060000">
        <time>2022-06-28T11:06:46Z</time>
      </trkpt>
      <trkpt lat="41.026465000" lon="-5.890005000">
        <time>2022-06-28T11:06:47Z</time>
      </trkpt>
      <trkpt lat="41.026421667" lon="-5.889950000">
        <time>2022-06-28T11:06:48Z</time>
      </trkpt>
      <trkpt lat="41.026378333" lon="-5.889895000">
        <time>2022-06-28T11:06:49Z</time>
      </trkpt>
      <trkpt lat="41.026338333" lon="-5.889840000">
        <time>2022-06-28T11:06:50Z</time>
      </trkpt>
      <trkpt lat="41.026298333" lon="-5.889781667">
        <time>2022-06-28T11:06:51Z</time>
      </trkpt>
      <trkpt lat="41.026263333" lon="-5.889721667">
        <time>2022-06-28T11:06:52Z</time>
      </trkpt>
      <trkpt lat="41.026226667" lon="-5.889660000">
        <time>2022-06-28T11:06:53Z</time>
      </trkpt>
      <trkpt lat="41.026195000" lon="-5.889595000">
        <time>2022-06-28T11:06:54Z</time>
      </trkpt>
      <trkpt lat="41.026163333" lon="-5.889531667">
        <time>2022-06-28T11:06:55Z</time>
      </trkpt>
      <trkpt lat="41.026133333" lon="-5.889466667">
        <time>2022-06-28T11:06:56Z</time>
      </trkpt>
      <trkpt lat="41.026105000" lon="-5.889400000">
        <time>2022-06-28T11:06:57Z</time>
      </trkpt>
      <trkpt lat="41.026078333" lon="-5.889333333">
        <time>2022-06-28T11:06:58Z</time>
      </trkpt>
      <trkpt lat="41.026051667" lon="-5.889265000">
        <time>2022-06-28T11:06:59Z</time>
      </trkpt>
      <trkpt lat="41.026026667" lon="-5.889196667">
        <time>2022-06-28T11:07:00Z</time>
      </trkpt>
      <trkpt lat="41.026001667" lon="-5.889128333">
        <time>2022-06-28T11:07:01Z</time>
      </trkpt>
      <trkpt lat="41.025976667" lon="-5.889061667">
        <time>2022-06-28T11:07:02Z</time>
      </trkpt>
      <trkpt lat="41.025951667" lon="-5.888996667">
        <time>2022-06-28T11:07:03Z</time>
      </trkpt>
      <trkpt lat="41.025928333" lon="-5.888930000">
        <time>2022-06-28T11:07:04Z</time>
      </trkpt>
      <trkpt lat="41.025905000" lon="-5.888866667">
        <time>2022-06-28T11:07:05Z</time>
      </trkpt>
      <trkpt lat="41.025881667" lon="-5.888803333">
        <time>2022-06-28T11:07:06Z</time>
      </trkpt>
      <trkpt lat="41.025860000" lon="-5.888741667">
        <time>2022-06-28T11:07:07Z</time>
      </trkpt>
      <trkpt lat="41.025836667" lon="-5.888681667">
        <time>2022-06-28T11:07:08Z</time>
      </trkpt>
      <trkpt lat="41.025815000" lon="-5.888620000">
        <time>2022-06-28T11:07:09Z</time>
      </trkpt>
      <trkpt lat="41.025793333" lon="-5.888556667">
        <time>2022-06-28T11:07:10Z</time>
      </trkpt>
      <trkpt lat="41.025773333" lon="-5.888496667">
        <time>2022-06-28T11:07:11Z</time>
      </trkpt>
      <trkpt lat="41.025755000" lon="-5.888436667">
        <time>2022-06-28T11:07:12Z</time>
      </trkpt>
      <trkpt lat="41.025738333" lon="-5.888380000">
        <time>2022-06-28T11:07:13Z</time>
      </trkpt>
      <trkpt lat="41.025728333" lon="-5.888326667">
        <time>2022-06-28T11:07:14Z</time>
      </trkpt>
      <trkpt lat="41.025731667" lon="-5.888271667">
        <time>2022-06-28T11:07:15Z</time>
      </trkpt>
      <trkpt lat="41.025750000" lon="-5.888223333">
        <time>2022-06-28T11:07:16Z</time>
      </trkpt>
      <trkpt lat="41.025776667" lon="-5.888181667">
        <time>2022-06-28T11:07:17Z</time>
      </trkpt>
      <trkpt lat="41.025808333" lon="-5.888140000">
        <time>2022-06-28T11:07:18Z</time>
      </trkpt>
      <trkpt lat="41.025845000" lon="-5.888100000">
        <time>2022-06-28T11:07:19Z</time>
      </trkpt>
      <trkpt lat="41.025883333" lon="-5.888060000">
        <time>2022-06-28T11:07:20Z</time>
      </trkpt>
      <trkpt lat="41.025923333" lon="-5.888021667">
        <time>2022-06-28T11:07:21Z</time>
      </trkpt>
      <trkpt lat="41.025966667" lon="-5.887985000">
        <time>2022-06-28T11:07:22Z</time>
      </trkpt>
      <trkpt lat="41.026010000" lon="-5.887948333">
        <time>2022-06-28T11:07:23Z</time>
      </trkpt>
      <trkpt lat="41.026053333" lon="-5.887913333">
        <time>2022-06-28T11:07:24Z</time>
      </trkpt>
      <trkpt lat="41.026096667" lon="-5.887878333">
        <time>2022-06-28T11:07:25Z</time>
      </trkpt>
      <trkpt lat="41.026141667" lon="-5.887843333">
        <time>2022-06-28T11:07:26Z</time>
      </trkpt>
      <trkpt lat="41.026188333" lon="-5.887808333">
        <time>2022-06-28T11:07:27Z</time>
      </trkpt>
      <trkpt lat="41.026233333" lon="-5.887773333">
        <time>2022-06-28T11:07:28Z</time>
      </trkpt>
      <trkpt lat="41.026281667" lon="-5.887738333">
        <time>2022-06-28T11:07:29Z</time>
      </trkpt>
      <trkpt lat="41.026328333" lon="-5.887700000">
        <time>2022-06-28T11:07:30Z</time>
      </trkpt>
      <trkpt lat="41.026373333" lon="-5.887663333">
        <time>2022-06-28T11:07:31Z</time>
      </trkpt>
      <trkpt lat="41.026421667" lon="-5.887628333">
        <time>2022-06-28T11:07:32Z</time>
      </trkpt>
      <trkpt lat="41.026473333" lon="-5.887601667">
        <time>2022-06-28T11:07:33Z</time>
      </trkpt>
      <trkpt lat="41.026526667" lon="-5.887576667">
        <time>2022-06-28T11:07:34Z</time>
      </trkpt>
      <trkpt lat="41.026580000" lon="-5.887551667">
        <time>2022-06-28T11:07:35Z</time>
      </trkpt>
      <trkpt lat="41.026636667" lon="-5.887531667">
        <time>2022-06-28T11:07:36Z</time>
      </trkpt>
      <trkpt lat="41.026693333" lon="-5.887510000">
        <time>2022-06-28T11:07:37Z</time>
      </trkpt>
      <trkpt lat="41.026750000" lon="-5.887488333">
        <time>2022-06-28T11:07:38Z</time>
      </trkpt>
      <trkpt lat="41.026806667" lon="-5.887466667">
        <time>2022-06-28T11:07:39Z</time>
      </trkpt>
      <trkpt lat="41.026863333" lon="-5.887443333">
        <time>2022-06-28T11:07:40Z</time>
      </trkpt>
      <trkpt lat="41.026918333" lon="-5.887420000">
        <time>2022-06-28T11:07:41Z</time>
      </trkpt>
      <trkpt lat="41.026973333" lon="-5.887398333">
        <time>2022-06-28T11:07:42Z</time>
      </trkpt>
      <trkpt lat="41.027028333" lon="-5.887376667">
        <time>2022-06-28T11:07:43Z</time>
      </trkpt>
      <trkpt lat="41.027081667" lon="-5.887351667">
        <time>2022-06-28T11:07:44Z</time>
      </trkpt>
      <trkpt lat="41.027136667" lon="-5.887328333">
        <time>2022-06-28T11:07:45Z</time>
      </trkpt>
      <trkpt lat="41.027193333" lon="-5.887301667">
        <time>2022-06-28T11:07:46Z</time>
      </trkpt>
      <trkpt lat="41.027248333" lon="-5.887275000">
        <time>2022-06-28T11:07:47Z</time>
      </trkpt>
      <trkpt lat="41.027303333" lon="-5.887246667">
        <time>2022-06-28T11:07:48Z</time>
      </trkpt>
      <trkpt lat="41.027358333" lon="-5.887215000">
        <time>2022-06-28T11:07:49Z</time>
      </trkpt>
      <trkpt lat="41.027410000" lon="-5.887181667">
        <time>2022-06-28T11:07:50Z</time>
      </trkpt>
      <trkpt lat="41.027465000" lon="-5.887150000">
        <time>2022-06-28T11:07:51Z</time>
      </trkpt>
      <trkpt lat="41.027518333" lon="-5.887116667">
        <time>2022-06-28T11:07:52Z</time>
      </trkpt>
      <trkpt lat="41.027571667" lon="-5.887085000">
        <time>2022-06-28T11:07:53Z</time>
      </trkpt>
      <trkpt lat="41.027625000" lon="-5.887055000">
        <time>2022-06-28T11:07:54Z</time>
      </trkpt>
      <trkpt lat="41.027680000" lon="-5.887031667">
        <time>2022-06-28T11:07:55Z</time>
      </trkpt>
      <trkpt lat="41.027735000" lon="-5.887006667">
        <time>2022-06-28T11:07:56Z</time>
      </trkpt>
      <trkpt lat="41.027791667" lon="-5.886986667">
        <time>2022-06-28T11:07:57Z</time>
      </trkpt>
      <trkpt lat="41.027848333" lon="-5.886968333">
        <time>2022-06-28T11:07:58Z</time>
      </trkpt>
      <trkpt lat="41.027905000" lon="-5.886950000">
        <time>2022-06-28T11:07:59Z</time>
      </trkpt>
      <trkpt lat="41.027965000" lon="-5.886931667">
        <time>2022-06-28T11:08:00Z</time>
      </trkpt>
      <trkpt lat="41.028025000" lon="-5.886913333">
        <time>2022-06-28T11:08:01Z</time>
      </trkpt>
      <trkpt lat="41.028085000" lon="-5.886891667">
        <time>2022-06-28T11:08:02Z</time>
      </trkpt>
      <trkpt lat="41.028143333" lon="-5.886870000">
        <time>2022-06-28T11:08:03Z</time>
      </trkpt>
      <trkpt lat="41.028200000" lon="-5.886845000">
        <time>2022-06-28T11:08:04Z</time>
      </trkpt>
      <trkpt lat="41.028256667" lon="-5.886816667">
        <time>2022-06-28T11:08:05Z</time>
      </trkpt>
      <trkpt lat="41.028310000" lon="-5.886786667">
        <time>2022-06-28T11:08:06Z</time>
      </trkpt>
      <trkpt lat="41.028363333" lon="-5.886750000">
        <time>2022-06-28T11:08:07Z</time>
      </trkpt>
      <trkpt lat="41.028413333" lon="-5.886711667">
        <time>2022-06-28T11:08:08Z</time>
      </trkpt>
      <trkpt lat="41.028460000" lon="-5.886671667">
        <time>2022-06-28T11:08:09Z</time>
      </trkpt>
      <trkpt lat="41.028505000" lon="-5.886626667">
        <time>2022-06-28T11:08:10Z</time>
      </trkpt>
      <trkpt lat="41.028548333" lon="-5.886581667">
        <time>2022-06-28T11:08:11Z</time>
      </trkpt>
      <trkpt lat="41.028588333" lon="-5.886535000">
        <time>2022-06-28T11:08:12Z</time>
      </trkpt>
      <trkpt lat="41.028626667" lon="-5.886486667">
        <time>2022-06-28T11:08:13Z</time>
      </trkpt>
      <trkpt lat="41.028663333" lon="-5.886436667">
        <time>2022-06-28T11:08:14Z</time>
      </trkpt>
      <trkpt lat="41.028698333" lon="-5.886385000">
        <time>2022-06-28T11:08:15Z</time>
      </trkpt>
      <trkpt lat="41.028733333" lon="-5.886333333">
        <time>2022-06-28T11:08:16Z</time>
      </trkpt>
      <trkpt lat="41.028768333" lon="-5.886281667">
        <time>2022-06-28T11:08:17Z</time>
      </trkpt>
      <trkpt lat="41.028800000" lon="-5.886226667">
        <time>2022-06-28T11:08:18Z</time>
      </trkpt>
      <trkpt lat="41.028831667" lon="-5.886173333">
        <time>2022-06-28T11:08:19Z</time>
      </trkpt>
      <trkpt lat="41.028865000" lon="-5.886121667">
        <time>2022-06-28T11:08:20Z</time>
      </trkpt>
      <trkpt lat="41.028895000" lon="-5.886066667">
        <time>2022-06-28T11:08:21Z</time>
      </trkpt>
      <trkpt lat="41.028923333" lon="-5.886010000">
        <time>2022-06-28T11:08:22Z</time>
      </trkpt>
      <trkpt lat="41.028950000" lon="-5.885953333">
        <time>2022-06-28T11:08:23Z</time>
      </trkpt>
      <trkpt lat="41.028978333" lon="-5.885898333">
        <time>2022-06-28T11:08:24Z</time>
      </trkpt>
      <trkpt lat="41.029006667" lon="-5.885843333">
        <time>2022-06-28T11:08:25Z</time>
      </trkpt>
      <trkpt lat="41.029035000" lon="-5.885786667">
        <time>2022-06-28T11:08:26Z</time>
      </trkpt>
      <trkpt lat="41.029065000" lon="-5.885728333">
        <time>2022-06-28T11:08:27Z</time>
      </trkpt>
      <trkpt lat="41.029098333" lon="-5.885671667">
        <time>2022-06-28T11:08:28Z</time>
      </trkpt>
      <trkpt lat="41.029130000" lon="-5.885615000">
        <time>2022-06-28T11:08:29Z</time>
      </trkpt>
      <trkpt lat="41.029163333" lon="-5.885556667">
        <time>2022-06-28T11:08:30Z</time>
      </trkpt>
      <trkpt lat="41.029196667" lon="-5.885500000">
        <time>2022-06-28T11:08:31Z</time>
      </trkpt>
      <trkpt lat="41.029228333" lon="-5.885443333">
        <time>2022-06-28T11:08:32Z</time>
      </trkpt>
      <trkpt lat="41.029260000" lon="-5.885388333">
        <time>2022-06-28T11:08:33Z</time>
      </trkpt>
      <trkpt lat="41.029293333" lon="-5.885331667">
        <time>2022-06-28T11:08:34Z</time>
      </trkpt>
      <trkpt lat="41.029326667" lon="-5.885275000">
        <time>2022-06-28T11:08:35Z</time>
      </trkpt>
      <trkpt lat="41.029358333" lon="-5.885216667">
        <time>2022-06-28T11:08:36Z</time>
      </trkpt>
      <trkpt lat="41.029393333" lon="-5.885158333">
        <time>2022-06-28T11:08:37Z</time>
      </trkpt>
      <trkpt lat="41.029428333" lon="-5.885101667">
        <time>2022-06-28T11:08:38Z</time>
      </trkpt>
      <trkpt lat="41.029461667" lon="-5.885043333">
        <time>2022-06-28T11:08:39Z</time>
      </trkpt>
      <trkpt lat="41.029495000" lon="-5.884985000">
        <time>2022-06-28T11:08:40Z</time>
      </trkpt>
      <trkpt lat="41.029528333" lon="-5.884928333">
        <time>2022-06-28T11:08:41Z</time>
      </trkpt>
      <trkpt lat="41.029565000" lon="-5.884871667">
        <time>2022-06-28T11:08:42Z</time>
      </trkpt>
      <trkpt lat="41.029600000" lon="-5.884813333">
        <time>2022-06-28T11:08:43Z</time>
      </trkpt>
      <trkpt lat="41.029633333" lon="-5.884753333">
        <time>2022-06-28T11:08:44Z</time>
      </trkpt>
      <trkpt lat="41.029666667" lon="-5.884695000">
        <time>2022-06-28T11:08:45Z</time>
      </trkpt>
      <trkpt lat="41.029701667" lon="-5.884638333">
        <time>2022-06-28T11:08:46Z</time>
      </trkpt>
      <trkpt lat="41.029735000" lon="-5.884585000">
        <time>2022-06-28T11:08:47Z</time>
      </trkpt>
      <trkpt lat="41.029768333" lon="-5.884533333">
        <time>2022-06-28T11:08:48Z</time>
      </trkpt>
      <trkpt lat="41.029798333" lon="-5.884481667">
        <time>2022-06-28T11:08:49Z</time>
      </trkpt>
      <trkpt lat="41.029830000" lon="-5.884428333">
        <time>2022-06-28T11:08:50Z</time>
      </trkpt>
      <trkpt lat="41.029860000" lon="-5.884376667">
        <time>2022-06-28T11:08:51Z</time>
      </trkpt>
      <trkpt lat="41.029891667" lon="-5.884326667">
        <time>2022-06-28T11:08:52Z</time>
      </trkpt>
      <trkpt lat="41.029923333" lon="-5.884275000">
        <time>2022-06-28T11:08:53Z</time>
      </trkpt>
      <trkpt lat="41.029955000" lon="-5.884223333">
        <time>2022-06-28T11:08:54Z</time>
      </trkpt>
      <trkpt lat="41.029986667" lon="-5.884170000">
        <time>2022-06-28T11:08:55Z</time>
      </trkpt>
      <trkpt lat="41.030016667" lon="-5.884116667">
        <time>2022-06-28T11:08:56Z</time>
      </trkpt>
      <trkpt lat="41.030046667" lon="-5.884061667">
        <time>2022-06-28T11:08:57Z</time>
      </trkpt>
      <trkpt lat="41.030078333" lon="-5.884008333">
        <time>2022-06-28T11:08:58Z</time>
      </trkpt>
      <trkpt lat="41.030108333" lon="-5.883953333">
        <time>2022-06-28T11:08:59Z</time>
      </trkpt>
      <trkpt lat="41.030140000" lon="-5.883900000">
        <time>2022-06-28T11:09:00Z</time>
      </trkpt>
      <trkpt lat="41.030170000" lon="-5.883848333">
        <time>2022-06-28T11:09:01Z</time>
      </trkpt>
      <trkpt lat="41.030200000" lon="-5.883795000">
        <time>2022-06-28T11:09:02Z</time>
      </trkpt>
      <trkpt lat="41.030230000" lon="-5.883741667">
        <time>2022-06-28T11:09:03Z</time>
      </trkpt>
      <trkpt lat="41.030258333" lon="-5.883688333">
        <time>2022-06-28T11:09:04Z</time>
      </trkpt>
      <trkpt lat="41.030288333" lon="-5.883635000">
        <time>2022-06-28T11:09:05Z</time>
      </trkpt>
      <trkpt lat="41.030318333" lon="-5.883581667">
        <time>2022-06-28T11:09:06Z</time>
      </trkpt>
      <trkpt lat="41.030346667" lon="-5.883528333">
        <time>2022-06-28T11:09:07Z</time>
      </trkpt>
      <trkpt lat="41.030376667" lon="-5.883475000">
        <time>2022-06-28T11:09:08Z</time>
      </trkpt>
      <trkpt lat="41.030403333" lon="-5.883420000">
        <time>2022-06-28T11:09:09Z</time>
      </trkpt>
      <trkpt lat="41.030433333" lon="-5.883366667">
        <time>2022-06-28T11:09:10Z</time>
      </trkpt>
      <trkpt lat="41.030461667" lon="-5.883311667">
        <time>2022-06-28T11:09:11Z</time>
      </trkpt>
      <trkpt lat="41.030490000" lon="-5.883258333">
        <time>2022-06-28T11:09:12Z</time>
      </trkpt>
      <trkpt lat="41.030518333" lon="-5.883205000">
        <time>2022-06-28T11:09:13Z</time>
      </trkpt>
      <trkpt lat="41.030545000" lon="-5.883150000">
        <time>2022-06-28T11:09:14Z</time>
      </trkpt>
      <trkpt lat="41.030573333" lon="-5.883096667">
        <time>2022-06-28T11:09:15Z</time>
      </trkpt>
      <trkpt lat="41.030600000" lon="-5.883043333">
        <time>2022-06-28T11:09:16Z</time>
      </trkpt>
      <trkpt lat="41.030628333" lon="-5.882990000">
        <time>2022-06-28T11:09:17Z</time>
      </trkpt>
      <trkpt lat="41.030655000" lon="-5.882938333">
        <time>2022-06-28T11:09:18Z</time>
      </trkpt>
      <trkpt lat="41.030680000" lon="-5.882885000">
        <time>2022-06-28T11:09:19Z</time>
      </trkpt>
      <trkpt lat="41.030705000" lon="-5.882831667">
        <time>2022-06-28T11:09:20Z</time>
      </trkpt>
      <trkpt lat="41.030730000" lon="-5.882776667">
        <time>2022-06-28T11:09:21Z</time>
      </trkpt>
      <trkpt lat="41.030755000" lon="-5.882721667">
        <time>2022-06-28T11:09:22Z</time>
      </trkpt>
      <trkpt lat="41.030778333" lon="-5.882665000">
        <time>2022-06-28T11:09:23Z</time>
      </trkpt>
      <trkpt lat="41.030801667" lon="-5.882608333">
        <time>2022-06-28T11:09:24Z</time>
      </trkpt>
      <trkpt lat="41.030826667" lon="-5.882553333">
        <time>2022-06-28T11:09:25Z</time>
      </trkpt>
      <trkpt lat="41.030848333" lon="-5.882496667">
        <time>2022-06-28T11:09:26Z</time>
      </trkpt>
      <trkpt lat="41.030873333" lon="-5.882443333">
        <time>2022-06-28T11:09:27Z</time>
      </trkpt>
      <trkpt lat="41.030896667" lon="-5.882390000">
        <time>2022-06-28T11:09:28Z</time>
      </trkpt>
      <trkpt lat="41.030921667" lon="-5.882335000">
        <time>2022-06-28T11:09:29Z</time>
      </trkpt>
      <trkpt lat="41.030945000" lon="-5.882280000">
        <time>2022-06-28T11:09:30Z</time>
      </trkpt>
      <trkpt lat="41.030968333" lon="-5.882223333">
        <time>2022-06-28T11:09:31Z</time>
      </trkpt>
      <trkpt lat="41.030990000" lon="-5.882168333">
        <time>2022-06-28T11:09:32Z</time>
      </trkpt>
      <trkpt lat="41.031013333" lon="-5.882115000">
        <time>2022-06-28T11:09:33Z</time>
      </trkpt>
      <trkpt lat="41.031036667" lon="-5.882060000">
        <time>2022-06-28T11:09:34Z</time>
      </trkpt>
      <trkpt lat="41.031058333" lon="-5.882003333">
        <time>2022-06-28T11:09:35Z</time>
      </trkpt>
      <trkpt lat="41.031081667" lon="-5.881948333">
        <time>2022-06-28T11:09:36Z</time>
      </trkpt>
      <trkpt lat="41.031103333" lon="-5.881893333">
        <time>2022-06-28T11:09:37Z</time>
      </trkpt>
      <trkpt lat="41.031123333" lon="-5.881836667">
        <time>2022-06-28T11:09:38Z</time>
      </trkpt>
      <trkpt lat="41.031145000" lon="-5.881783333">
        <time>2022-06-28T11:09:39Z</time>
      </trkpt>
      <trkpt lat="41.031166667" lon="-5.881726667">
        <time>2022-06-28T11:09:40Z</time>
      </trkpt>
      <trkpt lat="41.031185000" lon="-5.881671667">
        <time>2022-06-28T11:09:41Z</time>
      </trkpt>
      <trkpt lat="41.031205000" lon="-5.881616667">
        <time>2022-06-28T11:09:42Z</time>
      </trkpt>
      <trkpt lat="41.031226667" lon="-5.881561667">
        <time>2022-06-28T11:09:43Z</time>
      </trkpt>
      <trkpt lat="41.031246667" lon="-5.881506667">
        <time>2022-06-28T11:09:44Z</time>
      </trkpt>
      <trkpt lat="41.031266667" lon="-5.881450000">
        <time>2022-06-28T11:09:45Z</time>
      </trkpt>
      <trkpt lat="41.031286667" lon="-5.881395000">
        <time>2022-06-28T11:09:46Z</time>
      </trkpt>
      <trkpt lat="41.031306667" lon="-5.881338333">
        <time>2022-06-28T11:09:47Z</time>
      </trkpt>
      <trkpt lat="41.031326667" lon="-5.881280000">
        <time>2022-06-28T11:09:48Z</time>
      </trkpt>
      <trkpt lat="41.031346667" lon="-5.881221667">
        <time>2022-06-28T11:09:49Z</time>
      </trkpt>
      <trkpt lat="41.031368333" lon="-5.881163333">
        <time>2022-06-28T11:09:50Z</time>
      </trkpt>
      <trkpt lat="41.031388333" lon="-5.881105000">
        <time>2022-06-28T11:09:51Z</time>
      </trkpt>
      <trkpt lat="41.031408333" lon="-5.881046667">
        <time>2022-06-28T11:09:52Z</time>
      </trkpt>
      <trkpt lat="41.031428333" lon="-5.880990000">
        <time>2022-06-28T11:09:53Z</time>
      </trkpt>
      <trkpt lat="41.031448333" lon="-5.880931667">
        <time>2022-06-28T11:09:54Z</time>
      </trkpt>
      <trkpt lat="41.031470000" lon="-5.880875000">
        <time>2022-06-28T11:09:55Z</time>
      </trkpt>
      <trkpt lat="41.031490000" lon="-5.880820000">
        <time>2022-06-28T11:09:56Z</time>
      </trkpt>
      <trkpt lat="41.031510000" lon="-5.880761667">
        <time>2022-06-28T11:09:57Z</time>
      </trkpt>
      <trkpt lat="41.031528333" lon="-5.880703333">
        <time>2022-06-28T11:09:58Z</time>
      </trkpt>
      <trkpt lat="41.031548333" lon="-5.880643333">
        <time>2022-06-28T11:09:59Z</time>
      </trkpt>
      <trkpt lat="41.031566667" lon="-5.880581667">
        <time>2022-06-28T11:10:00Z</time>
      </trkpt>
      <trkpt lat="41.031585000" lon="-5.880520000">
        <time>2022-06-28T11:10:01Z</time>
      </trkpt>
      <trkpt lat="41.031603333" lon="-5.880460000">
        <time>2022-06-28T11:10:02Z</time>
      </trkpt>
      <trkpt lat="41.031618333" lon="-5.880400000">
        <time>2022-06-28T11:10:03Z</time>
      </trkpt>
      <trkpt lat="41.031631667" lon="-5.880338333">
        <time>2022-06-28T11:10:04Z</time>
      </trkpt>
      <trkpt lat="41.031643333" lon="-5.880276667">
        <time>2022-06-28T11:10:05Z</time>
      </trkpt>
      <trkpt lat="41.031656667" lon="-5.880215000">
        <time>2022-06-28T11:10:06Z</time>
      </trkpt>
      <trkpt lat="41.031670000" lon="-5.880153333">
        <time>2022-06-28T11:10:07Z</time>
      </trkpt>
      <trkpt lat="41.031685000" lon="-5.880093333">
        <time>2022-06-28T11:10:08Z</time>
      </trkpt>
      <trkpt lat="41.031701667" lon="-5.880031667">
        <time>2022-06-28T11:10:09Z</time>
      </trkpt>
      <trkpt lat="41.031720000" lon="-5.879971667">
        <time>2022-06-28T11:10:10Z</time>
      </trkpt>
      <trkpt lat="41.031738333" lon="-5.879910000">
        <time>2022-06-28T11:10:11Z</time>
      </trkpt>
      <trkpt lat="41.031756667" lon="-5.879850000">
        <time>2022-06-28T11:10:12Z</time>
      </trkpt>
      <trkpt lat="41.031778333" lon="-5.879790000">
        <time>2022-06-28T11:10:13Z</time>
      </trkpt>
      <trkpt lat="41.031798333" lon="-5.879730000">
        <time>2022-06-28T11:10:14Z</time>
      </trkpt>
      <trkpt lat="41.031818333" lon="-5.879670000">
        <time>2022-06-28T11:10:15Z</time>
      </trkpt>
      <trkpt lat="41.031835000" lon="-5.879608333">
        <time>2022-06-28T11:10:16Z</time>
      </trkpt>
      <trkpt lat="41.031851667" lon="-5.879548333">
        <time>2022-06-28T11:10:17Z</time>
      </trkpt>
      <trkpt lat="41.031865000" lon="-5.879485000">
        <time>2022-06-28T11:10:18Z</time>
      </trkpt>
      <trkpt lat="41.031873333" lon="-5.879420000">
        <time>2022-06-28T11:10:19Z</time>
      </trkpt>
      <trkpt lat="41.031875000" lon="-5.879355000">
        <time>2022-06-28T11:10:20Z</time>
      </trkpt>
      <trkpt lat="41.031873333" lon="-5.879288333">
        <time>2022-06-28T11:10:21Z</time>
      </trkpt>
      <trkpt lat="41.031868333" lon="-5.879221667">
        <time>2022-06-28T11:10:22Z</time>
      </trkpt>
      <trkpt lat="41.031861667" lon="-5.879156667">
        <time>2022-06-28T11:10:23Z</time>
      </trkpt>
      <trkpt lat="41.031853333" lon="-5.879091667">
        <time>2022-06-28T11:10:24Z</time>
      </trkpt>
      <trkpt lat="41.031845000" lon="-5.879026667">
        <time>2022-06-28T11:10:25Z</time>
      </trkpt>
      <trkpt lat="41.031836667" lon="-5.878963333">
        <time>2022-06-28T11:10:26Z</time>
      </trkpt>
      <trkpt lat="41.031830000" lon="-5.878900000">
        <time>2022-06-28T11:10:27Z</time>
      </trkpt>
      <trkpt lat="41.031826667" lon="-5.878840000">
        <time>2022-06-28T11:10:28Z</time>
      </trkpt>
      <trkpt lat="41.031821667" lon="-5.878770000">
        <time>2022-06-28T11:10:29Z</time>
      </trkpt>
      <trkpt lat="41.031821667" lon="-5.878708333">
        <time>2022-06-28T11:10:30Z</time>
      </trkpt>
      <trkpt lat="41.031821667" lon="-5.878650000">
        <time>2022-06-28T11:10:31Z</time>
      </trkpt>
      <trkpt lat="41.031823333" lon="-5.878593333">
        <time>2022-06-28T11:10:32Z</time>
      </trkpt>
      <trkpt lat="41.031828333" lon="-5.878538333">
        <time>2022-06-28T11:10:33Z</time>
      </trkpt>
      <trkpt lat="41.031831667" lon="-5.878483333">
        <time>2022-06-28T11:10:34Z</time>
      </trkpt>
      <trkpt lat="41.031835000" lon="-5.878428333">
        <time>2022-06-28T11:10:35Z</time>
      </trkpt>
      <trkpt lat="41.031841667" lon="-5.878373333">
        <time>2022-06-28T11:10:36Z</time>
      </trkpt>
      <trkpt lat="41.031848333" lon="-5.878320000">
        <time>2022-06-28T11:10:37Z</time>
      </trkpt>
      <trkpt lat="41.031853333" lon="-5.878265000">
        <time>2022-06-28T11:10:38Z</time>
      </trkpt>
      <trkpt lat="41.031861667" lon="-5.878211667">
        <time>2022-06-28T11:10:39Z</time>
      </trkpt>
      <trkpt lat="41.031868333" lon="-5.878158333">
        <time>2022-06-28T11:10:40Z</time>
      </trkpt>
      <trkpt lat="41.031875000" lon="-5.878103333">
        <time>2022-06-28T11:10:41Z</time>
      </trkpt>
      <trkpt lat="41.031881667" lon="-5.878048333">
        <time>2022-06-28T11:10:42Z</time>
      </trkpt>
      <trkpt lat="41.031886667" lon="-5.877991667">
        <time>2022-06-28T11:10:43Z</time>
      </trkpt>
      <trkpt lat="41.031896667" lon="-5.877936667">
        <time>2022-06-28T11:10:44Z</time>
      </trkpt>
      <trkpt lat="41.031905000" lon="-5.877883333">
        <time>2022-06-28T11:10:45Z</time>
      </trkpt>
      <trkpt lat="41.031911667" lon="-5.877828333">
        <time>2022-06-28T11:10:46Z</time>
      </trkpt>
      <trkpt lat="41.031923333" lon="-5.877775000">
        <time>2022-06-28T11:10:47Z</time>
      </trkpt>
      <trkpt lat="41.031938333" lon="-5.877723333">
        <time>2022-06-28T11:10:48Z</time>
      </trkpt>
      <trkpt lat="41.031953333" lon="-5.877671667">
        <time>2022-06-28T11:10:49Z</time>
      </trkpt>
      <trkpt lat="41.031968333" lon="-5.877618333">
        <time>2022-06-28T11:10:50Z</time>
      </trkpt>
      <trkpt lat="41.031980000" lon="-5.877568333">
        <time>2022-06-28T11:10:51Z</time>
      </trkpt>
      <trkpt lat="41.031993333" lon="-5.877518333">
        <time>2022-06-28T11:10:52Z</time>
      </trkpt>
      <trkpt lat="41.032008333" lon="-5.877468333">
        <time>2022-06-28T11:10:53Z</time>
      </trkpt>
      <trkpt lat="41.032021667" lon="-5.877420000">
        <time>2022-06-28T11:10:54Z</time>
      </trkpt>
      <trkpt lat="41.032033333" lon="-5.877371667">
        <time>2022-06-28T11:10:55Z</time>
      </trkpt>
      <trkpt lat="41.032048333" lon="-5.877323333">
        <time>2022-06-28T11:10:56Z</time>
      </trkpt>
      <trkpt lat="41.032061667" lon="-5.877280000">
        <time>2022-06-28T11:10:57Z</time>
      </trkpt>
      <trkpt lat="41.032073333" lon="-5.877235000">
        <time>2022-06-28T11:10:58Z</time>
      </trkpt>
      <trkpt lat="41.032085000" lon="-5.877191667">
        <time>2022-06-28T11:10:59Z</time>
      </trkpt>
      <trkpt lat="41.032095000" lon="-5.877148333">
        <time>2022-06-28T11:11:00Z</time>
      </trkpt>
      <trkpt lat="41.032105000" lon="-5.877106667">
        <time>2022-06-28T11:11:01Z</time>
      </trkpt>
      <trkpt lat="41.032116667" lon="-5.877065000">
        <time>2022-06-28T11:11:02Z</time>
      </trkpt>
      <trkpt lat="41.032128333" lon="-5.877025000">
        <time>2022-06-28T11:11:03Z</time>
      </trkpt>
      <trkpt lat="41.032138333" lon="-5.876985000">
        <time>2022-06-28T11:11:04Z</time>
      </trkpt>
      <trkpt lat="41.032146667" lon="-5.876945000">
        <time>2022-06-28T11:11:05Z</time>
      </trkpt>
      <trkpt lat="41.032155000" lon="-5.876905000">
        <time>2022-06-28T11:11:06Z</time>
      </trkpt>
      <trkpt lat="41.032165000" lon="-5.876868333">
        <time>2022-06-28T11:11:07Z</time>
      </trkpt>
      <trkpt lat="41.032175000" lon="-5.876830000">
        <time>2022-06-28T11:11:08Z</time>
      </trkpt>
      <trkpt lat="41.032185000" lon="-5.876793333">
        <time>2022-06-28T11:11:09Z</time>
      </trkpt>
      <trkpt lat="41.032198333" lon="-5.876760000">
        <time>2022-06-28T11:11:10Z</time>
      </trkpt>
      <trkpt lat="41.032210000" lon="-5.876725000">
        <time>2022-06-28T11:11:11Z</time>
      </trkpt>
      <trkpt lat="41.032223333" lon="-5.876688333">
        <time>2022-06-28T11:11:12Z</time>
      </trkpt>
      <trkpt lat="41.032238333" lon="-5.876653333">
        <time>2022-06-28T11:11:13Z</time>
      </trkpt>
      <trkpt lat="41.032253333" lon="-5.876613333">
        <time>2022-06-28T11:11:14Z</time>
      </trkpt>
      <trkpt lat="41.032271667" lon="-5.876571667">
        <time>2022-06-28T11:11:15Z</time>
      </trkpt>
      <trkpt lat="41.032290000" lon="-5.876531667">
        <time>2022-06-28T11:11:16Z</time>
      </trkpt>
      <trkpt lat="41.032313333" lon="-5.876491667">
        <time>2022-06-28T11:11:17Z</time>
      </trkpt>
      <trkpt lat="41.032336667" lon="-5.876450000">
        <time>2022-06-28T11:11:18Z</time>
      </trkpt>
      <trkpt lat="41.032356667" lon="-5.876408333">
        <time>2022-06-28T11:11:19Z</time>
      </trkpt>
      <trkpt lat="41.032378333" lon="-5.876366667">
        <time>2022-06-28T11:11:20Z</time>
      </trkpt>
      <trkpt lat="41.032401667" lon="-5.876326667">
        <time>2022-06-28T11:11:21Z</time>
      </trkpt>
      <trkpt lat="41.032423333" lon="-5.876285000">
        <time>2022-06-28T11:11:22Z</time>
      </trkpt>
      <trkpt lat="41.032443333" lon="-5.876245000">
        <time>2022-06-28T11:11:23Z</time>
      </trkpt>
      <trkpt lat="41.032463333" lon="-5.876208333">
        <time>2022-06-28T11:11:24Z</time>
      </trkpt>
      <trkpt lat="41.032478333" lon="-5.876176667">
        <time>2022-06-28T11:11:25Z</time>
      </trkpt>
      <trkpt lat="41.032495000" lon="-5.876143333">
        <time>2022-06-28T11:11:26Z</time>
      </trkpt>
      <trkpt lat="41.032511667" lon="-5.876113333">
        <time>2022-06-28T11:11:27Z</time>
      </trkpt>
      <trkpt lat="41.032528333" lon="-5.876081667">
        <time>2022-06-28T11:11:28Z</time>
      </trkpt>
      <trkpt lat="41.032543333" lon="-5.876051667">
        <time>2022-06-28T11:11:29Z</time>
      </trkpt>
      <trkpt lat="41.032558333" lon="-5.876018333">
        <time>2022-06-28T11:11:30Z</time>
      </trkpt>
      <trkpt lat="41.032573333" lon="-5.875986667">
        <time>2022-06-28T11:11:31Z</time>
      </trkpt>
      <trkpt lat="41.032588333" lon="-5.875955000">
        <time>2022-06-28T11:11:32Z</time>
      </trkpt>
      <trkpt lat="41.032603333" lon="-5.875921667">
        <time>2022-06-28T11:11:33Z</time>
      </trkpt>
      <trkpt lat="41.032618333" lon="-5.875888333">
        <time>2022-06-28T11:11:34Z</time>
      </trkpt>
      <trkpt lat="41.032630000" lon="-5.875855000">
        <time>2022-06-28T11:11:35Z</time>
      </trkpt>
      <trkpt lat="41.032645000" lon="-5.875823333">
        <time>2022-06-28T11:11:36Z</time>
      </trkpt>
      <trkpt lat="41.032658333" lon="-5.875791667">
        <time>2022-06-28T11:11:37Z</time>
      </trkpt>
      <trkpt lat="41.032675000" lon="-5.875761667">
        <time>2022-06-28T11:11:38Z</time>
      </trkpt>
      <trkpt lat="41.032686667" lon="-5.875728333">
        <time>2022-06-28T11:11:39Z</time>
      </trkpt>
      <trkpt lat="41.032696667" lon="-5.875691667">
        <time>2022-06-28T11:11:40Z</time>
      </trkpt>
      <trkpt lat="41.032706667" lon="-5.875653333">
        <time>2022-06-28T11:11:41Z</time>
      </trkpt>
      <trkpt lat="41.032721667" lon="-5.875610000">
        <time>2022-06-28T11:11:42Z</time>
      </trkpt>
      <trkpt lat="41.032736667" lon="-5.875568333">
        <time>2022-06-28T11:11:43Z</time>
      </trkpt>
      <trkpt lat="41.032750000" lon="-5.875525000">
        <time>2022-06-28T11:11:44Z</time>
      </trkpt>
      <trkpt lat="41.032761667" lon="-5.875481667">
        <time>2022-06-28T11:11:45Z</time>
      </trkpt>
      <trkpt lat="41.032771667" lon="-5.875436667">
        <time>2022-06-28T11:11:46Z</time>
      </trkpt>
      <trkpt lat="41.032785000" lon="-5.875395000">
        <time>2022-06-28T11:11:47Z</time>
      </trkpt>
      <trkpt lat="41.032798333" lon="-5.875351667">
        <time>2022-06-28T11:11:48Z</time>
      </trkpt>
      <trkpt lat="41.032806667" lon="-5.875306667">
        <time>2022-06-28T11:11:49Z</time>
      </trkpt>
      <trkpt lat="41.032813333" lon="-5.875260000">
        <time>2022-06-28T11:11:50Z</time>
      </trkpt>
      <trkpt lat="41.032821667" lon="-5.875215000">
        <time>2022-06-28T11:11:51Z</time>
      </trkpt>
      <trkpt lat="41.032831667" lon="-5.875168333">
        <time>2022-06-28T11:11:52Z</time>
      </trkpt>
      <trkpt lat="41.032841667" lon="-5.875121667">
        <time>2022-06-28T11:11:53Z</time>
      </trkpt>
      <trkpt lat="41.032851667" lon="-5.875080000">
        <time>2022-06-28T11:11:54Z</time>
      </trkpt>
      <trkpt lat="41.032861667" lon="-5.875033333">
        <time>2022-06-28T11:11:55Z</time>
      </trkpt>
      <trkpt lat="41.032871667" lon="-5.874988333">
        <time>2022-06-28T11:11:56Z</time>
      </trkpt>
      <trkpt lat="41.032881667" lon="-5.874941667">
        <time>2022-06-28T11:11:57Z</time>
      </trkpt>
      <trkpt lat="41.032890000" lon="-5.874898333">
        <time>2022-06-28T11:11:58Z</time>
      </trkpt>
      <trkpt lat="41.032901667" lon="-5.874848333">
        <time>2022-06-28T11:11:59Z</time>
      </trkpt>
      <trkpt lat="41.032913333" lon="-5.874801667">
        <time>2022-06-28T11:12:00Z</time>
      </trkpt>
      <trkpt lat="41.032923333" lon="-5.874760000">
        <time>2022-06-28T11:12:01Z</time>
      </trkpt>
      <trkpt lat="41.032931667" lon="-5.874720000">
        <time>2022-06-28T11:12:02Z</time>
      </trkpt>
      <trkpt lat="41.032941667" lon="-5.874678333">
        <time>2022-06-28T11:12:03Z</time>
      </trkpt>
      <trkpt lat="41.032951667" lon="-5.874636667">
        <time>2022-06-28T11:12:04Z</time>
      </trkpt>
      <trkpt lat="41.032963333" lon="-5.874598333">
        <time>2022-06-28T11:12:05Z</time>
      </trkpt>
      <trkpt lat="41.032973333" lon="-5.874558333">
        <time>2022-06-28T11:12:06Z</time>
      </trkpt>
      <trkpt lat="41.032983333" lon="-5.874520000">
        <time>2022-06-28T11:12:07Z</time>
      </trkpt>
      <trkpt lat="41.032991667" lon="-5.874481667">
        <time>2022-06-28T11:12:08Z</time>
      </trkpt>
      <trkpt lat="41.033001667" lon="-5.874445000">
        <time>2022-06-28T11:12:09Z</time>
      </trkpt>
      <trkpt lat="41.033011667" lon="-5.874406667">
        <time>2022-06-28T11:12:10Z</time>
      </trkpt>
      <trkpt lat="41.033021667" lon="-5.874371667">
        <time>2022-06-28T11:12:11Z</time>
      </trkpt>
      <trkpt lat="41.033030000" lon="-5.874333333">
        <time>2022-06-28T11:12:12Z</time>
      </trkpt>
      <trkpt lat="41.033038333" lon="-5.874298333">
        <time>2022-06-28T11:12:13Z</time>
      </trkpt>
      <trkpt lat="41.033045000" lon="-5.874261667">
        <time>2022-06-28T11:12:14Z</time>
      </trkpt>
      <trkpt lat="41.033053333" lon="-5.874228333">
        <time>2022-06-28T11:12:15Z</time>
      </trkpt>
      <trkpt lat="41.033063333" lon="-5.874193333">
        <time>2022-06-28T11:12:16Z</time>
      </trkpt>
      <trkpt lat="41.033071667" lon="-5.874158333">
        <time>2022-06-28T11:12:17Z</time>
      </trkpt>
      <trkpt lat="41.033080000" lon="-5.874121667">
        <time>2022-06-28T11:12:18Z</time>
      </trkpt>
      <trkpt lat="41.033088333" lon="-5.874083333">
        <time>2022-06-28T11:12:19Z</time>
      </trkpt>
      <trkpt lat="41.033096667" lon="-5.874045000">
        <time>2022-06-28T11:12:20Z</time>
      </trkpt>
      <trkpt lat="41.033105000" lon="-5.874005000">
        <time>2022-06-28T11:12:21Z</time>
      </trkpt>
      <trkpt lat="41.033113333" lon="-5.873961667">
        <time>2022-06-28T11:12:22Z</time>
      </trkpt>
      <trkpt lat="41.033123333" lon="-5.873918333">
        <time>2022-06-28T11:12:23Z</time>
      </trkpt>
      <trkpt lat="41.033131667" lon="-5.873871667">
        <time>2022-06-28T11:12:24Z</time>
      </trkpt>
      <trkpt lat="41.033138333" lon="-5.873826667">
        <time>2022-06-28T11:12:25Z</time>
      </trkpt>
      <trkpt lat="41.033143333" lon="-5.873781667">
        <time>2022-06-28T11:12:26Z</time>
      </trkpt>
      <trkpt lat="41.033150000" lon="-5.873740000">
        <time>2022-06-28T11:12:27Z</time>
      </trkpt>
      <trkpt lat="41.033156667" lon="-5.873700000">
        <time>2022-06-28T11:12:28Z</time>
      </trkpt>
      <trkpt lat="41.033163333" lon="-5.873660000">
        <time>2022-06-28T11:12:29Z</time>
      </trkpt>
      <trkpt lat="41.033166667" lon="-5.873621667">
        <time>2022-06-28T11:12:30Z</time>
      </trkpt>
      <trkpt lat="41.033170000" lon="-5.873583333">
        <time>2022-06-28T11:12:31Z</time>
      </trkpt>
      <trkpt lat="41.033175000" lon="-5.873543333">
        <time>2022-06-28T11:12:32Z</time>
      </trkpt>
      <trkpt lat="41.033180000" lon="-5.873498333">
        <time>2022-06-28T11:12:33Z</time>
      </trkpt>
      <trkpt lat="41.033186667" lon="-5.873450000">
        <time>2022-06-28T11:12:34Z</time>
      </trkpt>
      <trkpt lat="41.033196667" lon="-5.873395000">
        <time>2022-06-28T11:12:35Z</time>
      </trkpt>
      <trkpt lat="41.033210000" lon="-5.873335000">
        <time>2022-06-28T11:12:36Z</time>
      </trkpt>
      <trkpt lat="41.033226667" lon="-5.873270000">
        <time>2022-06-28T11:12:37Z</time>
      </trkpt>
      <trkpt lat="41.033250000" lon="-5.873198333">
        <time>2022-06-28T11:12:38Z</time>
      </trkpt>
      <trkpt lat="41.033276667" lon="-5.873121667">
        <time>2022-06-28T11:12:39Z</time>
      </trkpt>
      <trkpt lat="41.033305000" lon="-5.873036667">
        <time>2022-06-28T11:12:40Z</time>
      </trkpt>
      <trkpt lat="41.033336667" lon="-5.872950000">
        <time>2022-06-28T11:12:41Z</time>
      </trkpt>
      <trkpt lat="41.033375000" lon="-5.872858333">
        <time>2022-06-28T11:12:42Z</time>
      </trkpt>
      <trkpt lat="41.033415000" lon="-5.872761667">
        <time>2022-06-28T11:12:43Z</time>
      </trkpt>
      <trkpt lat="41.033453333" lon="-5.872661667">
        <time>2022-06-28T11:12:44Z</time>
      </trkpt>
      <trkpt lat="41.033493333" lon="-5.872560000">
        <time>2022-06-28T11:12:45Z</time>
      </trkpt>
      <trkpt lat="41.033535000" lon="-5.872455000">
        <time>2022-06-28T11:12:46Z</time>
      </trkpt>
      <trkpt lat="41.033576667" lon="-5.872346667">
        <time>2022-06-28T11:12:47Z</time>
      </trkpt>
      <trkpt lat="41.033620000" lon="-5.872236667">
        <time>2022-06-28T11:12:48Z</time>
      </trkpt>
      <trkpt lat="41.033661667" lon="-5.872125000">
        <time>2022-06-28T11:12:49Z</time>
      </trkpt>
      <trkpt lat="41.033705000" lon="-5.872011667">
        <time>2022-06-28T11:12:50Z</time>
      </trkpt>
      <trkpt lat="41.033750000" lon="-5.871900000">
        <time>2022-06-28T11:12:51Z</time>
      </trkpt>
      <trkpt lat="41.033795000" lon="-5.871788333">
        <time>2022-06-28T11:12:52Z</time>
      </trkpt>
      <trkpt lat="41.033838333" lon="-5.871671667">
        <time>2022-06-28T11:12:53Z</time>
      </trkpt>
      <trkpt lat="41.033878333" lon="-5.871553333">
        <time>2022-06-28T11:12:54Z</time>
      </trkpt>
      <trkpt lat="41.033916667" lon="-5.871431667">
        <time>2022-06-28T11:12:55Z</time>
      </trkpt>
      <trkpt lat="41.033946667" lon="-5.871305000">
        <time>2022-06-28T11:12:56Z</time>
      </trkpt>
      <trkpt lat="41.033966667" lon="-5.871176667">
        <time>2022-06-28T11:12:57Z</time>
      </trkpt>
      <trkpt lat="41.033980000" lon="-5.871045000">
        <time>2022-06-28T11:12:58Z</time>
      </trkpt>
      <trkpt lat="41.033990000" lon="-5.870911667">
        <time>2022-06-28T11:12:59Z</time>
      </trkpt>
      <trkpt lat="41.033995000" lon="-5.870780000">
        <time>2022-06-28T11:13:00Z</time>
      </trkpt>
      <trkpt lat="41.033998333" lon="-5.870646667">
        <time>2022-06-28T11:13:01Z</time>
      </trkpt>
      <trkpt lat="41.034008333" lon="-5.870513333">
        <time>2022-06-28T11:13:02Z</time>
      </trkpt>
      <trkpt lat="41.034023333" lon="-5.870380000">
        <time>2022-06-28T11:13:03Z</time>
      </trkpt>
      <trkpt lat="41.034040000" lon="-5.870248333">
        <time>2022-06-28T11:13:04Z</time>
      </trkpt>
      <trkpt lat="41.034060000" lon="-5.870116667">
        <time>2022-06-28T11:13:05Z</time>
      </trkpt>
      <trkpt lat="41.034080000" lon="-5.869985000">
        <time>2022-06-28T11:13:06Z</time>
      </trkpt>
      <trkpt lat="41.034101667" lon="-5.869853333">
        <time>2022-06-28T11:13:07Z</time>
      </trkpt>
      <trkpt lat="41.034123333" lon="-5.869725000">
        <time>2022-06-28T11:13:08Z</time>
      </trkpt>
      <trkpt lat="41.034148333" lon="-5.869600000">
        <time>2022-06-28T11:13:09Z</time>
      </trkpt>
      <trkpt lat="41.034178333" lon="-5.869481667">
        <time>2022-06-28T11:13:10Z</time>
      </trkpt>
      <trkpt lat="41.034215000" lon="-5.869368333">
        <time>2022-06-28T11:13:11Z</time>
      </trkpt>
      <trkpt lat="41.034253333" lon="-5.869258333">
        <time>2022-06-28T11:13:12Z</time>
      </trkpt>
      <trkpt lat="41.034296667" lon="-5.869153333">
        <time>2022-06-28T11:13:13Z</time>
      </trkpt>
      <trkpt lat="41.034338333" lon="-5.869051667">
        <time>2022-06-28T11:13:14Z</time>
      </trkpt>
      <trkpt lat="41.034381667" lon="-5.868951667">
        <time>2022-06-28T11:13:15Z</time>
      </trkpt>
      <trkpt lat="41.034423333" lon="-5.868853333">
        <time>2022-06-28T11:13:16Z</time>
      </trkpt>
      <trkpt lat="41.034466667" lon="-5.868758333">
        <time>2022-06-28T11:13:17Z</time>
      </trkpt>
      <trkpt lat="41.034510000" lon="-5.868665000">
        <time>2022-06-28T11:13:18Z</time>
      </trkpt>
      <trkpt lat="41.034553333" lon="-5.868575000">
        <time>2022-06-28T11:13:19Z</time>
      </trkpt>
      <trkpt lat="41.034596667" lon="-5.868486667">
        <time>2022-06-28T11:13:20Z</time>
      </trkpt>
      <trkpt lat="41.034640000" lon="-5.868400000">
        <time>2022-06-28T11:13:21Z</time>
      </trkpt>
      <trkpt lat="41.034681667" lon="-5.868318333">
        <time>2022-06-28T11:13:22Z</time>
      </trkpt>
      <trkpt lat="41.034723333" lon="-5.868238333">
        <time>2022-06-28T11:13:23Z</time>
      </trkpt>
      <trkpt lat="41.034763333" lon="-5.868160000">
        <time>2022-06-28T11:13:24Z</time>
      </trkpt>
      <trkpt lat="41.034803333" lon="-5.868088333">
        <time>2022-06-28T11:13:25Z</time>
      </trkpt>
      <trkpt lat="41.034843333" lon="-5.868016667">
        <time>2022-06-28T11:13:26Z</time>
      </trkpt>
      <trkpt lat="41.034885000" lon="-5.867946667">
        <time>2022-06-28T11:13:27Z</time>
      </trkpt>
      <trkpt lat="41.034925000" lon="-5.867876667">
        <time>2022-06-28T11:13:28Z</time>
      </trkpt>
      <trkpt lat="41.034966667" lon="-5.867805000">
        <time>2022-06-28T11:13:29Z</time>
      </trkpt>
      <trkpt lat="41.035008333" lon="-5.867733333">
        <time>2022-06-28T11:13:30Z</time>
      </trkpt>
      <trkpt lat="41.035050000" lon="-5.867663333">
        <time>2022-06-28T11:13:31Z</time>
      </trkpt>
      <trkpt lat="41.035091667" lon="-5.867593333">
        <time>2022-06-28T11:13:32Z</time>
      </trkpt>
      <trkpt lat="41.035133333" lon="-5.867523333">
        <time>2022-06-28T11:13:33Z</time>
      </trkpt>
      <trkpt lat="41.035176667" lon="-5.867455000">
        <time>2022-06-28T11:13:34Z</time>
      </trkpt>
      <trkpt lat="41.035218333" lon="-5.867385000">
        <time>2022-06-28T11:13:35Z</time>
      </trkpt>
      <trkpt lat="41.035261667" lon="-5.867316667">
        <time>2022-06-28T11:13:36Z</time>
      </trkpt>
      <trkpt lat="41.035303333" lon="-5.867246667">
        <time>2022-06-28T11:13:37Z</time>
      </trkpt>
      <trkpt lat="41.035345000" lon="-5.867178333">
        <time>2022-06-28T11:13:38Z</time>
      </trkpt>
      <trkpt lat="41.035386667" lon="-5.867111667">
        <time>2022-06-28T11:13:39Z</time>
      </trkpt>
      <trkpt lat="41.035426667" lon="-5.867043333">
        <time>2022-06-28T11:13:40Z</time>
      </trkpt>
      <trkpt lat="41.035465000" lon="-5.866975000">
        <time>2022-06-28T11:13:41Z</time>
      </trkpt>
      <trkpt lat="41.035495000" lon="-5.866901667">
        <time>2022-06-28T11:13:42Z</time>
      </trkpt>
      <trkpt lat="41.035518333" lon="-5.866823333">
        <time>2022-06-28T11:13:43Z</time>
      </trkpt>
      <trkpt lat="41.035533333" lon="-5.866743333">
        <time>2022-06-28T11:13:44Z</time>
      </trkpt>
      <trkpt lat="41.035536667" lon="-5.866663333">
        <time>2022-06-28T11:13:45Z</time>
      </trkpt>
      <trkpt lat="41.035533333" lon="-5.866588333">
        <time>2022-06-28T11:13:46Z</time>
      </trkpt>
      <trkpt lat="41.035528333" lon="-5.866523333">
        <time>2022-06-28T11:13:47Z</time>
      </trkpt>
      <trkpt lat="41.035525000" lon="-5.866463333">
        <time>2022-06-28T11:13:48Z</time>
      </trkpt>
      <trkpt lat="41.035518333" lon="-5.866403333">
        <time>2022-06-28T11:13:49Z</time>
      </trkpt>
      <trkpt lat="41.035510000" lon="-5.866343333">
        <time>2022-06-28T11:13:50Z</time>
      </trkpt>
      <trkpt lat="41.035501667" lon="-5.866283333">
        <time>2022-06-28T11:13:51Z</time>
      </trkpt>
      <trkpt lat="41.035491667" lon="-5.866223333">
        <time>2022-06-28T11:13:52Z</time>
      </trkpt>
      <trkpt lat="41.035480000" lon="-5.866160000">
        <time>2022-06-28T11:13:53Z</time>
      </trkpt>
      <trkpt lat="41.035470000" lon="-5.866093333">
        <time>2022-06-28T11:13:54Z</time>
      </trkpt>
      <trkpt lat="41.035456667" lon="-5.866026667">
        <time>2022-06-28T11:13:55Z</time>
      </trkpt>
      <trkpt lat="41.035445000" lon="-5.865955000">
        <time>2022-06-28T11:13:56Z</time>
      </trkpt>
      <trkpt lat="41.035433333" lon="-5.865883333">
        <time>2022-06-28T11:13:57Z</time>
      </trkpt>
      <trkpt lat="41.035420000" lon="-5.865810000">
        <time>2022-06-28T11:13:58Z</time>
      </trkpt>
      <trkpt lat="41.035408333" lon="-5.865736667">
        <time>2022-06-28T11:13:59Z</time>
      </trkpt>
      <trkpt lat="41.035396667" lon="-5.865660000">
        <time>2022-06-28T11:14:00Z</time>
      </trkpt>
      <trkpt lat="41.035385000" lon="-5.865583333">
        <time>2022-06-28T11:14:01Z</time>
      </trkpt>
      <trkpt lat="41.035371667" lon="-5.865505000">
        <time>2022-06-28T11:14:02Z</time>
      </trkpt>
      <trkpt lat="41.035361667" lon="-5.865425000">
        <time>2022-06-28T11:14:03Z</time>
      </trkpt>
      <trkpt lat="41.035351667" lon="-5.865345000">
        <time>2022-06-28T11:14:04Z</time>
      </trkpt>
      <trkpt lat="41.035341667" lon="-5.865261667">
        <time>2022-06-28T11:14:05Z</time>
      </trkpt>
      <trkpt lat="41.035336667" lon="-5.865178333">
        <time>2022-06-28T11:14:06Z</time>
      </trkpt>
      <trkpt lat="41.035326667" lon="-5.865093333">
        <time>2022-06-28T11:14:07Z</time>
      </trkpt>
      <trkpt lat="41.035318333" lon="-5.865008333">
        <time>2022-06-28T11:14:08Z</time>
      </trkpt>
      <trkpt lat="41.035310000" lon="-5.864923333">
        <time>2022-06-28T11:14:09Z</time>
      </trkpt>
      <trkpt lat="41.035303333" lon="-5.864836667">
        <time>2022-06-28T11:14:10Z</time>
      </trkpt>
      <trkpt lat="41.035296667" lon="-5.864751667">
        <time>2022-06-28T11:14:11Z</time>
      </trkpt>
      <trkpt lat="41.035290000" lon="-5.864666667">
        <time>2022-06-28T11:14:12Z</time>
      </trkpt>
      <trkpt lat="41.035281667" lon="-5.864585000">
        <time>2022-06-28T11:14:13Z</time>
      </trkpt>
      <trkpt lat="41.035271667" lon="-5.864506667">
        <time>2022-06-28T11:14:14Z</time>
      </trkpt>
      <trkpt lat="41.035263333" lon="-5.864428333">
        <time>2022-06-28T11:14:15Z</time>
      </trkpt>
      <trkpt lat="41.035253333" lon="-5.864351667">
        <time>2022-06-28T11:14:16Z</time>
      </trkpt>
      <trkpt lat="41.035240000" lon="-5.864276667">
        <time>2022-06-28T11:14:17Z</time>
      </trkpt>
      <trkpt lat="41.035225000" lon="-5.864201667">
        <time>2022-06-28T11:14:18Z</time>
      </trkpt>
      <trkpt lat="41.035206667" lon="-5.864126667">
        <time>2022-06-28T11:14:19Z</time>
      </trkpt>
      <trkpt lat="41.035188333" lon="-5.864051667">
        <time>2022-06-28T11:14:20Z</time>
      </trkpt>
      <trkpt lat="41.035166667" lon="-5.863975000">
        <time>2022-06-28T11:14:21Z</time>
      </trkpt>
      <trkpt lat="41.035143333" lon="-5.863898333">
        <time>2022-06-28T11:14:22Z</time>
      </trkpt>
      <trkpt lat="41.035118333" lon="-5.863821667">
        <time>2022-06-28T11:14:23Z</time>
      </trkpt>
      <trkpt lat="41.035095000" lon="-5.863745000">
        <time>2022-06-28T11:14:24Z</time>
      </trkpt>
      <trkpt lat="41.035073333" lon="-5.863666667">
        <time>2022-06-28T11:14:25Z</time>
      </trkpt>
      <trkpt lat="41.035048333" lon="-5.863586667">
        <time>2022-06-28T11:14:26Z</time>
      </trkpt>
      <trkpt lat="41.035021667" lon="-5.863510000">
        <time>2022-06-28T11:14:27Z</time>
      </trkpt>
      <trkpt lat="41.034995000" lon="-5.863435000">
        <time>2022-06-28T11:14:28Z</time>
      </trkpt>
      <trkpt lat="41.034970000" lon="-5.863356667">
        <time>2022-06-28T11:14:29Z</time>
      </trkpt>
      <trkpt lat="41.034945000" lon="-5.863276667">
        <time>2022-06-28T11:14:30Z</time>
      </trkpt>
      <trkpt lat="41.034920000" lon="-5.863191667">
        <time>2022-06-28T11:14:31Z</time>
      </trkpt>
      <trkpt lat="41.034895000" lon="-5.863110000">
        <time>2022-06-28T11:14:32Z</time>
      </trkpt>
      <trkpt lat="41.034871667" lon="-5.863028333">
        <time>2022-06-28T11:14:33Z</time>
      </trkpt>
      <trkpt lat="41.034848333" lon="-5.862948333">
        <time>2022-06-28T11:14:34Z</time>
      </trkpt>
      <trkpt lat="41.034821667" lon="-5.862871667">
        <time>2022-06-28T11:14:35Z</time>
      </trkpt>
      <trkpt lat="41.034796667" lon="-5.862793333">
        <time>2022-06-28T11:14:36Z</time>
      </trkpt>
      <trkpt lat="41.034771667" lon="-5.862716667">
        <time>2022-06-28T11:14:37Z</time>
      </trkpt>
      <trkpt lat="41.034745000" lon="-5.862638333">
        <time>2022-06-28T11:14:38Z</time>
      </trkpt>
      <trkpt lat="41.034721667" lon="-5.862561667">
        <time>2022-06-28T11:14:39Z</time>
      </trkpt>
      <trkpt lat="41.034695000" lon="-5.862488333">
        <time>2022-06-28T11:14:40Z</time>
      </trkpt>
      <trkpt lat="41.034668333" lon="-5.862416667">
        <time>2022-06-28T11:14:41Z</time>
      </trkpt>
      <trkpt lat="41.034646667" lon="-5.862346667">
        <time>2022-06-28T11:14:42Z</time>
      </trkpt>
      <trkpt lat="41.034628333" lon="-5.862275000">
        <time>2022-06-28T11:14:43Z</time>
      </trkpt>
      <trkpt lat="41.034610000" lon="-5.862201667">
        <time>2022-06-28T11:14:44Z</time>
      </trkpt>
      <trkpt lat="41.034590000" lon="-5.862128333">
        <time>2022-06-28T11:14:45Z</time>
      </trkpt>
      <trkpt lat="41.034571667" lon="-5.862055000">
        <time>2022-06-28T11:14:46Z</time>
      </trkpt>
      <trkpt lat="41.034551667" lon="-5.861983333">
        <time>2022-06-28T11:14:47Z</time>
      </trkpt>
      <trkpt lat="41.034533333" lon="-5.861911667">
        <time>2022-06-28T11:14:48Z</time>
      </trkpt>
      <trkpt lat="41.034515000" lon="-5.861845000">
        <time>2022-06-28T11:14:49Z</time>
      </trkpt>
      <trkpt lat="41.034496667" lon="-5.861780000">
        <time>2022-06-28T11:14:50Z</time>
      </trkpt>
      <trkpt lat="41.034478333" lon="-5.861720000">
        <time>2022-06-28T11:14:51Z</time>
      </trkpt>
      <trkpt lat="41.034461667" lon="-5.861665000">
        <time>2022-06-28T11:14:52Z</time>
      </trkpt>
      <trkpt lat="41.034445000" lon="-5.861611667">
        <time>2022-06-28T11:14:53Z</time>
      </trkpt>
      <trkpt lat="41.034430000" lon="-5.861558333">
        <time>2022-06-28T11:14:54Z</time>
      </trkpt>
      <trkpt lat="41.034415000" lon="-5.861503333">
        <time>2022-06-28T11:14:55Z</time>
      </trkpt>
      <trkpt lat="41.034398333" lon="-5.861451667">
        <time>2022-06-28T11:14:56Z</time>
      </trkpt>
      <trkpt lat="41.034380000" lon="-5.861398333">
        <time>2022-06-28T11:14:57Z</time>
      </trkpt>
      <trkpt lat="41.034360000" lon="-5.861345000">
        <time>2022-06-28T11:14:58Z</time>
      </trkpt>
      <trkpt lat="41.034343333" lon="-5.861293333">
        <time>2022-06-28T11:14:59Z</time>
      </trkpt>
      <trkpt lat="41.034328333" lon="-5.861241667">
        <time>2022-06-28T11:15:00Z</time>
      </trkpt>
      <trkpt lat="41.034311667" lon="-5.861193333">
        <time>2022-06-28T11:15:01Z</time>
      </trkpt>
      <trkpt lat="41.034293333" lon="-5.861150000">
        <time>2022-06-28T11:15:02Z</time>
      </trkpt>
      <trkpt lat="41.034280000" lon="-5.861105000">
        <time>2022-06-28T11:15:03Z</time>
      </trkpt>
      <trkpt lat="41.034270000" lon="-5.861061667">
        <time>2022-06-28T11:15:04Z</time>
      </trkpt>
      <trkpt lat="41.034250000" lon="-5.861023333">
        <time>2022-06-28T11:15:05Z</time>
      </trkpt>
      <trkpt lat="41.034216667" lon="-5.861001667">
        <time>2022-06-28T11:15:06Z</time>
      </trkpt>
      <trkpt lat="41.034178333" lon="-5.860993333">
        <time>2022-06-28T11:15:07Z</time>
      </trkpt>
      <trkpt lat="41.034138333" lon="-5.860995000">
        <time>2022-06-28T11:15:08Z</time>
      </trkpt>
      <trkpt lat="41.034096667" lon="-5.860998333">
        <time>2022-06-28T11:15:09Z</time>
      </trkpt>
      <trkpt lat="41.034055000" lon="-5.861000000">
        <time>2022-06-28T11:15:10Z</time>
      </trkpt>
      <trkpt lat="41.034013333" lon="-5.861001667">
        <time>2022-06-28T11:15:11Z</time>
      </trkpt>
      <trkpt lat="41.033970000" lon="-5.861003333">
        <time>2022-06-28T11:15:12Z</time>
      </trkpt>
      <trkpt lat="41.033926667" lon="-5.861005000">
        <time>2022-06-28T11:15:13Z</time>
      </trkpt>
      <trkpt lat="41.033883333" lon="-5.861005000">
        <time>2022-06-28T11:15:14Z</time>
      </trkpt>
      <trkpt lat="41.033841667" lon="-5.861008333">
        <time>2022-06-28T11:15:15Z</time>
      </trkpt>
      <trkpt lat="41.033801667" lon="-5.861006667">
        <time>2022-06-28T11:15:16Z</time>
      </trkpt>
      <trkpt lat="41.033760000" lon="-5.860996667">
        <time>2022-06-28T11:15:17Z</time>
      </trkpt>
      <trkpt lat="41.033718333" lon="-5.860988333">
        <time>2022-06-28T11:15:18Z</time>
      </trkpt>
      <trkpt lat="41.033676667" lon="-5.860986667">
        <time>2022-06-28T11:15:19Z</time>
      </trkpt>
      <trkpt lat="41.033635000" lon="-5.860985000">
        <time>2022-06-28T11:15:20Z</time>
      </trkpt>
      <trkpt lat="41.033591667" lon="-5.860991667">
        <time>2022-06-28T11:15:21Z</time>
      </trkpt>
      <trkpt lat="41.033550000" lon="-5.861000000">
        <time>2022-06-28T11:15:22Z</time>
      </trkpt>
      <trkpt lat="41.033508333" lon="-5.861008333">
        <time>2022-06-28T11:15:23Z</time>
      </trkpt>
      <trkpt lat="41.033466667" lon="-5.861018333">
        <time>2022-06-28T11:15:24Z</time>
      </trkpt>
      <trkpt lat="41.033426667" lon="-5.861016667">
        <time>2022-06-28T11:15:25Z</time>
      </trkpt>
      <trkpt lat="41.033385000" lon="-5.861005000">
        <time>2022-06-28T11:15:26Z</time>
      </trkpt>
      <trkpt lat="41.033346667" lon="-5.860973333">
        <time>2022-06-28T11:15:27Z</time>
      </trkpt>
      <trkpt lat="41.033313333" lon="-5.860923333">
        <time>2022-06-28T11:15:28Z</time>
      </trkpt>
      <trkpt lat="41.033280000" lon="-5.860863333">
        <time>2022-06-28T11:15:29Z</time>
      </trkpt>
      <trkpt lat="41.033243333" lon="-5.860798333">
        <time>2022-06-28T11:15:30Z</time>
      </trkpt>
      <trkpt lat="41.033201667" lon="-5.860728333">
        <time>2022-06-28T11:15:31Z</time>
      </trkpt>
      <trkpt lat="41.033161667" lon="-5.860656667">
        <time>2022-06-28T11:15:32Z</time>
      </trkpt>
      <trkpt lat="41.033123333" lon="-5.860585000">
        <time>2022-06-28T11:15:33Z</time>
      </trkpt>
      <trkpt lat="41.033086667" lon="-5.860520000">
        <time>2022-06-28T11:15:34Z</time>
      </trkpt>
      <trkpt lat="41.033053333" lon="-5.860458333">
        <time>2022-06-28T11:15:35Z</time>
      </trkpt>
      <trkpt lat="41.033021667" lon="-5.860403333">
        <time>2022-06-28T11:15:36Z</time>
      </trkpt>
      <trkpt lat="41.032990000" lon="-5.860356667">
        <time>2022-06-28T11:15:37Z</time>
      </trkpt>
      <trkpt lat="41.032960000" lon="-5.860313333">
        <time>2022-06-28T11:15:38Z</time>
      </trkpt>
      <trkpt lat="41.032926667" lon="-5.860275000">
        <time>2022-06-28T11:15:39Z</time>
      </trkpt>
      <trkpt lat="41.032890000" lon="-5.860243333">
        <time>2022-06-28T11:15:40Z</time>
      </trkpt>
      <trkpt lat="41.032846667" lon="-5.860221667">
        <time>2022-06-28T11:15:41Z</time>
      </trkpt>
      <trkpt lat="41.032798333" lon="-5.860205000">
        <time>2022-06-28T11:15:42Z</time>
      </trkpt>
      <trkpt lat="41.032751667" lon="-5.860188333">
        <time>2022-06-28T11:15:43Z</time>
      </trkpt>
      <trkpt lat="41.032706667" lon="-5.860173333">
        <time>2022-06-28T11:15:44Z</time>
      </trkpt>
      <trkpt lat="41.032661667" lon="-5.860161667">
        <time>2022-06-28T11:15:45Z</time>
      </trkpt>
      <trkpt lat="41.032618333" lon="-5.860146667">
        <time>2022-06-28T11:15:46Z</time>
      </trkpt>
      <trkpt lat="41.032576667" lon="-5.860118333">
        <time>2022-06-28T11:15:47Z</time>
      </trkpt>
      <trkpt lat="41.032533333" lon="-5.860080000">
        <time>2022-06-28T11:15:48Z</time>
      </trkpt>
      <trkpt lat="41.032493333" lon="-5.860030000">
        <time>2022-06-28T11:15:49Z</time>
      </trkpt>
      <trkpt lat="41.032456667" lon="-5.859968333">
        <time>2022-06-28T11:15:50Z</time>
      </trkpt>
      <trkpt lat="41.032425000" lon="-5.859898333">
        <time>2022-06-28T11:15:51Z</time>
      </trkpt>
      <trkpt lat="41.032395000" lon="-5.859825000">
        <time>2022-06-28T11:15:52Z</time>
      </trkpt>
      <trkpt lat="41.032356667" lon="-5.859756667">
        <time>2022-06-28T11:15:53Z</time>
      </trkpt>
      <trkpt lat="41.032311667" lon="-5.859696667">
        <time>2022-06-28T11:15:54Z</time>
      </trkpt>
      <trkpt lat="41.032258333" lon="-5.859650000">
        <time>2022-06-28T11:15:55Z</time>
      </trkpt>
      <trkpt lat="41.032200000" lon="-5.859618333">
        <time>2022-06-28T11:15:56Z</time>
      </trkpt>
      <trkpt lat="41.032138333" lon="-5.859586667">
        <time>2022-06-28T11:15:57Z</time>
      </trkpt>
      <trkpt lat="41.032075000" lon="-5.859548333">
        <time>2022-06-28T11:15:58Z</time>
      </trkpt>
      <trkpt lat="41.032011667" lon="-5.859506667">
        <time>2022-06-28T11:15:59Z</time>
      </trkpt>
      <trkpt lat="41.031950000" lon="-5.859463333">
        <time>2022-06-28T11:16:00Z</time>
      </trkpt>
      <trkpt lat="41.031890000" lon="-5.859420000">
        <time>2022-06-28T11:16:01Z</time>
      </trkpt>
      <trkpt lat="41.031830000" lon="-5.859376667">
        <time>2022-06-28T11:16:02Z</time>
      </trkpt>
      <trkpt lat="41.031771667" lon="-5.859335000">
        <time>2022-06-28T11:16:03Z</time>
      </trkpt>
      <trkpt lat="41.031711667" lon="-5.859295000">
        <time>2022-06-28T11:16:04Z</time>
      </trkpt>
      <trkpt lat="41.031653333" lon="-5.859260000">
        <time>2022-06-28T11:16:05Z</time>
      </trkpt>
      <trkpt lat="41.031595000" lon="-5.859228333">
        <time>2022-06-28T11:16:06Z</time>
      </trkpt>
      <trkpt lat="41.031536667" lon="-5.859200000">
        <time>2022-06-28T11:16:07Z</time>
      </trkpt>
      <trkpt lat="41.031478333" lon="-5.859173333">
        <time>2022-06-28T11:16:08Z</time>
      </trkpt>
      <trkpt lat="41.031421667" lon="-5.859143333">
        <time>2022-06-28T11:16:09Z</time>
      </trkpt>
      <trkpt lat="41.031365000" lon="-5.859111667">
        <time>2022-06-28T11:16:10Z</time>
      </trkpt>
      <trkpt lat="41.031313333" lon="-5.859075000">
        <time>2022-06-28T11:16:11Z</time>
      </trkpt>
      <trkpt lat="41.031258333" lon="-5.859030000">
        <time>2022-06-28T11:16:12Z</time>
      </trkpt>
      <trkpt lat="41.031203333" lon="-5.858983333">
        <time>2022-06-28T11:16:13Z</time>
      </trkpt>
      <trkpt lat="41.031150000" lon="-5.858933333">
        <time>2022-06-28T11:16:14Z</time>
      </trkpt>
      <trkpt lat="41.031095000" lon="-5.858888333">
        <time>2022-06-28T11:16:15Z</time>
      </trkpt>
      <trkpt lat="41.031038333" lon="-5.858855000">
        <time>2022-06-28T11:16:16Z</time>
      </trkpt>
      <trkpt lat="41.030976667" lon="-5.858833333">
        <time>2022-06-28T11:16:17Z</time>
      </trkpt>
      <trkpt lat="41.030915000" lon="-5.858833333">
        <time>2022-06-28T11:16:18Z</time>
      </trkpt>
      <trkpt lat="41.030851667" lon="-5.858830000">
        <time>2022-06-28T11:16:19Z</time>
      </trkpt>
      <trkpt lat="41.030788333" lon="-5.858811667">
        <time>2022-06-28T11:16:20Z</time>
      </trkpt>
      <trkpt lat="41.030731667" lon="-5.858780000">
        <time>2022-06-28T11:16:21Z</time>
      </trkpt>
      <trkpt lat="41.030678333" lon="-5.858745000">
        <time>2022-06-28T11:16:22Z</time>
      </trkpt>
      <trkpt lat="41.030630000" lon="-5.858711667">
        <time>2022-06-28T11:16:23Z</time>
      </trkpt>
      <trkpt lat="41.030583333" lon="-5.858685000">
        <time>2022-06-28T11:16:24Z</time>
      </trkpt>
      <trkpt lat="41.030545000" lon="-5.858666667">
        <time>2022-06-28T11:16:25Z</time>
      </trkpt>
      <trkpt lat="41.030511667" lon="-5.858646667">
        <time>2022-06-28T11:16:26Z</time>
      </trkpt>
      <trkpt lat="41.030485000" lon="-5.858626667">
        <time>2022-06-28T11:16:27Z</time>
      </trkpt>
      <trkpt lat="41.030463333" lon="-5.858611667">
        <time>2022-06-28T11:16:28Z</time>
      </trkpt>
      <trkpt lat="41.030448333" lon="-5.858595000">
        <time>2022-06-28T11:16:29Z</time>
      </trkpt>
      <trkpt lat="41.030440000" lon="-5.858571667">
        <time>2022-06-28T11:16:30Z</time>
      </trkpt>
      <trkpt lat="41.030445000" lon="-5.858553333">
        <time>2022-06-28T11:16:31Z</time>
      </trkpt>
      <trkpt lat="41.030460000" lon="-5.858525000">
        <time>2022-06-28T11:16:32Z</time>
      </trkpt>
      <trkpt lat="41.030465000" lon="-5.858480000">
        <time>2022-06-28T11:16:33Z</time>
      </trkpt>
      <trkpt lat="41.030463333" lon="-5.858431667">
        <time>2022-06-28T11:16:34Z</time>
      </trkpt>
      <trkpt lat="41.030460000" lon="-5.858383333">
        <time>2022-06-28T11:16:35Z</time>
      </trkpt>
      <trkpt lat="41.030456667" lon="-5.858336667">
        <time>2022-06-28T11:16:36Z</time>
      </trkpt>
      <trkpt lat="41.030450000" lon="-5.858296667">
        <time>2022-06-28T11:16:37Z</time>
      </trkpt>
      <trkpt lat="41.030445000" lon="-5.858265000">
        <time>2022-06-28T11:16:38Z</time>
      </trkpt>
      <trkpt lat="41.030450000" lon="-5.858245000">
        <time>2022-06-28T11:16:39Z</time>
      </trkpt>
      <trkpt lat="41.030458333" lon="-5.858241667">
        <time>2022-06-28T11:16:40Z</time>
      </trkpt>
      <trkpt lat="41.030466667" lon="-5.858251667">
        <time>2022-06-28T11:16:41Z</time>
      </trkpt>
      <trkpt lat="41.030471667" lon="-5.858271667">
        <time>2022-06-28T11:16:42Z</time>
      </trkpt>
      <trkpt lat="41.030473333" lon="-5.858300000">
        <time>2022-06-28T11:16:43Z</time>
      </trkpt>
      <trkpt lat="41.030475000" lon="-5.858335000">
        <time>2022-06-28T11:16:44Z</time>
      </trkpt>
      <trkpt lat="41.030475000" lon="-5.858378333">
        <time>2022-06-28T11:16:45Z</time>
      </trkpt>
      <trkpt lat="41.030475000" lon="-5.858425000">
        <time>2022-06-28T11:16:46Z</time>
      </trkpt>
      <trkpt lat="41.030480000" lon="-5.858473333">
        <time>2022-06-28T11:16:47Z</time>
      </trkpt>
      <trkpt lat="41.030493333" lon="-5.858523333">
        <time>2022-06-28T11:16:48Z</time>
      </trkpt>
      <trkpt lat="41.030516667" lon="-5.858571667">
        <time>2022-06-28T11:16:49Z</time>
      </trkpt>
      <trkpt lat="41.030546667" lon="-5.858620000">
        <time>2022-06-28T11:16:50Z</time>
      </trkpt>
      <trkpt lat="41.030581667" lon="-5.858668333">
        <time>2022-06-28T11:16:51Z</time>
      </trkpt>
      <trkpt lat="41.030626667" lon="-5.858720000">
        <time>2022-06-28T11:16:52Z</time>
      </trkpt>
      <trkpt lat="41.030678333" lon="-5.858765000">
        <time>2022-06-28T11:16:53Z</time>
      </trkpt>
      <trkpt lat="41.030723333" lon="-5.858798333">
        <time>2022-06-28T11:16:54Z</time>
      </trkpt>
      <trkpt lat="41.030761667" lon="-5.858820000">
        <time>2022-06-28T11:16:55Z</time>
      </trkpt>
      <trkpt lat="41.030791667" lon="-5.858831667">
        <time>2022-06-28T11:16:56Z</time>
      </trkpt>
      <trkpt lat="41.030813333" lon="-5.858840000">
        <time>2022-06-28T11:16:57Z</time>
      </trkpt>
      <trkpt lat="41.030828333" lon="-5.858831667">
        <time>2022-06-28T11:16:58Z</time>
      </trkpt>
      <trkpt lat="41.030836667" lon="-5.858813333">
        <time>2022-06-28T11:16:59Z</time>
      </trkpt>
      <trkpt lat="41.030831667" lon="-5.858791667">
        <time>2022-06-28T11:17:00Z</time>
      </trkpt>
      <trkpt lat="41.030821667" lon="-5.858776667">
        <time>2022-06-28T11:17:01Z</time>
      </trkpt>
      <trkpt lat="41.030810000" lon="-5.858758333">
        <time>2022-06-28T11:17:02Z</time>
      </trkpt>
      <trkpt lat="41.030796667" lon="-5.858740000">
        <time>2022-06-28T11:17:03Z</time>
      </trkpt>
      <trkpt lat="41.030781667" lon="-5.858720000">
        <time>2022-06-28T11:17:04Z</time>
      </trkpt>
      <trkpt lat="41.030766667" lon="-5.858703333">
        <time>2022-06-28T11:17:05Z</time>
      </trkpt>
      <trkpt lat="41.030753333" lon="-5.858685000">
        <time>2022-06-28T11:17:06Z</time>
      </trkpt>
      <trkpt lat="41.030743333" lon="-5.858668333">
        <time>2022-06-28T11:17:07Z</time>
      </trkpt>
      <trkpt lat="41.030728333" lon="-5.858648333">
        <time>2022-06-28T11:17:08Z</time>
      </trkpt>
      <trkpt lat="41.030713333" lon="-5.858631667">
        <time>2022-06-28T11:17:09Z</time>
      </trkpt>
      <trkpt lat="41.030695000" lon="-5.858613333">
        <time>2022-06-28T11:17:10Z</time>
      </trkpt>
      <trkpt lat="41.030681667" lon="-5.858593333">
        <time>2022-06-28T11:17:11Z</time>
      </trkpt>
      <trkpt lat="41.030675000" lon="-5.858575000">
        <time>2022-06-28T11:17:12Z</time>
      </trkpt>
      <trkpt lat="41.030670000" lon="-5.858556667">
        <time>2022-06-28T11:17:13Z</time>
      </trkpt>
      <trkpt lat="41.030668333" lon="-5.858541667">
        <time>2022-06-28T11:17:14Z</time>
      </trkpt>
      <trkpt lat="41.030670000" lon="-5.858533333">
        <time>2022-06-28T11:17:15Z</time>
      </trkpt>
      <trkpt lat="41.030751667" lon="-5.858651667">
        <time>2022-06-28T11:17:16Z</time>
      </trkpt>
      <trkpt lat="41.030750000" lon="-5.858651667">
        <time>2022-06-28T11:17:17Z</time>
      </trkpt>
      <trkpt lat="41.030751667" lon="-5.858653333">
        <time>2022-06-28T11:17:18Z</time>
      </trkpt>
      <trkpt lat="41.030755000" lon="-5.858663333">
        <time>2022-06-28T11:17:19Z</time>
      </trkpt>
      <trkpt lat="41.030758333" lon="-5.858686667">
        <time>2022-06-28T11:17:20Z</time>
      </trkpt>
      <trkpt lat="41.030766667" lon="-5.858711667">
        <time>2022-06-28T11:17:21Z</time>
      </trkpt>
      <trkpt lat="41.030775000" lon="-5.858736667">
        <time>2022-06-28T11:17:22Z</time>
      </trkpt>
      <trkpt lat="41.030786667" lon="-5.858761667">
        <time>2022-06-28T11:17:23Z</time>
      </trkpt>
      <trkpt lat="41.030800000" lon="-5.858788333">
        <time>2022-06-28T11:17:24Z</time>
      </trkpt>
      <trkpt lat="41.030818333" lon="-5.858810000">
        <time>2022-06-28T11:17:25Z</time>
      </trkpt>
      <trkpt lat="41.030838333" lon="-5.858826667">
        <time>2022-06-28T11:17:26Z</time>
      </trkpt>
      <trkpt lat="41.030865000" lon="-5.858828333">
        <time>2022-06-28T11:17:27Z</time>
      </trkpt>
      <trkpt lat="41.030896667" lon="-5.858820000">
        <time>2022-06-28T11:17:28Z</time>
      </trkpt>
      <trkpt lat="41.030931667" lon="-5.858810000">
        <time>2022-06-28T11:17:29Z</time>
      </trkpt>
      <trkpt lat="41.030970000" lon="-5.858810000">
        <time>2022-06-28T11:17:30Z</time>
      </trkpt>
      <trkpt lat="41.031010000" lon="-5.858825000">
        <time>2022-06-28T11:17:31Z</time>
      </trkpt>
      <trkpt lat="41.031048333" lon="-5.858853333">
        <time>2022-06-28T11:17:32Z</time>
      </trkpt>
      <trkpt lat="41.031088333" lon="-5.858885000">
        <time>2022-06-28T11:17:33Z</time>
      </trkpt>
      <trkpt lat="41.031131667" lon="-5.858920000">
        <time>2022-06-28T11:17:34Z</time>
      </trkpt>
      <trkpt lat="41.031175000" lon="-5.858951667">
        <time>2022-06-28T11:17:35Z</time>
      </trkpt>
      <trkpt lat="41.031220000" lon="-5.858985000">
        <time>2022-06-28T11:17:36Z</time>
      </trkpt>
      <trkpt lat="41.031266667" lon="-5.859018333">
        <time>2022-06-28T11:17:37Z</time>
      </trkpt>
      <trkpt lat="41.031313333" lon="-5.859051667">
        <time>2022-06-28T11:17:38Z</time>
      </trkpt>
      <trkpt lat="41.031356667" lon="-5.859085000">
        <time>2022-06-28T11:17:39Z</time>
      </trkpt>
      <trkpt lat="41.031400000" lon="-5.859113333">
        <time>2022-06-28T11:17:40Z</time>
      </trkpt>
      <trkpt lat="41.031440000" lon="-5.859136667">
        <time>2022-06-28T11:17:41Z</time>
      </trkpt>
      <trkpt lat="41.031483333" lon="-5.859158333">
        <time>2022-06-28T11:17:42Z</time>
      </trkpt>
      <trkpt lat="41.031530000" lon="-5.859176667">
        <time>2022-06-28T11:17:43Z</time>
      </trkpt>
      <trkpt lat="41.031580000" lon="-5.859201667">
        <time>2022-06-28T11:17:44Z</time>
      </trkpt>
      <trkpt lat="41.031630000" lon="-5.859230000">
        <time>2022-06-28T11:17:45Z</time>
      </trkpt>
      <trkpt lat="41.031680000" lon="-5.859260000">
        <time>2022-06-28T11:17:46Z</time>
      </trkpt>
      <trkpt lat="41.031735000" lon="-5.859293333">
        <time>2022-06-28T11:17:47Z</time>
      </trkpt>
      <trkpt lat="41.031790000" lon="-5.859328333">
        <time>2022-06-28T11:17:48Z</time>
      </trkpt>
      <trkpt lat="41.031846667" lon="-5.859370000">
        <time>2022-06-28T11:17:49Z</time>
      </trkpt>
      <trkpt lat="41.031906667" lon="-5.859413333">
        <time>2022-06-28T11:17:50Z</time>
      </trkpt>
      <trkpt lat="41.031966667" lon="-5.859456667">
        <time>2022-06-28T11:17:51Z</time>
      </trkpt>
      <trkpt lat="41.032025000" lon="-5.859498333">
        <time>2022-06-28T11:17:52Z</time>
      </trkpt>
      <trkpt lat="41.032080000" lon="-5.859535000">
        <time>2022-06-28T11:17:53Z</time>
      </trkpt>
      <trkpt lat="41.032135000" lon="-5.859566667">
        <time>2022-06-28T11:17:54Z</time>
      </trkpt>
      <trkpt lat="41.032188333" lon="-5.859593333">
        <time>2022-06-28T11:17:55Z</time>
      </trkpt>
      <trkpt lat="41.032240000" lon="-5.859618333">
        <time>2022-06-28T11:17:56Z</time>
      </trkpt>
      <trkpt lat="41.032291667" lon="-5.859645000">
        <time>2022-06-28T11:17:57Z</time>
      </trkpt>
      <trkpt lat="41.032336667" lon="-5.859686667">
        <time>2022-06-28T11:17:58Z</time>
      </trkpt>
      <trkpt lat="41.032368333" lon="-5.859741667">
        <time>2022-06-28T11:17:59Z</time>
      </trkpt>
      <trkpt lat="41.032395000" lon="-5.859800000">
        <time>2022-06-28T11:18:00Z</time>
      </trkpt>
      <trkpt lat="41.032420000" lon="-5.859861667">
        <time>2022-06-28T11:18:01Z</time>
      </trkpt>
      <trkpt lat="41.032446667" lon="-5.859920000">
        <time>2022-06-28T11:18:02Z</time>
      </trkpt>
      <trkpt lat="41.032466667" lon="-5.859978333">
        <time>2022-06-28T11:18:03Z</time>
      </trkpt>
      <trkpt lat="41.032480000" lon="-5.860028333">
        <time>2022-06-28T11:18:04Z</time>
      </trkpt>
      <trkpt lat="41.032483333" lon="-5.860068333">
        <time>2022-06-28T11:18:05Z</time>
      </trkpt>
      <trkpt lat="41.032480000" lon="-5.860103333">
        <time>2022-06-28T11:18:06Z</time>
      </trkpt>
      <trkpt lat="41.032463333" lon="-5.860133333">
        <time>2022-06-28T11:18:07Z</time>
      </trkpt>
      <trkpt lat="41.032436667" lon="-5.860156667">
        <time>2022-06-28T11:18:08Z</time>
      </trkpt>
      <trkpt lat="41.032400000" lon="-5.860171667">
        <time>2022-06-28T11:18:09Z</time>
      </trkpt>
      <trkpt lat="41.032358333" lon="-5.860183333">
        <time>2022-06-28T11:18:10Z</time>
      </trkpt>
      <trkpt lat="41.032315000" lon="-5.860196667">
        <time>2022-06-28T11:18:11Z</time>
      </trkpt>
      <trkpt lat="41.032266667" lon="-5.860205000">
        <time>2022-06-28T11:18:12Z</time>
      </trkpt>
      <trkpt lat="41.032221667" lon="-5.860211667">
        <time>2022-06-28T11:18:13Z</time>
      </trkpt>
      <trkpt lat="41.032176667" lon="-5.860218333">
        <time>2022-06-28T11:18:14Z</time>
      </trkpt>
      <trkpt lat="41.032128333" lon="-5.860225000">
        <time>2022-06-28T11:18:15Z</time>
      </trkpt>
      <trkpt lat="41.032073333" lon="-5.860233333">
        <time>2022-06-28T11:18:16Z</time>
      </trkpt>
      <trkpt lat="41.032020000" lon="-5.860236667">
        <time>2022-06-28T11:18:17Z</time>
      </trkpt>
      <trkpt lat="41.031968333" lon="-5.860241667">
        <time>2022-06-28T11:18:18Z</time>
      </trkpt>
      <trkpt lat="41.031915000" lon="-5.860250000">
        <time>2022-06-28T11:18:19Z</time>
      </trkpt>
      <trkpt lat="41.031861667" lon="-5.860255000">
        <time>2022-06-28T11:18:20Z</time>
      </trkpt>
      <trkpt lat="41.031810000" lon="-5.860261667">
        <time>2022-06-28T11:18:21Z</time>
      </trkpt>
      <trkpt lat="41.031756667" lon="-5.860271667">
        <time>2022-06-28T11:18:22Z</time>
      </trkpt>
      <trkpt lat="41.031703333" lon="-5.860280000">
        <time>2022-06-28T11:18:23Z</time>
      </trkpt>
      <trkpt lat="41.031650000" lon="-5.860286667">
        <time>2022-06-28T11:18:24Z</time>
      </trkpt>
      <trkpt lat="41.031595000" lon="-5.860293333">
        <time>2022-06-28T11:18:25Z</time>
      </trkpt>
      <trkpt lat="41.031541667" lon="-5.860300000">
        <time>2022-06-28T11:18:26Z</time>
      </trkpt>
      <trkpt lat="41.031488333" lon="-5.860306667">
        <time>2022-06-28T11:18:27Z</time>
      </trkpt>
      <trkpt lat="41.031433333" lon="-5.860315000">
        <time>2022-06-28T11:18:28Z</time>
      </trkpt>
      <trkpt lat="41.031378333" lon="-5.860321667">
        <time>2022-06-28T11:18:29Z</time>
      </trkpt>
      <trkpt lat="41.031323333" lon="-5.860326667">
        <time>2022-06-28T11:18:30Z</time>
      </trkpt>
      <trkpt lat="41.031268333" lon="-5.860333333">
        <time>2022-06-28T11:18:31Z</time>
      </trkpt>
      <trkpt lat="41.031213333" lon="-5.860338333">
        <time>2022-06-28T11:18:32Z</time>
      </trkpt>
      <trkpt lat="41.031158333" lon="-5.860345000">
        <time>2022-06-28T11:18:33Z</time>
      </trkpt>
      <trkpt lat="41.031103333" lon="-5.860350000">
        <time>2022-06-28T11:18:34Z</time>
      </trkpt>
      <trkpt lat="41.031048333" lon="-5.860355000">
        <time>2022-06-28T11:18:35Z</time>
      </trkpt>
      <trkpt lat="41.030993333" lon="-5.860360000">
        <time>2022-06-28T11:18:36Z</time>
      </trkpt>
      <trkpt lat="41.030938333" lon="-5.860365000">
        <time>2022-06-28T11:18:37Z</time>
      </trkpt>
      <trkpt lat="41.030881667" lon="-5.860371667">
        <time>2022-06-28T11:18:38Z</time>
      </trkpt>
      <trkpt lat="41.030823333" lon="-5.860373333">
        <time>2022-06-28T11:18:39Z</time>
      </trkpt>
      <trkpt lat="41.030761667" lon="-5.860375000">
        <time>2022-06-28T11:18:40Z</time>
      </trkpt>
      <trkpt lat="41.030701667" lon="-5.860376667">
        <time>2022-06-28T11:18:41Z</time>
      </trkpt>
      <trkpt lat="41.030641667" lon="-5.860378333">
        <time>2022-06-28T11:18:42Z</time>
      </trkpt>
      <trkpt lat="41.030581667" lon="-5.860378333">
        <time>2022-06-28T11:18:43Z</time>
      </trkpt>
      <trkpt lat="41.030521667" lon="-5.860380000">
        <time>2022-06-28T11:18:44Z</time>
      </trkpt>
      <trkpt lat="41.030461667" lon="-5.860380000">
        <time>2022-06-28T11:18:45Z</time>
      </trkpt>
      <trkpt lat="41.030403333" lon="-5.860381667">
        <time>2022-06-28T11:18:46Z</time>
      </trkpt>
      <trkpt lat="41.030346667" lon="-5.860380000">
        <time>2022-06-28T11:18:47Z</time>
      </trkpt>
      <trkpt lat="41.030288333" lon="-5.860378333">
        <time>2022-06-28T11:18:48Z</time>
      </trkpt>
      <trkpt lat="41.030231667" lon="-5.860376667">
        <time>2022-06-28T11:18:49Z</time>
      </trkpt>
      <trkpt lat="41.030173333" lon="-5.860375000">
        <time>2022-06-28T11:18:50Z</time>
      </trkpt>
      <trkpt lat="41.030116667" lon="-5.860371667">
        <time>2022-06-28T11:18:51Z</time>
      </trkpt>
      <trkpt lat="41.030060000" lon="-5.860368333">
        <time>2022-06-28T11:18:52Z</time>
      </trkpt>
      <trkpt lat="41.030003333" lon="-5.860365000">
        <time>2022-06-28T11:18:53Z</time>
      </trkpt>
      <trkpt lat="41.029946667" lon="-5.860365000">
        <time>2022-06-28T11:18:54Z</time>
      </trkpt>
      <trkpt lat="41.029891667" lon="-5.860366667">
        <time>2022-06-28T11:18:55Z</time>
      </trkpt>
      <trkpt lat="41.029836667" lon="-5.860363333">
        <time>2022-06-28T11:18:56Z</time>
      </trkpt>
      <trkpt lat="41.029780000" lon="-5.860356667">
        <time>2022-06-28T11:18:57Z</time>
      </trkpt>
      <trkpt lat="41.029723333" lon="-5.860346667">
        <time>2022-06-28T11:18:58Z</time>
      </trkpt>
      <trkpt lat="41.029666667" lon="-5.860336667">
        <time>2022-06-28T11:18:59Z</time>
      </trkpt>
      <trkpt lat="41.029610000" lon="-5.860323333">
        <time>2022-06-28T11:19:00Z</time>
      </trkpt>
      <trkpt lat="41.029553333" lon="-5.860311667">
        <time>2022-06-28T11:19:01Z</time>
      </trkpt>
      <trkpt lat="41.029495000" lon="-5.860298333">
        <time>2022-06-28T11:19:02Z</time>
      </trkpt>
      <trkpt lat="41.029435000" lon="-5.860285000">
        <time>2022-06-28T11:19:03Z</time>
      </trkpt>
      <trkpt lat="41.029376667" lon="-5.860271667">
        <time>2022-06-28T11:19:04Z</time>
      </trkpt>
      <trkpt lat="41.029316667" lon="-5.860258333">
        <time>2022-06-28T11:19:05Z</time>
      </trkpt>
      <trkpt lat="41.029255000" lon="-5.860245000">
        <time>2022-06-28T11:19:06Z</time>
      </trkpt>
      <trkpt lat="41.029193333" lon="-5.860233333">
        <time>2022-06-28T11:19:07Z</time>
      </trkpt>
      <trkpt lat="41.029133333" lon="-5.860223333">
        <time>2022-06-28T11:19:08Z</time>
      </trkpt>
      <trkpt lat="41.029073333" lon="-5.860215000">
        <time>2022-06-28T11:19:09Z</time>
      </trkpt>
      <trkpt lat="41.029013333" lon="-5.860211667">
        <time>2022-06-28T11:19:10Z</time>
      </trkpt>
      <trkpt lat="41.028953333" lon="-5.860210000">
        <time>2022-06-28T11:19:11Z</time>
      </trkpt>
      <trkpt lat="41.028895000" lon="-5.860206667">
        <time>2022-06-28T11:19:12Z</time>
      </trkpt>
      <trkpt lat="41.028836667" lon="-5.860201667">
        <time>2022-06-28T11:19:13Z</time>
      </trkpt>
      <trkpt lat="41.028780000" lon="-5.860195000">
        <time>2022-06-28T11:19:14Z</time>
      </trkpt>
      <trkpt lat="41.028723333" lon="-5.860186667">
        <time>2022-06-28T11:19:15Z</time>
      </trkpt>
      <trkpt lat="41.028666667" lon="-5.860176667">
        <time>2022-06-28T11:19:16Z</time>
      </trkpt>
      <trkpt lat="41.028610000" lon="-5.860166667">
        <time>2022-06-28T11:19:17Z</time>
      </trkpt>
      <trkpt lat="41.028553333" lon="-5.860156667">
        <time>2022-06-28T11:19:18Z</time>
      </trkpt>
      <trkpt lat="41.028496667" lon="-5.860143333">
        <time>2022-06-28T11:19:19Z</time>
      </trkpt>
      <trkpt lat="41.028440000" lon="-5.860128333">
        <time>2022-06-28T11:19:20Z</time>
      </trkpt>
      <trkpt lat="41.028385000" lon="-5.860115000">
        <time>2022-06-28T11:19:21Z</time>
      </trkpt>
      <trkpt lat="41.028328333" lon="-5.860100000">
        <time>2022-06-28T11:19:22Z</time>
      </trkpt>
      <trkpt lat="41.028273333" lon="-5.860085000">
        <time>2022-06-28T11:19:23Z</time>
      </trkpt>
      <trkpt lat="41.028220000" lon="-5.860068333">
        <time>2022-06-28T11:19:24Z</time>
      </trkpt>
      <trkpt lat="41.028165000" lon="-5.860051667">
        <time>2022-06-28T11:19:25Z</time>
      </trkpt>
      <trkpt lat="41.028111667" lon="-5.860035000">
        <time>2022-06-28T11:19:26Z</time>
      </trkpt>
      <trkpt lat="41.028056667" lon="-5.860020000">
        <time>2022-06-28T11:19:27Z</time>
      </trkpt>
      <trkpt lat="41.028003333" lon="-5.860003333">
        <time>2022-06-28T11:19:28Z</time>
      </trkpt>
      <trkpt lat="41.027950000" lon="-5.859988333">
        <time>2022-06-28T11:19:29Z</time>
      </trkpt>
      <trkpt lat="41.027896667" lon="-5.859971667">
        <time>2022-06-28T11:19:30Z</time>
      </trkpt>
      <trkpt lat="41.027841667" lon="-5.859955000">
        <time>2022-06-28T11:19:31Z</time>
      </trkpt>
      <trkpt lat="41.027790000" lon="-5.859940000">
        <time>2022-06-28T11:19:32Z</time>
      </trkpt>
      <trkpt lat="41.027736667" lon="-5.859926667">
        <time>2022-06-28T11:19:33Z</time>
      </trkpt>
      <trkpt lat="41.027685000" lon="-5.859913333">
        <time>2022-06-28T11:19:34Z</time>
      </trkpt>
      <trkpt lat="41.027630000" lon="-5.859896667">
        <time>2022-06-28T11:19:35Z</time>
      </trkpt>
      <trkpt lat="41.027576667" lon="-5.859881667">
        <time>2022-06-28T11:19:36Z</time>
      </trkpt>
      <trkpt lat="41.027525000" lon="-5.859865000">
        <time>2022-06-28T11:19:37Z</time>
      </trkpt>
      <trkpt lat="41.027471667" lon="-5.859850000">
        <time>2022-06-28T11:19:38Z</time>
      </trkpt>
      <trkpt lat="41.027420000" lon="-5.859835000">
        <time>2022-06-28T11:19:39Z</time>
      </trkpt>
      <trkpt lat="41.027366667" lon="-5.859820000">
        <time>2022-06-28T11:19:40Z</time>
      </trkpt>
      <trkpt lat="41.027315000" lon="-5.859800000">
        <time>2022-06-28T11:19:41Z</time>
      </trkpt>
      <trkpt lat="41.027263333" lon="-5.859776667">
        <time>2022-06-28T11:19:42Z</time>
      </trkpt>
      <trkpt lat="41.027211667" lon="-5.859751667">
        <time>2022-06-28T11:19:43Z</time>
      </trkpt>
      <trkpt lat="41.027161667" lon="-5.859725000">
        <time>2022-06-28T11:19:44Z</time>
      </trkpt>
      <trkpt lat="41.027113333" lon="-5.859695000">
        <time>2022-06-28T11:19:45Z</time>
      </trkpt>
      <trkpt lat="41.027065000" lon="-5.859665000">
        <time>2022-06-28T11:19:46Z</time>
      </trkpt>
      <trkpt lat="41.027015000" lon="-5.859633333">
        <time>2022-06-28T11:19:47Z</time>
      </trkpt>
      <trkpt lat="41.026968333" lon="-5.859600000">
        <time>2022-06-28T11:19:48Z</time>
      </trkpt>
      <trkpt lat="41.026921667" lon="-5.859566667">
        <time>2022-06-28T11:19:49Z</time>
      </trkpt>
      <trkpt lat="41.026875000" lon="-5.859535000">
        <time>2022-06-28T11:19:50Z</time>
      </trkpt>
      <trkpt lat="41.026828333" lon="-5.859501667">
        <time>2022-06-28T11:19:51Z</time>
      </trkpt>
      <trkpt lat="41.026785000" lon="-5.859468333">
        <time>2022-06-28T11:19:52Z</time>
      </trkpt>
      <trkpt lat="41.026738333" lon="-5.859436667">
        <time>2022-06-28T11:19:53Z</time>
      </trkpt>
      <trkpt lat="41.026690000" lon="-5.859411667">
        <time>2022-06-28T11:19:54Z</time>
      </trkpt>
      <trkpt lat="41.026640000" lon="-5.859386667">
        <time>2022-06-28T11:19:55Z</time>
      </trkpt>
      <trkpt lat="41.026591667" lon="-5.859358333">
        <time>2022-06-28T11:19:56Z</time>
      </trkpt>
      <trkpt lat="41.026543333" lon="-5.859330000">
        <time>2022-06-28T11:19:57Z</time>
      </trkpt>
      <trkpt lat="41.026495000" lon="-5.859303333">
        <time>2022-06-28T11:19:58Z</time>
      </trkpt>
      <trkpt lat="41.026446667" lon="-5.859276667">
        <time>2022-06-28T11:19:59Z</time>
      </trkpt>
      <trkpt lat="41.026396667" lon="-5.859248333">
        <time>2022-06-28T11:20:00Z</time>
      </trkpt>
      <trkpt lat="41.026346667" lon="-5.859221667">
        <time>2022-06-28T11:20:01Z</time>
      </trkpt>
      <trkpt lat="41.026295000" lon="-5.859195000">
        <time>2022-06-28T11:20:02Z</time>
      </trkpt>
      <trkpt lat="41.026245000" lon="-5.859166667">
        <time>2022-06-28T11:20:03Z</time>
      </trkpt>
      <trkpt lat="41.026191667" lon="-5.859140000">
        <time>2022-06-28T11:20:04Z</time>
      </trkpt>
      <trkpt lat="41.026140000" lon="-5.859111667">
        <time>2022-06-28T11:20:05Z</time>
      </trkpt>
      <trkpt lat="41.026086667" lon="-5.859085000">
        <time>2022-06-28T11:20:06Z</time>
      </trkpt>
      <trkpt lat="41.026035000" lon="-5.859060000">
        <time>2022-06-28T11:20:07Z</time>
      </trkpt>
      <trkpt lat="41.025985000" lon="-5.859033333">
        <time>2022-06-28T11:20:08Z</time>
      </trkpt>
      <trkpt lat="41.025935000" lon="-5.859005000">
        <time>2022-06-28T11:20:09Z</time>
      </trkpt>
      <trkpt lat="41.025883333" lon="-5.858978333">
        <time>2022-06-28T11:20:10Z</time>
      </trkpt>
      <trkpt lat="41.025833333" lon="-5.858951667">
        <time>2022-06-28T11:20:11Z</time>
      </trkpt>
      <trkpt lat="41.025781667" lon="-5.858923333">
        <time>2022-06-28T11:20:12Z</time>
      </trkpt>
      <trkpt lat="41.025731667" lon="-5.858895000">
        <time>2022-06-28T11:20:13Z</time>
      </trkpt>
      <trkpt lat="41.025680000" lon="-5.858866667">
        <time>2022-06-28T11:20:14Z</time>
      </trkpt>
      <trkpt lat="41.025628333" lon="-5.858836667">
        <time>2022-06-28T11:20:15Z</time>
      </trkpt>
      <trkpt lat="41.025580000" lon="-5.858805000">
        <time>2022-06-28T11:20:16Z</time>
      </trkpt>
      <trkpt lat="41.025530000" lon="-5.858773333">
        <time>2022-06-28T11:20:17Z</time>
      </trkpt>
      <trkpt lat="41.025481667" lon="-5.858740000">
        <time>2022-06-28T11:20:18Z</time>
      </trkpt>
      <trkpt lat="41.025435000" lon="-5.858706667">
        <time>2022-06-28T11:20:19Z</time>
      </trkpt>
      <trkpt lat="41.025386667" lon="-5.858671667">
        <time>2022-06-28T11:20:20Z</time>
      </trkpt>
      <trkpt lat="41.025340000" lon="-5.858636667">
        <time>2022-06-28T11:20:21Z</time>
      </trkpt>
      <trkpt lat="41.025293333" lon="-5.858596667">
        <time>2022-06-28T11:20:22Z</time>
      </trkpt>
      <trkpt lat="41.025246667" lon="-5.858558333">
        <time>2022-06-28T11:20:23Z</time>
      </trkpt>
      <trkpt lat="41.025198333" lon="-5.858521667">
        <time>2022-06-28T11:20:24Z</time>
      </trkpt>
      <trkpt lat="41.025148333" lon="-5.858485000">
        <time>2022-06-28T11:20:25Z</time>
      </trkpt>
      <trkpt lat="41.025100000" lon="-5.858446667">
        <time>2022-06-28T11:20:26Z</time>
      </trkpt>
      <trkpt lat="41.025051667" lon="-5.858410000">
        <time>2022-06-28T11:20:27Z</time>
      </trkpt>
      <trkpt lat="41.025001667" lon="-5.858375000">
        <time>2022-06-28T11:20:28Z</time>
      </trkpt>
      <trkpt lat="41.024951667" lon="-5.858343333">
        <time>2022-06-28T11:20:29Z</time>
      </trkpt>
      <trkpt lat="41.024901667" lon="-5.858313333">
        <time>2022-06-28T11:20:30Z</time>
      </trkpt>
      <trkpt lat="41.024848333" lon="-5.858285000">
        <time>2022-06-28T11:20:31Z</time>
      </trkpt>
      <trkpt lat="41.024795000" lon="-5.858258333">
        <time>2022-06-28T11:20:32Z</time>
      </trkpt>
      <trkpt lat="41.024741667" lon="-5.858233333">
        <time>2022-06-28T11:20:33Z</time>
      </trkpt>
      <trkpt lat="41.024686667" lon="-5.858211667">
        <time>2022-06-28T11:20:34Z</time>
      </trkpt>
      <trkpt lat="41.024631667" lon="-5.858191667">
        <time>2022-06-28T11:20:35Z</time>
      </trkpt>
      <trkpt lat="41.024576667" lon="-5.858176667">
        <time>2022-06-28T11:20:36Z</time>
      </trkpt>
      <trkpt lat="41.024520000" lon="-5.858166667">
        <time>2022-06-28T11:20:37Z</time>
      </trkpt>
      <trkpt lat="41.024463333" lon="-5.858155000">
        <time>2022-06-28T11:20:38Z</time>
      </trkpt>
      <trkpt lat="41.024405000" lon="-5.858146667">
        <time>2022-06-28T11:20:39Z</time>
      </trkpt>
      <trkpt lat="41.024348333" lon="-5.858143333">
        <time>2022-06-28T11:20:40Z</time>
      </trkpt>
      <trkpt lat="41.024290000" lon="-5.858141667">
        <time>2022-06-28T11:20:41Z</time>
      </trkpt>
      <trkpt lat="41.024233333" lon="-5.858143333">
        <time>2022-06-28T11:20:42Z</time>
      </trkpt>
      <trkpt lat="41.024176667" lon="-5.858148333">
        <time>2022-06-28T11:20:43Z</time>
      </trkpt>
      <trkpt lat="41.024120000" lon="-5.858151667">
        <time>2022-06-28T11:20:44Z</time>
      </trkpt>
      <trkpt lat="41.024063333" lon="-5.858160000">
        <time>2022-06-28T11:20:45Z</time>
      </trkpt>
      <trkpt lat="41.024008333" lon="-5.858171667">
        <time>2022-06-28T11:20:46Z</time>
      </trkpt>
      <trkpt lat="41.023953333" lon="-5.858185000">
        <time>2022-06-28T11:20:47Z</time>
      </trkpt>
      <trkpt lat="41.023898333" lon="-5.858200000">
        <time>2022-06-28T11:20:48Z</time>
      </trkpt>
      <trkpt lat="41.023843333" lon="-5.858215000">
        <time>2022-06-28T11:20:49Z</time>
      </trkpt>
      <trkpt lat="41.023790000" lon="-5.858230000">
        <time>2022-06-28T11:20:50Z</time>
      </trkpt>
      <trkpt lat="41.023736667" lon="-5.858243333">
        <time>2022-06-28T11:20:51Z</time>
      </trkpt>
      <trkpt lat="41.023681667" lon="-5.858258333">
        <time>2022-06-28T11:20:52Z</time>
      </trkpt>
      <trkpt lat="41.023626667" lon="-5.858270000">
        <time>2022-06-28T11:20:53Z</time>
      </trkpt>
      <trkpt lat="41.023570000" lon="-5.858280000">
        <time>2022-06-28T11:20:54Z</time>
      </trkpt>
      <trkpt lat="41.023511667" lon="-5.858290000">
        <time>2022-06-28T11:20:55Z</time>
      </trkpt>
      <trkpt lat="41.023453333" lon="-5.858296667">
        <time>2022-06-28T11:20:56Z</time>
      </trkpt>
      <trkpt lat="41.023393333" lon="-5.858301667">
        <time>2022-06-28T11:20:57Z</time>
      </trkpt>
      <trkpt lat="41.023333333" lon="-5.858301667">
        <time>2022-06-28T11:20:58Z</time>
      </trkpt>
      <trkpt lat="41.023271667" lon="-5.858300000">
        <time>2022-06-28T11:20:59Z</time>
      </trkpt>
      <trkpt lat="41.023210000" lon="-5.858295000">
        <time>2022-06-28T11:21:00Z</time>
      </trkpt>
      <trkpt lat="41.023150000" lon="-5.858290000">
        <time>2022-06-28T11:21:01Z</time>
      </trkpt>
      <trkpt lat="41.023090000" lon="-5.858285000">
        <time>2022-06-28T11:21:02Z</time>
      </trkpt>
      <trkpt lat="41.023030000" lon="-5.858276667">
        <time>2022-06-28T11:21:03Z</time>
      </trkpt>
      <trkpt lat="41.022971667" lon="-5.858268333">
        <time>2022-06-28T11:21:04Z</time>
      </trkpt>
      <trkpt lat="41.022913333" lon="-5.858260000">
        <time>2022-06-28T11:21:05Z</time>
      </trkpt>
      <trkpt lat="41.022855000" lon="-5.858250000">
        <time>2022-06-28T11:21:06Z</time>
      </trkpt>
      <trkpt lat="41.022796667" lon="-5.858240000">
        <time>2022-06-28T11:21:07Z</time>
      </trkpt>
      <trkpt lat="41.022740000" lon="-5.858231667">
        <time>2022-06-28T11:21:08Z</time>
      </trkpt>
      <trkpt lat="41.022681667" lon="-5.858223333">
        <time>2022-06-28T11:21:09Z</time>
      </trkpt>
      <trkpt lat="41.022625000" lon="-5.858213333">
        <time>2022-06-28T11:21:10Z</time>
      </trkpt>
      <trkpt lat="41.022568333" lon="-5.858205000">
        <time>2022-06-28T11:21:11Z</time>
      </trkpt>
      <trkpt lat="41.022513333" lon="-5.858195000">
        <time>2022-06-28T11:21:12Z</time>
      </trkpt>
      <trkpt lat="41.022458333" lon="-5.858186667">
        <time>2022-06-28T11:21:13Z</time>
      </trkpt>
      <trkpt lat="41.022403333" lon="-5.858178333">
        <time>2022-06-28T11:21:14Z</time>
      </trkpt>
      <trkpt lat="41.022350000" lon="-5.858168333">
        <time>2022-06-28T11:21:15Z</time>
      </trkpt>
      <trkpt lat="41.022296667" lon="-5.858158333">
        <time>2022-06-28T11:21:16Z</time>
      </trkpt>
      <trkpt lat="41.022243333" lon="-5.858150000">
        <time>2022-06-28T11:21:17Z</time>
      </trkpt>
      <trkpt lat="41.022190000" lon="-5.858143333">
        <time>2022-06-28T11:21:18Z</time>
      </trkpt>
      <trkpt lat="41.022138333" lon="-5.858133333">
        <time>2022-06-28T11:21:19Z</time>
      </trkpt>
      <trkpt lat="41.022085000" lon="-5.858125000">
        <time>2022-06-28T11:21:20Z</time>
      </trkpt>
      <trkpt lat="41.022033333" lon="-5.858116667">
        <time>2022-06-28T11:21:21Z</time>
      </trkpt>
      <trkpt lat="41.021980000" lon="-5.858108333">
        <time>2022-06-28T11:21:22Z</time>
      </trkpt>
      <trkpt lat="41.021926667" lon="-5.858101667">
        <time>2022-06-28T11:21:23Z</time>
      </trkpt>
      <trkpt lat="41.021875000" lon="-5.858095000">
        <time>2022-06-28T11:21:24Z</time>
      </trkpt>
      <trkpt lat="41.021821667" lon="-5.858090000">
        <time>2022-06-28T11:21:25Z</time>
      </trkpt>
      <trkpt lat="41.021770000" lon="-5.858085000">
        <time>2022-06-28T11:21:26Z</time>
      </trkpt>
      <trkpt lat="41.021715000" lon="-5.858081667">
        <time>2022-06-28T11:21:27Z</time>
      </trkpt>
      <trkpt lat="41.021661667" lon="-5.858080000">
        <time>2022-06-28T11:21:28Z</time>
      </trkpt>
      <trkpt lat="41.021608333" lon="-5.858076667">
        <time>2022-06-28T11:21:29Z</time>
      </trkpt>
      <trkpt lat="41.021553333" lon="-5.858076667">
        <time>2022-06-28T11:21:30Z</time>
      </trkpt>
      <trkpt lat="41.021500000" lon="-5.858080000">
        <time>2022-06-28T11:21:31Z</time>
      </trkpt>
      <trkpt lat="41.021446667" lon="-5.858083333">
        <time>2022-06-28T11:21:32Z</time>
      </trkpt>
      <trkpt lat="41.021393333" lon="-5.858086667">
        <time>2022-06-28T11:21:33Z</time>
      </trkpt>
      <trkpt lat="41.021340000" lon="-5.858091667">
        <time>2022-06-28T11:21:34Z</time>
      </trkpt>
      <trkpt lat="41.021286667" lon="-5.858096667">
        <time>2022-06-28T11:21:35Z</time>
      </trkpt>
      <trkpt lat="41.021233333" lon="-5.858103333">
        <time>2022-06-28T11:21:36Z</time>
      </trkpt>
      <trkpt lat="41.021180000" lon="-5.858108333">
        <time>2022-06-28T11:21:37Z</time>
      </trkpt>
      <trkpt lat="41.021125000" lon="-5.858115000">
        <time>2022-06-28T11:21:38Z</time>
      </trkpt>
      <trkpt lat="41.021071667" lon="-5.858123333">
        <time>2022-06-28T11:21:39Z</time>
      </trkpt>
      <trkpt lat="41.021016667" lon="-5.858128333">
        <time>2022-06-28T11:21:40Z</time>
      </trkpt>
      <trkpt lat="41.020961667" lon="-5.858135000">
        <time>2022-06-28T11:21:41Z</time>
      </trkpt>
      <trkpt lat="41.020908333" lon="-5.858140000">
        <time>2022-06-28T11:21:42Z</time>
      </trkpt>
      <trkpt lat="41.020853333" lon="-5.858146667">
        <time>2022-06-28T11:21:43Z</time>
      </trkpt>
      <trkpt lat="41.020800000" lon="-5.858153333">
        <time>2022-06-28T11:21:44Z</time>
      </trkpt>
      <trkpt lat="41.020746667" lon="-5.858160000">
        <time>2022-06-28T11:21:45Z</time>
      </trkpt>
      <trkpt lat="41.020693333" lon="-5.858163333">
        <time>2022-06-28T11:21:46Z</time>
      </trkpt>
      <trkpt lat="41.020640000" lon="-5.858168333">
        <time>2022-06-28T11:21:47Z</time>
      </trkpt>
      <trkpt lat="41.020586667" lon="-5.858175000">
        <time>2022-06-28T11:21:48Z</time>
      </trkpt>
      <trkpt lat="41.020531667" lon="-5.858181667">
        <time>2022-06-28T11:21:49Z</time>
      </trkpt>
      <trkpt lat="41.020476667" lon="-5.858190000">
        <time>2022-06-28T11:21:50Z</time>
      </trkpt>
      <trkpt lat="41.020421667" lon="-5.858196667">
        <time>2022-06-28T11:21:51Z</time>
      </trkpt>
      <trkpt lat="41.020366667" lon="-5.858201667">
        <time>2022-06-28T11:21:52Z</time>
      </trkpt>
      <trkpt lat="41.020311667" lon="-5.858208333">
        <time>2022-06-28T11:21:53Z</time>
      </trkpt>
      <trkpt lat="41.020255000" lon="-5.858210000">
        <time>2022-06-28T11:21:54Z</time>
      </trkpt>
      <trkpt lat="41.020200000" lon="-5.858211667">
        <time>2022-06-28T11:21:55Z</time>
      </trkpt>
      <trkpt lat="41.020143333" lon="-5.858211667">
        <time>2022-06-28T11:21:56Z</time>
      </trkpt>
      <trkpt lat="41.020088333" lon="-5.858210000">
        <time>2022-06-28T11:21:57Z</time>
      </trkpt>
      <trkpt lat="41.020031667" lon="-5.858205000">
        <time>2022-06-28T11:21:58Z</time>
      </trkpt>
      <trkpt lat="41.019976667" lon="-5.858196667">
        <time>2022-06-28T11:21:59Z</time>
      </trkpt>
      <trkpt lat="41.019921667" lon="-5.858190000">
        <time>2022-06-28T11:22:00Z</time>
      </trkpt>
      <trkpt lat="41.019866667" lon="-5.858181667">
        <time>2022-06-28T11:22:01Z</time>
      </trkpt>
      <trkpt lat="41.019811667" lon="-5.858170000">
        <time>2022-06-28T11:22:02Z</time>
      </trkpt>
      <trkpt lat="41.019756667" lon="-5.858158333">
        <time>2022-06-28T11:22:03Z</time>
      </trkpt>
      <trkpt lat="41.019703333" lon="-5.858141667">
        <time>2022-06-28T11:22:04Z</time>
      </trkpt>
      <trkpt lat="41.019648333" lon="-5.858125000">
        <time>2022-06-28T11:22:05Z</time>
      </trkpt>
      <trkpt lat="41.019595000" lon="-5.858108333">
        <time>2022-06-28T11:22:06Z</time>
      </trkpt>
      <trkpt lat="41.019540000" lon="-5.858090000">
        <time>2022-06-28T11:22:07Z</time>
      </trkpt>
      <trkpt lat="41.019486667" lon="-5.858066667">
        <time>2022-06-28T11:22:08Z</time>
      </trkpt>
      <trkpt lat="41.019435000" lon="-5.858041667">
        <time>2022-06-28T11:22:09Z</time>
      </trkpt>
      <trkpt lat="41.019383333" lon="-5.858016667">
        <time>2022-06-28T11:22:10Z</time>
      </trkpt>
      <trkpt lat="41.019330000" lon="-5.857991667">
        <time>2022-06-28T11:22:11Z</time>
      </trkpt>
      <trkpt lat="41.019276667" lon="-5.857963333">
        <time>2022-06-28T11:22:12Z</time>
      </trkpt>
      <trkpt lat="41.019225000" lon="-5.857935000">
        <time>2022-06-28T11:22:13Z</time>
      </trkpt>
      <trkpt lat="41.019173333" lon="-5.857903333">
        <time>2022-06-28T11:22:14Z</time>
      </trkpt>
      <trkpt lat="41.019123333" lon="-5.857873333">
        <time>2022-06-28T11:22:15Z</time>
      </trkpt>
      <trkpt lat="41.019073333" lon="-5.857841667">
        <time>2022-06-28T11:22:16Z</time>
      </trkpt>
      <trkpt lat="41.019023333" lon="-5.857808333">
        <time>2022-06-28T11:22:17Z</time>
      </trkpt>
      <trkpt lat="41.018975000" lon="-5.857771667">
        <time>2022-06-28T11:22:18Z</time>
      </trkpt>
      <trkpt lat="41.018926667" lon="-5.857736667">
        <time>2022-06-28T11:22:19Z</time>
      </trkpt>
      <trkpt lat="41.018878333" lon="-5.857703333">
        <time>2022-06-28T11:22:20Z</time>
      </trkpt>
      <trkpt lat="41.018830000" lon="-5.857666667">
        <time>2022-06-28T11:22:21Z</time>
      </trkpt>
      <trkpt lat="41.018781667" lon="-5.857628333">
        <time>2022-06-28T11:22:22Z</time>
      </trkpt>
      <trkpt lat="41.018735000" lon="-5.857590000">
        <time>2022-06-28T11:22:23Z</time>
      </trkpt>
      <trkpt lat="41.018686667" lon="-5.857553333">
        <time>2022-06-28T11:22:24Z</time>
      </trkpt>
      <trkpt lat="41.018640000" lon="-5.857516667">
        <time>2022-06-28T11:22:25Z</time>
      </trkpt>
      <trkpt lat="41.018591667" lon="-5.857480000">
        <time>2022-06-28T11:22:26Z</time>
      </trkpt>
      <trkpt lat="41.018543333" lon="-5.857443333">
        <time>2022-06-28T11:22:27Z</time>
      </trkpt>
      <trkpt lat="41.018496667" lon="-5.857406667">
        <time>2022-06-28T11:22:28Z</time>
      </trkpt>
      <trkpt lat="41.018448333" lon="-5.857368333">
        <time>2022-06-28T11:22:29Z</time>
      </trkpt>
      <trkpt lat="41.018401667" lon="-5.857331667">
        <time>2022-06-28T11:22:30Z</time>
      </trkpt>
      <trkpt lat="41.018353333" lon="-5.857296667">
        <time>2022-06-28T11:22:31Z</time>
      </trkpt>
      <trkpt lat="41.018306667" lon="-5.857261667">
        <time>2022-06-28T11:22:32Z</time>
      </trkpt>
      <trkpt lat="41.018258333" lon="-5.857225000">
        <time>2022-06-28T11:22:33Z</time>
      </trkpt>
      <trkpt lat="41.018210000" lon="-5.857191667">
        <time>2022-06-28T11:22:34Z</time>
      </trkpt>
      <trkpt lat="41.018161667" lon="-5.857160000">
        <time>2022-06-28T11:22:35Z</time>
      </trkpt>
      <trkpt lat="41.018113333" lon="-5.857130000">
        <time>2022-06-28T11:22:36Z</time>
      </trkpt>
      <trkpt lat="41.018063333" lon="-5.857100000">
        <time>2022-06-28T11:22:37Z</time>
      </trkpt>
      <trkpt lat="41.018015000" lon="-5.857075000">
        <time>2022-06-28T11:22:38Z</time>
      </trkpt>
      <trkpt lat="41.017963333" lon="-5.857051667">
        <time>2022-06-28T11:22:39Z</time>
      </trkpt>
      <trkpt lat="41.017911667" lon="-5.857030000">
        <time>2022-06-28T11:22:40Z</time>
      </trkpt>
      <trkpt lat="41.017858333" lon="-5.857010000">
        <time>2022-06-28T11:22:41Z</time>
      </trkpt>
      <trkpt lat="41.017806667" lon="-5.856991667">
        <time>2022-06-28T11:22:42Z</time>
      </trkpt>
      <trkpt lat="41.017751667" lon="-5.856975000">
        <time>2022-06-28T11:22:43Z</time>
      </trkpt>
      <trkpt lat="41.017700000" lon="-5.856960000">
        <time>2022-06-28T11:22:44Z</time>
      </trkpt>
      <trkpt lat="41.017646667" lon="-5.856945000">
        <time>2022-06-28T11:22:45Z</time>
      </trkpt>
      <trkpt lat="41.017593333" lon="-5.856931667">
        <time>2022-06-28T11:22:46Z</time>
      </trkpt>
      <trkpt lat="41.017540000" lon="-5.856918333">
        <time>2022-06-28T11:22:47Z</time>
      </trkpt>
      <trkpt lat="41.017488333" lon="-5.856903333">
        <time>2022-06-28T11:22:48Z</time>
      </trkpt>
      <trkpt lat="41.017436667" lon="-5.856890000">
        <time>2022-06-28T11:22:49Z</time>
      </trkpt>
      <trkpt lat="41.017385000" lon="-5.856878333">
        <time>2022-06-28T11:22:50Z</time>
      </trkpt>
      <trkpt lat="41.017333333" lon="-5.856866667">
        <time>2022-06-28T11:22:51Z</time>
      </trkpt>
      <trkpt lat="41.017283333" lon="-5.856855000">
        <time>2022-06-28T11:22:52Z</time>
      </trkpt>
      <trkpt lat="41.017233333" lon="-5.856841667">
        <time>2022-06-28T11:22:53Z</time>
      </trkpt>
      <trkpt lat="41.017183333" lon="-5.856828333">
        <time>2022-06-28T11:22:54Z</time>
      </trkpt>
      <trkpt lat="41.017133333" lon="-5.856815000">
        <time>2022-06-28T11:22:55Z</time>
      </trkpt>
      <trkpt lat="41.017081667" lon="-5.856805000">
        <time>2022-06-28T11:22:56Z</time>
      </trkpt>
      <trkpt lat="41.017031667" lon="-5.856795000">
        <time>2022-06-28T11:22:57Z</time>
      </trkpt>
      <trkpt lat="41.016980000" lon="-5.856785000">
        <time>2022-06-28T11:22:58Z</time>
      </trkpt>
      <trkpt lat="41.016930000" lon="-5.856773333">
        <time>2022-06-28T11:22:59Z</time>
      </trkpt>
      <trkpt lat="41.016881667" lon="-5.856763333">
        <time>2022-06-28T11:23:00Z</time>
      </trkpt>
      <trkpt lat="41.016831667" lon="-5.856753333">
        <time>2022-06-28T11:23:01Z</time>
      </trkpt>
      <trkpt lat="41.016783333" lon="-5.856745000">
        <time>2022-06-28T11:23:02Z</time>
      </trkpt>
      <trkpt lat="41.016735000" lon="-5.856736667">
        <time>2022-06-28T11:23:03Z</time>
      </trkpt>
      <trkpt lat="41.016686667" lon="-5.856725000">
        <time>2022-06-28T11:23:04Z</time>
      </trkpt>
      <trkpt lat="41.016638333" lon="-5.856716667">
        <time>2022-06-28T11:23:05Z</time>
      </trkpt>
      <trkpt lat="41.016590000" lon="-5.856708333">
        <time>2022-06-28T11:23:06Z</time>
      </trkpt>
      <trkpt lat="41.016543333" lon="-5.856703333">
        <time>2022-06-28T11:23:07Z</time>
      </trkpt>
      <trkpt lat="41.016500000" lon="-5.856695000">
        <time>2022-06-28T11:23:08Z</time>
      </trkpt>
      <trkpt lat="41.016453333" lon="-5.856688333">
        <time>2022-06-28T11:23:09Z</time>
      </trkpt>
      <trkpt lat="41.016408333" lon="-5.856681667">
        <time>2022-06-28T11:23:10Z</time>
      </trkpt>
      <trkpt lat="41.016363333" lon="-5.856675000">
        <time>2022-06-28T11:23:11Z</time>
      </trkpt>
      <trkpt lat="41.016320000" lon="-5.856668333">
        <time>2022-06-28T11:23:12Z</time>
      </trkpt>
      <trkpt lat="41.016276667" lon="-5.856660000">
        <time>2022-06-28T11:23:13Z</time>
      </trkpt>
      <trkpt lat="41.016233333" lon="-5.856651667">
        <time>2022-06-28T11:23:14Z</time>
      </trkpt>
      <trkpt lat="41.016190000" lon="-5.856645000">
        <time>2022-06-28T11:23:15Z</time>
      </trkpt>
      <trkpt lat="41.016146667" lon="-5.856638333">
        <time>2022-06-28T11:23:16Z</time>
      </trkpt>
      <trkpt lat="41.016101667" lon="-5.856633333">
        <time>2022-06-28T11:23:17Z</time>
      </trkpt>
      <trkpt lat="41.016056667" lon="-5.856628333">
        <time>2022-06-28T11:23:18Z</time>
      </trkpt>
      <trkpt lat="41.016011667" lon="-5.856621667">
        <time>2022-06-28T11:23:19Z</time>
      </trkpt>
      <trkpt lat="41.015965000" lon="-5.856616667">
        <time>2022-06-28T11:23:20Z</time>
      </trkpt>
      <trkpt lat="41.015916667" lon="-5.856611667">
        <time>2022-06-28T11:23:21Z</time>
      </trkpt>
      <trkpt lat="41.015868333" lon="-5.856603333">
        <time>2022-06-28T11:23:22Z</time>
      </trkpt>
      <trkpt lat="41.015820000" lon="-5.856593333">
        <time>2022-06-28T11:23:23Z</time>
      </trkpt>
      <trkpt lat="41.015771667" lon="-5.856586667">
        <time>2022-06-28T11:23:24Z</time>
      </trkpt>
      <trkpt lat="41.015723333" lon="-5.856578333">
        <time>2022-06-28T11:23:25Z</time>
      </trkpt>
      <trkpt lat="41.015675000" lon="-5.856573333">
        <time>2022-06-28T11:23:26Z</time>
      </trkpt>
      <trkpt lat="41.015625000" lon="-5.856565000">
        <time>2022-06-28T11:23:27Z</time>
      </trkpt>
      <trkpt lat="41.015578333" lon="-5.856556667">
        <time>2022-06-28T11:23:28Z</time>
      </trkpt>
      <trkpt lat="41.015533333" lon="-5.856548333">
        <time>2022-06-28T11:23:29Z</time>
      </trkpt>
      <trkpt lat="41.015488333" lon="-5.856536667">
        <time>2022-06-28T11:23:30Z</time>
      </trkpt>
      <trkpt lat="41.015443333" lon="-5.856523333">
        <time>2022-06-28T11:23:31Z</time>
      </trkpt>
      <trkpt lat="41.015400000" lon="-5.856510000">
        <time>2022-06-28T11:23:32Z</time>
      </trkpt>
      <trkpt lat="41.015355000" lon="-5.856495000">
        <time>2022-06-28T11:23:33Z</time>
      </trkpt>
      <trkpt lat="41.015311667" lon="-5.856478333">
        <time>2022-06-28T11:23:34Z</time>
      </trkpt>
      <trkpt lat="41.015268333" lon="-5.856455000">
        <time>2022-06-28T11:23:35Z</time>
      </trkpt>
      <trkpt lat="41.015221667" lon="-5.856430000">
        <time>2022-06-28T11:23:36Z</time>
      </trkpt>
      <trkpt lat="41.015176667" lon="-5.856403333">
        <time>2022-06-28T11:23:37Z</time>
      </trkpt>
      <trkpt lat="41.015133333" lon="-5.856373333">
        <time>2022-06-28T11:23:38Z</time>
      </trkpt>
      <trkpt lat="41.015090000" lon="-5.856340000">
        <time>2022-06-28T11:23:39Z</time>
      </trkpt>
      <trkpt lat="41.015045000" lon="-5.856305000">
        <time>2022-06-28T11:23:40Z</time>
      </trkpt>
      <trkpt lat="41.015001667" lon="-5.856265000">
        <time>2022-06-28T11:23:41Z</time>
      </trkpt>
      <trkpt lat="41.014961667" lon="-5.856220000">
        <time>2022-06-28T11:23:42Z</time>
      </trkpt>
      <trkpt lat="41.014920000" lon="-5.856178333">
        <time>2022-06-28T11:23:43Z</time>
      </trkpt>
      <trkpt lat="41.014881667" lon="-5.856131667">
        <time>2022-06-28T11:23:44Z</time>
      </trkpt>
      <trkpt lat="41.014843333" lon="-5.856080000">
        <time>2022-06-28T11:23:45Z</time>
      </trkpt>
      <trkpt lat="41.014805000" lon="-5.856028333">
        <time>2022-06-28T11:23:46Z</time>
      </trkpt>
      <trkpt lat="41.014766667" lon="-5.855973333">
        <time>2022-06-28T11:23:47Z</time>
      </trkpt>
      <trkpt lat="41.014726667" lon="-5.855915000">
        <time>2022-06-28T11:23:48Z</time>
      </trkpt>
      <trkpt lat="41.014685000" lon="-5.855855000">
        <time>2022-06-28T11:23:49Z</time>
      </trkpt>
      <trkpt lat="41.014641667" lon="-5.855793333">
        <time>2022-06-28T11:23:50Z</time>
      </trkpt>
      <trkpt lat="41.014598333" lon="-5.855733333">
        <time>2022-06-28T11:23:51Z</time>
      </trkpt>
      <trkpt lat="41.014555000" lon="-5.855673333">
        <time>2022-06-28T11:23:52Z</time>
      </trkpt>
      <trkpt lat="41.014513333" lon="-5.855616667">
        <time>2022-06-28T11:23:53Z</time>
      </trkpt>
      <trkpt lat="41.014470000" lon="-5.855561667">
        <time>2022-06-28T11:23:54Z</time>
      </trkpt>
      <trkpt lat="41.014428333" lon="-5.855508333">
        <time>2022-06-28T11:23:55Z</time>
      </trkpt>
      <trkpt lat="41.014386667" lon="-5.855455000">
        <time>2022-06-28T11:23:56Z</time>
      </trkpt>
      <trkpt lat="41.014345000" lon="-5.855403333">
        <time>2022-06-28T11:23:57Z</time>
      </trkpt>
      <trkpt lat="41.014305000" lon="-5.855351667">
        <time>2022-06-28T11:23:58Z</time>
      </trkpt>
      <trkpt lat="41.014265000" lon="-5.855300000">
        <time>2022-06-28T11:23:59Z</time>
      </trkpt>
      <trkpt lat="41.014223333" lon="-5.855250000">
        <time>2022-06-28T11:24:00Z</time>
      </trkpt>
      <trkpt lat="41.014181667" lon="-5.855201667">
        <time>2022-06-28T11:24:01Z</time>
      </trkpt>
      <trkpt lat="41.014141667" lon="-5.855151667">
        <time>2022-06-28T11:24:02Z</time>
      </trkpt>
      <trkpt lat="41.014100000" lon="-5.855101667">
        <time>2022-06-28T11:24:03Z</time>
      </trkpt>
      <trkpt lat="41.014060000" lon="-5.855050000">
        <time>2022-06-28T11:24:04Z</time>
      </trkpt>
      <trkpt lat="41.014016667" lon="-5.855000000">
        <time>2022-06-28T11:24:05Z</time>
      </trkpt>
      <trkpt lat="41.013973333" lon="-5.854951667">
        <time>2022-06-28T11:24:06Z</time>
      </trkpt>
      <trkpt lat="41.013930000" lon="-5.854903333">
        <time>2022-06-28T11:24:07Z</time>
      </trkpt>
      <trkpt lat="41.013885000" lon="-5.854855000">
        <time>2022-06-28T11:24:08Z</time>
      </trkpt>
      <trkpt lat="41.013841667" lon="-5.854806667">
        <time>2022-06-28T11:24:09Z</time>
      </trkpt>
      <trkpt lat="41.013795000" lon="-5.854760000">
        <time>2022-06-28T11:24:10Z</time>
      </trkpt>
      <trkpt lat="41.013751667" lon="-5.854713333">
        <time>2022-06-28T11:24:11Z</time>
      </trkpt>
      <trkpt lat="41.013708333" lon="-5.854666667">
        <time>2022-06-28T11:24:12Z</time>
      </trkpt>
      <trkpt lat="41.013666667" lon="-5.854621667">
        <time>2022-06-28T11:24:13Z</time>
      </trkpt>
      <trkpt lat="41.013625000" lon="-5.854578333">
        <time>2022-06-28T11:24:14Z</time>
      </trkpt>
      <trkpt lat="41.013585000" lon="-5.854536667">
        <time>2022-06-28T11:24:15Z</time>
      </trkpt>
      <trkpt lat="41.013543333" lon="-5.854493333">
        <time>2022-06-28T11:24:16Z</time>
      </trkpt>
      <trkpt lat="41.013503333" lon="-5.854451667">
        <time>2022-06-28T11:24:17Z</time>
      </trkpt>
      <trkpt lat="41.013461667" lon="-5.854411667">
        <time>2022-06-28T11:24:18Z</time>
      </trkpt>
      <trkpt lat="41.013420000" lon="-5.854371667">
        <time>2022-06-28T11:24:19Z</time>
      </trkpt>
      <trkpt lat="41.013380000" lon="-5.854333333">
        <time>2022-06-28T11:24:20Z</time>
      </trkpt>
      <trkpt lat="41.013340000" lon="-5.854293333">
        <time>2022-06-28T11:24:21Z</time>
      </trkpt>
      <trkpt lat="41.013300000" lon="-5.854255000">
        <time>2022-06-28T11:24:22Z</time>
      </trkpt>
      <trkpt lat="41.013258333" lon="-5.854218333">
        <time>2022-06-28T11:24:23Z</time>
      </trkpt>
      <trkpt lat="41.013218333" lon="-5.854183333">
        <time>2022-06-28T11:24:24Z</time>
      </trkpt>
      <trkpt lat="41.013178333" lon="-5.854150000">
        <time>2022-06-28T11:24:25Z</time>
      </trkpt>
      <trkpt lat="41.013138333" lon="-5.854118333">
        <time>2022-06-28T11:24:26Z</time>
      </trkpt>
      <trkpt lat="41.013100000" lon="-5.854086667">
        <time>2022-06-28T11:24:27Z</time>
      </trkpt>
      <trkpt lat="41.013060000" lon="-5.854058333">
        <time>2022-06-28T11:24:28Z</time>
      </trkpt>
      <trkpt lat="41.013020000" lon="-5.854031667">
        <time>2022-06-28T11:24:29Z</time>
      </trkpt>
      <trkpt lat="41.012980000" lon="-5.854006667">
        <time>2022-06-28T11:24:30Z</time>
      </trkpt>
      <trkpt lat="41.012940000" lon="-5.853981667">
        <time>2022-06-28T11:24:31Z</time>
      </trkpt>
      <trkpt lat="41.012900000" lon="-5.853956667">
        <time>2022-06-28T11:24:32Z</time>
      </trkpt>
      <trkpt lat="41.012858333" lon="-5.853933333">
        <time>2022-06-28T11:24:33Z</time>
      </trkpt>
      <trkpt lat="41.012816667" lon="-5.853915000">
        <time>2022-06-28T11:24:34Z</time>
      </trkpt>
      <trkpt lat="41.012773333" lon="-5.853898333">
        <time>2022-06-28T11:24:35Z</time>
      </trkpt>
      <trkpt lat="41.012730000" lon="-5.853880000">
        <time>2022-06-28T11:24:36Z</time>
      </trkpt>
      <trkpt lat="41.012688333" lon="-5.853863333">
        <time>2022-06-28T11:24:37Z</time>
      </trkpt>
      <trkpt lat="41.012648333" lon="-5.853846667">
        <time>2022-06-28T11:24:38Z</time>
      </trkpt>
      <trkpt lat="41.012606667" lon="-5.853835000">
        <time>2022-06-28T11:24:39Z</time>
      </trkpt>
      <trkpt lat="41.012565000" lon="-5.853823333">
        <time>2022-06-28T11:24:40Z</time>
      </trkpt>
      <trkpt lat="41.012525000" lon="-5.853813333">
        <time>2022-06-28T11:24:41Z</time>
      </trkpt>
      <trkpt lat="41.012485000" lon="-5.853801667">
        <time>2022-06-28T11:24:42Z</time>
      </trkpt>
      <trkpt lat="41.012445000" lon="-5.853791667">
        <time>2022-06-28T11:24:43Z</time>
      </trkpt>
      <trkpt lat="41.012406667" lon="-5.853780000">
        <time>2022-06-28T11:24:44Z</time>
      </trkpt>
      <trkpt lat="41.012368333" lon="-5.853770000">
        <time>2022-06-28T11:24:45Z</time>
      </trkpt>
      <trkpt lat="41.012330000" lon="-5.853763333">
        <time>2022-06-28T11:24:46Z</time>
      </trkpt>
      <trkpt lat="41.012291667" lon="-5.853756667">
        <time>2022-06-28T11:24:47Z</time>
      </trkpt>
      <trkpt lat="41.012253333" lon="-5.853748333">
        <time>2022-06-28T11:24:48Z</time>
      </trkpt>
      <trkpt lat="41.012215000" lon="-5.853741667">
        <time>2022-06-28T11:24:49Z</time>
      </trkpt>
      <trkpt lat="41.012178333" lon="-5.853735000">
        <time>2022-06-28T11:24:50Z</time>
      </trkpt>
      <trkpt lat="41.012141667" lon="-5.853726667">
        <time>2022-06-28T11:24:51Z</time>
      </trkpt>
      <trkpt lat="41.012105000" lon="-5.853720000">
        <time>2022-06-28T11:24:52Z</time>
      </trkpt>
      <trkpt lat="41.012068333" lon="-5.853715000">
        <time>2022-06-28T11:24:53Z</time>
      </trkpt>
      <trkpt lat="41.012031667" lon="-5.853705000">
        <time>2022-06-28T11:24:54Z</time>
      </trkpt>
      <trkpt lat="41.011995000" lon="-5.853693333">
        <time>2022-06-28T11:24:55Z</time>
      </trkpt>
      <trkpt lat="41.011956667" lon="-5.853680000">
        <time>2022-06-28T11:24:56Z</time>
      </trkpt>
      <trkpt lat="41.011916667" lon="-5.853666667">
        <time>2022-06-28T11:24:57Z</time>
      </trkpt>
      <trkpt lat="41.011878333" lon="-5.853650000">
        <time>2022-06-28T11:24:58Z</time>
      </trkpt>
      <trkpt lat="41.011836667" lon="-5.853631667">
        <time>2022-06-28T11:24:59Z</time>
      </trkpt>
      <trkpt lat="41.011798333" lon="-5.853615000">
        <time>2022-06-28T11:25:00Z</time>
      </trkpt>
      <trkpt lat="41.011760000" lon="-5.853596667">
        <time>2022-06-28T11:25:01Z</time>
      </trkpt>
      <trkpt lat="41.011721667" lon="-5.853575000">
        <time>2022-06-28T11:25:02Z</time>
      </trkpt>
      <trkpt lat="41.011685000" lon="-5.853550000">
        <time>2022-06-28T11:25:03Z</time>
      </trkpt>
      <trkpt lat="41.011648333" lon="-5.853520000">
        <time>2022-06-28T11:25:04Z</time>
      </trkpt>
      <trkpt lat="41.011611667" lon="-5.853491667">
        <time>2022-06-28T11:25:05Z</time>
      </trkpt>
      <trkpt lat="41.011576667" lon="-5.853461667">
        <time>2022-06-28T11:25:06Z</time>
      </trkpt>
      <trkpt lat="41.011545000" lon="-5.853426667">
        <time>2022-06-28T11:25:07Z</time>
      </trkpt>
      <trkpt lat="41.011511667" lon="-5.853390000">
        <time>2022-06-28T11:25:08Z</time>
      </trkpt>
      <trkpt lat="41.011480000" lon="-5.853353333">
        <time>2022-06-28T11:25:09Z</time>
      </trkpt>
      <trkpt lat="41.011451667" lon="-5.853313333">
        <time>2022-06-28T11:25:10Z</time>
      </trkpt>
      <trkpt lat="41.011423333" lon="-5.853273333">
        <time>2022-06-28T11:25:11Z</time>
      </trkpt>
      <trkpt lat="41.011396667" lon="-5.853233333">
        <time>2022-06-28T11:25:12Z</time>
      </trkpt>
      <trkpt lat="41.011368333" lon="-5.853191667">
        <time>2022-06-28T11:25:13Z</time>
      </trkpt>
      <trkpt lat="41.011340000" lon="-5.853148333">
        <time>2022-06-28T11:25:14Z</time>
      </trkpt>
      <trkpt lat="41.011313333" lon="-5.853105000">
        <time>2022-06-28T11:25:15Z</time>
      </trkpt>
      <trkpt lat="41.011285000" lon="-5.853060000">
        <time>2022-06-28T11:25:16Z</time>
      </trkpt>
      <trkpt lat="41.011256667" lon="-5.853015000">
        <time>2022-06-28T11:25:17Z</time>
      </trkpt>
      <trkpt lat="41.011226667" lon="-5.852970000">
        <time>2022-06-28T11:25:18Z</time>
      </trkpt>
      <trkpt lat="41.011200000" lon="-5.852923333">
        <time>2022-06-28T11:25:19Z</time>
      </trkpt>
      <trkpt lat="41.011171667" lon="-5.852875000">
        <time>2022-06-28T11:25:20Z</time>
      </trkpt>
      <trkpt lat="41.011141667" lon="-5.852828333">
        <time>2022-06-28T11:25:21Z</time>
      </trkpt>
      <trkpt lat="41.011111667" lon="-5.852781667">
        <time>2022-06-28T11:25:22Z</time>
      </trkpt>
      <trkpt lat="41.011080000" lon="-5.852736667">
        <time>2022-06-28T11:25:23Z</time>
      </trkpt>
      <trkpt lat="41.011046667" lon="-5.852691667">
        <time>2022-06-28T11:25:24Z</time>
      </trkpt>
      <trkpt lat="41.011011667" lon="-5.852648333">
        <time>2022-06-28T11:25:25Z</time>
      </trkpt>
      <trkpt lat="41.010978333" lon="-5.852605000">
        <time>2022-06-28T11:25:26Z</time>
      </trkpt>
      <trkpt lat="41.010941667" lon="-5.852561667">
        <time>2022-06-28T11:25:27Z</time>
      </trkpt>
      <trkpt lat="41.010903333" lon="-5.852523333">
        <time>2022-06-28T11:25:28Z</time>
      </trkpt>
      <trkpt lat="41.010865000" lon="-5.852481667">
        <time>2022-06-28T11:25:29Z</time>
      </trkpt>
      <trkpt lat="41.010825000" lon="-5.852441667">
        <time>2022-06-28T11:25:30Z</time>
      </trkpt>
      <trkpt lat="41.010786667" lon="-5.852400000">
        <time>2022-06-28T11:25:31Z</time>
      </trkpt>
      <trkpt lat="41.010746667" lon="-5.852360000">
        <time>2022-06-28T11:25:32Z</time>
      </trkpt>
      <trkpt lat="41.010706667" lon="-5.852320000">
        <time>2022-06-28T11:25:33Z</time>
      </trkpt>
      <trkpt lat="41.010666667" lon="-5.852280000">
        <time>2022-06-28T11:25:34Z</time>
      </trkpt>
      <trkpt lat="41.010626667" lon="-5.852240000">
        <time>2022-06-28T11:25:35Z</time>
      </trkpt>
      <trkpt lat="41.010586667" lon="-5.852200000">
        <time>2022-06-28T11:25:36Z</time>
      </trkpt>
      <trkpt lat="41.010546667" lon="-5.852160000">
        <time>2022-06-28T11:25:37Z</time>
      </trkpt>
      <trkpt lat="41.010505000" lon="-5.852120000">
        <time>2022-06-28T11:25:38Z</time>
      </trkpt>
      <trkpt lat="41.010461667" lon="-5.852078333">
        <time>2022-06-28T11:25:39Z</time>
      </trkpt>
      <trkpt lat="41.010418333" lon="-5.852036667">
        <time>2022-06-28T11:25:40Z</time>
      </trkpt>
      <trkpt lat="41.010373333" lon="-5.851995000">
        <time>2022-06-28T11:25:41Z</time>
      </trkpt>
      <trkpt lat="41.010328333" lon="-5.851950000">
        <time>2022-06-28T11:25:42Z</time>
      </trkpt>
      <trkpt lat="41.010283333" lon="-5.851905000">
        <time>2022-06-28T11:25:43Z</time>
      </trkpt>
      <trkpt lat="41.010235000" lon="-5.851860000">
        <time>2022-06-28T11:25:44Z</time>
      </trkpt>
      <trkpt lat="41.010188333" lon="-5.851815000">
        <time>2022-06-28T11:25:45Z</time>
      </trkpt>
      <trkpt lat="41.010138333" lon="-5.851770000">
        <time>2022-06-28T11:25:46Z</time>
      </trkpt>
      <trkpt lat="41.010090000" lon="-5.851721667">
        <time>2022-06-28T11:25:47Z</time>
      </trkpt>
      <trkpt lat="41.010040000" lon="-5.851673333">
        <time>2022-06-28T11:25:48Z</time>
      </trkpt>
      <trkpt lat="41.009988333" lon="-5.851623333">
        <time>2022-06-28T11:25:49Z</time>
      </trkpt>
      <trkpt lat="41.009936667" lon="-5.851575000">
        <time>2022-06-28T11:25:50Z</time>
      </trkpt>
      <trkpt lat="41.009885000" lon="-5.851526667">
        <time>2022-06-28T11:25:51Z</time>
      </trkpt>
      <trkpt lat="41.009831667" lon="-5.851476667">
        <time>2022-06-28T11:25:52Z</time>
      </trkpt>
      <trkpt lat="41.009778333" lon="-5.851425000">
        <time>2022-06-28T11:25:53Z</time>
      </trkpt>
      <trkpt lat="41.009726667" lon="-5.851375000">
        <time>2022-06-28T11:25:54Z</time>
      </trkpt>
      <trkpt lat="41.009675000" lon="-5.851323333">
        <time>2022-06-28T11:25:55Z</time>
      </trkpt>
      <trkpt lat="41.009623333" lon="-5.851273333">
        <time>2022-06-28T11:25:56Z</time>
      </trkpt>
      <trkpt lat="41.009570000" lon="-5.851221667">
        <time>2022-06-28T11:25:57Z</time>
      </trkpt>
      <trkpt lat="41.009518333" lon="-5.851173333">
        <time>2022-06-28T11:25:58Z</time>
      </trkpt>
      <trkpt lat="41.009466667" lon="-5.851121667">
        <time>2022-06-28T11:25:59Z</time>
      </trkpt>
      <trkpt lat="41.009415000" lon="-5.851071667">
        <time>2022-06-28T11:26:00Z</time>
      </trkpt>
      <trkpt lat="41.009363333" lon="-5.851020000">
        <time>2022-06-28T11:26:01Z</time>
      </trkpt>
      <trkpt lat="41.009313333" lon="-5.850968333">
        <time>2022-06-28T11:26:02Z</time>
      </trkpt>
      <trkpt lat="41.009263333" lon="-5.850916667">
        <time>2022-06-28T11:26:03Z</time>
      </trkpt>
      <trkpt lat="41.009211667" lon="-5.850865000">
        <time>2022-06-28T11:26:04Z</time>
      </trkpt>
      <trkpt lat="41.009161667" lon="-5.850813333">
        <time>2022-06-28T11:26:05Z</time>
      </trkpt>
      <trkpt lat="41.009113333" lon="-5.850761667">
        <time>2022-06-28T11:26:06Z</time>
      </trkpt>
      <trkpt lat="41.009065000" lon="-5.850708333">
        <time>2022-06-28T11:26:07Z</time>
      </trkpt>
      <trkpt lat="41.009018333" lon="-5.850653333">
        <time>2022-06-28T11:26:08Z</time>
      </trkpt>
      <trkpt lat="41.008971667" lon="-5.850600000">
        <time>2022-06-28T11:26:09Z</time>
      </trkpt>
      <trkpt lat="41.008926667" lon="-5.850545000">
        <time>2022-06-28T11:26:10Z</time>
      </trkpt>
      <trkpt lat="41.008881667" lon="-5.850486667">
        <time>2022-06-28T11:26:11Z</time>
      </trkpt>
      <trkpt lat="41.008840000" lon="-5.850426667">
        <time>2022-06-28T11:26:12Z</time>
      </trkpt>
      <trkpt lat="41.008798333" lon="-5.850363333">
        <time>2022-06-28T11:26:13Z</time>
      </trkpt>
      <trkpt lat="41.008760000" lon="-5.850296667">
        <time>2022-06-28T11:26:14Z</time>
      </trkpt>
      <trkpt lat="41.008720000" lon="-5.850228333">
        <time>2022-06-28T11:26:15Z</time>
      </trkpt>
      <trkpt lat="41.008681667" lon="-5.850158333">
        <time>2022-06-28T11:26:16Z</time>
      </trkpt>
      <trkpt lat="41.008645000" lon="-5.850086667">
        <time>2022-06-28T11:26:17Z</time>
      </trkpt>
      <trkpt lat="41.008606667" lon="-5.850013333">
        <time>2022-06-28T11:26:18Z</time>
      </trkpt>
      <trkpt lat="41.008568333" lon="-5.849940000">
        <time>2022-06-28T11:26:19Z</time>
      </trkpt>
      <trkpt lat="41.008530000" lon="-5.849866667">
        <time>2022-06-28T11:26:20Z</time>
      </trkpt>
      <trkpt lat="41.008493333" lon="-5.849793333">
        <time>2022-06-28T11:26:21Z</time>
      </trkpt>
      <trkpt lat="41.008456667" lon="-5.849718333">
        <time>2022-06-28T11:26:22Z</time>
      </trkpt>
      <trkpt lat="41.008418333" lon="-5.849641667">
        <time>2022-06-28T11:26:23Z</time>
      </trkpt>
      <trkpt lat="41.008381667" lon="-5.849565000">
        <time>2022-06-28T11:26:24Z</time>
      </trkpt>
      <trkpt lat="41.008343333" lon="-5.849486667">
        <time>2022-06-28T11:26:25Z</time>
      </trkpt>
      <trkpt lat="41.008306667" lon="-5.849408333">
        <time>2022-06-28T11:26:26Z</time>
      </trkpt>
      <trkpt lat="41.008271667" lon="-5.849325000">
        <time>2022-06-28T11:26:27Z</time>
      </trkpt>
      <trkpt lat="41.008235000" lon="-5.849243333">
        <time>2022-06-28T11:26:28Z</time>
      </trkpt>
      <trkpt lat="41.008200000" lon="-5.849156667">
        <time>2022-06-28T11:26:29Z</time>
      </trkpt>
      <trkpt lat="41.008171667" lon="-5.849068333">
        <time>2022-06-28T11:26:30Z</time>
      </trkpt>
      <trkpt lat="41.008146667" lon="-5.848978333">
        <time>2022-06-28T11:26:31Z</time>
      </trkpt>
      <trkpt lat="41.008126667" lon="-5.848886667">
        <time>2022-06-28T11:26:32Z</time>
      </trkpt>
      <trkpt lat="41.008111667" lon="-5.848795000">
        <time>2022-06-28T11:26:33Z</time>
      </trkpt>
      <trkpt lat="41.008101667" lon="-5.848703333">
        <time>2022-06-28T11:26:34Z</time>
      </trkpt>
      <trkpt lat="41.008098333" lon="-5.848610000">
        <time>2022-06-28T11:26:35Z</time>
      </trkpt>
      <trkpt lat="41.008096667" lon="-5.848518333">
        <time>2022-06-28T11:26:36Z</time>
      </trkpt>
      <trkpt lat="41.008095000" lon="-5.848426667">
        <time>2022-06-28T11:26:37Z</time>
      </trkpt>
      <trkpt lat="41.008095000" lon="-5.848335000">
        <time>2022-06-28T11:26:38Z</time>
      </trkpt>
      <trkpt lat="41.008096667" lon="-5.848243333">
        <time>2022-06-28T11:26:39Z</time>
      </trkpt>
      <trkpt lat="41.008100000" lon="-5.848151667">
        <time>2022-06-28T11:26:40Z</time>
      </trkpt>
      <trkpt lat="41.008103333" lon="-5.848058333">
        <time>2022-06-28T11:26:41Z</time>
      </trkpt>
      <trkpt lat="41.008108333" lon="-5.847965000">
        <time>2022-06-28T11:26:42Z</time>
      </trkpt>
      <trkpt lat="41.008111667" lon="-5.847871667">
        <time>2022-06-28T11:26:43Z</time>
      </trkpt>
      <trkpt lat="41.008116667" lon="-5.847778333">
        <time>2022-06-28T11:26:44Z</time>
      </trkpt>
      <trkpt lat="41.008121667" lon="-5.847686667">
        <time>2022-06-28T11:26:45Z</time>
      </trkpt>
      <trkpt lat="41.008126667" lon="-5.847593333">
        <time>2022-06-28T11:26:46Z</time>
      </trkpt>
      <trkpt lat="41.008133333" lon="-5.847500000">
        <time>2022-06-28T11:26:47Z</time>
      </trkpt>
      <trkpt lat="41.008140000" lon="-5.847406667">
        <time>2022-06-28T11:26:48Z</time>
      </trkpt>
      <trkpt lat="41.008145000" lon="-5.847313333">
        <time>2022-06-28T11:26:49Z</time>
      </trkpt>
      <trkpt lat="41.008150000" lon="-5.847221667">
        <time>2022-06-28T11:26:50Z</time>
      </trkpt>
      <trkpt lat="41.008155000" lon="-5.847128333">
        <time>2022-06-28T11:26:51Z</time>
      </trkpt>
      <trkpt lat="41.008160000" lon="-5.847035000">
        <time>2022-06-28T11:26:52Z</time>
      </trkpt>
      <trkpt lat="41.008165000" lon="-5.846943333">
        <time>2022-06-28T11:26:53Z</time>
      </trkpt>
      <trkpt lat="41.008171667" lon="-5.846850000">
        <time>2022-06-28T11:26:54Z</time>
      </trkpt>
      <trkpt lat="41.008178333" lon="-5.846758333">
        <time>2022-06-28T11:26:55Z</time>
      </trkpt>
      <trkpt lat="41.008183333" lon="-5.846668333">
        <time>2022-06-28T11:26:56Z</time>
      </trkpt>
      <trkpt lat="41.008186667" lon="-5.846578333">
        <time>2022-06-28T11:26:57Z</time>
      </trkpt>
      <trkpt lat="41.008191667" lon="-5.846490000">
        <time>2022-06-28T11:26:58Z</time>
      </trkpt>
      <trkpt lat="41.008196667" lon="-5.846401667">
        <time>2022-06-28T11:26:59Z</time>
      </trkpt>
      <trkpt lat="41.008201667" lon="-5.846313333">
        <time>2022-06-28T11:27:00Z</time>
      </trkpt>
      <trkpt lat="41.008205000" lon="-5.846226667">
        <time>2022-06-28T11:27:01Z</time>
      </trkpt>
      <trkpt lat="41.008210000" lon="-5.846138333">
        <time>2022-06-28T11:27:02Z</time>
      </trkpt>
      <trkpt lat="41.008215000" lon="-5.846050000">
        <time>2022-06-28T11:27:03Z</time>
      </trkpt>
      <trkpt lat="41.008221667" lon="-5.845963333">
        <time>2022-06-28T11:27:04Z</time>
      </trkpt>
      <trkpt lat="41.008228333" lon="-5.845875000">
        <time>2022-06-28T11:27:05Z</time>
      </trkpt>
      <trkpt lat="41.008233333" lon="-5.845786667">
        <time>2022-06-28T11:27:06Z</time>
      </trkpt>
      <trkpt lat="41.008238333" lon="-5.845698333">
        <time>2022-06-28T11:27:07Z</time>
      </trkpt>
      <trkpt lat="41.008241667" lon="-5.845610000">
        <time>2022-06-28T11:27:08Z</time>
      </trkpt>
      <trkpt lat="41.008250000" lon="-5.845521667">
        <time>2022-06-28T11:27:09Z</time>
      </trkpt>
      <trkpt lat="41.008256667" lon="-5.845431667">
        <time>2022-06-28T11:27:10Z</time>
      </trkpt>
      <trkpt lat="41.008261667" lon="-5.845340000">
        <time>2022-06-28T11:27:11Z</time>
      </trkpt>
      <trkpt lat="41.008266667" lon="-5.845250000">
        <time>2022-06-28T11:27:12Z</time>
      </trkpt>
      <trkpt lat="41.008271667" lon="-5.845160000">
        <time>2022-06-28T11:27:13Z</time>
      </trkpt>
      <trkpt lat="41.008276667" lon="-5.845070000">
        <time>2022-06-28T11:27:14Z</time>
      </trkpt>
      <trkpt lat="41.008280000" lon="-5.844978333">
        <time>2022-06-28T11:27:15Z</time>
      </trkpt>
      <trkpt lat="41.008285000" lon="-5.844886667">
        <time>2022-06-28T11:27:16Z</time>
      </trkpt>
      <trkpt lat="41.008291667" lon="-5.844793333">
        <time>2022-06-28T11:27:17Z</time>
      </trkpt>
      <trkpt lat="41.008296667" lon="-5.844698333">
        <time>2022-06-28T11:27:18Z</time>
      </trkpt>
      <trkpt lat="41.008300000" lon="-5.844605000">
        <time>2022-06-28T11:27:19Z</time>
      </trkpt>
      <trkpt lat="41.008303333" lon="-5.844510000">
        <time>2022-06-28T11:27:20Z</time>
      </trkpt>
      <trkpt lat="41.008305000" lon="-5.844413333">
        <time>2022-06-28T11:27:21Z</time>
      </trkpt>
      <trkpt lat="41.008305000" lon="-5.844318333">
        <time>2022-06-28T11:27:22Z</time>
      </trkpt>
      <trkpt lat="41.008305000" lon="-5.844221667">
        <time>2022-06-28T11:27:23Z</time>
      </trkpt>
      <trkpt lat="41.008303333" lon="-5.844123333">
        <time>2022-06-28T11:27:24Z</time>
      </trkpt>
      <trkpt lat="41.008298333" lon="-5.844026667">
        <time>2022-06-28T11:27:25Z</time>
      </trkpt>
      <trkpt lat="41.008291667" lon="-5.843928333">
        <time>2022-06-28T11:27:26Z</time>
      </trkpt>
      <trkpt lat="41.008283333" lon="-5.843830000">
        <time>2022-06-28T11:27:27Z</time>
      </trkpt>
      <trkpt lat="41.008271667" lon="-5.843731667">
        <time>2022-06-28T11:27:28Z</time>
      </trkpt>
      <trkpt lat="41.008256667" lon="-5.843635000">
        <time>2022-06-28T11:27:29Z</time>
      </trkpt>
      <trkpt lat="41.008243333" lon="-5.843538333">
        <time>2022-06-28T11:27:30Z</time>
      </trkpt>
      <trkpt lat="41.008226667" lon="-5.843441667">
        <time>2022-06-28T11:27:31Z</time>
      </trkpt>
      <trkpt lat="41.008210000" lon="-5.843346667">
        <time>2022-06-28T11:27:32Z</time>
      </trkpt>
      <trkpt lat="41.008191667" lon="-5.843251667">
        <time>2022-06-28T11:27:33Z</time>
      </trkpt>
      <trkpt lat="41.008171667" lon="-5.843156667">
        <time>2022-06-28T11:27:34Z</time>
      </trkpt>
      <trkpt lat="41.008151667" lon="-5.843061667">
        <time>2022-06-28T11:27:35Z</time>
      </trkpt>
      <trkpt lat="41.008133333" lon="-5.842968333">
        <time>2022-06-28T11:27:36Z</time>
      </trkpt>
      <trkpt lat="41.008113333" lon="-5.842873333">
        <time>2022-06-28T11:27:37Z</time>
      </trkpt>
      <trkpt lat="41.008093333" lon="-5.842780000">
        <time>2022-06-28T11:27:38Z</time>
      </trkpt>
      <trkpt lat="41.008073333" lon="-5.842686667">
        <time>2022-06-28T11:27:39Z</time>
      </trkpt>
      <trkpt lat="41.008055000" lon="-5.842595000">
        <time>2022-06-28T11:27:40Z</time>
      </trkpt>
      <trkpt lat="41.008035000" lon="-5.842501667">
        <time>2022-06-28T11:27:41Z</time>
      </trkpt>
      <trkpt lat="41.008015000" lon="-5.842411667">
        <time>2022-06-28T11:27:42Z</time>
      </trkpt>
      <trkpt lat="41.007995000" lon="-5.842320000">
        <time>2022-06-28T11:27:43Z</time>
      </trkpt>
      <trkpt lat="41.007976667" lon="-5.842230000">
        <time>2022-06-28T11:27:44Z</time>
      </trkpt>
      <trkpt lat="41.007956667" lon="-5.842140000">
        <time>2022-06-28T11:27:45Z</time>
      </trkpt>
      <trkpt lat="41.007938333" lon="-5.842050000">
        <time>2022-06-28T11:27:46Z</time>
      </trkpt>
      <trkpt lat="41.007920000" lon="-5.841961667">
        <time>2022-06-28T11:27:47Z</time>
      </trkpt>
      <trkpt lat="41.007900000" lon="-5.841875000">
        <time>2022-06-28T11:27:48Z</time>
      </trkpt>
      <trkpt lat="41.007880000" lon="-5.841786667">
        <time>2022-06-28T11:27:49Z</time>
      </trkpt>
      <trkpt lat="41.007860000" lon="-5.841700000">
        <time>2022-06-28T11:27:50Z</time>
      </trkpt>
      <trkpt lat="41.007841667" lon="-5.841613333">
        <time>2022-06-28T11:27:51Z</time>
      </trkpt>
      <trkpt lat="41.007823333" lon="-5.841525000">
        <time>2022-06-28T11:27:52Z</time>
      </trkpt>
      <trkpt lat="41.007803333" lon="-5.841438333">
        <time>2022-06-28T11:27:53Z</time>
      </trkpt>
      <trkpt lat="41.007785000" lon="-5.841350000">
        <time>2022-06-28T11:27:54Z</time>
      </trkpt>
      <trkpt lat="41.007765000" lon="-5.841263333">
        <time>2022-06-28T11:27:55Z</time>
      </trkpt>
      <trkpt lat="41.007745000" lon="-5.841178333">
        <time>2022-06-28T11:27:56Z</time>
      </trkpt>
      <trkpt lat="41.007725000" lon="-5.841093333">
        <time>2022-06-28T11:27:57Z</time>
      </trkpt>
      <trkpt lat="41.007706667" lon="-5.841010000">
        <time>2022-06-28T11:27:58Z</time>
      </trkpt>
      <trkpt lat="41.007688333" lon="-5.840926667">
        <time>2022-06-28T11:27:59Z</time>
      </trkpt>
      <trkpt lat="41.007670000" lon="-5.840843333">
        <time>2022-06-28T11:28:00Z</time>
      </trkpt>
      <trkpt lat="41.007650000" lon="-5.840760000">
        <time>2022-06-28T11:28:01Z</time>
      </trkpt>
      <trkpt lat="41.007631667" lon="-5.840678333">
        <time>2022-06-28T11:28:02Z</time>
      </trkpt>
      <trkpt lat="41.007613333" lon="-5.840596667">
        <time>2022-06-28T11:28:03Z</time>
      </trkpt>
      <trkpt lat="41.007595000" lon="-5.840515000">
        <time>2022-06-28T11:28:04Z</time>
      </trkpt>
      <trkpt lat="41.007576667" lon="-5.840435000">
        <time>2022-06-28T11:28:05Z</time>
      </trkpt>
      <trkpt lat="41.007558333" lon="-5.840356667">
        <time>2022-06-28T11:28:06Z</time>
      </trkpt>
      <trkpt lat="41.007541667" lon="-5.840278333">
        <time>2022-06-28T11:28:07Z</time>
      </trkpt>
      <trkpt lat="41.007525000" lon="-5.840200000">
        <time>2022-06-28T11:28:08Z</time>
      </trkpt>
      <trkpt lat="41.007508333" lon="-5.840123333">
        <time>2022-06-28T11:28:09Z</time>
      </trkpt>
      <trkpt lat="41.007491667" lon="-5.840046667">
        <time>2022-06-28T11:28:10Z</time>
      </trkpt>
      <trkpt lat="41.007473333" lon="-5.839971667">
        <time>2022-06-28T11:28:11Z</time>
      </trkpt>
      <trkpt lat="41.007456667" lon="-5.839898333">
        <time>2022-06-28T11:28:12Z</time>
      </trkpt>
      <trkpt lat="41.007438333" lon="-5.839826667">
        <time>2022-06-28T11:28:13Z</time>
      </trkpt>
      <trkpt lat="41.007423333" lon="-5.839753333">
        <time>2022-06-28T11:28:14Z</time>
      </trkpt>
      <trkpt lat="41.007410000" lon="-5.839683333">
        <time>2022-06-28T11:28:15Z</time>
      </trkpt>
      <trkpt lat="41.007395000" lon="-5.839615000">
        <time>2022-06-28T11:28:16Z</time>
      </trkpt>
      <trkpt lat="41.007381667" lon="-5.839548333">
        <time>2022-06-28T11:28:17Z</time>
      </trkpt>
      <trkpt lat="41.007366667" lon="-5.839483333">
        <time>2022-06-28T11:28:18Z</time>
      </trkpt>
      <trkpt lat="41.007351667" lon="-5.839421667">
        <time>2022-06-28T11:28:19Z</time>
      </trkpt>
      <trkpt lat="41.007336667" lon="-5.839360000">
        <time>2022-06-28T11:28:20Z</time>
      </trkpt>
      <trkpt lat="41.007321667" lon="-5.839300000">
        <time>2022-06-28T11:28:21Z</time>
      </trkpt>
      <trkpt lat="41.007310000" lon="-5.839240000">
        <time>2022-06-28T11:28:22Z</time>
      </trkpt>
      <trkpt lat="41.007296667" lon="-5.839181667">
        <time>2022-06-28T11:28:23Z</time>
      </trkpt>
      <trkpt lat="41.007283333" lon="-5.839123333">
        <time>2022-06-28T11:28:24Z</time>
      </trkpt>
      <trkpt lat="41.007270000" lon="-5.839065000">
        <time>2022-06-28T11:28:25Z</time>
      </trkpt>
      <trkpt lat="41.007256667" lon="-5.839008333">
        <time>2022-06-28T11:28:26Z</time>
      </trkpt>
      <trkpt lat="41.007245000" lon="-5.838950000">
        <time>2022-06-28T11:28:27Z</time>
      </trkpt>
      <trkpt lat="41.007230000" lon="-5.838891667">
        <time>2022-06-28T11:28:28Z</time>
      </trkpt>
      <trkpt lat="41.007218333" lon="-5.838833333">
        <time>2022-06-28T11:28:29Z</time>
      </trkpt>
      <trkpt lat="41.007206667" lon="-5.838775000">
        <time>2022-06-28T11:28:30Z</time>
      </trkpt>
      <trkpt lat="41.007193333" lon="-5.838713333">
        <time>2022-06-28T11:28:31Z</time>
      </trkpt>
      <trkpt lat="41.007180000" lon="-5.838653333">
        <time>2022-06-28T11:28:32Z</time>
      </trkpt>
      <trkpt lat="41.007166667" lon="-5.838596667">
        <time>2022-06-28T11:28:33Z</time>
      </trkpt>
      <trkpt lat="41.007148333" lon="-5.838536667">
        <time>2022-06-28T11:28:34Z</time>
      </trkpt>
      <trkpt lat="41.007131667" lon="-5.838475000">
        <time>2022-06-28T11:28:35Z</time>
      </trkpt>
      <trkpt lat="41.007115000" lon="-5.838413333">
        <time>2022-06-28T11:28:36Z</time>
      </trkpt>
      <trkpt lat="41.007096667" lon="-5.838351667">
        <time>2022-06-28T11:28:37Z</time>
      </trkpt>
      <trkpt lat="41.007078333" lon="-5.838288333">
        <time>2022-06-28T11:28:38Z</time>
      </trkpt>
      <trkpt lat="41.007061667" lon="-5.838231667">
        <time>2022-06-28T11:28:39Z</time>
      </trkpt>
      <trkpt lat="41.007041667" lon="-5.838168333">
        <time>2022-06-28T11:28:40Z</time>
      </trkpt>
      <trkpt lat="41.007020000" lon="-5.838105000">
        <time>2022-06-28T11:28:41Z</time>
      </trkpt>
      <trkpt lat="41.006996667" lon="-5.838038333">
        <time>2022-06-28T11:28:42Z</time>
      </trkpt>
      <trkpt lat="41.006975000" lon="-5.837975000">
        <time>2022-06-28T11:28:43Z</time>
      </trkpt>
      <trkpt lat="41.006953333" lon="-5.837911667">
        <time>2022-06-28T11:28:44Z</time>
      </trkpt>
      <trkpt lat="41.006931667" lon="-5.837850000">
        <time>2022-06-28T11:28:45Z</time>
      </trkpt>
      <trkpt lat="41.006908333" lon="-5.837788333">
        <time>2022-06-28T11:28:46Z</time>
      </trkpt>
      <trkpt lat="41.006883333" lon="-5.837726667">
        <time>2022-06-28T11:28:47Z</time>
      </trkpt>
      <trkpt lat="41.006860000" lon="-5.837665000">
        <time>2022-06-28T11:28:48Z</time>
      </trkpt>
      <trkpt lat="41.006835000" lon="-5.837603333">
        <time>2022-06-28T11:28:49Z</time>
      </trkpt>
      <trkpt lat="41.006810000" lon="-5.837540000">
        <time>2022-06-28T11:28:50Z</time>
      </trkpt>
      <trkpt lat="41.006783333" lon="-5.837476667">
        <time>2022-06-28T11:28:51Z</time>
      </trkpt>
      <trkpt lat="41.006758333" lon="-5.837411667">
        <time>2022-06-28T11:28:52Z</time>
      </trkpt>
      <trkpt lat="41.006735000" lon="-5.837343333">
        <time>2022-06-28T11:28:53Z</time>
      </trkpt>
      <trkpt lat="41.006710000" lon="-5.837275000">
        <time>2022-06-28T11:28:54Z</time>
      </trkpt>
      <trkpt lat="41.006685000" lon="-5.837203333">
        <time>2022-06-28T11:28:55Z</time>
      </trkpt>
      <trkpt lat="41.006655000" lon="-5.837131667">
        <time>2022-06-28T11:28:56Z</time>
      </trkpt>
      <trkpt lat="41.006625000" lon="-5.837060000">
        <time>2022-06-28T11:28:57Z</time>
      </trkpt>
      <trkpt lat="41.006595000" lon="-5.836986667">
        <time>2022-06-28T11:28:58Z</time>
      </trkpt>
      <trkpt lat="41.006565000" lon="-5.836910000">
        <time>2022-06-28T11:28:59Z</time>
      </trkpt>
      <trkpt lat="41.006535000" lon="-5.836835000">
        <time>2022-06-28T11:29:00Z</time>
      </trkpt>
      <trkpt lat="41.006503333" lon="-5.836760000">
        <time>2022-06-28T11:29:01Z</time>
      </trkpt>
      <trkpt lat="41.006473333" lon="-5.836681667">
        <time>2022-06-28T11:29:02Z</time>
      </trkpt>
      <trkpt lat="41.006441667" lon="-5.836608333">
        <time>2022-06-28T11:29:03Z</time>
      </trkpt>
      <trkpt lat="41.006411667" lon="-5.836528333">
        <time>2022-06-28T11:29:04Z</time>
      </trkpt>
      <trkpt lat="41.006380000" lon="-5.836450000">
        <time>2022-06-28T11:29:05Z</time>
      </trkpt>
      <trkpt lat="41.006346667" lon="-5.836375000">
        <time>2022-06-28T11:29:06Z</time>
      </trkpt>
      <trkpt lat="41.006315000" lon="-5.836300000">
        <time>2022-06-28T11:29:07Z</time>
      </trkpt>
      <trkpt lat="41.006285000" lon="-5.836223333">
        <time>2022-06-28T11:29:08Z</time>
      </trkpt>
      <trkpt lat="41.006251667" lon="-5.836143333">
        <time>2022-06-28T11:29:09Z</time>
      </trkpt>
      <trkpt lat="41.006220000" lon="-5.836060000">
        <time>2022-06-28T11:29:10Z</time>
      </trkpt>
      <trkpt lat="41.006186667" lon="-5.835980000">
        <time>2022-06-28T11:29:11Z</time>
      </trkpt>
      <trkpt lat="41.006151667" lon="-5.835898333">
        <time>2022-06-28T11:29:12Z</time>
      </trkpt>
      <trkpt lat="41.006118333" lon="-5.835816667">
        <time>2022-06-28T11:29:13Z</time>
      </trkpt>
      <trkpt lat="41.006085000" lon="-5.835731667">
        <time>2022-06-28T11:29:14Z</time>
      </trkpt>
      <trkpt lat="41.006050000" lon="-5.835646667">
        <time>2022-06-28T11:29:15Z</time>
      </trkpt>
      <trkpt lat="41.006015000" lon="-5.835561667">
        <time>2022-06-28T11:29:16Z</time>
      </trkpt>
      <trkpt lat="41.005980000" lon="-5.835478333">
        <time>2022-06-28T11:29:17Z</time>
      </trkpt>
      <trkpt lat="41.005946667" lon="-5.835391667">
        <time>2022-06-28T11:29:18Z</time>
      </trkpt>
      <trkpt lat="41.005913333" lon="-5.835303333">
        <time>2022-06-28T11:29:19Z</time>
      </trkpt>
      <trkpt lat="41.005878333" lon="-5.835216667">
        <time>2022-06-28T11:29:20Z</time>
      </trkpt>
      <trkpt lat="41.005843333" lon="-5.835128333">
        <time>2022-06-28T11:29:21Z</time>
      </trkpt>
      <trkpt lat="41.005806667" lon="-5.835040000">
        <time>2022-06-28T11:29:22Z</time>
      </trkpt>
      <trkpt lat="41.005771667" lon="-5.834951667">
        <time>2022-06-28T11:29:23Z</time>
      </trkpt>
      <trkpt lat="41.005736667" lon="-5.834863333">
        <time>2022-06-28T11:29:24Z</time>
      </trkpt>
      <trkpt lat="41.005700000" lon="-5.834776667">
        <time>2022-06-28T11:29:25Z</time>
      </trkpt>
      <trkpt lat="41.005665000" lon="-5.834688333">
        <time>2022-06-28T11:29:26Z</time>
      </trkpt>
      <trkpt lat="41.005630000" lon="-5.834601667">
        <time>2022-06-28T11:29:27Z</time>
      </trkpt>
      <trkpt lat="41.005596667" lon="-5.834516667">
        <time>2022-06-28T11:29:28Z</time>
      </trkpt>
      <trkpt lat="41.005563333" lon="-5.834431667">
        <time>2022-06-28T11:29:29Z</time>
      </trkpt>
      <trkpt lat="41.005530000" lon="-5.834346667">
        <time>2022-06-28T11:29:30Z</time>
      </trkpt>
      <trkpt lat="41.005495000" lon="-5.834261667">
        <time>2022-06-28T11:29:31Z</time>
      </trkpt>
      <trkpt lat="41.005461667" lon="-5.834176667">
        <time>2022-06-28T11:29:32Z</time>
      </trkpt>
      <trkpt lat="41.005428333" lon="-5.834093333">
        <time>2022-06-28T11:29:33Z</time>
      </trkpt>
      <trkpt lat="41.005395000" lon="-5.834011667">
        <time>2022-06-28T11:29:34Z</time>
      </trkpt>
      <trkpt lat="41.005361667" lon="-5.833931667">
        <time>2022-06-28T11:29:35Z</time>
      </trkpt>
      <trkpt lat="41.005328333" lon="-5.833850000">
        <time>2022-06-28T11:29:36Z</time>
      </trkpt>
      <trkpt lat="41.005296667" lon="-5.833771667">
        <time>2022-06-28T11:29:37Z</time>
      </trkpt>
      <trkpt lat="41.005265000" lon="-5.833693333">
        <time>2022-06-28T11:29:38Z</time>
      </trkpt>
      <trkpt lat="41.005231667" lon="-5.833615000">
        <time>2022-06-28T11:29:39Z</time>
      </trkpt>
      <trkpt lat="41.005200000" lon="-5.833538333">
        <time>2022-06-28T11:29:40Z</time>
      </trkpt>
      <trkpt lat="41.005168333" lon="-5.833465000">
        <time>2022-06-28T11:29:41Z</time>
      </trkpt>
      <trkpt lat="41.005133333" lon="-5.833393333">
        <time>2022-06-28T11:29:42Z</time>
      </trkpt>
      <trkpt lat="41.005101667" lon="-5.833321667">
        <time>2022-06-28T11:29:43Z</time>
      </trkpt>
      <trkpt lat="41.005070000" lon="-5.833250000">
        <time>2022-06-28T11:29:44Z</time>
      </trkpt>
      <trkpt lat="41.005036667" lon="-5.833180000">
        <time>2022-06-28T11:29:45Z</time>
      </trkpt>
      <trkpt lat="41.005003333" lon="-5.833108333">
        <time>2022-06-28T11:29:46Z</time>
      </trkpt>
      <trkpt lat="41.004970000" lon="-5.833038333">
        <time>2022-06-28T11:29:47Z</time>
      </trkpt>
      <trkpt lat="41.004936667" lon="-5.832970000">
        <time>2022-06-28T11:29:48Z</time>
      </trkpt>
      <trkpt lat="41.004903333" lon="-5.832903333">
        <time>2022-06-28T11:29:49Z</time>
      </trkpt>
      <trkpt lat="41.004868333" lon="-5.832836667">
        <time>2022-06-28T11:29:50Z</time>
      </trkpt>
      <trkpt lat="41.004831667" lon="-5.832770000">
        <time>2022-06-28T11:29:51Z</time>
      </trkpt>
      <trkpt lat="41.004796667" lon="-5.832703333">
        <time>2022-06-28T11:29:52Z</time>
      </trkpt>
      <trkpt lat="41.004758333" lon="-5.832638333">
        <time>2022-06-28T11:29:53Z</time>
      </trkpt>
      <trkpt lat="41.004720000" lon="-5.832575000">
        <time>2022-06-28T11:29:54Z</time>
      </trkpt>
      <trkpt lat="41.004683333" lon="-5.832515000">
        <time>2022-06-28T11:29:55Z</time>
      </trkpt>
      <trkpt lat="41.004646667" lon="-5.832455000">
        <time>2022-06-28T11:29:56Z</time>
      </trkpt>
      <trkpt lat="41.004610000" lon="-5.832396667">
        <time>2022-06-28T11:29:57Z</time>
      </trkpt>
      <trkpt lat="41.004571667" lon="-5.832340000">
        <time>2022-06-28T11:29:58Z</time>
      </trkpt>
      <trkpt lat="41.004531667" lon="-5.832285000">
        <time>2022-06-28T11:29:59Z</time>
      </trkpt>
      <trkpt lat="41.004491667" lon="-5.832230000">
        <time>2022-06-28T11:30:00Z</time>
      </trkpt>
      <trkpt lat="41.004451667" lon="-5.832173333">
        <time>2022-06-28T11:30:01Z</time>
      </trkpt>
      <trkpt lat="41.004410000" lon="-5.832116667">
        <time>2022-06-28T11:30:02Z</time>
      </trkpt>
      <trkpt lat="41.004368333" lon="-5.832063333">
        <time>2022-06-28T11:30:03Z</time>
      </trkpt>
      <trkpt lat="41.004326667" lon="-5.832008333">
        <time>2022-06-28T11:30:04Z</time>
      </trkpt>
      <trkpt lat="41.004283333" lon="-5.831958333">
        <time>2022-06-28T11:30:05Z</time>
      </trkpt>
      <trkpt lat="41.004240000" lon="-5.831908333">
        <time>2022-06-28T11:30:06Z</time>
      </trkpt>
      <trkpt lat="41.004195000" lon="-5.831860000">
        <time>2022-06-28T11:30:07Z</time>
      </trkpt>
      <trkpt lat="41.004150000" lon="-5.831811667">
        <time>2022-06-28T11:30:08Z</time>
      </trkpt>
      <trkpt lat="41.004105000" lon="-5.831765000">
        <time>2022-06-28T11:30:09Z</time>
      </trkpt>
      <trkpt lat="41.004060000" lon="-5.831718333">
        <time>2022-06-28T11:30:10Z</time>
      </trkpt>
      <trkpt lat="41.004021667" lon="-5.831675000">
        <time>2022-06-28T11:30:11Z</time>
      </trkpt>
      <trkpt lat="41.003973333" lon="-5.831631667">
        <time>2022-06-28T11:30:12Z</time>
      </trkpt>
      <trkpt lat="41.003923333" lon="-5.831588333">
        <time>2022-06-28T11:30:13Z</time>
      </trkpt>
      <trkpt lat="41.003875000" lon="-5.831545000">
        <time>2022-06-28T11:30:14Z</time>
      </trkpt>
      <trkpt lat="41.003828333" lon="-5.831501667">
        <time>2022-06-28T11:30:15Z</time>
      </trkpt>
      <trkpt lat="41.003780000" lon="-5.831460000">
        <time>2022-06-28T11:30:16Z</time>
      </trkpt>
      <trkpt lat="41.003731667" lon="-5.831418333">
        <time>2022-06-28T11:30:17Z</time>
      </trkpt>
      <trkpt lat="41.003683333" lon="-5.831375000">
        <time>2022-06-28T11:30:18Z</time>
      </trkpt>
      <trkpt lat="41.003635000" lon="-5.831335000">
        <time>2022-06-28T11:30:19Z</time>
      </trkpt>
      <trkpt lat="41.003585000" lon="-5.831296667">
        <time>2022-06-28T11:30:20Z</time>
      </trkpt>
      <trkpt lat="41.003535000" lon="-5.831260000">
        <time>2022-06-28T11:30:21Z</time>
      </trkpt>
      <trkpt lat="41.003485000" lon="-5.831221667">
        <time>2022-06-28T11:30:22Z</time>
      </trkpt>
      <trkpt lat="41.003435000" lon="-5.831183333">
        <time>2022-06-28T11:30:23Z</time>
      </trkpt>
      <trkpt lat="41.003385000" lon="-5.831141667">
        <time>2022-06-28T11:30:24Z</time>
      </trkpt>
      <trkpt lat="41.003336667" lon="-5.831101667">
        <time>2022-06-28T11:30:25Z</time>
      </trkpt>
      <trkpt lat="41.003285000" lon="-5.831063333">
        <time>2022-06-28T11:30:26Z</time>
      </trkpt>
      <trkpt lat="41.003233333" lon="-5.831025000">
        <time>2022-06-28T11:30:27Z</time>
      </trkpt>
      <trkpt lat="41.003183333" lon="-5.830986667">
        <time>2022-06-28T11:30:28Z</time>
      </trkpt>
      <trkpt lat="41.003130000" lon="-5.830948333">
        <time>2022-06-28T11:30:29Z</time>
      </trkpt>
      <trkpt lat="41.003078333" lon="-5.830911667">
        <time>2022-06-28T11:30:30Z</time>
      </trkpt>
      <trkpt lat="41.003026667" lon="-5.830873333">
        <time>2022-06-28T11:30:31Z</time>
      </trkpt>
      <trkpt lat="41.002975000" lon="-5.830835000">
        <time>2022-06-28T11:30:32Z</time>
      </trkpt>
      <trkpt lat="41.002923333" lon="-5.830796667">
        <time>2022-06-28T11:30:33Z</time>
      </trkpt>
      <trkpt lat="41.002871667" lon="-5.830758333">
        <time>2022-06-28T11:30:34Z</time>
      </trkpt>
      <trkpt lat="41.002820000" lon="-5.830720000">
        <time>2022-06-28T11:30:35Z</time>
      </trkpt>
      <trkpt lat="41.002768333" lon="-5.830678333">
        <time>2022-06-28T11:30:36Z</time>
      </trkpt>
      <trkpt lat="41.002718333" lon="-5.830638333">
        <time>2022-06-28T11:30:37Z</time>
      </trkpt>
      <trkpt lat="41.002668333" lon="-5.830598333">
        <time>2022-06-28T11:30:38Z</time>
      </trkpt>
      <trkpt lat="41.002616667" lon="-5.830560000">
        <time>2022-06-28T11:30:39Z</time>
      </trkpt>
      <trkpt lat="41.002565000" lon="-5.830520000">
        <time>2022-06-28T11:30:40Z</time>
      </trkpt>
      <trkpt lat="41.002515000" lon="-5.830478333">
        <time>2022-06-28T11:30:41Z</time>
      </trkpt>
      <trkpt lat="41.002463333" lon="-5.830436667">
        <time>2022-06-28T11:30:42Z</time>
      </trkpt>
      <trkpt lat="41.002415000" lon="-5.830393333">
        <time>2022-06-28T11:30:43Z</time>
      </trkpt>
      <trkpt lat="41.002365000" lon="-5.830348333">
        <time>2022-06-28T11:30:44Z</time>
      </trkpt>
      <trkpt lat="41.002316667" lon="-5.830305000">
        <time>2022-06-28T11:30:45Z</time>
      </trkpt>
      <trkpt lat="41.002268333" lon="-5.830260000">
        <time>2022-06-28T11:30:46Z</time>
      </trkpt>
      <trkpt lat="41.002221667" lon="-5.830213333">
        <time>2022-06-28T11:30:47Z</time>
      </trkpt>
      <trkpt lat="41.002175000" lon="-5.830166667">
        <time>2022-06-28T11:30:48Z</time>
      </trkpt>
      <trkpt lat="41.002130000" lon="-5.830118333">
        <time>2022-06-28T11:30:49Z</time>
      </trkpt>
      <trkpt lat="41.002085000" lon="-5.830068333">
        <time>2022-06-28T11:30:50Z</time>
      </trkpt>
      <trkpt lat="41.002041667" lon="-5.830016667">
        <time>2022-06-28T11:30:51Z</time>
      </trkpt>
      <trkpt lat="41.001998333" lon="-5.829966667">
        <time>2022-06-28T11:30:52Z</time>
      </trkpt>
      <trkpt lat="41.001955000" lon="-5.829913333">
        <time>2022-06-28T11:30:53Z</time>
      </trkpt>
      <trkpt lat="41.001915000" lon="-5.829858333">
        <time>2022-06-28T11:30:54Z</time>
      </trkpt>
      <trkpt lat="41.001873333" lon="-5.829801667">
        <time>2022-06-28T11:30:55Z</time>
      </trkpt>
      <trkpt lat="41.001831667" lon="-5.829745000">
        <time>2022-06-28T11:30:56Z</time>
      </trkpt>
      <trkpt lat="41.001788333" lon="-5.829686667">
        <time>2022-06-28T11:30:57Z</time>
      </trkpt>
      <trkpt lat="41.001746667" lon="-5.829628333">
        <time>2022-06-28T11:30:58Z</time>
      </trkpt>
      <trkpt lat="41.001705000" lon="-5.829568333">
        <time>2022-06-28T11:30:59Z</time>
      </trkpt>
      <trkpt lat="41.001663333" lon="-5.829505000">
        <time>2022-06-28T11:31:00Z</time>
      </trkpt>
      <trkpt lat="41.001625000" lon="-5.829446667">
        <time>2022-06-28T11:31:01Z</time>
      </trkpt>
      <trkpt lat="41.001586667" lon="-5.829388333">
        <time>2022-06-28T11:31:02Z</time>
      </trkpt>
      <trkpt lat="41.001548333" lon="-5.829326667">
        <time>2022-06-28T11:31:03Z</time>
      </trkpt>
      <trkpt lat="41.001511667" lon="-5.829263333">
        <time>2022-06-28T11:31:04Z</time>
      </trkpt>
      <trkpt lat="41.001475000" lon="-5.829205000">
        <time>2022-06-28T11:31:05Z</time>
      </trkpt>
      <trkpt lat="41.001431667" lon="-5.829143333">
        <time>2022-06-28T11:31:06Z</time>
      </trkpt>
      <trkpt lat="41.001390000" lon="-5.829076667">
        <time>2022-06-28T11:31:07Z</time>
      </trkpt>
      <trkpt lat="41.001348333" lon="-5.829011667">
        <time>2022-06-28T11:31:08Z</time>
      </trkpt>
      <trkpt lat="41.001308333" lon="-5.828943333">
        <time>2022-06-28T11:31:09Z</time>
      </trkpt>
      <trkpt lat="41.001266667" lon="-5.828875000">
        <time>2022-06-28T11:31:10Z</time>
      </trkpt>
      <trkpt lat="41.001225000" lon="-5.828808333">
        <time>2022-06-28T11:31:11Z</time>
      </trkpt>
      <trkpt lat="41.001183333" lon="-5.828740000">
        <time>2022-06-28T11:31:12Z</time>
      </trkpt>
      <trkpt lat="41.001141667" lon="-5.828670000">
        <time>2022-06-28T11:31:13Z</time>
      </trkpt>
      <trkpt lat="41.001098333" lon="-5.828603333">
        <time>2022-06-28T11:31:14Z</time>
      </trkpt>
      <trkpt lat="41.001056667" lon="-5.828535000">
        <time>2022-06-28T11:31:15Z</time>
      </trkpt>
      <trkpt lat="41.001015000" lon="-5.828465000">
        <time>2022-06-28T11:31:16Z</time>
      </trkpt>
      <trkpt lat="41.000973333" lon="-5.828396667">
        <time>2022-06-28T11:31:17Z</time>
      </trkpt>
      <trkpt lat="41.000930000" lon="-5.828328333">
        <time>2022-06-28T11:31:18Z</time>
      </trkpt>
      <trkpt lat="41.000885000" lon="-5.828258333">
        <time>2022-06-28T11:31:19Z</time>
      </trkpt>
      <trkpt lat="41.000841667" lon="-5.828186667">
        <time>2022-06-28T11:31:20Z</time>
      </trkpt>
      <trkpt lat="41.000796667" lon="-5.828113333">
        <time>2022-06-28T11:31:21Z</time>
      </trkpt>
      <trkpt lat="41.000748333" lon="-5.828041667">
        <time>2022-06-28T11:31:22Z</time>
      </trkpt>
      <trkpt lat="41.000701667" lon="-5.827966667">
        <time>2022-06-28T11:31:23Z</time>
      </trkpt>
      <trkpt lat="41.000655000" lon="-5.827890000">
        <time>2022-06-28T11:31:24Z</time>
      </trkpt>
      <trkpt lat="41.000606667" lon="-5.827811667">
        <time>2022-06-28T11:31:25Z</time>
      </trkpt>
      <trkpt lat="41.000556667" lon="-5.827733333">
        <time>2022-06-28T11:31:26Z</time>
      </trkpt>
      <trkpt lat="41.000506667" lon="-5.827653333">
        <time>2022-06-28T11:31:27Z</time>
      </trkpt>
      <trkpt lat="41.000456667" lon="-5.827571667">
        <time>2022-06-28T11:31:28Z</time>
      </trkpt>
      <trkpt lat="41.000403333" lon="-5.827488333">
        <time>2022-06-28T11:31:29Z</time>
      </trkpt>
      <trkpt lat="41.000350000" lon="-5.827405000">
        <time>2022-06-28T11:31:30Z</time>
      </trkpt>
      <trkpt lat="41.000298333" lon="-5.827320000">
        <time>2022-06-28T11:31:31Z</time>
      </trkpt>
      <trkpt lat="41.000245000" lon="-5.827235000">
        <time>2022-06-28T11:31:32Z</time>
      </trkpt>
      <trkpt lat="41.000191667" lon="-5.827150000">
        <time>2022-06-28T11:31:33Z</time>
      </trkpt>
      <trkpt lat="41.000138333" lon="-5.827063333">
        <time>2022-06-28T11:31:34Z</time>
      </trkpt>
      <trkpt lat="41.000086667" lon="-5.826976667">
        <time>2022-06-28T11:31:35Z</time>
      </trkpt>
      <trkpt lat="41.000033333" lon="-5.826890000">
        <time>2022-06-28T11:31:36Z</time>
      </trkpt>
      <trkpt lat="40.999980000" lon="-5.826805000">
        <time>2022-06-28T11:31:37Z</time>
      </trkpt>
      <trkpt lat="40.999926667" lon="-5.826720000">
        <time>2022-06-28T11:31:38Z</time>
      </trkpt>
      <trkpt lat="40.999875000" lon="-5.826635000">
        <time>2022-06-28T11:31:39Z</time>
      </trkpt>
      <trkpt lat="40.999825000" lon="-5.826551667">
        <time>2022-06-28T11:31:40Z</time>
      </trkpt>
      <trkpt lat="40.999773333" lon="-5.826470000">
        <time>2022-06-28T11:31:41Z</time>
      </trkpt>
      <trkpt lat="40.999721667" lon="-5.826390000">
        <time>2022-06-28T11:31:42Z</time>
      </trkpt>
      <trkpt lat="40.999671667" lon="-5.826311667">
        <time>2022-06-28T11:31:43Z</time>
      </trkpt>
      <trkpt lat="40.999620000" lon="-5.826231667">
        <time>2022-06-28T11:31:44Z</time>
      </trkpt>
      <trkpt lat="40.999570000" lon="-5.826151667">
        <time>2022-06-28T11:31:45Z</time>
      </trkpt>
      <trkpt lat="40.999520000" lon="-5.826071667">
        <time>2022-06-28T11:31:46Z</time>
      </trkpt>
      <trkpt lat="40.999470000" lon="-5.825993333">
        <time>2022-06-28T11:31:47Z</time>
      </trkpt>
      <trkpt lat="40.999420000" lon="-5.825913333">
        <time>2022-06-28T11:31:48Z</time>
      </trkpt>
      <trkpt lat="40.999368333" lon="-5.825833333">
        <time>2022-06-28T11:31:49Z</time>
      </trkpt>
      <trkpt lat="40.999318333" lon="-5.825751667">
        <time>2022-06-28T11:31:50Z</time>
      </trkpt>
      <trkpt lat="40.999268333" lon="-5.825671667">
        <time>2022-06-28T11:31:51Z</time>
      </trkpt>
      <trkpt lat="40.999218333" lon="-5.825591667">
        <time>2022-06-28T11:31:52Z</time>
      </trkpt>
      <trkpt lat="40.999166667" lon="-5.825511667">
        <time>2022-06-28T11:31:53Z</time>
      </trkpt>
      <trkpt lat="40.999116667" lon="-5.825431667">
        <time>2022-06-28T11:31:54Z</time>
      </trkpt>
      <trkpt lat="40.999065000" lon="-5.825351667">
        <time>2022-06-28T11:31:55Z</time>
      </trkpt>
      <trkpt lat="40.999015000" lon="-5.825271667">
        <time>2022-06-28T11:31:56Z</time>
      </trkpt>
      <trkpt lat="40.998963333" lon="-5.825191667">
        <time>2022-06-28T11:31:57Z</time>
      </trkpt>
      <trkpt lat="40.998913333" lon="-5.825111667">
        <time>2022-06-28T11:31:58Z</time>
      </trkpt>
      <trkpt lat="40.998865000" lon="-5.825033333">
        <time>2022-06-28T11:31:59Z</time>
      </trkpt>
      <trkpt lat="40.998816667" lon="-5.824953333">
        <time>2022-06-28T11:32:00Z</time>
      </trkpt>
      <trkpt lat="40.998768333" lon="-5.824876667">
        <time>2022-06-28T11:32:01Z</time>
      </trkpt>
      <trkpt lat="40.998718333" lon="-5.824800000">
        <time>2022-06-28T11:32:02Z</time>
      </trkpt>
      <trkpt lat="40.998670000" lon="-5.824723333">
        <time>2022-06-28T11:32:03Z</time>
      </trkpt>
      <trkpt lat="40.998621667" lon="-5.824646667">
        <time>2022-06-28T11:32:04Z</time>
      </trkpt>
      <trkpt lat="40.998573333" lon="-5.824571667">
        <time>2022-06-28T11:32:05Z</time>
      </trkpt>
      <trkpt lat="40.998526667" lon="-5.824496667">
        <time>2022-06-28T11:32:06Z</time>
      </trkpt>
      <trkpt lat="40.998480000" lon="-5.824421667">
        <time>2022-06-28T11:32:07Z</time>
      </trkpt>
      <trkpt lat="40.998431667" lon="-5.824345000">
        <time>2022-06-28T11:32:08Z</time>
      </trkpt>
      <trkpt lat="40.998383333" lon="-5.824268333">
        <time>2022-06-28T11:32:09Z</time>
      </trkpt>
      <trkpt lat="40.998336667" lon="-5.824193333">
        <time>2022-06-28T11:32:10Z</time>
      </trkpt>
      <trkpt lat="40.998288333" lon="-5.824118333">
        <time>2022-06-28T11:32:11Z</time>
      </trkpt>
      <trkpt lat="40.998240000" lon="-5.824043333">
        <time>2022-06-28T11:32:12Z</time>
      </trkpt>
      <trkpt lat="40.998193333" lon="-5.823968333">
        <time>2022-06-28T11:32:13Z</time>
      </trkpt>
      <trkpt lat="40.998148333" lon="-5.823895000">
        <time>2022-06-28T11:32:14Z</time>
      </trkpt>
      <trkpt lat="40.998101667" lon="-5.823820000">
        <time>2022-06-28T11:32:15Z</time>
      </trkpt>
      <trkpt lat="40.998055000" lon="-5.823748333">
        <time>2022-06-28T11:32:16Z</time>
      </trkpt>
      <trkpt lat="40.998010000" lon="-5.823675000">
        <time>2022-06-28T11:32:17Z</time>
      </trkpt>
      <trkpt lat="40.997965000" lon="-5.823603333">
        <time>2022-06-28T11:32:18Z</time>
      </trkpt>
      <trkpt lat="40.997920000" lon="-5.823531667">
        <time>2022-06-28T11:32:19Z</time>
      </trkpt>
      <trkpt lat="40.997876667" lon="-5.823461667">
        <time>2022-06-28T11:32:20Z</time>
      </trkpt>
      <trkpt lat="40.997831667" lon="-5.823391667">
        <time>2022-06-28T11:32:21Z</time>
      </trkpt>
      <trkpt lat="40.997788333" lon="-5.823321667">
        <time>2022-06-28T11:32:22Z</time>
      </trkpt>
      <trkpt lat="40.997745000" lon="-5.823253333">
        <time>2022-06-28T11:32:23Z</time>
      </trkpt>
      <trkpt lat="40.997701667" lon="-5.823183333">
        <time>2022-06-28T11:32:24Z</time>
      </trkpt>
      <trkpt lat="40.997660000" lon="-5.823115000">
        <time>2022-06-28T11:32:25Z</time>
      </trkpt>
      <trkpt lat="40.997616667" lon="-5.823048333">
        <time>2022-06-28T11:32:26Z</time>
      </trkpt>
      <trkpt lat="40.997575000" lon="-5.822980000">
        <time>2022-06-28T11:32:27Z</time>
      </trkpt>
      <trkpt lat="40.997531667" lon="-5.822911667">
        <time>2022-06-28T11:32:28Z</time>
      </trkpt>
      <trkpt lat="40.997488333" lon="-5.822845000">
        <time>2022-06-28T11:32:29Z</time>
      </trkpt>
      <trkpt lat="40.997446667" lon="-5.822778333">
        <time>2022-06-28T11:32:30Z</time>
      </trkpt>
      <trkpt lat="40.997405000" lon="-5.822710000">
        <time>2022-06-28T11:32:31Z</time>
      </trkpt>
      <trkpt lat="40.997363333" lon="-5.822641667">
        <time>2022-06-28T11:32:32Z</time>
      </trkpt>
      <trkpt lat="40.997320000" lon="-5.822575000">
        <time>2022-06-28T11:32:33Z</time>
      </trkpt>
      <trkpt lat="40.997278333" lon="-5.822508333">
        <time>2022-06-28T11:32:34Z</time>
      </trkpt>
      <trkpt lat="40.997236667" lon="-5.822438333">
        <time>2022-06-28T11:32:35Z</time>
      </trkpt>
      <trkpt lat="40.997193333" lon="-5.822371667">
        <time>2022-06-28T11:32:36Z</time>
      </trkpt>
      <trkpt lat="40.997150000" lon="-5.822305000">
        <time>2022-06-28T11:32:37Z</time>
      </trkpt>
      <trkpt lat="40.997106667" lon="-5.822236667">
        <time>2022-06-28T11:32:38Z</time>
      </trkpt>
      <trkpt lat="40.997065000" lon="-5.822166667">
        <time>2022-06-28T11:32:39Z</time>
      </trkpt>
      <trkpt lat="40.997021667" lon="-5.822096667">
        <time>2022-06-28T11:32:40Z</time>
      </trkpt>
      <trkpt lat="40.996976667" lon="-5.822026667">
        <time>2022-06-28T11:32:41Z</time>
      </trkpt>
      <trkpt lat="40.996933333" lon="-5.821956667">
        <time>2022-06-28T11:32:42Z</time>
      </trkpt>
      <trkpt lat="40.996890000" lon="-5.821888333">
        <time>2022-06-28T11:32:43Z</time>
      </trkpt>
      <trkpt lat="40.996848333" lon="-5.821820000">
        <time>2022-06-28T11:32:44Z</time>
      </trkpt>
      <trkpt lat="40.996805000" lon="-5.821753333">
        <time>2022-06-28T11:32:45Z</time>
      </trkpt>
      <trkpt lat="40.996763333" lon="-5.821686667">
        <time>2022-06-28T11:32:46Z</time>
      </trkpt>
      <trkpt lat="40.996721667" lon="-5.821620000">
        <time>2022-06-28T11:32:47Z</time>
      </trkpt>
      <trkpt lat="40.996680000" lon="-5.821553333">
        <time>2022-06-28T11:32:48Z</time>
      </trkpt>
      <trkpt lat="40.996640000" lon="-5.821488333">
        <time>2022-06-28T11:32:49Z</time>
      </trkpt>
      <trkpt lat="40.996598333" lon="-5.821423333">
        <time>2022-06-28T11:32:50Z</time>
      </trkpt>
      <trkpt lat="40.996558333" lon="-5.821360000">
        <time>2022-06-28T11:32:51Z</time>
      </trkpt>
      <trkpt lat="40.996520000" lon="-5.821296667">
        <time>2022-06-28T11:32:52Z</time>
      </trkpt>
      <trkpt lat="40.996481667" lon="-5.821235000">
        <time>2022-06-28T11:32:53Z</time>
      </trkpt>
      <trkpt lat="40.996445000" lon="-5.821175000">
        <time>2022-06-28T11:32:54Z</time>
      </trkpt>
      <trkpt lat="40.996406667" lon="-5.821113333">
        <time>2022-06-28T11:32:55Z</time>
      </trkpt>
      <trkpt lat="40.996371667" lon="-5.821048333">
        <time>2022-06-28T11:32:56Z</time>
      </trkpt>
      <trkpt lat="40.996336667" lon="-5.820985000">
        <time>2022-06-28T11:32:57Z</time>
      </trkpt>
      <trkpt lat="40.996301667" lon="-5.820920000">
        <time>2022-06-28T11:32:58Z</time>
      </trkpt>
      <trkpt lat="40.996268333" lon="-5.820856667">
        <time>2022-06-28T11:32:59Z</time>
      </trkpt>
      <trkpt lat="40.996236667" lon="-5.820791667">
        <time>2022-06-28T11:33:00Z</time>
      </trkpt>
      <trkpt lat="40.996208333" lon="-5.820730000">
        <time>2022-06-28T11:33:01Z</time>
      </trkpt>
      <trkpt lat="40.996181667" lon="-5.820671667">
        <time>2022-06-28T11:33:02Z</time>
      </trkpt>
      <trkpt lat="40.996156667" lon="-5.820613333">
        <time>2022-06-28T11:33:03Z</time>
      </trkpt>
      <trkpt lat="40.996130000" lon="-5.820551667">
        <time>2022-06-28T11:33:04Z</time>
      </trkpt>
      <trkpt lat="40.996108333" lon="-5.820488333">
        <time>2022-06-28T11:33:05Z</time>
      </trkpt>
      <trkpt lat="40.996086667" lon="-5.820423333">
        <time>2022-06-28T11:33:06Z</time>
      </trkpt>
      <trkpt lat="40.996066667" lon="-5.820358333">
        <time>2022-06-28T11:33:07Z</time>
      </trkpt>
      <trkpt lat="40.996045000" lon="-5.820296667">
        <time>2022-06-28T11:33:08Z</time>
      </trkpt>
      <trkpt lat="40.996021667" lon="-5.820225000">
        <time>2022-06-28T11:33:09Z</time>
      </trkpt>
      <trkpt lat="40.996001667" lon="-5.820156667">
        <time>2022-06-28T11:33:10Z</time>
      </trkpt>
      <trkpt lat="40.995985000" lon="-5.820086667">
        <time>2022-06-28T11:33:11Z</time>
      </trkpt>
      <trkpt lat="40.995966667" lon="-5.820018333">
        <time>2022-06-28T11:33:12Z</time>
      </trkpt>
      <trkpt lat="40.995951667" lon="-5.819948333">
        <time>2022-06-28T11:33:13Z</time>
      </trkpt>
      <trkpt lat="40.995940000" lon="-5.819878333">
        <time>2022-06-28T11:33:14Z</time>
      </trkpt>
      <trkpt lat="40.995928333" lon="-5.819806667">
        <time>2022-06-28T11:33:15Z</time>
      </trkpt>
      <trkpt lat="40.995915000" lon="-5.819736667">
        <time>2022-06-28T11:33:16Z</time>
      </trkpt>
      <trkpt lat="40.995903333" lon="-5.819666667">
        <time>2022-06-28T11:33:17Z</time>
      </trkpt>
      <trkpt lat="40.995891667" lon="-5.819596667">
        <time>2022-06-28T11:33:18Z</time>
      </trkpt>
      <trkpt lat="40.995880000" lon="-5.819525000">
        <time>2022-06-28T11:33:19Z</time>
      </trkpt>
      <trkpt lat="40.995873333" lon="-5.819456667">
        <time>2022-06-28T11:33:20Z</time>
      </trkpt>
      <trkpt lat="40.995865000" lon="-5.819388333">
        <time>2022-06-28T11:33:21Z</time>
      </trkpt>
      <trkpt lat="40.995855000" lon="-5.819318333">
        <time>2022-06-28T11:33:22Z</time>
      </trkpt>
      <trkpt lat="40.995846667" lon="-5.819246667">
        <time>2022-06-28T11:33:23Z</time>
      </trkpt>
      <trkpt lat="40.995838333" lon="-5.819173333">
        <time>2022-06-28T11:33:24Z</time>
      </trkpt>
      <trkpt lat="40.995831667" lon="-5.819100000">
        <time>2022-06-28T11:33:25Z</time>
      </trkpt>
      <trkpt lat="40.995823333" lon="-5.819025000">
        <time>2022-06-28T11:33:26Z</time>
      </trkpt>
      <trkpt lat="40.995815000" lon="-5.818948333">
        <time>2022-06-28T11:33:27Z</time>
      </trkpt>
      <trkpt lat="40.995806667" lon="-5.818875000">
        <time>2022-06-28T11:33:28Z</time>
      </trkpt>
      <trkpt lat="40.995798333" lon="-5.818801667">
        <time>2022-06-28T11:33:29Z</time>
      </trkpt>
      <trkpt lat="40.995790000" lon="-5.818726667">
        <time>2022-06-28T11:33:30Z</time>
      </trkpt>
      <trkpt lat="40.995781667" lon="-5.818648333">
        <time>2022-06-28T11:33:31Z</time>
      </trkpt>
      <trkpt lat="40.995773333" lon="-5.818570000">
        <time>2022-06-28T11:33:32Z</time>
      </trkpt>
      <trkpt lat="40.995763333" lon="-5.818491667">
        <time>2022-06-28T11:33:33Z</time>
      </trkpt>
      <trkpt lat="40.995755000" lon="-5.818413333">
        <time>2022-06-28T11:33:34Z</time>
      </trkpt>
      <trkpt lat="40.995745000" lon="-5.818335000">
        <time>2022-06-28T11:33:35Z</time>
      </trkpt>
      <trkpt lat="40.995736667" lon="-5.818256667">
        <time>2022-06-28T11:33:36Z</time>
      </trkpt>
      <trkpt lat="40.995726667" lon="-5.818180000">
        <time>2022-06-28T11:33:37Z</time>
      </trkpt>
      <trkpt lat="40.995716667" lon="-5.818101667">
        <time>2022-06-28T11:33:38Z</time>
      </trkpt>
      <trkpt lat="40.995706667" lon="-5.818025000">
        <time>2022-06-28T11:33:39Z</time>
      </trkpt>
      <trkpt lat="40.995698333" lon="-5.817946667">
        <time>2022-06-28T11:33:40Z</time>
      </trkpt>
      <trkpt lat="40.995690000" lon="-5.817866667">
        <time>2022-06-28T11:33:41Z</time>
      </trkpt>
      <trkpt lat="40.995680000" lon="-5.817785000">
        <time>2022-06-28T11:33:42Z</time>
      </trkpt>
      <trkpt lat="40.995671667" lon="-5.817701667">
        <time>2022-06-28T11:33:43Z</time>
      </trkpt>
      <trkpt lat="40.995661667" lon="-5.817618333">
        <time>2022-06-28T11:33:44Z</time>
      </trkpt>
      <trkpt lat="40.995653333" lon="-5.817535000">
        <time>2022-06-28T11:33:45Z</time>
      </trkpt>
      <trkpt lat="40.995643333" lon="-5.817453333">
        <time>2022-06-28T11:33:46Z</time>
      </trkpt>
      <trkpt lat="40.995633333" lon="-5.817370000">
        <time>2022-06-28T11:33:47Z</time>
      </trkpt>
      <trkpt lat="40.995623333" lon="-5.817288333">
        <time>2022-06-28T11:33:48Z</time>
      </trkpt>
      <trkpt lat="40.995613333" lon="-5.817206667">
        <time>2022-06-28T11:33:49Z</time>
      </trkpt>
      <trkpt lat="40.995603333" lon="-5.817125000">
        <time>2022-06-28T11:33:50Z</time>
      </trkpt>
      <trkpt lat="40.995595000" lon="-5.817043333">
        <time>2022-06-28T11:33:51Z</time>
      </trkpt>
      <trkpt lat="40.995585000" lon="-5.816961667">
        <time>2022-06-28T11:33:52Z</time>
      </trkpt>
      <trkpt lat="40.995576667" lon="-5.816881667">
        <time>2022-06-28T11:33:53Z</time>
      </trkpt>
      <trkpt lat="40.995566667" lon="-5.816801667">
        <time>2022-06-28T11:33:54Z</time>
      </trkpt>
      <trkpt lat="40.995558333" lon="-5.816723333">
        <time>2022-06-28T11:33:55Z</time>
      </trkpt>
      <trkpt lat="40.995550000" lon="-5.816643333">
        <time>2022-06-28T11:33:56Z</time>
      </trkpt>
      <trkpt lat="40.995540000" lon="-5.816565000">
        <time>2022-06-28T11:33:57Z</time>
      </trkpt>
      <trkpt lat="40.995531667" lon="-5.816485000">
        <time>2022-06-28T11:33:58Z</time>
      </trkpt>
      <trkpt lat="40.995523333" lon="-5.816405000">
        <time>2022-06-28T11:33:59Z</time>
      </trkpt>
      <trkpt lat="40.995513333" lon="-5.816323333">
        <time>2022-06-28T11:34:00Z</time>
      </trkpt>
      <trkpt lat="40.995503333" lon="-5.816243333">
        <time>2022-06-28T11:34:01Z</time>
      </trkpt>
      <trkpt lat="40.995495000" lon="-5.816161667">
        <time>2022-06-28T11:34:02Z</time>
      </trkpt>
      <trkpt lat="40.995485000" lon="-5.816080000">
        <time>2022-06-28T11:34:03Z</time>
      </trkpt>
      <trkpt lat="40.995475000" lon="-5.815996667">
        <time>2022-06-28T11:34:04Z</time>
      </trkpt>
      <trkpt lat="40.995466667" lon="-5.815913333">
        <time>2022-06-28T11:34:05Z</time>
      </trkpt>
      <trkpt lat="40.995456667" lon="-5.815828333">
        <time>2022-06-28T11:34:06Z</time>
      </trkpt>
      <trkpt lat="40.995448333" lon="-5.815743333">
        <time>2022-06-28T11:34:07Z</time>
      </trkpt>
      <trkpt lat="40.995438333" lon="-5.815656667">
        <time>2022-06-28T11:34:08Z</time>
      </trkpt>
      <trkpt lat="40.995428333" lon="-5.815568333">
        <time>2022-06-28T11:34:09Z</time>
      </trkpt>
      <trkpt lat="40.995418333" lon="-5.815478333">
        <time>2022-06-28T11:34:10Z</time>
      </trkpt>
      <trkpt lat="40.995408333" lon="-5.815386667">
        <time>2022-06-28T11:34:11Z</time>
      </trkpt>
      <trkpt lat="40.995393333" lon="-5.815295000">
        <time>2022-06-28T11:34:12Z</time>
      </trkpt>
      <trkpt lat="40.995381667" lon="-5.815200000">
        <time>2022-06-28T11:34:13Z</time>
      </trkpt>
      <trkpt lat="40.995371667" lon="-5.815103333">
        <time>2022-06-28T11:34:14Z</time>
      </trkpt>
      <trkpt lat="40.995360000" lon="-5.815003333">
        <time>2022-06-28T11:34:15Z</time>
      </trkpt>
      <trkpt lat="40.995348333" lon="-5.814903333">
        <time>2022-06-28T11:34:16Z</time>
      </trkpt>
      <trkpt lat="40.995336667" lon="-5.814801667">
        <time>2022-06-28T11:34:17Z</time>
      </trkpt>
      <trkpt lat="40.995326667" lon="-5.814698333">
        <time>2022-06-28T11:34:18Z</time>
      </trkpt>
      <trkpt lat="40.995315000" lon="-5.814595000">
        <time>2022-06-28T11:34:19Z</time>
      </trkpt>
      <trkpt lat="40.995303333" lon="-5.814490000">
        <time>2022-06-28T11:34:20Z</time>
      </trkpt>
      <trkpt lat="40.995291667" lon="-5.814385000">
        <time>2022-06-28T11:34:21Z</time>
      </trkpt>
      <trkpt lat="40.995280000" lon="-5.814278333">
        <time>2022-06-28T11:34:22Z</time>
      </trkpt>
      <trkpt lat="40.995268333" lon="-5.814173333">
        <time>2022-06-28T11:34:23Z</time>
      </trkpt>
      <trkpt lat="40.995256667" lon="-5.814068333">
        <time>2022-06-28T11:34:24Z</time>
      </trkpt>
      <trkpt lat="40.995245000" lon="-5.813963333">
        <time>2022-06-28T11:34:25Z</time>
      </trkpt>
      <trkpt lat="40.995231667" lon="-5.813861667">
        <time>2022-06-28T11:34:26Z</time>
      </trkpt>
      <trkpt lat="40.995220000" lon="-5.813760000">
        <time>2022-06-28T11:34:27Z</time>
      </trkpt>
      <trkpt lat="40.995208333" lon="-5.813660000">
        <time>2022-06-28T11:34:28Z</time>
      </trkpt>
      <trkpt lat="40.995196667" lon="-5.813561667">
        <time>2022-06-28T11:34:29Z</time>
      </trkpt>
      <trkpt lat="40.995185000" lon="-5.813463333">
        <time>2022-06-28T11:34:30Z</time>
      </trkpt>
      <trkpt lat="40.995173333" lon="-5.813366667">
        <time>2022-06-28T11:34:31Z</time>
      </trkpt>
      <trkpt lat="40.995161667" lon="-5.813273333">
        <time>2022-06-28T11:34:32Z</time>
      </trkpt>
      <trkpt lat="40.995150000" lon="-5.813183333">
        <time>2022-06-28T11:34:33Z</time>
      </trkpt>
      <trkpt lat="40.995140000" lon="-5.813093333">
        <time>2022-06-28T11:34:34Z</time>
      </trkpt>
      <trkpt lat="40.995130000" lon="-5.813006667">
        <time>2022-06-28T11:34:35Z</time>
      </trkpt>
      <trkpt lat="40.995118333" lon="-5.812920000">
        <time>2022-06-28T11:34:36Z</time>
      </trkpt>
      <trkpt lat="40.995110000" lon="-5.812835000">
        <time>2022-06-28T11:34:37Z</time>
      </trkpt>
      <trkpt lat="40.995100000" lon="-5.812751667">
        <time>2022-06-28T11:34:38Z</time>
      </trkpt>
      <trkpt lat="40.995090000" lon="-5.812666667">
        <time>2022-06-28T11:34:39Z</time>
      </trkpt>
      <trkpt lat="40.995080000" lon="-5.812580000">
        <time>2022-06-28T11:34:40Z</time>
      </trkpt>
      <trkpt lat="40.995070000" lon="-5.812495000">
        <time>2022-06-28T11:34:41Z</time>
      </trkpt>
      <trkpt lat="40.995060000" lon="-5.812408333">
        <time>2022-06-28T11:34:42Z</time>
      </trkpt>
      <trkpt lat="40.995050000" lon="-5.812321667">
        <time>2022-06-28T11:34:43Z</time>
      </trkpt>
      <trkpt lat="40.995040000" lon="-5.812233333">
        <time>2022-06-28T11:34:44Z</time>
      </trkpt>
      <trkpt lat="40.995030000" lon="-5.812143333">
        <time>2022-06-28T11:34:45Z</time>
      </trkpt>
      <trkpt lat="40.995020000" lon="-5.812053333">
        <time>2022-06-28T11:34:46Z</time>
      </trkpt>
      <trkpt lat="40.995010000" lon="-5.811961667">
        <time>2022-06-28T11:34:47Z</time>
      </trkpt>
      <trkpt lat="40.995000000" lon="-5.811870000">
        <time>2022-06-28T11:34:48Z</time>
      </trkpt>
      <trkpt lat="40.994990000" lon="-5.811778333">
        <time>2022-06-28T11:34:49Z</time>
      </trkpt>
      <trkpt lat="40.994978333" lon="-5.811688333">
        <time>2022-06-28T11:34:50Z</time>
      </trkpt>
      <trkpt lat="40.994966667" lon="-5.811598333">
        <time>2022-06-28T11:34:51Z</time>
      </trkpt>
      <trkpt lat="40.994956667" lon="-5.811510000">
        <time>2022-06-28T11:34:52Z</time>
      </trkpt>
      <trkpt lat="40.994948333" lon="-5.811421667">
        <time>2022-06-28T11:34:53Z</time>
      </trkpt>
      <trkpt lat="40.994936667" lon="-5.811335000">
        <time>2022-06-28T11:34:54Z</time>
      </trkpt>
      <trkpt lat="40.994926667" lon="-5.811248333">
        <time>2022-06-28T11:34:55Z</time>
      </trkpt>
      <trkpt lat="40.994916667" lon="-5.811161667">
        <time>2022-06-28T11:34:56Z</time>
      </trkpt>
      <trkpt lat="40.994906667" lon="-5.811075000">
        <time>2022-06-28T11:34:57Z</time>
      </trkpt>
      <trkpt lat="40.994896667" lon="-5.810990000">
        <time>2022-06-28T11:34:58Z</time>
      </trkpt>
      <trkpt lat="40.994886667" lon="-5.810905000">
        <time>2022-06-28T11:34:59Z</time>
      </trkpt>
      <trkpt lat="40.994876667" lon="-5.810823333">
        <time>2022-06-28T11:35:00Z</time>
      </trkpt>
      <trkpt lat="40.994865000" lon="-5.810740000">
        <time>2022-06-28T11:35:01Z</time>
      </trkpt>
      <trkpt lat="40.994855000" lon="-5.810658333">
        <time>2022-06-28T11:35:02Z</time>
      </trkpt>
      <trkpt lat="40.994846667" lon="-5.810576667">
        <time>2022-06-28T11:35:03Z</time>
      </trkpt>
      <trkpt lat="40.994836667" lon="-5.810496667">
        <time>2022-06-28T11:35:04Z</time>
      </trkpt>
      <trkpt lat="40.994828333" lon="-5.810415000">
        <time>2022-06-28T11:35:05Z</time>
      </trkpt>
      <trkpt lat="40.994818333" lon="-5.810333333">
        <time>2022-06-28T11:35:06Z</time>
      </trkpt>
      <trkpt lat="40.994806667" lon="-5.810251667">
        <time>2022-06-28T11:35:07Z</time>
      </trkpt>
      <trkpt lat="40.994796667" lon="-5.810168333">
        <time>2022-06-28T11:35:08Z</time>
      </trkpt>
      <trkpt lat="40.994785000" lon="-5.810083333">
        <time>2022-06-28T11:35:09Z</time>
      </trkpt>
      <trkpt lat="40.994773333" lon="-5.809998333">
        <time>2022-06-28T11:35:10Z</time>
      </trkpt>
      <trkpt lat="40.994760000" lon="-5.809910000">
        <time>2022-06-28T11:35:11Z</time>
      </trkpt>
      <trkpt lat="40.994743333" lon="-5.809823333">
        <time>2022-06-28T11:35:12Z</time>
      </trkpt>
      <trkpt lat="40.994721667" lon="-5.809735000">
        <time>2022-06-28T11:35:13Z</time>
      </trkpt>
      <trkpt lat="40.994698333" lon="-5.809646667">
        <time>2022-06-28T11:35:14Z</time>
      </trkpt>
      <trkpt lat="40.994670000" lon="-5.809560000">
        <time>2022-06-28T11:35:15Z</time>
      </trkpt>
      <trkpt lat="40.994638333" lon="-5.809471667">
        <time>2022-06-28T11:35:16Z</time>
      </trkpt>
      <trkpt lat="40.994601667" lon="-5.809385000">
        <time>2022-06-28T11:35:17Z</time>
      </trkpt>
      <trkpt lat="40.994563333" lon="-5.809300000">
        <time>2022-06-28T11:35:18Z</time>
      </trkpt>
      <trkpt lat="40.994523333" lon="-5.809215000">
        <time>2022-06-28T11:35:19Z</time>
      </trkpt>
      <trkpt lat="40.994478333" lon="-5.809135000">
        <time>2022-06-28T11:35:20Z</time>
      </trkpt>
      <trkpt lat="40.994435000" lon="-5.809055000">
        <time>2022-06-28T11:35:21Z</time>
      </trkpt>
      <trkpt lat="40.994390000" lon="-5.808976667">
        <time>2022-06-28T11:35:22Z</time>
      </trkpt>
      <trkpt lat="40.994345000" lon="-5.808898333">
        <time>2022-06-28T11:35:23Z</time>
      </trkpt>
      <trkpt lat="40.994300000" lon="-5.808821667">
        <time>2022-06-28T11:35:24Z</time>
      </trkpt>
      <trkpt lat="40.994253333" lon="-5.808746667">
        <time>2022-06-28T11:35:25Z</time>
      </trkpt>
      <trkpt lat="40.994208333" lon="-5.808673333">
        <time>2022-06-28T11:35:26Z</time>
      </trkpt>
      <trkpt lat="40.994163333" lon="-5.808601667">
        <time>2022-06-28T11:35:27Z</time>
      </trkpt>
      <trkpt lat="40.994120000" lon="-5.808530000">
        <time>2022-06-28T11:35:28Z</time>
      </trkpt>
      <trkpt lat="40.994075000" lon="-5.808460000">
        <time>2022-06-28T11:35:29Z</time>
      </trkpt>
      <trkpt lat="40.994030000" lon="-5.808393333">
        <time>2022-06-28T11:35:30Z</time>
      </trkpt>
      <trkpt lat="40.993988333" lon="-5.808326667">
        <time>2022-06-28T11:35:31Z</time>
      </trkpt>
      <trkpt lat="40.993948333" lon="-5.808258333">
        <time>2022-06-28T11:35:32Z</time>
      </trkpt>
      <trkpt lat="40.993908333" lon="-5.808190000">
        <time>2022-06-28T11:35:33Z</time>
      </trkpt>
      <trkpt lat="40.993868333" lon="-5.808123333">
        <time>2022-06-28T11:35:34Z</time>
      </trkpt>
      <trkpt lat="40.993826667" lon="-5.808060000">
        <time>2022-06-28T11:35:35Z</time>
      </trkpt>
      <trkpt lat="40.993785000" lon="-5.807996667">
        <time>2022-06-28T11:35:36Z</time>
      </trkpt>
      <trkpt lat="40.993745000" lon="-5.807933333">
        <time>2022-06-28T11:35:37Z</time>
      </trkpt>
      <trkpt lat="40.993706667" lon="-5.807870000">
        <time>2022-06-28T11:35:38Z</time>
      </trkpt>
      <trkpt lat="40.993666667" lon="-5.807805000">
        <time>2022-06-28T11:35:39Z</time>
      </trkpt>
      <trkpt lat="40.993626667" lon="-5.807741667">
        <time>2022-06-28T11:35:40Z</time>
      </trkpt>
      <trkpt lat="40.993586667" lon="-5.807676667">
        <time>2022-06-28T11:35:41Z</time>
      </trkpt>
      <trkpt lat="40.993546667" lon="-5.807608333">
        <time>2022-06-28T11:35:42Z</time>
      </trkpt>
      <trkpt lat="40.993505000" lon="-5.807540000">
        <time>2022-06-28T11:35:43Z</time>
      </trkpt>
      <trkpt lat="40.993463333" lon="-5.807468333">
        <time>2022-06-28T11:35:44Z</time>
      </trkpt>
      <trkpt lat="40.993418333" lon="-5.807393333">
        <time>2022-06-28T11:35:45Z</time>
      </trkpt>
      <trkpt lat="40.993373333" lon="-5.807318333">
        <time>2022-06-28T11:35:46Z</time>
      </trkpt>
      <trkpt lat="40.993331667" lon="-5.807246667">
        <time>2022-06-28T11:35:47Z</time>
      </trkpt>
      <trkpt lat="40.993286667" lon="-5.807165000">
        <time>2022-06-28T11:35:48Z</time>
      </trkpt>
      <trkpt lat="40.993236667" lon="-5.807081667">
        <time>2022-06-28T11:35:49Z</time>
      </trkpt>
      <trkpt lat="40.993188333" lon="-5.806995000">
        <time>2022-06-28T11:35:50Z</time>
      </trkpt>
      <trkpt lat="40.993138333" lon="-5.806908333">
        <time>2022-06-28T11:35:51Z</time>
      </trkpt>
      <trkpt lat="40.993086667" lon="-5.806820000">
        <time>2022-06-28T11:35:52Z</time>
      </trkpt>
      <trkpt lat="40.993033333" lon="-5.806730000">
        <time>2022-06-28T11:35:53Z</time>
      </trkpt>
      <trkpt lat="40.992978333" lon="-5.806638333">
        <time>2022-06-28T11:35:54Z</time>
      </trkpt>
      <trkpt lat="40.992921667" lon="-5.806546667">
        <time>2022-06-28T11:35:55Z</time>
      </trkpt>
      <trkpt lat="40.992866667" lon="-5.806448333">
        <time>2022-06-28T11:35:56Z</time>
      </trkpt>
      <trkpt lat="40.992808333" lon="-5.806350000">
        <time>2022-06-28T11:35:57Z</time>
      </trkpt>
      <trkpt lat="40.992750000" lon="-5.806251667">
        <time>2022-06-28T11:35:58Z</time>
      </trkpt>
      <trkpt lat="40.992691667" lon="-5.806153333">
        <time>2022-06-28T11:35:59Z</time>
      </trkpt>
      <trkpt lat="40.992635000" lon="-5.806056667">
        <time>2022-06-28T11:36:00Z</time>
      </trkpt>
      <trkpt lat="40.992576667" lon="-5.805963333">
        <time>2022-06-28T11:36:01Z</time>
      </trkpt>
      <trkpt lat="40.992520000" lon="-5.805873333">
        <time>2022-06-28T11:36:02Z</time>
      </trkpt>
      <trkpt lat="40.992463333" lon="-5.805783333">
        <time>2022-06-28T11:36:03Z</time>
      </trkpt>
      <trkpt lat="40.992410000" lon="-5.805693333">
        <time>2022-06-28T11:36:04Z</time>
      </trkpt>
      <trkpt lat="40.992356667" lon="-5.805606667">
        <time>2022-06-28T11:36:05Z</time>
      </trkpt>
      <trkpt lat="40.992306667" lon="-5.805521667">
        <time>2022-06-28T11:36:06Z</time>
      </trkpt>
      <trkpt lat="40.992255000" lon="-5.805438333">
        <time>2022-06-28T11:36:07Z</time>
      </trkpt>
      <trkpt lat="40.992205000" lon="-5.805355000">
        <time>2022-06-28T11:36:08Z</time>
      </trkpt>
      <trkpt lat="40.992155000" lon="-5.805275000">
        <time>2022-06-28T11:36:09Z</time>
      </trkpt>
      <trkpt lat="40.992106667" lon="-5.805195000">
        <time>2022-06-28T11:36:10Z</time>
      </trkpt>
      <trkpt lat="40.992060000" lon="-5.805116667">
        <time>2022-06-28T11:36:11Z</time>
      </trkpt>
      <trkpt lat="40.992013333" lon="-5.805038333">
        <time>2022-06-28T11:36:12Z</time>
      </trkpt>
      <trkpt lat="40.991965000" lon="-5.804960000">
        <time>2022-06-28T11:36:13Z</time>
      </trkpt>
      <trkpt lat="40.991920000" lon="-5.804881667">
        <time>2022-06-28T11:36:14Z</time>
      </trkpt>
      <trkpt lat="40.991873333" lon="-5.804805000">
        <time>2022-06-28T11:36:15Z</time>
      </trkpt>
      <trkpt lat="40.991826667" lon="-5.804728333">
        <time>2022-06-28T11:36:16Z</time>
      </trkpt>
      <trkpt lat="40.991780000" lon="-5.804655000">
        <time>2022-06-28T11:36:17Z</time>
      </trkpt>
      <trkpt lat="40.991735000" lon="-5.804580000">
        <time>2022-06-28T11:36:18Z</time>
      </trkpt>
      <trkpt lat="40.991690000" lon="-5.804505000">
        <time>2022-06-28T11:36:19Z</time>
      </trkpt>
      <trkpt lat="40.991645000" lon="-5.804431667">
        <time>2022-06-28T11:36:20Z</time>
      </trkpt>
      <trkpt lat="40.991601667" lon="-5.804356667">
        <time>2022-06-28T11:36:21Z</time>
      </trkpt>
      <trkpt lat="40.991558333" lon="-5.804283333">
        <time>2022-06-28T11:36:22Z</time>
      </trkpt>
      <trkpt lat="40.991515000" lon="-5.804210000">
        <time>2022-06-28T11:36:23Z</time>
      </trkpt>
      <trkpt lat="40.991470000" lon="-5.804135000">
        <time>2022-06-28T11:36:24Z</time>
      </trkpt>
      <trkpt lat="40.991426667" lon="-5.804061667">
        <time>2022-06-28T11:36:25Z</time>
      </trkpt>
      <trkpt lat="40.991381667" lon="-5.803988333">
        <time>2022-06-28T11:36:26Z</time>
      </trkpt>
      <trkpt lat="40.991338333" lon="-5.803911667">
        <time>2022-06-28T11:36:27Z</time>
      </trkpt>
      <trkpt lat="40.991293333" lon="-5.803836667">
        <time>2022-06-28T11:36:28Z</time>
      </trkpt>
      <trkpt lat="40.991246667" lon="-5.803760000">
        <time>2022-06-28T11:36:29Z</time>
      </trkpt>
      <trkpt lat="40.991200000" lon="-5.803681667">
        <time>2022-06-28T11:36:30Z</time>
      </trkpt>
      <trkpt lat="40.991151667" lon="-5.803605000">
        <time>2022-06-28T11:36:31Z</time>
      </trkpt>
      <trkpt lat="40.991105000" lon="-5.803528333">
        <time>2022-06-28T11:36:32Z</time>
      </trkpt>
      <trkpt lat="40.991060000" lon="-5.803450000">
        <time>2022-06-28T11:36:33Z</time>
      </trkpt>
      <trkpt lat="40.991015000" lon="-5.803375000">
        <time>2022-06-28T11:36:34Z</time>
      </trkpt>
      <trkpt lat="40.990970000" lon="-5.803303333">
        <time>2022-06-28T11:36:35Z</time>
      </trkpt>
      <trkpt lat="40.990926667" lon="-5.803231667">
        <time>2022-06-28T11:36:36Z</time>
      </trkpt>
      <trkpt lat="40.990883333" lon="-5.803160000">
        <time>2022-06-28T11:36:37Z</time>
      </trkpt>
      <trkpt lat="40.990841667" lon="-5.803088333">
        <time>2022-06-28T11:36:38Z</time>
      </trkpt>
      <trkpt lat="40.990800000" lon="-5.803020000">
        <time>2022-06-28T11:36:39Z</time>
      </trkpt>
      <trkpt lat="40.990758333" lon="-5.802951667">
        <time>2022-06-28T11:36:40Z</time>
      </trkpt>
      <trkpt lat="40.990715000" lon="-5.802883333">
        <time>2022-06-28T11:36:41Z</time>
      </trkpt>
      <trkpt lat="40.990673333" lon="-5.802816667">
        <time>2022-06-28T11:36:42Z</time>
      </trkpt>
      <trkpt lat="40.990631667" lon="-5.802750000">
        <time>2022-06-28T11:36:43Z</time>
      </trkpt>
      <trkpt lat="40.990591667" lon="-5.802683333">
        <time>2022-06-28T11:36:44Z</time>
      </trkpt>
      <trkpt lat="40.990551667" lon="-5.802620000">
        <time>2022-06-28T11:36:45Z</time>
      </trkpt>
      <trkpt lat="40.990511667" lon="-5.802558333">
        <time>2022-06-28T11:36:46Z</time>
      </trkpt>
      <trkpt lat="40.990473333" lon="-5.802495000">
        <time>2022-06-28T11:36:47Z</time>
      </trkpt>
      <trkpt lat="40.990435000" lon="-5.802433333">
        <time>2022-06-28T11:36:48Z</time>
      </trkpt>
      <trkpt lat="40.990395000" lon="-5.802370000">
        <time>2022-06-28T11:36:49Z</time>
      </trkpt>
      <trkpt lat="40.990356667" lon="-5.802306667">
        <time>2022-06-28T11:36:50Z</time>
      </trkpt>
      <trkpt lat="40.990320000" lon="-5.802241667">
        <time>2022-06-28T11:36:51Z</time>
      </trkpt>
      <trkpt lat="40.990280000" lon="-5.802180000">
        <time>2022-06-28T11:36:52Z</time>
      </trkpt>
      <trkpt lat="40.990241667" lon="-5.802116667">
        <time>2022-06-28T11:36:53Z</time>
      </trkpt>
      <trkpt lat="40.990201667" lon="-5.802055000">
        <time>2022-06-28T11:36:54Z</time>
      </trkpt>
      <trkpt lat="40.990161667" lon="-5.801991667">
        <time>2022-06-28T11:36:55Z</time>
      </trkpt>
      <trkpt lat="40.990123333" lon="-5.801928333">
        <time>2022-06-28T11:36:56Z</time>
      </trkpt>
      <trkpt lat="40.990085000" lon="-5.801865000">
        <time>2022-06-28T11:36:57Z</time>
      </trkpt>
      <trkpt lat="40.990043333" lon="-5.801803333">
        <time>2022-06-28T11:36:58Z</time>
      </trkpt>
      <trkpt lat="40.990003333" lon="-5.801741667">
        <time>2022-06-28T11:36:59Z</time>
      </trkpt>
      <trkpt lat="40.989961667" lon="-5.801680000">
        <time>2022-06-28T11:37:00Z</time>
      </trkpt>
      <trkpt lat="40.989920000" lon="-5.801618333">
        <time>2022-06-28T11:37:01Z</time>
      </trkpt>
      <trkpt lat="40.989878333" lon="-5.801556667">
        <time>2022-06-28T11:37:02Z</time>
      </trkpt>
      <trkpt lat="40.989836667" lon="-5.801498333">
        <time>2022-06-28T11:37:03Z</time>
      </trkpt>
      <trkpt lat="40.989793333" lon="-5.801440000">
        <time>2022-06-28T11:37:04Z</time>
      </trkpt>
      <trkpt lat="40.989750000" lon="-5.801380000">
        <time>2022-06-28T11:37:05Z</time>
      </trkpt>
      <trkpt lat="40.989703333" lon="-5.801323333">
        <time>2022-06-28T11:37:06Z</time>
      </trkpt>
      <trkpt lat="40.989656667" lon="-5.801265000">
        <time>2022-06-28T11:37:07Z</time>
      </trkpt>
      <trkpt lat="40.989606667" lon="-5.801206667">
        <time>2022-06-28T11:37:08Z</time>
      </trkpt>
      <trkpt lat="40.989556667" lon="-5.801151667">
        <time>2022-06-28T11:37:09Z</time>
      </trkpt>
      <trkpt lat="40.989506667" lon="-5.801096667">
        <time>2022-06-28T11:37:10Z</time>
      </trkpt>
      <trkpt lat="40.989458333" lon="-5.801043333">
        <time>2022-06-28T11:37:11Z</time>
      </trkpt>
      <trkpt lat="40.989410000" lon="-5.800990000">
        <time>2022-06-28T11:37:12Z</time>
      </trkpt>
      <trkpt lat="40.989358333" lon="-5.800940000">
        <time>2022-06-28T11:37:13Z</time>
      </trkpt>
      <trkpt lat="40.989308333" lon="-5.800891667">
        <time>2022-06-28T11:37:14Z</time>
      </trkpt>
      <trkpt lat="40.989258333" lon="-5.800841667">
        <time>2022-06-28T11:37:15Z</time>
      </trkpt>
      <trkpt lat="40.989208333" lon="-5.800791667">
        <time>2022-06-28T11:37:16Z</time>
      </trkpt>
      <trkpt lat="40.989158333" lon="-5.800741667">
        <time>2022-06-28T11:37:17Z</time>
      </trkpt>
      <trkpt lat="40.989108333" lon="-5.800693333">
        <time>2022-06-28T11:37:18Z</time>
      </trkpt>
      <trkpt lat="40.989058333" lon="-5.800646667">
        <time>2022-06-28T11:37:19Z</time>
      </trkpt>
      <trkpt lat="40.989010000" lon="-5.800600000">
        <time>2022-06-28T11:37:20Z</time>
      </trkpt>
      <trkpt lat="40.988961667" lon="-5.800551667">
        <time>2022-06-28T11:37:21Z</time>
      </trkpt>
      <trkpt lat="40.988913333" lon="-5.800505000">
        <time>2022-06-28T11:37:22Z</time>
      </trkpt>
      <trkpt lat="40.988866667" lon="-5.800458333">
        <time>2022-06-28T11:37:23Z</time>
      </trkpt>
      <trkpt lat="40.988820000" lon="-5.800413333">
        <time>2022-06-28T11:37:24Z</time>
      </trkpt>
      <trkpt lat="40.988775000" lon="-5.800368333">
        <time>2022-06-28T11:37:25Z</time>
      </trkpt>
      <trkpt lat="40.988730000" lon="-5.800321667">
        <time>2022-06-28T11:37:26Z</time>
      </trkpt>
      <trkpt lat="40.988683333" lon="-5.800276667">
        <time>2022-06-28T11:37:27Z</time>
      </trkpt>
      <trkpt lat="40.988635000" lon="-5.800235000">
        <time>2022-06-28T11:37:28Z</time>
      </trkpt>
      <trkpt lat="40.988588333" lon="-5.800190000">
        <time>2022-06-28T11:37:29Z</time>
      </trkpt>
      <trkpt lat="40.988541667" lon="-5.800145000">
        <time>2022-06-28T11:37:30Z</time>
      </trkpt>
      <trkpt lat="40.988495000" lon="-5.800098333">
        <time>2022-06-28T11:37:31Z</time>
      </trkpt>
      <trkpt lat="40.988450000" lon="-5.800055000">
        <time>2022-06-28T11:37:32Z</time>
      </trkpt>
      <trkpt lat="40.988405000" lon="-5.800011667">
        <time>2022-06-28T11:37:33Z</time>
      </trkpt>
      <trkpt lat="40.988360000" lon="-5.799971667">
        <time>2022-06-28T11:37:34Z</time>
      </trkpt>
      <trkpt lat="40.988315000" lon="-5.799931667">
        <time>2022-06-28T11:37:35Z</time>
      </trkpt>
      <trkpt lat="40.988271667" lon="-5.799890000">
        <time>2022-06-28T11:37:36Z</time>
      </trkpt>
      <trkpt lat="40.988231667" lon="-5.799848333">
        <time>2022-06-28T11:37:37Z</time>
      </trkpt>
      <trkpt lat="40.988190000" lon="-5.799808333">
        <time>2022-06-28T11:37:38Z</time>
      </trkpt>
      <trkpt lat="40.988150000" lon="-5.799770000">
        <time>2022-06-28T11:37:39Z</time>
      </trkpt>
      <trkpt lat="40.988108333" lon="-5.799731667">
        <time>2022-06-28T11:37:40Z</time>
      </trkpt>
      <trkpt lat="40.988068333" lon="-5.799696667">
        <time>2022-06-28T11:37:41Z</time>
      </trkpt>
      <trkpt lat="40.988028333" lon="-5.799660000">
        <time>2022-06-28T11:37:42Z</time>
      </trkpt>
      <trkpt lat="40.987988333" lon="-5.799621667">
        <time>2022-06-28T11:37:43Z</time>
      </trkpt>
      <trkpt lat="40.987950000" lon="-5.799586667">
        <time>2022-06-28T11:37:44Z</time>
      </trkpt>
      <trkpt lat="40.987911667" lon="-5.799550000">
        <time>2022-06-28T11:37:45Z</time>
      </trkpt>
      <trkpt lat="40.987875000" lon="-5.799515000">
        <time>2022-06-28T11:37:46Z</time>
      </trkpt>
      <trkpt lat="40.987840000" lon="-5.799475000">
        <time>2022-06-28T11:37:47Z</time>
      </trkpt>
      <trkpt lat="40.987806667" lon="-5.799436667">
        <time>2022-06-28T11:37:48Z</time>
      </trkpt>
      <trkpt lat="40.987771667" lon="-5.799401667">
        <time>2022-06-28T11:37:49Z</time>
      </trkpt>
      <trkpt lat="40.987736667" lon="-5.799365000">
        <time>2022-06-28T11:37:50Z</time>
      </trkpt>
      <trkpt lat="40.987703333" lon="-5.799325000">
        <time>2022-06-28T11:37:51Z</time>
      </trkpt>
      <trkpt lat="40.987671667" lon="-5.799286667">
        <time>2022-06-28T11:37:52Z</time>
      </trkpt>
      <trkpt lat="40.987641667" lon="-5.799246667">
        <time>2022-06-28T11:37:53Z</time>
      </trkpt>
      <trkpt lat="40.987613333" lon="-5.799205000">
        <time>2022-06-28T11:37:54Z</time>
      </trkpt>
      <trkpt lat="40.987586667" lon="-5.799163333">
        <time>2022-06-28T11:37:55Z</time>
      </trkpt>
      <trkpt lat="40.987561667" lon="-5.799118333">
        <time>2022-06-28T11:37:56Z</time>
      </trkpt>
      <trkpt lat="40.987536667" lon="-5.799073333">
        <time>2022-06-28T11:37:57Z</time>
      </trkpt>
      <trkpt lat="40.987513333" lon="-5.799025000">
        <time>2022-06-28T11:37:58Z</time>
      </trkpt>
      <trkpt lat="40.987488333" lon="-5.798976667">
        <time>2022-06-28T11:37:59Z</time>
      </trkpt>
      <trkpt lat="40.987465000" lon="-5.798928333">
        <time>2022-06-28T11:38:00Z</time>
      </trkpt>
      <trkpt lat="40.987443333" lon="-5.798878333">
        <time>2022-06-28T11:38:01Z</time>
      </trkpt>
      <trkpt lat="40.987421667" lon="-5.798826667">
        <time>2022-06-28T11:38:02Z</time>
      </trkpt>
      <trkpt lat="40.987403333" lon="-5.798771667">
        <time>2022-06-28T11:38:03Z</time>
      </trkpt>
      <trkpt lat="40.987385000" lon="-5.798715000">
        <time>2022-06-28T11:38:04Z</time>
      </trkpt>
      <trkpt lat="40.987368333" lon="-5.798653333">
        <time>2022-06-28T11:38:05Z</time>
      </trkpt>
      <trkpt lat="40.987351667" lon="-5.798588333">
        <time>2022-06-28T11:38:06Z</time>
      </trkpt>
      <trkpt lat="40.987335000" lon="-5.798520000">
        <time>2022-06-28T11:38:07Z</time>
      </trkpt>
      <trkpt lat="40.987318333" lon="-5.798448333">
        <time>2022-06-28T11:38:08Z</time>
      </trkpt>
      <trkpt lat="40.987303333" lon="-5.798371667">
        <time>2022-06-28T11:38:09Z</time>
      </trkpt>
      <trkpt lat="40.987288333" lon="-5.798295000">
        <time>2022-06-28T11:38:10Z</time>
      </trkpt>
      <trkpt lat="40.987275000" lon="-5.798215000">
        <time>2022-06-28T11:38:11Z</time>
      </trkpt>
      <trkpt lat="40.987260000" lon="-5.798133333">
        <time>2022-06-28T11:38:12Z</time>
      </trkpt>
      <trkpt lat="40.987246667" lon="-5.798050000">
        <time>2022-06-28T11:38:13Z</time>
      </trkpt>
      <trkpt lat="40.987235000" lon="-5.797961667">
        <time>2022-06-28T11:38:14Z</time>
      </trkpt>
      <trkpt lat="40.987223333" lon="-5.797873333">
        <time>2022-06-28T11:38:15Z</time>
      </trkpt>
      <trkpt lat="40.987210000" lon="-5.797785000">
        <time>2022-06-28T11:38:16Z</time>
      </trkpt>
      <trkpt lat="40.987195000" lon="-5.797698333">
        <time>2022-06-28T11:38:17Z</time>
      </trkpt>
      <trkpt lat="40.987181667" lon="-5.797606667">
        <time>2022-06-28T11:38:18Z</time>
      </trkpt>
      <trkpt lat="40.987166667" lon="-5.797511667">
        <time>2022-06-28T11:38:19Z</time>
      </trkpt>
      <trkpt lat="40.987155000" lon="-5.797420000">
        <time>2022-06-28T11:38:20Z</time>
      </trkpt>
      <trkpt lat="40.987141667" lon="-5.797325000">
        <time>2022-06-28T11:38:21Z</time>
      </trkpt>
      <trkpt lat="40.987126667" lon="-5.797233333">
        <time>2022-06-28T11:38:22Z</time>
      </trkpt>
      <trkpt lat="40.987111667" lon="-5.797141667">
        <time>2022-06-28T11:38:23Z</time>
      </trkpt>
      <trkpt lat="40.987096667" lon="-5.797050000">
        <time>2022-06-28T11:38:24Z</time>
      </trkpt>
      <trkpt lat="40.987081667" lon="-5.796958333">
        <time>2022-06-28T11:38:25Z</time>
      </trkpt>
      <trkpt lat="40.987066667" lon="-5.796866667">
        <time>2022-06-28T11:38:26Z</time>
      </trkpt>
      <trkpt lat="40.987051667" lon="-5.796775000">
        <time>2022-06-28T11:38:27Z</time>
      </trkpt>
      <trkpt lat="40.987038333" lon="-5.796685000">
        <time>2022-06-28T11:38:28Z</time>
      </trkpt>
      <trkpt lat="40.987023333" lon="-5.796591667">
        <time>2022-06-28T11:38:29Z</time>
      </trkpt>
      <trkpt lat="40.987010000" lon="-5.796498333">
        <time>2022-06-28T11:38:30Z</time>
      </trkpt>
      <trkpt lat="40.986996667" lon="-5.796405000">
        <time>2022-06-28T11:38:31Z</time>
      </trkpt>
      <trkpt lat="40.986981667" lon="-5.796310000">
        <time>2022-06-28T11:38:32Z</time>
      </trkpt>
      <trkpt lat="40.986966667" lon="-5.796216667">
        <time>2022-06-28T11:38:33Z</time>
      </trkpt>
      <trkpt lat="40.986951667" lon="-5.796118333">
        <time>2022-06-28T11:38:34Z</time>
      </trkpt>
      <trkpt lat="40.986938333" lon="-5.796021667">
        <time>2022-06-28T11:38:35Z</time>
      </trkpt>
      <trkpt lat="40.986923333" lon="-5.795921667">
        <time>2022-06-28T11:38:36Z</time>
      </trkpt>
      <trkpt lat="40.986906667" lon="-5.795823333">
        <time>2022-06-28T11:38:37Z</time>
      </trkpt>
      <trkpt lat="40.986891667" lon="-5.795728333">
        <time>2022-06-28T11:38:38Z</time>
      </trkpt>
      <trkpt lat="40.986875000" lon="-5.795633333">
        <time>2022-06-28T11:38:39Z</time>
      </trkpt>
      <trkpt lat="40.986861667" lon="-5.795538333">
        <time>2022-06-28T11:38:40Z</time>
      </trkpt>
      <trkpt lat="40.986848333" lon="-5.795445000">
        <time>2022-06-28T11:38:41Z</time>
      </trkpt>
      <trkpt lat="40.986833333" lon="-5.795351667">
        <time>2022-06-28T11:38:42Z</time>
      </trkpt>
      <trkpt lat="40.986820000" lon="-5.795258333">
        <time>2022-06-28T11:38:43Z</time>
      </trkpt>
      <trkpt lat="40.986806667" lon="-5.795165000">
        <time>2022-06-28T11:38:44Z</time>
      </trkpt>
      <trkpt lat="40.986793333" lon="-5.795073333">
        <time>2022-06-28T11:38:45Z</time>
      </trkpt>
      <trkpt lat="40.986783333" lon="-5.794981667">
        <time>2022-06-28T11:38:46Z</time>
      </trkpt>
      <trkpt lat="40.986775000" lon="-5.794890000">
        <time>2022-06-28T11:38:47Z</time>
      </trkpt>
      <trkpt lat="40.986765000" lon="-5.794801667">
        <time>2022-06-28T11:38:48Z</time>
      </trkpt>
      <trkpt lat="40.986751667" lon="-5.794713333">
        <time>2022-06-28T11:38:49Z</time>
      </trkpt>
      <trkpt lat="40.986738333" lon="-5.794628333">
        <time>2022-06-28T11:38:50Z</time>
      </trkpt>
      <trkpt lat="40.986723333" lon="-5.794545000">
        <time>2022-06-28T11:38:51Z</time>
      </trkpt>
      <trkpt lat="40.986705000" lon="-5.794463333">
        <time>2022-06-28T11:38:52Z</time>
      </trkpt>
      <trkpt lat="40.986685000" lon="-5.794383333">
        <time>2022-06-28T11:38:53Z</time>
      </trkpt>
      <trkpt lat="40.986661667" lon="-5.794306667">
        <time>2022-06-28T11:38:54Z</time>
      </trkpt>
      <trkpt lat="40.986635000" lon="-5.794238333">
        <time>2022-06-28T11:38:55Z</time>
      </trkpt>
      <trkpt lat="40.986605000" lon="-5.794171667">
        <time>2022-06-28T11:38:56Z</time>
      </trkpt>
      <trkpt lat="40.986578333" lon="-5.794103333">
        <time>2022-06-28T11:38:57Z</time>
      </trkpt>
      <trkpt lat="40.986555000" lon="-5.794033333">
        <time>2022-06-28T11:38:58Z</time>
      </trkpt>
      <trkpt lat="40.986535000" lon="-5.793963333">
        <time>2022-06-28T11:38:59Z</time>
      </trkpt>
      <trkpt lat="40.986515000" lon="-5.793895000">
        <time>2022-06-28T11:39:00Z</time>
      </trkpt>
      <trkpt lat="40.986496667" lon="-5.793825000">
        <time>2022-06-28T11:39:01Z</time>
      </trkpt>
      <trkpt lat="40.986478333" lon="-5.793758333">
        <time>2022-06-28T11:39:02Z</time>
      </trkpt>
      <trkpt lat="40.986458333" lon="-5.793695000">
        <time>2022-06-28T11:39:03Z</time>
      </trkpt>
      <trkpt lat="40.986438333" lon="-5.793630000">
        <time>2022-06-28T11:39:04Z</time>
      </trkpt>
      <trkpt lat="40.986416667" lon="-5.793563333">
        <time>2022-06-28T11:39:05Z</time>
      </trkpt>
      <trkpt lat="40.986391667" lon="-5.793501667">
        <time>2022-06-28T11:39:06Z</time>
      </trkpt>
      <trkpt lat="40.986366667" lon="-5.793441667">
        <time>2022-06-28T11:39:07Z</time>
      </trkpt>
      <trkpt lat="40.986341667" lon="-5.793381667">
        <time>2022-06-28T11:39:08Z</time>
      </trkpt>
      <trkpt lat="40.986316667" lon="-5.793321667">
        <time>2022-06-28T11:39:09Z</time>
      </trkpt>
      <trkpt lat="40.986293333" lon="-5.793261667">
        <time>2022-06-28T11:39:10Z</time>
      </trkpt>
      <trkpt lat="40.986270000" lon="-5.793201667">
        <time>2022-06-28T11:39:11Z</time>
      </trkpt>
      <trkpt lat="40.986245000" lon="-5.793145000">
        <time>2022-06-28T11:39:12Z</time>
      </trkpt>
      <trkpt lat="40.986223333" lon="-5.793088333">
        <time>2022-06-28T11:39:13Z</time>
      </trkpt>
      <trkpt lat="40.986201667" lon="-5.793033333">
        <time>2022-06-28T11:39:14Z</time>
      </trkpt>
      <trkpt lat="40.986180000" lon="-5.792976667">
        <time>2022-06-28T11:39:15Z</time>
      </trkpt>
      <trkpt lat="40.986156667" lon="-5.792921667">
        <time>2022-06-28T11:39:16Z</time>
      </trkpt>
      <trkpt lat="40.986125000" lon="-5.792875000">
        <time>2022-06-28T11:39:17Z</time>
      </trkpt>
      <trkpt lat="40.986086667" lon="-5.792833333">
        <time>2022-06-28T11:39:18Z</time>
      </trkpt>
      <trkpt lat="40.986045000" lon="-5.792795000">
        <time>2022-06-28T11:39:19Z</time>
      </trkpt>
      <trkpt lat="40.986003333" lon="-5.792756667">
        <time>2022-06-28T11:39:20Z</time>
      </trkpt>
      <trkpt lat="40.985961667" lon="-5.792715000">
        <time>2022-06-28T11:39:21Z</time>
      </trkpt>
      <trkpt lat="40.985918333" lon="-5.792673333">
        <time>2022-06-28T11:39:22Z</time>
      </trkpt>
      <trkpt lat="40.985875000" lon="-5.792631667">
        <time>2022-06-28T11:39:23Z</time>
      </trkpt>
      <trkpt lat="40.985830000" lon="-5.792591667">
        <time>2022-06-28T11:39:24Z</time>
      </trkpt>
      <trkpt lat="40.985786667" lon="-5.792550000">
        <time>2022-06-28T11:39:25Z</time>
      </trkpt>
      <trkpt lat="40.985741667" lon="-5.792508333">
        <time>2022-06-28T11:39:26Z</time>
      </trkpt>
      <trkpt lat="40.985698333" lon="-5.792465000">
        <time>2022-06-28T11:39:27Z</time>
      </trkpt>
      <trkpt lat="40.985656667" lon="-5.792418333">
        <time>2022-06-28T11:39:28Z</time>
      </trkpt>
      <trkpt lat="40.985618333" lon="-5.792368333">
        <time>2022-06-28T11:39:29Z</time>
      </trkpt>
      <trkpt lat="40.985576667" lon="-5.792325000">
        <time>2022-06-28T11:39:30Z</time>
      </trkpt>
      <trkpt lat="40.985533333" lon="-5.792283333">
        <time>2022-06-28T11:39:31Z</time>
      </trkpt>
      <trkpt lat="40.985490000" lon="-5.792241667">
        <time>2022-06-28T11:39:32Z</time>
      </trkpt>
      <trkpt lat="40.985445000" lon="-5.792198333">
        <time>2022-06-28T11:39:33Z</time>
      </trkpt>
      <trkpt lat="40.985398333" lon="-5.792153333">
        <time>2022-06-28T11:39:34Z</time>
      </trkpt>
      <trkpt lat="40.985350000" lon="-5.792108333">
        <time>2022-06-28T11:39:35Z</time>
      </trkpt>
      <trkpt lat="40.985301667" lon="-5.792063333">
        <time>2022-06-28T11:39:36Z</time>
      </trkpt>
      <trkpt lat="40.985251667" lon="-5.792020000">
        <time>2022-06-28T11:39:37Z</time>
      </trkpt>
      <trkpt lat="40.985205000" lon="-5.791973333">
        <time>2022-06-28T11:39:38Z</time>
      </trkpt>
      <trkpt lat="40.985156667" lon="-5.791926667">
        <time>2022-06-28T11:39:39Z</time>
      </trkpt>
      <trkpt lat="40.985110000" lon="-5.791880000">
        <time>2022-06-28T11:39:40Z</time>
      </trkpt>
      <trkpt lat="40.985061667" lon="-5.791833333">
        <time>2022-06-28T11:39:41Z</time>
      </trkpt>
      <trkpt lat="40.985013333" lon="-5.791785000">
        <time>2022-06-28T11:39:42Z</time>
      </trkpt>
      <trkpt lat="40.984965000" lon="-5.791736667">
        <time>2022-06-28T11:39:43Z</time>
      </trkpt>
      <trkpt lat="40.984918333" lon="-5.791688333">
        <time>2022-06-28T11:39:44Z</time>
      </trkpt>
      <trkpt lat="40.984870000" lon="-5.791640000">
        <time>2022-06-28T11:39:45Z</time>
      </trkpt>
      <trkpt lat="40.984821667" lon="-5.791591667">
        <time>2022-06-28T11:39:46Z</time>
      </trkpt>
      <trkpt lat="40.984771667" lon="-5.791546667">
        <time>2022-06-28T11:39:47Z</time>
      </trkpt>
      <trkpt lat="40.984720000" lon="-5.791501667">
        <time>2022-06-28T11:39:48Z</time>
      </trkpt>
      <trkpt lat="40.984666667" lon="-5.791461667">
        <time>2022-06-28T11:39:49Z</time>
      </trkpt>
      <trkpt lat="40.984611667" lon="-5.791425000">
        <time>2022-06-28T11:39:50Z</time>
      </trkpt>
      <trkpt lat="40.984553333" lon="-5.791393333">
        <time>2022-06-28T11:39:51Z</time>
      </trkpt>
      <trkpt lat="40.984495000" lon="-5.791365000">
        <time>2022-06-28T11:39:52Z</time>
      </trkpt>
      <trkpt lat="40.984435000" lon="-5.791338333">
        <time>2022-06-28T11:39:53Z</time>
      </trkpt>
      <trkpt lat="40.984373333" lon="-5.791313333">
        <time>2022-06-28T11:39:54Z</time>
      </trkpt>
      <trkpt lat="40.984313333" lon="-5.791288333">
        <time>2022-06-28T11:39:55Z</time>
      </trkpt>
      <trkpt lat="40.984251667" lon="-5.791263333">
        <time>2022-06-28T11:39:56Z</time>
      </trkpt>
      <trkpt lat="40.984190000" lon="-5.791236667">
        <time>2022-06-28T11:39:57Z</time>
      </trkpt>
      <trkpt lat="40.984130000" lon="-5.791210000">
        <time>2022-06-28T11:39:58Z</time>
      </trkpt>
      <trkpt lat="40.984068333" lon="-5.791183333">
        <time>2022-06-28T11:39:59Z</time>
      </trkpt>
      <trkpt lat="40.984006667" lon="-5.791160000">
        <time>2022-06-28T11:40:00Z</time>
      </trkpt>
      <trkpt lat="40.983945000" lon="-5.791135000">
        <time>2022-06-28T11:40:01Z</time>
      </trkpt>
      <trkpt lat="40.983883333" lon="-5.791111667">
        <time>2022-06-28T11:40:02Z</time>
      </trkpt>
      <trkpt lat="40.983821667" lon="-5.791088333">
        <time>2022-06-28T11:40:03Z</time>
      </trkpt>
      <trkpt lat="40.983761667" lon="-5.791065000">
        <time>2022-06-28T11:40:04Z</time>
      </trkpt>
      <trkpt lat="40.983701667" lon="-5.791041667">
        <time>2022-06-28T11:40:05Z</time>
      </trkpt>
      <trkpt lat="40.983640000" lon="-5.791016667">
        <time>2022-06-28T11:40:06Z</time>
      </trkpt>
      <trkpt lat="40.983580000" lon="-5.790993333">
        <time>2022-06-28T11:40:07Z</time>
      </trkpt>
      <trkpt lat="40.983520000" lon="-5.790970000">
        <time>2022-06-28T11:40:08Z</time>
      </trkpt>
      <trkpt lat="40.983458333" lon="-5.790948333">
        <time>2022-06-28T11:40:09Z</time>
      </trkpt>
      <trkpt lat="40.983396667" lon="-5.790925000">
        <time>2022-06-28T11:40:10Z</time>
      </trkpt>
      <trkpt lat="40.983336667" lon="-5.790901667">
        <time>2022-06-28T11:40:11Z</time>
      </trkpt>
      <trkpt lat="40.983275000" lon="-5.790878333">
        <time>2022-06-28T11:40:12Z</time>
      </trkpt>
      <trkpt lat="40.983213333" lon="-5.790853333">
        <time>2022-06-28T11:40:13Z</time>
      </trkpt>
      <trkpt lat="40.983151667" lon="-5.790830000">
        <time>2022-06-28T11:40:14Z</time>
      </trkpt>
      <trkpt lat="40.983090000" lon="-5.790803333">
        <time>2022-06-28T11:40:15Z</time>
      </trkpt>
      <trkpt lat="40.983025000" lon="-5.790780000">
        <time>2022-06-28T11:40:16Z</time>
      </trkpt>
      <trkpt lat="40.982958333" lon="-5.790756667">
        <time>2022-06-28T11:40:17Z</time>
      </trkpt>
      <trkpt lat="40.982891667" lon="-5.790731667">
        <time>2022-06-28T11:40:18Z</time>
      </trkpt>
      <trkpt lat="40.982825000" lon="-5.790708333">
        <time>2022-06-28T11:40:19Z</time>
      </trkpt>
      <trkpt lat="40.982758333" lon="-5.790686667">
        <time>2022-06-28T11:40:20Z</time>
      </trkpt>
      <trkpt lat="40.982690000" lon="-5.790665000">
        <time>2022-06-28T11:40:21Z</time>
      </trkpt>
      <trkpt lat="40.982621667" lon="-5.790643333">
        <time>2022-06-28T11:40:22Z</time>
      </trkpt>
      <trkpt lat="40.982551667" lon="-5.790621667">
        <time>2022-06-28T11:40:23Z</time>
      </trkpt>
      <trkpt lat="40.982480000" lon="-5.790600000">
        <time>2022-06-28T11:40:24Z</time>
      </trkpt>
      <trkpt lat="40.982410000" lon="-5.790578333">
        <time>2022-06-28T11:40:25Z</time>
      </trkpt>
      <trkpt lat="40.982338333" lon="-5.790556667">
        <time>2022-06-28T11:40:26Z</time>
      </trkpt>
      <trkpt lat="40.982268333" lon="-5.790535000">
        <time>2022-06-28T11:40:27Z</time>
      </trkpt>
      <trkpt lat="40.982200000" lon="-5.790516667">
        <time>2022-06-28T11:40:28Z</time>
      </trkpt>
      <trkpt lat="40.982130000" lon="-5.790493333">
        <time>2022-06-28T11:40:29Z</time>
      </trkpt>
      <trkpt lat="40.982060000" lon="-5.790470000">
        <time>2022-06-28T11:40:30Z</time>
      </trkpt>
      <trkpt lat="40.981990000" lon="-5.790448333">
        <time>2022-06-28T11:40:31Z</time>
      </trkpt>
      <trkpt lat="40.981918333" lon="-5.790428333">
        <time>2022-06-28T11:40:32Z</time>
      </trkpt>
      <trkpt lat="40.981845000" lon="-5.790406667">
        <time>2022-06-28T11:40:33Z</time>
      </trkpt>
      <trkpt lat="40.981771667" lon="-5.790385000">
        <time>2022-06-28T11:40:34Z</time>
      </trkpt>
      <trkpt lat="40.981698333" lon="-5.790363333">
        <time>2022-06-28T11:40:35Z</time>
      </trkpt>
      <trkpt lat="40.981625000" lon="-5.790341667">
        <time>2022-06-28T11:40:36Z</time>
      </trkpt>
      <trkpt lat="40.981550000" lon="-5.790318333">
        <time>2022-06-28T11:40:37Z</time>
      </trkpt>
      <trkpt lat="40.981476667" lon="-5.790296667">
        <time>2022-06-28T11:40:38Z</time>
      </trkpt>
      <trkpt lat="40.981403333" lon="-5.790275000">
        <time>2022-06-28T11:40:39Z</time>
      </trkpt>
      <trkpt lat="40.981328333" lon="-5.790253333">
        <time>2022-06-28T11:40:40Z</time>
      </trkpt>
      <trkpt lat="40.981253333" lon="-5.790230000">
        <time>2022-06-28T11:40:41Z</time>
      </trkpt>
      <trkpt lat="40.981178333" lon="-5.790208333">
        <time>2022-06-28T11:40:42Z</time>
      </trkpt>
      <trkpt lat="40.981103333" lon="-5.790190000">
        <time>2022-06-28T11:40:43Z</time>
      </trkpt>
      <trkpt lat="40.981028333" lon="-5.790170000">
        <time>2022-06-28T11:40:44Z</time>
      </trkpt>
      <trkpt lat="40.980953333" lon="-5.790151667">
        <time>2022-06-28T11:40:45Z</time>
      </trkpt>
      <trkpt lat="40.980878333" lon="-5.790135000">
        <time>2022-06-28T11:40:46Z</time>
      </trkpt>
      <trkpt lat="40.980803333" lon="-5.790118333">
        <time>2022-06-28T11:40:47Z</time>
      </trkpt>
      <trkpt lat="40.980726667" lon="-5.790103333">
        <time>2022-06-28T11:40:48Z</time>
      </trkpt>
      <trkpt lat="40.980651667" lon="-5.790085000">
        <time>2022-06-28T11:40:49Z</time>
      </trkpt>
      <trkpt lat="40.980576667" lon="-5.790068333">
        <time>2022-06-28T11:40:50Z</time>
      </trkpt>
      <trkpt lat="40.980501667" lon="-5.790050000">
        <time>2022-06-28T11:40:51Z</time>
      </trkpt>
      <trkpt lat="40.980426667" lon="-5.790033333">
        <time>2022-06-28T11:40:52Z</time>
      </trkpt>
      <trkpt lat="40.980351667" lon="-5.790016667">
        <time>2022-06-28T11:40:53Z</time>
      </trkpt>
      <trkpt lat="40.980275000" lon="-5.789998333">
        <time>2022-06-28T11:40:54Z</time>
      </trkpt>
      <trkpt lat="40.980200000" lon="-5.789980000">
        <time>2022-06-28T11:40:55Z</time>
      </trkpt>
      <trkpt lat="40.980125000" lon="-5.789960000">
        <time>2022-06-28T11:40:56Z</time>
      </trkpt>
      <trkpt lat="40.980050000" lon="-5.789941667">
        <time>2022-06-28T11:40:57Z</time>
      </trkpt>
      <trkpt lat="40.979976667" lon="-5.789925000">
        <time>2022-06-28T11:40:58Z</time>
      </trkpt>
      <trkpt lat="40.979903333" lon="-5.789908333">
        <time>2022-06-28T11:40:59Z</time>
      </trkpt>
      <trkpt lat="40.979830000" lon="-5.789890000">
        <time>2022-06-28T11:41:00Z</time>
      </trkpt>
      <trkpt lat="40.979758333" lon="-5.789873333">
        <time>2022-06-28T11:41:01Z</time>
      </trkpt>
      <trkpt lat="40.979688333" lon="-5.789855000">
        <time>2022-06-28T11:41:02Z</time>
      </trkpt>
      <trkpt lat="40.979618333" lon="-5.789835000">
        <time>2022-06-28T11:41:03Z</time>
      </trkpt>
      <trkpt lat="40.979550000" lon="-5.789813333">
        <time>2022-06-28T11:41:04Z</time>
      </trkpt>
      <trkpt lat="40.979478333" lon="-5.789788333">
        <time>2022-06-28T11:41:05Z</time>
      </trkpt>
      <trkpt lat="40.979413333" lon="-5.789765000">
        <time>2022-06-28T11:41:06Z</time>
      </trkpt>
      <trkpt lat="40.979343333" lon="-5.789745000">
        <time>2022-06-28T11:41:07Z</time>
      </trkpt>
      <trkpt lat="40.979275000" lon="-5.789723333">
        <time>2022-06-28T11:41:08Z</time>
      </trkpt>
      <trkpt lat="40.979203333" lon="-5.789701667">
        <time>2022-06-28T11:41:09Z</time>
      </trkpt>
      <trkpt lat="40.979135000" lon="-5.789681667">
        <time>2022-06-28T11:41:10Z</time>
      </trkpt>
      <trkpt lat="40.979068333" lon="-5.789661667">
        <time>2022-06-28T11:41:11Z</time>
      </trkpt>
      <trkpt lat="40.978998333" lon="-5.789640000">
        <time>2022-06-28T11:41:12Z</time>
      </trkpt>
      <trkpt lat="40.978930000" lon="-5.789620000">
        <time>2022-06-28T11:41:13Z</time>
      </trkpt>
      <trkpt lat="40.978861667" lon="-5.789598333">
        <time>2022-06-28T11:41:14Z</time>
      </trkpt>
      <trkpt lat="40.978793333" lon="-5.789571667">
        <time>2022-06-28T11:41:15Z</time>
      </trkpt>
      <trkpt lat="40.978725000" lon="-5.789545000">
        <time>2022-06-28T11:41:16Z</time>
      </trkpt>
      <trkpt lat="40.978656667" lon="-5.789515000">
        <time>2022-06-28T11:41:17Z</time>
      </trkpt>
      <trkpt lat="40.978588333" lon="-5.789486667">
        <time>2022-06-28T11:41:18Z</time>
      </trkpt>
      <trkpt lat="40.978521667" lon="-5.789456667">
        <time>2022-06-28T11:41:19Z</time>
      </trkpt>
      <trkpt lat="40.978451667" lon="-5.789425000">
        <time>2022-06-28T11:41:20Z</time>
      </trkpt>
      <trkpt lat="40.978381667" lon="-5.789393333">
        <time>2022-06-28T11:41:21Z</time>
      </trkpt>
      <trkpt lat="40.978311667" lon="-5.789363333">
        <time>2022-06-28T11:41:22Z</time>
      </trkpt>
      <trkpt lat="40.978241667" lon="-5.789333333">
        <time>2022-06-28T11:41:23Z</time>
      </trkpt>
      <trkpt lat="40.978171667" lon="-5.789301667">
        <time>2022-06-28T11:41:24Z</time>
      </trkpt>
      <trkpt lat="40.978103333" lon="-5.789270000">
        <time>2022-06-28T11:41:25Z</time>
      </trkpt>
      <trkpt lat="40.978033333" lon="-5.789240000">
        <time>2022-06-28T11:41:26Z</time>
      </trkpt>
      <trkpt lat="40.977966667" lon="-5.789208333">
        <time>2022-06-28T11:41:27Z</time>
      </trkpt>
      <trkpt lat="40.977898333" lon="-5.789178333">
        <time>2022-06-28T11:41:28Z</time>
      </trkpt>
      <trkpt lat="40.977833333" lon="-5.789145000">
        <time>2022-06-28T11:41:29Z</time>
      </trkpt>
      <trkpt lat="40.977768333" lon="-5.789113333">
        <time>2022-06-28T11:41:30Z</time>
      </trkpt>
      <trkpt lat="40.977705000" lon="-5.789080000">
        <time>2022-06-28T11:41:31Z</time>
      </trkpt>
      <trkpt lat="40.977643333" lon="-5.789045000">
        <time>2022-06-28T11:41:32Z</time>
      </trkpt>
      <trkpt lat="40.977583333" lon="-5.789006667">
        <time>2022-06-28T11:41:33Z</time>
      </trkpt>
      <trkpt lat="40.977526667" lon="-5.788963333">
        <time>2022-06-28T11:41:34Z</time>
      </trkpt>
      <trkpt lat="40.977471667" lon="-5.788916667">
        <time>2022-06-28T11:41:35Z</time>
      </trkpt>
      <trkpt lat="40.977420000" lon="-5.788866667">
        <time>2022-06-28T11:41:36Z</time>
      </trkpt>
      <trkpt lat="40.977366667" lon="-5.788815000">
        <time>2022-06-28T11:41:37Z</time>
      </trkpt>
      <trkpt lat="40.977316667" lon="-5.788761667">
        <time>2022-06-28T11:41:38Z</time>
      </trkpt>
      <trkpt lat="40.977268333" lon="-5.788706667">
        <time>2022-06-28T11:41:39Z</time>
      </trkpt>
      <trkpt lat="40.977218333" lon="-5.788650000">
        <time>2022-06-28T11:41:40Z</time>
      </trkpt>
      <trkpt lat="40.977166667" lon="-5.788595000">
        <time>2022-06-28T11:41:41Z</time>
      </trkpt>
      <trkpt lat="40.977115000" lon="-5.788540000">
        <time>2022-06-28T11:41:42Z</time>
      </trkpt>
      <trkpt lat="40.977065000" lon="-5.788485000">
        <time>2022-06-28T11:41:43Z</time>
      </trkpt>
      <trkpt lat="40.977015000" lon="-5.788430000">
        <time>2022-06-28T11:41:44Z</time>
      </trkpt>
      <trkpt lat="40.976963333" lon="-5.788376667">
        <time>2022-06-28T11:41:45Z</time>
      </trkpt>
      <trkpt lat="40.976911667" lon="-5.788326667">
        <time>2022-06-28T11:41:46Z</time>
      </trkpt>
      <trkpt lat="40.976858333" lon="-5.788280000">
        <time>2022-06-28T11:41:47Z</time>
      </trkpt>
      <trkpt lat="40.976803333" lon="-5.788240000">
        <time>2022-06-28T11:41:48Z</time>
      </trkpt>
      <trkpt lat="40.976746667" lon="-5.788203333">
        <time>2022-06-28T11:41:49Z</time>
      </trkpt>
      <trkpt lat="40.976691667" lon="-5.788165000">
        <time>2022-06-28T11:41:50Z</time>
      </trkpt>
      <trkpt lat="40.976636667" lon="-5.788126667">
        <time>2022-06-28T11:41:51Z</time>
      </trkpt>
      <trkpt lat="40.976581667" lon="-5.788088333">
        <time>2022-06-28T11:41:52Z</time>
      </trkpt>
      <trkpt lat="40.976526667" lon="-5.788051667">
        <time>2022-06-28T11:41:53Z</time>
      </trkpt>
      <trkpt lat="40.976470000" lon="-5.788015000">
        <time>2022-06-28T11:41:54Z</time>
      </trkpt>
      <trkpt lat="40.976413333" lon="-5.787980000">
        <time>2022-06-28T11:41:55Z</time>
      </trkpt>
      <trkpt lat="40.976356667" lon="-5.787945000">
        <time>2022-06-28T11:41:56Z</time>
      </trkpt>
      <trkpt lat="40.976300000" lon="-5.787908333">
        <time>2022-06-28T11:41:57Z</time>
      </trkpt>
      <trkpt lat="40.976243333" lon="-5.787873333">
        <time>2022-06-28T11:41:58Z</time>
      </trkpt>
      <trkpt lat="40.976186667" lon="-5.787838333">
        <time>2022-06-28T11:41:59Z</time>
      </trkpt>
      <trkpt lat="40.976128333" lon="-5.787805000">
        <time>2022-06-28T11:42:00Z</time>
      </trkpt>
      <trkpt lat="40.976071667" lon="-5.787771667">
        <time>2022-06-28T11:42:01Z</time>
      </trkpt>
      <trkpt lat="40.976015000" lon="-5.787735000">
        <time>2022-06-28T11:42:02Z</time>
      </trkpt>
      <trkpt lat="40.975960000" lon="-5.787698333">
        <time>2022-06-28T11:42:03Z</time>
      </trkpt>
      <trkpt lat="40.975903333" lon="-5.787661667">
        <time>2022-06-28T11:42:04Z</time>
      </trkpt>
      <trkpt lat="40.975845000" lon="-5.787623333">
        <time>2022-06-28T11:42:05Z</time>
      </trkpt>
      <trkpt lat="40.975786667" lon="-5.787581667">
        <time>2022-06-28T11:42:06Z</time>
      </trkpt>
      <trkpt lat="40.975728333" lon="-5.787540000">
        <time>2022-06-28T11:42:07Z</time>
      </trkpt>
      <trkpt lat="40.975668333" lon="-5.787495000">
        <time>2022-06-28T11:42:08Z</time>
      </trkpt>
      <trkpt lat="40.975610000" lon="-5.787451667">
        <time>2022-06-28T11:42:09Z</time>
      </trkpt>
      <trkpt lat="40.975551667" lon="-5.787406667">
        <time>2022-06-28T11:42:10Z</time>
      </trkpt>
      <trkpt lat="40.975495000" lon="-5.787363333">
        <time>2022-06-28T11:42:11Z</time>
      </trkpt>
      <trkpt lat="40.975436667" lon="-5.787321667">
        <time>2022-06-28T11:42:12Z</time>
      </trkpt>
      <trkpt lat="40.975378333" lon="-5.787280000">
        <time>2022-06-28T11:42:13Z</time>
      </trkpt>
      <trkpt lat="40.975321667" lon="-5.787238333">
        <time>2022-06-28T11:42:14Z</time>
      </trkpt>
      <trkpt lat="40.975266667" lon="-5.787195000">
        <time>2022-06-28T11:42:15Z</time>
      </trkpt>
      <trkpt lat="40.975216667" lon="-5.787155000">
        <time>2022-06-28T11:42:16Z</time>
      </trkpt>
      <trkpt lat="40.975161667" lon="-5.787115000">
        <time>2022-06-28T11:42:17Z</time>
      </trkpt>
      <trkpt lat="40.975101667" lon="-5.787071667">
        <time>2022-06-28T11:42:18Z</time>
      </trkpt>
      <trkpt lat="40.975046667" lon="-5.787030000">
        <time>2022-06-28T11:42:19Z</time>
      </trkpt>
      <trkpt lat="40.974990000" lon="-5.786990000">
        <time>2022-06-28T11:42:20Z</time>
      </trkpt>
      <trkpt lat="40.974933333" lon="-5.786950000">
        <time>2022-06-28T11:42:21Z</time>
      </trkpt>
      <trkpt lat="40.974875000" lon="-5.786911667">
        <time>2022-06-28T11:42:22Z</time>
      </trkpt>
      <trkpt lat="40.974816667" lon="-5.786875000">
        <time>2022-06-28T11:42:23Z</time>
      </trkpt>
      <trkpt lat="40.974758333" lon="-5.786840000">
        <time>2022-06-28T11:42:24Z</time>
      </trkpt>
      <trkpt lat="40.974700000" lon="-5.786805000">
        <time>2022-06-28T11:42:25Z</time>
      </trkpt>
      <trkpt lat="40.974640000" lon="-5.786773333">
        <time>2022-06-28T11:42:26Z</time>
      </trkpt>
      <trkpt lat="40.974578333" lon="-5.786745000">
        <time>2022-06-28T11:42:27Z</time>
      </trkpt>
      <trkpt lat="40.974516667" lon="-5.786716667">
        <time>2022-06-28T11:42:28Z</time>
      </trkpt>
      <trkpt lat="40.974453333" lon="-5.786695000">
        <time>2022-06-28T11:42:29Z</time>
      </trkpt>
      <trkpt lat="40.974388333" lon="-5.786673333">
        <time>2022-06-28T11:42:30Z</time>
      </trkpt>
      <trkpt lat="40.974323333" lon="-5.786655000">
        <time>2022-06-28T11:42:31Z</time>
      </trkpt>
      <trkpt lat="40.974256667" lon="-5.786640000">
        <time>2022-06-28T11:42:32Z</time>
      </trkpt>
      <trkpt lat="40.974188333" lon="-5.786630000">
        <time>2022-06-28T11:42:33Z</time>
      </trkpt>
      <trkpt lat="40.974120000" lon="-5.786625000">
        <time>2022-06-28T11:42:34Z</time>
      </trkpt>
      <trkpt lat="40.974051667" lon="-5.786626667">
        <time>2022-06-28T11:42:35Z</time>
      </trkpt>
      <trkpt lat="40.973983333" lon="-5.786633333">
        <time>2022-06-28T11:42:36Z</time>
      </trkpt>
      <trkpt lat="40.973915000" lon="-5.786646667">
        <time>2022-06-28T11:42:37Z</time>
      </trkpt>
      <trkpt lat="40.973846667" lon="-5.786665000">
        <time>2022-06-28T11:42:38Z</time>
      </trkpt>
      <trkpt lat="40.973780000" lon="-5.786686667">
        <time>2022-06-28T11:42:39Z</time>
      </trkpt>
      <trkpt lat="40.973715000" lon="-5.786711667">
        <time>2022-06-28T11:42:40Z</time>
      </trkpt>
      <trkpt lat="40.973653333" lon="-5.786745000">
        <time>2022-06-28T11:42:41Z</time>
      </trkpt>
      <trkpt lat="40.973593333" lon="-5.786785000">
        <time>2022-06-28T11:42:42Z</time>
      </trkpt>
      <trkpt lat="40.973535000" lon="-5.786826667">
        <time>2022-06-28T11:42:43Z</time>
      </trkpt>
      <trkpt lat="40.973478333" lon="-5.786870000">
        <time>2022-06-28T11:42:44Z</time>
      </trkpt>
      <trkpt lat="40.973423333" lon="-5.786915000">
        <time>2022-06-28T11:42:45Z</time>
      </trkpt>
      <trkpt lat="40.973375000" lon="-5.786968333">
        <time>2022-06-28T11:42:46Z</time>
      </trkpt>
      <trkpt lat="40.973333333" lon="-5.787028333">
        <time>2022-06-28T11:42:47Z</time>
      </trkpt>
      <trkpt lat="40.973290000" lon="-5.787083333">
        <time>2022-06-28T11:42:48Z</time>
      </trkpt>
      <trkpt lat="40.973245000" lon="-5.787138333">
        <time>2022-06-28T11:42:49Z</time>
      </trkpt>
      <trkpt lat="40.973203333" lon="-5.787196667">
        <time>2022-06-28T11:42:50Z</time>
      </trkpt>
      <trkpt lat="40.973163333" lon="-5.787250000">
        <time>2022-06-28T11:42:51Z</time>
      </trkpt>
      <trkpt lat="40.973123333" lon="-5.787305000">
        <time>2022-06-28T11:42:52Z</time>
      </trkpt>
      <trkpt lat="40.973081667" lon="-5.787353333">
        <time>2022-06-28T11:42:53Z</time>
      </trkpt>
      <trkpt lat="40.973041667" lon="-5.787393333">
        <time>2022-06-28T11:42:54Z</time>
      </trkpt>
      <trkpt lat="40.973001667" lon="-5.787430000">
        <time>2022-06-28T11:42:55Z</time>
      </trkpt>
      <trkpt lat="40.972965000" lon="-5.787458333">
        <time>2022-06-28T11:42:56Z</time>
      </trkpt>
      <trkpt lat="40.972933333" lon="-5.787476667">
        <time>2022-06-28T11:42:57Z</time>
      </trkpt>
      <trkpt lat="40.972905000" lon="-5.787488333">
        <time>2022-06-28T11:42:58Z</time>
      </trkpt>
      <trkpt lat="40.972883333" lon="-5.787496667">
        <time>2022-06-28T11:42:59Z</time>
      </trkpt>
      <trkpt lat="40.972865000" lon="-5.787501667">
        <time>2022-06-28T11:43:00Z</time>
      </trkpt>
      <trkpt lat="40.972850000" lon="-5.787505000">
        <time>2022-06-28T11:43:01Z</time>
      </trkpt>
      <trkpt lat="40.972836667" lon="-5.787508333">
        <time>2022-06-28T11:43:02Z</time>
      </trkpt>
      <trkpt lat="40.972826667" lon="-5.787513333">
        <time>2022-06-28T11:43:03Z</time>
      </trkpt>
      <trkpt lat="40.972813333" lon="-5.787518333">
        <time>2022-06-28T11:43:04Z</time>
      </trkpt>
      <trkpt lat="40.972791667" lon="-5.787520000">
        <time>2022-06-28T11:43:05Z</time>
      </trkpt>
      <trkpt lat="40.972766667" lon="-5.787508333">
        <time>2022-06-28T11:43:06Z</time>
      </trkpt>
      <trkpt lat="40.972740000" lon="-5.787480000">
        <time>2022-06-28T11:43:07Z</time>
      </trkpt>
      <trkpt lat="40.972718333" lon="-5.787436667">
        <time>2022-06-28T11:43:08Z</time>
      </trkpt>
      <trkpt lat="40.972700000" lon="-5.787385000">
        <time>2022-06-28T11:43:09Z</time>
      </trkpt>
      <trkpt lat="40.972680000" lon="-5.787326667">
        <time>2022-06-28T11:43:10Z</time>
      </trkpt>
      <trkpt lat="40.972661667" lon="-5.787263333">
        <time>2022-06-28T11:43:11Z</time>
      </trkpt>
      <trkpt lat="40.972643333" lon="-5.787198333">
        <time>2022-06-28T11:43:12Z</time>
      </trkpt>
      <trkpt lat="40.972623333" lon="-5.787128333">
        <time>2022-06-28T11:43:13Z</time>
      </trkpt>
      <trkpt lat="40.972603333" lon="-5.787058333">
        <time>2022-06-28T11:43:14Z</time>
      </trkpt>
      <trkpt lat="40.972580000" lon="-5.786985000">
        <time>2022-06-28T11:43:15Z</time>
      </trkpt>
      <trkpt lat="40.972558333" lon="-5.786911667">
        <time>2022-06-28T11:43:16Z</time>
      </trkpt>
      <trkpt lat="40.972536667" lon="-5.786838333">
        <time>2022-06-28T11:43:17Z</time>
      </trkpt>
      <trkpt lat="40.972515000" lon="-5.786763333">
        <time>2022-06-28T11:43:18Z</time>
      </trkpt>
      <trkpt lat="40.972491667" lon="-5.786691667">
        <time>2022-06-28T11:43:19Z</time>
      </trkpt>
      <trkpt lat="40.972470000" lon="-5.786618333">
        <time>2022-06-28T11:43:20Z</time>
      </trkpt>
      <trkpt lat="40.972448333" lon="-5.786545000">
        <time>2022-06-28T11:43:21Z</time>
      </trkpt>
      <trkpt lat="40.972426667" lon="-5.786473333">
        <time>2022-06-28T11:43:22Z</time>
      </trkpt>
      <trkpt lat="40.972405000" lon="-5.786403333">
        <time>2022-06-28T11:43:23Z</time>
      </trkpt>
      <trkpt lat="40.972380000" lon="-5.786328333">
        <time>2022-06-28T11:43:24Z</time>
      </trkpt>
      <trkpt lat="40.972358333" lon="-5.786256667">
        <time>2022-06-28T11:43:25Z</time>
      </trkpt>
      <trkpt lat="40.972336667" lon="-5.786186667">
        <time>2022-06-28T11:43:26Z</time>
      </trkpt>
      <trkpt lat="40.972316667" lon="-5.786116667">
        <time>2022-06-28T11:43:27Z</time>
      </trkpt>
      <trkpt lat="40.972295000" lon="-5.786050000">
        <time>2022-06-28T11:43:28Z</time>
      </trkpt>
      <trkpt lat="40.972275000" lon="-5.785981667">
        <time>2022-06-28T11:43:29Z</time>
      </trkpt>
      <trkpt lat="40.972255000" lon="-5.785913333">
        <time>2022-06-28T11:43:30Z</time>
      </trkpt>
      <trkpt lat="40.972235000" lon="-5.785846667">
        <time>2022-06-28T11:43:31Z</time>
      </trkpt>
      <trkpt lat="40.972215000" lon="-5.785778333">
        <time>2022-06-28T11:43:32Z</time>
      </trkpt>
      <trkpt lat="40.972193333" lon="-5.785710000">
        <time>2022-06-28T11:43:33Z</time>
      </trkpt>
      <trkpt lat="40.972173333" lon="-5.785641667">
        <time>2022-06-28T11:43:34Z</time>
      </trkpt>
      <trkpt lat="40.972151667" lon="-5.785571667">
        <time>2022-06-28T11:43:35Z</time>
      </trkpt>
      <trkpt lat="40.972130000" lon="-5.785501667">
        <time>2022-06-28T11:43:36Z</time>
      </trkpt>
      <trkpt lat="40.972108333" lon="-5.785431667">
        <time>2022-06-28T11:43:37Z</time>
      </trkpt>
      <trkpt lat="40.972088333" lon="-5.785360000">
        <time>2022-06-28T11:43:38Z</time>
      </trkpt>
      <trkpt lat="40.972066667" lon="-5.785290000">
        <time>2022-06-28T11:43:39Z</time>
      </trkpt>
      <trkpt lat="40.972045000" lon="-5.785220000">
        <time>2022-06-28T11:43:40Z</time>
      </trkpt>
      <trkpt lat="40.972023333" lon="-5.785151667">
        <time>2022-06-28T11:43:41Z</time>
      </trkpt>
      <trkpt lat="40.972003333" lon="-5.785083333">
        <time>2022-06-28T11:43:42Z</time>
      </trkpt>
      <trkpt lat="40.971983333" lon="-5.785015000">
        <time>2022-06-28T11:43:43Z</time>
      </trkpt>
      <trkpt lat="40.971963333" lon="-5.784946667">
        <time>2022-06-28T11:43:44Z</time>
      </trkpt>
      <trkpt lat="40.971941667" lon="-5.784878333">
        <time>2022-06-28T11:43:45Z</time>
      </trkpt>
      <trkpt lat="40.971921667" lon="-5.784810000">
        <time>2022-06-28T11:43:46Z</time>
      </trkpt>
      <trkpt lat="40.971901667" lon="-5.784740000">
        <time>2022-06-28T11:43:47Z</time>
      </trkpt>
      <trkpt lat="40.971881667" lon="-5.784668333">
        <time>2022-06-28T11:43:48Z</time>
      </trkpt>
      <trkpt lat="40.971860000" lon="-5.784596667">
        <time>2022-06-28T11:43:49Z</time>
      </trkpt>
      <trkpt lat="40.971836667" lon="-5.784525000">
        <time>2022-06-28T11:43:50Z</time>
      </trkpt>
      <trkpt lat="40.971815000" lon="-5.784453333">
        <time>2022-06-28T11:43:51Z</time>
      </trkpt>
      <trkpt lat="40.971793333" lon="-5.784380000">
        <time>2022-06-28T11:43:52Z</time>
      </trkpt>
      <trkpt lat="40.971770000" lon="-5.784308333">
        <time>2022-06-28T11:43:53Z</time>
      </trkpt>
      <trkpt lat="40.971748333" lon="-5.784235000">
        <time>2022-06-28T11:43:54Z</time>
      </trkpt>
      <trkpt lat="40.971726667" lon="-5.784160000">
        <time>2022-06-28T11:43:55Z</time>
      </trkpt>
      <trkpt lat="40.971705000" lon="-5.784088333">
        <time>2022-06-28T11:43:56Z</time>
      </trkpt>
      <trkpt lat="40.971683333" lon="-5.784015000">
        <time>2022-06-28T11:43:57Z</time>
      </trkpt>
      <trkpt lat="40.971660000" lon="-5.783941667">
        <time>2022-06-28T11:43:58Z</time>
      </trkpt>
      <trkpt lat="40.971638333" lon="-5.783868333">
        <time>2022-06-28T11:43:59Z</time>
      </trkpt>
      <trkpt lat="40.971618333" lon="-5.783796667">
        <time>2022-06-28T11:44:00Z</time>
      </trkpt>
      <trkpt lat="40.971596667" lon="-5.783725000">
        <time>2022-06-28T11:44:01Z</time>
      </trkpt>
      <trkpt lat="40.971575000" lon="-5.783655000">
        <time>2022-06-28T11:44:02Z</time>
      </trkpt>
      <trkpt lat="40.971553333" lon="-5.783583333">
        <time>2022-06-28T11:44:03Z</time>
      </trkpt>
      <trkpt lat="40.971530000" lon="-5.783508333">
        <time>2022-06-28T11:44:04Z</time>
      </trkpt>
      <trkpt lat="40.971506667" lon="-5.783433333">
        <time>2022-06-28T11:44:05Z</time>
      </trkpt>
      <trkpt lat="40.971483333" lon="-5.783360000">
        <time>2022-06-28T11:44:06Z</time>
      </trkpt>
      <trkpt lat="40.971456667" lon="-5.783283333">
        <time>2022-06-28T11:44:07Z</time>
      </trkpt>
      <trkpt lat="40.971433333" lon="-5.783205000">
        <time>2022-06-28T11:44:08Z</time>
      </trkpt>
      <trkpt lat="40.971410000" lon="-5.783130000">
        <time>2022-06-28T11:44:09Z</time>
      </trkpt>
      <trkpt lat="40.971388333" lon="-5.783055000">
        <time>2022-06-28T11:44:10Z</time>
      </trkpt>
      <trkpt lat="40.971366667" lon="-5.782981667">
        <time>2022-06-28T11:44:11Z</time>
      </trkpt>
      <trkpt lat="40.971345000" lon="-5.782908333">
        <time>2022-06-28T11:44:12Z</time>
      </trkpt>
      <trkpt lat="40.971323333" lon="-5.782833333">
        <time>2022-06-28T11:44:13Z</time>
      </trkpt>
      <trkpt lat="40.971300000" lon="-5.782756667">
        <time>2022-06-28T11:44:14Z</time>
      </trkpt>
      <trkpt lat="40.971276667" lon="-5.782676667">
        <time>2022-06-28T11:44:15Z</time>
      </trkpt>
      <trkpt lat="40.971253333" lon="-5.782595000">
        <time>2022-06-28T11:44:16Z</time>
      </trkpt>
      <trkpt lat="40.971228333" lon="-5.782513333">
        <time>2022-06-28T11:44:17Z</time>
      </trkpt>
      <trkpt lat="40.971203333" lon="-5.782428333">
        <time>2022-06-28T11:44:18Z</time>
      </trkpt>
      <trkpt lat="40.971178333" lon="-5.782345000">
        <time>2022-06-28T11:44:19Z</time>
      </trkpt>
      <trkpt lat="40.971153333" lon="-5.782256667">
        <time>2022-06-28T11:44:20Z</time>
      </trkpt>
      <trkpt lat="40.971128333" lon="-5.782166667">
        <time>2022-06-28T11:44:21Z</time>
      </trkpt>
      <trkpt lat="40.971101667" lon="-5.782070000">
        <time>2022-06-28T11:44:22Z</time>
      </trkpt>
      <trkpt lat="40.971075000" lon="-5.781975000">
        <time>2022-06-28T11:44:23Z</time>
      </trkpt>
      <trkpt lat="40.971050000" lon="-5.781876667">
        <time>2022-06-28T11:44:24Z</time>
      </trkpt>
      <trkpt lat="40.971021667" lon="-5.781778333">
        <time>2022-06-28T11:44:25Z</time>
      </trkpt>
      <trkpt lat="40.970993333" lon="-5.781680000">
        <time>2022-06-28T11:44:26Z</time>
      </trkpt>
      <trkpt lat="40.970965000" lon="-5.781580000">
        <time>2022-06-28T11:44:27Z</time>
      </trkpt>
      <trkpt lat="40.970935000" lon="-5.781480000">
        <time>2022-06-28T11:44:28Z</time>
      </trkpt>
      <trkpt lat="40.970905000" lon="-5.781378333">
        <time>2022-06-28T11:44:29Z</time>
      </trkpt>
      <trkpt lat="40.970875000" lon="-5.781275000">
        <time>2022-06-28T11:44:30Z</time>
      </trkpt>
      <trkpt lat="40.970845000" lon="-5.781171667">
        <time>2022-06-28T11:44:31Z</time>
      </trkpt>
      <trkpt lat="40.970813333" lon="-5.781066667">
        <time>2022-06-28T11:44:32Z</time>
      </trkpt>
      <trkpt lat="40.970781667" lon="-5.780961667">
        <time>2022-06-28T11:44:33Z</time>
      </trkpt>
      <trkpt lat="40.970750000" lon="-5.780856667">
        <time>2022-06-28T11:44:34Z</time>
      </trkpt>
      <trkpt lat="40.970720000" lon="-5.780751667">
        <time>2022-06-28T11:44:35Z</time>
      </trkpt>
      <trkpt lat="40.970688333" lon="-5.780646667">
        <time>2022-06-28T11:44:36Z</time>
      </trkpt>
      <trkpt lat="40.970656667" lon="-5.780541667">
        <time>2022-06-28T11:44:37Z</time>
      </trkpt>
      <trkpt lat="40.970626667" lon="-5.780436667">
        <time>2022-06-28T11:44:38Z</time>
      </trkpt>
      <trkpt lat="40.970595000" lon="-5.780331667">
        <time>2022-06-28T11:44:39Z</time>
      </trkpt>
      <trkpt lat="40.970565000" lon="-5.780226667">
        <time>2022-06-28T11:44:40Z</time>
      </trkpt>
      <trkpt lat="40.970535000" lon="-5.780121667">
        <time>2022-06-28T11:44:41Z</time>
      </trkpt>
      <trkpt lat="40.970505000" lon="-5.780018333">
        <time>2022-06-28T11:44:42Z</time>
      </trkpt>
      <trkpt lat="40.970473333" lon="-5.779913333">
        <time>2022-06-28T11:44:43Z</time>
      </trkpt>
      <trkpt lat="40.970441667" lon="-5.779808333">
        <time>2022-06-28T11:44:44Z</time>
      </trkpt>
      <trkpt lat="40.970411667" lon="-5.779705000">
        <time>2022-06-28T11:44:45Z</time>
      </trkpt>
      <trkpt lat="40.970380000" lon="-5.779600000">
        <time>2022-06-28T11:44:46Z</time>
      </trkpt>
      <trkpt lat="40.970350000" lon="-5.779496667">
        <time>2022-06-28T11:44:47Z</time>
      </trkpt>
      <trkpt lat="40.970318333" lon="-5.779395000">
        <time>2022-06-28T11:44:48Z</time>
      </trkpt>
      <trkpt lat="40.970288333" lon="-5.779293333">
        <time>2022-06-28T11:44:49Z</time>
      </trkpt>
      <trkpt lat="40.970258333" lon="-5.779191667">
        <time>2022-06-28T11:44:50Z</time>
      </trkpt>
      <trkpt lat="40.970228333" lon="-5.779091667">
        <time>2022-06-28T11:44:51Z</time>
      </trkpt>
      <trkpt lat="40.970200000" lon="-5.778993333">
        <time>2022-06-28T11:44:52Z</time>
      </trkpt>
      <trkpt lat="40.970170000" lon="-5.778895000">
        <time>2022-06-28T11:44:53Z</time>
      </trkpt>
      <trkpt lat="40.970140000" lon="-5.778798333">
        <time>2022-06-28T11:44:54Z</time>
      </trkpt>
      <trkpt lat="40.970111667" lon="-5.778703333">
        <time>2022-06-28T11:44:55Z</time>
      </trkpt>
      <trkpt lat="40.970083333" lon="-5.778608333">
        <time>2022-06-28T11:44:56Z</time>
      </trkpt>
      <trkpt lat="40.970055000" lon="-5.778515000">
        <time>2022-06-28T11:44:57Z</time>
      </trkpt>
      <trkpt lat="40.970026667" lon="-5.778421667">
        <time>2022-06-28T11:44:58Z</time>
      </trkpt>
      <trkpt lat="40.969998333" lon="-5.778330000">
        <time>2022-06-28T11:44:59Z</time>
      </trkpt>
      <trkpt lat="40.969971667" lon="-5.778238333">
        <time>2022-06-28T11:45:00Z</time>
      </trkpt>
      <trkpt lat="40.969943333" lon="-5.778146667">
        <time>2022-06-28T11:45:01Z</time>
      </trkpt>
      <trkpt lat="40.969915000" lon="-5.778056667">
        <time>2022-06-28T11:45:02Z</time>
      </trkpt>
      <trkpt lat="40.969888333" lon="-5.777963333">
        <time>2022-06-28T11:45:03Z</time>
      </trkpt>
      <trkpt lat="40.969860000" lon="-5.777871667">
        <time>2022-06-28T11:45:04Z</time>
      </trkpt>
      <trkpt lat="40.969833333" lon="-5.777781667">
        <time>2022-06-28T11:45:05Z</time>
      </trkpt>
      <trkpt lat="40.969805000" lon="-5.777691667">
        <time>2022-06-28T11:45:06Z</time>
      </trkpt>
      <trkpt lat="40.969778333" lon="-5.777601667">
        <time>2022-06-28T11:45:07Z</time>
      </trkpt>
      <trkpt lat="40.969751667" lon="-5.777513333">
        <time>2022-06-28T11:45:08Z</time>
      </trkpt>
      <trkpt lat="40.969726667" lon="-5.777426667">
        <time>2022-06-28T11:45:09Z</time>
      </trkpt>
      <trkpt lat="40.969701667" lon="-5.777341667">
        <time>2022-06-28T11:45:10Z</time>
      </trkpt>
      <trkpt lat="40.969678333" lon="-5.777261667">
        <time>2022-06-28T11:45:11Z</time>
      </trkpt>
      <trkpt lat="40.969651667" lon="-5.777176667">
        <time>2022-06-28T11:45:12Z</time>
      </trkpt>
      <trkpt lat="40.969625000" lon="-5.777086667">
        <time>2022-06-28T11:45:13Z</time>
      </trkpt>
      <trkpt lat="40.969595000" lon="-5.776995000">
        <time>2022-06-28T11:45:14Z</time>
      </trkpt>
      <trkpt lat="40.969568333" lon="-5.776908333">
        <time>2022-06-28T11:45:15Z</time>
      </trkpt>
      <trkpt lat="40.969543333" lon="-5.776823333">
        <time>2022-06-28T11:45:16Z</time>
      </trkpt>
      <trkpt lat="40.969516667" lon="-5.776736667">
        <time>2022-06-28T11:45:17Z</time>
      </trkpt>
      <trkpt lat="40.969491667" lon="-5.776651667">
        <time>2022-06-28T11:45:18Z</time>
      </trkpt>
      <trkpt lat="40.969466667" lon="-5.776566667">
        <time>2022-06-28T11:45:19Z</time>
      </trkpt>
      <trkpt lat="40.969441667" lon="-5.776481667">
        <time>2022-06-28T11:45:20Z</time>
      </trkpt>
      <trkpt lat="40.969416667" lon="-5.776396667">
        <time>2022-06-28T11:45:21Z</time>
      </trkpt>
      <trkpt lat="40.969391667" lon="-5.776311667">
        <time>2022-06-28T11:45:22Z</time>
      </trkpt>
      <trkpt lat="40.969365000" lon="-5.776226667">
        <time>2022-06-28T11:45:23Z</time>
      </trkpt>
      <trkpt lat="40.969340000" lon="-5.776141667">
        <time>2022-06-28T11:45:24Z</time>
      </trkpt>
      <trkpt lat="40.969313333" lon="-5.776056667">
        <time>2022-06-28T11:45:25Z</time>
      </trkpt>
      <trkpt lat="40.969288333" lon="-5.775970000">
        <time>2022-06-28T11:45:26Z</time>
      </trkpt>
      <trkpt lat="40.969263333" lon="-5.775883333">
        <time>2022-06-28T11:45:27Z</time>
      </trkpt>
      <trkpt lat="40.969236667" lon="-5.775796667">
        <time>2022-06-28T11:45:28Z</time>
      </trkpt>
      <trkpt lat="40.969211667" lon="-5.775710000">
        <time>2022-06-28T11:45:29Z</time>
      </trkpt>
      <trkpt lat="40.969185000" lon="-5.775623333">
        <time>2022-06-28T11:45:30Z</time>
      </trkpt>
      <trkpt lat="40.969158333" lon="-5.775536667">
        <time>2022-06-28T11:45:31Z</time>
      </trkpt>
      <trkpt lat="40.969133333" lon="-5.775450000">
        <time>2022-06-28T11:45:32Z</time>
      </trkpt>
      <trkpt lat="40.969106667" lon="-5.775361667">
        <time>2022-06-28T11:45:33Z</time>
      </trkpt>
      <trkpt lat="40.969081667" lon="-5.775273333">
        <time>2022-06-28T11:45:34Z</time>
      </trkpt>
      <trkpt lat="40.969055000" lon="-5.775185000">
        <time>2022-06-28T11:45:35Z</time>
      </trkpt>
      <trkpt lat="40.969028333" lon="-5.775095000">
        <time>2022-06-28T11:45:36Z</time>
      </trkpt>
      <trkpt lat="40.969003333" lon="-5.775006667">
        <time>2022-06-28T11:45:37Z</time>
      </trkpt>
      <trkpt lat="40.968976667" lon="-5.774918333">
        <time>2022-06-28T11:45:38Z</time>
      </trkpt>
      <trkpt lat="40.968950000" lon="-5.774828333">
        <time>2022-06-28T11:45:39Z</time>
      </trkpt>
      <trkpt lat="40.968923333" lon="-5.774741667">
        <time>2022-06-28T11:45:40Z</time>
      </trkpt>
      <trkpt lat="40.968896667" lon="-5.774653333">
        <time>2022-06-28T11:45:41Z</time>
      </trkpt>
      <trkpt lat="40.968870000" lon="-5.774563333">
        <time>2022-06-28T11:45:42Z</time>
      </trkpt>
      <trkpt lat="40.968845000" lon="-5.774475000">
        <time>2022-06-28T11:45:43Z</time>
      </trkpt>
      <trkpt lat="40.968818333" lon="-5.774386667">
        <time>2022-06-28T11:45:44Z</time>
      </trkpt>
      <trkpt lat="40.968791667" lon="-5.774298333">
        <time>2022-06-28T11:45:45Z</time>
      </trkpt>
      <trkpt lat="40.968765000" lon="-5.774211667">
        <time>2022-06-28T11:45:46Z</time>
      </trkpt>
      <trkpt lat="40.968740000" lon="-5.774123333">
        <time>2022-06-28T11:45:47Z</time>
      </trkpt>
      <trkpt lat="40.968713333" lon="-5.774035000">
        <time>2022-06-28T11:45:48Z</time>
      </trkpt>
      <trkpt lat="40.968685000" lon="-5.773946667">
        <time>2022-06-28T11:45:49Z</time>
      </trkpt>
      <trkpt lat="40.968658333" lon="-5.773858333">
        <time>2022-06-28T11:45:50Z</time>
      </trkpt>
      <trkpt lat="40.968631667" lon="-5.773768333">
        <time>2022-06-28T11:45:51Z</time>
      </trkpt>
      <trkpt lat="40.968605000" lon="-5.773678333">
        <time>2022-06-28T11:45:52Z</time>
      </trkpt>
      <trkpt lat="40.968578333" lon="-5.773588333">
        <time>2022-06-28T11:45:53Z</time>
      </trkpt>
      <trkpt lat="40.968550000" lon="-5.773498333">
        <time>2022-06-28T11:45:54Z</time>
      </trkpt>
      <trkpt lat="40.968523333" lon="-5.773410000">
        <time>2022-06-28T11:45:55Z</time>
      </trkpt>
      <trkpt lat="40.968496667" lon="-5.773318333">
        <time>2022-06-28T11:45:56Z</time>
      </trkpt>
      <trkpt lat="40.968470000" lon="-5.773228333">
        <time>2022-06-28T11:45:57Z</time>
      </trkpt>
      <trkpt lat="40.968443333" lon="-5.773138333">
        <time>2022-06-28T11:45:58Z</time>
      </trkpt>
      <trkpt lat="40.968416667" lon="-5.773048333">
        <time>2022-06-28T11:45:59Z</time>
      </trkpt>
      <trkpt lat="40.968390000" lon="-5.772958333">
        <time>2022-06-28T11:46:00Z</time>
      </trkpt>
      <trkpt lat="40.968363333" lon="-5.772870000">
        <time>2022-06-28T11:46:01Z</time>
      </trkpt>
      <trkpt lat="40.968336667" lon="-5.772781667">
        <time>2022-06-28T11:46:02Z</time>
      </trkpt>
      <trkpt lat="40.968310000" lon="-5.772695000">
        <time>2022-06-28T11:46:03Z</time>
      </trkpt>
      <trkpt lat="40.968285000" lon="-5.772608333">
        <time>2022-06-28T11:46:04Z</time>
      </trkpt>
      <trkpt lat="40.968258333" lon="-5.772521667">
        <time>2022-06-28T11:46:05Z</time>
      </trkpt>
      <trkpt lat="40.968231667" lon="-5.772436667">
        <time>2022-06-28T11:46:06Z</time>
      </trkpt>
      <trkpt lat="40.968205000" lon="-5.772351667">
        <time>2022-06-28T11:46:07Z</time>
      </trkpt>
      <trkpt lat="40.968178333" lon="-5.772266667">
        <time>2022-06-28T11:46:08Z</time>
      </trkpt>
      <trkpt lat="40.968153333" lon="-5.772183333">
        <time>2022-06-28T11:46:09Z</time>
      </trkpt>
      <trkpt lat="40.968126667" lon="-5.772101667">
        <time>2022-06-28T11:46:10Z</time>
      </trkpt>
      <trkpt lat="40.968100000" lon="-5.772020000">
        <time>2022-06-28T11:46:11Z</time>
      </trkpt>
      <trkpt lat="40.968075000" lon="-5.771936667">
        <time>2022-06-28T11:46:12Z</time>
      </trkpt>
      <trkpt lat="40.968048333" lon="-5.771855000">
        <time>2022-06-28T11:46:13Z</time>
      </trkpt>
      <trkpt lat="40.968023333" lon="-5.771771667">
        <time>2022-06-28T11:46:14Z</time>
      </trkpt>
      <trkpt lat="40.967996667" lon="-5.771690000">
        <time>2022-06-28T11:46:15Z</time>
      </trkpt>
      <trkpt lat="40.967968333" lon="-5.771610000">
        <time>2022-06-28T11:46:16Z</time>
      </trkpt>
      <trkpt lat="40.967940000" lon="-5.771531667">
        <time>2022-06-28T11:46:17Z</time>
      </trkpt>
      <trkpt lat="40.967913333" lon="-5.771450000">
        <time>2022-06-28T11:46:18Z</time>
      </trkpt>
      <trkpt lat="40.967888333" lon="-5.771370000">
        <time>2022-06-28T11:46:19Z</time>
      </trkpt>
      <trkpt lat="40.967865000" lon="-5.771290000">
        <time>2022-06-28T11:46:20Z</time>
      </trkpt>
      <trkpt lat="40.967841667" lon="-5.771210000">
        <time>2022-06-28T11:46:21Z</time>
      </trkpt>
      <trkpt lat="40.967818333" lon="-5.771130000">
        <time>2022-06-28T11:46:22Z</time>
      </trkpt>
      <trkpt lat="40.967793333" lon="-5.771048333">
        <time>2022-06-28T11:46:23Z</time>
      </trkpt>
      <trkpt lat="40.967768333" lon="-5.770968333">
        <time>2022-06-28T11:46:24Z</time>
      </trkpt>
      <trkpt lat="40.967743333" lon="-5.770888333">
        <time>2022-06-28T11:46:25Z</time>
      </trkpt>
      <trkpt lat="40.967720000" lon="-5.770808333">
        <time>2022-06-28T11:46:26Z</time>
      </trkpt>
      <trkpt lat="40.967696667" lon="-5.770728333">
        <time>2022-06-28T11:46:27Z</time>
      </trkpt>
      <trkpt lat="40.967675000" lon="-5.770650000">
        <time>2022-06-28T11:46:28Z</time>
      </trkpt>
      <trkpt lat="40.967651667" lon="-5.770571667">
        <time>2022-06-28T11:46:29Z</time>
      </trkpt>
      <trkpt lat="40.967630000" lon="-5.770493333">
        <time>2022-06-28T11:46:30Z</time>
      </trkpt>
      <trkpt lat="40.967608333" lon="-5.770415000">
        <time>2022-06-28T11:46:31Z</time>
      </trkpt>
      <trkpt lat="40.967586667" lon="-5.770336667">
        <time>2022-06-28T11:46:32Z</time>
      </trkpt>
      <trkpt lat="40.967565000" lon="-5.770258333">
        <time>2022-06-28T11:46:33Z</time>
      </trkpt>
      <trkpt lat="40.967543333" lon="-5.770178333">
        <time>2022-06-28T11:46:34Z</time>
      </trkpt>
      <trkpt lat="40.967520000" lon="-5.770098333">
        <time>2022-06-28T11:46:35Z</time>
      </trkpt>
      <trkpt lat="40.967498333" lon="-5.770018333">
        <time>2022-06-28T11:46:36Z</time>
      </trkpt>
      <trkpt lat="40.967476667" lon="-5.769940000">
        <time>2022-06-28T11:46:37Z</time>
      </trkpt>
      <trkpt lat="40.967453333" lon="-5.769860000">
        <time>2022-06-28T11:46:38Z</time>
      </trkpt>
      <trkpt lat="40.967431667" lon="-5.769783333">
        <time>2022-06-28T11:46:39Z</time>
      </trkpt>
      <trkpt lat="40.967410000" lon="-5.769705000">
        <time>2022-06-28T11:46:40Z</time>
      </trkpt>
      <trkpt lat="40.967388333" lon="-5.769626667">
        <time>2022-06-28T11:46:41Z</time>
      </trkpt>
      <trkpt lat="40.967365000" lon="-5.769550000">
        <time>2022-06-28T11:46:42Z</time>
      </trkpt>
      <trkpt lat="40.967341667" lon="-5.769473333">
        <time>2022-06-28T11:46:43Z</time>
      </trkpt>
      <trkpt lat="40.967316667" lon="-5.769396667">
        <time>2022-06-28T11:46:44Z</time>
      </trkpt>
      <trkpt lat="40.967295000" lon="-5.769321667">
        <time>2022-06-28T11:46:45Z</time>
      </trkpt>
      <trkpt lat="40.967271667" lon="-5.769245000">
        <time>2022-06-28T11:46:46Z</time>
      </trkpt>
      <trkpt lat="40.967250000" lon="-5.769170000">
        <time>2022-06-28T11:46:47Z</time>
      </trkpt>
      <trkpt lat="40.967226667" lon="-5.769093333">
        <time>2022-06-28T11:46:48Z</time>
      </trkpt>
      <trkpt lat="40.967203333" lon="-5.769016667">
        <time>2022-06-28T11:46:49Z</time>
      </trkpt>
      <trkpt lat="40.967180000" lon="-5.768938333">
        <time>2022-06-28T11:46:50Z</time>
      </trkpt>
      <trkpt lat="40.967158333" lon="-5.768861667">
        <time>2022-06-28T11:46:51Z</time>
      </trkpt>
      <trkpt lat="40.967135000" lon="-5.768785000">
        <time>2022-06-28T11:46:52Z</time>
      </trkpt>
      <trkpt lat="40.967111667" lon="-5.768710000">
        <time>2022-06-28T11:46:53Z</time>
      </trkpt>
      <trkpt lat="40.967088333" lon="-5.768635000">
        <time>2022-06-28T11:46:54Z</time>
      </trkpt>
      <trkpt lat="40.967066667" lon="-5.768558333">
        <time>2022-06-28T11:46:55Z</time>
      </trkpt>
      <trkpt lat="40.967041667" lon="-5.768483333">
        <time>2022-06-28T11:46:56Z</time>
      </trkpt>
      <trkpt lat="40.967021667" lon="-5.768403333">
        <time>2022-06-28T11:46:57Z</time>
      </trkpt>
      <trkpt lat="40.967000000" lon="-5.768323333">
        <time>2022-06-28T11:46:58Z</time>
      </trkpt>
      <trkpt lat="40.966975000" lon="-5.768243333">
        <time>2022-06-28T11:46:59Z</time>
      </trkpt>
      <trkpt lat="40.966951667" lon="-5.768161667">
        <time>2022-06-28T11:47:00Z</time>
      </trkpt>
      <trkpt lat="40.966928333" lon="-5.768080000">
        <time>2022-06-28T11:47:01Z</time>
      </trkpt>
      <trkpt lat="40.966903333" lon="-5.767996667">
        <time>2022-06-28T11:47:02Z</time>
      </trkpt>
      <trkpt lat="40.966878333" lon="-5.767911667">
        <time>2022-06-28T11:47:03Z</time>
      </trkpt>
      <trkpt lat="40.966853333" lon="-5.767826667">
        <time>2022-06-28T11:47:04Z</time>
      </trkpt>
      <trkpt lat="40.966826667" lon="-5.767741667">
        <time>2022-06-28T11:47:05Z</time>
      </trkpt>
      <trkpt lat="40.966801667" lon="-5.767655000">
        <time>2022-06-28T11:47:06Z</time>
      </trkpt>
      <trkpt lat="40.966776667" lon="-5.767570000">
        <time>2022-06-28T11:47:07Z</time>
      </trkpt>
      <trkpt lat="40.966750000" lon="-5.767481667">
        <time>2022-06-28T11:47:08Z</time>
      </trkpt>
      <trkpt lat="40.966723333" lon="-5.767395000">
        <time>2022-06-28T11:47:09Z</time>
      </trkpt>
      <trkpt lat="40.966696667" lon="-5.767305000">
        <time>2022-06-28T11:47:10Z</time>
      </trkpt>
      <trkpt lat="40.966670000" lon="-5.767215000">
        <time>2022-06-28T11:47:11Z</time>
      </trkpt>
      <trkpt lat="40.966643333" lon="-5.767123333">
        <time>2022-06-28T11:47:12Z</time>
      </trkpt>
      <trkpt lat="40.966616667" lon="-5.767031667">
        <time>2022-06-28T11:47:13Z</time>
      </trkpt>
      <trkpt lat="40.966590000" lon="-5.766941667">
        <time>2022-06-28T11:47:14Z</time>
      </trkpt>
      <trkpt lat="40.966563333" lon="-5.766851667">
        <time>2022-06-28T11:47:15Z</time>
      </trkpt>
      <trkpt lat="40.966536667" lon="-5.766763333">
        <time>2022-06-28T11:47:16Z</time>
      </trkpt>
      <trkpt lat="40.966510000" lon="-5.766676667">
        <time>2022-06-28T11:47:17Z</time>
      </trkpt>
      <trkpt lat="40.966483333" lon="-5.766591667">
        <time>2022-06-28T11:47:18Z</time>
      </trkpt>
      <trkpt lat="40.966458333" lon="-5.766506667">
        <time>2022-06-28T11:47:19Z</time>
      </trkpt>
      <trkpt lat="40.966433333" lon="-5.766421667">
        <time>2022-06-28T11:47:20Z</time>
      </trkpt>
      <trkpt lat="40.966406667" lon="-5.766336667">
        <time>2022-06-28T11:47:21Z</time>
      </trkpt>
      <trkpt lat="40.966381667" lon="-5.766251667">
        <time>2022-06-28T11:47:22Z</time>
      </trkpt>
      <trkpt lat="40.966355000" lon="-5.766168333">
        <time>2022-06-28T11:47:23Z</time>
      </trkpt>
      <trkpt lat="40.966330000" lon="-5.766085000">
        <time>2022-06-28T11:47:24Z</time>
      </trkpt>
      <trkpt lat="40.966305000" lon="-5.766001667">
        <time>2022-06-28T11:47:25Z</time>
      </trkpt>
      <trkpt lat="40.966280000" lon="-5.765918333">
        <time>2022-06-28T11:47:26Z</time>
      </trkpt>
      <trkpt lat="40.966255000" lon="-5.765835000">
        <time>2022-06-28T11:47:27Z</time>
      </trkpt>
      <trkpt lat="40.966230000" lon="-5.765750000">
        <time>2022-06-28T11:47:28Z</time>
      </trkpt>
      <trkpt lat="40.966205000" lon="-5.765666667">
        <time>2022-06-28T11:47:29Z</time>
      </trkpt>
      <trkpt lat="40.966180000" lon="-5.765585000">
        <time>2022-06-28T11:47:30Z</time>
      </trkpt>
      <trkpt lat="40.966155000" lon="-5.765503333">
        <time>2022-06-28T11:47:31Z</time>
      </trkpt>
      <trkpt lat="40.966130000" lon="-5.765421667">
        <time>2022-06-28T11:47:32Z</time>
      </trkpt>
      <trkpt lat="40.966106667" lon="-5.765340000">
        <time>2022-06-28T11:47:33Z</time>
      </trkpt>
      <trkpt lat="40.966081667" lon="-5.765260000">
        <time>2022-06-28T11:47:34Z</time>
      </trkpt>
      <trkpt lat="40.966056667" lon="-5.765178333">
        <time>2022-06-28T11:47:35Z</time>
      </trkpt>
      <trkpt lat="40.966031667" lon="-5.765098333">
        <time>2022-06-28T11:47:36Z</time>
      </trkpt>
      <trkpt lat="40.966008333" lon="-5.765018333">
        <time>2022-06-28T11:47:37Z</time>
      </trkpt>
      <trkpt lat="40.965985000" lon="-5.764940000">
        <time>2022-06-28T11:47:38Z</time>
      </trkpt>
      <trkpt lat="40.965960000" lon="-5.764860000">
        <time>2022-06-28T11:47:39Z</time>
      </trkpt>
      <trkpt lat="40.965938333" lon="-5.764780000">
        <time>2022-06-28T11:47:40Z</time>
      </trkpt>
      <trkpt lat="40.965913333" lon="-5.764698333">
        <time>2022-06-28T11:47:41Z</time>
      </trkpt>
      <trkpt lat="40.965888333" lon="-5.764620000">
        <time>2022-06-28T11:47:42Z</time>
      </trkpt>
      <trkpt lat="40.965863333" lon="-5.764540000">
        <time>2022-06-28T11:47:43Z</time>
      </trkpt>
      <trkpt lat="40.965838333" lon="-5.764456667">
        <time>2022-06-28T11:47:44Z</time>
      </trkpt>
      <trkpt lat="40.965813333" lon="-5.764371667">
        <time>2022-06-28T11:47:45Z</time>
      </trkpt>
      <trkpt lat="40.965788333" lon="-5.764288333">
        <time>2022-06-28T11:47:46Z</time>
      </trkpt>
      <trkpt lat="40.965763333" lon="-5.764205000">
        <time>2022-06-28T11:47:47Z</time>
      </trkpt>
      <trkpt lat="40.965736667" lon="-5.764120000">
        <time>2022-06-28T11:47:48Z</time>
      </trkpt>
      <trkpt lat="40.965711667" lon="-5.764036667">
        <time>2022-06-28T11:47:49Z</time>
      </trkpt>
      <trkpt lat="40.965685000" lon="-5.763953333">
        <time>2022-06-28T11:47:50Z</time>
      </trkpt>
      <trkpt lat="40.965661667" lon="-5.763870000">
        <time>2022-06-28T11:47:51Z</time>
      </trkpt>
      <trkpt lat="40.965636667" lon="-5.763788333">
        <time>2022-06-28T11:47:52Z</time>
      </trkpt>
      <trkpt lat="40.965611667" lon="-5.763705000">
        <time>2022-06-28T11:47:53Z</time>
      </trkpt>
      <trkpt lat="40.965586667" lon="-5.763621667">
        <time>2022-06-28T11:47:54Z</time>
      </trkpt>
      <trkpt lat="40.965561667" lon="-5.763538333">
        <time>2022-06-28T11:47:55Z</time>
      </trkpt>
      <trkpt lat="40.965536667" lon="-5.763455000">
        <time>2022-06-28T11:47:56Z</time>
      </trkpt>
      <trkpt lat="40.965511667" lon="-5.763370000">
        <time>2022-06-28T11:47:57Z</time>
      </trkpt>
      <trkpt lat="40.965485000" lon="-5.763283333">
        <time>2022-06-28T11:47:58Z</time>
      </trkpt>
      <trkpt lat="40.965460000" lon="-5.763196667">
        <time>2022-06-28T11:47:59Z</time>
      </trkpt>
      <trkpt lat="40.965436667" lon="-5.763116667">
        <time>2022-06-28T11:48:00Z</time>
      </trkpt>
      <trkpt lat="40.965415000" lon="-5.763031667">
        <time>2022-06-28T11:48:01Z</time>
      </trkpt>
      <trkpt lat="40.965390000" lon="-5.762945000">
        <time>2022-06-28T11:48:02Z</time>
      </trkpt>
      <trkpt lat="40.965363333" lon="-5.762860000">
        <time>2022-06-28T11:48:03Z</time>
      </trkpt>
      <trkpt lat="40.965335000" lon="-5.762775000">
        <time>2022-06-28T11:48:04Z</time>
      </trkpt>
      <trkpt lat="40.965308333" lon="-5.762690000">
        <time>2022-06-28T11:48:05Z</time>
      </trkpt>
      <trkpt lat="40.965283333" lon="-5.762605000">
        <time>2022-06-28T11:48:06Z</time>
      </trkpt>
      <trkpt lat="40.965258333" lon="-5.762521667">
        <time>2022-06-28T11:48:07Z</time>
      </trkpt>
      <trkpt lat="40.965231667" lon="-5.762438333">
        <time>2022-06-28T11:48:08Z</time>
      </trkpt>
      <trkpt lat="40.965206667" lon="-5.762355000">
        <time>2022-06-28T11:48:09Z</time>
      </trkpt>
      <trkpt lat="40.965181667" lon="-5.762271667">
        <time>2022-06-28T11:48:10Z</time>
      </trkpt>
      <trkpt lat="40.965158333" lon="-5.762188333">
        <time>2022-06-28T11:48:11Z</time>
      </trkpt>
      <trkpt lat="40.965133333" lon="-5.762106667">
        <time>2022-06-28T11:48:12Z</time>
      </trkpt>
      <trkpt lat="40.965108333" lon="-5.762025000">
        <time>2022-06-28T11:48:13Z</time>
      </trkpt>
      <trkpt lat="40.965083333" lon="-5.761943333">
        <time>2022-06-28T11:48:14Z</time>
      </trkpt>
      <trkpt lat="40.965060000" lon="-5.761863333">
        <time>2022-06-28T11:48:15Z</time>
      </trkpt>
      <trkpt lat="40.965035000" lon="-5.761783333">
        <time>2022-06-28T11:48:16Z</time>
      </trkpt>
      <trkpt lat="40.965011667" lon="-5.761705000">
        <time>2022-06-28T11:48:17Z</time>
      </trkpt>
      <trkpt lat="40.964986667" lon="-5.761626667">
        <time>2022-06-28T11:48:18Z</time>
      </trkpt>
      <trkpt lat="40.964963333" lon="-5.761548333">
        <time>2022-06-28T11:48:19Z</time>
      </trkpt>
      <trkpt lat="40.964940000" lon="-5.761470000">
        <time>2022-06-28T11:48:20Z</time>
      </trkpt>
      <trkpt lat="40.964918333" lon="-5.761393333">
        <time>2022-06-28T11:48:21Z</time>
      </trkpt>
      <trkpt lat="40.964895000" lon="-5.761318333">
        <time>2022-06-28T11:48:22Z</time>
      </trkpt>
      <trkpt lat="40.964871667" lon="-5.761245000">
        <time>2022-06-28T11:48:23Z</time>
      </trkpt>
      <trkpt lat="40.964848333" lon="-5.761171667">
        <time>2022-06-28T11:48:24Z</time>
      </trkpt>
      <trkpt lat="40.964825000" lon="-5.761096667">
        <time>2022-06-28T11:48:25Z</time>
      </trkpt>
      <trkpt lat="40.964803333" lon="-5.761023333">
        <time>2022-06-28T11:48:26Z</time>
      </trkpt>
      <trkpt lat="40.964781667" lon="-5.760950000">
        <time>2022-06-28T11:48:27Z</time>
      </trkpt>
      <trkpt lat="40.964758333" lon="-5.760878333">
        <time>2022-06-28T11:48:28Z</time>
      </trkpt>
      <trkpt lat="40.964736667" lon="-5.760805000">
        <time>2022-06-28T11:48:29Z</time>
      </trkpt>
      <trkpt lat="40.964715000" lon="-5.760733333">
        <time>2022-06-28T11:48:30Z</time>
      </trkpt>
      <trkpt lat="40.964691667" lon="-5.760661667">
        <time>2022-06-28T11:48:31Z</time>
      </trkpt>
      <trkpt lat="40.964671667" lon="-5.760590000">
        <time>2022-06-28T11:48:32Z</time>
      </trkpt>
      <trkpt lat="40.964650000" lon="-5.760520000">
        <time>2022-06-28T11:48:33Z</time>
      </trkpt>
      <trkpt lat="40.964628333" lon="-5.760448333">
        <time>2022-06-28T11:48:34Z</time>
      </trkpt>
      <trkpt lat="40.964606667" lon="-5.760378333">
        <time>2022-06-28T11:48:35Z</time>
      </trkpt>
      <trkpt lat="40.964585000" lon="-5.760310000">
        <time>2022-06-28T11:48:36Z</time>
      </trkpt>
      <trkpt lat="40.964563333" lon="-5.760240000">
        <time>2022-06-28T11:48:37Z</time>
      </trkpt>
      <trkpt lat="40.964543333" lon="-5.760166667">
        <time>2022-06-28T11:48:38Z</time>
      </trkpt>
      <trkpt lat="40.964521667" lon="-5.760095000">
        <time>2022-06-28T11:48:39Z</time>
      </trkpt>
      <trkpt lat="40.964500000" lon="-5.760023333">
        <time>2022-06-28T11:48:40Z</time>
      </trkpt>
      <trkpt lat="40.964478333" lon="-5.759951667">
        <time>2022-06-28T11:48:41Z</time>
      </trkpt>
      <trkpt lat="40.964456667" lon="-5.759880000">
        <time>2022-06-28T11:48:42Z</time>
      </trkpt>
      <trkpt lat="40.964436667" lon="-5.759810000">
        <time>2022-06-28T11:48:43Z</time>
      </trkpt>
      <trkpt lat="40.964415000" lon="-5.759740000">
        <time>2022-06-28T11:48:44Z</time>
      </trkpt>
      <trkpt lat="40.964391667" lon="-5.759670000">
        <time>2022-06-28T11:48:45Z</time>
      </trkpt>
      <trkpt lat="40.964370000" lon="-5.759600000">
        <time>2022-06-28T11:48:46Z</time>
      </trkpt>
      <trkpt lat="40.964350000" lon="-5.759530000">
        <time>2022-06-28T11:48:47Z</time>
      </trkpt>
      <trkpt lat="40.964328333" lon="-5.759461667">
        <time>2022-06-28T11:48:48Z</time>
      </trkpt>
      <trkpt lat="40.964308333" lon="-5.759393333">
        <time>2022-06-28T11:48:49Z</time>
      </trkpt>
      <trkpt lat="40.964286667" lon="-5.759325000">
        <time>2022-06-28T11:48:50Z</time>
      </trkpt>
      <trkpt lat="40.964266667" lon="-5.759255000">
        <time>2022-06-28T11:48:51Z</time>
      </trkpt>
      <trkpt lat="40.964246667" lon="-5.759185000">
        <time>2022-06-28T11:48:52Z</time>
      </trkpt>
      <trkpt lat="40.964226667" lon="-5.759116667">
        <time>2022-06-28T11:48:53Z</time>
      </trkpt>
      <trkpt lat="40.964206667" lon="-5.759050000">
        <time>2022-06-28T11:48:54Z</time>
      </trkpt>
      <trkpt lat="40.964185000" lon="-5.758983333">
        <time>2022-06-28T11:48:55Z</time>
      </trkpt>
      <trkpt lat="40.964165000" lon="-5.758915000">
        <time>2022-06-28T11:48:56Z</time>
      </trkpt>
      <trkpt lat="40.964143333" lon="-5.758846667">
        <time>2022-06-28T11:48:57Z</time>
      </trkpt>
      <trkpt lat="40.964120000" lon="-5.758780000">
        <time>2022-06-28T11:48:58Z</time>
      </trkpt>
      <trkpt lat="40.964100000" lon="-5.758706667">
        <time>2022-06-28T11:48:59Z</time>
      </trkpt>
      <trkpt lat="40.964078333" lon="-5.758635000">
        <time>2022-06-28T11:49:00Z</time>
      </trkpt>
      <trkpt lat="40.964058333" lon="-5.758563333">
        <time>2022-06-28T11:49:01Z</time>
      </trkpt>
      <trkpt lat="40.964036667" lon="-5.758491667">
        <time>2022-06-28T11:49:02Z</time>
      </trkpt>
      <trkpt lat="40.964016667" lon="-5.758420000">
        <time>2022-06-28T11:49:03Z</time>
      </trkpt>
      <trkpt lat="40.963993333" lon="-5.758350000">
        <time>2022-06-28T11:49:04Z</time>
      </trkpt>
      <trkpt lat="40.963973333" lon="-5.758280000">
        <time>2022-06-28T11:49:05Z</time>
      </trkpt>
      <trkpt lat="40.963951667" lon="-5.758210000">
        <time>2022-06-28T11:49:06Z</time>
      </trkpt>
      <trkpt lat="40.963931667" lon="-5.758141667">
        <time>2022-06-28T11:49:07Z</time>
      </trkpt>
      <trkpt lat="40.963911667" lon="-5.758073333">
        <time>2022-06-28T11:49:08Z</time>
      </trkpt>
      <trkpt lat="40.963891667" lon="-5.758006667">
        <time>2022-06-28T11:49:09Z</time>
      </trkpt>
      <trkpt lat="40.963871667" lon="-5.757940000">
        <time>2022-06-28T11:49:10Z</time>
      </trkpt>
      <trkpt lat="40.963853333" lon="-5.757875000">
        <time>2022-06-28T11:49:11Z</time>
      </trkpt>
      <trkpt lat="40.963833333" lon="-5.757810000">
        <time>2022-06-28T11:49:12Z</time>
      </trkpt>
      <trkpt lat="40.963813333" lon="-5.757746667">
        <time>2022-06-28T11:49:13Z</time>
      </trkpt>
      <trkpt lat="40.963793333" lon="-5.757680000">
        <time>2022-06-28T11:49:14Z</time>
      </trkpt>
      <trkpt lat="40.963773333" lon="-5.757613333">
        <time>2022-06-28T11:49:15Z</time>
      </trkpt>
      <trkpt lat="40.963755000" lon="-5.757546667">
        <time>2022-06-28T11:49:16Z</time>
      </trkpt>
      <trkpt lat="40.963735000" lon="-5.757480000">
        <time>2022-06-28T11:49:17Z</time>
      </trkpt>
      <trkpt lat="40.963715000" lon="-5.757411667">
        <time>2022-06-28T11:49:18Z</time>
      </trkpt>
      <trkpt lat="40.963695000" lon="-5.757345000">
        <time>2022-06-28T11:49:19Z</time>
      </trkpt>
      <trkpt lat="40.963675000" lon="-5.757278333">
        <time>2022-06-28T11:49:20Z</time>
      </trkpt>
      <trkpt lat="40.963655000" lon="-5.757211667">
        <time>2022-06-28T11:49:21Z</time>
      </trkpt>
      <trkpt lat="40.963635000" lon="-5.757145000">
        <time>2022-06-28T11:49:22Z</time>
      </trkpt>
      <trkpt lat="40.963615000" lon="-5.757078333">
        <time>2022-06-28T11:49:23Z</time>
      </trkpt>
      <trkpt lat="40.963595000" lon="-5.757010000">
        <time>2022-06-28T11:49:24Z</time>
      </trkpt>
      <trkpt lat="40.963575000" lon="-5.756943333">
        <time>2022-06-28T11:49:25Z</time>
      </trkpt>
      <trkpt lat="40.963555000" lon="-5.756876667">
        <time>2022-06-28T11:49:26Z</time>
      </trkpt>
      <trkpt lat="40.963535000" lon="-5.756808333">
        <time>2022-06-28T11:49:27Z</time>
      </trkpt>
      <trkpt lat="40.963515000" lon="-5.756741667">
        <time>2022-06-28T11:49:28Z</time>
      </trkpt>
      <trkpt lat="40.963495000" lon="-5.756675000">
        <time>2022-06-28T11:49:29Z</time>
      </trkpt>
      <trkpt lat="40.963475000" lon="-5.756608333">
        <time>2022-06-28T11:49:30Z</time>
      </trkpt>
      <trkpt lat="40.963455000" lon="-5.756540000">
        <time>2022-06-28T11:49:31Z</time>
      </trkpt>
      <trkpt lat="40.963436667" lon="-5.756471667">
        <time>2022-06-28T11:49:32Z</time>
      </trkpt>
      <trkpt lat="40.963416667" lon="-5.756403333">
        <time>2022-06-28T11:49:33Z</time>
      </trkpt>
      <trkpt lat="40.963395000" lon="-5.756335000">
        <time>2022-06-28T11:49:34Z</time>
      </trkpt>
      <trkpt lat="40.963375000" lon="-5.756266667">
        <time>2022-06-28T11:49:35Z</time>
      </trkpt>
      <trkpt lat="40.963351667" lon="-5.756195000">
        <time>2022-06-28T11:49:36Z</time>
      </trkpt>
      <trkpt lat="40.963330000" lon="-5.756123333">
        <time>2022-06-28T11:49:37Z</time>
      </trkpt>
      <trkpt lat="40.963308333" lon="-5.756051667">
        <time>2022-06-28T11:49:38Z</time>
      </trkpt>
      <trkpt lat="40.963286667" lon="-5.755980000">
        <time>2022-06-28T11:49:39Z</time>
      </trkpt>
      <trkpt lat="40.963265000" lon="-5.755908333">
        <time>2022-06-28T11:49:40Z</time>
      </trkpt>
      <trkpt lat="40.963243333" lon="-5.755835000">
        <time>2022-06-28T11:49:41Z</time>
      </trkpt>
      <trkpt lat="40.963223333" lon="-5.755761667">
        <time>2022-06-28T11:49:42Z</time>
      </trkpt>
      <trkpt lat="40.963201667" lon="-5.755690000">
        <time>2022-06-28T11:49:43Z</time>
      </trkpt>
      <trkpt lat="40.963181667" lon="-5.755616667">
        <time>2022-06-28T11:49:44Z</time>
      </trkpt>
      <trkpt lat="40.963160000" lon="-5.755545000">
        <time>2022-06-28T11:49:45Z</time>
      </trkpt>
      <trkpt lat="40.963138333" lon="-5.755473333">
        <time>2022-06-28T11:49:46Z</time>
      </trkpt>
      <trkpt lat="40.963116667" lon="-5.755403333">
        <time>2022-06-28T11:49:47Z</time>
      </trkpt>
      <trkpt lat="40.963096667" lon="-5.755331667">
        <time>2022-06-28T11:49:48Z</time>
      </trkpt>
      <trkpt lat="40.963075000" lon="-5.755261667">
        <time>2022-06-28T11:49:49Z</time>
      </trkpt>
      <trkpt lat="40.963053333" lon="-5.755190000">
        <time>2022-06-28T11:49:50Z</time>
      </trkpt>
      <trkpt lat="40.963033333" lon="-5.755120000">
        <time>2022-06-28T11:49:51Z</time>
      </trkpt>
      <trkpt lat="40.963011667" lon="-5.755050000">
        <time>2022-06-28T11:49:52Z</time>
      </trkpt>
      <trkpt lat="40.962990000" lon="-5.754981667">
        <time>2022-06-28T11:49:53Z</time>
      </trkpt>
      <trkpt lat="40.962970000" lon="-5.754913333">
        <time>2022-06-28T11:49:54Z</time>
      </trkpt>
      <trkpt lat="40.962950000" lon="-5.754843333">
        <time>2022-06-28T11:49:55Z</time>
      </trkpt>
      <trkpt lat="40.962928333" lon="-5.754775000">
        <time>2022-06-28T11:49:56Z</time>
      </trkpt>
      <trkpt lat="40.962906667" lon="-5.754705000">
        <time>2022-06-28T11:49:57Z</time>
      </trkpt>
      <trkpt lat="40.962885000" lon="-5.754635000">
        <time>2022-06-28T11:49:58Z</time>
      </trkpt>
      <trkpt lat="40.962865000" lon="-5.754563333">
        <time>2022-06-28T11:49:59Z</time>
      </trkpt>
      <trkpt lat="40.962843333" lon="-5.754491667">
        <time>2022-06-28T11:50:00Z</time>
      </trkpt>
      <trkpt lat="40.962821667" lon="-5.754420000">
        <time>2022-06-28T11:50:01Z</time>
      </trkpt>
      <trkpt lat="40.962800000" lon="-5.754350000">
        <time>2022-06-28T11:50:02Z</time>
      </trkpt>
      <trkpt lat="40.962778333" lon="-5.754278333">
        <time>2022-06-28T11:50:03Z</time>
      </trkpt>
      <trkpt lat="40.962755000" lon="-5.754206667">
        <time>2022-06-28T11:50:04Z</time>
      </trkpt>
      <trkpt lat="40.962733333" lon="-5.754133333">
        <time>2022-06-28T11:50:05Z</time>
      </trkpt>
      <trkpt lat="40.962711667" lon="-5.754060000">
        <time>2022-06-28T11:50:06Z</time>
      </trkpt>
      <trkpt lat="40.962690000" lon="-5.753986667">
        <time>2022-06-28T11:50:07Z</time>
      </trkpt>
      <trkpt lat="40.962668333" lon="-5.753915000">
        <time>2022-06-28T11:50:08Z</time>
      </trkpt>
      <trkpt lat="40.962645000" lon="-5.753841667">
        <time>2022-06-28T11:50:09Z</time>
      </trkpt>
      <trkpt lat="40.962623333" lon="-5.753768333">
        <time>2022-06-28T11:50:10Z</time>
      </trkpt>
      <trkpt lat="40.962603333" lon="-5.753696667">
        <time>2022-06-28T11:50:11Z</time>
      </trkpt>
      <trkpt lat="40.962581667" lon="-5.753621667">
        <time>2022-06-28T11:50:12Z</time>
      </trkpt>
      <trkpt lat="40.962558333" lon="-5.753546667">
        <time>2022-06-28T11:50:13Z</time>
      </trkpt>
      <trkpt lat="40.962535000" lon="-5.753471667">
        <time>2022-06-28T11:50:14Z</time>
      </trkpt>
      <trkpt lat="40.962513333" lon="-5.753393333">
        <time>2022-06-28T11:50:15Z</time>
      </trkpt>
      <trkpt lat="40.962490000" lon="-5.753316667">
        <time>2022-06-28T11:50:16Z</time>
      </trkpt>
      <trkpt lat="40.962466667" lon="-5.753240000">
        <time>2022-06-28T11:50:17Z</time>
      </trkpt>
      <trkpt lat="40.962443333" lon="-5.753163333">
        <time>2022-06-28T11:50:18Z</time>
      </trkpt>
      <trkpt lat="40.962420000" lon="-5.753086667">
        <time>2022-06-28T11:50:19Z</time>
      </trkpt>
      <trkpt lat="40.962396667" lon="-5.753008333">
        <time>2022-06-28T11:50:20Z</time>
      </trkpt>
      <trkpt lat="40.962371667" lon="-5.752930000">
        <time>2022-06-28T11:50:21Z</time>
      </trkpt>
      <trkpt lat="40.962346667" lon="-5.752851667">
        <time>2022-06-28T11:50:22Z</time>
      </trkpt>
      <trkpt lat="40.962323333" lon="-5.752775000">
        <time>2022-06-28T11:50:23Z</time>
      </trkpt>
      <trkpt lat="40.962300000" lon="-5.752698333">
        <time>2022-06-28T11:50:24Z</time>
      </trkpt>
      <trkpt lat="40.962278333" lon="-5.752625000">
        <time>2022-06-28T11:50:25Z</time>
      </trkpt>
      <trkpt lat="40.962256667" lon="-5.752551667">
        <time>2022-06-28T11:50:26Z</time>
      </trkpt>
      <trkpt lat="40.962235000" lon="-5.752478333">
        <time>2022-06-28T11:50:27Z</time>
      </trkpt>
      <trkpt lat="40.962213333" lon="-5.752406667">
        <time>2022-06-28T11:50:28Z</time>
      </trkpt>
      <trkpt lat="40.962191667" lon="-5.752333333">
        <time>2022-06-28T11:50:29Z</time>
      </trkpt>
      <trkpt lat="40.962170000" lon="-5.752261667">
        <time>2022-06-28T11:50:30Z</time>
      </trkpt>
      <trkpt lat="40.962150000" lon="-5.752188333">
        <time>2022-06-28T11:50:31Z</time>
      </trkpt>
      <trkpt lat="40.962128333" lon="-5.752116667">
        <time>2022-06-28T11:50:32Z</time>
      </trkpt>
      <trkpt lat="40.962105000" lon="-5.752045000">
        <time>2022-06-28T11:50:33Z</time>
      </trkpt>
      <trkpt lat="40.962085000" lon="-5.751973333">
        <time>2022-06-28T11:50:34Z</time>
      </trkpt>
      <trkpt lat="40.962063333" lon="-5.751900000">
        <time>2022-06-28T11:50:35Z</time>
      </trkpt>
      <trkpt lat="40.962043333" lon="-5.751828333">
        <time>2022-06-28T11:50:36Z</time>
      </trkpt>
      <trkpt lat="40.962021667" lon="-5.751755000">
        <time>2022-06-28T11:50:37Z</time>
      </trkpt>
      <trkpt lat="40.962001667" lon="-5.751681667">
        <time>2022-06-28T11:50:38Z</time>
      </trkpt>
      <trkpt lat="40.961980000" lon="-5.751608333">
        <time>2022-06-28T11:50:39Z</time>
      </trkpt>
      <trkpt lat="40.961958333" lon="-5.751533333">
        <time>2022-06-28T11:50:40Z</time>
      </trkpt>
      <trkpt lat="40.961938333" lon="-5.751458333">
        <time>2022-06-28T11:50:41Z</time>
      </trkpt>
      <trkpt lat="40.961916667" lon="-5.751385000">
        <time>2022-06-28T11:50:42Z</time>
      </trkpt>
      <trkpt lat="40.961896667" lon="-5.751310000">
        <time>2022-06-28T11:50:43Z</time>
      </trkpt>
      <trkpt lat="40.961875000" lon="-5.751236667">
        <time>2022-06-28T11:50:44Z</time>
      </trkpt>
      <trkpt lat="40.961853333" lon="-5.751163333">
        <time>2022-06-28T11:50:45Z</time>
      </trkpt>
      <trkpt lat="40.961831667" lon="-5.751090000">
        <time>2022-06-28T11:50:46Z</time>
      </trkpt>
      <trkpt lat="40.961811667" lon="-5.751018333">
        <time>2022-06-28T11:50:47Z</time>
      </trkpt>
      <trkpt lat="40.961790000" lon="-5.750945000">
        <time>2022-06-28T11:50:48Z</time>
      </trkpt>
      <trkpt lat="40.961770000" lon="-5.750873333">
        <time>2022-06-28T11:50:49Z</time>
      </trkpt>
      <trkpt lat="40.961748333" lon="-5.750801667">
        <time>2022-06-28T11:50:50Z</time>
      </trkpt>
      <trkpt lat="40.961726667" lon="-5.750728333">
        <time>2022-06-28T11:50:51Z</time>
      </trkpt>
      <trkpt lat="40.961706667" lon="-5.750656667">
        <time>2022-06-28T11:50:52Z</time>
      </trkpt>
      <trkpt lat="40.961685000" lon="-5.750585000">
        <time>2022-06-28T11:50:53Z</time>
      </trkpt>
      <trkpt lat="40.961663333" lon="-5.750513333">
        <time>2022-06-28T11:50:54Z</time>
      </trkpt>
      <trkpt lat="40.961641667" lon="-5.750443333">
        <time>2022-06-28T11:50:55Z</time>
      </trkpt>
      <trkpt lat="40.961621667" lon="-5.750370000">
        <time>2022-06-28T11:50:56Z</time>
      </trkpt>
      <trkpt lat="40.961600000" lon="-5.750300000">
        <time>2022-06-28T11:50:57Z</time>
      </trkpt>
      <trkpt lat="40.961578333" lon="-5.750228333">
        <time>2022-06-28T11:50:58Z</time>
      </trkpt>
      <trkpt lat="40.961556667" lon="-5.750155000">
        <time>2022-06-28T11:50:59Z</time>
      </trkpt>
      <trkpt lat="40.961536667" lon="-5.750083333">
        <time>2022-06-28T11:51:00Z</time>
      </trkpt>
      <trkpt lat="40.961515000" lon="-5.750011667">
        <time>2022-06-28T11:51:01Z</time>
      </trkpt>
      <trkpt lat="40.961495000" lon="-5.749940000">
        <time>2022-06-28T11:51:02Z</time>
      </trkpt>
      <trkpt lat="40.961473333" lon="-5.749868333">
        <time>2022-06-28T11:51:03Z</time>
      </trkpt>
      <trkpt lat="40.961451667" lon="-5.749796667">
        <time>2022-06-28T11:51:04Z</time>
      </trkpt>
      <trkpt lat="40.961431667" lon="-5.749725000">
        <time>2022-06-28T11:51:05Z</time>
      </trkpt>
      <trkpt lat="40.961410000" lon="-5.749651667">
        <time>2022-06-28T11:51:06Z</time>
      </trkpt>
      <trkpt lat="40.961390000" lon="-5.749578333">
        <time>2022-06-28T11:51:07Z</time>
      </trkpt>
      <trkpt lat="40.961368333" lon="-5.749505000">
        <time>2022-06-28T11:51:08Z</time>
      </trkpt>
      <trkpt lat="40.961346667" lon="-5.749431667">
        <time>2022-06-28T11:51:09Z</time>
      </trkpt>
      <trkpt lat="40.961325000" lon="-5.749358333">
        <time>2022-06-28T11:51:10Z</time>
      </trkpt>
      <trkpt lat="40.961303333" lon="-5.749286667">
        <time>2022-06-28T11:51:11Z</time>
      </trkpt>
      <trkpt lat="40.961281667" lon="-5.749213333">
        <time>2022-06-28T11:51:12Z</time>
      </trkpt>
      <trkpt lat="40.961260000" lon="-5.749140000">
        <time>2022-06-28T11:51:13Z</time>
      </trkpt>
      <trkpt lat="40.961238333" lon="-5.749066667">
        <time>2022-06-28T11:51:14Z</time>
      </trkpt>
      <trkpt lat="40.961216667" lon="-5.748993333">
        <time>2022-06-28T11:51:15Z</time>
      </trkpt>
      <trkpt lat="40.961195000" lon="-5.748921667">
        <time>2022-06-28T11:51:16Z</time>
      </trkpt>
      <trkpt lat="40.961173333" lon="-5.748848333">
        <time>2022-06-28T11:51:17Z</time>
      </trkpt>
      <trkpt lat="40.961153333" lon="-5.748775000">
        <time>2022-06-28T11:51:18Z</time>
      </trkpt>
      <trkpt lat="40.961131667" lon="-5.748703333">
        <time>2022-06-28T11:51:19Z</time>
      </trkpt>
      <trkpt lat="40.961110000" lon="-5.748630000">
        <time>2022-06-28T11:51:20Z</time>
      </trkpt>
      <trkpt lat="40.961088333" lon="-5.748556667">
        <time>2022-06-28T11:51:21Z</time>
      </trkpt>
      <trkpt lat="40.961066667" lon="-5.748483333">
        <time>2022-06-28T11:51:22Z</time>
      </trkpt>
      <trkpt lat="40.961045000" lon="-5.748410000">
        <time>2022-06-28T11:51:23Z</time>
      </trkpt>
      <trkpt lat="40.961025000" lon="-5.748336667">
        <time>2022-06-28T11:51:24Z</time>
      </trkpt>
      <trkpt lat="40.961003333" lon="-5.748263333">
        <time>2022-06-28T11:51:25Z</time>
      </trkpt>
      <trkpt lat="40.960981667" lon="-5.748190000">
        <time>2022-06-28T11:51:26Z</time>
      </trkpt>
      <trkpt lat="40.960960000" lon="-5.748116667">
        <time>2022-06-28T11:51:27Z</time>
      </trkpt>
      <trkpt lat="40.960940000" lon="-5.748045000">
        <time>2022-06-28T11:51:28Z</time>
      </trkpt>
      <trkpt lat="40.960918333" lon="-5.747971667">
        <time>2022-06-28T11:51:29Z</time>
      </trkpt>
      <trkpt lat="40.960895000" lon="-5.747898333">
        <time>2022-06-28T11:51:30Z</time>
      </trkpt>
      <trkpt lat="40.960875000" lon="-5.747825000">
        <time>2022-06-28T11:51:31Z</time>
      </trkpt>
      <trkpt lat="40.960853333" lon="-5.747751667">
        <time>2022-06-28T11:51:32Z</time>
      </trkpt>
      <trkpt lat="40.960831667" lon="-5.747676667">
        <time>2022-06-28T11:51:33Z</time>
      </trkpt>
      <trkpt lat="40.960810000" lon="-5.747603333">
        <time>2022-06-28T11:51:34Z</time>
      </trkpt>
      <trkpt lat="40.960790000" lon="-5.747528333">
        <time>2022-06-28T11:51:35Z</time>
      </trkpt>
      <trkpt lat="40.960768333" lon="-5.747453333">
        <time>2022-06-28T11:51:36Z</time>
      </trkpt>
      <trkpt lat="40.960743333" lon="-5.747381667">
        <time>2022-06-28T11:51:37Z</time>
      </trkpt>
      <trkpt lat="40.960721667" lon="-5.747305000">
        <time>2022-06-28T11:51:38Z</time>
      </trkpt>
      <trkpt lat="40.960701667" lon="-5.747226667">
        <time>2022-06-28T11:51:39Z</time>
      </trkpt>
      <trkpt lat="40.960678333" lon="-5.747150000">
        <time>2022-06-28T11:51:40Z</time>
      </trkpt>
      <trkpt lat="40.960655000" lon="-5.747076667">
        <time>2022-06-28T11:51:41Z</time>
      </trkpt>
      <trkpt lat="40.960631667" lon="-5.747003333">
        <time>2022-06-28T11:51:42Z</time>
      </trkpt>
      <trkpt lat="40.960611667" lon="-5.746928333">
        <time>2022-06-28T11:51:43Z</time>
      </trkpt>
      <trkpt lat="40.960590000" lon="-5.746853333">
        <time>2022-06-28T11:51:44Z</time>
      </trkpt>
      <trkpt lat="40.960568333" lon="-5.746781667">
        <time>2022-06-28T11:51:45Z</time>
      </trkpt>
      <trkpt lat="40.960545000" lon="-5.746706667">
        <time>2022-06-28T11:51:46Z</time>
      </trkpt>
      <trkpt lat="40.960521667" lon="-5.746630000">
        <time>2022-06-28T11:51:47Z</time>
      </trkpt>
      <trkpt lat="40.960500000" lon="-5.746553333">
        <time>2022-06-28T11:51:48Z</time>
      </trkpt>
      <trkpt lat="40.960476667" lon="-5.746476667">
        <time>2022-06-28T11:51:49Z</time>
      </trkpt>
      <trkpt lat="40.960453333" lon="-5.746400000">
        <time>2022-06-28T11:51:50Z</time>
      </trkpt>
      <trkpt lat="40.960430000" lon="-5.746323333">
        <time>2022-06-28T11:51:51Z</time>
      </trkpt>
      <trkpt lat="40.960408333" lon="-5.746245000">
        <time>2022-06-28T11:51:52Z</time>
      </trkpt>
      <trkpt lat="40.960385000" lon="-5.746168333">
        <time>2022-06-28T11:51:53Z</time>
      </trkpt>
      <trkpt lat="40.960363333" lon="-5.746088333">
        <time>2022-06-28T11:51:54Z</time>
      </trkpt>
      <trkpt lat="40.960340000" lon="-5.746008333">
        <time>2022-06-28T11:51:55Z</time>
      </trkpt>
      <trkpt lat="40.960313333" lon="-5.745928333">
        <time>2022-06-28T11:51:56Z</time>
      </trkpt>
      <trkpt lat="40.960290000" lon="-5.745850000">
        <time>2022-06-28T11:51:57Z</time>
      </trkpt>
      <trkpt lat="40.960266667" lon="-5.745770000">
        <time>2022-06-28T11:51:58Z</time>
      </trkpt>
      <trkpt lat="40.960243333" lon="-5.745693333">
        <time>2022-06-28T11:51:59Z</time>
      </trkpt>
      <trkpt lat="40.960223333" lon="-5.745623333">
        <time>2022-06-28T11:52:00Z</time>
      </trkpt>
      <trkpt lat="40.960203333" lon="-5.745553333">
        <time>2022-06-28T11:52:01Z</time>
      </trkpt>
      <trkpt lat="40.960186667" lon="-5.745480000">
        <time>2022-06-28T11:52:02Z</time>
      </trkpt>
      <trkpt lat="40.960166667" lon="-5.745403333">
        <time>2022-06-28T11:52:03Z</time>
      </trkpt>
      <trkpt lat="40.960141667" lon="-5.745321667">
        <time>2022-06-28T11:52:04Z</time>
      </trkpt>
      <trkpt lat="40.960118333" lon="-5.745243333">
        <time>2022-06-28T11:52:05Z</time>
      </trkpt>
      <trkpt lat="40.960098333" lon="-5.745168333">
        <time>2022-06-28T11:52:06Z</time>
      </trkpt>
      <trkpt lat="40.960076667" lon="-5.745095000">
        <time>2022-06-28T11:52:07Z</time>
      </trkpt>
      <trkpt lat="40.960051667" lon="-5.745025000">
        <time>2022-06-28T11:52:08Z</time>
      </trkpt>
      <trkpt lat="40.960026667" lon="-5.744955000">
        <time>2022-06-28T11:52:09Z</time>
      </trkpt>
      <trkpt lat="40.960001667" lon="-5.744880000">
        <time>2022-06-28T11:52:10Z</time>
      </trkpt>
      <trkpt lat="40.959978333" lon="-5.744805000">
        <time>2022-06-28T11:52:11Z</time>
      </trkpt>
      <trkpt lat="40.959953333" lon="-5.744730000">
        <time>2022-06-28T11:52:12Z</time>
      </trkpt>
      <trkpt lat="40.959928333" lon="-5.744653333">
        <time>2022-06-28T11:52:13Z</time>
      </trkpt>
      <trkpt lat="40.959906667" lon="-5.744580000">
        <time>2022-06-28T11:52:14Z</time>
      </trkpt>
      <trkpt lat="40.959883333" lon="-5.744506667">
        <time>2022-06-28T11:52:15Z</time>
      </trkpt>
      <trkpt lat="40.959861667" lon="-5.744435000">
        <time>2022-06-28T11:52:16Z</time>
      </trkpt>
      <trkpt lat="40.959840000" lon="-5.744361667">
        <time>2022-06-28T11:52:17Z</time>
      </trkpt>
      <trkpt lat="40.959818333" lon="-5.744290000">
        <time>2022-06-28T11:52:18Z</time>
      </trkpt>
      <trkpt lat="40.959796667" lon="-5.744220000">
        <time>2022-06-28T11:52:19Z</time>
      </trkpt>
      <trkpt lat="40.959773333" lon="-5.744151667">
        <time>2022-06-28T11:52:20Z</time>
      </trkpt>
      <trkpt lat="40.959751667" lon="-5.744083333">
        <time>2022-06-28T11:52:21Z</time>
      </trkpt>
      <trkpt lat="40.959730000" lon="-5.744015000">
        <time>2022-06-28T11:52:22Z</time>
      </trkpt>
      <trkpt lat="40.959710000" lon="-5.743945000">
        <time>2022-06-28T11:52:23Z</time>
      </trkpt>
      <trkpt lat="40.959688333" lon="-5.743873333">
        <time>2022-06-28T11:52:24Z</time>
      </trkpt>
      <trkpt lat="40.959665000" lon="-5.743801667">
        <time>2022-06-28T11:52:25Z</time>
      </trkpt>
      <trkpt lat="40.959643333" lon="-5.743733333">
        <time>2022-06-28T11:52:26Z</time>
      </trkpt>
      <trkpt lat="40.959620000" lon="-5.743670000">
        <time>2022-06-28T11:52:27Z</time>
      </trkpt>
      <trkpt lat="40.959598333" lon="-5.743605000">
        <time>2022-06-28T11:52:28Z</time>
      </trkpt>
      <trkpt lat="40.959580000" lon="-5.743540000">
        <time>2022-06-28T11:52:29Z</time>
      </trkpt>
      <trkpt lat="40.959560000" lon="-5.743473333">
        <time>2022-06-28T11:52:30Z</time>
      </trkpt>
      <trkpt lat="40.959538333" lon="-5.743406667">
        <time>2022-06-28T11:52:31Z</time>
      </trkpt>
      <trkpt lat="40.959518333" lon="-5.743336667">
        <time>2022-06-28T11:52:32Z</time>
      </trkpt>
      <trkpt lat="40.959498333" lon="-5.743266667">
        <time>2022-06-28T11:52:33Z</time>
      </trkpt>
      <trkpt lat="40.959476667" lon="-5.743196667">
        <time>2022-06-28T11:52:34Z</time>
      </trkpt>
      <trkpt lat="40.959456667" lon="-5.743125000">
        <time>2022-06-28T11:52:35Z</time>
      </trkpt>
      <trkpt lat="40.959436667" lon="-5.743055000">
        <time>2022-06-28T11:52:36Z</time>
      </trkpt>
      <trkpt lat="40.959415000" lon="-5.742983333">
        <time>2022-06-28T11:52:37Z</time>
      </trkpt>
      <trkpt lat="40.959395000" lon="-5.742913333">
        <time>2022-06-28T11:52:38Z</time>
      </trkpt>
      <trkpt lat="40.959376667" lon="-5.742841667">
        <time>2022-06-28T11:52:39Z</time>
      </trkpt>
      <trkpt lat="40.959358333" lon="-5.742771667">
        <time>2022-06-28T11:52:40Z</time>
      </trkpt>
      <trkpt lat="40.959341667" lon="-5.742700000">
        <time>2022-06-28T11:52:41Z</time>
      </trkpt>
      <trkpt lat="40.959326667" lon="-5.742628333">
        <time>2022-06-28T11:52:42Z</time>
      </trkpt>
      <trkpt lat="40.959311667" lon="-5.742556667">
        <time>2022-06-28T11:52:43Z</time>
      </trkpt>
      <trkpt lat="40.959298333" lon="-5.742485000">
        <time>2022-06-28T11:52:44Z</time>
      </trkpt>
      <trkpt lat="40.959283333" lon="-5.742413333">
        <time>2022-06-28T11:52:45Z</time>
      </trkpt>
      <trkpt lat="40.959270000" lon="-5.742341667">
        <time>2022-06-28T11:52:46Z</time>
      </trkpt>
      <trkpt lat="40.959260000" lon="-5.742270000">
        <time>2022-06-28T11:52:47Z</time>
      </trkpt>
      <trkpt lat="40.959251667" lon="-5.742196667">
        <time>2022-06-28T11:52:48Z</time>
      </trkpt>
      <trkpt lat="40.959245000" lon="-5.742123333">
        <time>2022-06-28T11:52:49Z</time>
      </trkpt>
      <trkpt lat="40.959238333" lon="-5.742048333">
        <time>2022-06-28T11:52:50Z</time>
      </trkpt>
      <trkpt lat="40.959233333" lon="-5.741973333">
        <time>2022-06-28T11:52:51Z</time>
      </trkpt>
      <trkpt lat="40.959230000" lon="-5.741896667">
        <time>2022-06-28T11:52:52Z</time>
      </trkpt>
      <trkpt lat="40.959226667" lon="-5.741818333">
        <time>2022-06-28T11:52:53Z</time>
      </trkpt>
      <trkpt lat="40.959223333" lon="-5.741740000">
        <time>2022-06-28T11:52:54Z</time>
      </trkpt>
      <trkpt lat="40.959221667" lon="-5.741661667">
        <time>2022-06-28T11:52:55Z</time>
      </trkpt>
      <trkpt lat="40.959221667" lon="-5.741583333">
        <time>2022-06-28T11:52:56Z</time>
      </trkpt>
      <trkpt lat="40.959220000" lon="-5.741503333">
        <time>2022-06-28T11:52:57Z</time>
      </trkpt>
      <trkpt lat="40.959218333" lon="-5.741423333">
        <time>2022-06-28T11:52:58Z</time>
      </trkpt>
      <trkpt lat="40.959218333" lon="-5.741345000">
        <time>2022-06-28T11:52:59Z</time>
      </trkpt>
      <trkpt lat="40.959220000" lon="-5.741265000">
        <time>2022-06-28T11:53:00Z</time>
      </trkpt>
      <trkpt lat="40.959221667" lon="-5.741186667">
        <time>2022-06-28T11:53:01Z</time>
      </trkpt>
      <trkpt lat="40.959221667" lon="-5.741108333">
        <time>2022-06-28T11:53:02Z</time>
      </trkpt>
      <trkpt lat="40.959216667" lon="-5.741030000">
        <time>2022-06-28T11:53:03Z</time>
      </trkpt>
      <trkpt lat="40.959213333" lon="-5.740950000">
        <time>2022-06-28T11:53:04Z</time>
      </trkpt>
      <trkpt lat="40.959210000" lon="-5.740868333">
        <time>2022-06-28T11:53:05Z</time>
      </trkpt>
      <trkpt lat="40.959208333" lon="-5.740786667">
        <time>2022-06-28T11:53:06Z</time>
      </trkpt>
      <trkpt lat="40.959208333" lon="-5.740706667">
        <time>2022-06-28T11:53:07Z</time>
      </trkpt>
      <trkpt lat="40.959206667" lon="-5.740628333">
        <time>2022-06-28T11:53:08Z</time>
      </trkpt>
      <trkpt lat="40.959208333" lon="-5.740550000">
        <time>2022-06-28T11:53:09Z</time>
      </trkpt>
      <trkpt lat="40.959210000" lon="-5.740466667">
        <time>2022-06-28T11:53:10Z</time>
      </trkpt>
      <trkpt lat="40.959210000" lon="-5.740383333">
        <time>2022-06-28T11:53:11Z</time>
      </trkpt>
      <trkpt lat="40.959210000" lon="-5.740301667">
        <time>2022-06-28T11:53:12Z</time>
      </trkpt>
      <trkpt lat="40.959208333" lon="-5.740213333">
        <time>2022-06-28T11:53:13Z</time>
      </trkpt>
      <trkpt lat="40.959206667" lon="-5.740125000">
        <time>2022-06-28T11:53:14Z</time>
      </trkpt>
      <trkpt lat="40.959206667" lon="-5.740035000">
        <time>2022-06-28T11:53:15Z</time>
      </trkpt>
      <trkpt lat="40.959208333" lon="-5.739943333">
        <time>2022-06-28T11:53:16Z</time>
      </trkpt>
      <trkpt lat="40.959208333" lon="-5.739855000">
        <time>2022-06-28T11:53:17Z</time>
      </trkpt>
      <trkpt lat="40.959205000" lon="-5.739763333">
        <time>2022-06-28T11:53:18Z</time>
      </trkpt>
      <trkpt lat="40.959201667" lon="-5.739666667">
        <time>2022-06-28T11:53:19Z</time>
      </trkpt>
      <trkpt lat="40.959201667" lon="-5.739571667">
        <time>2022-06-28T11:53:20Z</time>
      </trkpt>
      <trkpt lat="40.959203333" lon="-5.739481667">
        <time>2022-06-28T11:53:21Z</time>
      </trkpt>
      <trkpt lat="40.959201667" lon="-5.739391667">
        <time>2022-06-28T11:53:22Z</time>
      </trkpt>
      <trkpt lat="40.959201667" lon="-5.739301667">
        <time>2022-06-28T11:53:23Z</time>
      </trkpt>
      <trkpt lat="40.959200000" lon="-5.739211667">
        <time>2022-06-28T11:53:24Z</time>
      </trkpt>
      <trkpt lat="40.959200000" lon="-5.739121667">
        <time>2022-06-28T11:53:25Z</time>
      </trkpt>
      <trkpt lat="40.959200000" lon="-5.739031667">
        <time>2022-06-28T11:53:26Z</time>
      </trkpt>
      <trkpt lat="40.959200000" lon="-5.738940000">
        <time>2022-06-28T11:53:27Z</time>
      </trkpt>
      <trkpt lat="40.959198333" lon="-5.738848333">
        <time>2022-06-28T11:53:28Z</time>
      </trkpt>
      <trkpt lat="40.959196667" lon="-5.738756667">
        <time>2022-06-28T11:53:29Z</time>
      </trkpt>
      <trkpt lat="40.959196667" lon="-5.738665000">
        <time>2022-06-28T11:53:30Z</time>
      </trkpt>
      <trkpt lat="40.959195000" lon="-5.738573333">
        <time>2022-06-28T11:53:31Z</time>
      </trkpt>
      <trkpt lat="40.959193333" lon="-5.738483333">
        <time>2022-06-28T11:53:32Z</time>
      </trkpt>
      <trkpt lat="40.959191667" lon="-5.738393333">
        <time>2022-06-28T11:53:33Z</time>
      </trkpt>
      <trkpt lat="40.959190000" lon="-5.738303333">
        <time>2022-06-28T11:53:34Z</time>
      </trkpt>
      <trkpt lat="40.959188333" lon="-5.738213333">
        <time>2022-06-28T11:53:35Z</time>
      </trkpt>
      <trkpt lat="40.959188333" lon="-5.738126667">
        <time>2022-06-28T11:53:36Z</time>
      </trkpt>
      <trkpt lat="40.959188333" lon="-5.738040000">
        <time>2022-06-28T11:53:37Z</time>
      </trkpt>
      <trkpt lat="40.959186667" lon="-5.737953333">
        <time>2022-06-28T11:53:38Z</time>
      </trkpt>
      <trkpt lat="40.959185000" lon="-5.737868333">
        <time>2022-06-28T11:53:39Z</time>
      </trkpt>
      <trkpt lat="40.959183333" lon="-5.737783333">
        <time>2022-06-28T11:53:40Z</time>
      </trkpt>
      <trkpt lat="40.959183333" lon="-5.737696667">
        <time>2022-06-28T11:53:41Z</time>
      </trkpt>
      <trkpt lat="40.959181667" lon="-5.737611667">
        <time>2022-06-28T11:53:42Z</time>
      </trkpt>
      <trkpt lat="40.959180000" lon="-5.737526667">
        <time>2022-06-28T11:53:43Z</time>
      </trkpt>
      <trkpt lat="40.959178333" lon="-5.737440000">
        <time>2022-06-28T11:53:44Z</time>
      </trkpt>
      <trkpt lat="40.959176667" lon="-5.737353333">
        <time>2022-06-28T11:53:45Z</time>
      </trkpt>
      <trkpt lat="40.959175000" lon="-5.737268333">
        <time>2022-06-28T11:53:46Z</time>
      </trkpt>
      <trkpt lat="40.959173333" lon="-5.737183333">
        <time>2022-06-28T11:53:47Z</time>
      </trkpt>
      <trkpt lat="40.959171667" lon="-5.737098333">
        <time>2022-06-28T11:53:48Z</time>
      </trkpt>
      <trkpt lat="40.959170000" lon="-5.737011667">
        <time>2022-06-28T11:53:49Z</time>
      </trkpt>
      <trkpt lat="40.959168333" lon="-5.736923333">
        <time>2022-06-28T11:53:50Z</time>
      </trkpt>
      <trkpt lat="40.959168333" lon="-5.736835000">
        <time>2022-06-28T11:53:51Z</time>
      </trkpt>
      <trkpt lat="40.959165000" lon="-5.736746667">
        <time>2022-06-28T11:53:52Z</time>
      </trkpt>
      <trkpt lat="40.959163333" lon="-5.736656667">
        <time>2022-06-28T11:53:53Z</time>
      </trkpt>
      <trkpt lat="40.959161667" lon="-5.736566667">
        <time>2022-06-28T11:53:54Z</time>
      </trkpt>
      <trkpt lat="40.959160000" lon="-5.736478333">
        <time>2022-06-28T11:53:55Z</time>
      </trkpt>
      <trkpt lat="40.959160000" lon="-5.736388333">
        <time>2022-06-28T11:53:56Z</time>
      </trkpt>
      <trkpt lat="40.959158333" lon="-5.736298333">
        <time>2022-06-28T11:53:57Z</time>
      </trkpt>
      <trkpt lat="40.959155000" lon="-5.736206667">
        <time>2022-06-28T11:53:58Z</time>
      </trkpt>
      <trkpt lat="40.959153333" lon="-5.736116667">
        <time>2022-06-28T11:53:59Z</time>
      </trkpt>
      <trkpt lat="40.959153333" lon="-5.736026667">
        <time>2022-06-28T11:54:00Z</time>
      </trkpt>
      <trkpt lat="40.959148333" lon="-5.735941667">
        <time>2022-06-28T11:54:01Z</time>
      </trkpt>
      <trkpt lat="40.959146667" lon="-5.735853333">
        <time>2022-06-28T11:54:02Z</time>
      </trkpt>
      <trkpt lat="40.959145000" lon="-5.735766667">
        <time>2022-06-28T11:54:03Z</time>
      </trkpt>
      <trkpt lat="40.959145000" lon="-5.735681667">
        <time>2022-06-28T11:54:04Z</time>
      </trkpt>
      <trkpt lat="40.959143333" lon="-5.735595000">
        <time>2022-06-28T11:54:05Z</time>
      </trkpt>
      <trkpt lat="40.959141667" lon="-5.735508333">
        <time>2022-06-28T11:54:06Z</time>
      </trkpt>
      <trkpt lat="40.959140000" lon="-5.735421667">
        <time>2022-06-28T11:54:07Z</time>
      </trkpt>
      <trkpt lat="40.959140000" lon="-5.735335000">
        <time>2022-06-28T11:54:08Z</time>
      </trkpt>
      <trkpt lat="40.959136667" lon="-5.735246667">
        <time>2022-06-28T11:54:09Z</time>
      </trkpt>
      <trkpt lat="40.959136667" lon="-5.735158333">
        <time>2022-06-28T11:54:10Z</time>
      </trkpt>
      <trkpt lat="40.959135000" lon="-5.735071667">
        <time>2022-06-28T11:54:11Z</time>
      </trkpt>
      <trkpt lat="40.959133333" lon="-5.734983333">
        <time>2022-06-28T11:54:12Z</time>
      </trkpt>
      <trkpt lat="40.959131667" lon="-5.734893333">
        <time>2022-06-28T11:54:13Z</time>
      </trkpt>
      <trkpt lat="40.959131667" lon="-5.734805000">
        <time>2022-06-28T11:54:14Z</time>
      </trkpt>
      <trkpt lat="40.959130000" lon="-5.734716667">
        <time>2022-06-28T11:54:15Z</time>
      </trkpt>
      <trkpt lat="40.959128333" lon="-5.734628333">
        <time>2022-06-28T11:54:16Z</time>
      </trkpt>
      <trkpt lat="40.959126667" lon="-5.734540000">
        <time>2022-06-28T11:54:17Z</time>
      </trkpt>
      <trkpt lat="40.959125000" lon="-5.734451667">
        <time>2022-06-28T11:54:18Z</time>
      </trkpt>
      <trkpt lat="40.959123333" lon="-5.734363333">
        <time>2022-06-28T11:54:19Z</time>
      </trkpt>
      <trkpt lat="40.959123333" lon="-5.734273333">
        <time>2022-06-28T11:54:20Z</time>
      </trkpt>
      <trkpt lat="40.959121667" lon="-5.734185000">
        <time>2022-06-28T11:54:21Z</time>
      </trkpt>
      <trkpt lat="40.959120000" lon="-5.734096667">
        <time>2022-06-28T11:54:22Z</time>
      </trkpt>
      <trkpt lat="40.959118333" lon="-5.734008333">
        <time>2022-06-28T11:54:23Z</time>
      </trkpt>
      <trkpt lat="40.959116667" lon="-5.733923333">
        <time>2022-06-28T11:54:24Z</time>
      </trkpt>
      <trkpt lat="40.959115000" lon="-5.733836667">
        <time>2022-06-28T11:54:25Z</time>
      </trkpt>
      <trkpt lat="40.959115000" lon="-5.733751667">
        <time>2022-06-28T11:54:26Z</time>
      </trkpt>
      <trkpt lat="40.959113333" lon="-5.733666667">
        <time>2022-06-28T11:54:27Z</time>
      </trkpt>
      <trkpt lat="40.959110000" lon="-5.733583333">
        <time>2022-06-28T11:54:28Z</time>
      </trkpt>
      <trkpt lat="40.959110000" lon="-5.733496667">
        <time>2022-06-28T11:54:29Z</time>
      </trkpt>
      <trkpt lat="40.959111667" lon="-5.733408333">
        <time>2022-06-28T11:54:30Z</time>
      </trkpt>
      <trkpt lat="40.959110000" lon="-5.733323333">
        <time>2022-06-28T11:54:31Z</time>
      </trkpt>
      <trkpt lat="40.959110000" lon="-5.733240000">
        <time>2022-06-28T11:54:32Z</time>
      </trkpt>
      <trkpt lat="40.959108333" lon="-5.733156667">
        <time>2022-06-28T11:54:33Z</time>
      </trkpt>
      <trkpt lat="40.959106667" lon="-5.733071667">
        <time>2022-06-28T11:54:34Z</time>
      </trkpt>
      <trkpt lat="40.959105000" lon="-5.732986667">
        <time>2022-06-28T11:54:35Z</time>
      </trkpt>
      <trkpt lat="40.959105000" lon="-5.732905000">
        <time>2022-06-28T11:54:36Z</time>
      </trkpt>
      <trkpt lat="40.959108333" lon="-5.732823333">
        <time>2022-06-28T11:54:37Z</time>
      </trkpt>
      <trkpt lat="40.959108333" lon="-5.732735000">
        <time>2022-06-28T11:54:38Z</time>
      </trkpt>
      <trkpt lat="40.959105000" lon="-5.732648333">
        <time>2022-06-28T11:54:39Z</time>
      </trkpt>
      <trkpt lat="40.959103333" lon="-5.732563333">
        <time>2022-06-28T11:54:40Z</time>
      </trkpt>
      <trkpt lat="40.959100000" lon="-5.732480000">
        <time>2022-06-28T11:54:41Z</time>
      </trkpt>
      <trkpt lat="40.959100000" lon="-5.732396667">
        <time>2022-06-28T11:54:42Z</time>
      </trkpt>
      <trkpt lat="40.959098333" lon="-5.732311667">
        <time>2022-06-28T11:54:43Z</time>
      </trkpt>
      <trkpt lat="40.959096667" lon="-5.732230000">
        <time>2022-06-28T11:54:44Z</time>
      </trkpt>
      <trkpt lat="40.959093333" lon="-5.732146667">
        <time>2022-06-28T11:54:45Z</time>
      </trkpt>
      <trkpt lat="40.959093333" lon="-5.732065000">
        <time>2022-06-28T11:54:46Z</time>
      </trkpt>
      <trkpt lat="40.959091667" lon="-5.731981667">
        <time>2022-06-28T11:54:47Z</time>
      </trkpt>
      <trkpt lat="40.959090000" lon="-5.731901667">
        <time>2022-06-28T11:54:48Z</time>
      </trkpt>
      <trkpt lat="40.959088333" lon="-5.731820000">
        <time>2022-06-28T11:54:49Z</time>
      </trkpt>
      <trkpt lat="40.959088333" lon="-5.731736667">
        <time>2022-06-28T11:54:50Z</time>
      </trkpt>
      <trkpt lat="40.959088333" lon="-5.731651667">
        <time>2022-06-28T11:54:51Z</time>
      </trkpt>
      <trkpt lat="40.959088333" lon="-5.731566667">
        <time>2022-06-28T11:54:52Z</time>
      </trkpt>
      <trkpt lat="40.959086667" lon="-5.731478333">
        <time>2022-06-28T11:54:53Z</time>
      </trkpt>
      <trkpt lat="40.959085000" lon="-5.731388333">
        <time>2022-06-28T11:54:54Z</time>
      </trkpt>
      <trkpt lat="40.959083333" lon="-5.731296667">
        <time>2022-06-28T11:54:55Z</time>
      </trkpt>
      <trkpt lat="40.959083333" lon="-5.731203333">
        <time>2022-06-28T11:54:56Z</time>
      </trkpt>
      <trkpt lat="40.959081667" lon="-5.731110000">
        <time>2022-06-28T11:54:57Z</time>
      </trkpt>
      <trkpt lat="40.959080000" lon="-5.731013333">
        <time>2022-06-28T11:54:58Z</time>
      </trkpt>
      <trkpt lat="40.959078333" lon="-5.730915000">
        <time>2022-06-28T11:54:59Z</time>
      </trkpt>
      <trkpt lat="40.959078333" lon="-5.730815000">
        <time>2022-06-28T11:55:00Z</time>
      </trkpt>
      <trkpt lat="40.959076667" lon="-5.730715000">
        <time>2022-06-28T11:55:01Z</time>
      </trkpt>
      <trkpt lat="40.959075000" lon="-5.730613333">
        <time>2022-06-28T11:55:02Z</time>
      </trkpt>
      <trkpt lat="40.959073333" lon="-5.730510000">
        <time>2022-06-28T11:55:03Z</time>
      </trkpt>
      <trkpt lat="40.959071667" lon="-5.730405000">
        <time>2022-06-28T11:55:04Z</time>
      </trkpt>
      <trkpt lat="40.959071667" lon="-5.730300000">
        <time>2022-06-28T11:55:05Z</time>
      </trkpt>
      <trkpt lat="40.959068333" lon="-5.730195000">
        <time>2022-06-28T11:55:06Z</time>
      </trkpt>
      <trkpt lat="40.959068333" lon="-5.730086667">
        <time>2022-06-28T11:55:07Z</time>
      </trkpt>
      <trkpt lat="40.959066667" lon="-5.729980000">
        <time>2022-06-28T11:55:08Z</time>
      </trkpt>
      <trkpt lat="40.959065000" lon="-5.729871667">
        <time>2022-06-28T11:55:09Z</time>
      </trkpt>
      <trkpt lat="40.959061667" lon="-5.729768333">
        <time>2022-06-28T11:55:10Z</time>
      </trkpt>
      <trkpt lat="40.959055000" lon="-5.729666667">
        <time>2022-06-28T11:55:11Z</time>
      </trkpt>
      <trkpt lat="40.959041667" lon="-5.729568333">
        <time>2022-06-28T11:55:12Z</time>
      </trkpt>
      <trkpt lat="40.959020000" lon="-5.729470000">
        <time>2022-06-28T11:55:13Z</time>
      </trkpt>
      <trkpt lat="40.958991667" lon="-5.729375000">
        <time>2022-06-28T11:55:14Z</time>
      </trkpt>
      <trkpt lat="40.958956667" lon="-5.729285000">
        <time>2022-06-28T11:55:15Z</time>
      </trkpt>
      <trkpt lat="40.958915000" lon="-5.729198333">
        <time>2022-06-28T11:55:16Z</time>
      </trkpt>
      <trkpt lat="40.958871667" lon="-5.729115000">
        <time>2022-06-28T11:55:17Z</time>
      </trkpt>
      <trkpt lat="40.958833333" lon="-5.729028333">
        <time>2022-06-28T11:55:18Z</time>
      </trkpt>
      <trkpt lat="40.958808333" lon="-5.728938333">
        <time>2022-06-28T11:55:19Z</time>
      </trkpt>
      <trkpt lat="40.958800000" lon="-5.728843333">
        <time>2022-06-28T11:55:20Z</time>
      </trkpt>
      <trkpt lat="40.958815000" lon="-5.728751667">
        <time>2022-06-28T11:55:21Z</time>
      </trkpt>
      <trkpt lat="40.958845000" lon="-5.728666667">
        <time>2022-06-28T11:55:22Z</time>
      </trkpt>
      <trkpt lat="40.958881667" lon="-5.728585000">
        <time>2022-06-28T11:55:23Z</time>
      </trkpt>
      <trkpt lat="40.958916667" lon="-5.728500000">
        <time>2022-06-28T11:55:24Z</time>
      </trkpt>
      <trkpt lat="40.958948333" lon="-5.728413333">
        <time>2022-06-28T11:55:25Z</time>
      </trkpt>
      <trkpt lat="40.958973333" lon="-5.728323333">
        <time>2022-06-28T11:55:26Z</time>
      </trkpt>
      <trkpt lat="40.958990000" lon="-5.728230000">
        <time>2022-06-28T11:55:27Z</time>
      </trkpt>
      <trkpt lat="40.958998333" lon="-5.728136667">
        <time>2022-06-28T11:55:28Z</time>
      </trkpt>
      <trkpt lat="40.959000000" lon="-5.728041667">
        <time>2022-06-28T11:55:29Z</time>
      </trkpt>
      <trkpt lat="40.959001667" lon="-5.727946667">
        <time>2022-06-28T11:55:30Z</time>
      </trkpt>
      <trkpt lat="40.959003333" lon="-5.727850000">
        <time>2022-06-28T11:55:31Z</time>
      </trkpt>
      <trkpt lat="40.959003333" lon="-5.727755000">
        <time>2022-06-28T11:55:32Z</time>
      </trkpt>
      <trkpt lat="40.959003333" lon="-5.727660000">
        <time>2022-06-28T11:55:33Z</time>
      </trkpt>
      <trkpt lat="40.959003333" lon="-5.727565000">
        <time>2022-06-28T11:55:34Z</time>
      </trkpt>
      <trkpt lat="40.959005000" lon="-5.727471667">
        <time>2022-06-28T11:55:35Z</time>
      </trkpt>
      <trkpt lat="40.959006667" lon="-5.727378333">
        <time>2022-06-28T11:55:36Z</time>
      </trkpt>
      <trkpt lat="40.959006667" lon="-5.727285000">
        <time>2022-06-28T11:55:37Z</time>
      </trkpt>
      <trkpt lat="40.959008333" lon="-5.727193333">
        <time>2022-06-28T11:55:38Z</time>
      </trkpt>
      <trkpt lat="40.959008333" lon="-5.727101667">
        <time>2022-06-28T11:55:39Z</time>
      </trkpt>
      <trkpt lat="40.959008333" lon="-5.727011667">
        <time>2022-06-28T11:55:40Z</time>
      </trkpt>
      <trkpt lat="40.959008333" lon="-5.726921667">
        <time>2022-06-28T11:55:41Z</time>
      </trkpt>
      <trkpt lat="40.959008333" lon="-5.726833333">
        <time>2022-06-28T11:55:42Z</time>
      </trkpt>
      <trkpt lat="40.959010000" lon="-5.726745000">
        <time>2022-06-28T11:55:43Z</time>
      </trkpt>
      <trkpt lat="40.959008333" lon="-5.726656667">
        <time>2022-06-28T11:55:44Z</time>
      </trkpt>
      <trkpt lat="40.959008333" lon="-5.726568333">
        <time>2022-06-28T11:55:45Z</time>
      </trkpt>
      <trkpt lat="40.959006667" lon="-5.726480000">
        <time>2022-06-28T11:55:46Z</time>
      </trkpt>
      <trkpt lat="40.959005000" lon="-5.726391667">
        <time>2022-06-28T11:55:47Z</time>
      </trkpt>
      <trkpt lat="40.959001667" lon="-5.726303333">
        <time>2022-06-28T11:55:48Z</time>
      </trkpt>
      <trkpt lat="40.959000000" lon="-5.726216667">
        <time>2022-06-28T11:55:49Z</time>
      </trkpt>
      <trkpt lat="40.959000000" lon="-5.726130000">
        <time>2022-06-28T11:55:50Z</time>
      </trkpt>
      <trkpt lat="40.958998333" lon="-5.726043333">
        <time>2022-06-28T11:55:51Z</time>
      </trkpt>
      <trkpt lat="40.958995000" lon="-5.725958333">
        <time>2022-06-28T11:55:52Z</time>
      </trkpt>
      <trkpt lat="40.958991667" lon="-5.725875000">
        <time>2022-06-28T11:55:53Z</time>
      </trkpt>
      <trkpt lat="40.958990000" lon="-5.725791667">
        <time>2022-06-28T11:55:54Z</time>
      </trkpt>
      <trkpt lat="40.958986667" lon="-5.725708333">
        <time>2022-06-28T11:55:55Z</time>
      </trkpt>
      <trkpt lat="40.958986667" lon="-5.725626667">
        <time>2022-06-28T11:55:56Z</time>
      </trkpt>
      <trkpt lat="40.958983333" lon="-5.725545000">
        <time>2022-06-28T11:55:57Z</time>
      </trkpt>
      <trkpt lat="40.958978333" lon="-5.725465000">
        <time>2022-06-28T11:55:58Z</time>
      </trkpt>
      <trkpt lat="40.958976667" lon="-5.725385000">
        <time>2022-06-28T11:55:59Z</time>
      </trkpt>
      <trkpt lat="40.958973333" lon="-5.725305000">
        <time>2022-06-28T11:56:00Z</time>
      </trkpt>
      <trkpt lat="40.958970000" lon="-5.725223333">
        <time>2022-06-28T11:56:01Z</time>
      </trkpt>
      <trkpt lat="40.958966667" lon="-5.725143333">
        <time>2022-06-28T11:56:02Z</time>
      </trkpt>
      <trkpt lat="40.958963333" lon="-5.725061667">
        <time>2022-06-28T11:56:03Z</time>
      </trkpt>
      <trkpt lat="40.958960000" lon="-5.724981667">
        <time>2022-06-28T11:56:04Z</time>
      </trkpt>
      <trkpt lat="40.958958333" lon="-5.724903333">
        <time>2022-06-28T11:56:05Z</time>
      </trkpt>
      <trkpt lat="40.958955000" lon="-5.724825000">
        <time>2022-06-28T11:56:06Z</time>
      </trkpt>
      <trkpt lat="40.958951667" lon="-5.724746667">
        <time>2022-06-28T11:56:07Z</time>
      </trkpt>
      <trkpt lat="40.958946667" lon="-5.724670000">
        <time>2022-06-28T11:56:08Z</time>
      </trkpt>
      <trkpt lat="40.958943333" lon="-5.724593333">
        <time>2022-06-28T11:56:09Z</time>
      </trkpt>
      <trkpt lat="40.958940000" lon="-5.724518333">
        <time>2022-06-28T11:56:10Z</time>
      </trkpt>
      <trkpt lat="40.958935000" lon="-5.724443333">
        <time>2022-06-28T11:56:11Z</time>
      </trkpt>
      <trkpt lat="40.958931667" lon="-5.724366667">
        <time>2022-06-28T11:56:12Z</time>
      </trkpt>
      <trkpt lat="40.958928333" lon="-5.724291667">
        <time>2022-06-28T11:56:13Z</time>
      </trkpt>
      <trkpt lat="40.958925000" lon="-5.724216667">
        <time>2022-06-28T11:56:14Z</time>
      </trkpt>
      <trkpt lat="40.958918333" lon="-5.724141667">
        <time>2022-06-28T11:56:15Z</time>
      </trkpt>
      <trkpt lat="40.958908333" lon="-5.724068333">
        <time>2022-06-28T11:56:16Z</time>
      </trkpt>
      <trkpt lat="40.958895000" lon="-5.723995000">
        <time>2022-06-28T11:56:17Z</time>
      </trkpt>
      <trkpt lat="40.958875000" lon="-5.723923333">
        <time>2022-06-28T11:56:18Z</time>
      </trkpt>
      <trkpt lat="40.958848333" lon="-5.723855000">
        <time>2022-06-28T11:56:19Z</time>
      </trkpt>
      <trkpt lat="40.958815000" lon="-5.723790000">
        <time>2022-06-28T11:56:20Z</time>
      </trkpt>
      <trkpt lat="40.958781667" lon="-5.723726667">
        <time>2022-06-28T11:56:21Z</time>
      </trkpt>
      <trkpt lat="40.958751667" lon="-5.723660000">
        <time>2022-06-28T11:56:22Z</time>
      </trkpt>
      <trkpt lat="40.958726667" lon="-5.723590000">
        <time>2022-06-28T11:56:23Z</time>
      </trkpt>
      <trkpt lat="40.958710000" lon="-5.723515000">
        <time>2022-06-28T11:56:24Z</time>
      </trkpt>
      <trkpt lat="40.958708333" lon="-5.723436667">
        <time>2022-06-28T11:56:25Z</time>
      </trkpt>
      <trkpt lat="40.958721667" lon="-5.723358333">
        <time>2022-06-28T11:56:26Z</time>
      </trkpt>
      <trkpt lat="40.958743333" lon="-5.723281667">
        <time>2022-06-28T11:56:27Z</time>
      </trkpt>
      <trkpt lat="40.958771667" lon="-5.723205000">
        <time>2022-06-28T11:56:28Z</time>
      </trkpt>
      <trkpt lat="40.958800000" lon="-5.723130000">
        <time>2022-06-28T11:56:29Z</time>
      </trkpt>
      <trkpt lat="40.958828333" lon="-5.723053333">
        <time>2022-06-28T11:56:30Z</time>
      </trkpt>
      <trkpt lat="40.958851667" lon="-5.722976667">
        <time>2022-06-28T11:56:31Z</time>
      </trkpt>
      <trkpt lat="40.958870000" lon="-5.722898333">
        <time>2022-06-28T11:56:32Z</time>
      </trkpt>
      <trkpt lat="40.958883333" lon="-5.722820000">
        <time>2022-06-28T11:56:33Z</time>
      </trkpt>
      <trkpt lat="40.958891667" lon="-5.722741667">
        <time>2022-06-28T11:56:34Z</time>
      </trkpt>
      <trkpt lat="40.958895000" lon="-5.722665000">
        <time>2022-06-28T11:56:35Z</time>
      </trkpt>
      <trkpt lat="40.958895000" lon="-5.722586667">
        <time>2022-06-28T11:56:36Z</time>
      </trkpt>
      <trkpt lat="40.958895000" lon="-5.722510000">
        <time>2022-06-28T11:56:37Z</time>
      </trkpt>
      <trkpt lat="40.958896667" lon="-5.722433333">
        <time>2022-06-28T11:56:38Z</time>
      </trkpt>
      <trkpt lat="40.958898333" lon="-5.722358333">
        <time>2022-06-28T11:56:39Z</time>
      </trkpt>
      <trkpt lat="40.958900000" lon="-5.722283333">
        <time>2022-06-28T11:56:40Z</time>
      </trkpt>
      <trkpt lat="40.958900000" lon="-5.722208333">
        <time>2022-06-28T11:56:41Z</time>
      </trkpt>
      <trkpt lat="40.958900000" lon="-5.722133333">
        <time>2022-06-28T11:56:42Z</time>
      </trkpt>
      <trkpt lat="40.958900000" lon="-5.722058333">
        <time>2022-06-28T11:56:43Z</time>
      </trkpt>
      <trkpt lat="40.958901667" lon="-5.721983333">
        <time>2022-06-28T11:56:44Z</time>
      </trkpt>
      <trkpt lat="40.958901667" lon="-5.721908333">
        <time>2022-06-28T11:56:45Z</time>
      </trkpt>
      <trkpt lat="40.958901667" lon="-5.721831667">
        <time>2022-06-28T11:56:46Z</time>
      </trkpt>
      <trkpt lat="40.958903333" lon="-5.721756667">
        <time>2022-06-28T11:56:47Z</time>
      </trkpt>
      <trkpt lat="40.958903333" lon="-5.721680000">
        <time>2022-06-28T11:56:48Z</time>
      </trkpt>
      <trkpt lat="40.958905000" lon="-5.721603333">
        <time>2022-06-28T11:56:49Z</time>
      </trkpt>
      <trkpt lat="40.958905000" lon="-5.721525000">
        <time>2022-06-28T11:56:50Z</time>
      </trkpt>
      <trkpt lat="40.958905000" lon="-5.721446667">
        <time>2022-06-28T11:56:51Z</time>
      </trkpt>
      <trkpt lat="40.958905000" lon="-5.721370000">
        <time>2022-06-28T11:56:52Z</time>
      </trkpt>
      <trkpt lat="40.958906667" lon="-5.721291667">
        <time>2022-06-28T11:56:53Z</time>
      </trkpt>
      <trkpt lat="40.958908333" lon="-5.721211667">
        <time>2022-06-28T11:56:54Z</time>
      </trkpt>
      <trkpt lat="40.958908333" lon="-5.721131667">
        <time>2022-06-28T11:56:55Z</time>
      </trkpt>
      <trkpt lat="40.958908333" lon="-5.721050000">
        <time>2022-06-28T11:56:56Z</time>
      </trkpt>
      <trkpt lat="40.958908333" lon="-5.720965000">
        <time>2022-06-28T11:56:57Z</time>
      </trkpt>
      <trkpt lat="40.958908333" lon="-5.720878333">
        <time>2022-06-28T11:56:58Z</time>
      </trkpt>
      <trkpt lat="40.958910000" lon="-5.720790000">
        <time>2022-06-28T11:56:59Z</time>
      </trkpt>
      <trkpt lat="40.958910000" lon="-5.720700000">
        <time>2022-06-28T11:57:00Z</time>
      </trkpt>
      <trkpt lat="40.958908333" lon="-5.720608333">
        <time>2022-06-28T11:57:01Z</time>
      </trkpt>
      <trkpt lat="40.958910000" lon="-5.720511667">
        <time>2022-06-28T11:57:02Z</time>
      </trkpt>
      <trkpt lat="40.958910000" lon="-5.720415000">
        <time>2022-06-28T11:57:03Z</time>
      </trkpt>
      <trkpt lat="40.958910000" lon="-5.720315000">
        <time>2022-06-28T11:57:04Z</time>
      </trkpt>
      <trkpt lat="40.958908333" lon="-5.720211667">
        <time>2022-06-28T11:57:05Z</time>
      </trkpt>
      <trkpt lat="40.958908333" lon="-5.720105000">
        <time>2022-06-28T11:57:06Z</time>
      </trkpt>
      <trkpt lat="40.958906667" lon="-5.719996667">
        <time>2022-06-28T11:57:07Z</time>
      </trkpt>
      <trkpt lat="40.958905000" lon="-5.719886667">
        <time>2022-06-28T11:57:08Z</time>
      </trkpt>
      <trkpt lat="40.958903333" lon="-5.719775000">
        <time>2022-06-28T11:57:09Z</time>
      </trkpt>
      <trkpt lat="40.958901667" lon="-5.719661667">
        <time>2022-06-28T11:57:10Z</time>
      </trkpt>
      <trkpt lat="40.958901667" lon="-5.719545000">
        <time>2022-06-28T11:57:11Z</time>
      </trkpt>
      <trkpt lat="40.958901667" lon="-5.719428333">
        <time>2022-06-28T11:57:12Z</time>
      </trkpt>
      <trkpt lat="40.958900000" lon="-5.719310000">
        <time>2022-06-28T11:57:13Z</time>
      </trkpt>
      <trkpt lat="40.958898333" lon="-5.719193333">
        <time>2022-06-28T11:57:14Z</time>
      </trkpt>
      <trkpt lat="40.958895000" lon="-5.719078333">
        <time>2022-06-28T11:57:15Z</time>
      </trkpt>
      <trkpt lat="40.958891667" lon="-5.718963333">
        <time>2022-06-28T11:57:16Z</time>
      </trkpt>
      <trkpt lat="40.958888333" lon="-5.718851667">
        <time>2022-06-28T11:57:17Z</time>
      </trkpt>
      <trkpt lat="40.958885000" lon="-5.718740000">
        <time>2022-06-28T11:57:18Z</time>
      </trkpt>
      <trkpt lat="40.958881667" lon="-5.718630000">
        <time>2022-06-28T11:57:19Z</time>
      </trkpt>
      <trkpt lat="40.958875000" lon="-5.718525000">
        <time>2022-06-28T11:57:20Z</time>
      </trkpt>
      <trkpt lat="40.958863333" lon="-5.718420000">
        <time>2022-06-28T11:57:21Z</time>
      </trkpt>
      <trkpt lat="40.958846667" lon="-5.718316667">
        <time>2022-06-28T11:57:22Z</time>
      </trkpt>
      <trkpt lat="40.958825000" lon="-5.718215000">
        <time>2022-06-28T11:57:23Z</time>
      </trkpt>
      <trkpt lat="40.958798333" lon="-5.718113333">
        <time>2022-06-28T11:57:24Z</time>
      </trkpt>
      <trkpt lat="40.958770000" lon="-5.718016667">
        <time>2022-06-28T11:57:25Z</time>
      </trkpt>
      <trkpt lat="40.958736667" lon="-5.717925000">
        <time>2022-06-28T11:57:26Z</time>
      </trkpt>
      <trkpt lat="40.958701667" lon="-5.717840000">
        <time>2022-06-28T11:57:27Z</time>
      </trkpt>
      <trkpt lat="40.958658333" lon="-5.717758333">
        <time>2022-06-28T11:57:28Z</time>
      </trkpt>
      <trkpt lat="40.958606667" lon="-5.717685000">
        <time>2022-06-28T11:57:29Z</time>
      </trkpt>
      <trkpt lat="40.958548333" lon="-5.717623333">
        <time>2022-06-28T11:57:30Z</time>
      </trkpt>
      <trkpt lat="40.958478333" lon="-5.717575000">
        <time>2022-06-28T11:57:31Z</time>
      </trkpt>
      <trkpt lat="40.958405000" lon="-5.717543333">
        <time>2022-06-28T11:57:32Z</time>
      </trkpt>
      <trkpt lat="40.958326667" lon="-5.717535000">
        <time>2022-06-28T11:57:33Z</time>
      </trkpt>
      <trkpt lat="40.958246667" lon="-5.717541667">
        <time>2022-06-28T11:57:34Z</time>
      </trkpt>
      <trkpt lat="40.958166667" lon="-5.717545000">
        <time>2022-06-28T11:57:35Z</time>
      </trkpt>
      <trkpt lat="40.958086667" lon="-5.717540000">
        <time>2022-06-28T11:57:36Z</time>
      </trkpt>
      <trkpt lat="40.958005000" lon="-5.717526667">
        <time>2022-06-28T11:57:37Z</time>
      </trkpt>
      <trkpt lat="40.957923333" lon="-5.717515000">
        <time>2022-06-28T11:57:38Z</time>
      </trkpt>
      <trkpt lat="40.957840000" lon="-5.717515000">
        <time>2022-06-28T11:57:39Z</time>
      </trkpt>
      <trkpt lat="40.957758333" lon="-5.717531667">
        <time>2022-06-28T11:57:40Z</time>
      </trkpt>
      <trkpt lat="40.957685000" lon="-5.717570000">
        <time>2022-06-28T11:57:41Z</time>
      </trkpt>
      <trkpt lat="40.957616667" lon="-5.717626667">
        <time>2022-06-28T11:57:42Z</time>
      </trkpt>
      <trkpt lat="40.957555000" lon="-5.717691667">
        <time>2022-06-28T11:57:43Z</time>
      </trkpt>
      <trkpt lat="40.957495000" lon="-5.717761667">
        <time>2022-06-28T11:57:44Z</time>
      </trkpt>
      <trkpt lat="40.957433333" lon="-5.717831667">
        <time>2022-06-28T11:57:45Z</time>
      </trkpt>
      <trkpt lat="40.957373333" lon="-5.717903333">
        <time>2022-06-28T11:57:46Z</time>
      </trkpt>
      <trkpt lat="40.957311667" lon="-5.717973333">
        <time>2022-06-28T11:57:47Z</time>
      </trkpt>
      <trkpt lat="40.957251667" lon="-5.718041667">
        <time>2022-06-28T11:57:48Z</time>
      </trkpt>
      <trkpt lat="40.957190000" lon="-5.718108333">
        <time>2022-06-28T11:57:49Z</time>
      </trkpt>
      <trkpt lat="40.957130000" lon="-5.718175000">
        <time>2022-06-28T11:57:50Z</time>
      </trkpt>
      <trkpt lat="40.957068333" lon="-5.718240000">
        <time>2022-06-28T11:57:51Z</time>
      </trkpt>
      <trkpt lat="40.957011667" lon="-5.718305000">
        <time>2022-06-28T11:57:52Z</time>
      </trkpt>
      <trkpt lat="40.956956667" lon="-5.718376667">
        <time>2022-06-28T11:57:53Z</time>
      </trkpt>
      <trkpt lat="40.956898333" lon="-5.718441667">
        <time>2022-06-28T11:57:54Z</time>
      </trkpt>
      <trkpt lat="40.956841667" lon="-5.718498333">
        <time>2022-06-28T11:57:55Z</time>
      </trkpt>
      <trkpt lat="40.956788333" lon="-5.718550000">
        <time>2022-06-28T11:57:56Z</time>
      </trkpt>
      <trkpt lat="40.956731667" lon="-5.718613333">
        <time>2022-06-28T11:57:57Z</time>
      </trkpt>
      <trkpt lat="40.956680000" lon="-5.718680000">
        <time>2022-06-28T11:57:58Z</time>
      </trkpt>
      <trkpt lat="40.956631667" lon="-5.718753333">
        <time>2022-06-28T11:57:59Z</time>
      </trkpt>
      <trkpt lat="40.956591667" lon="-5.718831667">
        <time>2022-06-28T11:58:00Z</time>
      </trkpt>
      <trkpt lat="40.956561667" lon="-5.718915000">
        <time>2022-06-28T11:58:01Z</time>
      </trkpt>
      <trkpt lat="40.956543333" lon="-5.719000000">
        <time>2022-06-28T11:58:02Z</time>
      </trkpt>
      <trkpt lat="40.956525000" lon="-5.719086667">
        <time>2022-06-28T11:58:03Z</time>
      </trkpt>
      <trkpt lat="40.956503333" lon="-5.719171667">
        <time>2022-06-28T11:58:04Z</time>
      </trkpt>
      <trkpt lat="40.956473333" lon="-5.719250000">
        <time>2022-06-28T11:58:05Z</time>
      </trkpt>
      <trkpt lat="40.956431667" lon="-5.719320000">
        <time>2022-06-28T11:58:06Z</time>
      </trkpt>
      <trkpt lat="40.956378333" lon="-5.719373333">
        <time>2022-06-28T11:58:07Z</time>
      </trkpt>
      <trkpt lat="40.956321667" lon="-5.719406667">
        <time>2022-06-28T11:58:08Z</time>
      </trkpt>
      <trkpt lat="40.956260000" lon="-5.719425000">
        <time>2022-06-28T11:58:09Z</time>
      </trkpt>
      <trkpt lat="40.956200000" lon="-5.719421667">
        <time>2022-06-28T11:58:10Z</time>
      </trkpt>
      <trkpt lat="40.956143333" lon="-5.719401667">
        <time>2022-06-28T11:58:11Z</time>
      </trkpt>
      <trkpt lat="40.956093333" lon="-5.719365000">
        <time>2022-06-28T11:58:12Z</time>
      </trkpt>
      <trkpt lat="40.956053333" lon="-5.719308333">
        <time>2022-06-28T11:58:13Z</time>
      </trkpt>
      <trkpt lat="40.956026667" lon="-5.719236667">
        <time>2022-06-28T11:58:14Z</time>
      </trkpt>
      <trkpt lat="40.956013333" lon="-5.719156667">
        <time>2022-06-28T11:58:15Z</time>
      </trkpt>
      <trkpt lat="40.956013333" lon="-5.719070000">
        <time>2022-06-28T11:58:16Z</time>
      </trkpt>
      <trkpt lat="40.956028333" lon="-5.718981667">
        <time>2022-06-28T11:58:17Z</time>
      </trkpt>
      <trkpt lat="40.956051667" lon="-5.718891667">
        <time>2022-06-28T11:58:18Z</time>
      </trkpt>
      <trkpt lat="40.956081667" lon="-5.718801667">
        <time>2022-06-28T11:58:19Z</time>
      </trkpt>
      <trkpt lat="40.956111667" lon="-5.718705000">
        <time>2022-06-28T11:58:20Z</time>
      </trkpt>
      <trkpt lat="40.956140000" lon="-5.718608333">
        <time>2022-06-28T11:58:21Z</time>
      </trkpt>
      <trkpt lat="40.956170000" lon="-5.718510000">
        <time>2022-06-28T11:58:22Z</time>
      </trkpt>
      <trkpt lat="40.956195000" lon="-5.718413333">
        <time>2022-06-28T11:58:23Z</time>
      </trkpt>
      <trkpt lat="40.956218333" lon="-5.718315000">
        <time>2022-06-28T11:58:24Z</time>
      </trkpt>
      <trkpt lat="40.956240000" lon="-5.718216667">
        <time>2022-06-28T11:58:25Z</time>
      </trkpt>
      <trkpt lat="40.956258333" lon="-5.718116667">
        <time>2022-06-28T11:58:26Z</time>
      </trkpt>
      <trkpt lat="40.956276667" lon="-5.718020000">
        <time>2022-06-28T11:58:27Z</time>
      </trkpt>
      <trkpt lat="40.956291667" lon="-5.717921667">
        <time>2022-06-28T11:58:28Z</time>
      </trkpt>
      <trkpt lat="40.956305000" lon="-5.717823333">
        <time>2022-06-28T11:58:29Z</time>
      </trkpt>
      <trkpt lat="40.956316667" lon="-5.717725000">
        <time>2022-06-28T11:58:30Z</time>
      </trkpt>
      <trkpt lat="40.956326667" lon="-5.717626667">
        <time>2022-06-28T11:58:31Z</time>
      </trkpt>
      <trkpt lat="40.956331667" lon="-5.717526667">
        <time>2022-06-28T11:58:32Z</time>
      </trkpt>
      <trkpt lat="40.956335000" lon="-5.717426667">
        <time>2022-06-28T11:58:33Z</time>
      </trkpt>
      <trkpt lat="40.956338333" lon="-5.717325000">
        <time>2022-06-28T11:58:34Z</time>
      </trkpt>
      <trkpt lat="40.956338333" lon="-5.717223333">
        <time>2022-06-28T11:58:35Z</time>
      </trkpt>
      <trkpt lat="40.956336667" lon="-5.717123333">
        <time>2022-06-28T11:58:36Z</time>
      </trkpt>
      <trkpt lat="40.956331667" lon="-5.717020000">
        <time>2022-06-28T11:58:37Z</time>
      </trkpt>
      <trkpt lat="40.956325000" lon="-5.716916667">
        <time>2022-06-28T11:58:38Z</time>
      </trkpt>
      <trkpt lat="40.956316667" lon="-5.716813333">
        <time>2022-06-28T11:58:39Z</time>
      </trkpt>
      <trkpt lat="40.956305000" lon="-5.716710000">
        <time>2022-06-28T11:58:40Z</time>
      </trkpt>
      <trkpt lat="40.956293333" lon="-5.716608333">
        <time>2022-06-28T11:58:41Z</time>
      </trkpt>
      <trkpt lat="40.956276667" lon="-5.716505000">
        <time>2022-06-28T11:58:42Z</time>
      </trkpt>
      <trkpt lat="40.956258333" lon="-5.716401667">
        <time>2022-06-28T11:58:43Z</time>
      </trkpt>
      <trkpt lat="40.956238333" lon="-5.716296667">
        <time>2022-06-28T11:58:44Z</time>
      </trkpt>
      <trkpt lat="40.956218333" lon="-5.716190000">
        <time>2022-06-28T11:58:45Z</time>
      </trkpt>
      <trkpt lat="40.956195000" lon="-5.716083333">
        <time>2022-06-28T11:58:46Z</time>
      </trkpt>
      <trkpt lat="40.956171667" lon="-5.715975000">
        <time>2022-06-28T11:58:47Z</time>
      </trkpt>
      <trkpt lat="40.956150000" lon="-5.715865000">
        <time>2022-06-28T11:58:48Z</time>
      </trkpt>
      <trkpt lat="40.956126667" lon="-5.715755000">
        <time>2022-06-28T11:58:49Z</time>
      </trkpt>
      <trkpt lat="40.956101667" lon="-5.715645000">
        <time>2022-06-28T11:58:50Z</time>
      </trkpt>
      <trkpt lat="40.956076667" lon="-5.715535000">
        <time>2022-06-28T11:58:51Z</time>
      </trkpt>
      <trkpt lat="40.956051667" lon="-5.715425000">
        <time>2022-06-28T11:58:52Z</time>
      </trkpt>
      <trkpt lat="40.956026667" lon="-5.715315000">
        <time>2022-06-28T11:58:53Z</time>
      </trkpt>
      <trkpt lat="40.956001667" lon="-5.715203333">
        <time>2022-06-28T11:58:54Z</time>
      </trkpt>
      <trkpt lat="40.955976667" lon="-5.715090000">
        <time>2022-06-28T11:58:55Z</time>
      </trkpt>
      <trkpt lat="40.955951667" lon="-5.714976667">
        <time>2022-06-28T11:58:56Z</time>
      </trkpt>
      <trkpt lat="40.955928333" lon="-5.714863333">
        <time>2022-06-28T11:58:57Z</time>
      </trkpt>
      <trkpt lat="40.955901667" lon="-5.714748333">
        <time>2022-06-28T11:58:58Z</time>
      </trkpt>
      <trkpt lat="40.955876667" lon="-5.714635000">
        <time>2022-06-28T11:58:59Z</time>
      </trkpt>
      <trkpt lat="40.955851667" lon="-5.714518333">
        <time>2022-06-28T11:59:00Z</time>
      </trkpt>
      <trkpt lat="40.955828333" lon="-5.714403333">
        <time>2022-06-28T11:59:01Z</time>
      </trkpt>
      <trkpt lat="40.955805000" lon="-5.714286667">
        <time>2022-06-28T11:59:02Z</time>
      </trkpt>
      <trkpt lat="40.955781667" lon="-5.714171667">
        <time>2022-06-28T11:59:03Z</time>
      </trkpt>
      <trkpt lat="40.955758333" lon="-5.714055000">
        <time>2022-06-28T11:59:04Z</time>
      </trkpt>
      <trkpt lat="40.955736667" lon="-5.713940000">
        <time>2022-06-28T11:59:05Z</time>
      </trkpt>
      <trkpt lat="40.955716667" lon="-5.713821667">
        <time>2022-06-28T11:59:06Z</time>
      </trkpt>
      <trkpt lat="40.955696667" lon="-5.713703333">
        <time>2022-06-28T11:59:07Z</time>
      </trkpt>
      <trkpt lat="40.955678333" lon="-5.713581667">
        <time>2022-06-28T11:59:08Z</time>
      </trkpt>
      <trkpt lat="40.955658333" lon="-5.713458333">
        <time>2022-06-28T11:59:09Z</time>
      </trkpt>
      <trkpt lat="40.955640000" lon="-5.713333333">
        <time>2022-06-28T11:59:10Z</time>
      </trkpt>
      <trkpt lat="40.955623333" lon="-5.713205000">
        <time>2022-06-28T11:59:11Z</time>
      </trkpt>
      <trkpt lat="40.955606667" lon="-5.713071667">
        <time>2022-06-28T11:59:12Z</time>
      </trkpt>
      <trkpt lat="40.955590000" lon="-5.712936667">
        <time>2022-06-28T11:59:13Z</time>
      </trkpt>
      <trkpt lat="40.955575000" lon="-5.712798333">
        <time>2022-06-28T11:59:14Z</time>
      </trkpt>
      <trkpt lat="40.955561667" lon="-5.712660000">
        <time>2022-06-28T11:59:15Z</time>
      </trkpt>
      <trkpt lat="40.955556667" lon="-5.712528333">
        <time>2022-06-28T11:59:16Z</time>
      </trkpt>
      <trkpt lat="40.955548333" lon="-5.712390000">
        <time>2022-06-28T11:59:17Z</time>
      </trkpt>
      <trkpt lat="40.955538333" lon="-5.712250000">
        <time>2022-06-28T11:59:18Z</time>
      </trkpt>
      <trkpt lat="40.955530000" lon="-5.712105000">
        <time>2022-06-28T11:59:19Z</time>
      </trkpt>
      <trkpt lat="40.955518333" lon="-5.711960000">
        <time>2022-06-28T11:59:20Z</time>
      </trkpt>
      <trkpt lat="40.955505000" lon="-5.711811667">
        <time>2022-06-28T11:59:21Z</time>
      </trkpt>
      <trkpt lat="40.955488333" lon="-5.711665000">
        <time>2022-06-28T11:59:22Z</time>
      </trkpt>
      <trkpt lat="40.955473333" lon="-5.711516667">
        <time>2022-06-28T11:59:23Z</time>
      </trkpt>
      <trkpt lat="40.955460000" lon="-5.711366667">
        <time>2022-06-28T11:59:24Z</time>
      </trkpt>
      <trkpt lat="40.955446667" lon="-5.711211667">
        <time>2022-06-28T11:59:25Z</time>
      </trkpt>
      <trkpt lat="40.955433333" lon="-5.711051667">
        <time>2022-06-28T11:59:26Z</time>
      </trkpt>
      <trkpt lat="40.955418333" lon="-5.710885000">
        <time>2022-06-28T11:59:27Z</time>
      </trkpt>
      <trkpt lat="40.955408333" lon="-5.710723333">
        <time>2022-06-28T11:59:28Z</time>
      </trkpt>
      <trkpt lat="40.955400000" lon="-5.710563333">
        <time>2022-06-28T11:59:29Z</time>
      </trkpt>
      <trkpt lat="40.955391667" lon="-5.710406667">
        <time>2022-06-28T11:59:30Z</time>
      </trkpt>
      <trkpt lat="40.955385000" lon="-5.710250000">
        <time>2022-06-28T11:59:31Z</time>
      </trkpt>
      <trkpt lat="40.955380000" lon="-5.710096667">
        <time>2022-06-28T11:59:32Z</time>
      </trkpt>
      <trkpt lat="40.955376667" lon="-5.709941667">
        <time>2022-06-28T11:59:33Z</time>
      </trkpt>
      <trkpt lat="40.955376667" lon="-5.709788333">
        <time>2022-06-28T11:59:34Z</time>
      </trkpt>
      <trkpt lat="40.955378333" lon="-5.709635000">
        <time>2022-06-28T11:59:35Z</time>
      </trkpt>
      <trkpt lat="40.955385000" lon="-5.709483333">
        <time>2022-06-28T11:59:36Z</time>
      </trkpt>
      <trkpt lat="40.955395000" lon="-5.709336667">
        <time>2022-06-28T11:59:37Z</time>
      </trkpt>
      <trkpt lat="40.955408333" lon="-5.709198333">
        <time>2022-06-28T11:59:38Z</time>
      </trkpt>
      <trkpt lat="40.955420000" lon="-5.709073333">
        <time>2022-06-28T11:59:39Z</time>
      </trkpt>
      <trkpt lat="40.955430000" lon="-5.708970000">
        <time>2022-06-28T11:59:40Z</time>
      </trkpt>
      <trkpt lat="40.955435000" lon="-5.708890000">
        <time>2022-06-28T11:59:41Z</time>
      </trkpt>
      <trkpt lat="40.955433333" lon="-5.708831667">
        <time>2022-06-28T11:59:42Z</time>
      </trkpt>
      <trkpt lat="40.955428333" lon="-5.708791667">
        <time>2022-06-28T11:59:43Z</time>
      </trkpt>
      <trkpt lat="40.955421667" lon="-5.708763333">
        <time>2022-06-28T11:59:44Z</time>
      </trkpt>
      <trkpt lat="40.955416667" lon="-5.708743333">
        <time>2022-06-28T11:59:45Z</time>
      </trkpt>
      <trkpt lat="40.955410000" lon="-5.708728333">
        <time>2022-06-28T11:59:46Z</time>
      </trkpt>
      <trkpt lat="40.955403333" lon="-5.708708333">
        <time>2022-06-28T11:59:47Z</time>
      </trkpt>
      <trkpt lat="40.955386667" lon="-5.708681667">
        <time>2022-06-28T11:59:48Z</time>
      </trkpt>
      <trkpt lat="40.955360000" lon="-5.708651667">
        <time>2022-06-28T11:59:49Z</time>
      </trkpt>
      <trkpt lat="40.955323333" lon="-5.708620000">
        <time>2022-06-28T11:59:50Z</time>
      </trkpt>
      <trkpt lat="40.955283333" lon="-5.708578333">
        <time>2022-06-28T11:59:51Z</time>
      </trkpt>
      <trkpt lat="40.955238333" lon="-5.708526667">
        <time>2022-06-28T11:59:52Z</time>
      </trkpt>
      <trkpt lat="40.955195000" lon="-5.708465000">
        <time>2022-06-28T11:59:53Z</time>
      </trkpt>
      <trkpt lat="40.955155000" lon="-5.708390000">
        <time>2022-06-28T11:59:54Z</time>
      </trkpt>
      <trkpt lat="40.955120000" lon="-5.708301667">
        <time>2022-06-28T11:59:55Z</time>
      </trkpt>
      <trkpt lat="40.955096667" lon="-5.708205000">
        <time>2022-06-28T11:59:56Z</time>
      </trkpt>
      <trkpt lat="40.955086667" lon="-5.708101667">
        <time>2022-06-28T11:59:57Z</time>
      </trkpt>
      <trkpt lat="40.955088333" lon="-5.707996667">
        <time>2022-06-28T11:59:58Z</time>
      </trkpt>
      <trkpt lat="40.955103333" lon="-5.707890000">
        <time>2022-06-28T11:59:59Z</time>
      </trkpt>
      <trkpt lat="40.955131667" lon="-5.707786667">
        <time>2022-06-28T12:00:00Z</time>
      </trkpt>
      <trkpt lat="40.955171667" lon="-5.707688333">
        <time>2022-06-28T12:00:01Z</time>
      </trkpt>
      <trkpt lat="40.955218333" lon="-5.707595000">
        <time>2022-06-28T12:00:02Z</time>
      </trkpt>
      <trkpt lat="40.955263333" lon="-5.707501667">
        <time>2022-06-28T12:00:03Z</time>
      </trkpt>
      <trkpt lat="40.955301667" lon="-5.707401667">
        <time>2022-06-28T12:00:04Z</time>
      </trkpt>
      <trkpt lat="40.955333333" lon="-5.707296667">
        <time>2022-06-28T12:00:05Z</time>
      </trkpt>
      <trkpt lat="40.955353333" lon="-5.707188333">
        <time>2022-06-28T12:00:06Z</time>
      </trkpt>
      <trkpt lat="40.955365000" lon="-5.707078333">
        <time>2022-06-28T12:00:07Z</time>
      </trkpt>
      <trkpt lat="40.955370000" lon="-5.706970000">
        <time>2022-06-28T12:00:08Z</time>
      </trkpt>
      <trkpt lat="40.955371667" lon="-5.706865000">
        <time>2022-06-28T12:00:09Z</time>
      </trkpt>
      <trkpt lat="40.955370000" lon="-5.706761667">
        <time>2022-06-28T12:00:10Z</time>
      </trkpt>
      <trkpt lat="40.955368333" lon="-5.706656667">
        <time>2022-06-28T12:00:11Z</time>
      </trkpt>
      <trkpt lat="40.955366667" lon="-5.706555000">
        <time>2022-06-28T12:00:12Z</time>
      </trkpt>
      <trkpt lat="40.955363333" lon="-5.706453333">
        <time>2022-06-28T12:00:13Z</time>
      </trkpt>
      <trkpt lat="40.955361667" lon="-5.706353333">
        <time>2022-06-28T12:00:14Z</time>
      </trkpt>
      <trkpt lat="40.955360000" lon="-5.706253333">
        <time>2022-06-28T12:00:15Z</time>
      </trkpt>
      <trkpt lat="40.955356667" lon="-5.706155000">
        <time>2022-06-28T12:00:16Z</time>
      </trkpt>
      <trkpt lat="40.955350000" lon="-5.706058333">
        <time>2022-06-28T12:00:17Z</time>
      </trkpt>
      <trkpt lat="40.955336667" lon="-5.705966667">
        <time>2022-06-28T12:00:18Z</time>
      </trkpt>
      <trkpt lat="40.955321667" lon="-5.705875000">
        <time>2022-06-28T12:00:19Z</time>
      </trkpt>
      <trkpt lat="40.955318333" lon="-5.705780000">
        <time>2022-06-28T12:00:20Z</time>
      </trkpt>
      <trkpt lat="40.955323333" lon="-5.705686667">
        <time>2022-06-28T12:00:21Z</time>
      </trkpt>
      <trkpt lat="40.955333333" lon="-5.705590000">
        <time>2022-06-28T12:00:22Z</time>
      </trkpt>
      <trkpt lat="40.955340000" lon="-5.705490000">
        <time>2022-06-28T12:00:23Z</time>
      </trkpt>
      <trkpt lat="40.955338333" lon="-5.705388333">
        <time>2022-06-28T12:00:24Z</time>
      </trkpt>
      <trkpt lat="40.955335000" lon="-5.705290000">
        <time>2022-06-28T12:00:25Z</time>
      </trkpt>
      <trkpt lat="40.955331667" lon="-5.705190000">
        <time>2022-06-28T12:00:26Z</time>
      </trkpt>
      <trkpt lat="40.955331667" lon="-5.705088333">
        <time>2022-06-28T12:00:27Z</time>
      </trkpt>
      <trkpt lat="40.955330000" lon="-5.704986667">
        <time>2022-06-28T12:00:28Z</time>
      </trkpt>
      <trkpt lat="40.955325000" lon="-5.704883333">
        <time>2022-06-28T12:00:29Z</time>
      </trkpt>
      <trkpt lat="40.955323333" lon="-5.704780000">
        <time>2022-06-28T12:00:30Z</time>
      </trkpt>
      <trkpt lat="40.955321667" lon="-5.704673333">
        <time>2022-06-28T12:00:31Z</time>
      </trkpt>
      <trkpt lat="40.955318333" lon="-5.704556667">
        <time>2022-06-28T12:00:32Z</time>
      </trkpt>
      <trkpt lat="40.955311667" lon="-5.704438333">
        <time>2022-06-28T12:00:33Z</time>
      </trkpt>
      <trkpt lat="40.955306667" lon="-5.704326667">
        <time>2022-06-28T12:00:34Z</time>
      </trkpt>
      <trkpt lat="40.955303333" lon="-5.704216667">
        <time>2022-06-28T12:00:35Z</time>
      </trkpt>
      <trkpt lat="40.955301667" lon="-5.704105000">
        <time>2022-06-28T12:00:36Z</time>
      </trkpt>
      <trkpt lat="40.955301667" lon="-5.703988333">
        <time>2022-06-28T12:00:37Z</time>
      </trkpt>
      <trkpt lat="40.955300000" lon="-5.703875000">
        <time>2022-06-28T12:00:38Z</time>
      </trkpt>
      <trkpt lat="40.955298333" lon="-5.703763333">
        <time>2022-06-28T12:00:39Z</time>
      </trkpt>
      <trkpt lat="40.955295000" lon="-5.703653333">
        <time>2022-06-28T12:00:40Z</time>
      </trkpt>
      <trkpt lat="40.955295000" lon="-5.703541667">
        <time>2022-06-28T12:00:41Z</time>
      </trkpt>
      <trkpt lat="40.955293333" lon="-5.703431667">
        <time>2022-06-28T12:00:42Z</time>
      </trkpt>
      <trkpt lat="40.955293333" lon="-5.703323333">
        <time>2022-06-28T12:00:43Z</time>
      </trkpt>
      <trkpt lat="40.955291667" lon="-5.703213333">
        <time>2022-06-28T12:00:44Z</time>
      </trkpt>
      <trkpt lat="40.955288333" lon="-5.703105000">
        <time>2022-06-28T12:00:45Z</time>
      </trkpt>
      <trkpt lat="40.955285000" lon="-5.702996667">
        <time>2022-06-28T12:00:46Z</time>
      </trkpt>
      <trkpt lat="40.955281667" lon="-5.702888333">
        <time>2022-06-28T12:00:47Z</time>
      </trkpt>
      <trkpt lat="40.955281667" lon="-5.702778333">
        <time>2022-06-28T12:00:48Z</time>
      </trkpt>
      <trkpt lat="40.955280000" lon="-5.702670000">
        <time>2022-06-28T12:00:49Z</time>
      </trkpt>
      <trkpt lat="40.955278333" lon="-5.702563333">
        <time>2022-06-28T12:00:50Z</time>
      </trkpt>
      <trkpt lat="40.955276667" lon="-5.702456667">
        <time>2022-06-28T12:00:51Z</time>
      </trkpt>
      <trkpt lat="40.955275000" lon="-5.702350000">
        <time>2022-06-28T12:00:52Z</time>
      </trkpt>
      <trkpt lat="40.955273333" lon="-5.702243333">
        <time>2022-06-28T12:00:53Z</time>
      </trkpt>
      <trkpt lat="40.955273333" lon="-5.702136667">
        <time>2022-06-28T12:00:54Z</time>
      </trkpt>
      <trkpt lat="40.955270000" lon="-5.702030000">
        <time>2022-06-28T12:00:55Z</time>
      </trkpt>
      <trkpt lat="40.955265000" lon="-5.701925000">
        <time>2022-06-28T12:00:56Z</time>
      </trkpt>
      <trkpt lat="40.955263333" lon="-5.701820000">
        <time>2022-06-28T12:00:57Z</time>
      </trkpt>
      <trkpt lat="40.955260000" lon="-5.701715000">
        <time>2022-06-28T12:00:58Z</time>
      </trkpt>
      <trkpt lat="40.955260000" lon="-5.701610000">
        <time>2022-06-28T12:00:59Z</time>
      </trkpt>
      <trkpt lat="40.955258333" lon="-5.701505000">
        <time>2022-06-28T12:01:00Z</time>
      </trkpt>
      <trkpt lat="40.955255000" lon="-5.701400000">
        <time>2022-06-28T12:01:01Z</time>
      </trkpt>
      <trkpt lat="40.955251667" lon="-5.701298333">
        <time>2022-06-28T12:01:02Z</time>
      </trkpt>
      <trkpt lat="40.955248333" lon="-5.701195000">
        <time>2022-06-28T12:01:03Z</time>
      </trkpt>
      <trkpt lat="40.955245000" lon="-5.701091667">
        <time>2022-06-28T12:01:04Z</time>
      </trkpt>
      <trkpt lat="40.955241667" lon="-5.700988333">
        <time>2022-06-28T12:01:05Z</time>
      </trkpt>
      <trkpt lat="40.955240000" lon="-5.700885000">
        <time>2022-06-28T12:01:06Z</time>
      </trkpt>
      <trkpt lat="40.955238333" lon="-5.700783333">
        <time>2022-06-28T12:01:07Z</time>
      </trkpt>
      <trkpt lat="40.955236667" lon="-5.700683333">
        <time>2022-06-28T12:01:08Z</time>
      </trkpt>
      <trkpt lat="40.955233333" lon="-5.700583333">
        <time>2022-06-28T12:01:09Z</time>
      </trkpt>
      <trkpt lat="40.955231667" lon="-5.700483333">
        <time>2022-06-28T12:01:10Z</time>
      </trkpt>
      <trkpt lat="40.955228333" lon="-5.700383333">
        <time>2022-06-28T12:01:11Z</time>
      </trkpt>
      <trkpt lat="40.955225000" lon="-5.700281667">
        <time>2022-06-28T12:01:12Z</time>
      </trkpt>
      <trkpt lat="40.955221667" lon="-5.700181667">
        <time>2022-06-28T12:01:13Z</time>
      </trkpt>
      <trkpt lat="40.955218333" lon="-5.700085000">
        <time>2022-06-28T12:01:14Z</time>
      </trkpt>
      <trkpt lat="40.955215000" lon="-5.699991667">
        <time>2022-06-28T12:01:15Z</time>
      </trkpt>
      <trkpt lat="40.955210000" lon="-5.699901667">
        <time>2022-06-28T12:01:16Z</time>
      </trkpt>
      <trkpt lat="40.955206667" lon="-5.699806667">
        <time>2022-06-28T12:01:17Z</time>
      </trkpt>
      <trkpt lat="40.955205000" lon="-5.699713333">
        <time>2022-06-28T12:01:18Z</time>
      </trkpt>
      <trkpt lat="40.955203333" lon="-5.699616667">
        <time>2022-06-28T12:01:19Z</time>
      </trkpt>
      <trkpt lat="40.955200000" lon="-5.699526667">
        <time>2022-06-28T12:01:20Z</time>
      </trkpt>
      <trkpt lat="40.955191667" lon="-5.699446667">
        <time>2022-06-28T12:01:21Z</time>
      </trkpt>
      <trkpt lat="40.955186667" lon="-5.699365000">
        <time>2022-06-28T12:01:22Z</time>
      </trkpt>
      <trkpt lat="40.955183333" lon="-5.699276667">
        <time>2022-06-28T12:01:23Z</time>
      </trkpt>
      <trkpt lat="40.955183333" lon="-5.699190000">
        <time>2022-06-28T12:01:24Z</time>
      </trkpt>
      <trkpt lat="40.955180000" lon="-5.699108333">
        <time>2022-06-28T12:01:25Z</time>
      </trkpt>
      <trkpt lat="40.955178333" lon="-5.699023333">
        <time>2022-06-28T12:01:26Z</time>
      </trkpt>
      <trkpt lat="40.955176667" lon="-5.698940000">
        <time>2022-06-28T12:01:27Z</time>
      </trkpt>
      <trkpt lat="40.955176667" lon="-5.698856667">
        <time>2022-06-28T12:01:28Z</time>
      </trkpt>
      <trkpt lat="40.955170000" lon="-5.698780000">
        <time>2022-06-28T12:01:29Z</time>
      </trkpt>
      <trkpt lat="40.955161667" lon="-5.698701667">
        <time>2022-06-28T12:01:30Z</time>
      </trkpt>
      <trkpt lat="40.955156667" lon="-5.698620000">
        <time>2022-06-28T12:01:31Z</time>
      </trkpt>
      <trkpt lat="40.955151667" lon="-5.698538333">
        <time>2022-06-28T12:01:32Z</time>
      </trkpt>
      <trkpt lat="40.955148333" lon="-5.698450000">
        <time>2022-06-28T12:01:33Z</time>
      </trkpt>
      <trkpt lat="40.955146667" lon="-5.698360000">
        <time>2022-06-28T12:01:34Z</time>
      </trkpt>
      <trkpt lat="40.955145000" lon="-5.698270000">
        <time>2022-06-28T12:01:35Z</time>
      </trkpt>
      <trkpt lat="40.955143333" lon="-5.698181667">
        <time>2022-06-28T12:01:36Z</time>
      </trkpt>
      <trkpt lat="40.955140000" lon="-5.698095000">
        <time>2022-06-28T12:01:37Z</time>
      </trkpt>
      <trkpt lat="40.955136667" lon="-5.698010000">
        <time>2022-06-28T12:01:38Z</time>
      </trkpt>
      <trkpt lat="40.955133333" lon="-5.697925000">
        <time>2022-06-28T12:01:39Z</time>
      </trkpt>
      <trkpt lat="40.955131667" lon="-5.697840000">
        <time>2022-06-28T12:01:40Z</time>
      </trkpt>
      <trkpt lat="40.955126667" lon="-5.697755000">
        <time>2022-06-28T12:01:41Z</time>
      </trkpt>
      <trkpt lat="40.955123333" lon="-5.697670000">
        <time>2022-06-28T12:01:42Z</time>
      </trkpt>
      <trkpt lat="40.955115000" lon="-5.697583333">
        <time>2022-06-28T12:01:43Z</time>
      </trkpt>
      <trkpt lat="40.955103333" lon="-5.697491667">
        <time>2022-06-28T12:01:44Z</time>
      </trkpt>
      <trkpt lat="40.955093333" lon="-5.697393333">
        <time>2022-06-28T12:01:45Z</time>
      </trkpt>
      <trkpt lat="40.955085000" lon="-5.697286667">
        <time>2022-06-28T12:01:46Z</time>
      </trkpt>
      <trkpt lat="40.955075000" lon="-5.697178333">
        <time>2022-06-28T12:01:47Z</time>
      </trkpt>
      <trkpt lat="40.955061667" lon="-5.697078333">
        <time>2022-06-28T12:01:48Z</time>
      </trkpt>
      <trkpt lat="40.955043333" lon="-5.696990000">
        <time>2022-06-28T12:01:49Z</time>
      </trkpt>
      <trkpt lat="40.955023333" lon="-5.696903333">
        <time>2022-06-28T12:01:50Z</time>
      </trkpt>
      <trkpt lat="40.955003333" lon="-5.696815000">
        <time>2022-06-28T12:01:51Z</time>
      </trkpt>
      <trkpt lat="40.954985000" lon="-5.696726667">
        <time>2022-06-28T12:01:52Z</time>
      </trkpt>
      <trkpt lat="40.954963333" lon="-5.696640000">
        <time>2022-06-28T12:01:53Z</time>
      </trkpt>
      <trkpt lat="40.954945000" lon="-5.696550000">
        <time>2022-06-28T12:01:54Z</time>
      </trkpt>
      <trkpt lat="40.954925000" lon="-5.696460000">
        <time>2022-06-28T12:01:55Z</time>
      </trkpt>
      <trkpt lat="40.954906667" lon="-5.696370000">
        <time>2022-06-28T12:01:56Z</time>
      </trkpt>
      <trkpt lat="40.954886667" lon="-5.696280000">
        <time>2022-06-28T12:01:57Z</time>
      </trkpt>
      <trkpt lat="40.954868333" lon="-5.696186667">
        <time>2022-06-28T12:01:58Z</time>
      </trkpt>
      <trkpt lat="40.954855000" lon="-5.696086667">
        <time>2022-06-28T12:01:59Z</time>
      </trkpt>
      <trkpt lat="40.954845000" lon="-5.695991667">
        <time>2022-06-28T12:02:00Z</time>
      </trkpt>
      <trkpt lat="40.954840000" lon="-5.695895000">
        <time>2022-06-28T12:02:01Z</time>
      </trkpt>
      <trkpt lat="40.954840000" lon="-5.695795000">
        <time>2022-06-28T12:02:02Z</time>
      </trkpt>
      <trkpt lat="40.954841667" lon="-5.695696667">
        <time>2022-06-28T12:02:03Z</time>
      </trkpt>
      <trkpt lat="40.954845000" lon="-5.695596667">
        <time>2022-06-28T12:02:04Z</time>
      </trkpt>
      <trkpt lat="40.954845000" lon="-5.695500000">
        <time>2022-06-28T12:02:05Z</time>
      </trkpt>
      <trkpt lat="40.954843333" lon="-5.695405000">
        <time>2022-06-28T12:02:06Z</time>
      </trkpt>
      <trkpt lat="40.954843333" lon="-5.695311667">
        <time>2022-06-28T12:02:07Z</time>
      </trkpt>
      <trkpt lat="40.954845000" lon="-5.695221667">
        <time>2022-06-28T12:02:08Z</time>
      </trkpt>
      <trkpt lat="40.954841667" lon="-5.695131667">
        <time>2022-06-28T12:02:09Z</time>
      </trkpt>
      <trkpt lat="40.954841667" lon="-5.695046667">
        <time>2022-06-28T12:02:10Z</time>
      </trkpt>
      <trkpt lat="40.954843333" lon="-5.694963333">
        <time>2022-06-28T12:02:11Z</time>
      </trkpt>
      <trkpt lat="40.954845000" lon="-5.694880000">
        <time>2022-06-28T12:02:12Z</time>
      </trkpt>
      <trkpt lat="40.954846667" lon="-5.694801667">
        <time>2022-06-28T12:02:13Z</time>
      </trkpt>
      <trkpt lat="40.954850000" lon="-5.694723333">
        <time>2022-06-28T12:02:14Z</time>
      </trkpt>
      <trkpt lat="40.954851667" lon="-5.694650000">
        <time>2022-06-28T12:02:15Z</time>
      </trkpt>
      <trkpt lat="40.954853333" lon="-5.694580000">
        <time>2022-06-28T12:02:16Z</time>
      </trkpt>
      <trkpt lat="40.954853333" lon="-5.694515000">
        <time>2022-06-28T12:02:17Z</time>
      </trkpt>
      <trkpt lat="40.954855000" lon="-5.694453333">
        <time>2022-06-28T12:02:18Z</time>
      </trkpt>
      <trkpt lat="40.954850000" lon="-5.694400000">
        <time>2022-06-28T12:02:19Z</time>
      </trkpt>
      <trkpt lat="40.954836667" lon="-5.694351667">
        <time>2022-06-28T12:02:20Z</time>
      </trkpt>
      <trkpt lat="40.954823333" lon="-5.694305000">
        <time>2022-06-28T12:02:21Z</time>
      </trkpt>
      <trkpt lat="40.954816667" lon="-5.694251667">
        <time>2022-06-28T12:02:22Z</time>
      </trkpt>
      <trkpt lat="40.954821667" lon="-5.694195000">
        <time>2022-06-28T12:02:23Z</time>
      </trkpt>
      <trkpt lat="40.954833333" lon="-5.694138333">
        <time>2022-06-28T12:02:24Z</time>
      </trkpt>
      <trkpt lat="40.954843333" lon="-5.694083333">
        <time>2022-06-28T12:02:25Z</time>
      </trkpt>
      <trkpt lat="40.954850000" lon="-5.694026667">
        <time>2022-06-28T12:02:26Z</time>
      </trkpt>
      <trkpt lat="40.954855000" lon="-5.693968333">
        <time>2022-06-28T12:02:27Z</time>
      </trkpt>
      <trkpt lat="40.954855000" lon="-5.693905000">
        <time>2022-06-28T12:02:28Z</time>
      </trkpt>
      <trkpt lat="40.954855000" lon="-5.693836667">
        <time>2022-06-28T12:02:29Z</time>
      </trkpt>
      <trkpt lat="40.954855000" lon="-5.693761667">
        <time>2022-06-28T12:02:30Z</time>
      </trkpt>
      <trkpt lat="40.954855000" lon="-5.693681667">
        <time>2022-06-28T12:02:31Z</time>
      </trkpt>
      <trkpt lat="40.954855000" lon="-5.693601667">
        <time>2022-06-28T12:02:32Z</time>
      </trkpt>
      <trkpt lat="40.954855000" lon="-5.693520000">
        <time>2022-06-28T12:02:33Z</time>
      </trkpt>
      <trkpt lat="40.954855000" lon="-5.693438333">
        <time>2022-06-28T12:02:34Z</time>
      </trkpt>
      <trkpt lat="40.954856667" lon="-5.693356667">
        <time>2022-06-28T12:02:35Z</time>
      </trkpt>
      <trkpt lat="40.954858333" lon="-5.693273333">
        <time>2022-06-28T12:02:36Z</time>
      </trkpt>
      <trkpt lat="40.954858333" lon="-5.693188333">
        <time>2022-06-28T12:02:37Z</time>
      </trkpt>
      <trkpt lat="40.954858333" lon="-5.693105000">
        <time>2022-06-28T12:02:38Z</time>
      </trkpt>
      <trkpt lat="40.954860000" lon="-5.693020000">
        <time>2022-06-28T12:02:39Z</time>
      </trkpt>
      <trkpt lat="40.954861667" lon="-5.692938333">
        <time>2022-06-28T12:02:40Z</time>
      </trkpt>
      <trkpt lat="40.954861667" lon="-5.692856667">
        <time>2022-06-28T12:02:41Z</time>
      </trkpt>
      <trkpt lat="40.954861667" lon="-5.692773333">
        <time>2022-06-28T12:02:42Z</time>
      </trkpt>
      <trkpt lat="40.954863333" lon="-5.692690000">
        <time>2022-06-28T12:02:43Z</time>
      </trkpt>
      <trkpt lat="40.954865000" lon="-5.692605000">
        <time>2022-06-28T12:02:44Z</time>
      </trkpt>
      <trkpt lat="40.954866667" lon="-5.692520000">
        <time>2022-06-28T12:02:45Z</time>
      </trkpt>
      <trkpt lat="40.954866667" lon="-5.692435000">
        <time>2022-06-28T12:02:46Z</time>
      </trkpt>
      <trkpt lat="40.954866667" lon="-5.692356667">
        <time>2022-06-28T12:02:47Z</time>
      </trkpt>
      <trkpt lat="40.954868333" lon="-5.692270000">
        <time>2022-06-28T12:02:48Z</time>
      </trkpt>
      <trkpt lat="40.954870000" lon="-5.692181667">
        <time>2022-06-28T12:02:49Z</time>
      </trkpt>
      <trkpt lat="40.954870000" lon="-5.692096667">
        <time>2022-06-28T12:02:50Z</time>
      </trkpt>
      <trkpt lat="40.954868333" lon="-5.692015000">
        <time>2022-06-28T12:02:51Z</time>
      </trkpt>
      <trkpt lat="40.954868333" lon="-5.691930000">
        <time>2022-06-28T12:02:52Z</time>
      </trkpt>
      <trkpt lat="40.954868333" lon="-5.691851667">
        <time>2022-06-28T12:02:53Z</time>
      </trkpt>
      <trkpt lat="40.954866667" lon="-5.691773333">
        <time>2022-06-28T12:02:54Z</time>
      </trkpt>
      <trkpt lat="40.954866667" lon="-5.691696667">
        <time>2022-06-28T12:02:55Z</time>
      </trkpt>
      <trkpt lat="40.954860000" lon="-5.691621667">
        <time>2022-06-28T12:02:56Z</time>
      </trkpt>
      <trkpt lat="40.954845000" lon="-5.691550000">
        <time>2022-06-28T12:02:57Z</time>
      </trkpt>
      <trkpt lat="40.954823333" lon="-5.691480000">
        <time>2022-06-28T12:02:58Z</time>
      </trkpt>
      <trkpt lat="40.954796667" lon="-5.691410000">
        <time>2022-06-28T12:02:59Z</time>
      </trkpt>
      <trkpt lat="40.954773333" lon="-5.691340000">
        <time>2022-06-28T12:03:00Z</time>
      </trkpt>
      <trkpt lat="40.954760000" lon="-5.691263333">
        <time>2022-06-28T12:03:01Z</time>
      </trkpt>
      <trkpt lat="40.954763333" lon="-5.691188333">
        <time>2022-06-28T12:03:02Z</time>
      </trkpt>
      <trkpt lat="40.954776667" lon="-5.691111667">
        <time>2022-06-28T12:03:03Z</time>
      </trkpt>
      <trkpt lat="40.954791667" lon="-5.691035000">
        <time>2022-06-28T12:03:04Z</time>
      </trkpt>
      <trkpt lat="40.954805000" lon="-5.690951667">
        <time>2022-06-28T12:03:05Z</time>
      </trkpt>
      <trkpt lat="40.954810000" lon="-5.690870000">
        <time>2022-06-28T12:03:06Z</time>
      </trkpt>
      <trkpt lat="40.954810000" lon="-5.690788333">
        <time>2022-06-28T12:03:07Z</time>
      </trkpt>
      <trkpt lat="40.954810000" lon="-5.690706667">
        <time>2022-06-28T12:03:08Z</time>
      </trkpt>
      <trkpt lat="40.954811667" lon="-5.690625000">
        <time>2022-06-28T12:03:09Z</time>
      </trkpt>
      <trkpt lat="40.954811667" lon="-5.690541667">
        <time>2022-06-28T12:03:10Z</time>
      </trkpt>
      <trkpt lat="40.954811667" lon="-5.690460000">
        <time>2022-06-28T12:03:11Z</time>
      </trkpt>
      <trkpt lat="40.954813333" lon="-5.690378333">
        <time>2022-06-28T12:03:12Z</time>
      </trkpt>
      <trkpt lat="40.954815000" lon="-5.690301667">
        <time>2022-06-28T12:03:13Z</time>
      </trkpt>
      <trkpt lat="40.954815000" lon="-5.690235000">
        <time>2022-06-28T12:03:14Z</time>
      </trkpt>
      <trkpt lat="40.954816667" lon="-5.690173333">
        <time>2022-06-28T12:03:15Z</time>
      </trkpt>
      <trkpt lat="40.954816667" lon="-5.690115000">
        <time>2022-06-28T12:03:16Z</time>
      </trkpt>
      <trkpt lat="40.954818333" lon="-5.690058333">
        <time>2022-06-28T12:03:17Z</time>
      </trkpt>
      <trkpt lat="40.954818333" lon="-5.690001667">
        <time>2022-06-28T12:03:18Z</time>
      </trkpt>
      <trkpt lat="40.954818333" lon="-5.689943333">
        <time>2022-06-28T12:03:19Z</time>
      </trkpt>
      <trkpt lat="40.954820000" lon="-5.689881667">
        <time>2022-06-28T12:03:20Z</time>
      </trkpt>
      <trkpt lat="40.954820000" lon="-5.689813333">
        <time>2022-06-28T12:03:21Z</time>
      </trkpt>
      <trkpt lat="40.954823333" lon="-5.689740000">
        <time>2022-06-28T12:03:22Z</time>
      </trkpt>
      <trkpt lat="40.954825000" lon="-5.689663333">
        <time>2022-06-28T12:03:23Z</time>
      </trkpt>
      <trkpt lat="40.954823333" lon="-5.689586667">
        <time>2022-06-28T12:03:24Z</time>
      </trkpt>
      <trkpt lat="40.954825000" lon="-5.689505000">
        <time>2022-06-28T12:03:25Z</time>
      </trkpt>
      <trkpt lat="40.954826667" lon="-5.689423333">
        <time>2022-06-28T12:03:26Z</time>
      </trkpt>
      <trkpt lat="40.954826667" lon="-5.689340000">
        <time>2022-06-28T12:03:27Z</time>
      </trkpt>
      <trkpt lat="40.954828333" lon="-5.689256667">
        <time>2022-06-28T12:03:28Z</time>
      </trkpt>
      <trkpt lat="40.954831667" lon="-5.689173333">
        <time>2022-06-28T12:03:29Z</time>
      </trkpt>
      <trkpt lat="40.954833333" lon="-5.689090000">
        <time>2022-06-28T12:03:30Z</time>
      </trkpt>
      <trkpt lat="40.954831667" lon="-5.689005000">
        <time>2022-06-28T12:03:31Z</time>
      </trkpt>
      <trkpt lat="40.954830000" lon="-5.688920000">
        <time>2022-06-28T12:03:32Z</time>
      </trkpt>
      <trkpt lat="40.954828333" lon="-5.688833333">
        <time>2022-06-28T12:03:33Z</time>
      </trkpt>
      <trkpt lat="40.954826667" lon="-5.688750000">
        <time>2022-06-28T12:03:34Z</time>
      </trkpt>
      <trkpt lat="40.954823333" lon="-5.688671667">
        <time>2022-06-28T12:03:35Z</time>
      </trkpt>
      <trkpt lat="40.954823333" lon="-5.688586667">
        <time>2022-06-28T12:03:36Z</time>
      </trkpt>
      <trkpt lat="40.954823333" lon="-5.688500000">
        <time>2022-06-28T12:03:37Z</time>
      </trkpt>
      <trkpt lat="40.954826667" lon="-5.688411667">
        <time>2022-06-28T12:03:38Z</time>
      </trkpt>
      <trkpt lat="40.954828333" lon="-5.688323333">
        <time>2022-06-28T12:03:39Z</time>
      </trkpt>
      <trkpt lat="40.954826667" lon="-5.688236667">
        <time>2022-06-28T12:03:40Z</time>
      </trkpt>
      <trkpt lat="40.954826667" lon="-5.688150000">
        <time>2022-06-28T12:03:41Z</time>
      </trkpt>
      <trkpt lat="40.954828333" lon="-5.688063333">
        <time>2022-06-28T12:03:42Z</time>
      </trkpt>
      <trkpt lat="40.954830000" lon="-5.687976667">
        <time>2022-06-28T12:03:43Z</time>
      </trkpt>
      <trkpt lat="40.954830000" lon="-5.687890000">
        <time>2022-06-28T12:03:44Z</time>
      </trkpt>
      <trkpt lat="40.954831667" lon="-5.687805000">
        <time>2022-06-28T12:03:45Z</time>
      </trkpt>
      <trkpt lat="40.954835000" lon="-5.687718333">
        <time>2022-06-28T12:03:46Z</time>
      </trkpt>
      <trkpt lat="40.954836667" lon="-5.687633333">
        <time>2022-06-28T12:03:47Z</time>
      </trkpt>
      <trkpt lat="40.954838333" lon="-5.687555000">
        <time>2022-06-28T12:03:48Z</time>
      </trkpt>
      <trkpt lat="40.954843333" lon="-5.687468333">
        <time>2022-06-28T12:03:49Z</time>
      </trkpt>
      <trkpt lat="40.954845000" lon="-5.687376667">
        <time>2022-06-28T12:03:50Z</time>
      </trkpt>
      <trkpt lat="40.954845000" lon="-5.687290000">
        <time>2022-06-28T12:03:51Z</time>
      </trkpt>
      <trkpt lat="40.954846667" lon="-5.687203333">
        <time>2022-06-28T12:03:52Z</time>
      </trkpt>
      <trkpt lat="40.954848333" lon="-5.687118333">
        <time>2022-06-28T12:03:53Z</time>
      </trkpt>
      <trkpt lat="40.954848333" lon="-5.687035000">
        <time>2022-06-28T12:03:54Z</time>
      </trkpt>
      <trkpt lat="40.954848333" lon="-5.686951667">
        <time>2022-06-28T12:03:55Z</time>
      </trkpt>
      <trkpt lat="40.954848333" lon="-5.686868333">
        <time>2022-06-28T12:03:56Z</time>
      </trkpt>
      <trkpt lat="40.954850000" lon="-5.686783333">
        <time>2022-06-28T12:03:57Z</time>
      </trkpt>
      <trkpt lat="40.954853333" lon="-5.686700000">
        <time>2022-06-28T12:03:58Z</time>
      </trkpt>
      <trkpt lat="40.954853333" lon="-5.686618333">
        <time>2022-06-28T12:03:59Z</time>
      </trkpt>
      <trkpt lat="40.954853333" lon="-5.686536667">
        <time>2022-06-28T12:04:00Z</time>
      </trkpt>
      <trkpt lat="40.954853333" lon="-5.686456667">
        <time>2022-06-28T12:04:01Z</time>
      </trkpt>
      <trkpt lat="40.954853333" lon="-5.686378333">
        <time>2022-06-28T12:04:02Z</time>
      </trkpt>
      <trkpt lat="40.954853333" lon="-5.686300000">
        <time>2022-06-28T12:04:03Z</time>
      </trkpt>
      <trkpt lat="40.954851667" lon="-5.686221667">
        <time>2022-06-28T12:04:04Z</time>
      </trkpt>
      <trkpt lat="40.954846667" lon="-5.686146667">
        <time>2022-06-28T12:04:05Z</time>
      </trkpt>
      <trkpt lat="40.954836667" lon="-5.686070000">
        <time>2022-06-28T12:04:06Z</time>
      </trkpt>
      <trkpt lat="40.954820000" lon="-5.685996667">
        <time>2022-06-28T12:04:07Z</time>
      </trkpt>
      <trkpt lat="40.954805000" lon="-5.685921667">
        <time>2022-06-28T12:04:08Z</time>
      </trkpt>
      <trkpt lat="40.954798333" lon="-5.685846667">
        <time>2022-06-28T12:04:09Z</time>
      </trkpt>
      <trkpt lat="40.954801667" lon="-5.685770000">
        <time>2022-06-28T12:04:10Z</time>
      </trkpt>
      <trkpt lat="40.954813333" lon="-5.685693333">
        <time>2022-06-28T12:04:11Z</time>
      </trkpt>
      <trkpt lat="40.954830000" lon="-5.685620000">
        <time>2022-06-28T12:04:12Z</time>
      </trkpt>
      <trkpt lat="40.954848333" lon="-5.685546667">
        <time>2022-06-28T12:04:13Z</time>
      </trkpt>
      <trkpt lat="40.954868333" lon="-5.685471667">
        <time>2022-06-28T12:04:14Z</time>
      </trkpt>
      <trkpt lat="40.954888333" lon="-5.685398333">
        <time>2022-06-28T12:04:15Z</time>
      </trkpt>
      <trkpt lat="40.954901667" lon="-5.685321667">
        <time>2022-06-28T12:04:16Z</time>
      </trkpt>
      <trkpt lat="40.954911667" lon="-5.685243333">
        <time>2022-06-28T12:04:17Z</time>
      </trkpt>
      <trkpt lat="40.954918333" lon="-5.685166667">
        <time>2022-06-28T12:04:18Z</time>
      </trkpt>
      <trkpt lat="40.954923333" lon="-5.685088333">
        <time>2022-06-28T12:04:19Z</time>
      </trkpt>
      <trkpt lat="40.954921667" lon="-5.685011667">
        <time>2022-06-28T12:04:20Z</time>
      </trkpt>
      <trkpt lat="40.954920000" lon="-5.684933333">
        <time>2022-06-28T12:04:21Z</time>
      </trkpt>
      <trkpt lat="40.954921667" lon="-5.684856667">
        <time>2022-06-28T12:04:22Z</time>
      </trkpt>
      <trkpt lat="40.954923333" lon="-5.684780000">
        <time>2022-06-28T12:04:23Z</time>
      </trkpt>
      <trkpt lat="40.954925000" lon="-5.684703333">
        <time>2022-06-28T12:04:24Z</time>
      </trkpt>
      <trkpt lat="40.954925000" lon="-5.684626667">
        <time>2022-06-28T12:04:25Z</time>
      </trkpt>
      <trkpt lat="40.954925000" lon="-5.684550000">
        <time>2022-06-28T12:04:26Z</time>
      </trkpt>
      <trkpt lat="40.954925000" lon="-5.684475000">
        <time>2022-06-28T12:04:27Z</time>
      </trkpt>
      <trkpt lat="40.954926667" lon="-5.684400000">
        <time>2022-06-28T12:04:28Z</time>
      </trkpt>
      <trkpt lat="40.954926667" lon="-5.684326667">
        <time>2022-06-28T12:04:29Z</time>
      </trkpt>
      <trkpt lat="40.954926667" lon="-5.684253333">
        <time>2022-06-28T12:04:30Z</time>
      </trkpt>
      <trkpt lat="40.954926667" lon="-5.684180000">
        <time>2022-06-28T12:04:31Z</time>
      </trkpt>
      <trkpt lat="40.954926667" lon="-5.684108333">
        <time>2022-06-28T12:04:32Z</time>
      </trkpt>
      <trkpt lat="40.954928333" lon="-5.684036667">
        <time>2022-06-28T12:04:33Z</time>
      </trkpt>
      <trkpt lat="40.954928333" lon="-5.683970000">
        <time>2022-06-28T12:04:34Z</time>
      </trkpt>
      <trkpt lat="40.954926667" lon="-5.683900000">
        <time>2022-06-28T12:04:35Z</time>
      </trkpt>
      <trkpt lat="40.954928333" lon="-5.683823333">
        <time>2022-06-28T12:04:36Z</time>
      </trkpt>
      <trkpt lat="40.954930000" lon="-5.683748333">
        <time>2022-06-28T12:04:37Z</time>
      </trkpt>
      <trkpt lat="40.954930000" lon="-5.683676667">
        <time>2022-06-28T12:04:38Z</time>
      </trkpt>
      <trkpt lat="40.954928333" lon="-5.683606667">
        <time>2022-06-28T12:04:39Z</time>
      </trkpt>
      <trkpt lat="40.954921667" lon="-5.683540000">
        <time>2022-06-28T12:04:40Z</time>
      </trkpt>
      <trkpt lat="40.954916667" lon="-5.683471667">
        <time>2022-06-28T12:04:41Z</time>
      </trkpt>
      <trkpt lat="40.954918333" lon="-5.683401667">
        <time>2022-06-28T12:04:42Z</time>
      </trkpt>
      <trkpt lat="40.954923333" lon="-5.683328333">
        <time>2022-06-28T12:04:43Z</time>
      </trkpt>
      <trkpt lat="40.954928333" lon="-5.683255000">
        <time>2022-06-28T12:04:44Z</time>
      </trkpt>
      <trkpt lat="40.954933333" lon="-5.683178333">
        <time>2022-06-28T12:04:45Z</time>
      </trkpt>
      <trkpt lat="40.954936667" lon="-5.683098333">
        <time>2022-06-28T12:04:46Z</time>
      </trkpt>
      <trkpt lat="40.954938333" lon="-5.683016667">
        <time>2022-06-28T12:04:47Z</time>
      </trkpt>
      <trkpt lat="40.954938333" lon="-5.682936667">
        <time>2022-06-28T12:04:48Z</time>
      </trkpt>
      <trkpt lat="40.954940000" lon="-5.682858333">
        <time>2022-06-28T12:04:49Z</time>
      </trkpt>
      <trkpt lat="40.954940000" lon="-5.682788333">
        <time>2022-06-28T12:04:50Z</time>
      </trkpt>
      <trkpt lat="40.954940000" lon="-5.682718333">
        <time>2022-06-28T12:04:51Z</time>
      </trkpt>
      <trkpt lat="40.954941667" lon="-5.682641667">
        <time>2022-06-28T12:04:52Z</time>
      </trkpt>
      <trkpt lat="40.954941667" lon="-5.682568333">
        <time>2022-06-28T12:04:53Z</time>
      </trkpt>
      <trkpt lat="40.954941667" lon="-5.682495000">
        <time>2022-06-28T12:04:54Z</time>
      </trkpt>
      <trkpt lat="40.954943333" lon="-5.682420000">
        <time>2022-06-28T12:04:55Z</time>
      </trkpt>
      <trkpt lat="40.954943333" lon="-5.682350000">
        <time>2022-06-28T12:04:56Z</time>
      </trkpt>
      <trkpt lat="40.954945000" lon="-5.682281667">
        <time>2022-06-28T12:04:57Z</time>
      </trkpt>
      <trkpt lat="40.954943333" lon="-5.682211667">
        <time>2022-06-28T12:04:58Z</time>
      </trkpt>
      <trkpt lat="40.954943333" lon="-5.682143333">
        <time>2022-06-28T12:04:59Z</time>
      </trkpt>
      <trkpt lat="40.954945000" lon="-5.682068333">
        <time>2022-06-28T12:05:00Z</time>
      </trkpt>
      <trkpt lat="40.954945000" lon="-5.681993333">
        <time>2022-06-28T12:05:01Z</time>
      </trkpt>
      <trkpt lat="40.954945000" lon="-5.681916667">
        <time>2022-06-28T12:05:02Z</time>
      </trkpt>
      <trkpt lat="40.954945000" lon="-5.681840000">
        <time>2022-06-28T12:05:03Z</time>
      </trkpt>
      <trkpt lat="40.954943333" lon="-5.681770000">
        <time>2022-06-28T12:05:04Z</time>
      </trkpt>
      <trkpt lat="40.954945000" lon="-5.681695000">
        <time>2022-06-28T12:05:05Z</time>
      </trkpt>
      <trkpt lat="40.954948333" lon="-5.681618333">
        <time>2022-06-28T12:05:06Z</time>
      </trkpt>
      <trkpt lat="40.954950000" lon="-5.681540000">
        <time>2022-06-28T12:05:07Z</time>
      </trkpt>
      <trkpt lat="40.954953333" lon="-5.681463333">
        <time>2022-06-28T12:05:08Z</time>
      </trkpt>
      <trkpt lat="40.954955000" lon="-5.681386667">
        <time>2022-06-28T12:05:09Z</time>
      </trkpt>
      <trkpt lat="40.954955000" lon="-5.681313333">
        <time>2022-06-28T12:05:10Z</time>
      </trkpt>
      <trkpt lat="40.954956667" lon="-5.681233333">
        <time>2022-06-28T12:05:11Z</time>
      </trkpt>
      <trkpt lat="40.954956667" lon="-5.681150000">
        <time>2022-06-28T12:05:12Z</time>
      </trkpt>
      <trkpt lat="40.954960000" lon="-5.681065000">
        <time>2022-06-28T12:05:13Z</time>
      </trkpt>
      <trkpt lat="40.954961667" lon="-5.680980000">
        <time>2022-06-28T12:05:14Z</time>
      </trkpt>
      <trkpt lat="40.954963333" lon="-5.680898333">
        <time>2022-06-28T12:05:15Z</time>
      </trkpt>
      <trkpt lat="40.954965000" lon="-5.680818333">
        <time>2022-06-28T12:05:16Z</time>
      </trkpt>
      <trkpt lat="40.954968333" lon="-5.680738333">
        <time>2022-06-28T12:05:17Z</time>
      </trkpt>
      <trkpt lat="40.954966667" lon="-5.680658333">
        <time>2022-06-28T12:05:18Z</time>
      </trkpt>
      <trkpt lat="40.954968333" lon="-5.680578333">
        <time>2022-06-28T12:05:19Z</time>
      </trkpt>
      <trkpt lat="40.954970000" lon="-5.680500000">
        <time>2022-06-28T12:05:20Z</time>
      </trkpt>
      <trkpt lat="40.954971667" lon="-5.680421667">
        <time>2022-06-28T12:05:21Z</time>
      </trkpt>
      <trkpt lat="40.954973333" lon="-5.680345000">
        <time>2022-06-28T12:05:22Z</time>
      </trkpt>
      <trkpt lat="40.954973333" lon="-5.680270000">
        <time>2022-06-28T12:05:23Z</time>
      </trkpt>
      <trkpt lat="40.954975000" lon="-5.680193333">
        <time>2022-06-28T12:05:24Z</time>
      </trkpt>
      <trkpt lat="40.954973333" lon="-5.680118333">
        <time>2022-06-28T12:05:25Z</time>
      </trkpt>
      <trkpt lat="40.954966667" lon="-5.680041667">
        <time>2022-06-28T12:05:26Z</time>
      </trkpt>
      <trkpt lat="40.954963333" lon="-5.679963333">
        <time>2022-06-28T12:05:27Z</time>
      </trkpt>
      <trkpt lat="40.954966667" lon="-5.679883333">
        <time>2022-06-28T12:05:28Z</time>
      </trkpt>
      <trkpt lat="40.954971667" lon="-5.679803333">
        <time>2022-06-28T12:05:29Z</time>
      </trkpt>
      <trkpt lat="40.954976667" lon="-5.679723333">
        <time>2022-06-28T12:05:30Z</time>
      </trkpt>
      <trkpt lat="40.954975000" lon="-5.679653333">
        <time>2022-06-28T12:05:31Z</time>
      </trkpt>
      <trkpt lat="40.954973333" lon="-5.679581667">
        <time>2022-06-28T12:05:32Z</time>
      </trkpt>
      <trkpt lat="40.954973333" lon="-5.679511667">
        <time>2022-06-28T12:05:33Z</time>
      </trkpt>
      <trkpt lat="40.954970000" lon="-5.679446667">
        <time>2022-06-28T12:05:34Z</time>
      </trkpt>
      <trkpt lat="40.954968333" lon="-5.679376667">
        <time>2022-06-28T12:05:35Z</time>
      </trkpt>
      <trkpt lat="40.954968333" lon="-5.679300000">
        <time>2022-06-28T12:05:36Z</time>
      </trkpt>
      <trkpt lat="40.954966667" lon="-5.679225000">
        <time>2022-06-28T12:05:37Z</time>
      </trkpt>
      <trkpt lat="40.954965000" lon="-5.679153333">
        <time>2022-06-28T12:05:38Z</time>
      </trkpt>
      <trkpt lat="40.954961667" lon="-5.679081667">
        <time>2022-06-28T12:05:39Z</time>
      </trkpt>
      <trkpt lat="40.954961667" lon="-5.679006667">
        <time>2022-06-28T12:05:40Z</time>
      </trkpt>
      <trkpt lat="40.954963333" lon="-5.678928333">
        <time>2022-06-28T12:05:41Z</time>
      </trkpt>
      <trkpt lat="40.954965000" lon="-5.678851667">
        <time>2022-06-28T12:05:42Z</time>
      </trkpt>
      <trkpt lat="40.954965000" lon="-5.678778333">
        <time>2022-06-28T12:05:43Z</time>
      </trkpt>
      <trkpt lat="40.954965000" lon="-5.678708333">
        <time>2022-06-28T12:05:44Z</time>
      </trkpt>
      <trkpt lat="40.954963333" lon="-5.678640000">
        <time>2022-06-28T12:05:45Z</time>
      </trkpt>
      <trkpt lat="40.954961667" lon="-5.678571667">
        <time>2022-06-28T12:05:46Z</time>
      </trkpt>
      <trkpt lat="40.954960000" lon="-5.678501667">
        <time>2022-06-28T12:05:47Z</time>
      </trkpt>
      <trkpt lat="40.954961667" lon="-5.678425000">
        <time>2022-06-28T12:05:48Z</time>
      </trkpt>
      <trkpt lat="40.954961667" lon="-5.678346667">
        <time>2022-06-28T12:05:49Z</time>
      </trkpt>
      <trkpt lat="40.954963333" lon="-5.678258333">
        <time>2022-06-28T12:05:50Z</time>
      </trkpt>
      <trkpt lat="40.954966667" lon="-5.678170000">
        <time>2022-06-28T12:05:51Z</time>
      </trkpt>
      <trkpt lat="40.954968333" lon="-5.678080000">
        <time>2022-06-28T12:05:52Z</time>
      </trkpt>
      <trkpt lat="40.954968333" lon="-5.677990000">
        <time>2022-06-28T12:05:53Z</time>
      </trkpt>
      <trkpt lat="40.954965000" lon="-5.677900000">
        <time>2022-06-28T12:05:54Z</time>
      </trkpt>
      <trkpt lat="40.954961667" lon="-5.677811667">
        <time>2022-06-28T12:05:55Z</time>
      </trkpt>
      <trkpt lat="40.954960000" lon="-5.677721667">
        <time>2022-06-28T12:05:56Z</time>
      </trkpt>
      <trkpt lat="40.954960000" lon="-5.677631667">
        <time>2022-06-28T12:05:57Z</time>
      </trkpt>
      <trkpt lat="40.954963333" lon="-5.677541667">
        <time>2022-06-28T12:05:58Z</time>
      </trkpt>
      <trkpt lat="40.954965000" lon="-5.677450000">
        <time>2022-06-28T12:05:59Z</time>
      </trkpt>
      <trkpt lat="40.954961667" lon="-5.677360000">
        <time>2022-06-28T12:06:00Z</time>
      </trkpt>
      <trkpt lat="40.954960000" lon="-5.677271667">
        <time>2022-06-28T12:06:01Z</time>
      </trkpt>
      <trkpt lat="40.954960000" lon="-5.677183333">
        <time>2022-06-28T12:06:02Z</time>
      </trkpt>
      <trkpt lat="40.954961667" lon="-5.677098333">
        <time>2022-06-28T12:06:03Z</time>
      </trkpt>
      <trkpt lat="40.954965000" lon="-5.677013333">
        <time>2022-06-28T12:06:04Z</time>
      </trkpt>
      <trkpt lat="40.954968333" lon="-5.676930000">
        <time>2022-06-28T12:06:05Z</time>
      </trkpt>
      <trkpt lat="40.954971667" lon="-5.676848333">
        <time>2022-06-28T12:06:06Z</time>
      </trkpt>
      <trkpt lat="40.954975000" lon="-5.676770000">
        <time>2022-06-28T12:06:07Z</time>
      </trkpt>
      <trkpt lat="40.954976667" lon="-5.676693333">
        <time>2022-06-28T12:06:08Z</time>
      </trkpt>
      <trkpt lat="40.954978333" lon="-5.676616667">
        <time>2022-06-28T12:06:09Z</time>
      </trkpt>
      <trkpt lat="40.954975000" lon="-5.676533333">
        <time>2022-06-28T12:06:10Z</time>
      </trkpt>
      <trkpt lat="40.954958333" lon="-5.676450000">
        <time>2022-06-28T12:06:11Z</time>
      </trkpt>
      <trkpt lat="40.954930000" lon="-5.676371667">
        <time>2022-06-28T12:06:12Z</time>
      </trkpt>
      <trkpt lat="40.954900000" lon="-5.676293333">
        <time>2022-06-28T12:06:13Z</time>
      </trkpt>
      <trkpt lat="40.954886667" lon="-5.676211667">
        <time>2022-06-28T12:06:14Z</time>
      </trkpt>
      <trkpt lat="40.954891667" lon="-5.676135000">
        <time>2022-06-28T12:06:15Z</time>
      </trkpt>
      <trkpt lat="40.954915000" lon="-5.676061667">
        <time>2022-06-28T12:06:16Z</time>
      </trkpt>
      <trkpt lat="40.954955000" lon="-5.675995000">
        <time>2022-06-28T12:06:17Z</time>
      </trkpt>
      <trkpt lat="40.955010000" lon="-5.675946667">
        <time>2022-06-28T12:06:18Z</time>
      </trkpt>
      <trkpt lat="40.955070000" lon="-5.675928333">
        <time>2022-06-28T12:06:19Z</time>
      </trkpt>
      <trkpt lat="40.955135000" lon="-5.675926667">
        <time>2022-06-28T12:06:20Z</time>
      </trkpt>
      <trkpt lat="40.955191667" lon="-5.675953333">
        <time>2022-06-28T12:06:21Z</time>
      </trkpt>
      <trkpt lat="40.955245000" lon="-5.675996667">
        <time>2022-06-28T12:06:22Z</time>
      </trkpt>
      <trkpt lat="40.955298333" lon="-5.676041667">
        <time>2022-06-28T12:06:23Z</time>
      </trkpt>
      <trkpt lat="40.955356667" lon="-5.676078333">
        <time>2022-06-28T12:06:24Z</time>
      </trkpt>
      <trkpt lat="40.955418333" lon="-5.676106667">
        <time>2022-06-28T12:06:25Z</time>
      </trkpt>
      <trkpt lat="40.955481667" lon="-5.676125000">
        <time>2022-06-28T12:06:26Z</time>
      </trkpt>
      <trkpt lat="40.955546667" lon="-5.676133333">
        <time>2022-06-28T12:06:27Z</time>
      </trkpt>
      <trkpt lat="40.955608333" lon="-5.676141667">
        <time>2022-06-28T12:06:28Z</time>
      </trkpt>
      <trkpt lat="40.955673333" lon="-5.676151667">
        <time>2022-06-28T12:06:29Z</time>
      </trkpt>
      <trkpt lat="40.955736667" lon="-5.676156667">
        <time>2022-06-28T12:06:30Z</time>
      </trkpt>
      <trkpt lat="40.955803333" lon="-5.676156667">
        <time>2022-06-28T12:06:31Z</time>
      </trkpt>
      <trkpt lat="40.955868333" lon="-5.676160000">
        <time>2022-06-28T12:06:32Z</time>
      </trkpt>
      <trkpt lat="40.955933333" lon="-5.676163333">
        <time>2022-06-28T12:06:33Z</time>
      </trkpt>
      <trkpt lat="40.956000000" lon="-5.676166667">
        <time>2022-06-28T12:06:34Z</time>
      </trkpt>
      <trkpt lat="40.956065000" lon="-5.676168333">
        <time>2022-06-28T12:06:35Z</time>
      </trkpt>
      <trkpt lat="40.956131667" lon="-5.676170000">
        <time>2022-06-28T12:06:36Z</time>
      </trkpt>
      <trkpt lat="40.956198333" lon="-5.676168333">
        <time>2022-06-28T12:06:37Z</time>
      </trkpt>
      <trkpt lat="40.956265000" lon="-5.676163333">
        <time>2022-06-28T12:06:38Z</time>
      </trkpt>
      <trkpt lat="40.956330000" lon="-5.676161667">
        <time>2022-06-28T12:06:39Z</time>
      </trkpt>
      <trkpt lat="40.956395000" lon="-5.676160000">
        <time>2022-06-28T12:06:40Z</time>
      </trkpt>
      <trkpt lat="40.956458333" lon="-5.676156667">
        <time>2022-06-28T12:06:41Z</time>
      </trkpt>
      <trkpt lat="40.956520000" lon="-5.676155000">
        <time>2022-06-28T12:06:42Z</time>
      </trkpt>
      <trkpt lat="40.956585000" lon="-5.676143333">
        <time>2022-06-28T12:06:43Z</time>
      </trkpt>
      <trkpt lat="40.956650000" lon="-5.676125000">
        <time>2022-06-28T12:06:44Z</time>
      </trkpt>
      <trkpt lat="40.956711667" lon="-5.676113333">
        <time>2022-06-28T12:06:45Z</time>
      </trkpt>
      <trkpt lat="40.956773333" lon="-5.676096667">
        <time>2022-06-28T12:06:46Z</time>
      </trkpt>
      <trkpt lat="40.956835000" lon="-5.676073333">
        <time>2022-06-28T12:06:47Z</time>
      </trkpt>
      <trkpt lat="40.956896667" lon="-5.676048333">
        <time>2022-06-28T12:06:48Z</time>
      </trkpt>
      <trkpt lat="40.956956667" lon="-5.676021667">
        <time>2022-06-28T12:06:49Z</time>
      </trkpt>
      <trkpt lat="40.957015000" lon="-5.675995000">
        <time>2022-06-28T12:06:50Z</time>
      </trkpt>
      <trkpt lat="40.957073333" lon="-5.675961667">
        <time>2022-06-28T12:06:51Z</time>
      </trkpt>
      <trkpt lat="40.957131667" lon="-5.675926667">
        <time>2022-06-28T12:06:52Z</time>
      </trkpt>
      <trkpt lat="40.957188333" lon="-5.675890000">
        <time>2022-06-28T12:06:53Z</time>
      </trkpt>
      <trkpt lat="40.957245000" lon="-5.675851667">
        <time>2022-06-28T12:06:54Z</time>
      </trkpt>
      <trkpt lat="40.957300000" lon="-5.675811667">
        <time>2022-06-28T12:06:55Z</time>
      </trkpt>
      <trkpt lat="40.957353333" lon="-5.675770000">
        <time>2022-06-28T12:06:56Z</time>
      </trkpt>
      <trkpt lat="40.957406667" lon="-5.675726667">
        <time>2022-06-28T12:06:57Z</time>
      </trkpt>
      <trkpt lat="40.957456667" lon="-5.675678333">
        <time>2022-06-28T12:06:58Z</time>
      </trkpt>
      <trkpt lat="40.957501667" lon="-5.675626667">
        <time>2022-06-28T12:06:59Z</time>
      </trkpt>
      <trkpt lat="40.957536667" lon="-5.675576667">
        <time>2022-06-28T12:07:00Z</time>
      </trkpt>
      <trkpt lat="40.957561667" lon="-5.675530000">
        <time>2022-06-28T12:07:01Z</time>
      </trkpt>
      <trkpt lat="40.957581667" lon="-5.675476667">
        <time>2022-06-28T12:07:02Z</time>
      </trkpt>
      <trkpt lat="40.957600000" lon="-5.675415000">
        <time>2022-06-28T12:07:03Z</time>
      </trkpt>
      <trkpt lat="40.957616667" lon="-5.675346667">
        <time>2022-06-28T12:07:04Z</time>
      </trkpt>
      <trkpt lat="40.957638333" lon="-5.675275000">
        <time>2022-06-28T12:07:05Z</time>
      </trkpt>
      <trkpt lat="40.957663333" lon="-5.675200000">
        <time>2022-06-28T12:07:06Z</time>
      </trkpt>
      <trkpt lat="40.957696667" lon="-5.675131667">
        <time>2022-06-28T12:07:07Z</time>
      </trkpt>
      <trkpt lat="40.957741667" lon="-5.675070000">
        <time>2022-06-28T12:07:08Z</time>
      </trkpt>
      <trkpt lat="40.957796667" lon="-5.675021667">
        <time>2022-06-28T12:07:09Z</time>
      </trkpt>
      <trkpt lat="40.957858333" lon="-5.674993333">
        <time>2022-06-28T12:07:10Z</time>
      </trkpt>
      <trkpt lat="40.957925000" lon="-5.674983333">
        <time>2022-06-28T12:07:11Z</time>
      </trkpt>
      <trkpt lat="40.957991667" lon="-5.674983333">
        <time>2022-06-28T12:07:12Z</time>
      </trkpt>
      <trkpt lat="40.958058333" lon="-5.674991667">
        <time>2022-06-28T12:07:13Z</time>
      </trkpt>
      <trkpt lat="40.958125000" lon="-5.674993333">
        <time>2022-06-28T12:07:14Z</time>
      </trkpt>
      <trkpt lat="40.958193333" lon="-5.674981667">
        <time>2022-06-28T12:07:15Z</time>
      </trkpt>
      <trkpt lat="40.958256667" lon="-5.674953333">
        <time>2022-06-28T12:07:16Z</time>
      </trkpt>
      <trkpt lat="40.958318333" lon="-5.674915000">
        <time>2022-06-28T12:07:17Z</time>
      </trkpt>
      <trkpt lat="40.958376667" lon="-5.674871667">
        <time>2022-06-28T12:07:18Z</time>
      </trkpt>
      <trkpt lat="40.958433333" lon="-5.674821667">
        <time>2022-06-28T12:07:19Z</time>
      </trkpt>
      <trkpt lat="40.958490000" lon="-5.674771667">
        <time>2022-06-28T12:07:20Z</time>
      </trkpt>
      <trkpt lat="40.958546667" lon="-5.674718333">
        <time>2022-06-28T12:07:21Z</time>
      </trkpt>
      <trkpt lat="40.958603333" lon="-5.674666667">
        <time>2022-06-28T12:07:22Z</time>
      </trkpt>
      <trkpt lat="40.958661667" lon="-5.674615000">
        <time>2022-06-28T12:07:23Z</time>
      </trkpt>
      <trkpt lat="40.958718333" lon="-5.674565000">
        <time>2022-06-28T12:07:24Z</time>
      </trkpt>
      <trkpt lat="40.958776667" lon="-5.674513333">
        <time>2022-06-28T12:07:25Z</time>
      </trkpt>
      <trkpt lat="40.958833333" lon="-5.674463333">
        <time>2022-06-28T12:07:26Z</time>
      </trkpt>
      <trkpt lat="40.958888333" lon="-5.674415000">
        <time>2022-06-28T12:07:27Z</time>
      </trkpt>
      <trkpt lat="40.958941667" lon="-5.674368333">
        <time>2022-06-28T12:07:28Z</time>
      </trkpt>
      <trkpt lat="40.958995000" lon="-5.674323333">
        <time>2022-06-28T12:07:29Z</time>
      </trkpt>
      <trkpt lat="40.959045000" lon="-5.674278333">
        <time>2022-06-28T12:07:30Z</time>
      </trkpt>
      <trkpt lat="40.959093333" lon="-5.674235000">
        <time>2022-06-28T12:07:31Z</time>
      </trkpt>
      <trkpt lat="40.959140000" lon="-5.674191667">
        <time>2022-06-28T12:07:32Z</time>
      </trkpt>
      <trkpt lat="40.959186667" lon="-5.674150000">
        <time>2022-06-28T12:07:33Z</time>
      </trkpt>
      <trkpt lat="40.959230000" lon="-5.674111667">
        <time>2022-06-28T12:07:34Z</time>
      </trkpt>
      <trkpt lat="40.959271667" lon="-5.674073333">
        <time>2022-06-28T12:07:35Z</time>
      </trkpt>
      <trkpt lat="40.959311667" lon="-5.674036667">
        <time>2022-06-28T12:07:36Z</time>
      </trkpt>
      <trkpt lat="40.959350000" lon="-5.674000000">
        <time>2022-06-28T12:07:37Z</time>
      </trkpt>
      <trkpt lat="40.959386667" lon="-5.673968333">
        <time>2022-06-28T12:07:38Z</time>
      </trkpt>
      <trkpt lat="40.959418333" lon="-5.673936667">
        <time>2022-06-28T12:07:39Z</time>
      </trkpt>
      <trkpt lat="40.959448333" lon="-5.673908333">
        <time>2022-06-28T12:07:40Z</time>
      </trkpt>
      <trkpt lat="40.959476667" lon="-5.673883333">
        <time>2022-06-28T12:07:41Z</time>
      </trkpt>
      <trkpt lat="40.959505000" lon="-5.673856667">
        <time>2022-06-28T12:07:42Z</time>
      </trkpt>
      <trkpt lat="40.959530000" lon="-5.673835000">
        <time>2022-06-28T12:07:43Z</time>
      </trkpt>
      <trkpt lat="40.959550000" lon="-5.673816667">
        <time>2022-06-28T12:07:44Z</time>
      </trkpt>
      <trkpt lat="40.959563333" lon="-5.673805000">
        <time>2022-06-28T12:07:45Z</time>
      </trkpt>
      <trkpt lat="40.959571667" lon="-5.673795000">
        <time>2022-06-28T12:07:46Z</time>
      </trkpt>
      <trkpt lat="40.959578333" lon="-5.673788333">
        <time>2022-06-28T12:07:47Z</time>
      </trkpt>
      <trkpt lat="40.959581667" lon="-5.673785000">
        <time>2022-06-28T12:07:48Z</time>
      </trkpt>
      <trkpt lat="40.959585000" lon="-5.673781667">
        <time>2022-06-28T12:07:49Z</time>
      </trkpt>
      <trkpt lat="40.959586667" lon="-5.673778333">
        <time>2022-06-28T12:07:50Z</time>
      </trkpt>
      <trkpt lat="40.959588333" lon="-5.673778333">
        <time>2022-06-28T12:07:51Z</time>
      </trkpt>
      <trkpt lat="40.959588333" lon="-5.673778333">
        <time>2022-06-28T12:07:52Z</time>
      </trkpt>
      <trkpt lat="40.959590000" lon="-5.673778333">
        <time>2022-06-28T12:07:53Z</time>
      </trkpt>
      <trkpt lat="40.959593333" lon="-5.673776667">
        <time>2022-06-28T12:07:54Z</time>
      </trkpt>
      <trkpt lat="40.959600000" lon="-5.673768333">
        <time>2022-06-28T12:07:55Z</time>
      </trkpt>
      <trkpt lat="40.959611667" lon="-5.673755000">
        <time>2022-06-28T12:07:56Z</time>
      </trkpt>
      <trkpt lat="40.959633333" lon="-5.673735000">
        <time>2022-06-28T12:07:57Z</time>
      </trkpt>
      <trkpt lat="40.959661667" lon="-5.673710000">
        <time>2022-06-28T12:07:58Z</time>
      </trkpt>
      <trkpt lat="40.959695000" lon="-5.673685000">
        <time>2022-06-28T12:07:59Z</time>
      </trkpt>
      <trkpt lat="40.959730000" lon="-5.673658333">
        <time>2022-06-28T12:08:00Z</time>
      </trkpt>
      <trkpt lat="40.959766667" lon="-5.673625000">
        <time>2022-06-28T12:08:01Z</time>
      </trkpt>
      <trkpt lat="40.959803333" lon="-5.673588333">
        <time>2022-06-28T12:08:02Z</time>
      </trkpt>
      <trkpt lat="40.959840000" lon="-5.673551667">
        <time>2022-06-28T12:08:03Z</time>
      </trkpt>
      <trkpt lat="40.959873333" lon="-5.673525000">
        <time>2022-06-28T12:08:04Z</time>
      </trkpt>
      <trkpt lat="40.959896667" lon="-5.673503333">
        <time>2022-06-28T12:08:05Z</time>
      </trkpt>
      <trkpt lat="40.959913333" lon="-5.673488333">
        <time>2022-06-28T12:08:06Z</time>
      </trkpt>
      <trkpt lat="40.959925000" lon="-5.673476667">
        <time>2022-06-28T12:08:07Z</time>
      </trkpt>
      <trkpt lat="40.959933333" lon="-5.673468333">
        <time>2022-06-28T12:08:08Z</time>
      </trkpt>
      <trkpt lat="40.959940000" lon="-5.673460000">
        <time>2022-06-28T12:08:09Z</time>
      </trkpt>
      <trkpt lat="40.959945000" lon="-5.673453333">
        <time>2022-06-28T12:08:10Z</time>
      </trkpt>
      <trkpt lat="40.959950000" lon="-5.673446667">
        <time>2022-06-28T12:08:11Z</time>
      </trkpt>
      <trkpt lat="40.959951667" lon="-5.673443333">
        <time>2022-06-28T12:08:12Z</time>
      </trkpt>
      <trkpt lat="40.959951667" lon="-5.673443333">
        <time>2022-06-28T12:08:13Z</time>
      </trkpt>
      <trkpt lat="40.959951667" lon="-5.673443333">
        <time>2022-06-28T12:08:14Z</time>
      </trkpt>
      <trkpt lat="40.959953333" lon="-5.673441667">
        <time>2022-06-28T12:08:15Z</time>
      </trkpt>
      <trkpt lat="40.959953333" lon="-5.673441667">
        <time>2022-06-28T12:08:16Z</time>
      </trkpt>
      <trkpt lat="40.959953333" lon="-5.673441667">
        <time>2022-06-28T12:08:17Z</time>
      </trkpt>
      <trkpt lat="40.959955000" lon="-5.673441667">
        <time>2022-06-28T12:08:18Z</time>
      </trkpt>
      <trkpt lat="40.959955000" lon="-5.673441667">
        <time>2022-06-28T12:08:19Z</time>
      </trkpt>
      <trkpt lat="40.959955000" lon="-5.673440000">
        <time>2022-06-28T12:08:20Z</time>
      </trkpt>
      <trkpt lat="40.959955000" lon="-5.673440000">
        <time>2022-06-28T12:08:21Z</time>
      </trkpt>
      <trkpt lat="40.959955000" lon="-5.673440000">
        <time>2022-06-28T12:08:22Z</time>
      </trkpt>
      <trkpt lat="40.959956667" lon="-5.673440000">
        <time>2022-06-28T12:08:23Z</time>
      </trkpt>
      <trkpt lat="40.959956667" lon="-5.673440000">
        <time>2022-06-28T12:08:24Z</time>
      </trkpt>
      <trkpt lat="40.959956667" lon="-5.673440000">
        <time>2022-06-28T12:08:25Z</time>
      </trkpt>
      <trkpt lat="40.959956667" lon="-5.673440000">
        <time>2022-06-28T12:08:26Z</time>
      </trkpt>
      <trkpt lat="40.959956667" lon="-5.673440000">
        <time>2022-06-28T12:08:27Z</time>
      </trkpt>
      <trkpt lat="40.959956667" lon="-5.673440000">
        <time>2022-06-28T12:08:28Z</time>
      </trkpt>
      <trkpt lat="40.959956667" lon="-5.673440000">
        <time>2022-06-28T12:08:29Z</time>
      </trkpt>
      <trkpt lat="40.959958333" lon="-5.673438333">
        <time>2022-06-28T12:08:30Z</time>
      </trkpt>
      <trkpt lat="40.959961667" lon="-5.673433333">
        <time>2022-06-28T12:08:31Z</time>
      </trkpt>
      <trkpt lat="40.959970000" lon="-5.673423333">
        <time>2022-06-28T12:08:32Z</time>
      </trkpt>
      <trkpt lat="40.959983333" lon="-5.673406667">
        <time>2022-06-28T12:08:33Z</time>
      </trkpt>
      <trkpt lat="40.960000000" lon="-5.673391667">
        <time>2022-06-28T12:08:34Z</time>
      </trkpt>
      <trkpt lat="40.960016667" lon="-5.673376667">
        <time>2022-06-28T12:08:35Z</time>
      </trkpt>
      <trkpt lat="40.960031667" lon="-5.673361667">
        <time>2022-06-28T12:08:36Z</time>
      </trkpt>
      <trkpt lat="40.960045000" lon="-5.673350000">
        <time>2022-06-28T12:08:37Z</time>
      </trkpt>
      <trkpt lat="40.960053333" lon="-5.673341667">
        <time>2022-06-28T12:08:38Z</time>
      </trkpt>
      <trkpt lat="40.960063333" lon="-5.673331667">
        <time>2022-06-28T12:08:39Z</time>
      </trkpt>
      <trkpt lat="40.960071667" lon="-5.673323333">
        <time>2022-06-28T12:08:40Z</time>
      </trkpt>
      <trkpt lat="40.960080000" lon="-5.673315000">
        <time>2022-06-28T12:08:41Z</time>
      </trkpt>
      <trkpt lat="40.960088333" lon="-5.673305000">
        <time>2022-06-28T12:08:42Z</time>
      </trkpt>
      <trkpt lat="40.960095000" lon="-5.673291667">
        <time>2022-06-28T12:08:43Z</time>
      </trkpt>
      <trkpt lat="40.960103333" lon="-5.673278333">
        <time>2022-06-28T12:08:44Z</time>
      </trkpt>
      <trkpt lat="40.960113333" lon="-5.673261667">
        <time>2022-06-28T12:08:45Z</time>
      </trkpt>
      <trkpt lat="40.960130000" lon="-5.673240000">
        <time>2022-06-28T12:08:46Z</time>
      </trkpt>
      <trkpt lat="40.960153333" lon="-5.673213333">
        <time>2022-06-28T12:08:47Z</time>
      </trkpt>
      <trkpt lat="40.960180000" lon="-5.673176667">
        <time>2022-06-28T12:08:48Z</time>
      </trkpt>
      <trkpt lat="40.960210000" lon="-5.673131667">
        <time>2022-06-28T12:08:49Z</time>
      </trkpt>
      <trkpt lat="40.960243333" lon="-5.673081667">
        <time>2022-06-28T12:08:50Z</time>
      </trkpt>
      <trkpt lat="40.960281667" lon="-5.673035000">
        <time>2022-06-28T12:08:51Z</time>
      </trkpt>
      <trkpt lat="40.960325000" lon="-5.673001667">
        <time>2022-06-28T12:08:52Z</time>
      </trkpt>
      <trkpt lat="40.960380000" lon="-5.672975000">
        <time>2022-06-28T12:08:53Z</time>
      </trkpt>
      <trkpt lat="40.960441667" lon="-5.672966667">
        <time>2022-06-28T12:08:54Z</time>
      </trkpt>
      <trkpt lat="40.960498333" lon="-5.672988333">
        <time>2022-06-28T12:08:55Z</time>
      </trkpt>
      <trkpt lat="40.960545000" lon="-5.673023333">
        <time>2022-06-28T12:08:56Z</time>
      </trkpt>
      <trkpt lat="40.960578333" lon="-5.673076667">
        <time>2022-06-28T12:08:57Z</time>
      </trkpt>
      <trkpt lat="40.960600000" lon="-5.673158333">
        <time>2022-06-28T12:08:58Z</time>
      </trkpt>
      <trkpt lat="40.960621667" lon="-5.673241667">
        <time>2022-06-28T12:08:59Z</time>
      </trkpt>
      <trkpt lat="40.960641667" lon="-5.673321667">
        <time>2022-06-28T12:09:00Z</time>
      </trkpt>
      <trkpt lat="40.960663333" lon="-5.673398333">
        <time>2022-06-28T12:09:01Z</time>
      </trkpt>
      <trkpt lat="40.960685000" lon="-5.673468333">
        <time>2022-06-28T12:09:02Z</time>
      </trkpt>
      <trkpt lat="40.960710000" lon="-5.673531667">
        <time>2022-06-28T12:09:03Z</time>
      </trkpt>
      <trkpt lat="40.960735000" lon="-5.673588333">
        <time>2022-06-28T12:09:04Z</time>
      </trkpt>
      <trkpt lat="40.960760000" lon="-5.673638333">
        <time>2022-06-28T12:09:05Z</time>
      </trkpt>
      <trkpt lat="40.960788333" lon="-5.673680000">
        <time>2022-06-28T12:09:06Z</time>
      </trkpt>
      <trkpt lat="40.960813333" lon="-5.673716667">
        <time>2022-06-28T12:09:07Z</time>
      </trkpt>
      <trkpt lat="40.960838333" lon="-5.673746667">
        <time>2022-06-28T12:09:08Z</time>
      </trkpt>
      <trkpt lat="40.960860000" lon="-5.673783333">
        <time>2022-06-28T12:09:09Z</time>
      </trkpt>
      <trkpt lat="40.960881667" lon="-5.673815000">
        <time>2022-06-28T12:09:10Z</time>
      </trkpt>
      <trkpt lat="40.960905000" lon="-5.673845000">
        <time>2022-06-28T12:09:11Z</time>
      </trkpt>
      <trkpt lat="40.960930000" lon="-5.673871667">
        <time>2022-06-28T12:09:12Z</time>
      </trkpt>
      <trkpt lat="40.960950000" lon="-5.673900000">
        <time>2022-06-28T12:09:13Z</time>
      </trkpt>
      <trkpt lat="40.960973333" lon="-5.673940000">
        <time>2022-06-28T12:09:14Z</time>
      </trkpt>
      <trkpt lat="40.961000000" lon="-5.673988333">
        <time>2022-06-28T12:09:15Z</time>
      </trkpt>
      <trkpt lat="40.961030000" lon="-5.674041667">
        <time>2022-06-28T12:09:16Z</time>
      </trkpt>
      <trkpt lat="40.961048333" lon="-5.674100000">
        <time>2022-06-28T12:09:17Z</time>
      </trkpt>
      <trkpt lat="40.961048333" lon="-5.674100000">
        <time>2022-06-28T12:09:18Z</time>
      </trkpt>
      <trkpt lat="40.961048333" lon="-5.674100000">
        <time>2022-06-28T12:09:19Z</time>
      </trkpt>
      <trkpt lat="40.961048333" lon="-5.674100000">
        <time>2022-06-28T12:09:20Z</time>
      </trkpt>
      <trkpt lat="40.961048333" lon="-5.674100000">
        <time>2022-06-28T12:09:21Z</time>
      </trkpt>
      <trkpt lat="40.961048333" lon="-5.674100000">
        <time>2022-06-28T12:09:22Z</time>
      </trkpt>
      <trkpt lat="40.961048333" lon="-5.674100000">
        <time>2022-06-28T12:09:23Z</time>
      </trkpt>
      <trkpt lat="40.961048333" lon="-5.674100000">
        <time>2022-06-28T12:09:24Z</time>
      </trkpt>
      <trkpt lat="40.961048333" lon="-5.674100000">
        <time>2022-06-28T12:09:25Z</time>
      </trkpt>
      <trkpt lat="40.961048333" lon="-5.674100000">
        <time>2022-06-28T12:09:26Z</time>
      </trkpt>
      <trkpt lat="40.961048333" lon="-5.674100000">
        <time>2022-06-28T12:09:27Z</time>
      </trkpt>
      <trkpt lat="40.961256667" lon="-5.674735000">
        <time>2022-06-28T12:09:28Z</time>
      </trkpt>
      <trkpt lat="40.961313333" lon="-5.674795000">
        <time>2022-06-28T12:09:29Z</time>
      </trkpt>
      <trkpt lat="40.961373333" lon="-5.674848333">
        <time>2022-06-28T12:09:30Z</time>
      </trkpt>
      <trkpt lat="40.961436667" lon="-5.674896667">
        <time>2022-06-28T12:09:31Z</time>
      </trkpt>
      <trkpt lat="40.961501667" lon="-5.674936667">
        <time>2022-06-28T12:09:32Z</time>
      </trkpt>
      <trkpt lat="40.961568333" lon="-5.674968333">
        <time>2022-06-28T12:09:33Z</time>
      </trkpt>
      <trkpt lat="40.961635000" lon="-5.674991667">
        <time>2022-06-28T12:09:34Z</time>
      </trkpt>
      <trkpt lat="40.961701667" lon="-5.675003333">
        <time>2022-06-28T12:09:35Z</time>
      </trkpt>
      <trkpt lat="40.961771667" lon="-5.674993333">
        <time>2022-06-28T12:09:36Z</time>
      </trkpt>
      <trkpt lat="40.961845000" lon="-5.674956667">
        <time>2022-06-28T12:09:37Z</time>
      </trkpt>
      <trkpt lat="40.961915000" lon="-5.674910000">
        <time>2022-06-28T12:09:38Z</time>
      </trkpt>
      <trkpt lat="40.961980000" lon="-5.674860000">
        <time>2022-06-28T12:09:39Z</time>
      </trkpt>
      <trkpt lat="40.962045000" lon="-5.674810000">
        <time>2022-06-28T12:09:40Z</time>
      </trkpt>
      <trkpt lat="40.962105000" lon="-5.674760000">
        <time>2022-06-28T12:09:41Z</time>
      </trkpt>
      <trkpt lat="40.962163333" lon="-5.674706667">
        <time>2022-06-28T12:09:42Z</time>
      </trkpt>
      <trkpt lat="40.962220000" lon="-5.674650000">
        <time>2022-06-28T12:09:43Z</time>
      </trkpt>
      <trkpt lat="40.962273333" lon="-5.674590000">
        <time>2022-06-28T12:09:44Z</time>
      </trkpt>
      <trkpt lat="40.962323333" lon="-5.674528333">
        <time>2022-06-28T12:09:45Z</time>
      </trkpt>
      <trkpt lat="40.962375000" lon="-5.674470000">
        <time>2022-06-28T12:09:46Z</time>
      </trkpt>
      <trkpt lat="40.962423333" lon="-5.674415000">
        <time>2022-06-28T12:09:47Z</time>
      </trkpt>
      <trkpt lat="40.962471667" lon="-5.674368333">
        <time>2022-06-28T12:09:48Z</time>
      </trkpt>
      <trkpt lat="40.962515000" lon="-5.674330000">
        <time>2022-06-28T12:09:49Z</time>
      </trkpt>
      <trkpt lat="40.962555000" lon="-5.674300000">
        <time>2022-06-28T12:09:50Z</time>
      </trkpt>
      <trkpt lat="40.962593333" lon="-5.674263333">
        <time>2022-06-28T12:09:51Z</time>
      </trkpt>
      <trkpt lat="40.962631667" lon="-5.674228333">
        <time>2022-06-28T12:09:52Z</time>
      </trkpt>
      <trkpt lat="40.962673333" lon="-5.674186667">
        <time>2022-06-28T12:09:53Z</time>
      </trkpt>
      <trkpt lat="40.962715000" lon="-5.674143333">
        <time>2022-06-28T12:09:54Z</time>
      </trkpt>
      <trkpt lat="40.962755000" lon="-5.674106667">
        <time>2022-06-28T12:09:55Z</time>
      </trkpt>
      <trkpt lat="40.962793333" lon="-5.674080000">
        <time>2022-06-28T12:09:56Z</time>
      </trkpt>
      <trkpt lat="40.962830000" lon="-5.674046667">
        <time>2022-06-28T12:09:57Z</time>
      </trkpt>
      <trkpt lat="40.962863333" lon="-5.674005000">
        <time>2022-06-28T12:09:58Z</time>
      </trkpt>
      <trkpt lat="40.962891667" lon="-5.673968333">
        <time>2022-06-28T12:09:59Z</time>
      </trkpt>
      <trkpt lat="40.962926667" lon="-5.673930000">
        <time>2022-06-28T12:10:00Z</time>
      </trkpt>
      <trkpt lat="40.962961667" lon="-5.673891667">
        <time>2022-06-28T12:10:01Z</time>
      </trkpt>
      <trkpt lat="40.962995000" lon="-5.673860000">
        <time>2022-06-28T12:10:02Z</time>
      </trkpt>
      <trkpt lat="40.963028333" lon="-5.673835000">
        <time>2022-06-28T12:10:03Z</time>
      </trkpt>
      <trkpt lat="40.963060000" lon="-5.673813333">
        <time>2022-06-28T12:10:04Z</time>
      </trkpt>
      <trkpt lat="40.963090000" lon="-5.673795000">
        <time>2022-06-28T12:10:05Z</time>
      </trkpt>
      <trkpt lat="40.963121667" lon="-5.673768333">
        <time>2022-06-28T12:10:06Z</time>
      </trkpt>
      <trkpt lat="40.963151667" lon="-5.673740000">
        <time>2022-06-28T12:10:07Z</time>
      </trkpt>
      <trkpt lat="40.963185000" lon="-5.673710000">
        <time>2022-06-28T12:10:08Z</time>
      </trkpt>
      <trkpt lat="40.963220000" lon="-5.673670000">
        <time>2022-06-28T12:10:09Z</time>
      </trkpt>
      <trkpt lat="40.963260000" lon="-5.673625000">
        <time>2022-06-28T12:10:10Z</time>
      </trkpt>
      <trkpt lat="40.963296667" lon="-5.673578333">
        <time>2022-06-28T12:10:11Z</time>
      </trkpt>
      <trkpt lat="40.963330000" lon="-5.673530000">
        <time>2022-06-28T12:10:12Z</time>
      </trkpt>
      <trkpt lat="40.963365000" lon="-5.673485000">
        <time>2022-06-28T12:10:13Z</time>
      </trkpt>
      <trkpt lat="40.963400000" lon="-5.673438333">
        <time>2022-06-28T12:10:14Z</time>
      </trkpt>
      <trkpt lat="40.963433333" lon="-5.673391667">
        <time>2022-06-28T12:10:15Z</time>
      </trkpt>
      <trkpt lat="40.963466667" lon="-5.673346667">
        <time>2022-06-28T12:10:16Z</time>
      </trkpt>
      <trkpt lat="40.963501667" lon="-5.673303333">
        <time>2022-06-28T12:10:17Z</time>
      </trkpt>
      <trkpt lat="40.963543333" lon="-5.673265000">
        <time>2022-06-28T12:10:18Z</time>
      </trkpt>
      <trkpt lat="40.963583333" lon="-5.673225000">
        <time>2022-06-28T12:10:19Z</time>
      </trkpt>
      <trkpt lat="40.963626667" lon="-5.673178333">
        <time>2022-06-28T12:10:20Z</time>
      </trkpt>
      <trkpt lat="40.963670000" lon="-5.673141667">
        <time>2022-06-28T12:10:21Z</time>
      </trkpt>
      <trkpt lat="40.963713333" lon="-5.673111667">
        <time>2022-06-28T12:10:22Z</time>
      </trkpt>
      <trkpt lat="40.963758333" lon="-5.673080000">
        <time>2022-06-28T12:10:23Z</time>
      </trkpt>
      <trkpt lat="40.963800000" lon="-5.673055000">
        <time>2022-06-28T12:10:24Z</time>
      </trkpt>
      <trkpt lat="40.963845000" lon="-5.673026667">
        <time>2022-06-28T12:10:25Z</time>
      </trkpt>
      <trkpt lat="40.963891667" lon="-5.672995000">
        <time>2022-06-28T12:10:26Z</time>
      </trkpt>
      <trkpt lat="40.963936667" lon="-5.672970000">
        <time>2022-06-28T12:10:27Z</time>
      </trkpt>
      <trkpt lat="40.963980000" lon="-5.672950000">
        <time>2022-06-28T12:10:28Z</time>
      </trkpt>
      <trkpt lat="40.964021667" lon="-5.672933333">
        <time>2022-06-28T12:10:29Z</time>
      </trkpt>
      <trkpt lat="40.964060000" lon="-5.672905000">
        <time>2022-06-28T12:10:30Z</time>
      </trkpt>
      <trkpt lat="40.964101667" lon="-5.672875000">
        <time>2022-06-28T12:10:31Z</time>
      </trkpt>
      <trkpt lat="40.964145000" lon="-5.672845000">
        <time>2022-06-28T12:10:32Z</time>
      </trkpt>
      <trkpt lat="40.964191667" lon="-5.672818333">
        <time>2022-06-28T12:10:33Z</time>
      </trkpt>
      <trkpt lat="40.964236667" lon="-5.672795000">
        <time>2022-06-28T12:10:34Z</time>
      </trkpt>
      <trkpt lat="40.964280000" lon="-5.672771667">
        <time>2022-06-28T12:10:35Z</time>
      </trkpt>
      <trkpt lat="40.964323333" lon="-5.672741667">
        <time>2022-06-28T12:10:36Z</time>
      </trkpt>
      <trkpt lat="40.964365000" lon="-5.672713333">
        <time>2022-06-28T12:10:37Z</time>
      </trkpt>
      <trkpt lat="40.964401667" lon="-5.672691667">
        <time>2022-06-28T12:10:38Z</time>
      </trkpt>
      <trkpt lat="40.964438333" lon="-5.672668333">
        <time>2022-06-28T12:10:39Z</time>
      </trkpt>
      <trkpt lat="40.964470000" lon="-5.672645000">
        <time>2022-06-28T12:10:40Z</time>
      </trkpt>
      <trkpt lat="40.964498333" lon="-5.672623333">
        <time>2022-06-28T12:10:41Z</time>
      </trkpt>
      <trkpt lat="40.964523333" lon="-5.672600000">
        <time>2022-06-28T12:10:42Z</time>
      </trkpt>
      <trkpt lat="40.964545000" lon="-5.672581667">
        <time>2022-06-28T12:10:43Z</time>
      </trkpt>
      <trkpt lat="40.964561667" lon="-5.672570000">
        <time>2022-06-28T12:10:44Z</time>
      </trkpt>
      <trkpt lat="40.964605000" lon="-5.672520000">
        <time>2022-06-28T12:10:45Z</time>
      </trkpt>
      <trkpt lat="40.964605000" lon="-5.672520000">
        <time>2022-06-28T12:10:46Z</time>
      </trkpt>
      <trkpt lat="40.964610000" lon="-5.672523333">
        <time>2022-06-28T12:10:47Z</time>
      </trkpt>
      <trkpt lat="40.964615000" lon="-5.672525000">
        <time>2022-06-28T12:10:48Z</time>
      </trkpt>
      <trkpt lat="40.964618333" lon="-5.672525000">
        <time>2022-06-28T12:10:49Z</time>
      </trkpt>
      <trkpt lat="40.964621667" lon="-5.672523333">
        <time>2022-06-28T12:10:50Z</time>
      </trkpt>
      <trkpt lat="40.964635000" lon="-5.672518333">
        <time>2022-06-28T12:10:51Z</time>
      </trkpt>
      <trkpt lat="40.964655000" lon="-5.672508333">
        <time>2022-06-28T12:10:52Z</time>
      </trkpt>
      <trkpt lat="40.964681667" lon="-5.672491667">
        <time>2022-06-28T12:10:53Z</time>
      </trkpt>
      <trkpt lat="40.964715000" lon="-5.672470000">
        <time>2022-06-28T12:10:54Z</time>
      </trkpt>
      <trkpt lat="40.964751667" lon="-5.672443333">
        <time>2022-06-28T12:10:55Z</time>
      </trkpt>
      <trkpt lat="40.964788333" lon="-5.672415000">
        <time>2022-06-28T12:10:56Z</time>
      </trkpt>
      <trkpt lat="40.964821667" lon="-5.672393333">
        <time>2022-06-28T12:10:57Z</time>
      </trkpt>
      <trkpt lat="40.964853333" lon="-5.672378333">
        <time>2022-06-28T12:10:58Z</time>
      </trkpt>
      <trkpt lat="40.964886667" lon="-5.672356667">
        <time>2022-06-28T12:10:59Z</time>
      </trkpt>
      <trkpt lat="40.964921667" lon="-5.672325000">
        <time>2022-06-28T12:11:00Z</time>
      </trkpt>
      <trkpt lat="40.964956667" lon="-5.672283333">
        <time>2022-06-28T12:11:01Z</time>
      </trkpt>
      <trkpt lat="40.964996667" lon="-5.672231667">
        <time>2022-06-28T12:11:02Z</time>
      </trkpt>
      <trkpt lat="40.965038333" lon="-5.672171667">
        <time>2022-06-28T12:11:03Z</time>
      </trkpt>
      <trkpt lat="40.965078333" lon="-5.672118333">
        <time>2022-06-28T12:11:04Z</time>
      </trkpt>
      <trkpt lat="40.965120000" lon="-5.672063333">
        <time>2022-06-28T12:11:05Z</time>
      </trkpt>
      <trkpt lat="40.965158333" lon="-5.672015000">
        <time>2022-06-28T12:11:06Z</time>
      </trkpt>
      <trkpt lat="40.965195000" lon="-5.671971667">
        <time>2022-06-28T12:11:07Z</time>
      </trkpt>
      <trkpt lat="40.965231667" lon="-5.671918333">
        <time>2022-06-28T12:11:08Z</time>
      </trkpt>
      <trkpt lat="40.965271667" lon="-5.671851667">
        <time>2022-06-28T12:11:09Z</time>
      </trkpt>
      <trkpt lat="40.965315000" lon="-5.671776667">
        <time>2022-06-28T12:11:10Z</time>
      </trkpt>
      <trkpt lat="40.965360000" lon="-5.671701667">
        <time>2022-06-28T12:11:11Z</time>
      </trkpt>
      <trkpt lat="40.965405000" lon="-5.671623333">
        <time>2022-06-28T12:11:12Z</time>
      </trkpt>
      <trkpt lat="40.965450000" lon="-5.671546667">
        <time>2022-06-28T12:11:13Z</time>
      </trkpt>
      <trkpt lat="40.965500000" lon="-5.671466667">
        <time>2022-06-28T12:11:14Z</time>
      </trkpt>
      <trkpt lat="40.965550000" lon="-5.671383333">
        <time>2022-06-28T12:11:15Z</time>
      </trkpt>
      <trkpt lat="40.965598333" lon="-5.671293333">
        <time>2022-06-28T12:11:16Z</time>
      </trkpt>
      <trkpt lat="40.965645000" lon="-5.671201667">
        <time>2022-06-28T12:11:17Z</time>
      </trkpt>
      <trkpt lat="40.965688333" lon="-5.671118333">
        <time>2022-06-28T12:11:18Z</time>
      </trkpt>
      <trkpt lat="40.965726667" lon="-5.671031667">
        <time>2022-06-28T12:11:19Z</time>
      </trkpt>
      <trkpt lat="40.965763333" lon="-5.670941667">
        <time>2022-06-28T12:11:20Z</time>
      </trkpt>
      <trkpt lat="40.965801667" lon="-5.670851667">
        <time>2022-06-28T12:11:21Z</time>
      </trkpt>
      <trkpt lat="40.965840000" lon="-5.670758333">
        <time>2022-06-28T12:11:22Z</time>
      </trkpt>
      <trkpt lat="40.965878333" lon="-5.670665000">
        <time>2022-06-28T12:11:23Z</time>
      </trkpt>
      <trkpt lat="40.965916667" lon="-5.670570000">
        <time>2022-06-28T12:11:24Z</time>
      </trkpt>
      <trkpt lat="40.965956667" lon="-5.670473333">
        <time>2022-06-28T12:11:25Z</time>
      </trkpt>
      <trkpt lat="40.965998333" lon="-5.670376667">
        <time>2022-06-28T12:11:26Z</time>
      </trkpt>
      <trkpt lat="40.966038333" lon="-5.670281667">
        <time>2022-06-28T12:11:27Z</time>
      </trkpt>
      <trkpt lat="40.966076667" lon="-5.670190000">
        <time>2022-06-28T12:11:28Z</time>
      </trkpt>
      <trkpt lat="40.966116667" lon="-5.670098333">
        <time>2022-06-28T12:11:29Z</time>
      </trkpt>
      <trkpt lat="40.966160000" lon="-5.670006667">
        <time>2022-06-28T12:11:30Z</time>
      </trkpt>
      <trkpt lat="40.966203333" lon="-5.669915000">
        <time>2022-06-28T12:11:31Z</time>
      </trkpt>
      <trkpt lat="40.966248333" lon="-5.669820000">
        <time>2022-06-28T12:11:32Z</time>
      </trkpt>
      <trkpt lat="40.966298333" lon="-5.669728333">
        <time>2022-06-28T12:11:33Z</time>
      </trkpt>
      <trkpt lat="40.966353333" lon="-5.669643333">
        <time>2022-06-28T12:11:34Z</time>
      </trkpt>
      <trkpt lat="40.966411667" lon="-5.669565000">
        <time>2022-06-28T12:11:35Z</time>
      </trkpt>
      <trkpt lat="40.966473333" lon="-5.669485000">
        <time>2022-06-28T12:11:36Z</time>
      </trkpt>
      <trkpt lat="40.966535000" lon="-5.669413333">
        <time>2022-06-28T12:11:37Z</time>
      </trkpt>
      <trkpt lat="40.966595000" lon="-5.669343333">
        <time>2022-06-28T12:11:38Z</time>
      </trkpt>
      <trkpt lat="40.966646667" lon="-5.669278333">
        <time>2022-06-28T12:11:39Z</time>
      </trkpt>
      <trkpt lat="40.966703333" lon="-5.669221667">
        <time>2022-06-28T12:11:40Z</time>
      </trkpt>
      <trkpt lat="40.966761667" lon="-5.669156667">
        <time>2022-06-28T12:11:41Z</time>
      </trkpt>
      <trkpt lat="40.966825000" lon="-5.669093333">
        <time>2022-06-28T12:11:42Z</time>
      </trkpt>
      <trkpt lat="40.966891667" lon="-5.669028333">
        <time>2022-06-28T12:11:43Z</time>
      </trkpt>
      <trkpt lat="40.966955000" lon="-5.668965000">
        <time>2022-06-28T12:11:44Z</time>
      </trkpt>
      <trkpt lat="40.967011667" lon="-5.668893333">
        <time>2022-06-28T12:11:45Z</time>
      </trkpt>
      <trkpt lat="40.967078333" lon="-5.668816667">
        <time>2022-06-28T12:11:46Z</time>
      </trkpt>
      <trkpt lat="40.967151667" lon="-5.668728333">
        <time>2022-06-28T12:11:47Z</time>
      </trkpt>
      <trkpt lat="40.967218333" lon="-5.668646667">
        <time>2022-06-28T12:11:48Z</time>
      </trkpt>
      <trkpt lat="40.967286667" lon="-5.668568333">
        <time>2022-06-28T12:11:49Z</time>
      </trkpt>
      <trkpt lat="40.967358333" lon="-5.668481667">
        <time>2022-06-28T12:11:50Z</time>
      </trkpt>
      <trkpt lat="40.967431667" lon="-5.668390000">
        <time>2022-06-28T12:11:51Z</time>
      </trkpt>
      <trkpt lat="40.967506667" lon="-5.668298333">
        <time>2022-06-28T12:11:52Z</time>
      </trkpt>
      <trkpt lat="40.967583333" lon="-5.668206667">
        <time>2022-06-28T12:11:53Z</time>
      </trkpt>
      <trkpt lat="40.967658333" lon="-5.668113333">
        <time>2022-06-28T12:11:54Z</time>
      </trkpt>
      <trkpt lat="40.967731667" lon="-5.668020000">
        <time>2022-06-28T12:11:55Z</time>
      </trkpt>
      <trkpt lat="40.967803333" lon="-5.667930000">
        <time>2022-06-28T12:11:56Z</time>
      </trkpt>
      <trkpt lat="40.967873333" lon="-5.667841667">
        <time>2022-06-28T12:11:57Z</time>
      </trkpt>
      <trkpt lat="40.967943333" lon="-5.667753333">
        <time>2022-06-28T12:11:58Z</time>
      </trkpt>
      <trkpt lat="40.968011667" lon="-5.667666667">
        <time>2022-06-28T12:11:59Z</time>
      </trkpt>
      <trkpt lat="40.968078333" lon="-5.667576667">
        <time>2022-06-28T12:12:00Z</time>
      </trkpt>
      <trkpt lat="40.968140000" lon="-5.667483333">
        <time>2022-06-28T12:12:01Z</time>
      </trkpt>
      <trkpt lat="40.968206667" lon="-5.667393333">
        <time>2022-06-28T12:12:02Z</time>
      </trkpt>
      <trkpt lat="40.968273333" lon="-5.667301667">
        <time>2022-06-28T12:12:03Z</time>
      </trkpt>
      <trkpt lat="40.968338333" lon="-5.667211667">
        <time>2022-06-28T12:12:04Z</time>
      </trkpt>
      <trkpt lat="40.968401667" lon="-5.667123333">
        <time>2022-06-28T12:12:05Z</time>
      </trkpt>
      <trkpt lat="40.968465000" lon="-5.667038333">
        <time>2022-06-28T12:12:06Z</time>
      </trkpt>
      <trkpt lat="40.968526667" lon="-5.666955000">
        <time>2022-06-28T12:12:07Z</time>
      </trkpt>
      <trkpt lat="40.968588333" lon="-5.666870000">
        <time>2022-06-28T12:12:08Z</time>
      </trkpt>
      <trkpt lat="40.968646667" lon="-5.666783333">
        <time>2022-06-28T12:12:09Z</time>
      </trkpt>
      <trkpt lat="40.968705000" lon="-5.666691667">
        <time>2022-06-28T12:12:10Z</time>
      </trkpt>
      <trkpt lat="40.968761667" lon="-5.666605000">
        <time>2022-06-28T12:12:11Z</time>
      </trkpt>
      <trkpt lat="40.968813333" lon="-5.666513333">
        <time>2022-06-28T12:12:12Z</time>
      </trkpt>
      <trkpt lat="40.968865000" lon="-5.666423333">
        <time>2022-06-28T12:12:13Z</time>
      </trkpt>
      <trkpt lat="40.968920000" lon="-5.666331667">
        <time>2022-06-28T12:12:14Z</time>
      </trkpt>
      <trkpt lat="40.968973333" lon="-5.666241667">
        <time>2022-06-28T12:12:15Z</time>
      </trkpt>
      <trkpt lat="40.969028333" lon="-5.666150000">
        <time>2022-06-28T12:12:16Z</time>
      </trkpt>
      <trkpt lat="40.969083333" lon="-5.666060000">
        <time>2022-06-28T12:12:17Z</time>
      </trkpt>
      <trkpt lat="40.969136667" lon="-5.665966667">
        <time>2022-06-28T12:12:18Z</time>
      </trkpt>
      <trkpt lat="40.969186667" lon="-5.665873333">
        <time>2022-06-28T12:12:19Z</time>
      </trkpt>
      <trkpt lat="40.969233333" lon="-5.665776667">
        <time>2022-06-28T12:12:20Z</time>
      </trkpt>
      <trkpt lat="40.969280000" lon="-5.665681667">
        <time>2022-06-28T12:12:21Z</time>
      </trkpt>
      <trkpt lat="40.969325000" lon="-5.665588333">
        <time>2022-06-28T12:12:22Z</time>
      </trkpt>
      <trkpt lat="40.969371667" lon="-5.665496667">
        <time>2022-06-28T12:12:23Z</time>
      </trkpt>
      <trkpt lat="40.969418333" lon="-5.665405000">
        <time>2022-06-28T12:12:24Z</time>
      </trkpt>
      <trkpt lat="40.969465000" lon="-5.665315000">
        <time>2022-06-28T12:12:25Z</time>
      </trkpt>
      <trkpt lat="40.969510000" lon="-5.665223333">
        <time>2022-06-28T12:12:26Z</time>
      </trkpt>
      <trkpt lat="40.969558333" lon="-5.665130000">
        <time>2022-06-28T12:12:27Z</time>
      </trkpt>
      <trkpt lat="40.969610000" lon="-5.665036667">
        <time>2022-06-28T12:12:28Z</time>
      </trkpt>
      <trkpt lat="40.969660000" lon="-5.664943333">
        <time>2022-06-28T12:12:29Z</time>
      </trkpt>
      <trkpt lat="40.969706667" lon="-5.664848333">
        <time>2022-06-28T12:12:30Z</time>
      </trkpt>
      <trkpt lat="40.969750000" lon="-5.664755000">
        <time>2022-06-28T12:12:31Z</time>
      </trkpt>
      <trkpt lat="40.969788333" lon="-5.664665000">
        <time>2022-06-28T12:12:32Z</time>
      </trkpt>
      <trkpt lat="40.969818333" lon="-5.664581667">
        <time>2022-06-28T12:12:33Z</time>
      </trkpt>
      <trkpt lat="40.969840000" lon="-5.664505000">
        <time>2022-06-28T12:12:34Z</time>
      </trkpt>
      <trkpt lat="40.969851667" lon="-5.664435000">
        <time>2022-06-28T12:12:35Z</time>
      </trkpt>
      <trkpt lat="40.969853333" lon="-5.664373333">
        <time>2022-06-28T12:12:36Z</time>
      </trkpt>
      <trkpt lat="40.969840000" lon="-5.664326667">
        <time>2022-06-28T12:12:37Z</time>
      </trkpt>
      <trkpt lat="40.969820000" lon="-5.664305000">
        <time>2022-06-28T12:12:38Z</time>
      </trkpt>
      <trkpt lat="40.969805000" lon="-5.664295000">
        <time>2022-06-28T12:12:39Z</time>
      </trkpt>
    </trkseg>
  </trk>
</gpx>
